<?xml version="1.0" encoding="UTF-8" standalone="no" ?>
<gpx xmlns="http://www.topografix.com/GPX/1/1" xmlns:xsi="http://www.w3.org/2001/XMLSchema-instance" xsi:schemaLocation="http://www.topografix.com/GPX/1/1 http://www.topografix.com/GPX/1/1/gpx.xsd" version="1.1" creator="VisuGPX - https://www.visugpx.com">
  <metadata>
    <name>Circuit cabanes  tremezayges cascades d'Arryze</name>
    <desc><![CDATA[Un jolie circuit au départ de la route du tourmalet à hauteur du pont cascades d'Arrizes petite descente sur la route jusque au au départ effectif du chemin qui men
ne au cabanes de tremazaygues  on continue le chemin sur le val d'arrizes jusque au pont du thou du godet que l'on traverse chemin a gauche direction la mongie,descente vers le barrage du castillon ,piste au gauche ,fin du barrage chemen direction les cabanes de tremezaygues ,que l'on ne traverse pas chemin sur la droite GR plus trace jeune ,descente dans le vois raide mais si pas mouille super bien cest le chemin des cascades d'Arrizes et ont es au point de depart.  ]]></desc>
  </metadata>
  <trk>
    <name><![CDATA[Circuit cabanes  tremezayges cascades d'Arryze_1]]></name>
    <trkseg>
      <trkpt lat="42.9254" lon="0.19753">
        <ele>1296</ele>
        <time>2019-06-23T07:47:53.000Z</time>
      </trkpt>
      <trkpt lat="42.9254" lon="0.19752">
        <ele>1296</ele>
        <time>2019-06-23T07:47:54.000Z</time>
      </trkpt>
      <trkpt lat="42.9254" lon="0.19751">
        <ele>1296</ele>
        <time>2019-06-23T07:47:55.000Z</time>
      </trkpt>
      <trkpt lat="42.92541" lon="0.19749">
        <ele>1296</ele>
        <time>2019-06-23T07:47:56.000Z</time>
      </trkpt>
      <trkpt lat="42.92541" lon="0.19748">
        <ele>1297</ele>
        <time>2019-06-23T07:47:57.000Z</time>
      </trkpt>
      <trkpt lat="42.92542" lon="0.19748">
        <ele>1296</ele>
        <time>2019-06-23T07:47:58.000Z</time>
      </trkpt>
      <trkpt lat="42.92542" lon="0.19748">
        <ele>1296</ele>
        <time>2019-06-23T07:47:59.000Z</time>
      </trkpt>
      <trkpt lat="42.92543" lon="0.19748">
        <ele>1297</ele>
        <time>2019-06-23T07:48:00.000Z</time>
      </trkpt>
      <trkpt lat="42.92543" lon="0.19749">
        <ele>1297</ele>
        <time>2019-06-23T07:48:01.000Z</time>
      </trkpt>
      <trkpt lat="42.92544" lon="0.19748">
        <ele>1297</ele>
        <time>2019-06-23T07:48:02.000Z</time>
      </trkpt>
      <trkpt lat="42.92544" lon="0.19748">
        <ele>1296</ele>
        <time>2019-06-23T07:48:03.000Z</time>
      </trkpt>
      <trkpt lat="42.92544" lon="0.19747">
        <ele>1296</ele>
        <time>2019-06-23T07:48:04.000Z</time>
      </trkpt>
      <trkpt lat="42.92545" lon="0.19747">
        <ele>1296</ele>
        <time>2019-06-23T07:48:05.000Z</time>
      </trkpt>
      <trkpt lat="42.92545" lon="0.19746">
        <ele>1295</ele>
        <time>2019-06-23T07:48:06.000Z</time>
      </trkpt>
      <trkpt lat="42.92546" lon="0.19746">
        <ele>1295</ele>
        <time>2019-06-23T07:48:07.000Z</time>
      </trkpt>
      <trkpt lat="42.92547" lon="0.19745">
        <ele>1295</ele>
        <time>2019-06-23T07:48:08.000Z</time>
      </trkpt>
      <trkpt lat="42.92547" lon="0.19744">
        <ele>1295</ele>
        <time>2019-06-23T07:48:09.000Z</time>
      </trkpt>
      <trkpt lat="42.92548" lon="0.19744">
        <ele>1295</ele>
        <time>2019-06-23T07:48:10.000Z</time>
      </trkpt>
      <trkpt lat="42.92549" lon="0.19743">
        <ele>1294</ele>
        <time>2019-06-23T07:48:11.000Z</time>
      </trkpt>
      <trkpt lat="42.92549" lon="0.19743">
        <ele>1294</ele>
        <time>2019-06-23T07:48:12.000Z</time>
      </trkpt>
      <trkpt lat="42.92549" lon="0.19742">
        <ele>1294</ele>
        <time>2019-06-23T07:48:13.000Z</time>
      </trkpt>
      <trkpt lat="42.9255" lon="0.19742">
        <ele>1293</ele>
        <time>2019-06-23T07:48:14.000Z</time>
      </trkpt>
      <trkpt lat="42.92551" lon="0.19741">
        <ele>1293</ele>
        <time>2019-06-23T07:48:15.000Z</time>
      </trkpt>
      <trkpt lat="42.92551" lon="0.19741">
        <ele>1293</ele>
        <time>2019-06-23T07:48:16.000Z</time>
      </trkpt>
      <trkpt lat="42.92552" lon="0.1974">
        <ele>1292</ele>
        <time>2019-06-23T07:48:17.000Z</time>
      </trkpt>
      <trkpt lat="42.92552" lon="0.1974">
        <ele>1293</ele>
        <time>2019-06-23T07:48:18.000Z</time>
      </trkpt>
      <trkpt lat="42.92553" lon="0.1974">
        <ele>1293</ele>
        <time>2019-06-23T07:48:19.000Z</time>
      </trkpt>
      <trkpt lat="42.92554" lon="0.19739">
        <ele>1293</ele>
        <time>2019-06-23T07:48:20.000Z</time>
      </trkpt>
      <trkpt lat="42.92554" lon="0.19739">
        <ele>1293</ele>
        <time>2019-06-23T07:48:21.000Z</time>
      </trkpt>
      <trkpt lat="42.92555" lon="0.19739">
        <ele>1294</ele>
        <time>2019-06-23T07:48:22.000Z</time>
      </trkpt>
      <trkpt lat="42.92555" lon="0.19738">
        <ele>1294</ele>
        <time>2019-06-23T07:48:23.000Z</time>
      </trkpt>
      <trkpt lat="42.92555" lon="0.19738">
        <ele>1295</ele>
        <time>2019-06-23T07:48:24.000Z</time>
      </trkpt>
      <trkpt lat="42.92556" lon="0.19737">
        <ele>1296</ele>
        <time>2019-06-23T07:48:25.000Z</time>
      </trkpt>
      <trkpt lat="42.92556" lon="0.19737">
        <ele>1296</ele>
        <time>2019-06-23T07:48:26.000Z</time>
      </trkpt>
      <trkpt lat="42.92557" lon="0.19737">
        <ele>1297</ele>
        <time>2019-06-23T07:48:27.000Z</time>
      </trkpt>
      <trkpt lat="42.92557" lon="0.19736">
        <ele>1298</ele>
        <time>2019-06-23T07:48:28.000Z</time>
      </trkpt>
      <trkpt lat="42.92558" lon="0.19736">
        <ele>1298</ele>
        <time>2019-06-23T07:48:29.000Z</time>
      </trkpt>
      <trkpt lat="42.92558" lon="0.19735">
        <ele>1299</ele>
        <time>2019-06-23T07:48:30.000Z</time>
      </trkpt>
      <trkpt lat="42.92559" lon="0.19735">
        <ele>1300</ele>
        <time>2019-06-23T07:48:31.000Z</time>
      </trkpt>
      <trkpt lat="42.92559" lon="0.19734">
        <ele>1301</ele>
        <time>2019-06-23T07:48:32.000Z</time>
      </trkpt>
      <trkpt lat="42.9256" lon="0.19734">
        <ele>1301</ele>
        <time>2019-06-23T07:48:33.000Z</time>
      </trkpt>
      <trkpt lat="42.9256" lon="0.19734">
        <ele>1302</ele>
        <time>2019-06-23T07:48:34.000Z</time>
      </trkpt>
      <trkpt lat="42.92561" lon="0.19734">
        <ele>1303</ele>
        <time>2019-06-23T07:48:35.000Z</time>
      </trkpt>
      <trkpt lat="42.92562" lon="0.19733">
        <ele>1304</ele>
        <time>2019-06-23T07:48:36.000Z</time>
      </trkpt>
      <trkpt lat="42.92563" lon="0.19732">
        <ele>1305</ele>
        <time>2019-06-23T07:48:37.000Z</time>
      </trkpt>
      <trkpt lat="42.92564" lon="0.19731">
        <ele>1306</ele>
        <time>2019-06-23T07:48:38.000Z</time>
      </trkpt>
      <trkpt lat="42.92565" lon="0.19731">
        <ele>1307</ele>
        <time>2019-06-23T07:48:39.000Z</time>
      </trkpt>
      <trkpt lat="42.92565" lon="0.1973">
        <ele>1308</ele>
        <time>2019-06-23T07:48:40.000Z</time>
      </trkpt>
      <trkpt lat="42.92566" lon="0.19729">
        <ele>1307</ele>
        <time>2019-06-23T07:48:41.000Z</time>
      </trkpt>
      <trkpt lat="42.92567" lon="0.19729">
        <ele>1308</ele>
        <time>2019-06-23T07:48:42.000Z</time>
      </trkpt>
      <trkpt lat="42.92568" lon="0.19728">
        <ele>1310</ele>
        <time>2019-06-23T07:48:43.000Z</time>
      </trkpt>
      <trkpt lat="42.92568" lon="0.19727">
        <ele>1310</ele>
        <time>2019-06-23T07:48:44.000Z</time>
      </trkpt>
      <trkpt lat="42.92569" lon="0.19727">
        <ele>1311</ele>
        <time>2019-06-23T07:48:45.000Z</time>
      </trkpt>
      <trkpt lat="42.9257" lon="0.19727">
        <ele>1312</ele>
        <time>2019-06-23T07:48:46.000Z</time>
      </trkpt>
      <trkpt lat="42.92571" lon="0.19726">
        <ele>1313</ele>
        <time>2019-06-23T07:48:47.000Z</time>
      </trkpt>
      <trkpt lat="42.92571" lon="0.19725">
        <ele>1313</ele>
        <time>2019-06-23T07:48:48.000Z</time>
      </trkpt>
      <trkpt lat="42.92572" lon="0.19724">
        <ele>1313</ele>
        <time>2019-06-23T07:48:49.000Z</time>
      </trkpt>
      <trkpt lat="42.92572" lon="0.19723">
        <ele>1313</ele>
        <time>2019-06-23T07:48:50.000Z</time>
      </trkpt>
      <trkpt lat="42.92573" lon="0.19722">
        <ele>1312</ele>
        <time>2019-06-23T07:48:51.000Z</time>
      </trkpt>
      <trkpt lat="42.92574" lon="0.1972">
        <ele>1312</ele>
        <time>2019-06-23T07:48:52.000Z</time>
      </trkpt>
      <trkpt lat="42.92574" lon="0.19719">
        <ele>1311</ele>
        <time>2019-06-23T07:48:53.000Z</time>
      </trkpt>
      <trkpt lat="42.92575" lon="0.19718">
        <ele>1311</ele>
        <time>2019-06-23T07:48:54.000Z</time>
      </trkpt>
      <trkpt lat="42.92576" lon="0.19717">
        <ele>1311</ele>
        <time>2019-06-23T07:48:55.000Z</time>
      </trkpt>
      <trkpt lat="42.92577" lon="0.19716">
        <ele>1311</ele>
        <time>2019-06-23T07:48:56.000Z</time>
      </trkpt>
      <trkpt lat="42.92578" lon="0.19716">
        <ele>1310</ele>
        <time>2019-06-23T07:48:57.000Z</time>
      </trkpt>
      <trkpt lat="42.92578" lon="0.19716">
        <ele>1310</ele>
        <time>2019-06-23T07:48:58.000Z</time>
      </trkpt>
      <trkpt lat="42.92579" lon="0.19715">
        <ele>1308</ele>
        <time>2019-06-23T07:48:59.000Z</time>
      </trkpt>
      <trkpt lat="42.9258" lon="0.19714">
        <ele>1307</ele>
        <time>2019-06-23T07:49:00.000Z</time>
      </trkpt>
      <trkpt lat="42.92581" lon="0.19713">
        <ele>1305</ele>
        <time>2019-06-23T07:49:01.000Z</time>
      </trkpt>
      <trkpt lat="42.92582" lon="0.19713">
        <ele>1303</ele>
        <time>2019-06-23T07:49:02.000Z</time>
      </trkpt>
      <trkpt lat="42.92583" lon="0.19711">
        <ele>1302</ele>
        <time>2019-06-23T07:49:03.000Z</time>
      </trkpt>
      <trkpt lat="42.92584" lon="0.19711">
        <ele>1302</ele>
        <time>2019-06-23T07:49:04.000Z</time>
      </trkpt>
      <trkpt lat="42.92585" lon="0.1971">
        <ele>1302</ele>
        <time>2019-06-23T07:49:05.000Z</time>
      </trkpt>
      <trkpt lat="42.92586" lon="0.1971">
        <ele>1301</ele>
        <time>2019-06-23T07:49:06.000Z</time>
      </trkpt>
      <trkpt lat="42.92587" lon="0.1971">
        <ele>1301</ele>
        <time>2019-06-23T07:49:07.000Z</time>
      </trkpt>
      <trkpt lat="42.92588" lon="0.19709">
        <ele>1301</ele>
        <time>2019-06-23T07:49:08.000Z</time>
      </trkpt>
      <trkpt lat="42.92589" lon="0.19709">
        <ele>1300</ele>
        <time>2019-06-23T07:49:09.000Z</time>
      </trkpt>
      <trkpt lat="42.9259" lon="0.19709">
        <ele>1300</ele>
        <time>2019-06-23T07:49:10.000Z</time>
      </trkpt>
      <trkpt lat="42.9259" lon="0.19708">
        <ele>1299</ele>
        <time>2019-06-23T07:49:11.000Z</time>
      </trkpt>
      <trkpt lat="42.92591" lon="0.19708">
        <ele>1299</ele>
        <time>2019-06-23T07:49:12.000Z</time>
      </trkpt>
      <trkpt lat="42.92592" lon="0.19708">
        <ele>1299</ele>
        <time>2019-06-23T07:49:13.000Z</time>
      </trkpt>
      <trkpt lat="42.92593" lon="0.19707">
        <ele>1298</ele>
        <time>2019-06-23T07:49:14.000Z</time>
      </trkpt>
      <trkpt lat="42.92593" lon="0.19707">
        <ele>1297</ele>
        <time>2019-06-23T07:49:15.000Z</time>
      </trkpt>
      <trkpt lat="42.92594" lon="0.19707">
        <ele>1297</ele>
        <time>2019-06-23T07:49:16.000Z</time>
      </trkpt>
      <trkpt lat="42.92595" lon="0.19707">
        <ele>1294</ele>
        <time>2019-06-23T07:49:17.000Z</time>
      </trkpt>
      <trkpt lat="42.92596" lon="0.19707">
        <ele>1294</ele>
        <time>2019-06-23T07:49:18.000Z</time>
      </trkpt>
      <trkpt lat="42.92597" lon="0.19706">
        <ele>1294</ele>
        <time>2019-06-23T07:49:19.000Z</time>
      </trkpt>
      <trkpt lat="42.92598" lon="0.19706">
        <ele>1293</ele>
        <time>2019-06-23T07:49:20.000Z</time>
      </trkpt>
      <trkpt lat="42.92599" lon="0.19707">
        <ele>1294</ele>
        <time>2019-06-23T07:49:21.000Z</time>
      </trkpt>
      <trkpt lat="42.926" lon="0.19707">
        <ele>1294</ele>
        <time>2019-06-23T07:49:22.000Z</time>
      </trkpt>
      <trkpt lat="42.92601" lon="0.19708">
        <ele>1293</ele>
        <time>2019-06-23T07:49:23.000Z</time>
      </trkpt>
      <trkpt lat="42.92602" lon="0.19708">
        <ele>1293</ele>
        <time>2019-06-23T07:49:24.000Z</time>
      </trkpt>
      <trkpt lat="42.92603" lon="0.19709">
        <ele>1293</ele>
        <time>2019-06-23T07:49:25.000Z</time>
      </trkpt>
      <trkpt lat="42.92604" lon="0.19709">
        <ele>1291</ele>
        <time>2019-06-23T07:49:26.000Z</time>
      </trkpt>
      <trkpt lat="42.92605" lon="0.1971">
        <ele>1291</ele>
        <time>2019-06-23T07:49:27.000Z</time>
      </trkpt>
      <trkpt lat="42.92606" lon="0.1971">
        <ele>1291</ele>
        <time>2019-06-23T07:49:28.000Z</time>
      </trkpt>
      <trkpt lat="42.92607" lon="0.19711">
        <ele>1291</ele>
        <time>2019-06-23T07:49:29.000Z</time>
      </trkpt>
      <trkpt lat="42.92607" lon="0.19711">
        <ele>1290</ele>
        <time>2019-06-23T07:49:30.000Z</time>
      </trkpt>
      <trkpt lat="42.92608" lon="0.19712">
        <ele>1290</ele>
        <time>2019-06-23T07:49:31.000Z</time>
      </trkpt>
      <trkpt lat="42.92609" lon="0.19712">
        <ele>1289</ele>
        <time>2019-06-23T07:49:32.000Z</time>
      </trkpt>
      <trkpt lat="42.9261" lon="0.19713">
        <ele>1289</ele>
        <time>2019-06-23T07:49:33.000Z</time>
      </trkpt>
      <trkpt lat="42.9261" lon="0.19713">
        <ele>1289</ele>
        <time>2019-06-23T07:49:34.000Z</time>
      </trkpt>
      <trkpt lat="42.92611" lon="0.19714">
        <ele>1287</ele>
        <time>2019-06-23T07:49:35.000Z</time>
      </trkpt>
      <trkpt lat="42.92611" lon="0.19714">
        <ele>1287</ele>
        <time>2019-06-23T07:49:36.000Z</time>
      </trkpt>
      <trkpt lat="42.92612" lon="0.19714">
        <ele>1287</ele>
        <time>2019-06-23T07:49:37.000Z</time>
      </trkpt>
      <trkpt lat="42.92613" lon="0.19715">
        <ele>1287</ele>
        <time>2019-06-23T07:49:38.000Z</time>
      </trkpt>
      <trkpt lat="42.92613" lon="0.19716">
        <ele>1287</ele>
        <time>2019-06-23T07:49:39.000Z</time>
      </trkpt>
      <trkpt lat="42.92614" lon="0.19717">
        <ele>1287</ele>
        <time>2019-06-23T07:49:40.000Z</time>
      </trkpt>
      <trkpt lat="42.92615" lon="0.19718">
        <ele>1286</ele>
        <time>2019-06-23T07:49:41.000Z</time>
      </trkpt>
      <trkpt lat="42.92615" lon="0.19718">
        <ele>1286</ele>
        <time>2019-06-23T07:49:42.000Z</time>
      </trkpt>
      <trkpt lat="42.92616" lon="0.19719">
        <ele>1285</ele>
        <time>2019-06-23T07:49:43.000Z</time>
      </trkpt>
      <trkpt lat="42.92617" lon="0.1972">
        <ele>1285</ele>
        <time>2019-06-23T07:49:44.000Z</time>
      </trkpt>
      <trkpt lat="42.92617" lon="0.19721">
        <ele>1286</ele>
        <time>2019-06-23T07:49:45.000Z</time>
      </trkpt>
      <trkpt lat="42.92618" lon="0.19722">
        <ele>1286</ele>
        <time>2019-06-23T07:49:46.000Z</time>
      </trkpt>
      <trkpt lat="42.92619" lon="0.19723">
        <ele>1286</ele>
        <time>2019-06-23T07:49:47.000Z</time>
      </trkpt>
      <trkpt lat="42.92619" lon="0.19724">
        <ele>1286</ele>
        <time>2019-06-23T07:49:48.000Z</time>
      </trkpt>
      <trkpt lat="42.9262" lon="0.19725">
        <ele>1285</ele>
        <time>2019-06-23T07:49:49.000Z</time>
      </trkpt>
      <trkpt lat="42.9262" lon="0.19726">
        <ele>1285</ele>
        <time>2019-06-23T07:49:50.000Z</time>
      </trkpt>
      <trkpt lat="42.92621" lon="0.19727">
        <ele>1287</ele>
        <time>2019-06-23T07:49:51.000Z</time>
      </trkpt>
      <trkpt lat="42.92621" lon="0.19728">
        <ele>1287</ele>
        <time>2019-06-23T07:49:52.000Z</time>
      </trkpt>
      <trkpt lat="42.92622" lon="0.1973">
        <ele>1287</ele>
        <time>2019-06-23T07:49:53.000Z</time>
      </trkpt>
      <trkpt lat="42.92622" lon="0.19731">
        <ele>1287</ele>
        <time>2019-06-23T07:49:54.000Z</time>
      </trkpt>
      <trkpt lat="42.92623" lon="0.19732">
        <ele>1287</ele>
        <time>2019-06-23T07:49:55.000Z</time>
      </trkpt>
      <trkpt lat="42.92623" lon="0.19733">
        <ele>1288</ele>
        <time>2019-06-23T07:49:56.000Z</time>
      </trkpt>
      <trkpt lat="42.92624" lon="0.19735">
        <ele>1289</ele>
        <time>2019-06-23T07:49:57.000Z</time>
      </trkpt>
      <trkpt lat="42.92624" lon="0.19736">
        <ele>1288</ele>
        <time>2019-06-23T07:49:58.000Z</time>
      </trkpt>
      <trkpt lat="42.92625" lon="0.19738">
        <ele>1288</ele>
        <time>2019-06-23T07:49:59.000Z</time>
      </trkpt>
      <trkpt lat="42.92625" lon="0.19739">
        <ele>1288</ele>
        <time>2019-06-23T07:50:00.000Z</time>
      </trkpt>
      <trkpt lat="42.92626" lon="0.1974">
        <ele>1288</ele>
        <time>2019-06-23T07:50:01.000Z</time>
      </trkpt>
      <trkpt lat="42.92626" lon="0.19741">
        <ele>1288</ele>
        <time>2019-06-23T07:50:02.000Z</time>
      </trkpt>
      <trkpt lat="42.92626" lon="0.19742">
        <ele>1289</ele>
        <time>2019-06-23T07:50:03.000Z</time>
      </trkpt>
      <trkpt lat="42.92627" lon="0.19744">
        <ele>1289</ele>
        <time>2019-06-23T07:50:04.000Z</time>
      </trkpt>
      <trkpt lat="42.92627" lon="0.19745">
        <ele>1289</ele>
        <time>2019-06-23T07:50:05.000Z</time>
      </trkpt>
      <trkpt lat="42.92627" lon="0.19746">
        <ele>1290</ele>
        <time>2019-06-23T07:50:06.000Z</time>
      </trkpt>
      <trkpt lat="42.92627" lon="0.19747">
        <ele>1291</ele>
        <time>2019-06-23T07:50:07.000Z</time>
      </trkpt>
      <trkpt lat="42.92627" lon="0.19749">
        <ele>1291</ele>
        <time>2019-06-23T07:50:08.000Z</time>
      </trkpt>
      <trkpt lat="42.92627" lon="0.1975">
        <ele>1292</ele>
        <time>2019-06-23T07:50:09.000Z</time>
      </trkpt>
      <trkpt lat="42.92628" lon="0.19752">
        <ele>1292</ele>
        <time>2019-06-23T07:50:10.000Z</time>
      </trkpt>
      <trkpt lat="42.92628" lon="0.19753">
        <ele>1292</ele>
        <time>2019-06-23T07:50:11.000Z</time>
      </trkpt>
      <trkpt lat="42.92628" lon="0.19754">
        <ele>1292</ele>
        <time>2019-06-23T07:50:12.000Z</time>
      </trkpt>
      <trkpt lat="42.92628" lon="0.19756">
        <ele>1292</ele>
        <time>2019-06-23T07:50:13.000Z</time>
      </trkpt>
      <trkpt lat="42.92628" lon="0.19757">
        <ele>1293</ele>
        <time>2019-06-23T07:50:14.000Z</time>
      </trkpt>
      <trkpt lat="42.92628" lon="0.19758">
        <ele>1293</ele>
        <time>2019-06-23T07:50:15.000Z</time>
      </trkpt>
      <trkpt lat="42.92628" lon="0.1976">
        <ele>1293</ele>
        <time>2019-06-23T07:50:16.000Z</time>
      </trkpt>
      <trkpt lat="42.92629" lon="0.19761">
        <ele>1293</ele>
        <time>2019-06-23T07:50:17.000Z</time>
      </trkpt>
      <trkpt lat="42.92629" lon="0.19762">
        <ele>1293</ele>
        <time>2019-06-23T07:50:18.000Z</time>
      </trkpt>
      <trkpt lat="42.9263" lon="0.19763">
        <ele>1293</ele>
        <time>2019-06-23T07:50:19.000Z</time>
      </trkpt>
      <trkpt lat="42.9263" lon="0.19765">
        <ele>1293</ele>
        <time>2019-06-23T07:50:20.000Z</time>
      </trkpt>
      <trkpt lat="42.9263" lon="0.19766">
        <ele>1293</ele>
        <time>2019-06-23T07:50:21.000Z</time>
      </trkpt>
      <trkpt lat="42.92631" lon="0.19767">
        <ele>1293</ele>
        <time>2019-06-23T07:50:22.000Z</time>
      </trkpt>
      <trkpt lat="42.92631" lon="0.19768">
        <ele>1292</ele>
        <time>2019-06-23T07:50:23.000Z</time>
      </trkpt>
      <trkpt lat="42.92632" lon="0.19769">
        <ele>1291</ele>
        <time>2019-06-23T07:50:24.000Z</time>
      </trkpt>
      <trkpt lat="42.92633" lon="0.1977">
        <ele>1290</ele>
        <time>2019-06-23T07:50:25.000Z</time>
      </trkpt>
      <trkpt lat="42.92634" lon="0.1977">
        <ele>1289</ele>
        <time>2019-06-23T07:50:26.000Z</time>
      </trkpt>
      <trkpt lat="42.92634" lon="0.19771">
        <ele>1289</ele>
        <time>2019-06-23T07:50:27.000Z</time>
      </trkpt>
      <trkpt lat="42.92635" lon="0.19772">
        <ele>1289</ele>
        <time>2019-06-23T07:50:28.000Z</time>
      </trkpt>
      <trkpt lat="42.92636" lon="0.19773">
        <ele>1288</ele>
        <time>2019-06-23T07:50:29.000Z</time>
      </trkpt>
      <trkpt lat="42.92637" lon="0.19774">
        <ele>1287</ele>
        <time>2019-06-23T07:50:30.000Z</time>
      </trkpt>
      <trkpt lat="42.92637" lon="0.19774">
        <ele>1287</ele>
        <time>2019-06-23T07:50:31.000Z</time>
      </trkpt>
      <trkpt lat="42.92638" lon="0.19775">
        <ele>1287</ele>
        <time>2019-06-23T07:50:32.000Z</time>
      </trkpt>
      <trkpt lat="42.92639" lon="0.19776">
        <ele>1286</ele>
        <time>2019-06-23T07:50:33.000Z</time>
      </trkpt>
      <trkpt lat="42.9264" lon="0.19777">
        <ele>1286</ele>
        <time>2019-06-23T07:50:34.000Z</time>
      </trkpt>
      <trkpt lat="42.9264" lon="0.19778">
        <ele>1286</ele>
        <time>2019-06-23T07:50:35.000Z</time>
      </trkpt>
      <trkpt lat="42.92641" lon="0.19779">
        <ele>1286</ele>
        <time>2019-06-23T07:50:36.000Z</time>
      </trkpt>
      <trkpt lat="42.92642" lon="0.19779">
        <ele>1285</ele>
        <time>2019-06-23T07:50:37.000Z</time>
      </trkpt>
      <trkpt lat="42.92642" lon="0.1978">
        <ele>1285</ele>
        <time>2019-06-23T07:50:38.000Z</time>
      </trkpt>
      <trkpt lat="42.92643" lon="0.19781">
        <ele>1285</ele>
        <time>2019-06-23T07:50:39.000Z</time>
      </trkpt>
      <trkpt lat="42.92644" lon="0.19781">
        <ele>1284</ele>
        <time>2019-06-23T07:50:40.000Z</time>
      </trkpt>
      <trkpt lat="42.92645" lon="0.19782">
        <ele>1284</ele>
        <time>2019-06-23T07:50:41.000Z</time>
      </trkpt>
      <trkpt lat="42.92646" lon="0.19783">
        <ele>1284</ele>
        <time>2019-06-23T07:50:42.000Z</time>
      </trkpt>
      <trkpt lat="42.92646" lon="0.19784">
        <ele>1283</ele>
        <time>2019-06-23T07:50:43.000Z</time>
      </trkpt>
      <trkpt lat="42.92647" lon="0.19784">
        <ele>1283</ele>
        <time>2019-06-23T07:50:44.000Z</time>
      </trkpt>
      <trkpt lat="42.92648" lon="0.19785">
        <ele>1283</ele>
        <time>2019-06-23T07:50:45.000Z</time>
      </trkpt>
      <trkpt lat="42.92649" lon="0.19786">
        <ele>1283</ele>
        <time>2019-06-23T07:50:46.000Z</time>
      </trkpt>
      <trkpt lat="42.9265" lon="0.19787">
        <ele>1283</ele>
        <time>2019-06-23T07:50:47.000Z</time>
      </trkpt>
      <trkpt lat="42.92651" lon="0.19787">
        <ele>1283</ele>
        <time>2019-06-23T07:50:48.000Z</time>
      </trkpt>
      <trkpt lat="42.92651" lon="0.19788">
        <ele>1283</ele>
        <time>2019-06-23T07:50:49.000Z</time>
      </trkpt>
      <trkpt lat="42.92652" lon="0.19789">
        <ele>1283</ele>
        <time>2019-06-23T07:50:50.000Z</time>
      </trkpt>
      <trkpt lat="42.92653" lon="0.19789">
        <ele>1282</ele>
        <time>2019-06-23T07:50:51.000Z</time>
      </trkpt>
      <trkpt lat="42.92653" lon="0.1979">
        <ele>1282</ele>
        <time>2019-06-23T07:50:52.000Z</time>
      </trkpt>
      <trkpt lat="42.92654" lon="0.19791">
        <ele>1281</ele>
        <time>2019-06-23T07:50:53.000Z</time>
      </trkpt>
      <trkpt lat="42.92654" lon="0.19792">
        <ele>1281</ele>
        <time>2019-06-23T07:50:54.000Z</time>
      </trkpt>
      <trkpt lat="42.92655" lon="0.19792">
        <ele>1280</ele>
        <time>2019-06-23T07:50:55.000Z</time>
      </trkpt>
      <trkpt lat="42.92656" lon="0.19793">
        <ele>1280</ele>
        <time>2019-06-23T07:50:56.000Z</time>
      </trkpt>
      <trkpt lat="42.92656" lon="0.19794">
        <ele>1279</ele>
        <time>2019-06-23T07:50:57.000Z</time>
      </trkpt>
      <trkpt lat="42.92657" lon="0.19794">
        <ele>1279</ele>
        <time>2019-06-23T07:50:58.000Z</time>
      </trkpt>
      <trkpt lat="42.92658" lon="0.19795">
        <ele>1278</ele>
        <time>2019-06-23T07:50:59.000Z</time>
      </trkpt>
      <trkpt lat="42.92658" lon="0.19795">
        <ele>1278</ele>
        <time>2019-06-23T07:51:00.000Z</time>
      </trkpt>
      <trkpt lat="42.92659" lon="0.19796">
        <ele>1278</ele>
        <time>2019-06-23T07:51:01.000Z</time>
      </trkpt>
      <trkpt lat="42.9266" lon="0.19797">
        <ele>1278</ele>
        <time>2019-06-23T07:51:02.000Z</time>
      </trkpt>
      <trkpt lat="42.92661" lon="0.19798">
        <ele>1278</ele>
        <time>2019-06-23T07:51:03.000Z</time>
      </trkpt>
      <trkpt lat="42.92661" lon="0.19799">
        <ele>1278</ele>
        <time>2019-06-23T07:51:04.000Z</time>
      </trkpt>
      <trkpt lat="42.92662" lon="0.198">
        <ele>1277</ele>
        <time>2019-06-23T07:51:05.000Z</time>
      </trkpt>
      <trkpt lat="42.92663" lon="0.19801">
        <ele>1277</ele>
        <time>2019-06-23T07:51:06.000Z</time>
      </trkpt>
      <trkpt lat="42.92664" lon="0.19802">
        <ele>1278</ele>
        <time>2019-06-23T07:51:07.000Z</time>
      </trkpt>
      <trkpt lat="42.92665" lon="0.19803">
        <ele>1278</ele>
        <time>2019-06-23T07:51:08.000Z</time>
      </trkpt>
      <trkpt lat="42.92665" lon="0.19804">
        <ele>1278</ele>
        <time>2019-06-23T07:51:09.000Z</time>
      </trkpt>
      <trkpt lat="42.92666" lon="0.19805">
        <ele>1278</ele>
        <time>2019-06-23T07:51:10.000Z</time>
      </trkpt>
      <trkpt lat="42.92667" lon="0.19806">
        <ele>1278</ele>
        <time>2019-06-23T07:51:11.000Z</time>
      </trkpt>
      <trkpt lat="42.92668" lon="0.19807">
        <ele>1277</ele>
        <time>2019-06-23T07:51:12.000Z</time>
      </trkpt>
      <trkpt lat="42.92668" lon="0.19808">
        <ele>1277</ele>
        <time>2019-06-23T07:51:13.000Z</time>
      </trkpt>
      <trkpt lat="42.92669" lon="0.19809">
        <ele>1277</ele>
        <time>2019-06-23T07:51:14.000Z</time>
      </trkpt>
      <trkpt lat="42.9267" lon="0.19809">
        <ele>1276</ele>
        <time>2019-06-23T07:51:15.000Z</time>
      </trkpt>
      <trkpt lat="42.9267" lon="0.1981">
        <ele>1276</ele>
        <time>2019-06-23T07:51:16.000Z</time>
      </trkpt>
      <trkpt lat="42.92671" lon="0.19811">
        <ele>1276</ele>
        <time>2019-06-23T07:51:17.000Z</time>
      </trkpt>
      <trkpt lat="42.92672" lon="0.19812">
        <ele>1275</ele>
        <time>2019-06-23T07:51:18.000Z</time>
      </trkpt>
      <trkpt lat="42.92672" lon="0.19813">
        <ele>1276</ele>
        <time>2019-06-23T07:51:19.000Z</time>
      </trkpt>
      <trkpt lat="42.92673" lon="0.19814">
        <ele>1276</ele>
        <time>2019-06-23T07:51:20.000Z</time>
      </trkpt>
      <trkpt lat="42.92674" lon="0.19814">
        <ele>1276</ele>
        <time>2019-06-23T07:51:21.000Z</time>
      </trkpt>
      <trkpt lat="42.92675" lon="0.19815">
        <ele>1276</ele>
        <time>2019-06-23T07:51:22.000Z</time>
      </trkpt>
      <trkpt lat="42.92676" lon="0.19816">
        <ele>1276</ele>
        <time>2019-06-23T07:51:23.000Z</time>
      </trkpt>
      <trkpt lat="42.92676" lon="0.19817">
        <ele>1275</ele>
        <time>2019-06-23T07:51:24.000Z</time>
      </trkpt>
      <trkpt lat="42.92677" lon="0.19818">
        <ele>1275</ele>
        <time>2019-06-23T07:51:25.000Z</time>
      </trkpt>
      <trkpt lat="42.92678" lon="0.19818">
        <ele>1275</ele>
        <time>2019-06-23T07:51:26.000Z</time>
      </trkpt>
      <trkpt lat="42.92679" lon="0.19819">
        <ele>1275</ele>
        <time>2019-06-23T07:51:27.000Z</time>
      </trkpt>
      <trkpt lat="42.9268" lon="0.1982">
        <ele>1275</ele>
        <time>2019-06-23T07:51:28.000Z</time>
      </trkpt>
      <trkpt lat="42.9268" lon="0.19821">
        <ele>1275</ele>
        <time>2019-06-23T07:51:29.000Z</time>
      </trkpt>
      <trkpt lat="42.92681" lon="0.19821">
        <ele>1274</ele>
        <time>2019-06-23T07:51:30.000Z</time>
      </trkpt>
      <trkpt lat="42.92681" lon="0.19822">
        <ele>1275</ele>
        <time>2019-06-23T07:51:31.000Z</time>
      </trkpt>
      <trkpt lat="42.92682" lon="0.19822">
        <ele>1275</ele>
        <time>2019-06-23T07:51:32.000Z</time>
      </trkpt>
      <trkpt lat="42.92683" lon="0.19823">
        <ele>1275</ele>
        <time>2019-06-23T07:51:33.000Z</time>
      </trkpt>
      <trkpt lat="42.92683" lon="0.19824">
        <ele>1275</ele>
        <time>2019-06-23T07:51:34.000Z</time>
      </trkpt>
      <trkpt lat="42.92684" lon="0.19825">
        <ele>1275</ele>
        <time>2019-06-23T07:51:35.000Z</time>
      </trkpt>
      <trkpt lat="42.92685" lon="0.19825">
        <ele>1275</ele>
        <time>2019-06-23T07:51:36.000Z</time>
      </trkpt>
      <trkpt lat="42.92686" lon="0.19826">
        <ele>1274</ele>
        <time>2019-06-23T07:51:37.000Z</time>
      </trkpt>
      <trkpt lat="42.92686" lon="0.19826">
        <ele>1273</ele>
        <time>2019-06-23T07:51:38.000Z</time>
      </trkpt>
      <trkpt lat="42.92687" lon="0.19826">
        <ele>1274</ele>
        <time>2019-06-23T07:51:39.000Z</time>
      </trkpt>
      <trkpt lat="42.92688" lon="0.19827">
        <ele>1274</ele>
        <time>2019-06-23T07:51:40.000Z</time>
      </trkpt>
      <trkpt lat="42.92689" lon="0.19828">
        <ele>1274</ele>
        <time>2019-06-23T07:51:41.000Z</time>
      </trkpt>
      <trkpt lat="42.9269" lon="0.19828">
        <ele>1274</ele>
        <time>2019-06-23T07:51:42.000Z</time>
      </trkpt>
      <trkpt lat="42.9269" lon="0.19829">
        <ele>1274</ele>
        <time>2019-06-23T07:51:43.000Z</time>
      </trkpt>
      <trkpt lat="42.92691" lon="0.1983">
        <ele>1273</ele>
        <time>2019-06-23T07:51:44.000Z</time>
      </trkpt>
      <trkpt lat="42.92692" lon="0.1983">
        <ele>1273</ele>
        <time>2019-06-23T07:51:45.000Z</time>
      </trkpt>
      <trkpt lat="42.92692" lon="0.19831">
        <ele>1273</ele>
        <time>2019-06-23T07:51:46.000Z</time>
      </trkpt>
      <trkpt lat="42.92693" lon="0.19831">
        <ele>1273</ele>
        <time>2019-06-23T07:51:47.000Z</time>
      </trkpt>
      <trkpt lat="42.92694" lon="0.19832">
        <ele>1273</ele>
        <time>2019-06-23T07:51:48.000Z</time>
      </trkpt>
      <trkpt lat="42.92694" lon="0.19832">
        <ele>1273</ele>
        <time>2019-06-23T07:51:49.000Z</time>
      </trkpt>
      <trkpt lat="42.92695" lon="0.19833">
        <ele>1272</ele>
        <time>2019-06-23T07:51:50.000Z</time>
      </trkpt>
      <trkpt lat="42.92696" lon="0.19833">
        <ele>1272</ele>
        <time>2019-06-23T07:51:51.000Z</time>
      </trkpt>
      <trkpt lat="42.92698" lon="0.19833">
        <ele>1272</ele>
        <time>2019-06-23T07:51:52.000Z</time>
      </trkpt>
      <trkpt lat="42.92698" lon="0.19834">
        <ele>1272</ele>
        <time>2019-06-23T07:51:53.000Z</time>
      </trkpt>
      <trkpt lat="42.92699" lon="0.19834">
        <ele>1272</ele>
        <time>2019-06-23T07:51:54.000Z</time>
      </trkpt>
      <trkpt lat="42.927" lon="0.19835">
        <ele>1272</ele>
        <time>2019-06-23T07:51:55.000Z</time>
      </trkpt>
      <trkpt lat="42.92701" lon="0.19835">
        <ele>1274</ele>
        <time>2019-06-23T07:51:56.000Z</time>
      </trkpt>
      <trkpt lat="42.92702" lon="0.19836">
        <ele>1274</ele>
        <time>2019-06-23T07:51:57.000Z</time>
      </trkpt>
      <trkpt lat="42.92703" lon="0.19836">
        <ele>1275</ele>
        <time>2019-06-23T07:51:58.000Z</time>
      </trkpt>
      <trkpt lat="42.92703" lon="0.19837">
        <ele>1276</ele>
        <time>2019-06-23T07:51:59.000Z</time>
      </trkpt>
      <trkpt lat="42.92704" lon="0.19838">
        <ele>1276</ele>
        <time>2019-06-23T07:52:00.000Z</time>
      </trkpt>
      <trkpt lat="42.92704" lon="0.19839">
        <ele>1277</ele>
        <time>2019-06-23T07:52:01.000Z</time>
      </trkpt>
      <trkpt lat="42.92705" lon="0.19839">
        <ele>1277</ele>
        <time>2019-06-23T07:52:02.000Z</time>
      </trkpt>
      <trkpt lat="42.92705" lon="0.19839">
        <ele>1277</ele>
        <time>2019-06-23T07:52:03.000Z</time>
      </trkpt>
      <trkpt lat="42.92705" lon="0.19839">
        <ele>1277</ele>
        <time>2019-06-23T07:52:04.000Z</time>
      </trkpt>
      <trkpt lat="42.92706" lon="0.19839">
        <ele>1277</ele>
        <time>2019-06-23T07:52:05.000Z</time>
      </trkpt>
      <trkpt lat="42.92706" lon="0.19838">
        <ele>1277</ele>
        <time>2019-06-23T07:52:06.000Z</time>
      </trkpt>
      <trkpt lat="42.92707" lon="0.19837">
        <ele>1276</ele>
        <time>2019-06-23T07:52:07.000Z</time>
      </trkpt>
      <trkpt lat="42.92707" lon="0.19837">
        <ele>1276</ele>
        <time>2019-06-23T07:52:08.000Z</time>
      </trkpt>
      <trkpt lat="42.92708" lon="0.19836">
        <ele>1276</ele>
        <time>2019-06-23T07:52:09.000Z</time>
      </trkpt>
      <trkpt lat="42.92708" lon="0.19835">
        <ele>1276</ele>
        <time>2019-06-23T07:52:10.000Z</time>
      </trkpt>
      <trkpt lat="42.92708" lon="0.19834">
        <ele>1277</ele>
        <time>2019-06-23T07:52:11.000Z</time>
      </trkpt>
      <trkpt lat="42.92709" lon="0.19834">
        <ele>1277</ele>
        <time>2019-06-23T07:52:12.000Z</time>
      </trkpt>
      <trkpt lat="42.92709" lon="0.19833">
        <ele>1277</ele>
        <time>2019-06-23T07:52:13.000Z</time>
      </trkpt>
      <trkpt lat="42.92709" lon="0.19832">
        <ele>1277</ele>
        <time>2019-06-23T07:52:14.000Z</time>
      </trkpt>
      <trkpt lat="42.92709" lon="0.19832">
        <ele>1277</ele>
        <time>2019-06-23T07:52:15.000Z</time>
      </trkpt>
      <trkpt lat="42.9271" lon="0.19831">
        <ele>1277</ele>
        <time>2019-06-23T07:52:16.000Z</time>
      </trkpt>
      <trkpt lat="42.9271" lon="0.19831">
        <ele>1277</ele>
        <time>2019-06-23T07:52:17.000Z</time>
      </trkpt>
      <trkpt lat="42.9271" lon="0.19831">
        <ele>1277</ele>
        <time>2019-06-23T07:52:18.000Z</time>
      </trkpt>
      <trkpt lat="42.92711" lon="0.1983">
        <ele>1277</ele>
        <time>2019-06-23T07:52:19.000Z</time>
      </trkpt>
      <trkpt lat="42.92711" lon="0.1983">
        <ele>1277</ele>
        <time>2019-06-23T07:52:20.000Z</time>
      </trkpt>
      <trkpt lat="42.92711" lon="0.1983">
        <ele>1277</ele>
        <time>2019-06-23T07:52:21.000Z</time>
      </trkpt>
      <trkpt lat="42.92711" lon="0.19829">
        <ele>1278</ele>
        <time>2019-06-23T07:52:22.000Z</time>
      </trkpt>
      <trkpt lat="42.92712" lon="0.19829">
        <ele>1278</ele>
        <time>2019-06-23T07:52:23.000Z</time>
      </trkpt>
      <trkpt lat="42.92712" lon="0.19828">
        <ele>1278</ele>
        <time>2019-06-23T07:52:24.000Z</time>
      </trkpt>
      <trkpt lat="42.92712" lon="0.19828">
        <ele>1278</ele>
        <time>2019-06-23T07:52:25.000Z</time>
      </trkpt>
      <trkpt lat="42.92712" lon="0.19827">
        <ele>1279</ele>
        <time>2019-06-23T07:52:26.000Z</time>
      </trkpt>
      <trkpt lat="42.92713" lon="0.19827">
        <ele>1279</ele>
        <time>2019-06-23T07:52:27.000Z</time>
      </trkpt>
      <trkpt lat="42.92713" lon="0.19827">
        <ele>1280</ele>
        <time>2019-06-23T07:52:28.000Z</time>
      </trkpt>
      <trkpt lat="42.92713" lon="0.19827">
        <ele>1281</ele>
        <time>2019-06-23T07:52:29.000Z</time>
      </trkpt>
      <trkpt lat="42.92713" lon="0.19826">
        <ele>1276</ele>
        <time>2019-06-23T07:52:30.000Z</time>
      </trkpt>
      <trkpt lat="42.92714" lon="0.19825">
        <ele>1278</ele>
        <time>2019-06-23T07:52:31.000Z</time>
      </trkpt>
      <trkpt lat="42.92715" lon="0.19825">
        <ele>1278</ele>
        <time>2019-06-23T07:52:32.000Z</time>
      </trkpt>
      <trkpt lat="42.92715" lon="0.19825">
        <ele>1279</ele>
        <time>2019-06-23T07:52:33.000Z</time>
      </trkpt>
      <trkpt lat="42.92716" lon="0.19825">
        <ele>1277</ele>
        <time>2019-06-23T07:52:34.000Z</time>
      </trkpt>
      <trkpt lat="42.92716" lon="0.19825">
        <ele>1277</ele>
        <time>2019-06-23T07:52:35.000Z</time>
      </trkpt>
      <trkpt lat="42.92716" lon="0.19821">
        <ele>1278</ele>
        <time>2019-06-23T07:52:36.043Z</time>
      </trkpt>
      <trkpt lat="42.92717" lon="0.19821">
        <ele>1279</ele>
        <time>2019-06-23T07:52:37.043Z</time>
      </trkpt>
      <trkpt lat="42.92717" lon="0.19821">
        <ele>1279</ele>
        <time>2019-06-23T07:52:38.043Z</time>
      </trkpt>
      <trkpt lat="42.92717" lon="0.1982">
        <ele>1279</ele>
        <time>2019-06-23T07:52:39.043Z</time>
      </trkpt>
      <trkpt lat="42.92717" lon="0.1982">
        <ele>1278</ele>
        <time>2019-06-23T07:52:40.043Z</time>
      </trkpt>
      <trkpt lat="42.92717" lon="0.19819">
        <ele>1278</ele>
        <time>2019-06-23T07:52:41.043Z</time>
      </trkpt>
      <trkpt lat="42.92718" lon="0.19819">
        <ele>1278</ele>
        <time>2019-06-23T07:52:42.043Z</time>
      </trkpt>
      <trkpt lat="42.92718" lon="0.19818">
        <ele>1278</ele>
        <time>2019-06-23T07:52:43.043Z</time>
      </trkpt>
      <trkpt lat="42.92718" lon="0.19818">
        <ele>1279</ele>
        <time>2019-06-23T07:52:44.043Z</time>
      </trkpt>
      <trkpt lat="42.92718" lon="0.19817">
        <ele>1279</ele>
        <time>2019-06-23T07:52:45.043Z</time>
      </trkpt>
      <trkpt lat="42.92718" lon="0.19817">
        <ele>1279</ele>
        <time>2019-06-23T07:52:46.043Z</time>
      </trkpt>
      <trkpt lat="42.92718" lon="0.19816">
        <ele>1279</ele>
        <time>2019-06-23T07:52:47.043Z</time>
      </trkpt>
      <trkpt lat="42.92719" lon="0.19816">
        <ele>1279</ele>
        <time>2019-06-23T07:52:48.043Z</time>
      </trkpt>
      <trkpt lat="42.92719" lon="0.19815">
        <ele>1279</ele>
        <time>2019-06-23T07:52:49.043Z</time>
      </trkpt>
      <trkpt lat="42.92719" lon="0.19815">
        <ele>1279</ele>
        <time>2019-06-23T07:52:50.043Z</time>
      </trkpt>
      <trkpt lat="42.92719" lon="0.19814">
        <ele>1279</ele>
        <time>2019-06-23T07:52:51.043Z</time>
      </trkpt>
      <trkpt lat="42.92719" lon="0.19814">
        <ele>1279</ele>
        <time>2019-06-23T07:52:52.043Z</time>
      </trkpt>
      <trkpt lat="42.9272" lon="0.19814">
        <ele>1279</ele>
        <time>2019-06-23T07:52:53.043Z</time>
      </trkpt>
      <trkpt lat="42.9272" lon="0.19813">
        <ele>1279</ele>
        <time>2019-06-23T07:52:54.043Z</time>
      </trkpt>
      <trkpt lat="42.9272" lon="0.19813">
        <ele>1279</ele>
        <time>2019-06-23T07:52:55.043Z</time>
      </trkpt>
      <trkpt lat="42.92724" lon="0.1981">
        <ele>1279</ele>
        <time>2019-06-23T07:52:56.055Z</time>
      </trkpt>
      <trkpt lat="42.92725" lon="0.19811">
        <ele>1279</ele>
        <time>2019-06-23T07:52:57.055Z</time>
      </trkpt>
      <trkpt lat="42.92725" lon="0.19811">
        <ele>1279</ele>
        <time>2019-06-23T07:52:58.055Z</time>
      </trkpt>
      <trkpt lat="42.92726" lon="0.1981">
        <ele>1279</ele>
        <time>2019-06-23T07:52:59.055Z</time>
      </trkpt>
      <trkpt lat="42.92726" lon="0.1981">
        <ele>1279</ele>
        <time>2019-06-23T07:53:00.055Z</time>
      </trkpt>
      <trkpt lat="42.92726" lon="0.1981">
        <ele>1279</ele>
        <time>2019-06-23T07:53:01.055Z</time>
      </trkpt>
      <trkpt lat="42.92728" lon="0.19807">
        <ele>1280</ele>
        <time>2019-06-23T07:53:02.067Z</time>
      </trkpt>
      <trkpt lat="42.92728" lon="0.19807">
        <ele>1280</ele>
        <time>2019-06-23T07:53:03.067Z</time>
      </trkpt>
      <trkpt lat="42.92729" lon="0.19806">
        <ele>1280</ele>
        <time>2019-06-23T07:53:04.067Z</time>
      </trkpt>
      <trkpt lat="42.92729" lon="0.19806">
        <ele>1280</ele>
        <time>2019-06-23T07:53:05.067Z</time>
      </trkpt>
      <trkpt lat="42.92729" lon="0.19805">
        <ele>1280</ele>
        <time>2019-06-23T07:53:06.067Z</time>
      </trkpt>
      <trkpt lat="42.92729" lon="0.19805">
        <ele>1280</ele>
        <time>2019-06-23T07:53:07.067Z</time>
      </trkpt>
      <trkpt lat="42.92729" lon="0.19804">
        <ele>1280</ele>
        <time>2019-06-23T07:53:08.067Z</time>
      </trkpt>
      <trkpt lat="42.92729" lon="0.19804">
        <ele>1280</ele>
        <time>2019-06-23T07:53:09.067Z</time>
      </trkpt>
      <trkpt lat="42.92729" lon="0.19803">
        <ele>1280</ele>
        <time>2019-06-23T07:53:10.067Z</time>
      </trkpt>
      <trkpt lat="42.92729" lon="0.19803">
        <ele>1280</ele>
        <time>2019-06-23T07:53:11.067Z</time>
      </trkpt>
      <trkpt lat="42.92729" lon="0.19802">
        <ele>1280</ele>
        <time>2019-06-23T07:53:12.067Z</time>
      </trkpt>
      <trkpt lat="42.92729" lon="0.19801">
        <ele>1281</ele>
        <time>2019-06-23T07:53:13.067Z</time>
      </trkpt>
      <trkpt lat="42.92729" lon="0.19801">
        <ele>1281</ele>
        <time>2019-06-23T07:53:14.067Z</time>
      </trkpt>
      <trkpt lat="42.92729" lon="0.198">
        <ele>1281</ele>
        <time>2019-06-23T07:53:15.067Z</time>
      </trkpt>
      <trkpt lat="42.92729" lon="0.198">
        <ele>1281</ele>
        <time>2019-06-23T07:53:16.067Z</time>
      </trkpt>
      <trkpt lat="42.92729" lon="0.198">
        <ele>1281</ele>
        <time>2019-06-23T07:53:17.067Z</time>
      </trkpt>
      <trkpt lat="42.92728" lon="0.198">
        <ele>1281</ele>
        <time>2019-06-23T07:53:18.067Z</time>
      </trkpt>
      <trkpt lat="42.92728" lon="0.198">
        <ele>1282</ele>
        <time>2019-06-23T07:53:19.067Z</time>
      </trkpt>
      <trkpt lat="42.92727" lon="0.198">
        <ele>1282</ele>
        <time>2019-06-23T07:53:20.067Z</time>
      </trkpt>
      <trkpt lat="42.92727" lon="0.198">
        <ele>1282</ele>
        <time>2019-06-23T07:53:21.067Z</time>
      </trkpt>
      <trkpt lat="42.92727" lon="0.198">
        <ele>1282</ele>
        <time>2019-06-23T07:53:22.067Z</time>
      </trkpt>
      <trkpt lat="42.92726" lon="0.198">
        <ele>1282</ele>
        <time>2019-06-23T07:53:23.067Z</time>
      </trkpt>
      <trkpt lat="42.92726" lon="0.198">
        <ele>1283</ele>
        <time>2019-06-23T07:53:24.067Z</time>
      </trkpt>
      <trkpt lat="42.92726" lon="0.19801">
        <ele>1283</ele>
        <time>2019-06-23T07:53:25.067Z</time>
      </trkpt>
      <trkpt lat="42.92725" lon="0.19801">
        <ele>1283</ele>
        <time>2019-06-23T07:53:26.067Z</time>
      </trkpt>
      <trkpt lat="42.92725" lon="0.19801">
        <ele>1284</ele>
        <time>2019-06-23T07:53:27.067Z</time>
      </trkpt>
      <trkpt lat="42.92724" lon="0.19801">
        <ele>1284</ele>
        <time>2019-06-23T07:53:28.067Z</time>
      </trkpt>
      <trkpt lat="42.92724" lon="0.19801">
        <ele>1284</ele>
        <time>2019-06-23T07:53:29.067Z</time>
      </trkpt>
      <trkpt lat="42.92723" lon="0.19801">
        <ele>1284</ele>
        <time>2019-06-23T07:53:30.067Z</time>
      </trkpt>
      <trkpt lat="42.92723" lon="0.19801">
        <ele>1284</ele>
        <time>2019-06-23T07:53:31.067Z</time>
      </trkpt>
      <trkpt lat="42.92723" lon="0.19801">
        <ele>1285</ele>
        <time>2019-06-23T07:53:32.067Z</time>
      </trkpt>
      <trkpt lat="42.92722" lon="0.19801">
        <ele>1285</ele>
        <time>2019-06-23T07:53:33.067Z</time>
      </trkpt>
      <trkpt lat="42.92722" lon="0.19801">
        <ele>1285</ele>
        <time>2019-06-23T07:53:34.067Z</time>
      </trkpt>
      <trkpt lat="42.92722" lon="0.19801">
        <ele>1286</ele>
        <time>2019-06-23T07:53:35.067Z</time>
      </trkpt>
      <trkpt lat="42.92721" lon="0.198">
        <ele>1286</ele>
        <time>2019-06-23T07:53:36.067Z</time>
      </trkpt>
      <trkpt lat="42.92721" lon="0.198">
        <ele>1286</ele>
        <time>2019-06-23T07:53:37.067Z</time>
      </trkpt>
      <trkpt lat="42.9272" lon="0.198">
        <ele>1286</ele>
        <time>2019-06-23T07:53:38.067Z</time>
      </trkpt>
      <trkpt lat="42.9272" lon="0.19801">
        <ele>1287</ele>
        <time>2019-06-23T07:53:39.067Z</time>
      </trkpt>
      <trkpt lat="42.92719" lon="0.19801">
        <ele>1287</ele>
        <time>2019-06-23T07:53:40.067Z</time>
      </trkpt>
      <trkpt lat="42.92719" lon="0.19801">
        <ele>1288</ele>
        <time>2019-06-23T07:53:41.067Z</time>
      </trkpt>
      <trkpt lat="42.92718" lon="0.19801">
        <ele>1289</ele>
        <time>2019-06-23T07:53:42.067Z</time>
      </trkpt>
      <trkpt lat="42.92718" lon="0.19802">
        <ele>1289</ele>
        <time>2019-06-23T07:53:43.067Z</time>
      </trkpt>
      <trkpt lat="42.92717" lon="0.19802">
        <ele>1290</ele>
        <time>2019-06-23T07:53:44.067Z</time>
      </trkpt>
      <trkpt lat="42.92717" lon="0.19802">
        <ele>1290</ele>
        <time>2019-06-23T07:53:45.067Z</time>
      </trkpt>
      <trkpt lat="42.92716" lon="0.19802">
        <ele>1291</ele>
        <time>2019-06-23T07:53:46.067Z</time>
      </trkpt>
      <trkpt lat="42.92716" lon="0.19802">
        <ele>1291</ele>
        <time>2019-06-23T07:53:47.067Z</time>
      </trkpt>
      <trkpt lat="42.92715" lon="0.19802">
        <ele>1292</ele>
        <time>2019-06-23T07:53:48.067Z</time>
      </trkpt>
      <trkpt lat="42.92715" lon="0.19802">
        <ele>1292</ele>
        <time>2019-06-23T07:53:49.067Z</time>
      </trkpt>
      <trkpt lat="42.92714" lon="0.19802">
        <ele>1293</ele>
        <time>2019-06-23T07:53:50.067Z</time>
      </trkpt>
      <trkpt lat="42.92712" lon="0.19803">
        <ele>1296</ele>
        <time>2019-06-23T07:53:51.079Z</time>
      </trkpt>
      <trkpt lat="42.92711" lon="0.19803">
        <ele>1296</ele>
        <time>2019-06-23T07:53:52.079Z</time>
      </trkpt>
      <trkpt lat="42.92711" lon="0.19803">
        <ele>1297</ele>
        <time>2019-06-23T07:53:53.079Z</time>
      </trkpt>
      <trkpt lat="42.9271" lon="0.19802">
        <ele>1297</ele>
        <time>2019-06-23T07:53:54.079Z</time>
      </trkpt>
      <trkpt lat="42.92709" lon="0.19802">
        <ele>1298</ele>
        <time>2019-06-23T07:53:55.079Z</time>
      </trkpt>
      <trkpt lat="42.92709" lon="0.19802">
        <ele>1298</ele>
        <time>2019-06-23T07:53:56.079Z</time>
      </trkpt>
      <trkpt lat="42.92708" lon="0.19802">
        <ele>1298</ele>
        <time>2019-06-23T07:53:57.079Z</time>
      </trkpt>
      <trkpt lat="42.92708" lon="0.19801">
        <ele>1298</ele>
        <time>2019-06-23T07:53:58.079Z</time>
      </trkpt>
      <trkpt lat="42.92707" lon="0.19801">
        <ele>1297</ele>
        <time>2019-06-23T07:53:59.079Z</time>
      </trkpt>
      <trkpt lat="42.92707" lon="0.198">
        <ele>1298</ele>
        <time>2019-06-23T07:54:00.079Z</time>
      </trkpt>
      <trkpt lat="42.92706" lon="0.198">
        <ele>1298</ele>
        <time>2019-06-23T07:54:01.079Z</time>
      </trkpt>
      <trkpt lat="42.92706" lon="0.198">
        <ele>1298</ele>
        <time>2019-06-23T07:54:02.079Z</time>
      </trkpt>
      <trkpt lat="42.92705" lon="0.198">
        <ele>1298</ele>
        <time>2019-06-23T07:54:03.079Z</time>
      </trkpt>
      <trkpt lat="42.92705" lon="0.19799">
        <ele>1298</ele>
        <time>2019-06-23T07:54:04.079Z</time>
      </trkpt>
      <trkpt lat="42.92704" lon="0.19799">
        <ele>1298</ele>
        <time>2019-06-23T07:54:05.079Z</time>
      </trkpt>
      <trkpt lat="42.92704" lon="0.19799">
        <ele>1297</ele>
        <time>2019-06-23T07:54:06.079Z</time>
      </trkpt>
      <trkpt lat="42.92703" lon="0.19799">
        <ele>1297</ele>
        <time>2019-06-23T07:54:07.079Z</time>
      </trkpt>
      <trkpt lat="42.92703" lon="0.19799">
        <ele>1297</ele>
        <time>2019-06-23T07:54:08.079Z</time>
      </trkpt>
      <trkpt lat="42.92702" lon="0.19799">
        <ele>1298</ele>
        <time>2019-06-23T07:54:09.079Z</time>
      </trkpt>
      <trkpt lat="42.92702" lon="0.19799">
        <ele>1298</ele>
        <time>2019-06-23T07:54:10.079Z</time>
      </trkpt>
      <trkpt lat="42.92701" lon="0.19798">
        <ele>1298</ele>
        <time>2019-06-23T07:54:11.079Z</time>
      </trkpt>
      <trkpt lat="42.92701" lon="0.19798">
        <ele>1298</ele>
        <time>2019-06-23T07:54:12.079Z</time>
      </trkpt>
      <trkpt lat="42.927" lon="0.19798">
        <ele>1298</ele>
        <time>2019-06-23T07:54:13.079Z</time>
      </trkpt>
      <trkpt lat="42.927" lon="0.19797">
        <ele>1299</ele>
        <time>2019-06-23T07:54:14.079Z</time>
      </trkpt>
      <trkpt lat="42.92699" lon="0.19797">
        <ele>1299</ele>
        <time>2019-06-23T07:54:15.079Z</time>
      </trkpt>
      <trkpt lat="42.92699" lon="0.19797">
        <ele>1298</ele>
        <time>2019-06-23T07:54:16.079Z</time>
      </trkpt>
      <trkpt lat="42.92699" lon="0.19797">
        <ele>1299</ele>
        <time>2019-06-23T07:54:17.079Z</time>
      </trkpt>
      <trkpt lat="42.92699" lon="0.19797">
        <ele>1299</ele>
        <time>2019-06-23T07:54:18.079Z</time>
      </trkpt>
      <trkpt lat="42.92699" lon="0.19797">
        <ele>1298</ele>
        <time>2019-06-23T07:54:19.079Z</time>
      </trkpt>
      <trkpt lat="42.92699" lon="0.19797">
        <ele>1298</ele>
        <time>2019-06-23T07:54:20.079Z</time>
      </trkpt>
      <trkpt lat="42.92697" lon="0.19794">
        <ele>1300</ele>
        <time>2019-06-23T07:54:21.095Z</time>
      </trkpt>
      <trkpt lat="42.92697" lon="0.19793">
        <ele>1300</ele>
        <time>2019-06-23T07:54:22.095Z</time>
      </trkpt>
      <trkpt lat="42.92697" lon="0.19793">
        <ele>1299</ele>
        <time>2019-06-23T07:54:23.095Z</time>
      </trkpt>
      <trkpt lat="42.92696" lon="0.19792">
        <ele>1299</ele>
        <time>2019-06-23T07:54:24.095Z</time>
      </trkpt>
      <trkpt lat="42.92696" lon="0.19792">
        <ele>1298</ele>
        <time>2019-06-23T07:54:25.095Z</time>
      </trkpt>
      <trkpt lat="42.92696" lon="0.19792">
        <ele>1298</ele>
        <time>2019-06-23T07:54:26.095Z</time>
      </trkpt>
      <trkpt lat="42.92696" lon="0.19792">
        <ele>1298</ele>
        <time>2019-06-23T07:54:27.095Z</time>
      </trkpt>
      <trkpt lat="42.92696" lon="0.19792">
        <ele>1298</ele>
        <time>2019-06-23T07:54:28.095Z</time>
      </trkpt>
      <trkpt lat="42.92696" lon="0.19792">
        <ele>1298</ele>
        <time>2019-06-23T07:54:29.095Z</time>
      </trkpt>
      <trkpt lat="42.92696" lon="0.19792">
        <ele>1297</ele>
        <time>2019-06-23T07:54:30.095Z</time>
      </trkpt>
      <trkpt lat="42.92694" lon="0.19791">
        <ele>1295</ele>
        <time>2019-06-23T07:54:31.111Z</time>
      </trkpt>
      <trkpt lat="42.92694" lon="0.1979">
        <ele>1295</ele>
        <time>2019-06-23T07:54:32.111Z</time>
      </trkpt>
      <trkpt lat="42.92693" lon="0.1979">
        <ele>1296</ele>
        <time>2019-06-23T07:54:33.111Z</time>
      </trkpt>
      <trkpt lat="42.92693" lon="0.19789">
        <ele>1297</ele>
        <time>2019-06-23T07:54:34.111Z</time>
      </trkpt>
      <trkpt lat="42.92693" lon="0.19789">
        <ele>1297</ele>
        <time>2019-06-23T07:54:35.111Z</time>
      </trkpt>
      <trkpt lat="42.92692" lon="0.19788">
        <ele>1298</ele>
        <time>2019-06-23T07:54:36.111Z</time>
      </trkpt>
      <trkpt lat="42.92692" lon="0.19788">
        <ele>1298</ele>
        <time>2019-06-23T07:54:37.111Z</time>
      </trkpt>
      <trkpt lat="42.92692" lon="0.19787">
        <ele>1298</ele>
        <time>2019-06-23T07:54:38.111Z</time>
      </trkpt>
      <trkpt lat="42.92692" lon="0.19786">
        <ele>1298</ele>
        <time>2019-06-23T07:54:39.111Z</time>
      </trkpt>
      <trkpt lat="42.92692" lon="0.19785">
        <ele>1298</ele>
        <time>2019-06-23T07:54:40.111Z</time>
      </trkpt>
      <trkpt lat="42.92691" lon="0.19785">
        <ele>1298</ele>
        <time>2019-06-23T07:54:41.111Z</time>
      </trkpt>
      <trkpt lat="42.92691" lon="0.19784">
        <ele>1297</ele>
        <time>2019-06-23T07:54:42.111Z</time>
      </trkpt>
      <trkpt lat="42.92691" lon="0.19784">
        <ele>1298</ele>
        <time>2019-06-23T07:54:43.111Z</time>
      </trkpt>
      <trkpt lat="42.92691" lon="0.19783">
        <ele>1298</ele>
        <time>2019-06-23T07:54:44.111Z</time>
      </trkpt>
      <trkpt lat="42.92691" lon="0.19783">
        <ele>1299</ele>
        <time>2019-06-23T07:54:45.111Z</time>
      </trkpt>
      <trkpt lat="42.92691" lon="0.19782">
        <ele>1299</ele>
        <time>2019-06-23T07:54:46.111Z</time>
      </trkpt>
      <trkpt lat="42.92691" lon="0.19781">
        <ele>1299</ele>
        <time>2019-06-23T07:54:47.111Z</time>
      </trkpt>
      <trkpt lat="42.92691" lon="0.1978">
        <ele>1298</ele>
        <time>2019-06-23T07:54:48.111Z</time>
      </trkpt>
      <trkpt lat="42.92691" lon="0.1978">
        <ele>1298</ele>
        <time>2019-06-23T07:54:49.111Z</time>
      </trkpt>
      <trkpt lat="42.92691" lon="0.19779">
        <ele>1298</ele>
        <time>2019-06-23T07:54:50.111Z</time>
      </trkpt>
      <trkpt lat="42.92691" lon="0.19778">
        <ele>1299</ele>
        <time>2019-06-23T07:54:51.111Z</time>
      </trkpt>
      <trkpt lat="42.92691" lon="0.19777">
        <ele>1299</ele>
        <time>2019-06-23T07:54:52.111Z</time>
      </trkpt>
      <trkpt lat="42.92691" lon="0.19776">
        <ele>1299</ele>
        <time>2019-06-23T07:54:53.111Z</time>
      </trkpt>
      <trkpt lat="42.92691" lon="0.19776">
        <ele>1299</ele>
        <time>2019-06-23T07:54:54.111Z</time>
      </trkpt>
      <trkpt lat="42.92691" lon="0.19775">
        <ele>1299</ele>
        <time>2019-06-23T07:54:55.111Z</time>
      </trkpt>
      <trkpt lat="42.92691" lon="0.19774">
        <ele>1299</ele>
        <time>2019-06-23T07:54:56.111Z</time>
      </trkpt>
      <trkpt lat="42.92691" lon="0.19773">
        <ele>1299</ele>
        <time>2019-06-23T07:54:57.111Z</time>
      </trkpt>
      <trkpt lat="42.92691" lon="0.19772">
        <ele>1300</ele>
        <time>2019-06-23T07:54:58.111Z</time>
      </trkpt>
      <trkpt lat="42.9269" lon="0.19772">
        <ele>1300</ele>
        <time>2019-06-23T07:54:59.111Z</time>
      </trkpt>
      <trkpt lat="42.9269" lon="0.19771">
        <ele>1301</ele>
        <time>2019-06-23T07:55:00.111Z</time>
      </trkpt>
      <trkpt lat="42.9269" lon="0.1977">
        <ele>1301</ele>
        <time>2019-06-23T07:55:01.111Z</time>
      </trkpt>
      <trkpt lat="42.9269" lon="0.19769">
        <ele>1301</ele>
        <time>2019-06-23T07:55:02.111Z</time>
      </trkpt>
      <trkpt lat="42.9269" lon="0.19769">
        <ele>1300</ele>
        <time>2019-06-23T07:55:03.111Z</time>
      </trkpt>
      <trkpt lat="42.9269" lon="0.19768">
        <ele>1300</ele>
        <time>2019-06-23T07:55:04.111Z</time>
      </trkpt>
      <trkpt lat="42.9269" lon="0.19767">
        <ele>1301</ele>
        <time>2019-06-23T07:55:05.111Z</time>
      </trkpt>
      <trkpt lat="42.9269" lon="0.19766">
        <ele>1301</ele>
        <time>2019-06-23T07:55:06.111Z</time>
      </trkpt>
      <trkpt lat="42.9269" lon="0.19765">
        <ele>1300</ele>
        <time>2019-06-23T07:55:07.111Z</time>
      </trkpt>
      <trkpt lat="42.9269" lon="0.19765">
        <ele>1300</ele>
        <time>2019-06-23T07:55:08.111Z</time>
      </trkpt>
      <trkpt lat="42.9269" lon="0.19764">
        <ele>1300</ele>
        <time>2019-06-23T07:55:09.111Z</time>
      </trkpt>
      <trkpt lat="42.9269" lon="0.19763">
        <ele>1301</ele>
        <time>2019-06-23T07:55:10.111Z</time>
      </trkpt>
      <trkpt lat="42.9269" lon="0.19762">
        <ele>1301</ele>
        <time>2019-06-23T07:55:11.111Z</time>
      </trkpt>
      <trkpt lat="42.9269" lon="0.19762">
        <ele>1301</ele>
        <time>2019-06-23T07:55:12.111Z</time>
      </trkpt>
      <trkpt lat="42.9269" lon="0.19761">
        <ele>1301</ele>
        <time>2019-06-23T07:55:13.111Z</time>
      </trkpt>
      <trkpt lat="42.9269" lon="0.1976">
        <ele>1302</ele>
        <time>2019-06-23T07:55:14.111Z</time>
      </trkpt>
      <trkpt lat="42.9269" lon="0.19759">
        <ele>1302</ele>
        <time>2019-06-23T07:55:15.111Z</time>
      </trkpt>
      <trkpt lat="42.9269" lon="0.19759">
        <ele>1302</ele>
        <time>2019-06-23T07:55:16.111Z</time>
      </trkpt>
      <trkpt lat="42.9269" lon="0.19758">
        <ele>1302</ele>
        <time>2019-06-23T07:55:17.111Z</time>
      </trkpt>
      <trkpt lat="42.92691" lon="0.19758">
        <ele>1301</ele>
        <time>2019-06-23T07:55:18.111Z</time>
      </trkpt>
      <trkpt lat="42.92691" lon="0.19757">
        <ele>1302</ele>
        <time>2019-06-23T07:55:19.111Z</time>
      </trkpt>
      <trkpt lat="42.92691" lon="0.19757">
        <ele>1302</ele>
        <time>2019-06-23T07:55:20.111Z</time>
      </trkpt>
      <trkpt lat="42.92691" lon="0.19756">
        <ele>1302</ele>
        <time>2019-06-23T07:55:21.111Z</time>
      </trkpt>
      <trkpt lat="42.92691" lon="0.19755">
        <ele>1303</ele>
        <time>2019-06-23T07:55:22.111Z</time>
      </trkpt>
      <trkpt lat="42.92691" lon="0.19754">
        <ele>1303</ele>
        <time>2019-06-23T07:55:23.111Z</time>
      </trkpt>
      <trkpt lat="42.92691" lon="0.19754">
        <ele>1303</ele>
        <time>2019-06-23T07:55:24.111Z</time>
      </trkpt>
      <trkpt lat="42.92691" lon="0.19753">
        <ele>1304</ele>
        <time>2019-06-23T07:55:25.111Z</time>
      </trkpt>
      <trkpt lat="42.92692" lon="0.19752">
        <ele>1305</ele>
        <time>2019-06-23T07:55:26.111Z</time>
      </trkpt>
      <trkpt lat="42.92692" lon="0.19752">
        <ele>1305</ele>
        <time>2019-06-23T07:55:27.111Z</time>
      </trkpt>
      <trkpt lat="42.92692" lon="0.19751">
        <ele>1304</ele>
        <time>2019-06-23T07:55:28.111Z</time>
      </trkpt>
      <trkpt lat="42.92692" lon="0.19751">
        <ele>1305</ele>
        <time>2019-06-23T07:55:29.111Z</time>
      </trkpt>
      <trkpt lat="42.92692" lon="0.1975">
        <ele>1305</ele>
        <time>2019-06-23T07:55:30.111Z</time>
      </trkpt>
      <trkpt lat="42.92692" lon="0.19749">
        <ele>1305</ele>
        <time>2019-06-23T07:55:31.111Z</time>
      </trkpt>
      <trkpt lat="42.92692" lon="0.19749">
        <ele>1305</ele>
        <time>2019-06-23T07:55:32.111Z</time>
      </trkpt>
      <trkpt lat="42.92692" lon="0.19748">
        <ele>1306</ele>
        <time>2019-06-23T07:55:33.111Z</time>
      </trkpt>
      <trkpt lat="42.92692" lon="0.19748">
        <ele>1306</ele>
        <time>2019-06-23T07:55:34.111Z</time>
      </trkpt>
      <trkpt lat="42.92692" lon="0.19747">
        <ele>1306</ele>
        <time>2019-06-23T07:55:35.111Z</time>
      </trkpt>
      <trkpt lat="42.92692" lon="0.19747">
        <ele>1306</ele>
        <time>2019-06-23T07:55:36.111Z</time>
      </trkpt>
      <trkpt lat="42.92692" lon="0.19746">
        <ele>1306</ele>
        <time>2019-06-23T07:55:37.111Z</time>
      </trkpt>
      <trkpt lat="42.92693" lon="0.19745">
        <ele>1306</ele>
        <time>2019-06-23T07:55:38.111Z</time>
      </trkpt>
      <trkpt lat="42.92693" lon="0.19745">
        <ele>1307</ele>
        <time>2019-06-23T07:55:39.111Z</time>
      </trkpt>
      <trkpt lat="42.92693" lon="0.19744">
        <ele>1307</ele>
        <time>2019-06-23T07:55:40.111Z</time>
      </trkpt>
      <trkpt lat="42.92693" lon="0.19743">
        <ele>1307</ele>
        <time>2019-06-23T07:55:41.111Z</time>
      </trkpt>
      <trkpt lat="42.92693" lon="0.19743">
        <ele>1307</ele>
        <time>2019-06-23T07:55:42.111Z</time>
      </trkpt>
      <trkpt lat="42.92693" lon="0.19742">
        <ele>1306</ele>
        <time>2019-06-23T07:55:43.111Z</time>
      </trkpt>
      <trkpt lat="42.92693" lon="0.19741">
        <ele>1306</ele>
        <time>2019-06-23T07:55:44.111Z</time>
      </trkpt>
      <trkpt lat="42.92693" lon="0.19741">
        <ele>1306</ele>
        <time>2019-06-23T07:55:45.111Z</time>
      </trkpt>
      <trkpt lat="42.92693" lon="0.1974">
        <ele>1305</ele>
        <time>2019-06-23T07:55:46.111Z</time>
      </trkpt>
      <trkpt lat="42.92692" lon="0.19739">
        <ele>1305</ele>
        <time>2019-06-23T07:55:47.111Z</time>
      </trkpt>
      <trkpt lat="42.92692" lon="0.19739">
        <ele>1306</ele>
        <time>2019-06-23T07:55:48.111Z</time>
      </trkpt>
      <trkpt lat="42.92692" lon="0.19738">
        <ele>1306</ele>
        <time>2019-06-23T07:55:49.111Z</time>
      </trkpt>
      <trkpt lat="42.92692" lon="0.19738">
        <ele>1306</ele>
        <time>2019-06-23T07:55:50.111Z</time>
      </trkpt>
      <trkpt lat="42.92692" lon="0.19737">
        <ele>1305</ele>
        <time>2019-06-23T07:55:51.111Z</time>
      </trkpt>
      <trkpt lat="42.92692" lon="0.19736">
        <ele>1306</ele>
        <time>2019-06-23T07:55:52.111Z</time>
      </trkpt>
      <trkpt lat="42.92692" lon="0.19735">
        <ele>1307</ele>
        <time>2019-06-23T07:55:53.111Z</time>
      </trkpt>
      <trkpt lat="42.92693" lon="0.19734">
        <ele>1306</ele>
        <time>2019-06-23T07:55:54.111Z</time>
      </trkpt>
      <trkpt lat="42.92693" lon="0.19734">
        <ele>1307</ele>
        <time>2019-06-23T07:55:55.111Z</time>
      </trkpt>
      <trkpt lat="42.92693" lon="0.19733">
        <ele>1308</ele>
        <time>2019-06-23T07:55:56.111Z</time>
      </trkpt>
      <trkpt lat="42.92693" lon="0.19733">
        <ele>1307</ele>
        <time>2019-06-23T07:55:57.111Z</time>
      </trkpt>
      <trkpt lat="42.92694" lon="0.19732">
        <ele>1308</ele>
        <time>2019-06-23T07:55:58.111Z</time>
      </trkpt>
      <trkpt lat="42.92694" lon="0.19732">
        <ele>1307</ele>
        <time>2019-06-23T07:55:59.111Z</time>
      </trkpt>
      <trkpt lat="42.92694" lon="0.19731">
        <ele>1308</ele>
        <time>2019-06-23T07:56:00.111Z</time>
      </trkpt>
      <trkpt lat="42.92695" lon="0.19731">
        <ele>1308</ele>
        <time>2019-06-23T07:56:01.111Z</time>
      </trkpt>
      <trkpt lat="42.92695" lon="0.19731">
        <ele>1307</ele>
        <time>2019-06-23T07:56:02.111Z</time>
      </trkpt>
      <trkpt lat="42.92696" lon="0.19732">
        <ele>1307</ele>
        <time>2019-06-23T07:56:03.111Z</time>
      </trkpt>
      <trkpt lat="42.92696" lon="0.19732">
        <ele>1307</ele>
        <time>2019-06-23T07:56:04.111Z</time>
      </trkpt>
      <trkpt lat="42.92697" lon="0.19732">
        <ele>1308</ele>
        <time>2019-06-23T07:56:05.111Z</time>
      </trkpt>
      <trkpt lat="42.92697" lon="0.19732">
        <ele>1308</ele>
        <time>2019-06-23T07:56:06.111Z</time>
      </trkpt>
      <trkpt lat="42.92698" lon="0.19733">
        <ele>1308</ele>
        <time>2019-06-23T07:56:07.111Z</time>
      </trkpt>
      <trkpt lat="42.92698" lon="0.19733">
        <ele>1308</ele>
        <time>2019-06-23T07:56:08.111Z</time>
      </trkpt>
      <trkpt lat="42.92699" lon="0.19734">
        <ele>1308</ele>
        <time>2019-06-23T07:56:09.111Z</time>
      </trkpt>
      <trkpt lat="42.92699" lon="0.19734">
        <ele>1308</ele>
        <time>2019-06-23T07:56:10.111Z</time>
      </trkpt>
      <trkpt lat="42.927" lon="0.19735">
        <ele>1308</ele>
        <time>2019-06-23T07:56:11.111Z</time>
      </trkpt>
      <trkpt lat="42.927" lon="0.19735">
        <ele>1308</ele>
        <time>2019-06-23T07:56:12.111Z</time>
      </trkpt>
      <trkpt lat="42.927" lon="0.19735">
        <ele>1308</ele>
        <time>2019-06-23T07:56:13.111Z</time>
      </trkpt>
      <trkpt lat="42.927" lon="0.19735">
        <ele>1308</ele>
        <time>2019-06-23T07:56:14.111Z</time>
      </trkpt>
      <trkpt lat="42.927" lon="0.19735">
        <ele>1308</ele>
        <time>2019-06-23T07:56:15.111Z</time>
      </trkpt>
      <trkpt lat="42.927" lon="0.19735">
        <ele>1307</ele>
        <time>2019-06-23T07:56:16.111Z</time>
      </trkpt>
      <trkpt lat="42.92701" lon="0.19735">
        <ele>1307</ele>
        <time>2019-06-23T07:56:17.111Z</time>
      </trkpt>
      <trkpt lat="42.92701" lon="0.19735">
        <ele>1307</ele>
        <time>2019-06-23T07:56:18.111Z</time>
      </trkpt>
      <trkpt lat="42.92702" lon="0.19736">
        <ele>1307</ele>
        <time>2019-06-23T07:56:19.111Z</time>
      </trkpt>
      <trkpt lat="42.92702" lon="0.19736">
        <ele>1307</ele>
        <time>2019-06-23T07:56:20.111Z</time>
      </trkpt>
      <trkpt lat="42.92703" lon="0.19736">
        <ele>1307</ele>
        <time>2019-06-23T07:56:21.111Z</time>
      </trkpt>
      <trkpt lat="42.92703" lon="0.19736">
        <ele>1308</ele>
        <time>2019-06-23T07:56:22.111Z</time>
      </trkpt>
      <trkpt lat="42.92704" lon="0.19736">
        <ele>1307</ele>
        <time>2019-06-23T07:56:23.111Z</time>
      </trkpt>
      <trkpt lat="42.92704" lon="0.19736">
        <ele>1307</ele>
        <time>2019-06-23T07:56:24.111Z</time>
      </trkpt>
      <trkpt lat="42.92705" lon="0.19737">
        <ele>1308</ele>
        <time>2019-06-23T07:56:25.111Z</time>
      </trkpt>
      <trkpt lat="42.92705" lon="0.19737">
        <ele>1309</ele>
        <time>2019-06-23T07:56:26.111Z</time>
      </trkpt>
      <trkpt lat="42.92706" lon="0.19737">
        <ele>1309</ele>
        <time>2019-06-23T07:56:27.111Z</time>
      </trkpt>
      <trkpt lat="42.92706" lon="0.19738">
        <ele>1310</ele>
        <time>2019-06-23T07:56:28.111Z</time>
      </trkpt>
      <trkpt lat="42.92706" lon="0.19738">
        <ele>1310</ele>
        <time>2019-06-23T07:56:29.111Z</time>
      </trkpt>
      <trkpt lat="42.92706" lon="0.19738">
        <ele>1311</ele>
        <time>2019-06-23T07:56:30.111Z</time>
      </trkpt>
      <trkpt lat="42.92706" lon="0.19738">
        <ele>1311</ele>
        <time>2019-06-23T07:56:31.111Z</time>
      </trkpt>
      <trkpt lat="42.92707" lon="0.19738">
        <ele>1312</ele>
        <time>2019-06-23T07:56:32.111Z</time>
      </trkpt>
      <trkpt lat="42.92707" lon="0.19738">
        <ele>1312</ele>
        <time>2019-06-23T07:56:33.111Z</time>
      </trkpt>
      <trkpt lat="42.92708" lon="0.19739">
        <ele>1312</ele>
        <time>2019-06-23T07:56:34.111Z</time>
      </trkpt>
      <trkpt lat="42.92708" lon="0.19739">
        <ele>1312</ele>
        <time>2019-06-23T07:56:35.111Z</time>
      </trkpt>
      <trkpt lat="42.92709" lon="0.1974">
        <ele>1312</ele>
        <time>2019-06-23T07:56:36.111Z</time>
      </trkpt>
      <trkpt lat="42.92709" lon="0.19741">
        <ele>1312</ele>
        <time>2019-06-23T07:56:37.111Z</time>
      </trkpt>
      <trkpt lat="42.92709" lon="0.19741">
        <ele>1313</ele>
        <time>2019-06-23T07:56:38.111Z</time>
      </trkpt>
      <trkpt lat="42.9271" lon="0.19742">
        <ele>1312</ele>
        <time>2019-06-23T07:56:39.111Z</time>
      </trkpt>
      <trkpt lat="42.9271" lon="0.19742">
        <ele>1312</ele>
        <time>2019-06-23T07:56:40.111Z</time>
      </trkpt>
      <trkpt lat="42.92711" lon="0.19743">
        <ele>1313</ele>
        <time>2019-06-23T07:56:41.111Z</time>
      </trkpt>
      <trkpt lat="42.92711" lon="0.19743">
        <ele>1313</ele>
        <time>2019-06-23T07:56:42.111Z</time>
      </trkpt>
      <trkpt lat="42.92712" lon="0.19744">
        <ele>1313</ele>
        <time>2019-06-23T07:56:43.111Z</time>
      </trkpt>
      <trkpt lat="42.92712" lon="0.19744">
        <ele>1314</ele>
        <time>2019-06-23T07:56:44.111Z</time>
      </trkpt>
      <trkpt lat="42.92713" lon="0.19744">
        <ele>1313</ele>
        <time>2019-06-23T07:56:45.111Z</time>
      </trkpt>
      <trkpt lat="42.92713" lon="0.19744">
        <ele>1313</ele>
        <time>2019-06-23T07:56:46.111Z</time>
      </trkpt>
      <trkpt lat="42.92714" lon="0.19745">
        <ele>1313</ele>
        <time>2019-06-23T07:56:47.111Z</time>
      </trkpt>
      <trkpt lat="42.92715" lon="0.19745">
        <ele>1313</ele>
        <time>2019-06-23T07:56:48.111Z</time>
      </trkpt>
      <trkpt lat="42.92716" lon="0.19745">
        <ele>1313</ele>
        <time>2019-06-23T07:56:49.111Z</time>
      </trkpt>
      <trkpt lat="42.92716" lon="0.19745">
        <ele>1312</ele>
        <time>2019-06-23T07:56:50.111Z</time>
      </trkpt>
      <trkpt lat="42.92717" lon="0.19746">
        <ele>1312</ele>
        <time>2019-06-23T07:56:51.111Z</time>
      </trkpt>
      <trkpt lat="42.92717" lon="0.19746">
        <ele>1312</ele>
        <time>2019-06-23T07:56:52.111Z</time>
      </trkpt>
      <trkpt lat="42.92717" lon="0.19746">
        <ele>1312</ele>
        <time>2019-06-23T07:56:53.111Z</time>
      </trkpt>
      <trkpt lat="42.92718" lon="0.19747">
        <ele>1313</ele>
        <time>2019-06-23T07:56:54.111Z</time>
      </trkpt>
      <trkpt lat="42.92718" lon="0.19747">
        <ele>1313</ele>
        <time>2019-06-23T07:56:55.111Z</time>
      </trkpt>
      <trkpt lat="42.92719" lon="0.19747">
        <ele>1313</ele>
        <time>2019-06-23T07:56:56.111Z</time>
      </trkpt>
      <trkpt lat="42.92719" lon="0.19747">
        <ele>1312</ele>
        <time>2019-06-23T07:56:57.111Z</time>
      </trkpt>
      <trkpt lat="42.92719" lon="0.19746">
        <ele>1312</ele>
        <time>2019-06-23T07:56:58.111Z</time>
      </trkpt>
      <trkpt lat="42.92719" lon="0.19746">
        <ele>1312</ele>
        <time>2019-06-23T07:56:59.111Z</time>
      </trkpt>
      <trkpt lat="42.9272" lon="0.19745">
        <ele>1313</ele>
        <time>2019-06-23T07:57:00.111Z</time>
      </trkpt>
      <trkpt lat="42.9272" lon="0.19745">
        <ele>1313</ele>
        <time>2019-06-23T07:57:01.111Z</time>
      </trkpt>
      <trkpt lat="42.9272" lon="0.19745">
        <ele>1313</ele>
        <time>2019-06-23T07:57:02.111Z</time>
      </trkpt>
      <trkpt lat="42.92721" lon="0.19744">
        <ele>1313</ele>
        <time>2019-06-23T07:57:03.111Z</time>
      </trkpt>
      <trkpt lat="42.92721" lon="0.19743">
        <ele>1314</ele>
        <time>2019-06-23T07:57:04.111Z</time>
      </trkpt>
      <trkpt lat="42.92721" lon="0.19743">
        <ele>1313</ele>
        <time>2019-06-23T07:57:05.111Z</time>
      </trkpt>
      <trkpt lat="42.92721" lon="0.19742">
        <ele>1313</ele>
        <time>2019-06-23T07:57:06.111Z</time>
      </trkpt>
      <trkpt lat="42.92722" lon="0.19742">
        <ele>1313</ele>
        <time>2019-06-23T07:57:07.111Z</time>
      </trkpt>
      <trkpt lat="42.92722" lon="0.19741">
        <ele>1314</ele>
        <time>2019-06-23T07:57:08.111Z</time>
      </trkpt>
      <trkpt lat="42.92722" lon="0.1974">
        <ele>1314</ele>
        <time>2019-06-23T07:57:09.111Z</time>
      </trkpt>
      <trkpt lat="42.92722" lon="0.1974">
        <ele>1314</ele>
        <time>2019-06-23T07:57:10.111Z</time>
      </trkpt>
      <trkpt lat="42.92722" lon="0.1974">
        <ele>1314</ele>
        <time>2019-06-23T07:57:11.111Z</time>
      </trkpt>
      <trkpt lat="42.92722" lon="0.19739">
        <ele>1315</ele>
        <time>2019-06-23T07:57:12.111Z</time>
      </trkpt>
      <trkpt lat="42.92722" lon="0.19738">
        <ele>1315</ele>
        <time>2019-06-23T07:57:13.111Z</time>
      </trkpt>
      <trkpt lat="42.92721" lon="0.19738">
        <ele>1315</ele>
        <time>2019-06-23T07:57:14.111Z</time>
      </trkpt>
      <trkpt lat="42.92721" lon="0.19737">
        <ele>1315</ele>
        <time>2019-06-23T07:57:15.111Z</time>
      </trkpt>
      <trkpt lat="42.92721" lon="0.19737">
        <ele>1315</ele>
        <time>2019-06-23T07:57:16.111Z</time>
      </trkpt>
      <trkpt lat="42.92721" lon="0.19737">
        <ele>1315</ele>
        <time>2019-06-23T07:57:17.111Z</time>
      </trkpt>
      <trkpt lat="42.9272" lon="0.19737">
        <ele>1315</ele>
        <time>2019-06-23T07:57:18.111Z</time>
      </trkpt>
      <trkpt lat="42.9272" lon="0.19736">
        <ele>1315</ele>
        <time>2019-06-23T07:57:19.111Z</time>
      </trkpt>
      <trkpt lat="42.9272" lon="0.19735">
        <ele>1316</ele>
        <time>2019-06-23T07:57:20.111Z</time>
      </trkpt>
      <trkpt lat="42.9272" lon="0.19734">
        <ele>1316</ele>
        <time>2019-06-23T07:57:21.111Z</time>
      </trkpt>
      <trkpt lat="42.9272" lon="0.19733">
        <ele>1317</ele>
        <time>2019-06-23T07:57:22.111Z</time>
      </trkpt>
      <trkpt lat="42.9272" lon="0.19733">
        <ele>1317</ele>
        <time>2019-06-23T07:57:23.111Z</time>
      </trkpt>
      <trkpt lat="42.92721" lon="0.19732">
        <ele>1317</ele>
        <time>2019-06-23T07:57:24.111Z</time>
      </trkpt>
      <trkpt lat="42.92721" lon="0.19731">
        <ele>1318</ele>
        <time>2019-06-23T07:57:25.111Z</time>
      </trkpt>
      <trkpt lat="42.92721" lon="0.19731">
        <ele>1318</ele>
        <time>2019-06-23T07:57:26.111Z</time>
      </trkpt>
      <trkpt lat="42.92721" lon="0.1973">
        <ele>1319</ele>
        <time>2019-06-23T07:57:27.111Z</time>
      </trkpt>
      <trkpt lat="42.92722" lon="0.1973">
        <ele>1319</ele>
        <time>2019-06-23T07:57:28.111Z</time>
      </trkpt>
      <trkpt lat="42.92722" lon="0.19729">
        <ele>1319</ele>
        <time>2019-06-23T07:57:29.111Z</time>
      </trkpt>
      <trkpt lat="42.92722" lon="0.19729">
        <ele>1319</ele>
        <time>2019-06-23T07:57:30.111Z</time>
      </trkpt>
      <trkpt lat="42.92722" lon="0.19728">
        <ele>1319</ele>
        <time>2019-06-23T07:57:31.111Z</time>
      </trkpt>
      <trkpt lat="42.92722" lon="0.19728">
        <ele>1319</ele>
        <time>2019-06-23T07:57:32.111Z</time>
      </trkpt>
      <trkpt lat="42.92722" lon="0.19727">
        <ele>1319</ele>
        <time>2019-06-23T07:57:33.111Z</time>
      </trkpt>
      <trkpt lat="42.92722" lon="0.19727">
        <ele>1318</ele>
        <time>2019-06-23T07:57:34.111Z</time>
      </trkpt>
      <trkpt lat="42.92722" lon="0.19726">
        <ele>1319</ele>
        <time>2019-06-23T07:57:35.111Z</time>
      </trkpt>
      <trkpt lat="42.92722" lon="0.19726">
        <ele>1319</ele>
        <time>2019-06-23T07:57:36.111Z</time>
      </trkpt>
      <trkpt lat="42.92721" lon="0.19725">
        <ele>1319</ele>
        <time>2019-06-23T07:57:37.111Z</time>
      </trkpt>
      <trkpt lat="42.92721" lon="0.19725">
        <ele>1319</ele>
        <time>2019-06-23T07:57:38.111Z</time>
      </trkpt>
      <trkpt lat="42.92721" lon="0.19724">
        <ele>1319</ele>
        <time>2019-06-23T07:57:39.111Z</time>
      </trkpt>
      <trkpt lat="42.9272" lon="0.19724">
        <ele>1320</ele>
        <time>2019-06-23T07:57:40.111Z</time>
      </trkpt>
      <trkpt lat="42.9272" lon="0.19723">
        <ele>1320</ele>
        <time>2019-06-23T07:57:41.111Z</time>
      </trkpt>
      <trkpt lat="42.9272" lon="0.19723">
        <ele>1320</ele>
        <time>2019-06-23T07:57:42.111Z</time>
      </trkpt>
      <trkpt lat="42.92719" lon="0.19723">
        <ele>1320</ele>
        <time>2019-06-23T07:57:43.111Z</time>
      </trkpt>
      <trkpt lat="42.92719" lon="0.19722">
        <ele>1321</ele>
        <time>2019-06-23T07:57:44.111Z</time>
      </trkpt>
      <trkpt lat="42.92719" lon="0.19722">
        <ele>1320</ele>
        <time>2019-06-23T07:57:45.111Z</time>
      </trkpt>
      <trkpt lat="42.92719" lon="0.19721">
        <ele>1321</ele>
        <time>2019-06-23T07:57:46.111Z</time>
      </trkpt>
      <trkpt lat="42.92718" lon="0.1972">
        <ele>1321</ele>
        <time>2019-06-23T07:57:47.111Z</time>
      </trkpt>
      <trkpt lat="42.92718" lon="0.1972">
        <ele>1321</ele>
        <time>2019-06-23T07:57:48.111Z</time>
      </trkpt>
      <trkpt lat="42.92718" lon="0.19719">
        <ele>1321</ele>
        <time>2019-06-23T07:57:49.111Z</time>
      </trkpt>
      <trkpt lat="42.92718" lon="0.19719">
        <ele>1321</ele>
        <time>2019-06-23T07:57:50.111Z</time>
      </trkpt>
      <trkpt lat="42.92717" lon="0.19718">
        <ele>1321</ele>
        <time>2019-06-23T07:57:51.111Z</time>
      </trkpt>
      <trkpt lat="42.92717" lon="0.19718">
        <ele>1321</ele>
        <time>2019-06-23T07:57:52.111Z</time>
      </trkpt>
      <trkpt lat="42.92717" lon="0.19717">
        <ele>1321</ele>
        <time>2019-06-23T07:57:53.111Z</time>
      </trkpt>
      <trkpt lat="42.92716" lon="0.19717">
        <ele>1321</ele>
        <time>2019-06-23T07:57:54.111Z</time>
      </trkpt>
      <trkpt lat="42.92716" lon="0.19716">
        <ele>1321</ele>
        <time>2019-06-23T07:57:55.111Z</time>
      </trkpt>
      <trkpt lat="42.92716" lon="0.19716">
        <ele>1322</ele>
        <time>2019-06-23T07:57:56.111Z</time>
      </trkpt>
      <trkpt lat="42.92715" lon="0.19715">
        <ele>1321</ele>
        <time>2019-06-23T07:57:57.111Z</time>
      </trkpt>
      <trkpt lat="42.92715" lon="0.19714">
        <ele>1321</ele>
        <time>2019-06-23T07:57:58.111Z</time>
      </trkpt>
      <trkpt lat="42.92715" lon="0.19714">
        <ele>1321</ele>
        <time>2019-06-23T07:57:59.111Z</time>
      </trkpt>
      <trkpt lat="42.92715" lon="0.19713">
        <ele>1321</ele>
        <time>2019-06-23T07:58:00.111Z</time>
      </trkpt>
      <trkpt lat="42.92715" lon="0.19713">
        <ele>1320</ele>
        <time>2019-06-23T07:58:01.111Z</time>
      </trkpt>
      <trkpt lat="42.92715" lon="0.19712">
        <ele>1320</ele>
        <time>2019-06-23T07:58:02.111Z</time>
      </trkpt>
      <trkpt lat="42.92715" lon="0.19712">
        <ele>1320</ele>
        <time>2019-06-23T07:58:03.111Z</time>
      </trkpt>
      <trkpt lat="42.92715" lon="0.19711">
        <ele>1320</ele>
        <time>2019-06-23T07:58:04.111Z</time>
      </trkpt>
      <trkpt lat="42.92715" lon="0.1971">
        <ele>1319</ele>
        <time>2019-06-23T07:58:05.111Z</time>
      </trkpt>
      <trkpt lat="42.92714" lon="0.1971">
        <ele>1319</ele>
        <time>2019-06-23T07:58:06.111Z</time>
      </trkpt>
      <trkpt lat="42.92714" lon="0.19709">
        <ele>1319</ele>
        <time>2019-06-23T07:58:07.111Z</time>
      </trkpt>
      <trkpt lat="42.92714" lon="0.19708">
        <ele>1319</ele>
        <time>2019-06-23T07:58:08.111Z</time>
      </trkpt>
      <trkpt lat="42.92714" lon="0.19708">
        <ele>1320</ele>
        <time>2019-06-23T07:58:09.111Z</time>
      </trkpt>
      <trkpt lat="42.92713" lon="0.19707">
        <ele>1320</ele>
        <time>2019-06-23T07:58:10.111Z</time>
      </trkpt>
      <trkpt lat="42.92713" lon="0.19707">
        <ele>1320</ele>
        <time>2019-06-23T07:58:11.111Z</time>
      </trkpt>
      <trkpt lat="42.92713" lon="0.19706">
        <ele>1319</ele>
        <time>2019-06-23T07:58:12.111Z</time>
      </trkpt>
      <trkpt lat="42.92712" lon="0.19705">
        <ele>1319</ele>
        <time>2019-06-23T07:58:13.111Z</time>
      </trkpt>
      <trkpt lat="42.92712" lon="0.19705">
        <ele>1319</ele>
        <time>2019-06-23T07:58:14.111Z</time>
      </trkpt>
      <trkpt lat="42.92711" lon="0.19704">
        <ele>1320</ele>
        <time>2019-06-23T07:58:15.111Z</time>
      </trkpt>
      <trkpt lat="42.92711" lon="0.19704">
        <ele>1320</ele>
        <time>2019-06-23T07:58:16.111Z</time>
      </trkpt>
      <trkpt lat="42.9271" lon="0.19703">
        <ele>1320</ele>
        <time>2019-06-23T07:58:17.111Z</time>
      </trkpt>
      <trkpt lat="42.9271" lon="0.19703">
        <ele>1321</ele>
        <time>2019-06-23T07:58:18.111Z</time>
      </trkpt>
      <trkpt lat="42.9271" lon="0.19702">
        <ele>1321</ele>
        <time>2019-06-23T07:58:19.111Z</time>
      </trkpt>
      <trkpt lat="42.9271" lon="0.19702">
        <ele>1321</ele>
        <time>2019-06-23T07:58:20.111Z</time>
      </trkpt>
      <trkpt lat="42.9271" lon="0.19702">
        <ele>1322</ele>
        <time>2019-06-23T07:58:21.111Z</time>
      </trkpt>
      <trkpt lat="42.9271" lon="0.19701">
        <ele>1322</ele>
        <time>2019-06-23T07:58:22.111Z</time>
      </trkpt>
      <trkpt lat="42.9271" lon="0.19701">
        <ele>1322</ele>
        <time>2019-06-23T07:58:23.111Z</time>
      </trkpt>
      <trkpt lat="42.92709" lon="0.197">
        <ele>1323</ele>
        <time>2019-06-23T07:58:24.111Z</time>
      </trkpt>
      <trkpt lat="42.92709" lon="0.197">
        <ele>1324</ele>
        <time>2019-06-23T07:58:25.111Z</time>
      </trkpt>
      <trkpt lat="42.92708" lon="0.19699">
        <ele>1324</ele>
        <time>2019-06-23T07:58:26.111Z</time>
      </trkpt>
      <trkpt lat="42.92708" lon="0.19698">
        <ele>1324</ele>
        <time>2019-06-23T07:58:27.111Z</time>
      </trkpt>
      <trkpt lat="42.92708" lon="0.19697">
        <ele>1324</ele>
        <time>2019-06-23T07:58:28.111Z</time>
      </trkpt>
      <trkpt lat="42.92708" lon="0.19697">
        <ele>1324</ele>
        <time>2019-06-23T07:58:29.111Z</time>
      </trkpt>
      <trkpt lat="42.92708" lon="0.19696">
        <ele>1324</ele>
        <time>2019-06-23T07:58:30.111Z</time>
      </trkpt>
      <trkpt lat="42.92707" lon="0.19695">
        <ele>1325</ele>
        <time>2019-06-23T07:58:31.111Z</time>
      </trkpt>
      <trkpt lat="42.92707" lon="0.19695">
        <ele>1326</ele>
        <time>2019-06-23T07:58:32.111Z</time>
      </trkpt>
      <trkpt lat="42.92707" lon="0.19695">
        <ele>1326</ele>
        <time>2019-06-23T07:58:33.111Z</time>
      </trkpt>
      <trkpt lat="42.92707" lon="0.19694">
        <ele>1326</ele>
        <time>2019-06-23T07:58:34.111Z</time>
      </trkpt>
      <trkpt lat="42.92707" lon="0.19694">
        <ele>1326</ele>
        <time>2019-06-23T07:58:35.111Z</time>
      </trkpt>
      <trkpt lat="42.92706" lon="0.19693">
        <ele>1326</ele>
        <time>2019-06-23T07:58:36.111Z</time>
      </trkpt>
      <trkpt lat="42.92706" lon="0.19692">
        <ele>1326</ele>
        <time>2019-06-23T07:58:37.111Z</time>
      </trkpt>
      <trkpt lat="42.92706" lon="0.19692">
        <ele>1326</ele>
        <time>2019-06-23T07:58:38.111Z</time>
      </trkpt>
      <trkpt lat="42.92706" lon="0.19691">
        <ele>1326</ele>
        <time>2019-06-23T07:58:39.111Z</time>
      </trkpt>
      <trkpt lat="42.92705" lon="0.19691">
        <ele>1325</ele>
        <time>2019-06-23T07:58:40.111Z</time>
      </trkpt>
      <trkpt lat="42.92705" lon="0.1969">
        <ele>1325</ele>
        <time>2019-06-23T07:58:41.111Z</time>
      </trkpt>
      <trkpt lat="42.92705" lon="0.19689">
        <ele>1325</ele>
        <time>2019-06-23T07:58:42.111Z</time>
      </trkpt>
      <trkpt lat="42.92705" lon="0.19688">
        <ele>1325</ele>
        <time>2019-06-23T07:58:43.111Z</time>
      </trkpt>
      <trkpt lat="42.92705" lon="0.19687">
        <ele>1325</ele>
        <time>2019-06-23T07:58:44.111Z</time>
      </trkpt>
      <trkpt lat="42.92704" lon="0.19687">
        <ele>1325</ele>
        <time>2019-06-23T07:58:45.111Z</time>
      </trkpt>
      <trkpt lat="42.92704" lon="0.19686">
        <ele>1325</ele>
        <time>2019-06-23T07:58:46.111Z</time>
      </trkpt>
      <trkpt lat="42.92704" lon="0.19685">
        <ele>1325</ele>
        <time>2019-06-23T07:58:47.111Z</time>
      </trkpt>
      <trkpt lat="42.92703" lon="0.19685">
        <ele>1325</ele>
        <time>2019-06-23T07:58:48.111Z</time>
      </trkpt>
      <trkpt lat="42.92703" lon="0.19684">
        <ele>1325</ele>
        <time>2019-06-23T07:58:49.111Z</time>
      </trkpt>
      <trkpt lat="42.92703" lon="0.19684">
        <ele>1326</ele>
        <time>2019-06-23T07:58:50.111Z</time>
      </trkpt>
      <trkpt lat="42.92703" lon="0.19683">
        <ele>1326</ele>
        <time>2019-06-23T07:58:51.111Z</time>
      </trkpt>
      <trkpt lat="42.92703" lon="0.19682">
        <ele>1326</ele>
        <time>2019-06-23T07:58:52.111Z</time>
      </trkpt>
      <trkpt lat="42.92703" lon="0.19682">
        <ele>1327</ele>
        <time>2019-06-23T07:58:53.111Z</time>
      </trkpt>
      <trkpt lat="42.92703" lon="0.19682">
        <ele>1328</ele>
        <time>2019-06-23T07:58:54.111Z</time>
      </trkpt>
      <trkpt lat="42.92702" lon="0.19681">
        <ele>1328</ele>
        <time>2019-06-23T07:58:55.111Z</time>
      </trkpt>
      <trkpt lat="42.92702" lon="0.19681">
        <ele>1328</ele>
        <time>2019-06-23T07:58:56.111Z</time>
      </trkpt>
      <trkpt lat="42.92702" lon="0.19681">
        <ele>1328</ele>
        <time>2019-06-23T07:58:57.111Z</time>
      </trkpt>
      <trkpt lat="42.92702" lon="0.1968">
        <ele>1328</ele>
        <time>2019-06-23T07:58:58.111Z</time>
      </trkpt>
      <trkpt lat="42.92702" lon="0.1968">
        <ele>1328</ele>
        <time>2019-06-23T07:58:59.111Z</time>
      </trkpt>
      <trkpt lat="42.92702" lon="0.19679">
        <ele>1328</ele>
        <time>2019-06-23T07:59:00.111Z</time>
      </trkpt>
      <trkpt lat="42.92701" lon="0.19679">
        <ele>1328</ele>
        <time>2019-06-23T07:59:01.111Z</time>
      </trkpt>
      <trkpt lat="42.92701" lon="0.19678">
        <ele>1328</ele>
        <time>2019-06-23T07:59:02.111Z</time>
      </trkpt>
      <trkpt lat="42.92701" lon="0.19678">
        <ele>1328</ele>
        <time>2019-06-23T07:59:03.111Z</time>
      </trkpt>
      <trkpt lat="42.92701" lon="0.19678">
        <ele>1328</ele>
        <time>2019-06-23T07:59:04.111Z</time>
      </trkpt>
      <trkpt lat="42.92701" lon="0.19677">
        <ele>1328</ele>
        <time>2019-06-23T07:59:05.111Z</time>
      </trkpt>
      <trkpt lat="42.92701" lon="0.19676">
        <ele>1328</ele>
        <time>2019-06-23T07:59:06.111Z</time>
      </trkpt>
      <trkpt lat="42.927" lon="0.19676">
        <ele>1329</ele>
        <time>2019-06-23T07:59:07.111Z</time>
      </trkpt>
      <trkpt lat="42.927" lon="0.19676">
        <ele>1330</ele>
        <time>2019-06-23T07:59:08.111Z</time>
      </trkpt>
      <trkpt lat="42.927" lon="0.19676">
        <ele>1330</ele>
        <time>2019-06-23T07:59:09.111Z</time>
      </trkpt>
      <trkpt lat="42.92699" lon="0.19675">
        <ele>1330</ele>
        <time>2019-06-23T07:59:10.111Z</time>
      </trkpt>
      <trkpt lat="42.92699" lon="0.19675">
        <ele>1330</ele>
        <time>2019-06-23T07:59:11.111Z</time>
      </trkpt>
      <trkpt lat="42.92699" lon="0.19674">
        <ele>1329</ele>
        <time>2019-06-23T07:59:12.111Z</time>
      </trkpt>
      <trkpt lat="42.92699" lon="0.19674">
        <ele>1329</ele>
        <time>2019-06-23T07:59:13.111Z</time>
      </trkpt>
      <trkpt lat="42.92699" lon="0.19673">
        <ele>1329</ele>
        <time>2019-06-23T07:59:14.111Z</time>
      </trkpt>
      <trkpt lat="42.92699" lon="0.19672">
        <ele>1328</ele>
        <time>2019-06-23T07:59:15.111Z</time>
      </trkpt>
      <trkpt lat="42.92699" lon="0.19672">
        <ele>1328</ele>
        <time>2019-06-23T07:59:16.111Z</time>
      </trkpt>
      <trkpt lat="42.92699" lon="0.19671">
        <ele>1329</ele>
        <time>2019-06-23T07:59:17.111Z</time>
      </trkpt>
      <trkpt lat="42.92699" lon="0.19671">
        <ele>1327</ele>
        <time>2019-06-23T07:59:18.111Z</time>
      </trkpt>
      <trkpt lat="42.92697" lon="0.19667">
        <ele>1330</ele>
        <time>2019-06-23T07:59:19.119Z</time>
      </trkpt>
      <trkpt lat="42.92697" lon="0.19667">
        <ele>1330</ele>
        <time>2019-06-23T07:59:20.119Z</time>
      </trkpt>
      <trkpt lat="42.92697" lon="0.19666">
        <ele>1330</ele>
        <time>2019-06-23T07:59:21.119Z</time>
      </trkpt>
      <trkpt lat="42.92697" lon="0.19666">
        <ele>1331</ele>
        <time>2019-06-23T07:59:22.119Z</time>
      </trkpt>
      <trkpt lat="42.92697" lon="0.19665">
        <ele>1330</ele>
        <time>2019-06-23T07:59:23.119Z</time>
      </trkpt>
      <trkpt lat="42.92696" lon="0.19665">
        <ele>1331</ele>
        <time>2019-06-23T07:59:24.119Z</time>
      </trkpt>
      <trkpt lat="42.92696" lon="0.19664">
        <ele>1331</ele>
        <time>2019-06-23T07:59:25.119Z</time>
      </trkpt>
      <trkpt lat="42.92696" lon="0.19664">
        <ele>1331</ele>
        <time>2019-06-23T07:59:26.119Z</time>
      </trkpt>
      <trkpt lat="42.92696" lon="0.19663">
        <ele>1331</ele>
        <time>2019-06-23T07:59:27.119Z</time>
      </trkpt>
      <trkpt lat="42.92696" lon="0.19662">
        <ele>1331</ele>
        <time>2019-06-23T07:59:28.119Z</time>
      </trkpt>
      <trkpt lat="42.92696" lon="0.19661">
        <ele>1331</ele>
        <time>2019-06-23T07:59:29.119Z</time>
      </trkpt>
      <trkpt lat="42.92696" lon="0.19661">
        <ele>1332</ele>
        <time>2019-06-23T07:59:30.119Z</time>
      </trkpt>
      <trkpt lat="42.92696" lon="0.1966">
        <ele>1332</ele>
        <time>2019-06-23T07:59:31.119Z</time>
      </trkpt>
      <trkpt lat="42.92696" lon="0.1966">
        <ele>1332</ele>
        <time>2019-06-23T07:59:32.119Z</time>
      </trkpt>
      <trkpt lat="42.92696" lon="0.19659">
        <ele>1333</ele>
        <time>2019-06-23T07:59:33.119Z</time>
      </trkpt>
      <trkpt lat="42.92696" lon="0.19658">
        <ele>1333</ele>
        <time>2019-06-23T07:59:34.119Z</time>
      </trkpt>
      <trkpt lat="42.92695" lon="0.19658">
        <ele>1333</ele>
        <time>2019-06-23T07:59:35.119Z</time>
      </trkpt>
      <trkpt lat="42.92695" lon="0.19657">
        <ele>1334</ele>
        <time>2019-06-23T07:59:36.119Z</time>
      </trkpt>
      <trkpt lat="42.92695" lon="0.19656">
        <ele>1334</ele>
        <time>2019-06-23T07:59:37.119Z</time>
      </trkpt>
      <trkpt lat="42.92696" lon="0.19656">
        <ele>1335</ele>
        <time>2019-06-23T07:59:38.119Z</time>
      </trkpt>
      <trkpt lat="42.92696" lon="0.19655">
        <ele>1335</ele>
        <time>2019-06-23T07:59:39.119Z</time>
      </trkpt>
      <trkpt lat="42.92696" lon="0.19655">
        <ele>1335</ele>
        <time>2019-06-23T07:59:40.119Z</time>
      </trkpt>
      <trkpt lat="42.92696" lon="0.19654">
        <ele>1335</ele>
        <time>2019-06-23T07:59:41.119Z</time>
      </trkpt>
      <trkpt lat="42.92697" lon="0.19654">
        <ele>1336</ele>
        <time>2019-06-23T07:59:42.119Z</time>
      </trkpt>
      <trkpt lat="42.92697" lon="0.19653">
        <ele>1336</ele>
        <time>2019-06-23T07:59:43.119Z</time>
      </trkpt>
      <trkpt lat="42.92697" lon="0.19653">
        <ele>1336</ele>
        <time>2019-06-23T07:59:44.119Z</time>
      </trkpt>
      <trkpt lat="42.92697" lon="0.19652">
        <ele>1337</ele>
        <time>2019-06-23T07:59:45.119Z</time>
      </trkpt>
      <trkpt lat="42.92697" lon="0.19652">
        <ele>1337</ele>
        <time>2019-06-23T07:59:46.119Z</time>
      </trkpt>
      <trkpt lat="42.92698" lon="0.19651">
        <ele>1336</ele>
        <time>2019-06-23T07:59:47.119Z</time>
      </trkpt>
      <trkpt lat="42.92698" lon="0.19651">
        <ele>1337</ele>
        <time>2019-06-23T07:59:48.119Z</time>
      </trkpt>
      <trkpt lat="42.92698" lon="0.1965">
        <ele>1337</ele>
        <time>2019-06-23T07:59:49.119Z</time>
      </trkpt>
      <trkpt lat="42.92699" lon="0.19649">
        <ele>1337</ele>
        <time>2019-06-23T07:59:50.119Z</time>
      </trkpt>
      <trkpt lat="42.92699" lon="0.19649">
        <ele>1337</ele>
        <time>2019-06-23T07:59:51.119Z</time>
      </trkpt>
      <trkpt lat="42.92699" lon="0.19648">
        <ele>1337</ele>
        <time>2019-06-23T07:59:52.119Z</time>
      </trkpt>
      <trkpt lat="42.92699" lon="0.19648">
        <ele>1337</ele>
        <time>2019-06-23T07:59:53.119Z</time>
      </trkpt>
      <trkpt lat="42.92699" lon="0.19647">
        <ele>1337</ele>
        <time>2019-06-23T07:59:54.119Z</time>
      </trkpt>
      <trkpt lat="42.92699" lon="0.19647">
        <ele>1337</ele>
        <time>2019-06-23T07:59:55.119Z</time>
      </trkpt>
      <trkpt lat="42.92699" lon="0.19646">
        <ele>1337</ele>
        <time>2019-06-23T07:59:56.119Z</time>
      </trkpt>
      <trkpt lat="42.92699" lon="0.19646">
        <ele>1338</ele>
        <time>2019-06-23T07:59:57.119Z</time>
      </trkpt>
      <trkpt lat="42.92699" lon="0.19645">
        <ele>1338</ele>
        <time>2019-06-23T07:59:58.119Z</time>
      </trkpt>
      <trkpt lat="42.92698" lon="0.19644">
        <ele>1338</ele>
        <time>2019-06-23T07:59:59.119Z</time>
      </trkpt>
      <trkpt lat="42.92697" lon="0.19638">
        <ele>1342</ele>
        <time>2019-06-23T08:00:00.002Z</time>
      </trkpt>
      <trkpt lat="42.92697" lon="0.19637">
        <ele>1343</ele>
        <time>2019-06-23T08:00:01.002Z</time>
      </trkpt>
      <trkpt lat="42.92696" lon="0.19637">
        <ele>1343</ele>
        <time>2019-06-23T08:00:02.002Z</time>
      </trkpt>
      <trkpt lat="42.92696" lon="0.19637">
        <ele>1343</ele>
        <time>2019-06-23T08:00:03.002Z</time>
      </trkpt>
      <trkpt lat="42.92696" lon="0.19636">
        <ele>1343</ele>
        <time>2019-06-23T08:00:04.002Z</time>
      </trkpt>
      <trkpt lat="42.92695" lon="0.19636">
        <ele>1343</ele>
        <time>2019-06-23T08:00:05.002Z</time>
      </trkpt>
      <trkpt lat="42.92688" lon="0.19625">
        <ele>1346</ele>
        <time>2019-06-23T08:00:06.010Z</time>
      </trkpt>
      <trkpt lat="42.92688" lon="0.19625">
        <ele>1346</ele>
        <time>2019-06-23T08:00:07.010Z</time>
      </trkpt>
      <trkpt lat="42.92687" lon="0.19625">
        <ele>1348</ele>
        <time>2019-06-23T08:00:08.010Z</time>
      </trkpt>
      <trkpt lat="42.92687" lon="0.19625">
        <ele>1349</ele>
        <time>2019-06-23T08:00:09.010Z</time>
      </trkpt>
      <trkpt lat="42.92686" lon="0.19625">
        <ele>1349</ele>
        <time>2019-06-23T08:00:10.010Z</time>
      </trkpt>
      <trkpt lat="42.92686" lon="0.19625">
        <ele>1349</ele>
        <time>2019-06-23T08:00:11.010Z</time>
      </trkpt>
      <trkpt lat="42.92685" lon="0.19625">
        <ele>1350</ele>
        <time>2019-06-23T08:00:12.010Z</time>
      </trkpt>
      <trkpt lat="42.92685" lon="0.19625">
        <ele>1350</ele>
        <time>2019-06-23T08:00:13.010Z</time>
      </trkpt>
      <trkpt lat="42.92684" lon="0.19625">
        <ele>1350</ele>
        <time>2019-06-23T08:00:14.010Z</time>
      </trkpt>
      <trkpt lat="42.92684" lon="0.19625">
        <ele>1351</ele>
        <time>2019-06-23T08:00:15.010Z</time>
      </trkpt>
      <trkpt lat="42.92684" lon="0.19626">
        <ele>1352</ele>
        <time>2019-06-23T08:00:16.010Z</time>
      </trkpt>
      <trkpt lat="42.92683" lon="0.19626">
        <ele>1352</ele>
        <time>2019-06-23T08:00:17.010Z</time>
      </trkpt>
      <trkpt lat="42.92683" lon="0.19626">
        <ele>1352</ele>
        <time>2019-06-23T08:00:18.010Z</time>
      </trkpt>
      <trkpt lat="42.92682" lon="0.19626">
        <ele>1353</ele>
        <time>2019-06-23T08:00:19.010Z</time>
      </trkpt>
      <trkpt lat="42.92682" lon="0.19627">
        <ele>1353</ele>
        <time>2019-06-23T08:00:20.010Z</time>
      </trkpt>
      <trkpt lat="42.92682" lon="0.19627">
        <ele>1352</ele>
        <time>2019-06-23T08:00:21.010Z</time>
      </trkpt>
      <trkpt lat="42.92682" lon="0.19627">
        <ele>1352</ele>
        <time>2019-06-23T08:00:22.010Z</time>
      </trkpt>
      <trkpt lat="42.92681" lon="0.19626">
        <ele>1349</ele>
        <time>2019-06-23T08:00:23.010Z</time>
      </trkpt>
      <trkpt lat="42.92681" lon="0.19626">
        <ele>1349</ele>
        <time>2019-06-23T08:00:24.010Z</time>
      </trkpt>
      <trkpt lat="42.92681" lon="0.19626">
        <ele>1349</ele>
        <time>2019-06-23T08:00:25.010Z</time>
      </trkpt>
      <trkpt lat="42.92681" lon="0.19626">
        <ele>1349</ele>
        <time>2019-06-23T08:00:26.010Z</time>
      </trkpt>
      <trkpt lat="42.92681" lon="0.19626">
        <ele>1348</ele>
        <time>2019-06-23T08:00:27.010Z</time>
      </trkpt>
      <trkpt lat="42.9268" lon="0.19626">
        <ele>1349</ele>
        <time>2019-06-23T08:00:28.010Z</time>
      </trkpt>
      <trkpt lat="42.92679" lon="0.19626">
        <ele>1349</ele>
        <time>2019-06-23T08:00:29.010Z</time>
      </trkpt>
      <trkpt lat="42.92679" lon="0.19626">
        <ele>1348</ele>
        <time>2019-06-23T08:00:30.010Z</time>
      </trkpt>
      <trkpt lat="42.92678" lon="0.19627">
        <ele>1349</ele>
        <time>2019-06-23T08:00:31.010Z</time>
      </trkpt>
      <trkpt lat="42.92678" lon="0.19627">
        <ele>1349</ele>
        <time>2019-06-23T08:00:32.010Z</time>
      </trkpt>
      <trkpt lat="42.92677" lon="0.19627">
        <ele>1349</ele>
        <time>2019-06-23T08:00:33.010Z</time>
      </trkpt>
      <trkpt lat="42.92677" lon="0.19626">
        <ele>1347</ele>
        <time>2019-06-23T08:00:34.010Z</time>
      </trkpt>
      <trkpt lat="42.92676" lon="0.19626">
        <ele>1348</ele>
        <time>2019-06-23T08:00:35.010Z</time>
      </trkpt>
      <trkpt lat="42.92676" lon="0.19625">
        <ele>1348</ele>
        <time>2019-06-23T08:00:36.010Z</time>
      </trkpt>
      <trkpt lat="42.92675" lon="0.19625">
        <ele>1348</ele>
        <time>2019-06-23T08:00:37.010Z</time>
      </trkpt>
      <trkpt lat="42.92675" lon="0.19624">
        <ele>1350</ele>
        <time>2019-06-23T08:00:38.010Z</time>
      </trkpt>
      <trkpt lat="42.92674" lon="0.19624">
        <ele>1350</ele>
        <time>2019-06-23T08:00:39.010Z</time>
      </trkpt>
      <trkpt lat="42.92674" lon="0.19624">
        <ele>1348</ele>
        <time>2019-06-23T08:00:40.010Z</time>
      </trkpt>
      <trkpt lat="42.92673" lon="0.19623">
        <ele>1348</ele>
        <time>2019-06-23T08:00:41.010Z</time>
      </trkpt>
      <trkpt lat="42.92672" lon="0.19623">
        <ele>1348</ele>
        <time>2019-06-23T08:00:42.010Z</time>
      </trkpt>
      <trkpt lat="42.92672" lon="0.19622">
        <ele>1348</ele>
        <time>2019-06-23T08:00:43.010Z</time>
      </trkpt>
      <trkpt lat="42.92672" lon="0.19621">
        <ele>1348</ele>
        <time>2019-06-23T08:00:44.010Z</time>
      </trkpt>
      <trkpt lat="42.92671" lon="0.19621">
        <ele>1348</ele>
        <time>2019-06-23T08:00:45.010Z</time>
      </trkpt>
      <trkpt lat="42.92671" lon="0.1962">
        <ele>1349</ele>
        <time>2019-06-23T08:00:46.010Z</time>
      </trkpt>
      <trkpt lat="42.9267" lon="0.1962">
        <ele>1348</ele>
        <time>2019-06-23T08:00:47.010Z</time>
      </trkpt>
      <trkpt lat="42.9267" lon="0.1962">
        <ele>1349</ele>
        <time>2019-06-23T08:00:48.010Z</time>
      </trkpt>
      <trkpt lat="42.9267" lon="0.19619">
        <ele>1349</ele>
        <time>2019-06-23T08:00:49.010Z</time>
      </trkpt>
      <trkpt lat="42.92669" lon="0.19619">
        <ele>1348</ele>
        <time>2019-06-23T08:00:50.010Z</time>
      </trkpt>
      <trkpt lat="42.92669" lon="0.19618">
        <ele>1348</ele>
        <time>2019-06-23T08:00:51.010Z</time>
      </trkpt>
      <trkpt lat="42.92668" lon="0.19618">
        <ele>1348</ele>
        <time>2019-06-23T08:00:52.010Z</time>
      </trkpt>
      <trkpt lat="42.92668" lon="0.19617">
        <ele>1348</ele>
        <time>2019-06-23T08:00:53.010Z</time>
      </trkpt>
      <trkpt lat="42.92667" lon="0.19616">
        <ele>1348</ele>
        <time>2019-06-23T08:00:54.010Z</time>
      </trkpt>
      <trkpt lat="42.92667" lon="0.19616">
        <ele>1348</ele>
        <time>2019-06-23T08:00:55.010Z</time>
      </trkpt>
      <trkpt lat="42.92667" lon="0.19615">
        <ele>1348</ele>
        <time>2019-06-23T08:00:56.010Z</time>
      </trkpt>
      <trkpt lat="42.92667" lon="0.19615">
        <ele>1348</ele>
        <time>2019-06-23T08:00:57.010Z</time>
      </trkpt>
      <trkpt lat="42.92666" lon="0.19615">
        <ele>1348</ele>
        <time>2019-06-23T08:00:58.010Z</time>
      </trkpt>
      <trkpt lat="42.92666" lon="0.19614">
        <ele>1348</ele>
        <time>2019-06-23T08:00:59.010Z</time>
      </trkpt>
      <trkpt lat="42.92666" lon="0.19614">
        <ele>1348</ele>
        <time>2019-06-23T08:01:00.010Z</time>
      </trkpt>
      <trkpt lat="42.92665" lon="0.19614">
        <ele>1349</ele>
        <time>2019-06-23T08:01:01.010Z</time>
      </trkpt>
      <trkpt lat="42.92665" lon="0.19614">
        <ele>1348</ele>
        <time>2019-06-23T08:01:02.010Z</time>
      </trkpt>
      <trkpt lat="42.92665" lon="0.19613">
        <ele>1349</ele>
        <time>2019-06-23T08:01:03.010Z</time>
      </trkpt>
      <trkpt lat="42.92664" lon="0.19613">
        <ele>1349</ele>
        <time>2019-06-23T08:01:04.010Z</time>
      </trkpt>
      <trkpt lat="42.92664" lon="0.19613">
        <ele>1349</ele>
        <time>2019-06-23T08:01:05.010Z</time>
      </trkpt>
      <trkpt lat="42.92664" lon="0.19612">
        <ele>1349</ele>
        <time>2019-06-23T08:01:06.010Z</time>
      </trkpt>
      <trkpt lat="42.92663" lon="0.19612">
        <ele>1348</ele>
        <time>2019-06-23T08:01:07.010Z</time>
      </trkpt>
      <trkpt lat="42.92663" lon="0.19611">
        <ele>1348</ele>
        <time>2019-06-23T08:01:08.010Z</time>
      </trkpt>
      <trkpt lat="42.92662" lon="0.19611">
        <ele>1348</ele>
        <time>2019-06-23T08:01:09.010Z</time>
      </trkpt>
      <trkpt lat="42.92662" lon="0.19611">
        <ele>1348</ele>
        <time>2019-06-23T08:01:10.010Z</time>
      </trkpt>
      <trkpt lat="42.92661" lon="0.1961">
        <ele>1348</ele>
        <time>2019-06-23T08:01:11.010Z</time>
      </trkpt>
      <trkpt lat="42.92661" lon="0.1961">
        <ele>1348</ele>
        <time>2019-06-23T08:01:12.010Z</time>
      </trkpt>
      <trkpt lat="42.92661" lon="0.1961">
        <ele>1349</ele>
        <time>2019-06-23T08:01:13.010Z</time>
      </trkpt>
      <trkpt lat="42.92661" lon="0.19609">
        <ele>1349</ele>
        <time>2019-06-23T08:01:14.010Z</time>
      </trkpt>
      <trkpt lat="42.92661" lon="0.19609">
        <ele>1349</ele>
        <time>2019-06-23T08:01:15.010Z</time>
      </trkpt>
      <trkpt lat="42.92661" lon="0.19609">
        <ele>1350</ele>
        <time>2019-06-23T08:01:16.010Z</time>
      </trkpt>
      <trkpt lat="42.9266" lon="0.19608">
        <ele>1349</ele>
        <time>2019-06-23T08:01:17.010Z</time>
      </trkpt>
      <trkpt lat="42.9266" lon="0.19608">
        <ele>1350</ele>
        <time>2019-06-23T08:01:18.010Z</time>
      </trkpt>
      <trkpt lat="42.9266" lon="0.19607">
        <ele>1350</ele>
        <time>2019-06-23T08:01:19.010Z</time>
      </trkpt>
      <trkpt lat="42.9266" lon="0.19607">
        <ele>1350</ele>
        <time>2019-06-23T08:01:20.010Z</time>
      </trkpt>
      <trkpt lat="42.92659" lon="0.19606">
        <ele>1350</ele>
        <time>2019-06-23T08:01:21.010Z</time>
      </trkpt>
      <trkpt lat="42.92659" lon="0.19606">
        <ele>1350</ele>
        <time>2019-06-23T08:01:22.010Z</time>
      </trkpt>
      <trkpt lat="42.92659" lon="0.19606">
        <ele>1350</ele>
        <time>2019-06-23T08:01:23.010Z</time>
      </trkpt>
      <trkpt lat="42.92658" lon="0.19605">
        <ele>1349</ele>
        <time>2019-06-23T08:01:24.010Z</time>
      </trkpt>
      <trkpt lat="42.92658" lon="0.19605">
        <ele>1349</ele>
        <time>2019-06-23T08:01:25.010Z</time>
      </trkpt>
      <trkpt lat="42.92658" lon="0.19605">
        <ele>1349</ele>
        <time>2019-06-23T08:01:26.010Z</time>
      </trkpt>
      <trkpt lat="42.92657" lon="0.19605">
        <ele>1349</ele>
        <time>2019-06-23T08:01:27.010Z</time>
      </trkpt>
      <trkpt lat="42.92657" lon="0.19605">
        <ele>1349</ele>
        <time>2019-06-23T08:01:28.010Z</time>
      </trkpt>
      <trkpt lat="42.92657" lon="0.19604">
        <ele>1348</ele>
        <time>2019-06-23T08:01:29.010Z</time>
      </trkpt>
      <trkpt lat="42.92656" lon="0.19604">
        <ele>1348</ele>
        <time>2019-06-23T08:01:30.010Z</time>
      </trkpt>
      <trkpt lat="42.92656" lon="0.19603">
        <ele>1348</ele>
        <time>2019-06-23T08:01:31.010Z</time>
      </trkpt>
      <trkpt lat="42.92656" lon="0.19602">
        <ele>1347</ele>
        <time>2019-06-23T08:01:32.010Z</time>
      </trkpt>
      <trkpt lat="42.92656" lon="0.19601">
        <ele>1348</ele>
        <time>2019-06-23T08:01:33.010Z</time>
      </trkpt>
      <trkpt lat="42.92656" lon="0.19601">
        <ele>1348</ele>
        <time>2019-06-23T08:01:34.010Z</time>
      </trkpt>
      <trkpt lat="42.92656" lon="0.196">
        <ele>1348</ele>
        <time>2019-06-23T08:01:35.010Z</time>
      </trkpt>
      <trkpt lat="42.92656" lon="0.19599">
        <ele>1347</ele>
        <time>2019-06-23T08:01:36.010Z</time>
      </trkpt>
      <trkpt lat="42.92655" lon="0.19599">
        <ele>1347</ele>
        <time>2019-06-23T08:01:37.010Z</time>
      </trkpt>
      <trkpt lat="42.92655" lon="0.19599">
        <ele>1347</ele>
        <time>2019-06-23T08:01:38.010Z</time>
      </trkpt>
      <trkpt lat="42.92656" lon="0.19598">
        <ele>1348</ele>
        <time>2019-06-23T08:01:39.010Z</time>
      </trkpt>
      <trkpt lat="42.92656" lon="0.19598">
        <ele>1348</ele>
        <time>2019-06-23T08:01:40.010Z</time>
      </trkpt>
      <trkpt lat="42.92656" lon="0.19597">
        <ele>1347</ele>
        <time>2019-06-23T08:01:41.010Z</time>
      </trkpt>
      <trkpt lat="42.92655" lon="0.19596">
        <ele>1348</ele>
        <time>2019-06-23T08:01:42.010Z</time>
      </trkpt>
      <trkpt lat="42.92655" lon="0.19596">
        <ele>1348</ele>
        <time>2019-06-23T08:01:43.010Z</time>
      </trkpt>
      <trkpt lat="42.92655" lon="0.19596">
        <ele>1348</ele>
        <time>2019-06-23T08:01:44.010Z</time>
      </trkpt>
      <trkpt lat="42.92655" lon="0.19595">
        <ele>1348</ele>
        <time>2019-06-23T08:01:45.010Z</time>
      </trkpt>
      <trkpt lat="42.92654" lon="0.19595">
        <ele>1348</ele>
        <time>2019-06-23T08:01:46.010Z</time>
      </trkpt>
      <trkpt lat="42.92654" lon="0.19595">
        <ele>1348</ele>
        <time>2019-06-23T08:01:47.010Z</time>
      </trkpt>
      <trkpt lat="42.92654" lon="0.19594">
        <ele>1348</ele>
        <time>2019-06-23T08:01:48.010Z</time>
      </trkpt>
      <trkpt lat="42.92654" lon="0.19594">
        <ele>1348</ele>
        <time>2019-06-23T08:01:49.010Z</time>
      </trkpt>
      <trkpt lat="42.92653" lon="0.19593">
        <ele>1348</ele>
        <time>2019-06-23T08:01:50.010Z</time>
      </trkpt>
      <trkpt lat="42.92653" lon="0.19593">
        <ele>1349</ele>
        <time>2019-06-23T08:01:51.010Z</time>
      </trkpt>
      <trkpt lat="42.92653" lon="0.19593">
        <ele>1349</ele>
        <time>2019-06-23T08:01:52.010Z</time>
      </trkpt>
      <trkpt lat="42.92653" lon="0.19593">
        <ele>1349</ele>
        <time>2019-06-23T08:01:53.010Z</time>
      </trkpt>
      <trkpt lat="42.9265" lon="0.19593">
        <ele>1351</ele>
        <time>2019-06-23T08:01:54.018Z</time>
      </trkpt>
      <trkpt lat="42.92649" lon="0.19592">
        <ele>1351</ele>
        <time>2019-06-23T08:01:55.018Z</time>
      </trkpt>
      <trkpt lat="42.92649" lon="0.19592">
        <ele>1351</ele>
        <time>2019-06-23T08:01:56.018Z</time>
      </trkpt>
      <trkpt lat="42.92649" lon="0.19593">
        <ele>1352</ele>
        <time>2019-06-23T08:01:57.018Z</time>
      </trkpt>
      <trkpt lat="42.92648" lon="0.19593">
        <ele>1352</ele>
        <time>2019-06-23T08:01:58.018Z</time>
      </trkpt>
      <trkpt lat="42.92648" lon="0.19593">
        <ele>1352</ele>
        <time>2019-06-23T08:01:59.018Z</time>
      </trkpt>
      <trkpt lat="42.92647" lon="0.19594">
        <ele>1352</ele>
        <time>2019-06-23T08:02:00.018Z</time>
      </trkpt>
      <trkpt lat="42.92647" lon="0.19594">
        <ele>1353</ele>
        <time>2019-06-23T08:02:01.018Z</time>
      </trkpt>
      <trkpt lat="42.92646" lon="0.19594">
        <ele>1353</ele>
        <time>2019-06-23T08:02:02.018Z</time>
      </trkpt>
      <trkpt lat="42.92646" lon="0.19593">
        <ele>1354</ele>
        <time>2019-06-23T08:02:03.018Z</time>
      </trkpt>
      <trkpt lat="42.92646" lon="0.19593">
        <ele>1354</ele>
        <time>2019-06-23T08:02:04.018Z</time>
      </trkpt>
      <trkpt lat="42.92646" lon="0.19593">
        <ele>1355</ele>
        <time>2019-06-23T08:02:05.018Z</time>
      </trkpt>
      <trkpt lat="42.92646" lon="0.19592">
        <ele>1355</ele>
        <time>2019-06-23T08:02:06.018Z</time>
      </trkpt>
      <trkpt lat="42.92645" lon="0.19592">
        <ele>1355</ele>
        <time>2019-06-23T08:02:07.018Z</time>
      </trkpt>
      <trkpt lat="42.92645" lon="0.19592">
        <ele>1356</ele>
        <time>2019-06-23T08:02:08.018Z</time>
      </trkpt>
      <trkpt lat="42.92645" lon="0.19591">
        <ele>1356</ele>
        <time>2019-06-23T08:02:09.018Z</time>
      </trkpt>
      <trkpt lat="42.92645" lon="0.19591">
        <ele>1356</ele>
        <time>2019-06-23T08:02:10.018Z</time>
      </trkpt>
      <trkpt lat="42.92645" lon="0.1959">
        <ele>1357</ele>
        <time>2019-06-23T08:02:11.018Z</time>
      </trkpt>
      <trkpt lat="42.92645" lon="0.1959">
        <ele>1357</ele>
        <time>2019-06-23T08:02:12.018Z</time>
      </trkpt>
      <trkpt lat="42.92645" lon="0.19589">
        <ele>1357</ele>
        <time>2019-06-23T08:02:13.018Z</time>
      </trkpt>
      <trkpt lat="42.92645" lon="0.19589">
        <ele>1357</ele>
        <time>2019-06-23T08:02:14.018Z</time>
      </trkpt>
      <trkpt lat="42.92644" lon="0.19589">
        <ele>1356</ele>
        <time>2019-06-23T08:02:15.018Z</time>
      </trkpt>
      <trkpt lat="42.92644" lon="0.19589">
        <ele>1357</ele>
        <time>2019-06-23T08:02:16.018Z</time>
      </trkpt>
      <trkpt lat="42.92644" lon="0.19588">
        <ele>1356</ele>
        <time>2019-06-23T08:02:17.018Z</time>
      </trkpt>
      <trkpt lat="42.92643" lon="0.19588">
        <ele>1356</ele>
        <time>2019-06-23T08:02:18.018Z</time>
      </trkpt>
      <trkpt lat="42.92643" lon="0.19588">
        <ele>1356</ele>
        <time>2019-06-23T08:02:19.018Z</time>
      </trkpt>
      <trkpt lat="42.92642" lon="0.19588">
        <ele>1356</ele>
        <time>2019-06-23T08:02:20.018Z</time>
      </trkpt>
      <trkpt lat="42.92642" lon="0.19587">
        <ele>1356</ele>
        <time>2019-06-23T08:02:21.018Z</time>
      </trkpt>
      <trkpt lat="42.92641" lon="0.19587">
        <ele>1355</ele>
        <time>2019-06-23T08:02:22.018Z</time>
      </trkpt>
      <trkpt lat="42.92641" lon="0.19587">
        <ele>1355</ele>
        <time>2019-06-23T08:02:23.018Z</time>
      </trkpt>
      <trkpt lat="42.9264" lon="0.19587">
        <ele>1355</ele>
        <time>2019-06-23T08:02:24.018Z</time>
      </trkpt>
      <trkpt lat="42.9264" lon="0.19587">
        <ele>1355</ele>
        <time>2019-06-23T08:02:25.018Z</time>
      </trkpt>
      <trkpt lat="42.92639" lon="0.19587">
        <ele>1355</ele>
        <time>2019-06-23T08:02:26.018Z</time>
      </trkpt>
      <trkpt lat="42.92639" lon="0.19587">
        <ele>1355</ele>
        <time>2019-06-23T08:02:27.018Z</time>
      </trkpt>
      <trkpt lat="42.92638" lon="0.19587">
        <ele>1355</ele>
        <time>2019-06-23T08:02:28.018Z</time>
      </trkpt>
      <trkpt lat="42.92638" lon="0.19587">
        <ele>1356</ele>
        <time>2019-06-23T08:02:29.018Z</time>
      </trkpt>
      <trkpt lat="42.92637" lon="0.19588">
        <ele>1356</ele>
        <time>2019-06-23T08:02:30.018Z</time>
      </trkpt>
      <trkpt lat="42.92637" lon="0.19588">
        <ele>1356</ele>
        <time>2019-06-23T08:02:31.018Z</time>
      </trkpt>
      <trkpt lat="42.92636" lon="0.19588">
        <ele>1356</ele>
        <time>2019-06-23T08:02:32.018Z</time>
      </trkpt>
      <trkpt lat="42.92636" lon="0.19588">
        <ele>1356</ele>
        <time>2019-06-23T08:02:33.018Z</time>
      </trkpt>
      <trkpt lat="42.92635" lon="0.19588">
        <ele>1356</ele>
        <time>2019-06-23T08:02:34.018Z</time>
      </trkpt>
      <trkpt lat="42.92635" lon="0.19587">
        <ele>1356</ele>
        <time>2019-06-23T08:02:35.018Z</time>
      </trkpt>
      <trkpt lat="42.92634" lon="0.19587">
        <ele>1355</ele>
        <time>2019-06-23T08:02:36.018Z</time>
      </trkpt>
      <trkpt lat="42.92633" lon="0.19587">
        <ele>1355</ele>
        <time>2019-06-23T08:02:37.018Z</time>
      </trkpt>
      <trkpt lat="42.92633" lon="0.19586">
        <ele>1355</ele>
        <time>2019-06-23T08:02:38.018Z</time>
      </trkpt>
      <trkpt lat="42.92632" lon="0.19586">
        <ele>1355</ele>
        <time>2019-06-23T08:02:39.018Z</time>
      </trkpt>
      <trkpt lat="42.92632" lon="0.19586">
        <ele>1355</ele>
        <time>2019-06-23T08:02:40.018Z</time>
      </trkpt>
      <trkpt lat="42.92631" lon="0.19586">
        <ele>1355</ele>
        <time>2019-06-23T08:02:41.018Z</time>
      </trkpt>
      <trkpt lat="42.92631" lon="0.19586">
        <ele>1355</ele>
        <time>2019-06-23T08:02:42.018Z</time>
      </trkpt>
      <trkpt lat="42.9263" lon="0.19586">
        <ele>1355</ele>
        <time>2019-06-23T08:02:43.018Z</time>
      </trkpt>
      <trkpt lat="42.9263" lon="0.19585">
        <ele>1356</ele>
        <time>2019-06-23T08:02:44.018Z</time>
      </trkpt>
      <trkpt lat="42.9263" lon="0.19584">
        <ele>1356</ele>
        <time>2019-06-23T08:02:45.018Z</time>
      </trkpt>
      <trkpt lat="42.9263" lon="0.19584">
        <ele>1356</ele>
        <time>2019-06-23T08:02:46.018Z</time>
      </trkpt>
      <trkpt lat="42.9263" lon="0.19583">
        <ele>1357</ele>
        <time>2019-06-23T08:02:47.018Z</time>
      </trkpt>
      <trkpt lat="42.9263" lon="0.19582">
        <ele>1356</ele>
        <time>2019-06-23T08:02:48.018Z</time>
      </trkpt>
      <trkpt lat="42.9263" lon="0.19581">
        <ele>1356</ele>
        <time>2019-06-23T08:02:49.018Z</time>
      </trkpt>
      <trkpt lat="42.92629" lon="0.1958">
        <ele>1356</ele>
        <time>2019-06-23T08:02:50.018Z</time>
      </trkpt>
      <trkpt lat="42.92629" lon="0.1958">
        <ele>1356</ele>
        <time>2019-06-23T08:02:51.018Z</time>
      </trkpt>
      <trkpt lat="42.92629" lon="0.19579">
        <ele>1356</ele>
        <time>2019-06-23T08:02:52.018Z</time>
      </trkpt>
      <trkpt lat="42.92629" lon="0.19578">
        <ele>1356</ele>
        <time>2019-06-23T08:02:53.018Z</time>
      </trkpt>
      <trkpt lat="42.92629" lon="0.19578">
        <ele>1355</ele>
        <time>2019-06-23T08:02:54.018Z</time>
      </trkpt>
      <trkpt lat="42.92628" lon="0.19577">
        <ele>1355</ele>
        <time>2019-06-23T08:02:55.018Z</time>
      </trkpt>
      <trkpt lat="42.92628" lon="0.19577">
        <ele>1356</ele>
        <time>2019-06-23T08:02:56.018Z</time>
      </trkpt>
      <trkpt lat="42.92628" lon="0.19576">
        <ele>1356</ele>
        <time>2019-06-23T08:02:57.018Z</time>
      </trkpt>
      <trkpt lat="42.92628" lon="0.19576">
        <ele>1356</ele>
        <time>2019-06-23T08:02:58.018Z</time>
      </trkpt>
      <trkpt lat="42.92628" lon="0.19576">
        <ele>1356</ele>
        <time>2019-06-23T08:02:59.018Z</time>
      </trkpt>
      <trkpt lat="42.92628" lon="0.19575">
        <ele>1355</ele>
        <time>2019-06-23T08:03:00.018Z</time>
      </trkpt>
      <trkpt lat="42.92628" lon="0.19575">
        <ele>1355</ele>
        <time>2019-06-23T08:03:01.018Z</time>
      </trkpt>
      <trkpt lat="42.92627" lon="0.19574">
        <ele>1355</ele>
        <time>2019-06-23T08:03:02.018Z</time>
      </trkpt>
      <trkpt lat="42.92627" lon="0.19573">
        <ele>1355</ele>
        <time>2019-06-23T08:03:03.018Z</time>
      </trkpt>
      <trkpt lat="42.92627" lon="0.19573">
        <ele>1355</ele>
        <time>2019-06-23T08:03:04.018Z</time>
      </trkpt>
      <trkpt lat="42.92627" lon="0.19572">
        <ele>1356</ele>
        <time>2019-06-23T08:03:05.018Z</time>
      </trkpt>
      <trkpt lat="42.92626" lon="0.19572">
        <ele>1356</ele>
        <time>2019-06-23T08:03:06.018Z</time>
      </trkpt>
      <trkpt lat="42.92626" lon="0.19571">
        <ele>1356</ele>
        <time>2019-06-23T08:03:07.018Z</time>
      </trkpt>
      <trkpt lat="42.92626" lon="0.19571">
        <ele>1356</ele>
        <time>2019-06-23T08:03:08.018Z</time>
      </trkpt>
      <trkpt lat="42.92626" lon="0.1957">
        <ele>1356</ele>
        <time>2019-06-23T08:03:09.018Z</time>
      </trkpt>
      <trkpt lat="42.92626" lon="0.19569">
        <ele>1356</ele>
        <time>2019-06-23T08:03:10.018Z</time>
      </trkpt>
      <trkpt lat="42.92626" lon="0.19569">
        <ele>1357</ele>
        <time>2019-06-23T08:03:11.018Z</time>
      </trkpt>
      <trkpt lat="42.92626" lon="0.19568">
        <ele>1358</ele>
        <time>2019-06-23T08:03:12.018Z</time>
      </trkpt>
      <trkpt lat="42.92627" lon="0.19567">
        <ele>1358</ele>
        <time>2019-06-23T08:03:13.018Z</time>
      </trkpt>
      <trkpt lat="42.92627" lon="0.19566">
        <ele>1358</ele>
        <time>2019-06-23T08:03:14.018Z</time>
      </trkpt>
      <trkpt lat="42.92627" lon="0.19566">
        <ele>1358</ele>
        <time>2019-06-23T08:03:15.018Z</time>
      </trkpt>
      <trkpt lat="42.92627" lon="0.19565">
        <ele>1358</ele>
        <time>2019-06-23T08:03:16.018Z</time>
      </trkpt>
      <trkpt lat="42.92628" lon="0.19565">
        <ele>1359</ele>
        <time>2019-06-23T08:03:17.018Z</time>
      </trkpt>
      <trkpt lat="42.92628" lon="0.19564">
        <ele>1359</ele>
        <time>2019-06-23T08:03:18.018Z</time>
      </trkpt>
      <trkpt lat="42.92628" lon="0.19564">
        <ele>1359</ele>
        <time>2019-06-23T08:03:19.018Z</time>
      </trkpt>
      <trkpt lat="42.92628" lon="0.19563">
        <ele>1359</ele>
        <time>2019-06-23T08:03:20.018Z</time>
      </trkpt>
      <trkpt lat="42.92628" lon="0.19563">
        <ele>1359</ele>
        <time>2019-06-23T08:03:21.018Z</time>
      </trkpt>
      <trkpt lat="42.92628" lon="0.19563">
        <ele>1359</ele>
        <time>2019-06-23T08:03:22.018Z</time>
      </trkpt>
      <trkpt lat="42.92628" lon="0.19563">
        <ele>1359</ele>
        <time>2019-06-23T08:03:23.018Z</time>
      </trkpt>
      <trkpt lat="42.92629" lon="0.1956">
        <ele>1360</ele>
        <time>2019-06-23T08:03:24.026Z</time>
      </trkpt>
      <trkpt lat="42.92629" lon="0.1956">
        <ele>1361</ele>
        <time>2019-06-23T08:03:25.026Z</time>
      </trkpt>
      <trkpt lat="42.92629" lon="0.19559">
        <ele>1360</ele>
        <time>2019-06-23T08:03:26.026Z</time>
      </trkpt>
      <trkpt lat="42.92629" lon="0.19559">
        <ele>1360</ele>
        <time>2019-06-23T08:03:27.026Z</time>
      </trkpt>
      <trkpt lat="42.92629" lon="0.19558">
        <ele>1360</ele>
        <time>2019-06-23T08:03:28.026Z</time>
      </trkpt>
      <trkpt lat="42.92629" lon="0.19558">
        <ele>1360</ele>
        <time>2019-06-23T08:03:29.026Z</time>
      </trkpt>
      <trkpt lat="42.92629" lon="0.19558">
        <ele>1361</ele>
        <time>2019-06-23T08:03:30.026Z</time>
      </trkpt>
      <trkpt lat="42.92629" lon="0.19557">
        <ele>1361</ele>
        <time>2019-06-23T08:03:31.026Z</time>
      </trkpt>
      <trkpt lat="42.92629" lon="0.19557">
        <ele>1360</ele>
        <time>2019-06-23T08:03:32.026Z</time>
      </trkpt>
      <trkpt lat="42.9263" lon="0.19556">
        <ele>1361</ele>
        <time>2019-06-23T08:03:33.026Z</time>
      </trkpt>
      <trkpt lat="42.9263" lon="0.19556">
        <ele>1360</ele>
        <time>2019-06-23T08:03:34.026Z</time>
      </trkpt>
      <trkpt lat="42.9263" lon="0.19555">
        <ele>1361</ele>
        <time>2019-06-23T08:03:35.026Z</time>
      </trkpt>
      <trkpt lat="42.9263" lon="0.19555">
        <ele>1361</ele>
        <time>2019-06-23T08:03:36.026Z</time>
      </trkpt>
      <trkpt lat="42.9263" lon="0.19554">
        <ele>1361</ele>
        <time>2019-06-23T08:03:37.026Z</time>
      </trkpt>
      <trkpt lat="42.9263" lon="0.19554">
        <ele>1361</ele>
        <time>2019-06-23T08:03:38.026Z</time>
      </trkpt>
      <trkpt lat="42.9263" lon="0.19554">
        <ele>1362</ele>
        <time>2019-06-23T08:03:39.026Z</time>
      </trkpt>
      <trkpt lat="42.9263" lon="0.19553">
        <ele>1362</ele>
        <time>2019-06-23T08:03:40.026Z</time>
      </trkpt>
      <trkpt lat="42.9263" lon="0.19553">
        <ele>1362</ele>
        <time>2019-06-23T08:03:41.026Z</time>
      </trkpt>
      <trkpt lat="42.9263" lon="0.19552">
        <ele>1363</ele>
        <time>2019-06-23T08:03:42.026Z</time>
      </trkpt>
      <trkpt lat="42.92631" lon="0.19552">
        <ele>1363</ele>
        <time>2019-06-23T08:03:43.026Z</time>
      </trkpt>
      <trkpt lat="42.92631" lon="0.19551">
        <ele>1363</ele>
        <time>2019-06-23T08:03:44.026Z</time>
      </trkpt>
      <trkpt lat="42.92631" lon="0.19551">
        <ele>1363</ele>
        <time>2019-06-23T08:03:45.026Z</time>
      </trkpt>
      <trkpt lat="42.92631" lon="0.19551">
        <ele>1364</ele>
        <time>2019-06-23T08:03:46.026Z</time>
      </trkpt>
      <trkpt lat="42.92631" lon="0.1955">
        <ele>1364</ele>
        <time>2019-06-23T08:03:47.026Z</time>
      </trkpt>
      <trkpt lat="42.92631" lon="0.1955">
        <ele>1364</ele>
        <time>2019-06-23T08:03:48.026Z</time>
      </trkpt>
      <trkpt lat="42.92631" lon="0.1955">
        <ele>1364</ele>
        <time>2019-06-23T08:03:49.026Z</time>
      </trkpt>
      <trkpt lat="42.92631" lon="0.19549">
        <ele>1364</ele>
        <time>2019-06-23T08:03:50.026Z</time>
      </trkpt>
      <trkpt lat="42.92631" lon="0.19549">
        <ele>1365</ele>
        <time>2019-06-23T08:03:51.026Z</time>
      </trkpt>
      <trkpt lat="42.92631" lon="0.19548">
        <ele>1365</ele>
        <time>2019-06-23T08:03:52.026Z</time>
      </trkpt>
      <trkpt lat="42.92631" lon="0.19548">
        <ele>1365</ele>
        <time>2019-06-23T08:03:53.026Z</time>
      </trkpt>
      <trkpt lat="42.92632" lon="0.19548">
        <ele>1365</ele>
        <time>2019-06-23T08:03:54.026Z</time>
      </trkpt>
      <trkpt lat="42.92632" lon="0.19547">
        <ele>1365</ele>
        <time>2019-06-23T08:03:55.026Z</time>
      </trkpt>
      <trkpt lat="42.92632" lon="0.19547">
        <ele>1366</ele>
        <time>2019-06-23T08:03:56.026Z</time>
      </trkpt>
      <trkpt lat="42.92632" lon="0.19546">
        <ele>1366</ele>
        <time>2019-06-23T08:03:57.026Z</time>
      </trkpt>
      <trkpt lat="42.92633" lon="0.19546">
        <ele>1365</ele>
        <time>2019-06-23T08:03:58.026Z</time>
      </trkpt>
      <trkpt lat="42.92633" lon="0.19545">
        <ele>1366</ele>
        <time>2019-06-23T08:03:59.026Z</time>
      </trkpt>
      <trkpt lat="42.92633" lon="0.19545">
        <ele>1366</ele>
        <time>2019-06-23T08:04:00.026Z</time>
      </trkpt>
      <trkpt lat="42.92633" lon="0.19544">
        <ele>1366</ele>
        <time>2019-06-23T08:04:01.026Z</time>
      </trkpt>
      <trkpt lat="42.92633" lon="0.19544">
        <ele>1367</ele>
        <time>2019-06-23T08:04:02.026Z</time>
      </trkpt>
      <trkpt lat="42.92633" lon="0.19543">
        <ele>1367</ele>
        <time>2019-06-23T08:04:03.026Z</time>
      </trkpt>
      <trkpt lat="42.92633" lon="0.19543">
        <ele>1367</ele>
        <time>2019-06-23T08:04:04.026Z</time>
      </trkpt>
      <trkpt lat="42.92632" lon="0.19542">
        <ele>1367</ele>
        <time>2019-06-23T08:04:05.026Z</time>
      </trkpt>
      <trkpt lat="42.92632" lon="0.19542">
        <ele>1367</ele>
        <time>2019-06-23T08:04:06.026Z</time>
      </trkpt>
      <trkpt lat="42.92632" lon="0.19542">
        <ele>1368</ele>
        <time>2019-06-23T08:04:07.026Z</time>
      </trkpt>
      <trkpt lat="42.92632" lon="0.19542">
        <ele>1369</ele>
        <time>2019-06-23T08:04:08.026Z</time>
      </trkpt>
      <trkpt lat="42.92631" lon="0.19542">
        <ele>1370</ele>
        <time>2019-06-23T08:04:09.026Z</time>
      </trkpt>
      <trkpt lat="42.92631" lon="0.19541">
        <ele>1369</ele>
        <time>2019-06-23T08:04:10.026Z</time>
      </trkpt>
      <trkpt lat="42.9263" lon="0.19541">
        <ele>1369</ele>
        <time>2019-06-23T08:04:11.026Z</time>
      </trkpt>
      <trkpt lat="42.9263" lon="0.1954">
        <ele>1369</ele>
        <time>2019-06-23T08:04:12.026Z</time>
      </trkpt>
      <trkpt lat="42.92631" lon="0.1954">
        <ele>1369</ele>
        <time>2019-06-23T08:04:13.026Z</time>
      </trkpt>
      <trkpt lat="42.92631" lon="0.1954">
        <ele>1369</ele>
        <time>2019-06-23T08:04:14.026Z</time>
      </trkpt>
      <trkpt lat="42.92631" lon="0.1954">
        <ele>1369</ele>
        <time>2019-06-23T08:04:15.026Z</time>
      </trkpt>
      <trkpt lat="42.92631" lon="0.1954">
        <ele>1369</ele>
        <time>2019-06-23T08:04:16.026Z</time>
      </trkpt>
      <trkpt lat="42.92631" lon="0.1954">
        <ele>1368</ele>
        <time>2019-06-23T08:04:17.026Z</time>
      </trkpt>
      <trkpt lat="42.9263" lon="0.1954">
        <ele>1368</ele>
        <time>2019-06-23T08:04:18.026Z</time>
      </trkpt>
      <trkpt lat="42.9263" lon="0.19538">
        <ele>1368</ele>
        <time>2019-06-23T08:04:19.034Z</time>
      </trkpt>
      <trkpt lat="42.92629" lon="0.19537">
        <ele>1369</ele>
        <time>2019-06-23T08:04:20.034Z</time>
      </trkpt>
      <trkpt lat="42.92629" lon="0.19537">
        <ele>1369</ele>
        <time>2019-06-23T08:04:21.034Z</time>
      </trkpt>
      <trkpt lat="42.92629" lon="0.19536">
        <ele>1369</ele>
        <time>2019-06-23T08:04:22.034Z</time>
      </trkpt>
      <trkpt lat="42.92628" lon="0.19536">
        <ele>1369</ele>
        <time>2019-06-23T08:04:23.034Z</time>
      </trkpt>
      <trkpt lat="42.92628" lon="0.19536">
        <ele>1370</ele>
        <time>2019-06-23T08:04:24.034Z</time>
      </trkpt>
      <trkpt lat="42.92628" lon="0.19536">
        <ele>1370</ele>
        <time>2019-06-23T08:04:25.034Z</time>
      </trkpt>
      <trkpt lat="42.92628" lon="0.19536">
        <ele>1370</ele>
        <time>2019-06-23T08:04:26.034Z</time>
      </trkpt>
      <trkpt lat="42.92628" lon="0.19536">
        <ele>1370</ele>
        <time>2019-06-23T08:04:27.034Z</time>
      </trkpt>
      <trkpt lat="42.92627" lon="0.19536">
        <ele>1370</ele>
        <time>2019-06-23T08:04:28.034Z</time>
      </trkpt>
      <trkpt lat="42.92627" lon="0.19536">
        <ele>1370</ele>
        <time>2019-06-23T08:04:29.034Z</time>
      </trkpt>
      <trkpt lat="42.92627" lon="0.19536">
        <ele>1369</ele>
        <time>2019-06-23T08:04:30.034Z</time>
      </trkpt>
      <trkpt lat="42.92626" lon="0.19536">
        <ele>1369</ele>
        <time>2019-06-23T08:04:31.034Z</time>
      </trkpt>
      <trkpt lat="42.92626" lon="0.19535">
        <ele>1369</ele>
        <time>2019-06-23T08:04:32.034Z</time>
      </trkpt>
      <trkpt lat="42.92625" lon="0.19534">
        <ele>1368</ele>
        <time>2019-06-23T08:04:33.034Z</time>
      </trkpt>
      <trkpt lat="42.92625" lon="0.19533">
        <ele>1368</ele>
        <time>2019-06-23T08:04:34.034Z</time>
      </trkpt>
      <trkpt lat="42.92625" lon="0.19532">
        <ele>1368</ele>
        <time>2019-06-23T08:04:35.034Z</time>
      </trkpt>
      <trkpt lat="42.92625" lon="0.19531">
        <ele>1368</ele>
        <time>2019-06-23T08:04:36.034Z</time>
      </trkpt>
      <trkpt lat="42.92625" lon="0.19531">
        <ele>1368</ele>
        <time>2019-06-23T08:04:37.034Z</time>
      </trkpt>
      <trkpt lat="42.92625" lon="0.1953">
        <ele>1369</ele>
        <time>2019-06-23T08:04:38.034Z</time>
      </trkpt>
      <trkpt lat="42.92625" lon="0.19529">
        <ele>1369</ele>
        <time>2019-06-23T08:04:39.034Z</time>
      </trkpt>
      <trkpt lat="42.92624" lon="0.19529">
        <ele>1369</ele>
        <time>2019-06-23T08:04:40.034Z</time>
      </trkpt>
      <trkpt lat="42.92624" lon="0.19529">
        <ele>1369</ele>
        <time>2019-06-23T08:04:41.034Z</time>
      </trkpt>
      <trkpt lat="42.92624" lon="0.19528">
        <ele>1370</ele>
        <time>2019-06-23T08:04:42.034Z</time>
      </trkpt>
      <trkpt lat="42.92623" lon="0.19528">
        <ele>1370</ele>
        <time>2019-06-23T08:04:43.034Z</time>
      </trkpt>
      <trkpt lat="42.92623" lon="0.19527">
        <ele>1370</ele>
        <time>2019-06-23T08:04:44.034Z</time>
      </trkpt>
      <trkpt lat="42.92623" lon="0.19527">
        <ele>1369</ele>
        <time>2019-06-23T08:04:45.034Z</time>
      </trkpt>
      <trkpt lat="42.92623" lon="0.19526">
        <ele>1368</ele>
        <time>2019-06-23T08:04:46.034Z</time>
      </trkpt>
      <trkpt lat="42.92622" lon="0.19526">
        <ele>1368</ele>
        <time>2019-06-23T08:04:47.034Z</time>
      </trkpt>
      <trkpt lat="42.92622" lon="0.19525">
        <ele>1368</ele>
        <time>2019-06-23T08:04:48.034Z</time>
      </trkpt>
      <trkpt lat="42.92622" lon="0.19525">
        <ele>1368</ele>
        <time>2019-06-23T08:04:49.034Z</time>
      </trkpt>
      <trkpt lat="42.92622" lon="0.19524">
        <ele>1368</ele>
        <time>2019-06-23T08:04:50.034Z</time>
      </trkpt>
      <trkpt lat="42.92622" lon="0.19524">
        <ele>1367</ele>
        <time>2019-06-23T08:04:51.034Z</time>
      </trkpt>
      <trkpt lat="42.92622" lon="0.19523">
        <ele>1367</ele>
        <time>2019-06-23T08:04:52.034Z</time>
      </trkpt>
      <trkpt lat="42.92622" lon="0.19522">
        <ele>1368</ele>
        <time>2019-06-23T08:04:53.034Z</time>
      </trkpt>
      <trkpt lat="42.92622" lon="0.19522">
        <ele>1368</ele>
        <time>2019-06-23T08:04:54.034Z</time>
      </trkpt>
      <trkpt lat="42.92622" lon="0.19521">
        <ele>1367</ele>
        <time>2019-06-23T08:04:55.034Z</time>
      </trkpt>
      <trkpt lat="42.92622" lon="0.1952">
        <ele>1368</ele>
        <time>2019-06-23T08:04:56.034Z</time>
      </trkpt>
      <trkpt lat="42.92622" lon="0.1952">
        <ele>1368</ele>
        <time>2019-06-23T08:04:57.034Z</time>
      </trkpt>
      <trkpt lat="42.92623" lon="0.19519">
        <ele>1367</ele>
        <time>2019-06-23T08:04:58.034Z</time>
      </trkpt>
      <trkpt lat="42.92623" lon="0.19519">
        <ele>1368</ele>
        <time>2019-06-23T08:04:59.034Z</time>
      </trkpt>
      <trkpt lat="42.92623" lon="0.19518">
        <ele>1368</ele>
        <time>2019-06-23T08:05:00.034Z</time>
      </trkpt>
      <trkpt lat="42.92623" lon="0.19518">
        <ele>1369</ele>
        <time>2019-06-23T08:05:01.034Z</time>
      </trkpt>
      <trkpt lat="42.92622" lon="0.19517">
        <ele>1369</ele>
        <time>2019-06-23T08:05:02.034Z</time>
      </trkpt>
      <trkpt lat="42.92622" lon="0.19517">
        <ele>1370</ele>
        <time>2019-06-23T08:05:03.034Z</time>
      </trkpt>
      <trkpt lat="42.92622" lon="0.19516">
        <ele>1370</ele>
        <time>2019-06-23T08:05:04.034Z</time>
      </trkpt>
      <trkpt lat="42.92622" lon="0.19516">
        <ele>1371</ele>
        <time>2019-06-23T08:05:05.034Z</time>
      </trkpt>
      <trkpt lat="42.92623" lon="0.19515">
        <ele>1371</ele>
        <time>2019-06-23T08:05:06.034Z</time>
      </trkpt>
      <trkpt lat="42.92623" lon="0.19515">
        <ele>1371</ele>
        <time>2019-06-23T08:05:07.034Z</time>
      </trkpt>
      <trkpt lat="42.92623" lon="0.19515">
        <ele>1373</ele>
        <time>2019-06-23T08:05:08.034Z</time>
      </trkpt>
      <trkpt lat="42.92623" lon="0.19514">
        <ele>1373</ele>
        <time>2019-06-23T08:05:09.034Z</time>
      </trkpt>
      <trkpt lat="42.92623" lon="0.19514">
        <ele>1373</ele>
        <time>2019-06-23T08:05:10.034Z</time>
      </trkpt>
      <trkpt lat="42.92623" lon="0.19513">
        <ele>1373</ele>
        <time>2019-06-23T08:05:11.034Z</time>
      </trkpt>
      <trkpt lat="42.92623" lon="0.19513">
        <ele>1373</ele>
        <time>2019-06-23T08:05:12.034Z</time>
      </trkpt>
      <trkpt lat="42.92624" lon="0.19512">
        <ele>1374</ele>
        <time>2019-06-23T08:05:13.034Z</time>
      </trkpt>
      <trkpt lat="42.92624" lon="0.19512">
        <ele>1374</ele>
        <time>2019-06-23T08:05:14.034Z</time>
      </trkpt>
      <trkpt lat="42.92623" lon="0.19512">
        <ele>1374</ele>
        <time>2019-06-23T08:05:15.034Z</time>
      </trkpt>
      <trkpt lat="42.92624" lon="0.19511">
        <ele>1375</ele>
        <time>2019-06-23T08:05:16.034Z</time>
      </trkpt>
      <trkpt lat="42.92624" lon="0.19511">
        <ele>1376</ele>
        <time>2019-06-23T08:05:17.034Z</time>
      </trkpt>
      <trkpt lat="42.92624" lon="0.19511">
        <ele>1376</ele>
        <time>2019-06-23T08:05:18.034Z</time>
      </trkpt>
      <trkpt lat="42.92624" lon="0.19511">
        <ele>1376</ele>
        <time>2019-06-23T08:05:19.034Z</time>
      </trkpt>
      <trkpt lat="42.92625" lon="0.19501">
        <ele>1374</ele>
        <time>2019-06-23T08:05:20.042Z</time>
      </trkpt>
      <trkpt lat="42.92626" lon="0.195">
        <ele>1374</ele>
        <time>2019-06-23T08:05:21.042Z</time>
      </trkpt>
      <trkpt lat="42.92626" lon="0.195">
        <ele>1374</ele>
        <time>2019-06-23T08:05:22.042Z</time>
      </trkpt>
      <trkpt lat="42.92626" lon="0.19499">
        <ele>1374</ele>
        <time>2019-06-23T08:05:23.042Z</time>
      </trkpt>
      <trkpt lat="42.92626" lon="0.19499">
        <ele>1375</ele>
        <time>2019-06-23T08:05:24.042Z</time>
      </trkpt>
      <trkpt lat="42.92626" lon="0.19499">
        <ele>1375</ele>
        <time>2019-06-23T08:05:25.042Z</time>
      </trkpt>
      <trkpt lat="42.92626" lon="0.19498">
        <ele>1375</ele>
        <time>2019-06-23T08:05:26.042Z</time>
      </trkpt>
      <trkpt lat="42.92626" lon="0.19497">
        <ele>1375</ele>
        <time>2019-06-23T08:05:27.042Z</time>
      </trkpt>
      <trkpt lat="42.92626" lon="0.19497">
        <ele>1374</ele>
        <time>2019-06-23T08:05:28.042Z</time>
      </trkpt>
      <trkpt lat="42.92626" lon="0.19496">
        <ele>1375</ele>
        <time>2019-06-23T08:05:29.042Z</time>
      </trkpt>
      <trkpt lat="42.92626" lon="0.19496">
        <ele>1375</ele>
        <time>2019-06-23T08:05:30.042Z</time>
      </trkpt>
      <trkpt lat="42.92625" lon="0.19495">
        <ele>1374</ele>
        <time>2019-06-23T08:05:31.042Z</time>
      </trkpt>
      <trkpt lat="42.92625" lon="0.19495">
        <ele>1375</ele>
        <time>2019-06-23T08:05:32.042Z</time>
      </trkpt>
      <trkpt lat="42.92625" lon="0.19495">
        <ele>1375</ele>
        <time>2019-06-23T08:05:33.042Z</time>
      </trkpt>
      <trkpt lat="42.92625" lon="0.19494">
        <ele>1374</ele>
        <time>2019-06-23T08:05:34.042Z</time>
      </trkpt>
      <trkpt lat="42.92625" lon="0.19494">
        <ele>1375</ele>
        <time>2019-06-23T08:05:35.042Z</time>
      </trkpt>
      <trkpt lat="42.92625" lon="0.19493">
        <ele>1375</ele>
        <time>2019-06-23T08:05:36.042Z</time>
      </trkpt>
      <trkpt lat="42.92625" lon="0.19493">
        <ele>1374</ele>
        <time>2019-06-23T08:05:37.042Z</time>
      </trkpt>
      <trkpt lat="42.92626" lon="0.19492">
        <ele>1374</ele>
        <time>2019-06-23T08:05:38.042Z</time>
      </trkpt>
      <trkpt lat="42.92626" lon="0.19492">
        <ele>1374</ele>
        <time>2019-06-23T08:05:39.042Z</time>
      </trkpt>
      <trkpt lat="42.92626" lon="0.19491">
        <ele>1374</ele>
        <time>2019-06-23T08:05:40.042Z</time>
      </trkpt>
      <trkpt lat="42.92626" lon="0.19491">
        <ele>1374</ele>
        <time>2019-06-23T08:05:41.042Z</time>
      </trkpt>
      <trkpt lat="42.92626" lon="0.1949">
        <ele>1374</ele>
        <time>2019-06-23T08:05:42.042Z</time>
      </trkpt>
      <trkpt lat="42.92626" lon="0.19489">
        <ele>1374</ele>
        <time>2019-06-23T08:05:43.042Z</time>
      </trkpt>
      <trkpt lat="42.92626" lon="0.19489">
        <ele>1374</ele>
        <time>2019-06-23T08:05:44.042Z</time>
      </trkpt>
      <trkpt lat="42.92626" lon="0.19488">
        <ele>1374</ele>
        <time>2019-06-23T08:05:45.042Z</time>
      </trkpt>
      <trkpt lat="42.92626" lon="0.19488">
        <ele>1374</ele>
        <time>2019-06-23T08:05:46.042Z</time>
      </trkpt>
      <trkpt lat="42.92626" lon="0.19487">
        <ele>1374</ele>
        <time>2019-06-23T08:05:47.042Z</time>
      </trkpt>
      <trkpt lat="42.92627" lon="0.19486">
        <ele>1374</ele>
        <time>2019-06-23T08:05:48.042Z</time>
      </trkpt>
      <trkpt lat="42.92627" lon="0.19486">
        <ele>1374</ele>
        <time>2019-06-23T08:05:49.042Z</time>
      </trkpt>
      <trkpt lat="42.92627" lon="0.19485">
        <ele>1374</ele>
        <time>2019-06-23T08:05:50.042Z</time>
      </trkpt>
      <trkpt lat="42.92627" lon="0.19485">
        <ele>1375</ele>
        <time>2019-06-23T08:05:51.042Z</time>
      </trkpt>
      <trkpt lat="42.92626" lon="0.19482">
        <ele>1375</ele>
        <time>2019-06-23T08:05:52.050Z</time>
      </trkpt>
      <trkpt lat="42.92626" lon="0.19481">
        <ele>1375</ele>
        <time>2019-06-23T08:05:53.050Z</time>
      </trkpt>
      <trkpt lat="42.92626" lon="0.1948">
        <ele>1375</ele>
        <time>2019-06-23T08:05:54.050Z</time>
      </trkpt>
      <trkpt lat="42.92626" lon="0.1948">
        <ele>1376</ele>
        <time>2019-06-23T08:05:55.050Z</time>
      </trkpt>
      <trkpt lat="42.92626" lon="0.19479">
        <ele>1376</ele>
        <time>2019-06-23T08:05:56.050Z</time>
      </trkpt>
      <trkpt lat="42.92626" lon="0.19479">
        <ele>1376</ele>
        <time>2019-06-23T08:05:57.050Z</time>
      </trkpt>
      <trkpt lat="42.92626" lon="0.19479">
        <ele>1377</ele>
        <time>2019-06-23T08:05:58.050Z</time>
      </trkpt>
      <trkpt lat="42.92628" lon="0.19472">
        <ele>1379</ele>
        <time>2019-06-23T08:05:59.065Z</time>
      </trkpt>
      <trkpt lat="42.92628" lon="0.19472">
        <ele>1379</ele>
        <time>2019-06-23T08:06:00.065Z</time>
      </trkpt>
      <trkpt lat="42.92628" lon="0.19471">
        <ele>1379</ele>
        <time>2019-06-23T08:06:01.065Z</time>
      </trkpt>
      <trkpt lat="42.92628" lon="0.19471">
        <ele>1379</ele>
        <time>2019-06-23T08:06:02.065Z</time>
      </trkpt>
      <trkpt lat="42.92628" lon="0.1947">
        <ele>1379</ele>
        <time>2019-06-23T08:06:03.065Z</time>
      </trkpt>
      <trkpt lat="42.92628" lon="0.1947">
        <ele>1378</ele>
        <time>2019-06-23T08:06:04.065Z</time>
      </trkpt>
      <trkpt lat="42.92628" lon="0.19469">
        <ele>1380</ele>
        <time>2019-06-23T08:06:05.065Z</time>
      </trkpt>
      <trkpt lat="42.92628" lon="0.19469">
        <ele>1380</ele>
        <time>2019-06-23T08:06:06.065Z</time>
      </trkpt>
      <trkpt lat="42.92628" lon="0.19468">
        <ele>1379</ele>
        <time>2019-06-23T08:06:07.065Z</time>
      </trkpt>
      <trkpt lat="42.92627" lon="0.19468">
        <ele>1380</ele>
        <time>2019-06-23T08:06:08.065Z</time>
      </trkpt>
      <trkpt lat="42.92627" lon="0.19467">
        <ele>1380</ele>
        <time>2019-06-23T08:06:09.065Z</time>
      </trkpt>
      <trkpt lat="42.92627" lon="0.19467">
        <ele>1380</ele>
        <time>2019-06-23T08:06:10.065Z</time>
      </trkpt>
      <trkpt lat="42.92627" lon="0.19467">
        <ele>1380</ele>
        <time>2019-06-23T08:06:11.065Z</time>
      </trkpt>
      <trkpt lat="42.92626" lon="0.19466">
        <ele>1381</ele>
        <time>2019-06-23T08:06:12.065Z</time>
      </trkpt>
      <trkpt lat="42.92626" lon="0.19466">
        <ele>1380</ele>
        <time>2019-06-23T08:06:13.065Z</time>
      </trkpt>
      <trkpt lat="42.92626" lon="0.19466">
        <ele>1380</ele>
        <time>2019-06-23T08:06:14.065Z</time>
      </trkpt>
      <trkpt lat="42.92626" lon="0.19465">
        <ele>1380</ele>
        <time>2019-06-23T08:06:15.065Z</time>
      </trkpt>
      <trkpt lat="42.92627" lon="0.19453">
        <ele>1382</ele>
        <time>2019-06-23T08:06:16.073Z</time>
      </trkpt>
      <trkpt lat="42.92627" lon="0.19453">
        <ele>1382</ele>
        <time>2019-06-23T08:06:17.073Z</time>
      </trkpt>
      <trkpt lat="42.92627" lon="0.19452">
        <ele>1382</ele>
        <time>2019-06-23T08:06:18.073Z</time>
      </trkpt>
      <trkpt lat="42.92627" lon="0.19452">
        <ele>1382</ele>
        <time>2019-06-23T08:06:19.073Z</time>
      </trkpt>
      <trkpt lat="42.92627" lon="0.19451">
        <ele>1382</ele>
        <time>2019-06-23T08:06:20.073Z</time>
      </trkpt>
      <trkpt lat="42.92627" lon="0.1945">
        <ele>1382</ele>
        <time>2019-06-23T08:06:21.073Z</time>
      </trkpt>
      <trkpt lat="42.92627" lon="0.19449">
        <ele>1383</ele>
        <time>2019-06-23T08:06:22.073Z</time>
      </trkpt>
      <trkpt lat="42.92626" lon="0.19449">
        <ele>1383</ele>
        <time>2019-06-23T08:06:23.073Z</time>
      </trkpt>
      <trkpt lat="42.92626" lon="0.19449">
        <ele>1383</ele>
        <time>2019-06-23T08:06:24.073Z</time>
      </trkpt>
      <trkpt lat="42.92626" lon="0.19448">
        <ele>1383</ele>
        <time>2019-06-23T08:06:25.073Z</time>
      </trkpt>
      <trkpt lat="42.92626" lon="0.19448">
        <ele>1383</ele>
        <time>2019-06-23T08:06:26.073Z</time>
      </trkpt>
      <trkpt lat="42.92625" lon="0.19447">
        <ele>1383</ele>
        <time>2019-06-23T08:06:27.073Z</time>
      </trkpt>
      <trkpt lat="42.92625" lon="0.19447">
        <ele>1383</ele>
        <time>2019-06-23T08:06:28.073Z</time>
      </trkpt>
      <trkpt lat="42.92625" lon="0.19446">
        <ele>1383</ele>
        <time>2019-06-23T08:06:29.073Z</time>
      </trkpt>
      <trkpt lat="42.92626" lon="0.19445">
        <ele>1383</ele>
        <time>2019-06-23T08:06:30.073Z</time>
      </trkpt>
      <trkpt lat="42.92626" lon="0.19444">
        <ele>1383</ele>
        <time>2019-06-23T08:06:31.073Z</time>
      </trkpt>
      <trkpt lat="42.92626" lon="0.19444">
        <ele>1383</ele>
        <time>2019-06-23T08:06:32.073Z</time>
      </trkpt>
      <trkpt lat="42.92626" lon="0.19443">
        <ele>1384</ele>
        <time>2019-06-23T08:06:33.073Z</time>
      </trkpt>
      <trkpt lat="42.92625" lon="0.19443">
        <ele>1384</ele>
        <time>2019-06-23T08:06:34.073Z</time>
      </trkpt>
      <trkpt lat="42.92625" lon="0.19443">
        <ele>1384</ele>
        <time>2019-06-23T08:06:35.073Z</time>
      </trkpt>
      <trkpt lat="42.92625" lon="0.19442">
        <ele>1384</ele>
        <time>2019-06-23T08:06:36.073Z</time>
      </trkpt>
      <trkpt lat="42.92625" lon="0.19442">
        <ele>1385</ele>
        <time>2019-06-23T08:06:37.073Z</time>
      </trkpt>
      <trkpt lat="42.92625" lon="0.19437">
        <ele>1382</ele>
        <time>2019-06-23T08:06:38.088Z</time>
      </trkpt>
      <trkpt lat="42.92626" lon="0.19436">
        <ele>1382</ele>
        <time>2019-06-23T08:06:39.088Z</time>
      </trkpt>
      <trkpt lat="42.92626" lon="0.19436">
        <ele>1382</ele>
        <time>2019-06-23T08:06:40.088Z</time>
      </trkpt>
      <trkpt lat="42.92626" lon="0.19435">
        <ele>1382</ele>
        <time>2019-06-23T08:06:41.088Z</time>
      </trkpt>
      <trkpt lat="42.92626" lon="0.19435">
        <ele>1382</ele>
        <time>2019-06-23T08:06:42.088Z</time>
      </trkpt>
      <trkpt lat="42.92626" lon="0.19434">
        <ele>1382</ele>
        <time>2019-06-23T08:06:43.088Z</time>
      </trkpt>
      <trkpt lat="42.92626" lon="0.19434">
        <ele>1382</ele>
        <time>2019-06-23T08:06:44.088Z</time>
      </trkpt>
      <trkpt lat="42.92626" lon="0.19433">
        <ele>1382</ele>
        <time>2019-06-23T08:06:45.088Z</time>
      </trkpt>
      <trkpt lat="42.92626" lon="0.19433">
        <ele>1382</ele>
        <time>2019-06-23T08:06:46.088Z</time>
      </trkpt>
      <trkpt lat="42.92626" lon="0.19432">
        <ele>1382</ele>
        <time>2019-06-23T08:06:47.088Z</time>
      </trkpt>
      <trkpt lat="42.92626" lon="0.19431">
        <ele>1382</ele>
        <time>2019-06-23T08:06:48.088Z</time>
      </trkpt>
      <trkpt lat="42.92626" lon="0.19431">
        <ele>1383</ele>
        <time>2019-06-23T08:06:49.088Z</time>
      </trkpt>
      <trkpt lat="42.92626" lon="0.1943">
        <ele>1383</ele>
        <time>2019-06-23T08:06:50.088Z</time>
      </trkpt>
      <trkpt lat="42.92626" lon="0.19429">
        <ele>1383</ele>
        <time>2019-06-23T08:06:51.088Z</time>
      </trkpt>
      <trkpt lat="42.92626" lon="0.19429">
        <ele>1383</ele>
        <time>2019-06-23T08:06:52.088Z</time>
      </trkpt>
      <trkpt lat="42.92626" lon="0.19428">
        <ele>1383</ele>
        <time>2019-06-23T08:06:53.088Z</time>
      </trkpt>
      <trkpt lat="42.92626" lon="0.19427">
        <ele>1384</ele>
        <time>2019-06-23T08:06:54.088Z</time>
      </trkpt>
      <trkpt lat="42.92626" lon="0.19427">
        <ele>1384</ele>
        <time>2019-06-23T08:06:55.088Z</time>
      </trkpt>
      <trkpt lat="42.92627" lon="0.19426">
        <ele>1384</ele>
        <time>2019-06-23T08:06:56.088Z</time>
      </trkpt>
      <trkpt lat="42.92626" lon="0.19425">
        <ele>1384</ele>
        <time>2019-06-23T08:06:57.088Z</time>
      </trkpt>
      <trkpt lat="42.92626" lon="0.19424">
        <ele>1386</ele>
        <time>2019-06-23T08:06:58.088Z</time>
      </trkpt>
      <trkpt lat="42.92626" lon="0.19424">
        <ele>1386</ele>
        <time>2019-06-23T08:06:59.088Z</time>
      </trkpt>
      <trkpt lat="42.92625" lon="0.19423">
        <ele>1385</ele>
        <time>2019-06-23T08:07:00.088Z</time>
      </trkpt>
      <trkpt lat="42.92626" lon="0.19422">
        <ele>1385</ele>
        <time>2019-06-23T08:07:01.088Z</time>
      </trkpt>
      <trkpt lat="42.92626" lon="0.19421">
        <ele>1384</ele>
        <time>2019-06-23T08:07:02.088Z</time>
      </trkpt>
      <trkpt lat="42.92626" lon="0.1942">
        <ele>1384</ele>
        <time>2019-06-23T08:07:03.088Z</time>
      </trkpt>
      <trkpt lat="42.92626" lon="0.19419">
        <ele>1384</ele>
        <time>2019-06-23T08:07:04.088Z</time>
      </trkpt>
      <trkpt lat="42.92626" lon="0.19419">
        <ele>1384</ele>
        <time>2019-06-23T08:07:05.088Z</time>
      </trkpt>
      <trkpt lat="42.92626" lon="0.19418">
        <ele>1384</ele>
        <time>2019-06-23T08:07:06.088Z</time>
      </trkpt>
      <trkpt lat="42.92625" lon="0.19417">
        <ele>1384</ele>
        <time>2019-06-23T08:07:07.088Z</time>
      </trkpt>
      <trkpt lat="42.92625" lon="0.19416">
        <ele>1384</ele>
        <time>2019-06-23T08:07:08.088Z</time>
      </trkpt>
      <trkpt lat="42.92625" lon="0.19416">
        <ele>1384</ele>
        <time>2019-06-23T08:07:09.088Z</time>
      </trkpt>
      <trkpt lat="42.92625" lon="0.19415">
        <ele>1384</ele>
        <time>2019-06-23T08:07:10.088Z</time>
      </trkpt>
      <trkpt lat="42.92625" lon="0.19414">
        <ele>1384</ele>
        <time>2019-06-23T08:07:11.088Z</time>
      </trkpt>
      <trkpt lat="42.92625" lon="0.19414">
        <ele>1385</ele>
        <time>2019-06-23T08:07:12.088Z</time>
      </trkpt>
      <trkpt lat="42.92625" lon="0.19413">
        <ele>1385</ele>
        <time>2019-06-23T08:07:13.088Z</time>
      </trkpt>
      <trkpt lat="42.92624" lon="0.19413">
        <ele>1385</ele>
        <time>2019-06-23T08:07:14.088Z</time>
      </trkpt>
      <trkpt lat="42.92624" lon="0.19412">
        <ele>1386</ele>
        <time>2019-06-23T08:07:15.088Z</time>
      </trkpt>
      <trkpt lat="42.92624" lon="0.19412">
        <ele>1387</ele>
        <time>2019-06-23T08:07:16.088Z</time>
      </trkpt>
      <trkpt lat="42.92624" lon="0.19411">
        <ele>1387</ele>
        <time>2019-06-23T08:07:17.088Z</time>
      </trkpt>
      <trkpt lat="42.92624" lon="0.19411">
        <ele>1387</ele>
        <time>2019-06-23T08:07:18.088Z</time>
      </trkpt>
      <trkpt lat="42.92624" lon="0.1941">
        <ele>1388</ele>
        <time>2019-06-23T08:07:19.088Z</time>
      </trkpt>
      <trkpt lat="42.92624" lon="0.1941">
        <ele>1387</ele>
        <time>2019-06-23T08:07:20.088Z</time>
      </trkpt>
      <trkpt lat="42.92624" lon="0.19409">
        <ele>1387</ele>
        <time>2019-06-23T08:07:21.088Z</time>
      </trkpt>
      <trkpt lat="42.92624" lon="0.19409">
        <ele>1388</ele>
        <time>2019-06-23T08:07:22.088Z</time>
      </trkpt>
      <trkpt lat="42.92624" lon="0.19408">
        <ele>1387</ele>
        <time>2019-06-23T08:07:23.088Z</time>
      </trkpt>
      <trkpt lat="42.92624" lon="0.19408">
        <ele>1387</ele>
        <time>2019-06-23T08:07:24.088Z</time>
      </trkpt>
      <trkpt lat="42.92623" lon="0.19407">
        <ele>1387</ele>
        <time>2019-06-23T08:07:25.088Z</time>
      </trkpt>
      <trkpt lat="42.92623" lon="0.19407">
        <ele>1388</ele>
        <time>2019-06-23T08:07:26.088Z</time>
      </trkpt>
      <trkpt lat="42.92623" lon="0.19406">
        <ele>1388</ele>
        <time>2019-06-23T08:07:27.088Z</time>
      </trkpt>
      <trkpt lat="42.92623" lon="0.19406">
        <ele>1388</ele>
        <time>2019-06-23T08:07:28.088Z</time>
      </trkpt>
      <trkpt lat="42.92623" lon="0.19405">
        <ele>1389</ele>
        <time>2019-06-23T08:07:29.088Z</time>
      </trkpt>
      <trkpt lat="42.92623" lon="0.19405">
        <ele>1388</ele>
        <time>2019-06-23T08:07:30.088Z</time>
      </trkpt>
      <trkpt lat="42.92623" lon="0.19404">
        <ele>1388</ele>
        <time>2019-06-23T08:07:31.088Z</time>
      </trkpt>
      <trkpt lat="42.92623" lon="0.19403">
        <ele>1388</ele>
        <time>2019-06-23T08:07:32.088Z</time>
      </trkpt>
      <trkpt lat="42.92623" lon="0.19403">
        <ele>1388</ele>
        <time>2019-06-23T08:07:33.088Z</time>
      </trkpt>
      <trkpt lat="42.92623" lon="0.19402">
        <ele>1388</ele>
        <time>2019-06-23T08:07:34.088Z</time>
      </trkpt>
      <trkpt lat="42.92622" lon="0.19402">
        <ele>1389</ele>
        <time>2019-06-23T08:07:35.088Z</time>
      </trkpt>
      <trkpt lat="42.92622" lon="0.19401">
        <ele>1389</ele>
        <time>2019-06-23T08:07:36.088Z</time>
      </trkpt>
      <trkpt lat="42.92622" lon="0.194">
        <ele>1389</ele>
        <time>2019-06-23T08:07:37.088Z</time>
      </trkpt>
      <trkpt lat="42.92622" lon="0.194">
        <ele>1389</ele>
        <time>2019-06-23T08:07:38.088Z</time>
      </trkpt>
      <trkpt lat="42.92622" lon="0.19399">
        <ele>1389</ele>
        <time>2019-06-23T08:07:39.088Z</time>
      </trkpt>
      <trkpt lat="42.92622" lon="0.19398">
        <ele>1388</ele>
        <time>2019-06-23T08:07:40.088Z</time>
      </trkpt>
      <trkpt lat="42.92622" lon="0.19397">
        <ele>1388</ele>
        <time>2019-06-23T08:07:41.088Z</time>
      </trkpt>
      <trkpt lat="42.92622" lon="0.19397">
        <ele>1388</ele>
        <time>2019-06-23T08:07:42.088Z</time>
      </trkpt>
      <trkpt lat="42.92622" lon="0.19396">
        <ele>1388</ele>
        <time>2019-06-23T08:07:43.088Z</time>
      </trkpt>
      <trkpt lat="42.92622" lon="0.19396">
        <ele>1388</ele>
        <time>2019-06-23T08:07:44.088Z</time>
      </trkpt>
      <trkpt lat="42.92621" lon="0.19395">
        <ele>1388</ele>
        <time>2019-06-23T08:07:45.088Z</time>
      </trkpt>
      <trkpt lat="42.92621" lon="0.19395">
        <ele>1388</ele>
        <time>2019-06-23T08:07:46.088Z</time>
      </trkpt>
      <trkpt lat="42.92621" lon="0.19394">
        <ele>1388</ele>
        <time>2019-06-23T08:07:47.088Z</time>
      </trkpt>
      <trkpt lat="42.9262" lon="0.19393">
        <ele>1389</ele>
        <time>2019-06-23T08:07:48.088Z</time>
      </trkpt>
      <trkpt lat="42.9262" lon="0.19393">
        <ele>1388</ele>
        <time>2019-06-23T08:07:49.088Z</time>
      </trkpt>
      <trkpt lat="42.92619" lon="0.19392">
        <ele>1389</ele>
        <time>2019-06-23T08:07:50.088Z</time>
      </trkpt>
      <trkpt lat="42.92619" lon="0.19392">
        <ele>1389</ele>
        <time>2019-06-23T08:07:51.088Z</time>
      </trkpt>
      <trkpt lat="42.92619" lon="0.19392">
        <ele>1390</ele>
        <time>2019-06-23T08:07:52.088Z</time>
      </trkpt>
      <trkpt lat="42.92619" lon="0.19391">
        <ele>1390</ele>
        <time>2019-06-23T08:07:53.088Z</time>
      </trkpt>
      <trkpt lat="42.92619" lon="0.1939">
        <ele>1390</ele>
        <time>2019-06-23T08:07:54.088Z</time>
      </trkpt>
      <trkpt lat="42.92619" lon="0.1939">
        <ele>1391</ele>
        <time>2019-06-23T08:07:55.088Z</time>
      </trkpt>
      <trkpt lat="42.92619" lon="0.1939">
        <ele>1391</ele>
        <time>2019-06-23T08:07:56.088Z</time>
      </trkpt>
      <trkpt lat="42.92618" lon="0.19389">
        <ele>1391</ele>
        <time>2019-06-23T08:07:57.088Z</time>
      </trkpt>
      <trkpt lat="42.92619" lon="0.19384">
        <ele>1390</ele>
        <time>2019-06-23T08:07:58.099Z</time>
      </trkpt>
      <trkpt lat="42.92619" lon="0.19383">
        <ele>1389</ele>
        <time>2019-06-23T08:07:59.099Z</time>
      </trkpt>
      <trkpt lat="42.92619" lon="0.19382">
        <ele>1390</ele>
        <time>2019-06-23T08:08:00.099Z</time>
      </trkpt>
      <trkpt lat="42.92619" lon="0.19382">
        <ele>1391</ele>
        <time>2019-06-23T08:08:01.099Z</time>
      </trkpt>
      <trkpt lat="42.92619" lon="0.19381">
        <ele>1391</ele>
        <time>2019-06-23T08:08:02.099Z</time>
      </trkpt>
      <trkpt lat="42.92619" lon="0.19381">
        <ele>1391</ele>
        <time>2019-06-23T08:08:03.099Z</time>
      </trkpt>
      <trkpt lat="42.92619" lon="0.1938">
        <ele>1392</ele>
        <time>2019-06-23T08:08:04.099Z</time>
      </trkpt>
      <trkpt lat="42.92619" lon="0.19379">
        <ele>1392</ele>
        <time>2019-06-23T08:08:05.099Z</time>
      </trkpt>
      <trkpt lat="42.92619" lon="0.19379">
        <ele>1392</ele>
        <time>2019-06-23T08:08:06.099Z</time>
      </trkpt>
      <trkpt lat="42.92619" lon="0.19378">
        <ele>1392</ele>
        <time>2019-06-23T08:08:07.099Z</time>
      </trkpt>
      <trkpt lat="42.92619" lon="0.19377">
        <ele>1392</ele>
        <time>2019-06-23T08:08:08.099Z</time>
      </trkpt>
      <trkpt lat="42.92619" lon="0.19377">
        <ele>1392</ele>
        <time>2019-06-23T08:08:09.099Z</time>
      </trkpt>
      <trkpt lat="42.92619" lon="0.19376">
        <ele>1392</ele>
        <time>2019-06-23T08:08:10.099Z</time>
      </trkpt>
      <trkpt lat="42.92619" lon="0.19375">
        <ele>1392</ele>
        <time>2019-06-23T08:08:11.099Z</time>
      </trkpt>
      <trkpt lat="42.92619" lon="0.19375">
        <ele>1392</ele>
        <time>2019-06-23T08:08:12.099Z</time>
      </trkpt>
      <trkpt lat="42.92619" lon="0.19374">
        <ele>1392</ele>
        <time>2019-06-23T08:08:13.099Z</time>
      </trkpt>
      <trkpt lat="42.92618" lon="0.19374">
        <ele>1392</ele>
        <time>2019-06-23T08:08:14.099Z</time>
      </trkpt>
      <trkpt lat="42.92618" lon="0.19373">
        <ele>1392</ele>
        <time>2019-06-23T08:08:15.099Z</time>
      </trkpt>
      <trkpt lat="42.92618" lon="0.19373">
        <ele>1392</ele>
        <time>2019-06-23T08:08:16.099Z</time>
      </trkpt>
      <trkpt lat="42.92618" lon="0.19372">
        <ele>1392</ele>
        <time>2019-06-23T08:08:17.099Z</time>
      </trkpt>
      <trkpt lat="42.92618" lon="0.19372">
        <ele>1391</ele>
        <time>2019-06-23T08:08:18.099Z</time>
      </trkpt>
      <trkpt lat="42.92618" lon="0.19371">
        <ele>1391</ele>
        <time>2019-06-23T08:08:19.099Z</time>
      </trkpt>
      <trkpt lat="42.92618" lon="0.1937">
        <ele>1391</ele>
        <time>2019-06-23T08:08:20.099Z</time>
      </trkpt>
      <trkpt lat="42.92618" lon="0.19369">
        <ele>1391</ele>
        <time>2019-06-23T08:08:21.099Z</time>
      </trkpt>
      <trkpt lat="42.92618" lon="0.19369">
        <ele>1390</ele>
        <time>2019-06-23T08:08:22.099Z</time>
      </trkpt>
      <trkpt lat="42.92618" lon="0.19368">
        <ele>1390</ele>
        <time>2019-06-23T08:08:23.099Z</time>
      </trkpt>
      <trkpt lat="42.92618" lon="0.19367">
        <ele>1390</ele>
        <time>2019-06-23T08:08:24.099Z</time>
      </trkpt>
      <trkpt lat="42.92618" lon="0.19366">
        <ele>1390</ele>
        <time>2019-06-23T08:08:25.099Z</time>
      </trkpt>
      <trkpt lat="42.92617" lon="0.19365">
        <ele>1392</ele>
        <time>2019-06-23T08:08:26.099Z</time>
      </trkpt>
      <trkpt lat="42.92617" lon="0.19364">
        <ele>1392</ele>
        <time>2019-06-23T08:08:27.099Z</time>
      </trkpt>
      <trkpt lat="42.92617" lon="0.19364">
        <ele>1392</ele>
        <time>2019-06-23T08:08:28.099Z</time>
      </trkpt>
      <trkpt lat="42.92617" lon="0.19363">
        <ele>1392</ele>
        <time>2019-06-23T08:08:29.099Z</time>
      </trkpt>
      <trkpt lat="42.92617" lon="0.19362">
        <ele>1392</ele>
        <time>2019-06-23T08:08:30.099Z</time>
      </trkpt>
      <trkpt lat="42.92617" lon="0.19362">
        <ele>1393</ele>
        <time>2019-06-23T08:08:31.099Z</time>
      </trkpt>
      <trkpt lat="42.92616" lon="0.19361">
        <ele>1394</ele>
        <time>2019-06-23T08:08:32.099Z</time>
      </trkpt>
      <trkpt lat="42.92615" lon="0.19361">
        <ele>1394</ele>
        <time>2019-06-23T08:08:33.099Z</time>
      </trkpt>
      <trkpt lat="42.92615" lon="0.1936">
        <ele>1395</ele>
        <time>2019-06-23T08:08:34.099Z</time>
      </trkpt>
      <trkpt lat="42.92614" lon="0.1936">
        <ele>1395</ele>
        <time>2019-06-23T08:08:35.099Z</time>
      </trkpt>
      <trkpt lat="42.92613" lon="0.19359">
        <ele>1396</ele>
        <time>2019-06-23T08:08:36.099Z</time>
      </trkpt>
      <trkpt lat="42.92613" lon="0.19359">
        <ele>1396</ele>
        <time>2019-06-23T08:08:37.099Z</time>
      </trkpt>
      <trkpt lat="42.92612" lon="0.19359">
        <ele>1396</ele>
        <time>2019-06-23T08:08:38.099Z</time>
      </trkpt>
      <trkpt lat="42.92612" lon="0.19359">
        <ele>1397</ele>
        <time>2019-06-23T08:08:39.099Z</time>
      </trkpt>
      <trkpt lat="42.92612" lon="0.19359">
        <ele>1397</ele>
        <time>2019-06-23T08:08:40.099Z</time>
      </trkpt>
      <trkpt lat="42.92612" lon="0.19359">
        <ele>1397</ele>
        <time>2019-06-23T08:08:41.099Z</time>
      </trkpt>
      <trkpt lat="42.92611" lon="0.19358">
        <ele>1397</ele>
        <time>2019-06-23T08:08:42.099Z</time>
      </trkpt>
      <trkpt lat="42.92611" lon="0.19358">
        <ele>1397</ele>
        <time>2019-06-23T08:08:43.099Z</time>
      </trkpt>
      <trkpt lat="42.92611" lon="0.19358">
        <ele>1397</ele>
        <time>2019-06-23T08:08:44.099Z</time>
      </trkpt>
      <trkpt lat="42.9261" lon="0.19357">
        <ele>1397</ele>
        <time>2019-06-23T08:08:45.099Z</time>
      </trkpt>
      <trkpt lat="42.9261" lon="0.19357">
        <ele>1397</ele>
        <time>2019-06-23T08:08:46.099Z</time>
      </trkpt>
      <trkpt lat="42.9261" lon="0.19356">
        <ele>1398</ele>
        <time>2019-06-23T08:08:47.099Z</time>
      </trkpt>
      <trkpt lat="42.9261" lon="0.19355">
        <ele>1398</ele>
        <time>2019-06-23T08:08:48.099Z</time>
      </trkpt>
      <trkpt lat="42.92609" lon="0.19355">
        <ele>1398</ele>
        <time>2019-06-23T08:08:49.099Z</time>
      </trkpt>
      <trkpt lat="42.92609" lon="0.19354">
        <ele>1398</ele>
        <time>2019-06-23T08:08:50.099Z</time>
      </trkpt>
      <trkpt lat="42.92609" lon="0.19354">
        <ele>1398</ele>
        <time>2019-06-23T08:08:51.099Z</time>
      </trkpt>
      <trkpt lat="42.92608" lon="0.19353">
        <ele>1398</ele>
        <time>2019-06-23T08:08:52.099Z</time>
      </trkpt>
      <trkpt lat="42.92608" lon="0.19353">
        <ele>1399</ele>
        <time>2019-06-23T08:08:53.099Z</time>
      </trkpt>
      <trkpt lat="42.92607" lon="0.19353">
        <ele>1399</ele>
        <time>2019-06-23T08:08:54.099Z</time>
      </trkpt>
      <trkpt lat="42.92607" lon="0.19353">
        <ele>1400</ele>
        <time>2019-06-23T08:08:55.099Z</time>
      </trkpt>
      <trkpt lat="42.92606" lon="0.19353">
        <ele>1400</ele>
        <time>2019-06-23T08:08:56.099Z</time>
      </trkpt>
      <trkpt lat="42.92606" lon="0.19353">
        <ele>1401</ele>
        <time>2019-06-23T08:08:57.099Z</time>
      </trkpt>
      <trkpt lat="42.92604" lon="0.19353">
        <ele>1405</ele>
        <time>2019-06-23T08:08:58.110Z</time>
      </trkpt>
      <trkpt lat="42.92603" lon="0.19353">
        <ele>1405</ele>
        <time>2019-06-23T08:08:59.110Z</time>
      </trkpt>
      <trkpt lat="42.92602" lon="0.19353">
        <ele>1407</ele>
        <time>2019-06-23T08:09:00.110Z</time>
      </trkpt>
      <trkpt lat="42.92602" lon="0.19353">
        <ele>1407</ele>
        <time>2019-06-23T08:09:01.110Z</time>
      </trkpt>
      <trkpt lat="42.92601" lon="0.19354">
        <ele>1408</ele>
        <time>2019-06-23T08:09:02.110Z</time>
      </trkpt>
      <trkpt lat="42.926" lon="0.19354">
        <ele>1408</ele>
        <time>2019-06-23T08:09:03.110Z</time>
      </trkpt>
      <trkpt lat="42.926" lon="0.19354">
        <ele>1408</ele>
        <time>2019-06-23T08:09:04.110Z</time>
      </trkpt>
      <trkpt lat="42.92599" lon="0.19354">
        <ele>1409</ele>
        <time>2019-06-23T08:09:05.110Z</time>
      </trkpt>
      <trkpt lat="42.92599" lon="0.19354">
        <ele>1409</ele>
        <time>2019-06-23T08:09:06.110Z</time>
      </trkpt>
      <trkpt lat="42.92598" lon="0.19354">
        <ele>1408</ele>
        <time>2019-06-23T08:09:07.110Z</time>
      </trkpt>
      <trkpt lat="42.92598" lon="0.19353">
        <ele>1407</ele>
        <time>2019-06-23T08:09:08.110Z</time>
      </trkpt>
      <trkpt lat="42.92598" lon="0.19353">
        <ele>1407</ele>
        <time>2019-06-23T08:09:09.110Z</time>
      </trkpt>
      <trkpt lat="42.92598" lon="0.19352">
        <ele>1406</ele>
        <time>2019-06-23T08:09:10.110Z</time>
      </trkpt>
      <trkpt lat="42.92598" lon="0.19352">
        <ele>1406</ele>
        <time>2019-06-23T08:09:11.110Z</time>
      </trkpt>
      <trkpt lat="42.92598" lon="0.19351">
        <ele>1405</ele>
        <time>2019-06-23T08:09:12.110Z</time>
      </trkpt>
      <trkpt lat="42.92598" lon="0.19351">
        <ele>1405</ele>
        <time>2019-06-23T08:09:13.110Z</time>
      </trkpt>
      <trkpt lat="42.92598" lon="0.19351">
        <ele>1406</ele>
        <time>2019-06-23T08:09:14.110Z</time>
      </trkpt>
      <trkpt lat="42.92598" lon="0.19351">
        <ele>1406</ele>
        <time>2019-06-23T08:09:15.110Z</time>
      </trkpt>
      <trkpt lat="42.92596" lon="0.19349">
        <ele>1406</ele>
        <time>2019-06-23T08:09:16.121Z</time>
      </trkpt>
      <trkpt lat="42.92595" lon="0.19349">
        <ele>1406</ele>
        <time>2019-06-23T08:09:17.121Z</time>
      </trkpt>
      <trkpt lat="42.92595" lon="0.19348">
        <ele>1405</ele>
        <time>2019-06-23T08:09:18.121Z</time>
      </trkpt>
      <trkpt lat="42.92595" lon="0.19348">
        <ele>1405</ele>
        <time>2019-06-23T08:09:19.121Z</time>
      </trkpt>
      <trkpt lat="42.92594" lon="0.19348">
        <ele>1403</ele>
        <time>2019-06-23T08:09:20.121Z</time>
      </trkpt>
      <trkpt lat="42.92594" lon="0.19348">
        <ele>1403</ele>
        <time>2019-06-23T08:09:21.121Z</time>
      </trkpt>
      <trkpt lat="42.92593" lon="0.19348">
        <ele>1403</ele>
        <time>2019-06-23T08:09:22.121Z</time>
      </trkpt>
      <trkpt lat="42.92593" lon="0.19347">
        <ele>1403</ele>
        <time>2019-06-23T08:09:23.121Z</time>
      </trkpt>
      <trkpt lat="42.92592" lon="0.19347">
        <ele>1404</ele>
        <time>2019-06-23T08:09:24.121Z</time>
      </trkpt>
      <trkpt lat="42.92592" lon="0.19346">
        <ele>1404</ele>
        <time>2019-06-23T08:09:25.121Z</time>
      </trkpt>
      <trkpt lat="42.92592" lon="0.19346">
        <ele>1404</ele>
        <time>2019-06-23T08:09:26.121Z</time>
      </trkpt>
      <trkpt lat="42.92592" lon="0.19346">
        <ele>1404</ele>
        <time>2019-06-23T08:09:27.121Z</time>
      </trkpt>
      <trkpt lat="42.92591" lon="0.19345">
        <ele>1404</ele>
        <time>2019-06-23T08:09:28.121Z</time>
      </trkpt>
      <trkpt lat="42.92591" lon="0.19345">
        <ele>1404</ele>
        <time>2019-06-23T08:09:29.121Z</time>
      </trkpt>
      <trkpt lat="42.92591" lon="0.19345">
        <ele>1404</ele>
        <time>2019-06-23T08:09:30.121Z</time>
      </trkpt>
      <trkpt lat="42.92591" lon="0.19344">
        <ele>1404</ele>
        <time>2019-06-23T08:09:31.121Z</time>
      </trkpt>
      <trkpt lat="42.9259" lon="0.19344">
        <ele>1404</ele>
        <time>2019-06-23T08:09:32.121Z</time>
      </trkpt>
      <trkpt lat="42.9259" lon="0.19344">
        <ele>1404</ele>
        <time>2019-06-23T08:09:33.121Z</time>
      </trkpt>
      <trkpt lat="42.9259" lon="0.19344">
        <ele>1404</ele>
        <time>2019-06-23T08:09:34.121Z</time>
      </trkpt>
      <trkpt lat="42.92589" lon="0.19344">
        <ele>1405</ele>
        <time>2019-06-23T08:09:35.121Z</time>
      </trkpt>
      <trkpt lat="42.92589" lon="0.19344">
        <ele>1405</ele>
        <time>2019-06-23T08:09:36.121Z</time>
      </trkpt>
      <trkpt lat="42.92588" lon="0.19344">
        <ele>1405</ele>
        <time>2019-06-23T08:09:37.121Z</time>
      </trkpt>
      <trkpt lat="42.92588" lon="0.19343">
        <ele>1405</ele>
        <time>2019-06-23T08:09:38.121Z</time>
      </trkpt>
      <trkpt lat="42.92587" lon="0.19343">
        <ele>1405</ele>
        <time>2019-06-23T08:09:39.121Z</time>
      </trkpt>
      <trkpt lat="42.92587" lon="0.19343">
        <ele>1406</ele>
        <time>2019-06-23T08:09:40.121Z</time>
      </trkpt>
      <trkpt lat="42.92586" lon="0.19343">
        <ele>1405</ele>
        <time>2019-06-23T08:09:41.121Z</time>
      </trkpt>
      <trkpt lat="42.92586" lon="0.19343">
        <ele>1406</ele>
        <time>2019-06-23T08:09:42.121Z</time>
      </trkpt>
      <trkpt lat="42.92585" lon="0.19343">
        <ele>1406</ele>
        <time>2019-06-23T08:09:43.121Z</time>
      </trkpt>
      <trkpt lat="42.92585" lon="0.19343">
        <ele>1406</ele>
        <time>2019-06-23T08:09:44.121Z</time>
      </trkpt>
      <trkpt lat="42.92585" lon="0.19343">
        <ele>1406</ele>
        <time>2019-06-23T08:09:45.121Z</time>
      </trkpt>
      <trkpt lat="42.92584" lon="0.19342">
        <ele>1406</ele>
        <time>2019-06-23T08:09:46.121Z</time>
      </trkpt>
      <trkpt lat="42.92584" lon="0.19342">
        <ele>1406</ele>
        <time>2019-06-23T08:09:47.121Z</time>
      </trkpt>
      <trkpt lat="42.92583" lon="0.19342">
        <ele>1406</ele>
        <time>2019-06-23T08:09:48.121Z</time>
      </trkpt>
      <trkpt lat="42.92583" lon="0.19342">
        <ele>1406</ele>
        <time>2019-06-23T08:09:49.121Z</time>
      </trkpt>
      <trkpt lat="42.92582" lon="0.19342">
        <ele>1406</ele>
        <time>2019-06-23T08:09:50.121Z</time>
      </trkpt>
      <trkpt lat="42.92582" lon="0.19342">
        <ele>1407</ele>
        <time>2019-06-23T08:09:51.121Z</time>
      </trkpt>
      <trkpt lat="42.92582" lon="0.19342">
        <ele>1407</ele>
        <time>2019-06-23T08:09:52.121Z</time>
      </trkpt>
      <trkpt lat="42.92581" lon="0.19342">
        <ele>1405</ele>
        <time>2019-06-23T08:09:53.121Z</time>
      </trkpt>
      <trkpt lat="42.9258" lon="0.19342">
        <ele>1406</ele>
        <time>2019-06-23T08:09:54.121Z</time>
      </trkpt>
      <trkpt lat="42.92579" lon="0.19341">
        <ele>1407</ele>
        <time>2019-06-23T08:09:55.121Z</time>
      </trkpt>
      <trkpt lat="42.92579" lon="0.19341">
        <ele>1406</ele>
        <time>2019-06-23T08:09:56.121Z</time>
      </trkpt>
      <trkpt lat="42.92578" lon="0.19341">
        <ele>1406</ele>
        <time>2019-06-23T08:09:57.121Z</time>
      </trkpt>
      <trkpt lat="42.92578" lon="0.19341">
        <ele>1405</ele>
        <time>2019-06-23T08:09:58.121Z</time>
      </trkpt>
      <trkpt lat="42.92577" lon="0.19341">
        <ele>1405</ele>
        <time>2019-06-23T08:09:59.121Z</time>
      </trkpt>
      <trkpt lat="42.92577" lon="0.19341">
        <ele>1405</ele>
        <time>2019-06-23T08:10:00.121Z</time>
      </trkpt>
      <trkpt lat="42.92576" lon="0.1934">
        <ele>1405</ele>
        <time>2019-06-23T08:10:01.121Z</time>
      </trkpt>
      <trkpt lat="42.92576" lon="0.1934">
        <ele>1405</ele>
        <time>2019-06-23T08:10:02.121Z</time>
      </trkpt>
      <trkpt lat="42.92576" lon="0.1934">
        <ele>1405</ele>
        <time>2019-06-23T08:10:03.121Z</time>
      </trkpt>
      <trkpt lat="42.92575" lon="0.19341">
        <ele>1405</ele>
        <time>2019-06-23T08:10:04.121Z</time>
      </trkpt>
      <trkpt lat="42.92575" lon="0.19341">
        <ele>1405</ele>
        <time>2019-06-23T08:10:05.121Z</time>
      </trkpt>
      <trkpt lat="42.92575" lon="0.19341">
        <ele>1405</ele>
        <time>2019-06-23T08:10:06.121Z</time>
      </trkpt>
      <trkpt lat="42.92575" lon="0.19341">
        <ele>1405</ele>
        <time>2019-06-23T08:10:07.121Z</time>
      </trkpt>
      <trkpt lat="42.92575" lon="0.19341">
        <ele>1406</ele>
        <time>2019-06-23T08:10:08.121Z</time>
      </trkpt>
      <trkpt lat="42.92575" lon="0.19341">
        <ele>1406</ele>
        <time>2019-06-23T08:10:09.121Z</time>
      </trkpt>
      <trkpt lat="42.92572" lon="0.19338">
        <ele>1404</ele>
        <time>2019-06-23T08:10:10.007Z</time>
      </trkpt>
      <trkpt lat="42.92572" lon="0.19338">
        <ele>1405</ele>
        <time>2019-06-23T08:10:11.007Z</time>
      </trkpt>
      <trkpt lat="42.92571" lon="0.19338">
        <ele>1405</ele>
        <time>2019-06-23T08:10:12.007Z</time>
      </trkpt>
      <trkpt lat="42.92571" lon="0.19338">
        <ele>1404</ele>
        <time>2019-06-23T08:10:13.007Z</time>
      </trkpt>
      <trkpt lat="42.9257" lon="0.19337">
        <ele>1405</ele>
        <time>2019-06-23T08:10:14.007Z</time>
      </trkpt>
      <trkpt lat="42.9257" lon="0.19337">
        <ele>1404</ele>
        <time>2019-06-23T08:10:15.007Z</time>
      </trkpt>
      <trkpt lat="42.9257" lon="0.19337">
        <ele>1404</ele>
        <time>2019-06-23T08:10:16.007Z</time>
      </trkpt>
      <trkpt lat="42.9257" lon="0.19337">
        <ele>1404</ele>
        <time>2019-06-23T08:10:17.007Z</time>
      </trkpt>
      <trkpt lat="42.92569" lon="0.19337">
        <ele>1404</ele>
        <time>2019-06-23T08:10:18.007Z</time>
      </trkpt>
      <trkpt lat="42.92569" lon="0.19336">
        <ele>1405</ele>
        <time>2019-06-23T08:10:19.007Z</time>
      </trkpt>
      <trkpt lat="42.92569" lon="0.19336">
        <ele>1405</ele>
        <time>2019-06-23T08:10:20.007Z</time>
      </trkpt>
      <trkpt lat="42.92565" lon="0.19335">
        <ele>1405</ele>
        <time>2019-06-23T08:10:21.018Z</time>
      </trkpt>
      <trkpt lat="42.92566" lon="0.19335">
        <ele>1405</ele>
        <time>2019-06-23T08:10:22.018Z</time>
      </trkpt>
      <trkpt lat="42.92565" lon="0.19335">
        <ele>1406</ele>
        <time>2019-06-23T08:10:23.018Z</time>
      </trkpt>
      <trkpt lat="42.92565" lon="0.19335">
        <ele>1406</ele>
        <time>2019-06-23T08:10:24.018Z</time>
      </trkpt>
      <trkpt lat="42.92565" lon="0.19335">
        <ele>1407</ele>
        <time>2019-06-23T08:10:25.018Z</time>
      </trkpt>
      <trkpt lat="42.92565" lon="0.19335">
        <ele>1408</ele>
        <time>2019-06-23T08:10:26.018Z</time>
      </trkpt>
      <trkpt lat="42.9256" lon="0.19335">
        <ele>1409</ele>
        <time>2019-06-23T08:10:27.029Z</time>
      </trkpt>
      <trkpt lat="42.9256" lon="0.19335">
        <ele>1409</ele>
        <time>2019-06-23T08:10:28.029Z</time>
      </trkpt>
      <trkpt lat="42.9256" lon="0.19335">
        <ele>1409</ele>
        <time>2019-06-23T08:10:29.029Z</time>
      </trkpt>
      <trkpt lat="42.9256" lon="0.19335">
        <ele>1409</ele>
        <time>2019-06-23T08:10:30.029Z</time>
      </trkpt>
      <trkpt lat="42.9256" lon="0.19335">
        <ele>1409</ele>
        <time>2019-06-23T08:10:31.029Z</time>
      </trkpt>
      <trkpt lat="42.92557" lon="0.19333">
        <ele>1409</ele>
        <time>2019-06-23T08:10:32.040Z</time>
      </trkpt>
      <trkpt lat="42.92556" lon="0.19333">
        <ele>1409</ele>
        <time>2019-06-23T08:10:33.040Z</time>
      </trkpt>
      <trkpt lat="42.92556" lon="0.19332">
        <ele>1409</ele>
        <time>2019-06-23T08:10:34.040Z</time>
      </trkpt>
      <trkpt lat="42.92556" lon="0.19332">
        <ele>1410</ele>
        <time>2019-06-23T08:10:35.040Z</time>
      </trkpt>
      <trkpt lat="42.92555" lon="0.19331">
        <ele>1410</ele>
        <time>2019-06-23T08:10:36.040Z</time>
      </trkpt>
      <trkpt lat="42.92555" lon="0.19331">
        <ele>1410</ele>
        <time>2019-06-23T08:10:37.040Z</time>
      </trkpt>
      <trkpt lat="42.92555" lon="0.19331">
        <ele>1410</ele>
        <time>2019-06-23T08:10:38.040Z</time>
      </trkpt>
      <trkpt lat="42.92554" lon="0.1933">
        <ele>1411</ele>
        <time>2019-06-23T08:10:39.040Z</time>
      </trkpt>
      <trkpt lat="42.92554" lon="0.1933">
        <ele>1411</ele>
        <time>2019-06-23T08:10:40.040Z</time>
      </trkpt>
      <trkpt lat="42.92554" lon="0.19329">
        <ele>1411</ele>
        <time>2019-06-23T08:10:41.040Z</time>
      </trkpt>
      <trkpt lat="42.92553" lon="0.19329">
        <ele>1412</ele>
        <time>2019-06-23T08:10:42.040Z</time>
      </trkpt>
      <trkpt lat="42.92553" lon="0.19328">
        <ele>1412</ele>
        <time>2019-06-23T08:10:43.040Z</time>
      </trkpt>
      <trkpt lat="42.92553" lon="0.19327">
        <ele>1411</ele>
        <time>2019-06-23T08:10:44.040Z</time>
      </trkpt>
      <trkpt lat="42.92552" lon="0.19327">
        <ele>1411</ele>
        <time>2019-06-23T08:10:45.040Z</time>
      </trkpt>
      <trkpt lat="42.92552" lon="0.19326">
        <ele>1411</ele>
        <time>2019-06-23T08:10:46.040Z</time>
      </trkpt>
      <trkpt lat="42.92552" lon="0.19326">
        <ele>1411</ele>
        <time>2019-06-23T08:10:47.040Z</time>
      </trkpt>
      <trkpt lat="42.92552" lon="0.19325">
        <ele>1412</ele>
        <time>2019-06-23T08:10:48.040Z</time>
      </trkpt>
      <trkpt lat="42.92552" lon="0.19324">
        <ele>1412</ele>
        <time>2019-06-23T08:10:49.040Z</time>
      </trkpt>
      <trkpt lat="42.92552" lon="0.19324">
        <ele>1412</ele>
        <time>2019-06-23T08:10:50.040Z</time>
      </trkpt>
      <trkpt lat="42.92552" lon="0.19323">
        <ele>1412</ele>
        <time>2019-06-23T08:10:51.040Z</time>
      </trkpt>
      <trkpt lat="42.92551" lon="0.19322">
        <ele>1412</ele>
        <time>2019-06-23T08:10:52.040Z</time>
      </trkpt>
      <trkpt lat="42.92551" lon="0.19322">
        <ele>1413</ele>
        <time>2019-06-23T08:10:53.040Z</time>
      </trkpt>
      <trkpt lat="42.92551" lon="0.19322">
        <ele>1413</ele>
        <time>2019-06-23T08:10:54.040Z</time>
      </trkpt>
      <trkpt lat="42.92551" lon="0.19321">
        <ele>1414</ele>
        <time>2019-06-23T08:10:55.040Z</time>
      </trkpt>
      <trkpt lat="42.9255" lon="0.19321">
        <ele>1414</ele>
        <time>2019-06-23T08:10:56.040Z</time>
      </trkpt>
      <trkpt lat="42.9255" lon="0.1932">
        <ele>1414</ele>
        <time>2019-06-23T08:10:57.040Z</time>
      </trkpt>
      <trkpt lat="42.9255" lon="0.1932">
        <ele>1415</ele>
        <time>2019-06-23T08:10:58.040Z</time>
      </trkpt>
      <trkpt lat="42.9255" lon="0.19319">
        <ele>1414</ele>
        <time>2019-06-23T08:10:59.040Z</time>
      </trkpt>
      <trkpt lat="42.92549" lon="0.19318">
        <ele>1413</ele>
        <time>2019-06-23T08:11:00.040Z</time>
      </trkpt>
      <trkpt lat="42.92549" lon="0.19318">
        <ele>1413</ele>
        <time>2019-06-23T08:11:01.040Z</time>
      </trkpt>
      <trkpt lat="42.92549" lon="0.19317">
        <ele>1413</ele>
        <time>2019-06-23T08:11:02.040Z</time>
      </trkpt>
      <trkpt lat="42.92549" lon="0.19317">
        <ele>1413</ele>
        <time>2019-06-23T08:11:03.040Z</time>
      </trkpt>
      <trkpt lat="42.92549" lon="0.19316">
        <ele>1413</ele>
        <time>2019-06-23T08:11:04.040Z</time>
      </trkpt>
      <trkpt lat="42.92549" lon="0.19316">
        <ele>1413</ele>
        <time>2019-06-23T08:11:05.040Z</time>
      </trkpt>
      <trkpt lat="42.92548" lon="0.19315">
        <ele>1413</ele>
        <time>2019-06-23T08:11:06.040Z</time>
      </trkpt>
      <trkpt lat="42.92548" lon="0.19315">
        <ele>1413</ele>
        <time>2019-06-23T08:11:07.040Z</time>
      </trkpt>
      <trkpt lat="42.92548" lon="0.19315">
        <ele>1413</ele>
        <time>2019-06-23T08:11:08.040Z</time>
      </trkpt>
      <trkpt lat="42.92548" lon="0.19315">
        <ele>1413</ele>
        <time>2019-06-23T08:11:09.040Z</time>
      </trkpt>
      <trkpt lat="42.92548" lon="0.19315">
        <ele>1413</ele>
        <time>2019-06-23T08:11:10.040Z</time>
      </trkpt>
      <trkpt lat="42.92548" lon="0.19315">
        <ele>1413</ele>
        <time>2019-06-23T08:11:11.040Z</time>
      </trkpt>
      <trkpt lat="42.92548" lon="0.19315">
        <ele>1414</ele>
        <time>2019-06-23T08:11:12.040Z</time>
      </trkpt>
      <trkpt lat="42.92548" lon="0.19314">
        <ele>1414</ele>
        <time>2019-06-23T08:11:13.040Z</time>
      </trkpt>
      <trkpt lat="42.92548" lon="0.19314">
        <ele>1415</ele>
        <time>2019-06-23T08:11:14.040Z</time>
      </trkpt>
      <trkpt lat="42.92548" lon="0.19314">
        <ele>1414</ele>
        <time>2019-06-23T08:11:15.040Z</time>
      </trkpt>
      <trkpt lat="42.92547" lon="0.19313">
        <ele>1414</ele>
        <time>2019-06-23T08:11:16.040Z</time>
      </trkpt>
      <trkpt lat="42.92547" lon="0.19312">
        <ele>1414</ele>
        <time>2019-06-23T08:11:17.040Z</time>
      </trkpt>
      <trkpt lat="42.92547" lon="0.19312">
        <ele>1414</ele>
        <time>2019-06-23T08:11:18.040Z</time>
      </trkpt>
      <trkpt lat="42.92547" lon="0.19311">
        <ele>1414</ele>
        <time>2019-06-23T08:11:19.040Z</time>
      </trkpt>
      <trkpt lat="42.92546" lon="0.19311">
        <ele>1414</ele>
        <time>2019-06-23T08:11:20.040Z</time>
      </trkpt>
      <trkpt lat="42.92546" lon="0.1931">
        <ele>1414</ele>
        <time>2019-06-23T08:11:21.040Z</time>
      </trkpt>
      <trkpt lat="42.92546" lon="0.1931">
        <ele>1414</ele>
        <time>2019-06-23T08:11:22.040Z</time>
      </trkpt>
      <trkpt lat="42.92546" lon="0.19309">
        <ele>1415</ele>
        <time>2019-06-23T08:11:23.040Z</time>
      </trkpt>
      <trkpt lat="42.92546" lon="0.19309">
        <ele>1415</ele>
        <time>2019-06-23T08:11:24.040Z</time>
      </trkpt>
      <trkpt lat="42.92545" lon="0.19308">
        <ele>1415</ele>
        <time>2019-06-23T08:11:25.040Z</time>
      </trkpt>
      <trkpt lat="42.92545" lon="0.19308">
        <ele>1415</ele>
        <time>2019-06-23T08:11:26.040Z</time>
      </trkpt>
      <trkpt lat="42.92545" lon="0.19307">
        <ele>1415</ele>
        <time>2019-06-23T08:11:27.040Z</time>
      </trkpt>
      <trkpt lat="42.92545" lon="0.19306">
        <ele>1416</ele>
        <time>2019-06-23T08:11:28.040Z</time>
      </trkpt>
      <trkpt lat="42.92545" lon="0.19305">
        <ele>1415</ele>
        <time>2019-06-23T08:11:29.040Z</time>
      </trkpt>
      <trkpt lat="42.92545" lon="0.19304">
        <ele>1416</ele>
        <time>2019-06-23T08:11:30.040Z</time>
      </trkpt>
      <trkpt lat="42.92545" lon="0.19304">
        <ele>1416</ele>
        <time>2019-06-23T08:11:31.040Z</time>
      </trkpt>
      <trkpt lat="42.92545" lon="0.19303">
        <ele>1416</ele>
        <time>2019-06-23T08:11:32.040Z</time>
      </trkpt>
      <trkpt lat="42.92545" lon="0.19302">
        <ele>1415</ele>
        <time>2019-06-23T08:11:33.040Z</time>
      </trkpt>
      <trkpt lat="42.92544" lon="0.19301">
        <ele>1416</ele>
        <time>2019-06-23T08:11:34.040Z</time>
      </trkpt>
      <trkpt lat="42.92544" lon="0.19301">
        <ele>1416</ele>
        <time>2019-06-23T08:11:35.040Z</time>
      </trkpt>
      <trkpt lat="42.92544" lon="0.193">
        <ele>1416</ele>
        <time>2019-06-23T08:11:36.040Z</time>
      </trkpt>
      <trkpt lat="42.92544" lon="0.193">
        <ele>1416</ele>
        <time>2019-06-23T08:11:37.040Z</time>
      </trkpt>
      <trkpt lat="42.92544" lon="0.19299">
        <ele>1416</ele>
        <time>2019-06-23T08:11:38.040Z</time>
      </trkpt>
      <trkpt lat="42.92543" lon="0.19298">
        <ele>1416</ele>
        <time>2019-06-23T08:11:39.040Z</time>
      </trkpt>
      <trkpt lat="42.92543" lon="0.19298">
        <ele>1417</ele>
        <time>2019-06-23T08:11:40.040Z</time>
      </trkpt>
      <trkpt lat="42.92543" lon="0.19297">
        <ele>1417</ele>
        <time>2019-06-23T08:11:41.040Z</time>
      </trkpt>
      <trkpt lat="42.92543" lon="0.19296">
        <ele>1416</ele>
        <time>2019-06-23T08:11:42.040Z</time>
      </trkpt>
      <trkpt lat="42.92543" lon="0.19295">
        <ele>1417</ele>
        <time>2019-06-23T08:11:43.040Z</time>
      </trkpt>
      <trkpt lat="42.92542" lon="0.19295">
        <ele>1417</ele>
        <time>2019-06-23T08:11:44.040Z</time>
      </trkpt>
      <trkpt lat="42.92542" lon="0.19294">
        <ele>1418</ele>
        <time>2019-06-23T08:11:45.040Z</time>
      </trkpt>
      <trkpt lat="42.92542" lon="0.19293">
        <ele>1418</ele>
        <time>2019-06-23T08:11:46.040Z</time>
      </trkpt>
      <trkpt lat="42.92542" lon="0.19293">
        <ele>1418</ele>
        <time>2019-06-23T08:11:47.040Z</time>
      </trkpt>
      <trkpt lat="42.92541" lon="0.19292">
        <ele>1418</ele>
        <time>2019-06-23T08:11:48.040Z</time>
      </trkpt>
      <trkpt lat="42.92541" lon="0.19291">
        <ele>1418</ele>
        <time>2019-06-23T08:11:49.040Z</time>
      </trkpt>
      <trkpt lat="42.92541" lon="0.19291">
        <ele>1418</ele>
        <time>2019-06-23T08:11:50.040Z</time>
      </trkpt>
      <trkpt lat="42.9254" lon="0.19291">
        <ele>1419</ele>
        <time>2019-06-23T08:11:51.040Z</time>
      </trkpt>
      <trkpt lat="42.9254" lon="0.1929">
        <ele>1419</ele>
        <time>2019-06-23T08:11:52.040Z</time>
      </trkpt>
      <trkpt lat="42.9254" lon="0.19287">
        <ele>1420</ele>
        <time>2019-06-23T08:11:53.051Z</time>
      </trkpt>
      <trkpt lat="42.92539" lon="0.19286">
        <ele>1420</ele>
        <time>2019-06-23T08:11:54.051Z</time>
      </trkpt>
      <trkpt lat="42.92539" lon="0.19286">
        <ele>1421</ele>
        <time>2019-06-23T08:11:55.051Z</time>
      </trkpt>
      <trkpt lat="42.92539" lon="0.19285">
        <ele>1420</ele>
        <time>2019-06-23T08:11:56.051Z</time>
      </trkpt>
      <trkpt lat="42.92538" lon="0.19285">
        <ele>1420</ele>
        <time>2019-06-23T08:11:57.051Z</time>
      </trkpt>
      <trkpt lat="42.92538" lon="0.19284">
        <ele>1420</ele>
        <time>2019-06-23T08:11:58.051Z</time>
      </trkpt>
      <trkpt lat="42.92537" lon="0.19283">
        <ele>1420</ele>
        <time>2019-06-23T08:11:59.051Z</time>
      </trkpt>
      <trkpt lat="42.92537" lon="0.19283">
        <ele>1421</ele>
        <time>2019-06-23T08:12:00.051Z</time>
      </trkpt>
      <trkpt lat="42.92537" lon="0.19282">
        <ele>1421</ele>
        <time>2019-06-23T08:12:01.051Z</time>
      </trkpt>
      <trkpt lat="42.92536" lon="0.19281">
        <ele>1420</ele>
        <time>2019-06-23T08:12:02.051Z</time>
      </trkpt>
      <trkpt lat="42.92536" lon="0.1928">
        <ele>1420</ele>
        <time>2019-06-23T08:12:03.051Z</time>
      </trkpt>
      <trkpt lat="42.92536" lon="0.19279">
        <ele>1420</ele>
        <time>2019-06-23T08:12:04.051Z</time>
      </trkpt>
      <trkpt lat="42.92536" lon="0.19279">
        <ele>1420</ele>
        <time>2019-06-23T08:12:05.051Z</time>
      </trkpt>
      <trkpt lat="42.92536" lon="0.19278">
        <ele>1419</ele>
        <time>2019-06-23T08:12:06.051Z</time>
      </trkpt>
      <trkpt lat="42.92536" lon="0.19277">
        <ele>1420</ele>
        <time>2019-06-23T08:12:07.051Z</time>
      </trkpt>
      <trkpt lat="42.92536" lon="0.19276">
        <ele>1420</ele>
        <time>2019-06-23T08:12:08.051Z</time>
      </trkpt>
      <trkpt lat="42.92536" lon="0.19275">
        <ele>1420</ele>
        <time>2019-06-23T08:12:09.051Z</time>
      </trkpt>
      <trkpt lat="42.92536" lon="0.19274">
        <ele>1420</ele>
        <time>2019-06-23T08:12:10.051Z</time>
      </trkpt>
      <trkpt lat="42.92536" lon="0.19274">
        <ele>1420</ele>
        <time>2019-06-23T08:12:11.051Z</time>
      </trkpt>
      <trkpt lat="42.92536" lon="0.19273">
        <ele>1421</ele>
        <time>2019-06-23T08:12:12.051Z</time>
      </trkpt>
      <trkpt lat="42.92536" lon="0.19272">
        <ele>1421</ele>
        <time>2019-06-23T08:12:13.051Z</time>
      </trkpt>
      <trkpt lat="42.92536" lon="0.19271">
        <ele>1421</ele>
        <time>2019-06-23T08:12:14.051Z</time>
      </trkpt>
      <trkpt lat="42.92536" lon="0.19271">
        <ele>1421</ele>
        <time>2019-06-23T08:12:15.051Z</time>
      </trkpt>
      <trkpt lat="42.92537" lon="0.1927">
        <ele>1421</ele>
        <time>2019-06-23T08:12:16.051Z</time>
      </trkpt>
      <trkpt lat="42.92537" lon="0.19269">
        <ele>1421</ele>
        <time>2019-06-23T08:12:17.051Z</time>
      </trkpt>
      <trkpt lat="42.92538" lon="0.19268">
        <ele>1421</ele>
        <time>2019-06-23T08:12:18.051Z</time>
      </trkpt>
      <trkpt lat="42.92538" lon="0.19268">
        <ele>1421</ele>
        <time>2019-06-23T08:12:19.051Z</time>
      </trkpt>
      <trkpt lat="42.92538" lon="0.19267">
        <ele>1422</ele>
        <time>2019-06-23T08:12:20.051Z</time>
      </trkpt>
      <trkpt lat="42.92538" lon="0.19267">
        <ele>1422</ele>
        <time>2019-06-23T08:12:21.051Z</time>
      </trkpt>
      <trkpt lat="42.92538" lon="0.19266">
        <ele>1422</ele>
        <time>2019-06-23T08:12:22.051Z</time>
      </trkpt>
      <trkpt lat="42.92538" lon="0.19266">
        <ele>1422</ele>
        <time>2019-06-23T08:12:23.051Z</time>
      </trkpt>
      <trkpt lat="42.92538" lon="0.19265">
        <ele>1422</ele>
        <time>2019-06-23T08:12:24.051Z</time>
      </trkpt>
      <trkpt lat="42.92538" lon="0.19264">
        <ele>1423</ele>
        <time>2019-06-23T08:12:25.051Z</time>
      </trkpt>
      <trkpt lat="42.92538" lon="0.19264">
        <ele>1423</ele>
        <time>2019-06-23T08:12:26.051Z</time>
      </trkpt>
      <trkpt lat="42.92538" lon="0.19263">
        <ele>1422</ele>
        <time>2019-06-23T08:12:27.051Z</time>
      </trkpt>
      <trkpt lat="42.92538" lon="0.19262">
        <ele>1423</ele>
        <time>2019-06-23T08:12:28.051Z</time>
      </trkpt>
      <trkpt lat="42.92539" lon="0.19261">
        <ele>1423</ele>
        <time>2019-06-23T08:12:29.051Z</time>
      </trkpt>
      <trkpt lat="42.92539" lon="0.19261">
        <ele>1423</ele>
        <time>2019-06-23T08:12:30.051Z</time>
      </trkpt>
      <trkpt lat="42.92539" lon="0.1926">
        <ele>1423</ele>
        <time>2019-06-23T08:12:31.051Z</time>
      </trkpt>
      <trkpt lat="42.92539" lon="0.19259">
        <ele>1423</ele>
        <time>2019-06-23T08:12:32.051Z</time>
      </trkpt>
      <trkpt lat="42.92539" lon="0.19258">
        <ele>1423</ele>
        <time>2019-06-23T08:12:33.051Z</time>
      </trkpt>
      <trkpt lat="42.92539" lon="0.19257">
        <ele>1422</ele>
        <time>2019-06-23T08:12:34.051Z</time>
      </trkpt>
      <trkpt lat="42.92539" lon="0.19256">
        <ele>1422</ele>
        <time>2019-06-23T08:12:35.051Z</time>
      </trkpt>
      <trkpt lat="42.92539" lon="0.19256">
        <ele>1422</ele>
        <time>2019-06-23T08:12:36.051Z</time>
      </trkpt>
      <trkpt lat="42.92539" lon="0.19255">
        <ele>1422</ele>
        <time>2019-06-23T08:12:37.051Z</time>
      </trkpt>
      <trkpt lat="42.9254" lon="0.19254">
        <ele>1422</ele>
        <time>2019-06-23T08:12:38.051Z</time>
      </trkpt>
      <trkpt lat="42.9254" lon="0.19254">
        <ele>1421</ele>
        <time>2019-06-23T08:12:39.051Z</time>
      </trkpt>
      <trkpt lat="42.9254" lon="0.19254">
        <ele>1420</ele>
        <time>2019-06-23T08:12:40.051Z</time>
      </trkpt>
      <trkpt lat="42.9254" lon="0.19253">
        <ele>1421</ele>
        <time>2019-06-23T08:12:41.051Z</time>
      </trkpt>
      <trkpt lat="42.9254" lon="0.19253">
        <ele>1421</ele>
        <time>2019-06-23T08:12:42.051Z</time>
      </trkpt>
      <trkpt lat="42.92541" lon="0.19253">
        <ele>1421</ele>
        <time>2019-06-23T08:12:43.051Z</time>
      </trkpt>
      <trkpt lat="42.92541" lon="0.19253">
        <ele>1421</ele>
        <time>2019-06-23T08:12:44.051Z</time>
      </trkpt>
      <trkpt lat="42.92541" lon="0.19253">
        <ele>1422</ele>
        <time>2019-06-23T08:12:45.051Z</time>
      </trkpt>
      <trkpt lat="42.92541" lon="0.19253">
        <ele>1422</ele>
        <time>2019-06-23T08:12:46.051Z</time>
      </trkpt>
      <trkpt lat="42.92541" lon="0.19249">
        <ele>1421</ele>
        <time>2019-06-23T08:12:47.059Z</time>
      </trkpt>
      <trkpt lat="42.92541" lon="0.19248">
        <ele>1421</ele>
        <time>2019-06-23T08:12:48.059Z</time>
      </trkpt>
      <trkpt lat="42.92541" lon="0.19247">
        <ele>1421</ele>
        <time>2019-06-23T08:12:49.059Z</time>
      </trkpt>
      <trkpt lat="42.92542" lon="0.19246">
        <ele>1421</ele>
        <time>2019-06-23T08:12:50.059Z</time>
      </trkpt>
      <trkpt lat="42.92542" lon="0.19245">
        <ele>1421</ele>
        <time>2019-06-23T08:12:51.059Z</time>
      </trkpt>
      <trkpt lat="42.92541" lon="0.19244">
        <ele>1421</ele>
        <time>2019-06-23T08:12:52.059Z</time>
      </trkpt>
      <trkpt lat="42.92541" lon="0.19243">
        <ele>1421</ele>
        <time>2019-06-23T08:12:53.059Z</time>
      </trkpt>
      <trkpt lat="42.92541" lon="0.19242">
        <ele>1421</ele>
        <time>2019-06-23T08:12:54.059Z</time>
      </trkpt>
      <trkpt lat="42.92541" lon="0.19241">
        <ele>1421</ele>
        <time>2019-06-23T08:12:55.059Z</time>
      </trkpt>
      <trkpt lat="42.92541" lon="0.19239">
        <ele>1421</ele>
        <time>2019-06-23T08:12:56.059Z</time>
      </trkpt>
      <trkpt lat="42.92541" lon="0.19238">
        <ele>1421</ele>
        <time>2019-06-23T08:12:57.059Z</time>
      </trkpt>
      <trkpt lat="42.92541" lon="0.19237">
        <ele>1422</ele>
        <time>2019-06-23T08:12:58.059Z</time>
      </trkpt>
      <trkpt lat="42.92541" lon="0.19236">
        <ele>1422</ele>
        <time>2019-06-23T08:12:59.059Z</time>
      </trkpt>
      <trkpt lat="42.92541" lon="0.19235">
        <ele>1422</ele>
        <time>2019-06-23T08:13:00.059Z</time>
      </trkpt>
      <trkpt lat="42.92542" lon="0.19233">
        <ele>1422</ele>
        <time>2019-06-23T08:13:01.059Z</time>
      </trkpt>
      <trkpt lat="42.92542" lon="0.19232">
        <ele>1422</ele>
        <time>2019-06-23T08:13:02.059Z</time>
      </trkpt>
      <trkpt lat="42.92542" lon="0.19231">
        <ele>1422</ele>
        <time>2019-06-23T08:13:03.059Z</time>
      </trkpt>
      <trkpt lat="42.92542" lon="0.1923">
        <ele>1423</ele>
        <time>2019-06-23T08:13:04.059Z</time>
      </trkpt>
      <trkpt lat="42.92542" lon="0.19229">
        <ele>1423</ele>
        <time>2019-06-23T08:13:05.059Z</time>
      </trkpt>
      <trkpt lat="42.92542" lon="0.19228">
        <ele>1423</ele>
        <time>2019-06-23T08:13:06.059Z</time>
      </trkpt>
      <trkpt lat="42.92542" lon="0.19227">
        <ele>1423</ele>
        <time>2019-06-23T08:13:07.059Z</time>
      </trkpt>
      <trkpt lat="42.92542" lon="0.19227">
        <ele>1423</ele>
        <time>2019-06-23T08:13:08.059Z</time>
      </trkpt>
      <trkpt lat="42.92542" lon="0.19226">
        <ele>1423</ele>
        <time>2019-06-23T08:13:09.059Z</time>
      </trkpt>
      <trkpt lat="42.92542" lon="0.19225">
        <ele>1423</ele>
        <time>2019-06-23T08:13:10.059Z</time>
      </trkpt>
      <trkpt lat="42.92543" lon="0.19225">
        <ele>1423</ele>
        <time>2019-06-23T08:13:11.059Z</time>
      </trkpt>
      <trkpt lat="42.92543" lon="0.19224">
        <ele>1423</ele>
        <time>2019-06-23T08:13:12.059Z</time>
      </trkpt>
      <trkpt lat="42.92543" lon="0.19223">
        <ele>1423</ele>
        <time>2019-06-23T08:13:13.059Z</time>
      </trkpt>
      <trkpt lat="42.92543" lon="0.19222">
        <ele>1423</ele>
        <time>2019-06-23T08:13:14.059Z</time>
      </trkpt>
      <trkpt lat="42.92543" lon="0.19222">
        <ele>1424</ele>
        <time>2019-06-23T08:13:15.059Z</time>
      </trkpt>
      <trkpt lat="42.92543" lon="0.19221">
        <ele>1424</ele>
        <time>2019-06-23T08:13:16.059Z</time>
      </trkpt>
      <trkpt lat="42.92544" lon="0.1922">
        <ele>1424</ele>
        <time>2019-06-23T08:13:17.059Z</time>
      </trkpt>
      <trkpt lat="42.92544" lon="0.19219">
        <ele>1425</ele>
        <time>2019-06-23T08:13:18.059Z</time>
      </trkpt>
      <trkpt lat="42.92544" lon="0.19219">
        <ele>1425</ele>
        <time>2019-06-23T08:13:19.059Z</time>
      </trkpt>
      <trkpt lat="42.92544" lon="0.19218">
        <ele>1424</ele>
        <time>2019-06-23T08:13:20.059Z</time>
      </trkpt>
      <trkpt lat="42.92544" lon="0.19217">
        <ele>1424</ele>
        <time>2019-06-23T08:13:21.059Z</time>
      </trkpt>
      <trkpt lat="42.92544" lon="0.19216">
        <ele>1424</ele>
        <time>2019-06-23T08:13:22.059Z</time>
      </trkpt>
      <trkpt lat="42.92544" lon="0.19215">
        <ele>1424</ele>
        <time>2019-06-23T08:13:23.059Z</time>
      </trkpt>
      <trkpt lat="42.92545" lon="0.19214">
        <ele>1424</ele>
        <time>2019-06-23T08:13:24.059Z</time>
      </trkpt>
      <trkpt lat="42.92545" lon="0.19214">
        <ele>1424</ele>
        <time>2019-06-23T08:13:25.059Z</time>
      </trkpt>
      <trkpt lat="42.92545" lon="0.19213">
        <ele>1424</ele>
        <time>2019-06-23T08:13:26.059Z</time>
      </trkpt>
      <trkpt lat="42.92546" lon="0.19212">
        <ele>1424</ele>
        <time>2019-06-23T08:13:27.059Z</time>
      </trkpt>
      <trkpt lat="42.92546" lon="0.19211">
        <ele>1424</ele>
        <time>2019-06-23T08:13:28.059Z</time>
      </trkpt>
      <trkpt lat="42.92546" lon="0.19211">
        <ele>1424</ele>
        <time>2019-06-23T08:13:29.059Z</time>
      </trkpt>
      <trkpt lat="42.92546" lon="0.1921">
        <ele>1424</ele>
        <time>2019-06-23T08:13:30.059Z</time>
      </trkpt>
      <trkpt lat="42.92546" lon="0.19209">
        <ele>1424</ele>
        <time>2019-06-23T08:13:31.059Z</time>
      </trkpt>
      <trkpt lat="42.92546" lon="0.19208">
        <ele>1424</ele>
        <time>2019-06-23T08:13:32.059Z</time>
      </trkpt>
      <trkpt lat="42.92546" lon="0.19207">
        <ele>1424</ele>
        <time>2019-06-23T08:13:33.059Z</time>
      </trkpt>
      <trkpt lat="42.92546" lon="0.19206">
        <ele>1424</ele>
        <time>2019-06-23T08:13:34.059Z</time>
      </trkpt>
      <trkpt lat="42.92546" lon="0.19205">
        <ele>1424</ele>
        <time>2019-06-23T08:13:35.059Z</time>
      </trkpt>
      <trkpt lat="42.92546" lon="0.19204">
        <ele>1424</ele>
        <time>2019-06-23T08:13:36.059Z</time>
      </trkpt>
      <trkpt lat="42.92546" lon="0.19203">
        <ele>1424</ele>
        <time>2019-06-23T08:13:37.059Z</time>
      </trkpt>
      <trkpt lat="42.92546" lon="0.19203">
        <ele>1424</ele>
        <time>2019-06-23T08:13:38.059Z</time>
      </trkpt>
      <trkpt lat="42.92546" lon="0.19202">
        <ele>1424</ele>
        <time>2019-06-23T08:13:39.059Z</time>
      </trkpt>
      <trkpt lat="42.92547" lon="0.19201">
        <ele>1424</ele>
        <time>2019-06-23T08:13:40.059Z</time>
      </trkpt>
      <trkpt lat="42.92547" lon="0.192">
        <ele>1424</ele>
        <time>2019-06-23T08:13:41.059Z</time>
      </trkpt>
      <trkpt lat="42.92547" lon="0.192">
        <ele>1423</ele>
        <time>2019-06-23T08:13:42.059Z</time>
      </trkpt>
      <trkpt lat="42.92547" lon="0.19199">
        <ele>1423</ele>
        <time>2019-06-23T08:13:43.059Z</time>
      </trkpt>
      <trkpt lat="42.92548" lon="0.19198">
        <ele>1424</ele>
        <time>2019-06-23T08:13:44.059Z</time>
      </trkpt>
      <trkpt lat="42.92548" lon="0.19197">
        <ele>1423</ele>
        <time>2019-06-23T08:13:45.059Z</time>
      </trkpt>
      <trkpt lat="42.92548" lon="0.19196">
        <ele>1424</ele>
        <time>2019-06-23T08:13:46.059Z</time>
      </trkpt>
      <trkpt lat="42.92548" lon="0.19195">
        <ele>1423</ele>
        <time>2019-06-23T08:13:47.059Z</time>
      </trkpt>
      <trkpt lat="42.92548" lon="0.19195">
        <ele>1423</ele>
        <time>2019-06-23T08:13:48.059Z</time>
      </trkpt>
      <trkpt lat="42.92548" lon="0.19194">
        <ele>1424</ele>
        <time>2019-06-23T08:13:49.059Z</time>
      </trkpt>
      <trkpt lat="42.92548" lon="0.19193">
        <ele>1424</ele>
        <time>2019-06-23T08:13:50.059Z</time>
      </trkpt>
      <trkpt lat="42.92548" lon="0.19192">
        <ele>1423</ele>
        <time>2019-06-23T08:13:51.059Z</time>
      </trkpt>
      <trkpt lat="42.92548" lon="0.19191">
        <ele>1423</ele>
        <time>2019-06-23T08:13:52.059Z</time>
      </trkpt>
      <trkpt lat="42.92549" lon="0.19191">
        <ele>1423</ele>
        <time>2019-06-23T08:13:53.059Z</time>
      </trkpt>
      <trkpt lat="42.92549" lon="0.1919">
        <ele>1423</ele>
        <time>2019-06-23T08:13:54.059Z</time>
      </trkpt>
      <trkpt lat="42.92549" lon="0.19189">
        <ele>1424</ele>
        <time>2019-06-23T08:13:55.059Z</time>
      </trkpt>
      <trkpt lat="42.92549" lon="0.19189">
        <ele>1424</ele>
        <time>2019-06-23T08:13:56.059Z</time>
      </trkpt>
      <trkpt lat="42.92549" lon="0.19189">
        <ele>1424</ele>
        <time>2019-06-23T08:13:57.059Z</time>
      </trkpt>
      <trkpt lat="42.9255" lon="0.19188">
        <ele>1424</ele>
        <time>2019-06-23T08:13:58.059Z</time>
      </trkpt>
      <trkpt lat="42.9255" lon="0.19187">
        <ele>1424</ele>
        <time>2019-06-23T08:13:59.059Z</time>
      </trkpt>
      <trkpt lat="42.9255" lon="0.19187">
        <ele>1424</ele>
        <time>2019-06-23T08:14:00.059Z</time>
      </trkpt>
      <trkpt lat="42.9255" lon="0.19186">
        <ele>1425</ele>
        <time>2019-06-23T08:14:01.059Z</time>
      </trkpt>
      <trkpt lat="42.9255" lon="0.19185">
        <ele>1425</ele>
        <time>2019-06-23T08:14:02.059Z</time>
      </trkpt>
      <trkpt lat="42.9255" lon="0.19184">
        <ele>1425</ele>
        <time>2019-06-23T08:14:03.059Z</time>
      </trkpt>
      <trkpt lat="42.92551" lon="0.19183">
        <ele>1425</ele>
        <time>2019-06-23T08:14:04.059Z</time>
      </trkpt>
      <trkpt lat="42.92551" lon="0.19182">
        <ele>1425</ele>
        <time>2019-06-23T08:14:05.059Z</time>
      </trkpt>
      <trkpt lat="42.92551" lon="0.19182">
        <ele>1425</ele>
        <time>2019-06-23T08:14:06.059Z</time>
      </trkpt>
      <trkpt lat="42.92551" lon="0.19181">
        <ele>1426</ele>
        <time>2019-06-23T08:14:07.059Z</time>
      </trkpt>
      <trkpt lat="42.92552" lon="0.1918">
        <ele>1426</ele>
        <time>2019-06-23T08:14:08.059Z</time>
      </trkpt>
      <trkpt lat="42.92552" lon="0.19179">
        <ele>1426</ele>
        <time>2019-06-23T08:14:09.059Z</time>
      </trkpt>
      <trkpt lat="42.92552" lon="0.19179">
        <ele>1427</ele>
        <time>2019-06-23T08:14:10.059Z</time>
      </trkpt>
      <trkpt lat="42.92552" lon="0.19178">
        <ele>1427</ele>
        <time>2019-06-23T08:14:11.059Z</time>
      </trkpt>
      <trkpt lat="42.92552" lon="0.19177">
        <ele>1427</ele>
        <time>2019-06-23T08:14:12.059Z</time>
      </trkpt>
      <trkpt lat="42.92552" lon="0.19176">
        <ele>1427</ele>
        <time>2019-06-23T08:14:13.059Z</time>
      </trkpt>
      <trkpt lat="42.92553" lon="0.19175">
        <ele>1427</ele>
        <time>2019-06-23T08:14:14.059Z</time>
      </trkpt>
      <trkpt lat="42.92553" lon="0.19175">
        <ele>1427</ele>
        <time>2019-06-23T08:14:15.059Z</time>
      </trkpt>
      <trkpt lat="42.92553" lon="0.19174">
        <ele>1427</ele>
        <time>2019-06-23T08:14:16.059Z</time>
      </trkpt>
      <trkpt lat="42.92553" lon="0.19173">
        <ele>1428</ele>
        <time>2019-06-23T08:14:17.059Z</time>
      </trkpt>
      <trkpt lat="42.92553" lon="0.19173">
        <ele>1428</ele>
        <time>2019-06-23T08:14:18.059Z</time>
      </trkpt>
      <trkpt lat="42.92553" lon="0.19172">
        <ele>1428</ele>
        <time>2019-06-23T08:14:19.059Z</time>
      </trkpt>
      <trkpt lat="42.92553" lon="0.19171">
        <ele>1428</ele>
        <time>2019-06-23T08:14:20.059Z</time>
      </trkpt>
      <trkpt lat="42.92553" lon="0.1917">
        <ele>1428</ele>
        <time>2019-06-23T08:14:21.059Z</time>
      </trkpt>
      <trkpt lat="42.92554" lon="0.19169">
        <ele>1429</ele>
        <time>2019-06-23T08:14:22.059Z</time>
      </trkpt>
      <trkpt lat="42.92554" lon="0.19169">
        <ele>1429</ele>
        <time>2019-06-23T08:14:23.059Z</time>
      </trkpt>
      <trkpt lat="42.92554" lon="0.19168">
        <ele>1429</ele>
        <time>2019-06-23T08:14:24.059Z</time>
      </trkpt>
      <trkpt lat="42.92554" lon="0.19168">
        <ele>1429</ele>
        <time>2019-06-23T08:14:25.059Z</time>
      </trkpt>
      <trkpt lat="42.92554" lon="0.19167">
        <ele>1430</ele>
        <time>2019-06-23T08:14:26.059Z</time>
      </trkpt>
      <trkpt lat="42.92554" lon="0.19166">
        <ele>1430</ele>
        <time>2019-06-23T08:14:27.059Z</time>
      </trkpt>
      <trkpt lat="42.92554" lon="0.19166">
        <ele>1430</ele>
        <time>2019-06-23T08:14:28.059Z</time>
      </trkpt>
      <trkpt lat="42.92555" lon="0.19165">
        <ele>1430</ele>
        <time>2019-06-23T08:14:29.059Z</time>
      </trkpt>
      <trkpt lat="42.92555" lon="0.19164">
        <ele>1430</ele>
        <time>2019-06-23T08:14:30.059Z</time>
      </trkpt>
      <trkpt lat="42.92555" lon="0.19163">
        <ele>1429</ele>
        <time>2019-06-23T08:14:31.059Z</time>
      </trkpt>
      <trkpt lat="42.92556" lon="0.19163">
        <ele>1430</ele>
        <time>2019-06-23T08:14:32.059Z</time>
      </trkpt>
      <trkpt lat="42.92556" lon="0.19162">
        <ele>1430</ele>
        <time>2019-06-23T08:14:33.059Z</time>
      </trkpt>
      <trkpt lat="42.92556" lon="0.19161">
        <ele>1430</ele>
        <time>2019-06-23T08:14:34.059Z</time>
      </trkpt>
      <trkpt lat="42.92557" lon="0.19161">
        <ele>1430</ele>
        <time>2019-06-23T08:14:35.059Z</time>
      </trkpt>
      <trkpt lat="42.92557" lon="0.1916">
        <ele>1430</ele>
        <time>2019-06-23T08:14:36.059Z</time>
      </trkpt>
      <trkpt lat="42.92557" lon="0.1916">
        <ele>1431</ele>
        <time>2019-06-23T08:14:37.059Z</time>
      </trkpt>
      <trkpt lat="42.92557" lon="0.19159">
        <ele>1431</ele>
        <time>2019-06-23T08:14:38.059Z</time>
      </trkpt>
      <trkpt lat="42.92558" lon="0.19158">
        <ele>1430</ele>
        <time>2019-06-23T08:14:39.059Z</time>
      </trkpt>
      <trkpt lat="42.92558" lon="0.19157">
        <ele>1430</ele>
        <time>2019-06-23T08:14:40.059Z</time>
      </trkpt>
      <trkpt lat="42.92558" lon="0.19157">
        <ele>1430</ele>
        <time>2019-06-23T08:14:41.059Z</time>
      </trkpt>
      <trkpt lat="42.92559" lon="0.19156">
        <ele>1430</ele>
        <time>2019-06-23T08:14:42.059Z</time>
      </trkpt>
      <trkpt lat="42.92559" lon="0.19155">
        <ele>1431</ele>
        <time>2019-06-23T08:14:43.059Z</time>
      </trkpt>
      <trkpt lat="42.92559" lon="0.19154">
        <ele>1431</ele>
        <time>2019-06-23T08:14:44.059Z</time>
      </trkpt>
      <trkpt lat="42.92559" lon="0.19154">
        <ele>1431</ele>
        <time>2019-06-23T08:14:45.059Z</time>
      </trkpt>
      <trkpt lat="42.92559" lon="0.19153">
        <ele>1431</ele>
        <time>2019-06-23T08:14:46.059Z</time>
      </trkpt>
      <trkpt lat="42.9256" lon="0.19152">
        <ele>1431</ele>
        <time>2019-06-23T08:14:47.059Z</time>
      </trkpt>
      <trkpt lat="42.9256" lon="0.19152">
        <ele>1431</ele>
        <time>2019-06-23T08:14:48.059Z</time>
      </trkpt>
      <trkpt lat="42.9256" lon="0.19151">
        <ele>1431</ele>
        <time>2019-06-23T08:14:49.059Z</time>
      </trkpt>
      <trkpt lat="42.92561" lon="0.1915">
        <ele>1432</ele>
        <time>2019-06-23T08:14:50.059Z</time>
      </trkpt>
      <trkpt lat="42.92561" lon="0.1915">
        <ele>1432</ele>
        <time>2019-06-23T08:14:51.059Z</time>
      </trkpt>
      <trkpt lat="42.92561" lon="0.19149">
        <ele>1431</ele>
        <time>2019-06-23T08:14:52.059Z</time>
      </trkpt>
      <trkpt lat="42.92561" lon="0.19148">
        <ele>1431</ele>
        <time>2019-06-23T08:14:53.059Z</time>
      </trkpt>
      <trkpt lat="42.92562" lon="0.19147">
        <ele>1431</ele>
        <time>2019-06-23T08:14:54.059Z</time>
      </trkpt>
      <trkpt lat="42.92562" lon="0.19147">
        <ele>1431</ele>
        <time>2019-06-23T08:14:55.059Z</time>
      </trkpt>
      <trkpt lat="42.92562" lon="0.19146">
        <ele>1431</ele>
        <time>2019-06-23T08:14:56.059Z</time>
      </trkpt>
      <trkpt lat="42.92562" lon="0.19145">
        <ele>1431</ele>
        <time>2019-06-23T08:14:57.059Z</time>
      </trkpt>
      <trkpt lat="42.92562" lon="0.19144">
        <ele>1432</ele>
        <time>2019-06-23T08:14:58.059Z</time>
      </trkpt>
      <trkpt lat="42.92562" lon="0.19144">
        <ele>1432</ele>
        <time>2019-06-23T08:14:59.059Z</time>
      </trkpt>
      <trkpt lat="42.92562" lon="0.19143">
        <ele>1432</ele>
        <time>2019-06-23T08:15:00.059Z</time>
      </trkpt>
      <trkpt lat="42.92563" lon="0.19142">
        <ele>1433</ele>
        <time>2019-06-23T08:15:01.059Z</time>
      </trkpt>
      <trkpt lat="42.92563" lon="0.19141">
        <ele>1433</ele>
        <time>2019-06-23T08:15:02.059Z</time>
      </trkpt>
      <trkpt lat="42.92563" lon="0.19141">
        <ele>1433</ele>
        <time>2019-06-23T08:15:03.059Z</time>
      </trkpt>
      <trkpt lat="42.92563" lon="0.1914">
        <ele>1433</ele>
        <time>2019-06-23T08:15:04.059Z</time>
      </trkpt>
      <trkpt lat="42.92563" lon="0.19139">
        <ele>1433</ele>
        <time>2019-06-23T08:15:05.059Z</time>
      </trkpt>
      <trkpt lat="42.92563" lon="0.19139">
        <ele>1432</ele>
        <time>2019-06-23T08:15:06.059Z</time>
      </trkpt>
      <trkpt lat="42.92563" lon="0.19138">
        <ele>1432</ele>
        <time>2019-06-23T08:15:07.059Z</time>
      </trkpt>
      <trkpt lat="42.92563" lon="0.19137">
        <ele>1433</ele>
        <time>2019-06-23T08:15:08.059Z</time>
      </trkpt>
      <trkpt lat="42.92564" lon="0.19136">
        <ele>1433</ele>
        <time>2019-06-23T08:15:09.059Z</time>
      </trkpt>
      <trkpt lat="42.92564" lon="0.19135">
        <ele>1433</ele>
        <time>2019-06-23T08:15:10.059Z</time>
      </trkpt>
      <trkpt lat="42.92564" lon="0.19135">
        <ele>1433</ele>
        <time>2019-06-23T08:15:11.059Z</time>
      </trkpt>
      <trkpt lat="42.92564" lon="0.19134">
        <ele>1433</ele>
        <time>2019-06-23T08:15:12.059Z</time>
      </trkpt>
      <trkpt lat="42.92564" lon="0.19133">
        <ele>1433</ele>
        <time>2019-06-23T08:15:13.059Z</time>
      </trkpt>
      <trkpt lat="42.92565" lon="0.19132">
        <ele>1433</ele>
        <time>2019-06-23T08:15:14.059Z</time>
      </trkpt>
      <trkpt lat="42.92565" lon="0.19132">
        <ele>1433</ele>
        <time>2019-06-23T08:15:15.059Z</time>
      </trkpt>
      <trkpt lat="42.92565" lon="0.19131">
        <ele>1433</ele>
        <time>2019-06-23T08:15:16.059Z</time>
      </trkpt>
      <trkpt lat="42.92565" lon="0.1913">
        <ele>1433</ele>
        <time>2019-06-23T08:15:17.059Z</time>
      </trkpt>
      <trkpt lat="42.92566" lon="0.1913">
        <ele>1433</ele>
        <time>2019-06-23T08:15:18.059Z</time>
      </trkpt>
      <trkpt lat="42.92566" lon="0.19129">
        <ele>1433</ele>
        <time>2019-06-23T08:15:19.059Z</time>
      </trkpt>
      <trkpt lat="42.92566" lon="0.19128">
        <ele>1433</ele>
        <time>2019-06-23T08:15:20.059Z</time>
      </trkpt>
      <trkpt lat="42.92567" lon="0.19127">
        <ele>1433</ele>
        <time>2019-06-23T08:15:21.059Z</time>
      </trkpt>
      <trkpt lat="42.92567" lon="0.19127">
        <ele>1433</ele>
        <time>2019-06-23T08:15:22.059Z</time>
      </trkpt>
      <trkpt lat="42.92567" lon="0.19126">
        <ele>1433</ele>
        <time>2019-06-23T08:15:23.059Z</time>
      </trkpt>
      <trkpt lat="42.92567" lon="0.19125">
        <ele>1433</ele>
        <time>2019-06-23T08:15:24.059Z</time>
      </trkpt>
      <trkpt lat="42.92567" lon="0.19124">
        <ele>1433</ele>
        <time>2019-06-23T08:15:25.059Z</time>
      </trkpt>
      <trkpt lat="42.92567" lon="0.19124">
        <ele>1434</ele>
        <time>2019-06-23T08:15:26.059Z</time>
      </trkpt>
      <trkpt lat="42.92567" lon="0.19123">
        <ele>1434</ele>
        <time>2019-06-23T08:15:27.059Z</time>
      </trkpt>
      <trkpt lat="42.92568" lon="0.19122">
        <ele>1434</ele>
        <time>2019-06-23T08:15:28.059Z</time>
      </trkpt>
      <trkpt lat="42.92568" lon="0.19121">
        <ele>1434</ele>
        <time>2019-06-23T08:15:29.059Z</time>
      </trkpt>
      <trkpt lat="42.92568" lon="0.1912">
        <ele>1434</ele>
        <time>2019-06-23T08:15:30.059Z</time>
      </trkpt>
      <trkpt lat="42.92568" lon="0.1912">
        <ele>1434</ele>
        <time>2019-06-23T08:15:31.059Z</time>
      </trkpt>
      <trkpt lat="42.92568" lon="0.19119">
        <ele>1434</ele>
        <time>2019-06-23T08:15:32.059Z</time>
      </trkpt>
      <trkpt lat="42.92568" lon="0.19118">
        <ele>1434</ele>
        <time>2019-06-23T08:15:33.059Z</time>
      </trkpt>
      <trkpt lat="42.92568" lon="0.19118">
        <ele>1434</ele>
        <time>2019-06-23T08:15:34.059Z</time>
      </trkpt>
      <trkpt lat="42.92568" lon="0.19117">
        <ele>1434</ele>
        <time>2019-06-23T08:15:35.059Z</time>
      </trkpt>
      <trkpt lat="42.92569" lon="0.19116">
        <ele>1434</ele>
        <time>2019-06-23T08:15:36.059Z</time>
      </trkpt>
      <trkpt lat="42.92569" lon="0.19115">
        <ele>1434</ele>
        <time>2019-06-23T08:15:37.059Z</time>
      </trkpt>
      <trkpt lat="42.92569" lon="0.19115">
        <ele>1434</ele>
        <time>2019-06-23T08:15:38.059Z</time>
      </trkpt>
      <trkpt lat="42.92569" lon="0.19114">
        <ele>1434</ele>
        <time>2019-06-23T08:15:39.059Z</time>
      </trkpt>
      <trkpt lat="42.92569" lon="0.19113">
        <ele>1434</ele>
        <time>2019-06-23T08:15:40.059Z</time>
      </trkpt>
      <trkpt lat="42.92569" lon="0.19112">
        <ele>1434</ele>
        <time>2019-06-23T08:15:41.059Z</time>
      </trkpt>
      <trkpt lat="42.92569" lon="0.19112">
        <ele>1434</ele>
        <time>2019-06-23T08:15:42.059Z</time>
      </trkpt>
      <trkpt lat="42.92569" lon="0.19111">
        <ele>1434</ele>
        <time>2019-06-23T08:15:43.059Z</time>
      </trkpt>
      <trkpt lat="42.9257" lon="0.1911">
        <ele>1434</ele>
        <time>2019-06-23T08:15:44.059Z</time>
      </trkpt>
      <trkpt lat="42.9257" lon="0.19109">
        <ele>1433</ele>
        <time>2019-06-23T08:15:45.059Z</time>
      </trkpt>
      <trkpt lat="42.9257" lon="0.19108">
        <ele>1434</ele>
        <time>2019-06-23T08:15:46.059Z</time>
      </trkpt>
      <trkpt lat="42.9257" lon="0.19108">
        <ele>1434</ele>
        <time>2019-06-23T08:15:47.059Z</time>
      </trkpt>
      <trkpt lat="42.92571" lon="0.19107">
        <ele>1434</ele>
        <time>2019-06-23T08:15:48.059Z</time>
      </trkpt>
      <trkpt lat="42.92571" lon="0.19106">
        <ele>1435</ele>
        <time>2019-06-23T08:15:49.059Z</time>
      </trkpt>
      <trkpt lat="42.92571" lon="0.19105">
        <ele>1435</ele>
        <time>2019-06-23T08:15:50.059Z</time>
      </trkpt>
      <trkpt lat="42.92571" lon="0.19104">
        <ele>1435</ele>
        <time>2019-06-23T08:15:51.059Z</time>
      </trkpt>
      <trkpt lat="42.92571" lon="0.19103">
        <ele>1435</ele>
        <time>2019-06-23T08:15:52.059Z</time>
      </trkpt>
      <trkpt lat="42.92572" lon="0.19103">
        <ele>1436</ele>
        <time>2019-06-23T08:15:53.059Z</time>
      </trkpt>
      <trkpt lat="42.92572" lon="0.19102">
        <ele>1436</ele>
        <time>2019-06-23T08:15:54.059Z</time>
      </trkpt>
      <trkpt lat="42.92572" lon="0.19101">
        <ele>1436</ele>
        <time>2019-06-23T08:15:55.059Z</time>
      </trkpt>
      <trkpt lat="42.92572" lon="0.191">
        <ele>1436</ele>
        <time>2019-06-23T08:15:56.059Z</time>
      </trkpt>
      <trkpt lat="42.92572" lon="0.191">
        <ele>1437</ele>
        <time>2019-06-23T08:15:57.059Z</time>
      </trkpt>
      <trkpt lat="42.92572" lon="0.19099">
        <ele>1436</ele>
        <time>2019-06-23T08:15:58.059Z</time>
      </trkpt>
      <trkpt lat="42.92573" lon="0.19098">
        <ele>1436</ele>
        <time>2019-06-23T08:15:59.059Z</time>
      </trkpt>
      <trkpt lat="42.92573" lon="0.19097">
        <ele>1436</ele>
        <time>2019-06-23T08:16:00.059Z</time>
      </trkpt>
      <trkpt lat="42.92573" lon="0.19096">
        <ele>1436</ele>
        <time>2019-06-23T08:16:01.059Z</time>
      </trkpt>
      <trkpt lat="42.92574" lon="0.19095">
        <ele>1437</ele>
        <time>2019-06-23T08:16:02.059Z</time>
      </trkpt>
      <trkpt lat="42.92574" lon="0.19095">
        <ele>1437</ele>
        <time>2019-06-23T08:16:03.059Z</time>
      </trkpt>
      <trkpt lat="42.92575" lon="0.19094">
        <ele>1437</ele>
        <time>2019-06-23T08:16:04.059Z</time>
      </trkpt>
      <trkpt lat="42.92575" lon="0.19093">
        <ele>1437</ele>
        <time>2019-06-23T08:16:05.059Z</time>
      </trkpt>
      <trkpt lat="42.92575" lon="0.19092">
        <ele>1437</ele>
        <time>2019-06-23T08:16:06.059Z</time>
      </trkpt>
      <trkpt lat="42.92575" lon="0.19091">
        <ele>1437</ele>
        <time>2019-06-23T08:16:07.059Z</time>
      </trkpt>
      <trkpt lat="42.92575" lon="0.1909">
        <ele>1437</ele>
        <time>2019-06-23T08:16:08.059Z</time>
      </trkpt>
      <trkpt lat="42.92575" lon="0.19089">
        <ele>1436</ele>
        <time>2019-06-23T08:16:09.059Z</time>
      </trkpt>
      <trkpt lat="42.92576" lon="0.19089">
        <ele>1437</ele>
        <time>2019-06-23T08:16:10.059Z</time>
      </trkpt>
      <trkpt lat="42.92576" lon="0.19088">
        <ele>1436</ele>
        <time>2019-06-23T08:16:11.059Z</time>
      </trkpt>
      <trkpt lat="42.92576" lon="0.19087">
        <ele>1437</ele>
        <time>2019-06-23T08:16:12.059Z</time>
      </trkpt>
      <trkpt lat="42.92576" lon="0.19086">
        <ele>1437</ele>
        <time>2019-06-23T08:16:13.059Z</time>
      </trkpt>
      <trkpt lat="42.92577" lon="0.19085">
        <ele>1437</ele>
        <time>2019-06-23T08:16:14.059Z</time>
      </trkpt>
      <trkpt lat="42.92577" lon="0.19084">
        <ele>1437</ele>
        <time>2019-06-23T08:16:15.059Z</time>
      </trkpt>
      <trkpt lat="42.92577" lon="0.19084">
        <ele>1437</ele>
        <time>2019-06-23T08:16:16.059Z</time>
      </trkpt>
      <trkpt lat="42.92577" lon="0.19083">
        <ele>1437</ele>
        <time>2019-06-23T08:16:17.059Z</time>
      </trkpt>
      <trkpt lat="42.92578" lon="0.19082">
        <ele>1437</ele>
        <time>2019-06-23T08:16:18.059Z</time>
      </trkpt>
      <trkpt lat="42.92578" lon="0.19082">
        <ele>1437</ele>
        <time>2019-06-23T08:16:19.059Z</time>
      </trkpt>
      <trkpt lat="42.92578" lon="0.19081">
        <ele>1437</ele>
        <time>2019-06-23T08:16:20.059Z</time>
      </trkpt>
      <trkpt lat="42.92578" lon="0.1908">
        <ele>1437</ele>
        <time>2019-06-23T08:16:21.059Z</time>
      </trkpt>
      <trkpt lat="42.92578" lon="0.1908">
        <ele>1437</ele>
        <time>2019-06-23T08:16:22.059Z</time>
      </trkpt>
      <trkpt lat="42.92579" lon="0.19079">
        <ele>1437</ele>
        <time>2019-06-23T08:16:23.059Z</time>
      </trkpt>
      <trkpt lat="42.92579" lon="0.19078">
        <ele>1437</ele>
        <time>2019-06-23T08:16:24.059Z</time>
      </trkpt>
      <trkpt lat="42.92579" lon="0.19078">
        <ele>1439</ele>
        <time>2019-06-23T08:16:25.059Z</time>
      </trkpt>
      <trkpt lat="42.92579" lon="0.19077">
        <ele>1439</ele>
        <time>2019-06-23T08:16:26.059Z</time>
      </trkpt>
      <trkpt lat="42.92579" lon="0.19077">
        <ele>1439</ele>
        <time>2019-06-23T08:16:27.059Z</time>
      </trkpt>
      <trkpt lat="42.92579" lon="0.19077">
        <ele>1438</ele>
        <time>2019-06-23T08:16:28.059Z</time>
      </trkpt>
      <trkpt lat="42.9258" lon="0.19076">
        <ele>1439</ele>
        <time>2019-06-23T08:16:29.059Z</time>
      </trkpt>
      <trkpt lat="42.9258" lon="0.19075">
        <ele>1439</ele>
        <time>2019-06-23T08:16:30.059Z</time>
      </trkpt>
      <trkpt lat="42.9258" lon="0.19075">
        <ele>1439</ele>
        <time>2019-06-23T08:16:31.059Z</time>
      </trkpt>
      <trkpt lat="42.9258" lon="0.19074">
        <ele>1439</ele>
        <time>2019-06-23T08:16:32.059Z</time>
      </trkpt>
      <trkpt lat="42.9258" lon="0.19073">
        <ele>1439</ele>
        <time>2019-06-23T08:16:33.059Z</time>
      </trkpt>
      <trkpt lat="42.92581" lon="0.19073">
        <ele>1439</ele>
        <time>2019-06-23T08:16:34.059Z</time>
      </trkpt>
      <trkpt lat="42.92581" lon="0.19072">
        <ele>1440</ele>
        <time>2019-06-23T08:16:35.059Z</time>
      </trkpt>
      <trkpt lat="42.92581" lon="0.19071">
        <ele>1440</ele>
        <time>2019-06-23T08:16:36.059Z</time>
      </trkpt>
      <trkpt lat="42.92581" lon="0.1907">
        <ele>1440</ele>
        <time>2019-06-23T08:16:37.059Z</time>
      </trkpt>
      <trkpt lat="42.92581" lon="0.1907">
        <ele>1440</ele>
        <time>2019-06-23T08:16:38.059Z</time>
      </trkpt>
      <trkpt lat="42.92582" lon="0.19069">
        <ele>1440</ele>
        <time>2019-06-23T08:16:39.059Z</time>
      </trkpt>
      <trkpt lat="42.92582" lon="0.19068">
        <ele>1440</ele>
        <time>2019-06-23T08:16:40.059Z</time>
      </trkpt>
      <trkpt lat="42.92582" lon="0.19067">
        <ele>1440</ele>
        <time>2019-06-23T08:16:41.059Z</time>
      </trkpt>
      <trkpt lat="42.92582" lon="0.19066">
        <ele>1440</ele>
        <time>2019-06-23T08:16:42.059Z</time>
      </trkpt>
      <trkpt lat="42.92583" lon="0.19066">
        <ele>1440</ele>
        <time>2019-06-23T08:16:43.059Z</time>
      </trkpt>
      <trkpt lat="42.92583" lon="0.19065">
        <ele>1439</ele>
        <time>2019-06-23T08:16:44.059Z</time>
      </trkpt>
      <trkpt lat="42.92583" lon="0.19064">
        <ele>1439</ele>
        <time>2019-06-23T08:16:45.059Z</time>
      </trkpt>
      <trkpt lat="42.92583" lon="0.19063">
        <ele>1439</ele>
        <time>2019-06-23T08:16:46.059Z</time>
      </trkpt>
      <trkpt lat="42.92584" lon="0.19063">
        <ele>1439</ele>
        <time>2019-06-23T08:16:47.059Z</time>
      </trkpt>
      <trkpt lat="42.92584" lon="0.19062">
        <ele>1439</ele>
        <time>2019-06-23T08:16:48.059Z</time>
      </trkpt>
      <trkpt lat="42.92584" lon="0.19061">
        <ele>1439</ele>
        <time>2019-06-23T08:16:49.059Z</time>
      </trkpt>
      <trkpt lat="42.92585" lon="0.19061">
        <ele>1439</ele>
        <time>2019-06-23T08:16:50.059Z</time>
      </trkpt>
      <trkpt lat="42.92585" lon="0.1906">
        <ele>1439</ele>
        <time>2019-06-23T08:16:51.059Z</time>
      </trkpt>
      <trkpt lat="42.92585" lon="0.19059">
        <ele>1439</ele>
        <time>2019-06-23T08:16:52.059Z</time>
      </trkpt>
      <trkpt lat="42.92585" lon="0.19059">
        <ele>1439</ele>
        <time>2019-06-23T08:16:53.059Z</time>
      </trkpt>
      <trkpt lat="42.92586" lon="0.19058">
        <ele>1440</ele>
        <time>2019-06-23T08:16:54.059Z</time>
      </trkpt>
      <trkpt lat="42.92586" lon="0.19057">
        <ele>1440</ele>
        <time>2019-06-23T08:16:55.059Z</time>
      </trkpt>
      <trkpt lat="42.92586" lon="0.19056">
        <ele>1440</ele>
        <time>2019-06-23T08:16:56.059Z</time>
      </trkpt>
      <trkpt lat="42.92586" lon="0.19056">
        <ele>1440</ele>
        <time>2019-06-23T08:16:57.059Z</time>
      </trkpt>
      <trkpt lat="42.92586" lon="0.19055">
        <ele>1440</ele>
        <time>2019-06-23T08:16:58.059Z</time>
      </trkpt>
      <trkpt lat="42.92586" lon="0.19055">
        <ele>1440</ele>
        <time>2019-06-23T08:16:59.059Z</time>
      </trkpt>
      <trkpt lat="42.92587" lon="0.19054">
        <ele>1441</ele>
        <time>2019-06-23T08:17:00.059Z</time>
      </trkpt>
      <trkpt lat="42.92587" lon="0.19054">
        <ele>1441</ele>
        <time>2019-06-23T08:17:01.059Z</time>
      </trkpt>
      <trkpt lat="42.92587" lon="0.19053">
        <ele>1440</ele>
        <time>2019-06-23T08:17:02.059Z</time>
      </trkpt>
      <trkpt lat="42.92588" lon="0.19052">
        <ele>1440</ele>
        <time>2019-06-23T08:17:03.059Z</time>
      </trkpt>
      <trkpt lat="42.92588" lon="0.19052">
        <ele>1440</ele>
        <time>2019-06-23T08:17:04.059Z</time>
      </trkpt>
      <trkpt lat="42.92588" lon="0.19051">
        <ele>1440</ele>
        <time>2019-06-23T08:17:05.059Z</time>
      </trkpt>
      <trkpt lat="42.92588" lon="0.1905">
        <ele>1440</ele>
        <time>2019-06-23T08:17:06.059Z</time>
      </trkpt>
      <trkpt lat="42.92589" lon="0.1905">
        <ele>1440</ele>
        <time>2019-06-23T08:17:07.059Z</time>
      </trkpt>
      <trkpt lat="42.92589" lon="0.19049">
        <ele>1440</ele>
        <time>2019-06-23T08:17:08.059Z</time>
      </trkpt>
      <trkpt lat="42.92589" lon="0.19048">
        <ele>1441</ele>
        <time>2019-06-23T08:17:09.059Z</time>
      </trkpt>
      <trkpt lat="42.92589" lon="0.19048">
        <ele>1441</ele>
        <time>2019-06-23T08:17:10.059Z</time>
      </trkpt>
      <trkpt lat="42.92589" lon="0.19047">
        <ele>1441</ele>
        <time>2019-06-23T08:17:11.059Z</time>
      </trkpt>
      <trkpt lat="42.92589" lon="0.19047">
        <ele>1441</ele>
        <time>2019-06-23T08:17:12.059Z</time>
      </trkpt>
      <trkpt lat="42.9259" lon="0.19046">
        <ele>1441</ele>
        <time>2019-06-23T08:17:13.059Z</time>
      </trkpt>
      <trkpt lat="42.9259" lon="0.19045">
        <ele>1441</ele>
        <time>2019-06-23T08:17:14.059Z</time>
      </trkpt>
      <trkpt lat="42.9259" lon="0.19045">
        <ele>1441</ele>
        <time>2019-06-23T08:17:15.059Z</time>
      </trkpt>
      <trkpt lat="42.9259" lon="0.19044">
        <ele>1442</ele>
        <time>2019-06-23T08:17:16.059Z</time>
      </trkpt>
      <trkpt lat="42.92591" lon="0.19044">
        <ele>1442</ele>
        <time>2019-06-23T08:17:17.059Z</time>
      </trkpt>
      <trkpt lat="42.92591" lon="0.19044">
        <ele>1442</ele>
        <time>2019-06-23T08:17:18.059Z</time>
      </trkpt>
      <trkpt lat="42.92591" lon="0.19043">
        <ele>1442</ele>
        <time>2019-06-23T08:17:19.059Z</time>
      </trkpt>
      <trkpt lat="42.92591" lon="0.19043">
        <ele>1442</ele>
        <time>2019-06-23T08:17:20.059Z</time>
      </trkpt>
      <trkpt lat="42.92592" lon="0.19042">
        <ele>1442</ele>
        <time>2019-06-23T08:17:21.059Z</time>
      </trkpt>
      <trkpt lat="42.92592" lon="0.19041">
        <ele>1443</ele>
        <time>2019-06-23T08:17:22.059Z</time>
      </trkpt>
      <trkpt lat="42.92592" lon="0.19041">
        <ele>1442</ele>
        <time>2019-06-23T08:17:23.059Z</time>
      </trkpt>
      <trkpt lat="42.92592" lon="0.19041">
        <ele>1443</ele>
        <time>2019-06-23T08:17:24.059Z</time>
      </trkpt>
      <trkpt lat="42.92592" lon="0.1904">
        <ele>1443</ele>
        <time>2019-06-23T08:17:25.059Z</time>
      </trkpt>
      <trkpt lat="42.92592" lon="0.19039">
        <ele>1443</ele>
        <time>2019-06-23T08:17:26.059Z</time>
      </trkpt>
      <trkpt lat="42.92592" lon="0.19039">
        <ele>1443</ele>
        <time>2019-06-23T08:17:27.059Z</time>
      </trkpt>
      <trkpt lat="42.92592" lon="0.19038">
        <ele>1443</ele>
        <time>2019-06-23T08:17:28.059Z</time>
      </trkpt>
      <trkpt lat="42.92592" lon="0.19037">
        <ele>1443</ele>
        <time>2019-06-23T08:17:29.059Z</time>
      </trkpt>
      <trkpt lat="42.92592" lon="0.19037">
        <ele>1443</ele>
        <time>2019-06-23T08:17:30.059Z</time>
      </trkpt>
      <trkpt lat="42.92592" lon="0.19036">
        <ele>1443</ele>
        <time>2019-06-23T08:17:31.059Z</time>
      </trkpt>
      <trkpt lat="42.92593" lon="0.19036">
        <ele>1443</ele>
        <time>2019-06-23T08:17:32.059Z</time>
      </trkpt>
      <trkpt lat="42.92593" lon="0.19035">
        <ele>1443</ele>
        <time>2019-06-23T08:17:33.059Z</time>
      </trkpt>
      <trkpt lat="42.92593" lon="0.19034">
        <ele>1444</ele>
        <time>2019-06-23T08:17:34.059Z</time>
      </trkpt>
      <trkpt lat="42.92593" lon="0.19034">
        <ele>1444</ele>
        <time>2019-06-23T08:17:35.059Z</time>
      </trkpt>
      <trkpt lat="42.92594" lon="0.19033">
        <ele>1444</ele>
        <time>2019-06-23T08:17:36.059Z</time>
      </trkpt>
      <trkpt lat="42.92594" lon="0.19032">
        <ele>1444</ele>
        <time>2019-06-23T08:17:37.059Z</time>
      </trkpt>
      <trkpt lat="42.92594" lon="0.19032">
        <ele>1444</ele>
        <time>2019-06-23T08:17:38.059Z</time>
      </trkpt>
      <trkpt lat="42.92594" lon="0.19031">
        <ele>1445</ele>
        <time>2019-06-23T08:17:39.059Z</time>
      </trkpt>
      <trkpt lat="42.92594" lon="0.19031">
        <ele>1445</ele>
        <time>2019-06-23T08:17:40.059Z</time>
      </trkpt>
      <trkpt lat="42.92594" lon="0.1903">
        <ele>1444</ele>
        <time>2019-06-23T08:17:41.059Z</time>
      </trkpt>
      <trkpt lat="42.92595" lon="0.19029">
        <ele>1444</ele>
        <time>2019-06-23T08:17:42.059Z</time>
      </trkpt>
      <trkpt lat="42.92595" lon="0.19029">
        <ele>1444</ele>
        <time>2019-06-23T08:17:43.059Z</time>
      </trkpt>
      <trkpt lat="42.92595" lon="0.19028">
        <ele>1444</ele>
        <time>2019-06-23T08:17:44.059Z</time>
      </trkpt>
      <trkpt lat="42.92595" lon="0.19028">
        <ele>1444</ele>
        <time>2019-06-23T08:17:45.059Z</time>
      </trkpt>
      <trkpt lat="42.92595" lon="0.19027">
        <ele>1445</ele>
        <time>2019-06-23T08:17:46.059Z</time>
      </trkpt>
      <trkpt lat="42.92595" lon="0.19027">
        <ele>1445</ele>
        <time>2019-06-23T08:17:47.059Z</time>
      </trkpt>
      <trkpt lat="42.92595" lon="0.19026">
        <ele>1445</ele>
        <time>2019-06-23T08:17:48.059Z</time>
      </trkpt>
      <trkpt lat="42.92595" lon="0.19026">
        <ele>1445</ele>
        <time>2019-06-23T08:17:49.059Z</time>
      </trkpt>
      <trkpt lat="42.92595" lon="0.19025">
        <ele>1445</ele>
        <time>2019-06-23T08:17:50.059Z</time>
      </trkpt>
      <trkpt lat="42.92595" lon="0.19024">
        <ele>1445</ele>
        <time>2019-06-23T08:17:51.059Z</time>
      </trkpt>
      <trkpt lat="42.92596" lon="0.19024">
        <ele>1445</ele>
        <time>2019-06-23T08:17:52.059Z</time>
      </trkpt>
      <trkpt lat="42.92596" lon="0.19023">
        <ele>1445</ele>
        <time>2019-06-23T08:17:53.059Z</time>
      </trkpt>
      <trkpt lat="42.92596" lon="0.19023">
        <ele>1445</ele>
        <time>2019-06-23T08:17:54.059Z</time>
      </trkpt>
      <trkpt lat="42.92596" lon="0.19022">
        <ele>1445</ele>
        <time>2019-06-23T08:17:55.059Z</time>
      </trkpt>
      <trkpt lat="42.92596" lon="0.19022">
        <ele>1445</ele>
        <time>2019-06-23T08:17:56.059Z</time>
      </trkpt>
      <trkpt lat="42.92596" lon="0.19021">
        <ele>1445</ele>
        <time>2019-06-23T08:17:57.059Z</time>
      </trkpt>
      <trkpt lat="42.92596" lon="0.19021">
        <ele>1446</ele>
        <time>2019-06-23T08:17:58.059Z</time>
      </trkpt>
      <trkpt lat="42.92596" lon="0.1902">
        <ele>1445</ele>
        <time>2019-06-23T08:17:59.059Z</time>
      </trkpt>
      <trkpt lat="42.92597" lon="0.19019">
        <ele>1445</ele>
        <time>2019-06-23T08:18:00.059Z</time>
      </trkpt>
      <trkpt lat="42.92597" lon="0.19019">
        <ele>1445</ele>
        <time>2019-06-23T08:18:01.059Z</time>
      </trkpt>
      <trkpt lat="42.92597" lon="0.19018">
        <ele>1445</ele>
        <time>2019-06-23T08:18:02.059Z</time>
      </trkpt>
      <trkpt lat="42.92597" lon="0.19018">
        <ele>1445</ele>
        <time>2019-06-23T08:18:03.059Z</time>
      </trkpt>
      <trkpt lat="42.92597" lon="0.19017">
        <ele>1445</ele>
        <time>2019-06-23T08:18:04.059Z</time>
      </trkpt>
      <trkpt lat="42.92598" lon="0.19016">
        <ele>1445</ele>
        <time>2019-06-23T08:18:05.059Z</time>
      </trkpt>
      <trkpt lat="42.92598" lon="0.19016">
        <ele>1445</ele>
        <time>2019-06-23T08:18:06.059Z</time>
      </trkpt>
      <trkpt lat="42.92598" lon="0.19015">
        <ele>1445</ele>
        <time>2019-06-23T08:18:07.059Z</time>
      </trkpt>
      <trkpt lat="42.92598" lon="0.19014">
        <ele>1446</ele>
        <time>2019-06-23T08:18:08.059Z</time>
      </trkpt>
      <trkpt lat="42.92599" lon="0.19013">
        <ele>1446</ele>
        <time>2019-06-23T08:18:09.059Z</time>
      </trkpt>
      <trkpt lat="42.92599" lon="0.19012">
        <ele>1446</ele>
        <time>2019-06-23T08:18:10.059Z</time>
      </trkpt>
      <trkpt lat="42.92599" lon="0.19012">
        <ele>1446</ele>
        <time>2019-06-23T08:18:11.059Z</time>
      </trkpt>
      <trkpt lat="42.92599" lon="0.19011">
        <ele>1446</ele>
        <time>2019-06-23T08:18:12.059Z</time>
      </trkpt>
      <trkpt lat="42.92599" lon="0.1901">
        <ele>1447</ele>
        <time>2019-06-23T08:18:13.059Z</time>
      </trkpt>
      <trkpt lat="42.926" lon="0.1901">
        <ele>1447</ele>
        <time>2019-06-23T08:18:14.059Z</time>
      </trkpt>
      <trkpt lat="42.926" lon="0.19009">
        <ele>1447</ele>
        <time>2019-06-23T08:18:15.059Z</time>
      </trkpt>
      <trkpt lat="42.926" lon="0.19008">
        <ele>1447</ele>
        <time>2019-06-23T08:18:16.059Z</time>
      </trkpt>
      <trkpt lat="42.926" lon="0.19008">
        <ele>1447</ele>
        <time>2019-06-23T08:18:17.059Z</time>
      </trkpt>
      <trkpt lat="42.92601" lon="0.19007">
        <ele>1448</ele>
        <time>2019-06-23T08:18:18.059Z</time>
      </trkpt>
      <trkpt lat="42.92601" lon="0.19006">
        <ele>1448</ele>
        <time>2019-06-23T08:18:19.059Z</time>
      </trkpt>
      <trkpt lat="42.92601" lon="0.19006">
        <ele>1449</ele>
        <time>2019-06-23T08:18:20.059Z</time>
      </trkpt>
      <trkpt lat="42.92601" lon="0.19005">
        <ele>1448</ele>
        <time>2019-06-23T08:18:21.059Z</time>
      </trkpt>
      <trkpt lat="42.92601" lon="0.19004">
        <ele>1448</ele>
        <time>2019-06-23T08:18:22.059Z</time>
      </trkpt>
      <trkpt lat="42.92602" lon="0.19004">
        <ele>1448</ele>
        <time>2019-06-23T08:18:23.059Z</time>
      </trkpt>
      <trkpt lat="42.92602" lon="0.19003">
        <ele>1448</ele>
        <time>2019-06-23T08:18:24.059Z</time>
      </trkpt>
      <trkpt lat="42.92602" lon="0.19002">
        <ele>1448</ele>
        <time>2019-06-23T08:18:25.059Z</time>
      </trkpt>
      <trkpt lat="42.92602" lon="0.19002">
        <ele>1448</ele>
        <time>2019-06-23T08:18:26.059Z</time>
      </trkpt>
      <trkpt lat="42.92602" lon="0.19001">
        <ele>1448</ele>
        <time>2019-06-23T08:18:27.059Z</time>
      </trkpt>
      <trkpt lat="42.92603" lon="0.19001">
        <ele>1448</ele>
        <time>2019-06-23T08:18:28.059Z</time>
      </trkpt>
      <trkpt lat="42.92603" lon="0.19">
        <ele>1449</ele>
        <time>2019-06-23T08:18:29.059Z</time>
      </trkpt>
      <trkpt lat="42.92603" lon="0.19">
        <ele>1449</ele>
        <time>2019-06-23T08:18:30.059Z</time>
      </trkpt>
      <trkpt lat="42.92603" lon="0.18999">
        <ele>1449</ele>
        <time>2019-06-23T08:18:31.059Z</time>
      </trkpt>
      <trkpt lat="42.92604" lon="0.18998">
        <ele>1449</ele>
        <time>2019-06-23T08:18:32.059Z</time>
      </trkpt>
      <trkpt lat="42.92604" lon="0.18998">
        <ele>1449</ele>
        <time>2019-06-23T08:18:33.059Z</time>
      </trkpt>
      <trkpt lat="42.92604" lon="0.18997">
        <ele>1449</ele>
        <time>2019-06-23T08:18:34.059Z</time>
      </trkpt>
      <trkpt lat="42.92604" lon="0.18997">
        <ele>1449</ele>
        <time>2019-06-23T08:18:35.059Z</time>
      </trkpt>
      <trkpt lat="42.92604" lon="0.18996">
        <ele>1449</ele>
        <time>2019-06-23T08:18:36.059Z</time>
      </trkpt>
      <trkpt lat="42.92604" lon="0.18995">
        <ele>1450</ele>
        <time>2019-06-23T08:18:37.059Z</time>
      </trkpt>
      <trkpt lat="42.92604" lon="0.18995">
        <ele>1450</ele>
        <time>2019-06-23T08:18:38.059Z</time>
      </trkpt>
      <trkpt lat="42.92605" lon="0.18994">
        <ele>1450</ele>
        <time>2019-06-23T08:18:39.059Z</time>
      </trkpt>
      <trkpt lat="42.92605" lon="0.18993">
        <ele>1450</ele>
        <time>2019-06-23T08:18:40.059Z</time>
      </trkpt>
      <trkpt lat="42.92605" lon="0.18993">
        <ele>1450</ele>
        <time>2019-06-23T08:18:41.059Z</time>
      </trkpt>
      <trkpt lat="42.92605" lon="0.18992">
        <ele>1450</ele>
        <time>2019-06-23T08:18:42.059Z</time>
      </trkpt>
      <trkpt lat="42.92606" lon="0.18991">
        <ele>1450</ele>
        <time>2019-06-23T08:18:43.059Z</time>
      </trkpt>
      <trkpt lat="42.92606" lon="0.1899">
        <ele>1450</ele>
        <time>2019-06-23T08:18:44.059Z</time>
      </trkpt>
      <trkpt lat="42.92606" lon="0.1899">
        <ele>1450</ele>
        <time>2019-06-23T08:18:45.059Z</time>
      </trkpt>
      <trkpt lat="42.92606" lon="0.18989">
        <ele>1450</ele>
        <time>2019-06-23T08:18:46.059Z</time>
      </trkpt>
      <trkpt lat="42.92606" lon="0.18988">
        <ele>1451</ele>
        <time>2019-06-23T08:18:47.059Z</time>
      </trkpt>
      <trkpt lat="42.92606" lon="0.18987">
        <ele>1451</ele>
        <time>2019-06-23T08:18:48.059Z</time>
      </trkpt>
      <trkpt lat="42.92606" lon="0.18987">
        <ele>1451</ele>
        <time>2019-06-23T08:18:49.059Z</time>
      </trkpt>
      <trkpt lat="42.92606" lon="0.18986">
        <ele>1451</ele>
        <time>2019-06-23T08:18:50.059Z</time>
      </trkpt>
      <trkpt lat="42.92606" lon="0.18985">
        <ele>1451</ele>
        <time>2019-06-23T08:18:51.059Z</time>
      </trkpt>
      <trkpt lat="42.92606" lon="0.18985">
        <ele>1451</ele>
        <time>2019-06-23T08:18:52.059Z</time>
      </trkpt>
      <trkpt lat="42.92606" lon="0.18984">
        <ele>1451</ele>
        <time>2019-06-23T08:18:53.059Z</time>
      </trkpt>
      <trkpt lat="42.92606" lon="0.18983">
        <ele>1451</ele>
        <time>2019-06-23T08:18:54.059Z</time>
      </trkpt>
      <trkpt lat="42.92606" lon="0.18982">
        <ele>1451</ele>
        <time>2019-06-23T08:18:55.059Z</time>
      </trkpt>
      <trkpt lat="42.92606" lon="0.18981">
        <ele>1451</ele>
        <time>2019-06-23T08:18:56.059Z</time>
      </trkpt>
      <trkpt lat="42.92607" lon="0.18981">
        <ele>1451</ele>
        <time>2019-06-23T08:18:57.059Z</time>
      </trkpt>
      <trkpt lat="42.92607" lon="0.1898">
        <ele>1451</ele>
        <time>2019-06-23T08:18:58.059Z</time>
      </trkpt>
      <trkpt lat="42.92607" lon="0.18979">
        <ele>1450</ele>
        <time>2019-06-23T08:18:59.059Z</time>
      </trkpt>
      <trkpt lat="42.92607" lon="0.18979">
        <ele>1450</ele>
        <time>2019-06-23T08:19:00.059Z</time>
      </trkpt>
      <trkpt lat="42.92607" lon="0.18978">
        <ele>1450</ele>
        <time>2019-06-23T08:19:01.059Z</time>
      </trkpt>
      <trkpt lat="42.92607" lon="0.18978">
        <ele>1450</ele>
        <time>2019-06-23T08:19:02.059Z</time>
      </trkpt>
      <trkpt lat="42.92607" lon="0.18977">
        <ele>1451</ele>
        <time>2019-06-23T08:19:03.059Z</time>
      </trkpt>
      <trkpt lat="42.92607" lon="0.18977">
        <ele>1452</ele>
        <time>2019-06-23T08:19:04.059Z</time>
      </trkpt>
      <trkpt lat="42.92606" lon="0.18976">
        <ele>1452</ele>
        <time>2019-06-23T08:19:05.059Z</time>
      </trkpt>
      <trkpt lat="42.92606" lon="0.18976">
        <ele>1453</ele>
        <time>2019-06-23T08:19:06.059Z</time>
      </trkpt>
      <trkpt lat="42.92606" lon="0.18975">
        <ele>1453</ele>
        <time>2019-06-23T08:19:07.059Z</time>
      </trkpt>
      <trkpt lat="42.92606" lon="0.18975">
        <ele>1453</ele>
        <time>2019-06-23T08:19:08.059Z</time>
      </trkpt>
      <trkpt lat="42.92606" lon="0.18974">
        <ele>1453</ele>
        <time>2019-06-23T08:19:09.059Z</time>
      </trkpt>
      <trkpt lat="42.92606" lon="0.18973">
        <ele>1453</ele>
        <time>2019-06-23T08:19:10.059Z</time>
      </trkpt>
      <trkpt lat="42.92606" lon="0.18972">
        <ele>1453</ele>
        <time>2019-06-23T08:19:11.059Z</time>
      </trkpt>
      <trkpt lat="42.92605" lon="0.18972">
        <ele>1454</ele>
        <time>2019-06-23T08:19:12.059Z</time>
      </trkpt>
      <trkpt lat="42.92605" lon="0.18971">
        <ele>1454</ele>
        <time>2019-06-23T08:19:13.059Z</time>
      </trkpt>
      <trkpt lat="42.92605" lon="0.1897">
        <ele>1454</ele>
        <time>2019-06-23T08:19:14.059Z</time>
      </trkpt>
      <trkpt lat="42.92605" lon="0.18969">
        <ele>1454</ele>
        <time>2019-06-23T08:19:15.059Z</time>
      </trkpt>
      <trkpt lat="42.92605" lon="0.18969">
        <ele>1454</ele>
        <time>2019-06-23T08:19:16.059Z</time>
      </trkpt>
      <trkpt lat="42.92605" lon="0.18968">
        <ele>1454</ele>
        <time>2019-06-23T08:19:17.059Z</time>
      </trkpt>
      <trkpt lat="42.92605" lon="0.18968">
        <ele>1454</ele>
        <time>2019-06-23T08:19:18.059Z</time>
      </trkpt>
      <trkpt lat="42.92605" lon="0.18967">
        <ele>1454</ele>
        <time>2019-06-23T08:19:19.059Z</time>
      </trkpt>
      <trkpt lat="42.92605" lon="0.18966">
        <ele>1455</ele>
        <time>2019-06-23T08:19:20.059Z</time>
      </trkpt>
      <trkpt lat="42.92605" lon="0.18966">
        <ele>1455</ele>
        <time>2019-06-23T08:19:21.059Z</time>
      </trkpt>
      <trkpt lat="42.92605" lon="0.18965">
        <ele>1455</ele>
        <time>2019-06-23T08:19:22.059Z</time>
      </trkpt>
      <trkpt lat="42.92605" lon="0.18964">
        <ele>1455</ele>
        <time>2019-06-23T08:19:23.059Z</time>
      </trkpt>
      <trkpt lat="42.92605" lon="0.18964">
        <ele>1456</ele>
        <time>2019-06-23T08:19:24.059Z</time>
      </trkpt>
      <trkpt lat="42.92605" lon="0.18963">
        <ele>1456</ele>
        <time>2019-06-23T08:19:25.059Z</time>
      </trkpt>
      <trkpt lat="42.92605" lon="0.18962">
        <ele>1455</ele>
        <time>2019-06-23T08:19:26.059Z</time>
      </trkpt>
      <trkpt lat="42.92605" lon="0.18962">
        <ele>1455</ele>
        <time>2019-06-23T08:19:27.059Z</time>
      </trkpt>
      <trkpt lat="42.92605" lon="0.18961">
        <ele>1455</ele>
        <time>2019-06-23T08:19:28.059Z</time>
      </trkpt>
      <trkpt lat="42.92605" lon="0.1896">
        <ele>1455</ele>
        <time>2019-06-23T08:19:29.059Z</time>
      </trkpt>
      <trkpt lat="42.92605" lon="0.18959">
        <ele>1455</ele>
        <time>2019-06-23T08:19:30.059Z</time>
      </trkpt>
      <trkpt lat="42.92605" lon="0.18959">
        <ele>1455</ele>
        <time>2019-06-23T08:19:31.059Z</time>
      </trkpt>
      <trkpt lat="42.92605" lon="0.18958">
        <ele>1455</ele>
        <time>2019-06-23T08:19:32.059Z</time>
      </trkpt>
      <trkpt lat="42.92605" lon="0.18958">
        <ele>1455</ele>
        <time>2019-06-23T08:19:33.059Z</time>
      </trkpt>
      <trkpt lat="42.92605" lon="0.18957">
        <ele>1455</ele>
        <time>2019-06-23T08:19:34.059Z</time>
      </trkpt>
      <trkpt lat="42.92605" lon="0.18957">
        <ele>1456</ele>
        <time>2019-06-23T08:19:35.059Z</time>
      </trkpt>
      <trkpt lat="42.92605" lon="0.18956">
        <ele>1456</ele>
        <time>2019-06-23T08:19:36.059Z</time>
      </trkpt>
      <trkpt lat="42.92605" lon="0.18955">
        <ele>1456</ele>
        <time>2019-06-23T08:19:37.059Z</time>
      </trkpt>
      <trkpt lat="42.92605" lon="0.18954">
        <ele>1456</ele>
        <time>2019-06-23T08:19:38.059Z</time>
      </trkpt>
      <trkpt lat="42.92605" lon="0.18954">
        <ele>1456</ele>
        <time>2019-06-23T08:19:39.059Z</time>
      </trkpt>
      <trkpt lat="42.92605" lon="0.18954">
        <ele>1456</ele>
        <time>2019-06-23T08:19:40.059Z</time>
      </trkpt>
      <trkpt lat="42.92605" lon="0.18953">
        <ele>1457</ele>
        <time>2019-06-23T08:19:41.059Z</time>
      </trkpt>
      <trkpt lat="42.92605" lon="0.18953">
        <ele>1457</ele>
        <time>2019-06-23T08:19:42.059Z</time>
      </trkpt>
      <trkpt lat="42.92605" lon="0.18953">
        <ele>1457</ele>
        <time>2019-06-23T08:19:43.059Z</time>
      </trkpt>
      <trkpt lat="42.92605" lon="0.18952">
        <ele>1456</ele>
        <time>2019-06-23T08:19:44.059Z</time>
      </trkpt>
      <trkpt lat="42.92605" lon="0.18952">
        <ele>1456</ele>
        <time>2019-06-23T08:19:45.059Z</time>
      </trkpt>
      <trkpt lat="42.92605" lon="0.18951">
        <ele>1456</ele>
        <time>2019-06-23T08:19:46.059Z</time>
      </trkpt>
      <trkpt lat="42.92606" lon="0.1895">
        <ele>1457</ele>
        <time>2019-06-23T08:19:47.059Z</time>
      </trkpt>
      <trkpt lat="42.92606" lon="0.1895">
        <ele>1457</ele>
        <time>2019-06-23T08:19:48.059Z</time>
      </trkpt>
      <trkpt lat="42.92606" lon="0.18949">
        <ele>1457</ele>
        <time>2019-06-23T08:19:49.059Z</time>
      </trkpt>
      <trkpt lat="42.92606" lon="0.18949">
        <ele>1457</ele>
        <time>2019-06-23T08:19:50.059Z</time>
      </trkpt>
      <trkpt lat="42.92606" lon="0.18948">
        <ele>1457</ele>
        <time>2019-06-23T08:19:51.059Z</time>
      </trkpt>
      <trkpt lat="42.92606" lon="0.18947">
        <ele>1458</ele>
        <time>2019-06-23T08:19:52.059Z</time>
      </trkpt>
      <trkpt lat="42.92606" lon="0.18946">
        <ele>1458</ele>
        <time>2019-06-23T08:19:53.059Z</time>
      </trkpt>
      <trkpt lat="42.92606" lon="0.18946">
        <ele>1458</ele>
        <time>2019-06-23T08:19:54.059Z</time>
      </trkpt>
      <trkpt lat="42.92607" lon="0.18945">
        <ele>1458</ele>
        <time>2019-06-23T08:19:55.059Z</time>
      </trkpt>
      <trkpt lat="42.92607" lon="0.18944">
        <ele>1458</ele>
        <time>2019-06-23T08:19:56.059Z</time>
      </trkpt>
      <trkpt lat="42.92607" lon="0.18944">
        <ele>1458</ele>
        <time>2019-06-23T08:19:57.059Z</time>
      </trkpt>
      <trkpt lat="42.92607" lon="0.18943">
        <ele>1458</ele>
        <time>2019-06-23T08:19:58.059Z</time>
      </trkpt>
      <trkpt lat="42.92607" lon="0.18943">
        <ele>1458</ele>
        <time>2019-06-23T08:19:59.059Z</time>
      </trkpt>
      <trkpt lat="42.92607" lon="0.18942">
        <ele>1459</ele>
        <time>2019-06-23T08:20:00.059Z</time>
      </trkpt>
      <trkpt lat="42.92608" lon="0.18941">
        <ele>1459</ele>
        <time>2019-06-23T08:20:01.059Z</time>
      </trkpt>
      <trkpt lat="42.92608" lon="0.18941">
        <ele>1459</ele>
        <time>2019-06-23T08:20:02.059Z</time>
      </trkpt>
      <trkpt lat="42.92608" lon="0.1894">
        <ele>1459</ele>
        <time>2019-06-23T08:20:03.059Z</time>
      </trkpt>
      <trkpt lat="42.92608" lon="0.18939">
        <ele>1459</ele>
        <time>2019-06-23T08:20:04.059Z</time>
      </trkpt>
      <trkpt lat="42.92609" lon="0.18939">
        <ele>1459</ele>
        <time>2019-06-23T08:20:05.059Z</time>
      </trkpt>
      <trkpt lat="42.92609" lon="0.18938">
        <ele>1459</ele>
        <time>2019-06-23T08:20:06.059Z</time>
      </trkpt>
      <trkpt lat="42.92609" lon="0.18937">
        <ele>1459</ele>
        <time>2019-06-23T08:20:07.059Z</time>
      </trkpt>
      <trkpt lat="42.92609" lon="0.18936">
        <ele>1459</ele>
        <time>2019-06-23T08:20:08.059Z</time>
      </trkpt>
      <trkpt lat="42.92609" lon="0.18936">
        <ele>1460</ele>
        <time>2019-06-23T08:20:09.059Z</time>
      </trkpt>
      <trkpt lat="42.92609" lon="0.18935">
        <ele>1460</ele>
        <time>2019-06-23T08:20:10.059Z</time>
      </trkpt>
      <trkpt lat="42.92609" lon="0.18934">
        <ele>1460</ele>
        <time>2019-06-23T08:20:11.059Z</time>
      </trkpt>
      <trkpt lat="42.92609" lon="0.18934">
        <ele>1460</ele>
        <time>2019-06-23T08:20:12.059Z</time>
      </trkpt>
      <trkpt lat="42.92609" lon="0.18933">
        <ele>1460</ele>
        <time>2019-06-23T08:20:13.059Z</time>
      </trkpt>
      <trkpt lat="42.92609" lon="0.18932">
        <ele>1460</ele>
        <time>2019-06-23T08:20:14.059Z</time>
      </trkpt>
      <trkpt lat="42.92609" lon="0.18931">
        <ele>1460</ele>
        <time>2019-06-23T08:20:15.059Z</time>
      </trkpt>
      <trkpt lat="42.92609" lon="0.1893">
        <ele>1460</ele>
        <time>2019-06-23T08:20:16.059Z</time>
      </trkpt>
      <trkpt lat="42.92609" lon="0.18929">
        <ele>1459</ele>
        <time>2019-06-23T08:20:17.059Z</time>
      </trkpt>
      <trkpt lat="42.92609" lon="0.18929">
        <ele>1460</ele>
        <time>2019-06-23T08:20:18.059Z</time>
      </trkpt>
      <trkpt lat="42.92609" lon="0.18928">
        <ele>1460</ele>
        <time>2019-06-23T08:20:19.059Z</time>
      </trkpt>
      <trkpt lat="42.92609" lon="0.18928">
        <ele>1459</ele>
        <time>2019-06-23T08:20:20.059Z</time>
      </trkpt>
      <trkpt lat="42.92609" lon="0.18927">
        <ele>1460</ele>
        <time>2019-06-23T08:20:21.059Z</time>
      </trkpt>
      <trkpt lat="42.92609" lon="0.18926">
        <ele>1460</ele>
        <time>2019-06-23T08:20:22.059Z</time>
      </trkpt>
      <trkpt lat="42.92609" lon="0.18926">
        <ele>1459</ele>
        <time>2019-06-23T08:20:23.059Z</time>
      </trkpt>
      <trkpt lat="42.92609" lon="0.18925">
        <ele>1459</ele>
        <time>2019-06-23T08:20:24.059Z</time>
      </trkpt>
      <trkpt lat="42.92609" lon="0.18924">
        <ele>1460</ele>
        <time>2019-06-23T08:20:25.059Z</time>
      </trkpt>
      <trkpt lat="42.92609" lon="0.18923">
        <ele>1460</ele>
        <time>2019-06-23T08:20:26.059Z</time>
      </trkpt>
      <trkpt lat="42.92609" lon="0.18923">
        <ele>1460</ele>
        <time>2019-06-23T08:20:27.059Z</time>
      </trkpt>
      <trkpt lat="42.92609" lon="0.18922">
        <ele>1460</ele>
        <time>2019-06-23T08:20:28.059Z</time>
      </trkpt>
      <trkpt lat="42.92609" lon="0.18921">
        <ele>1460</ele>
        <time>2019-06-23T08:20:29.059Z</time>
      </trkpt>
      <trkpt lat="42.92609" lon="0.1892">
        <ele>1460</ele>
        <time>2019-06-23T08:20:30.059Z</time>
      </trkpt>
      <trkpt lat="42.92609" lon="0.1892">
        <ele>1460</ele>
        <time>2019-06-23T08:20:31.059Z</time>
      </trkpt>
      <trkpt lat="42.92609" lon="0.18919">
        <ele>1460</ele>
        <time>2019-06-23T08:20:32.059Z</time>
      </trkpt>
      <trkpt lat="42.92609" lon="0.18918">
        <ele>1460</ele>
        <time>2019-06-23T08:20:33.059Z</time>
      </trkpt>
      <trkpt lat="42.92609" lon="0.18918">
        <ele>1460</ele>
        <time>2019-06-23T08:20:34.059Z</time>
      </trkpt>
      <trkpt lat="42.92609" lon="0.18917">
        <ele>1460</ele>
        <time>2019-06-23T08:20:35.059Z</time>
      </trkpt>
      <trkpt lat="42.92609" lon="0.18916">
        <ele>1460</ele>
        <time>2019-06-23T08:20:36.059Z</time>
      </trkpt>
      <trkpt lat="42.92609" lon="0.18916">
        <ele>1460</ele>
        <time>2019-06-23T08:20:37.059Z</time>
      </trkpt>
      <trkpt lat="42.92608" lon="0.18915">
        <ele>1460</ele>
        <time>2019-06-23T08:20:38.059Z</time>
      </trkpt>
      <trkpt lat="42.92608" lon="0.18914">
        <ele>1460</ele>
        <time>2019-06-23T08:20:39.059Z</time>
      </trkpt>
      <trkpt lat="42.92608" lon="0.18913">
        <ele>1460</ele>
        <time>2019-06-23T08:20:40.059Z</time>
      </trkpt>
      <trkpt lat="42.92608" lon="0.18912">
        <ele>1461</ele>
        <time>2019-06-23T08:20:41.059Z</time>
      </trkpt>
      <trkpt lat="42.92608" lon="0.18912">
        <ele>1461</ele>
        <time>2019-06-23T08:20:42.059Z</time>
      </trkpt>
      <trkpt lat="42.92608" lon="0.18911">
        <ele>1461</ele>
        <time>2019-06-23T08:20:43.059Z</time>
      </trkpt>
      <trkpt lat="42.92607" lon="0.1891">
        <ele>1461</ele>
        <time>2019-06-23T08:20:44.059Z</time>
      </trkpt>
      <trkpt lat="42.92607" lon="0.18909">
        <ele>1462</ele>
        <time>2019-06-23T08:20:45.059Z</time>
      </trkpt>
      <trkpt lat="42.92607" lon="0.18909">
        <ele>1462</ele>
        <time>2019-06-23T08:20:46.059Z</time>
      </trkpt>
      <trkpt lat="42.92607" lon="0.18908">
        <ele>1461</ele>
        <time>2019-06-23T08:20:47.059Z</time>
      </trkpt>
      <trkpt lat="42.92607" lon="0.18907">
        <ele>1461</ele>
        <time>2019-06-23T08:20:48.059Z</time>
      </trkpt>
      <trkpt lat="42.92607" lon="0.18906">
        <ele>1461</ele>
        <time>2019-06-23T08:20:49.059Z</time>
      </trkpt>
      <trkpt lat="42.92607" lon="0.18905">
        <ele>1461</ele>
        <time>2019-06-23T08:20:50.059Z</time>
      </trkpt>
      <trkpt lat="42.92607" lon="0.18904">
        <ele>1461</ele>
        <time>2019-06-23T08:20:51.059Z</time>
      </trkpt>
      <trkpt lat="42.92607" lon="0.18904">
        <ele>1461</ele>
        <time>2019-06-23T08:20:52.059Z</time>
      </trkpt>
      <trkpt lat="42.92607" lon="0.18903">
        <ele>1461</ele>
        <time>2019-06-23T08:20:53.059Z</time>
      </trkpt>
      <trkpt lat="42.92607" lon="0.18902">
        <ele>1461</ele>
        <time>2019-06-23T08:20:54.059Z</time>
      </trkpt>
      <trkpt lat="42.92607" lon="0.18902">
        <ele>1461</ele>
        <time>2019-06-23T08:20:55.059Z</time>
      </trkpt>
      <trkpt lat="42.92607" lon="0.18901">
        <ele>1461</ele>
        <time>2019-06-23T08:20:56.059Z</time>
      </trkpt>
      <trkpt lat="42.92607" lon="0.189">
        <ele>1461</ele>
        <time>2019-06-23T08:20:57.059Z</time>
      </trkpt>
      <trkpt lat="42.92607" lon="0.189">
        <ele>1461</ele>
        <time>2019-06-23T08:20:58.059Z</time>
      </trkpt>
      <trkpt lat="42.92606" lon="0.18899">
        <ele>1461</ele>
        <time>2019-06-23T08:20:59.059Z</time>
      </trkpt>
      <trkpt lat="42.92606" lon="0.18898">
        <ele>1462</ele>
        <time>2019-06-23T08:21:00.059Z</time>
      </trkpt>
      <trkpt lat="42.92606" lon="0.18897">
        <ele>1462</ele>
        <time>2019-06-23T08:21:01.059Z</time>
      </trkpt>
      <trkpt lat="42.92606" lon="0.18896">
        <ele>1462</ele>
        <time>2019-06-23T08:21:02.059Z</time>
      </trkpt>
      <trkpt lat="42.92606" lon="0.18896">
        <ele>1462</ele>
        <time>2019-06-23T08:21:03.059Z</time>
      </trkpt>
      <trkpt lat="42.92605" lon="0.18895">
        <ele>1462</ele>
        <time>2019-06-23T08:21:04.059Z</time>
      </trkpt>
      <trkpt lat="42.92605" lon="0.18894">
        <ele>1462</ele>
        <time>2019-06-23T08:21:05.059Z</time>
      </trkpt>
      <trkpt lat="42.92605" lon="0.18894">
        <ele>1462</ele>
        <time>2019-06-23T08:21:06.059Z</time>
      </trkpt>
      <trkpt lat="42.92605" lon="0.18893">
        <ele>1462</ele>
        <time>2019-06-23T08:21:07.059Z</time>
      </trkpt>
      <trkpt lat="42.92605" lon="0.18892">
        <ele>1462</ele>
        <time>2019-06-23T08:21:08.059Z</time>
      </trkpt>
      <trkpt lat="42.92604" lon="0.18891">
        <ele>1462</ele>
        <time>2019-06-23T08:21:09.059Z</time>
      </trkpt>
      <trkpt lat="42.92604" lon="0.18891">
        <ele>1462</ele>
        <time>2019-06-23T08:21:10.059Z</time>
      </trkpt>
      <trkpt lat="42.92604" lon="0.1889">
        <ele>1462</ele>
        <time>2019-06-23T08:21:11.059Z</time>
      </trkpt>
      <trkpt lat="42.92603" lon="0.18889">
        <ele>1462</ele>
        <time>2019-06-23T08:21:12.059Z</time>
      </trkpt>
      <trkpt lat="42.92603" lon="0.18889">
        <ele>1463</ele>
        <time>2019-06-23T08:21:13.059Z</time>
      </trkpt>
      <trkpt lat="42.92603" lon="0.18888">
        <ele>1463</ele>
        <time>2019-06-23T08:21:14.059Z</time>
      </trkpt>
      <trkpt lat="42.92603" lon="0.18887">
        <ele>1464</ele>
        <time>2019-06-23T08:21:15.059Z</time>
      </trkpt>
      <trkpt lat="42.92603" lon="0.18887">
        <ele>1464</ele>
        <time>2019-06-23T08:21:16.059Z</time>
      </trkpt>
      <trkpt lat="42.92603" lon="0.18887">
        <ele>1464</ele>
        <time>2019-06-23T08:21:17.059Z</time>
      </trkpt>
      <trkpt lat="42.92603" lon="0.18886">
        <ele>1464</ele>
        <time>2019-06-23T08:21:18.059Z</time>
      </trkpt>
      <trkpt lat="42.92603" lon="0.18886">
        <ele>1464</ele>
        <time>2019-06-23T08:21:19.059Z</time>
      </trkpt>
      <trkpt lat="42.92603" lon="0.18885">
        <ele>1464</ele>
        <time>2019-06-23T08:21:20.059Z</time>
      </trkpt>
      <trkpt lat="42.92602" lon="0.18884">
        <ele>1463</ele>
        <time>2019-06-23T08:21:21.059Z</time>
      </trkpt>
      <trkpt lat="42.92602" lon="0.18884">
        <ele>1463</ele>
        <time>2019-06-23T08:21:22.059Z</time>
      </trkpt>
      <trkpt lat="42.92602" lon="0.18883">
        <ele>1463</ele>
        <time>2019-06-23T08:21:23.059Z</time>
      </trkpt>
      <trkpt lat="42.92602" lon="0.18882">
        <ele>1464</ele>
        <time>2019-06-23T08:21:24.059Z</time>
      </trkpt>
      <trkpt lat="42.92602" lon="0.18882">
        <ele>1464</ele>
        <time>2019-06-23T08:21:25.059Z</time>
      </trkpt>
      <trkpt lat="42.92601" lon="0.18881">
        <ele>1464</ele>
        <time>2019-06-23T08:21:26.059Z</time>
      </trkpt>
      <trkpt lat="42.92601" lon="0.1888">
        <ele>1464</ele>
        <time>2019-06-23T08:21:27.059Z</time>
      </trkpt>
      <trkpt lat="42.92601" lon="0.1888">
        <ele>1464</ele>
        <time>2019-06-23T08:21:28.059Z</time>
      </trkpt>
      <trkpt lat="42.92601" lon="0.18879">
        <ele>1464</ele>
        <time>2019-06-23T08:21:29.059Z</time>
      </trkpt>
      <trkpt lat="42.926" lon="0.18878">
        <ele>1464</ele>
        <time>2019-06-23T08:21:30.059Z</time>
      </trkpt>
      <trkpt lat="42.926" lon="0.18878">
        <ele>1464</ele>
        <time>2019-06-23T08:21:31.059Z</time>
      </trkpt>
      <trkpt lat="42.926" lon="0.18877">
        <ele>1464</ele>
        <time>2019-06-23T08:21:32.059Z</time>
      </trkpt>
      <trkpt lat="42.926" lon="0.18876">
        <ele>1464</ele>
        <time>2019-06-23T08:21:33.059Z</time>
      </trkpt>
      <trkpt lat="42.92599" lon="0.18876">
        <ele>1464</ele>
        <time>2019-06-23T08:21:34.059Z</time>
      </trkpt>
      <trkpt lat="42.92599" lon="0.18875">
        <ele>1464</ele>
        <time>2019-06-23T08:21:35.059Z</time>
      </trkpt>
      <trkpt lat="42.92599" lon="0.18875">
        <ele>1465</ele>
        <time>2019-06-23T08:21:36.059Z</time>
      </trkpt>
      <trkpt lat="42.92599" lon="0.18874">
        <ele>1464</ele>
        <time>2019-06-23T08:21:37.059Z</time>
      </trkpt>
      <trkpt lat="42.92598" lon="0.18873">
        <ele>1464</ele>
        <time>2019-06-23T08:21:38.059Z</time>
      </trkpt>
      <trkpt lat="42.92598" lon="0.18873">
        <ele>1464</ele>
        <time>2019-06-23T08:21:39.059Z</time>
      </trkpt>
      <trkpt lat="42.92598" lon="0.18872">
        <ele>1465</ele>
        <time>2019-06-23T08:21:40.059Z</time>
      </trkpt>
      <trkpt lat="42.92598" lon="0.18872">
        <ele>1465</ele>
        <time>2019-06-23T08:21:41.059Z</time>
      </trkpt>
      <trkpt lat="42.92597" lon="0.18871">
        <ele>1465</ele>
        <time>2019-06-23T08:21:42.059Z</time>
      </trkpt>
      <trkpt lat="42.92597" lon="0.1887">
        <ele>1465</ele>
        <time>2019-06-23T08:21:43.059Z</time>
      </trkpt>
      <trkpt lat="42.92597" lon="0.18869">
        <ele>1465</ele>
        <time>2019-06-23T08:21:44.059Z</time>
      </trkpt>
      <trkpt lat="42.92596" lon="0.18869">
        <ele>1465</ele>
        <time>2019-06-23T08:21:45.059Z</time>
      </trkpt>
      <trkpt lat="42.92596" lon="0.18868">
        <ele>1465</ele>
        <time>2019-06-23T08:21:46.059Z</time>
      </trkpt>
      <trkpt lat="42.92596" lon="0.18867">
        <ele>1465</ele>
        <time>2019-06-23T08:21:47.059Z</time>
      </trkpt>
      <trkpt lat="42.92595" lon="0.18866">
        <ele>1464</ele>
        <time>2019-06-23T08:21:48.059Z</time>
      </trkpt>
      <trkpt lat="42.92595" lon="0.18866">
        <ele>1464</ele>
        <time>2019-06-23T08:21:49.059Z</time>
      </trkpt>
      <trkpt lat="42.92595" lon="0.18865">
        <ele>1464</ele>
        <time>2019-06-23T08:21:50.059Z</time>
      </trkpt>
      <trkpt lat="42.92595" lon="0.18865">
        <ele>1464</ele>
        <time>2019-06-23T08:21:51.059Z</time>
      </trkpt>
      <trkpt lat="42.92594" lon="0.18864">
        <ele>1464</ele>
        <time>2019-06-23T08:21:52.059Z</time>
      </trkpt>
      <trkpt lat="42.92594" lon="0.18863">
        <ele>1464</ele>
        <time>2019-06-23T08:21:53.059Z</time>
      </trkpt>
      <trkpt lat="42.92594" lon="0.18863">
        <ele>1466</ele>
        <time>2019-06-23T08:21:54.059Z</time>
      </trkpt>
      <trkpt lat="42.92593" lon="0.18862">
        <ele>1465</ele>
        <time>2019-06-23T08:21:55.059Z</time>
      </trkpt>
      <trkpt lat="42.92593" lon="0.18861">
        <ele>1466</ele>
        <time>2019-06-23T08:21:56.059Z</time>
      </trkpt>
      <trkpt lat="42.92593" lon="0.18861">
        <ele>1466</ele>
        <time>2019-06-23T08:21:57.059Z</time>
      </trkpt>
      <trkpt lat="42.92592" lon="0.1886">
        <ele>1466</ele>
        <time>2019-06-23T08:21:58.059Z</time>
      </trkpt>
      <trkpt lat="42.92592" lon="0.18859">
        <ele>1466</ele>
        <time>2019-06-23T08:21:59.059Z</time>
      </trkpt>
      <trkpt lat="42.92592" lon="0.18859">
        <ele>1467</ele>
        <time>2019-06-23T08:22:00.059Z</time>
      </trkpt>
      <trkpt lat="42.92592" lon="0.18858">
        <ele>1467</ele>
        <time>2019-06-23T08:22:01.059Z</time>
      </trkpt>
      <trkpt lat="42.92591" lon="0.18858">
        <ele>1467</ele>
        <time>2019-06-23T08:22:02.059Z</time>
      </trkpt>
      <trkpt lat="42.92591" lon="0.18857">
        <ele>1467</ele>
        <time>2019-06-23T08:22:03.059Z</time>
      </trkpt>
      <trkpt lat="42.92591" lon="0.18856">
        <ele>1467</ele>
        <time>2019-06-23T08:22:04.059Z</time>
      </trkpt>
      <trkpt lat="42.92591" lon="0.18856">
        <ele>1467</ele>
        <time>2019-06-23T08:22:05.059Z</time>
      </trkpt>
      <trkpt lat="42.92592" lon="0.18855">
        <ele>1467</ele>
        <time>2019-06-23T08:22:06.059Z</time>
      </trkpt>
      <trkpt lat="42.92591" lon="0.18855">
        <ele>1466</ele>
        <time>2019-06-23T08:22:07.059Z</time>
      </trkpt>
      <trkpt lat="42.92591" lon="0.18855">
        <ele>1466</ele>
        <time>2019-06-23T08:22:08.059Z</time>
      </trkpt>
      <trkpt lat="42.92591" lon="0.18854">
        <ele>1466</ele>
        <time>2019-06-23T08:22:09.059Z</time>
      </trkpt>
      <trkpt lat="42.92592" lon="0.18854">
        <ele>1466</ele>
        <time>2019-06-23T08:22:10.059Z</time>
      </trkpt>
      <trkpt lat="42.92592" lon="0.18854">
        <ele>1466</ele>
        <time>2019-06-23T08:22:11.059Z</time>
      </trkpt>
      <trkpt lat="42.92592" lon="0.18851">
        <ele>1468</ele>
        <time>2019-06-23T08:22:12.063Z</time>
      </trkpt>
      <trkpt lat="42.92591" lon="0.18851">
        <ele>1468</ele>
        <time>2019-06-23T08:22:13.063Z</time>
      </trkpt>
      <trkpt lat="42.92591" lon="0.1885">
        <ele>1467</ele>
        <time>2019-06-23T08:22:14.063Z</time>
      </trkpt>
      <trkpt lat="42.92591" lon="0.1885">
        <ele>1468</ele>
        <time>2019-06-23T08:22:15.063Z</time>
      </trkpt>
      <trkpt lat="42.92591" lon="0.18849">
        <ele>1468</ele>
        <time>2019-06-23T08:22:16.063Z</time>
      </trkpt>
      <trkpt lat="42.92591" lon="0.18848">
        <ele>1468</ele>
        <time>2019-06-23T08:22:17.063Z</time>
      </trkpt>
      <trkpt lat="42.92591" lon="0.18848">
        <ele>1468</ele>
        <time>2019-06-23T08:22:18.063Z</time>
      </trkpt>
      <trkpt lat="42.9259" lon="0.18847">
        <ele>1468</ele>
        <time>2019-06-23T08:22:19.063Z</time>
      </trkpt>
      <trkpt lat="42.9259" lon="0.18846">
        <ele>1468</ele>
        <time>2019-06-23T08:22:20.063Z</time>
      </trkpt>
      <trkpt lat="42.9259" lon="0.18846">
        <ele>1468</ele>
        <time>2019-06-23T08:22:21.063Z</time>
      </trkpt>
      <trkpt lat="42.9259" lon="0.18845">
        <ele>1469</ele>
        <time>2019-06-23T08:22:22.063Z</time>
      </trkpt>
      <trkpt lat="42.9259" lon="0.18844">
        <ele>1469</ele>
        <time>2019-06-23T08:22:23.063Z</time>
      </trkpt>
      <trkpt lat="42.92589" lon="0.18844">
        <ele>1469</ele>
        <time>2019-06-23T08:22:24.063Z</time>
      </trkpt>
      <trkpt lat="42.92589" lon="0.18843">
        <ele>1469</ele>
        <time>2019-06-23T08:22:25.063Z</time>
      </trkpt>
      <trkpt lat="42.92589" lon="0.18842">
        <ele>1468</ele>
        <time>2019-06-23T08:22:26.063Z</time>
      </trkpt>
      <trkpt lat="42.92589" lon="0.18842">
        <ele>1468</ele>
        <time>2019-06-23T08:22:27.063Z</time>
      </trkpt>
      <trkpt lat="42.92589" lon="0.18841">
        <ele>1468</ele>
        <time>2019-06-23T08:22:28.063Z</time>
      </trkpt>
      <trkpt lat="42.92589" lon="0.18841">
        <ele>1468</ele>
        <time>2019-06-23T08:22:29.063Z</time>
      </trkpt>
      <trkpt lat="42.92589" lon="0.1884">
        <ele>1468</ele>
        <time>2019-06-23T08:22:30.063Z</time>
      </trkpt>
      <trkpt lat="42.92589" lon="0.18839">
        <ele>1468</ele>
        <time>2019-06-23T08:22:31.063Z</time>
      </trkpt>
      <trkpt lat="42.92589" lon="0.18839">
        <ele>1469</ele>
        <time>2019-06-23T08:22:32.063Z</time>
      </trkpt>
      <trkpt lat="42.92589" lon="0.18838">
        <ele>1469</ele>
        <time>2019-06-23T08:22:33.063Z</time>
      </trkpt>
      <trkpt lat="42.92589" lon="0.18838">
        <ele>1469</ele>
        <time>2019-06-23T08:22:34.063Z</time>
      </trkpt>
      <trkpt lat="42.92589" lon="0.18837">
        <ele>1469</ele>
        <time>2019-06-23T08:22:35.063Z</time>
      </trkpt>
      <trkpt lat="42.92589" lon="0.18837">
        <ele>1468</ele>
        <time>2019-06-23T08:22:36.063Z</time>
      </trkpt>
      <trkpt lat="42.92589" lon="0.18836">
        <ele>1469</ele>
        <time>2019-06-23T08:22:37.063Z</time>
      </trkpt>
      <trkpt lat="42.92589" lon="0.18835">
        <ele>1469</ele>
        <time>2019-06-23T08:22:38.063Z</time>
      </trkpt>
      <trkpt lat="42.92589" lon="0.18834">
        <ele>1470</ele>
        <time>2019-06-23T08:22:39.063Z</time>
      </trkpt>
      <trkpt lat="42.92589" lon="0.18834">
        <ele>1470</ele>
        <time>2019-06-23T08:22:40.063Z</time>
      </trkpt>
      <trkpt lat="42.92589" lon="0.18833">
        <ele>1471</ele>
        <time>2019-06-23T08:22:41.063Z</time>
      </trkpt>
      <trkpt lat="42.92589" lon="0.18832">
        <ele>1471</ele>
        <time>2019-06-23T08:22:42.063Z</time>
      </trkpt>
      <trkpt lat="42.92589" lon="0.18831">
        <ele>1471</ele>
        <time>2019-06-23T08:22:43.063Z</time>
      </trkpt>
      <trkpt lat="42.92589" lon="0.18831">
        <ele>1471</ele>
        <time>2019-06-23T08:22:44.063Z</time>
      </trkpt>
      <trkpt lat="42.92589" lon="0.1883">
        <ele>1471</ele>
        <time>2019-06-23T08:22:45.063Z</time>
      </trkpt>
      <trkpt lat="42.92589" lon="0.18829">
        <ele>1471</ele>
        <time>2019-06-23T08:22:46.063Z</time>
      </trkpt>
      <trkpt lat="42.92589" lon="0.18829">
        <ele>1471</ele>
        <time>2019-06-23T08:22:47.063Z</time>
      </trkpt>
      <trkpt lat="42.92589" lon="0.18828">
        <ele>1471</ele>
        <time>2019-06-23T08:22:48.063Z</time>
      </trkpt>
      <trkpt lat="42.92589" lon="0.18828">
        <ele>1471</ele>
        <time>2019-06-23T08:22:49.063Z</time>
      </trkpt>
      <trkpt lat="42.92589" lon="0.18827">
        <ele>1472</ele>
        <time>2019-06-23T08:22:50.063Z</time>
      </trkpt>
      <trkpt lat="42.92589" lon="0.18827">
        <ele>1472</ele>
        <time>2019-06-23T08:22:51.063Z</time>
      </trkpt>
      <trkpt lat="42.92589" lon="0.18826">
        <ele>1472</ele>
        <time>2019-06-23T08:22:52.063Z</time>
      </trkpt>
      <trkpt lat="42.9259" lon="0.18826">
        <ele>1472</ele>
        <time>2019-06-23T08:22:53.063Z</time>
      </trkpt>
      <trkpt lat="42.9259" lon="0.18826">
        <ele>1472</ele>
        <time>2019-06-23T08:22:54.063Z</time>
      </trkpt>
      <trkpt lat="42.9259" lon="0.18825">
        <ele>1472</ele>
        <time>2019-06-23T08:22:55.063Z</time>
      </trkpt>
      <trkpt lat="42.9259" lon="0.18825">
        <ele>1472</ele>
        <time>2019-06-23T08:22:56.063Z</time>
      </trkpt>
      <trkpt lat="42.9259" lon="0.18824">
        <ele>1472</ele>
        <time>2019-06-23T08:22:57.063Z</time>
      </trkpt>
      <trkpt lat="42.9259" lon="0.18823">
        <ele>1472</ele>
        <time>2019-06-23T08:22:58.063Z</time>
      </trkpt>
      <trkpt lat="42.9259" lon="0.18823">
        <ele>1472</ele>
        <time>2019-06-23T08:22:59.063Z</time>
      </trkpt>
      <trkpt lat="42.9259" lon="0.18822">
        <ele>1472</ele>
        <time>2019-06-23T08:23:00.063Z</time>
      </trkpt>
      <trkpt lat="42.92591" lon="0.18822">
        <ele>1473</ele>
        <time>2019-06-23T08:23:01.063Z</time>
      </trkpt>
      <trkpt lat="42.92591" lon="0.18821">
        <ele>1473</ele>
        <time>2019-06-23T08:23:02.063Z</time>
      </trkpt>
      <trkpt lat="42.92591" lon="0.1882">
        <ele>1473</ele>
        <time>2019-06-23T08:23:03.063Z</time>
      </trkpt>
      <trkpt lat="42.92591" lon="0.1882">
        <ele>1474</ele>
        <time>2019-06-23T08:23:04.063Z</time>
      </trkpt>
      <trkpt lat="42.92591" lon="0.18819">
        <ele>1474</ele>
        <time>2019-06-23T08:23:05.063Z</time>
      </trkpt>
      <trkpt lat="42.92591" lon="0.18818">
        <ele>1473</ele>
        <time>2019-06-23T08:23:06.063Z</time>
      </trkpt>
      <trkpt lat="42.9259" lon="0.18818">
        <ele>1473</ele>
        <time>2019-06-23T08:23:07.063Z</time>
      </trkpt>
      <trkpt lat="42.9259" lon="0.18818">
        <ele>1473</ele>
        <time>2019-06-23T08:23:08.063Z</time>
      </trkpt>
      <trkpt lat="42.9259" lon="0.18817">
        <ele>1473</ele>
        <time>2019-06-23T08:23:09.063Z</time>
      </trkpt>
      <trkpt lat="42.92591" lon="0.18817">
        <ele>1473</ele>
        <time>2019-06-23T08:23:10.063Z</time>
      </trkpt>
      <trkpt lat="42.92591" lon="0.18816">
        <ele>1473</ele>
        <time>2019-06-23T08:23:11.063Z</time>
      </trkpt>
      <trkpt lat="42.92591" lon="0.18816">
        <ele>1473</ele>
        <time>2019-06-23T08:23:12.063Z</time>
      </trkpt>
      <trkpt lat="42.92591" lon="0.18815">
        <ele>1473</ele>
        <time>2019-06-23T08:23:13.063Z</time>
      </trkpt>
      <trkpt lat="42.92591" lon="0.18815">
        <ele>1474</ele>
        <time>2019-06-23T08:23:14.063Z</time>
      </trkpt>
      <trkpt lat="42.92591" lon="0.18814">
        <ele>1475</ele>
        <time>2019-06-23T08:23:15.063Z</time>
      </trkpt>
      <trkpt lat="42.92591" lon="0.18814">
        <ele>1475</ele>
        <time>2019-06-23T08:23:16.063Z</time>
      </trkpt>
      <trkpt lat="42.92591" lon="0.18813">
        <ele>1475</ele>
        <time>2019-06-23T08:23:17.063Z</time>
      </trkpt>
      <trkpt lat="42.9259" lon="0.18813">
        <ele>1475</ele>
        <time>2019-06-23T08:23:18.063Z</time>
      </trkpt>
      <trkpt lat="42.9259" lon="0.18812">
        <ele>1475</ele>
        <time>2019-06-23T08:23:19.063Z</time>
      </trkpt>
      <trkpt lat="42.9259" lon="0.18811">
        <ele>1475</ele>
        <time>2019-06-23T08:23:20.063Z</time>
      </trkpt>
      <trkpt lat="42.9259" lon="0.18811">
        <ele>1474</ele>
        <time>2019-06-23T08:23:21.063Z</time>
      </trkpt>
      <trkpt lat="42.92591" lon="0.1881">
        <ele>1474</ele>
        <time>2019-06-23T08:23:22.063Z</time>
      </trkpt>
      <trkpt lat="42.92591" lon="0.1881">
        <ele>1475</ele>
        <time>2019-06-23T08:23:23.063Z</time>
      </trkpt>
      <trkpt lat="42.92591" lon="0.18809">
        <ele>1475</ele>
        <time>2019-06-23T08:23:24.063Z</time>
      </trkpt>
      <trkpt lat="42.92591" lon="0.18809">
        <ele>1475</ele>
        <time>2019-06-23T08:23:25.063Z</time>
      </trkpt>
      <trkpt lat="42.92591" lon="0.18809">
        <ele>1475</ele>
        <time>2019-06-23T08:23:26.063Z</time>
      </trkpt>
      <trkpt lat="42.9259" lon="0.18808">
        <ele>1476</ele>
        <time>2019-06-23T08:23:27.063Z</time>
      </trkpt>
      <trkpt lat="42.9259" lon="0.18808">
        <ele>1476</ele>
        <time>2019-06-23T08:23:28.063Z</time>
      </trkpt>
      <trkpt lat="42.9259" lon="0.18807">
        <ele>1476</ele>
        <time>2019-06-23T08:23:29.063Z</time>
      </trkpt>
      <trkpt lat="42.9259" lon="0.18807">
        <ele>1477</ele>
        <time>2019-06-23T08:23:30.063Z</time>
      </trkpt>
      <trkpt lat="42.9259" lon="0.18806">
        <ele>1477</ele>
        <time>2019-06-23T08:23:31.063Z</time>
      </trkpt>
      <trkpt lat="42.9259" lon="0.18806">
        <ele>1478</ele>
        <time>2019-06-23T08:23:32.063Z</time>
      </trkpt>
      <trkpt lat="42.92593" lon="0.18799">
        <ele>1477</ele>
        <time>2019-06-23T08:23:33.075Z</time>
      </trkpt>
      <trkpt lat="42.92594" lon="0.18798">
        <ele>1476</ele>
        <time>2019-06-23T08:23:34.075Z</time>
      </trkpt>
      <trkpt lat="42.92594" lon="0.18798">
        <ele>1476</ele>
        <time>2019-06-23T08:23:35.075Z</time>
      </trkpt>
      <trkpt lat="42.92594" lon="0.18797">
        <ele>1477</ele>
        <time>2019-06-23T08:23:36.075Z</time>
      </trkpt>
      <trkpt lat="42.92594" lon="0.18797">
        <ele>1477</ele>
        <time>2019-06-23T08:23:37.075Z</time>
      </trkpt>
      <trkpt lat="42.92594" lon="0.18796">
        <ele>1477</ele>
        <time>2019-06-23T08:23:38.075Z</time>
      </trkpt>
      <trkpt lat="42.92594" lon="0.18796">
        <ele>1477</ele>
        <time>2019-06-23T08:23:39.075Z</time>
      </trkpt>
      <trkpt lat="42.92594" lon="0.18795">
        <ele>1477</ele>
        <time>2019-06-23T08:23:40.075Z</time>
      </trkpt>
      <trkpt lat="42.92594" lon="0.18789">
        <ele>1481</ele>
        <time>2019-06-23T08:23:41.075Z</time>
      </trkpt>
      <trkpt lat="42.92594" lon="0.18788">
        <ele>1481</ele>
        <time>2019-06-23T08:23:42.075Z</time>
      </trkpt>
      <trkpt lat="42.92594" lon="0.18788">
        <ele>1481</ele>
        <time>2019-06-23T08:23:43.075Z</time>
      </trkpt>
      <trkpt lat="42.92594" lon="0.18787">
        <ele>1481</ele>
        <time>2019-06-23T08:23:44.075Z</time>
      </trkpt>
      <trkpt lat="42.92595" lon="0.18787">
        <ele>1481</ele>
        <time>2019-06-23T08:23:45.075Z</time>
      </trkpt>
      <trkpt lat="42.92595" lon="0.18786">
        <ele>1480</ele>
        <time>2019-06-23T08:23:46.075Z</time>
      </trkpt>
      <trkpt lat="42.92595" lon="0.18785">
        <ele>1480</ele>
        <time>2019-06-23T08:23:47.075Z</time>
      </trkpt>
      <trkpt lat="42.92595" lon="0.18785">
        <ele>1480</ele>
        <time>2019-06-23T08:23:48.075Z</time>
      </trkpt>
      <trkpt lat="42.92595" lon="0.18784">
        <ele>1480</ele>
        <time>2019-06-23T08:23:49.075Z</time>
      </trkpt>
      <trkpt lat="42.92595" lon="0.18784">
        <ele>1480</ele>
        <time>2019-06-23T08:23:50.075Z</time>
      </trkpt>
      <trkpt lat="42.92595" lon="0.18783">
        <ele>1480</ele>
        <time>2019-06-23T08:23:51.075Z</time>
      </trkpt>
      <trkpt lat="42.92595" lon="0.18782">
        <ele>1480</ele>
        <time>2019-06-23T08:23:52.075Z</time>
      </trkpt>
      <trkpt lat="42.92595" lon="0.18782">
        <ele>1479</ele>
        <time>2019-06-23T08:23:53.075Z</time>
      </trkpt>
      <trkpt lat="42.92594" lon="0.18782">
        <ele>1479</ele>
        <time>2019-06-23T08:23:54.075Z</time>
      </trkpt>
      <trkpt lat="42.92594" lon="0.18782">
        <ele>1479</ele>
        <time>2019-06-23T08:23:55.075Z</time>
      </trkpt>
      <trkpt lat="42.92594" lon="0.18781">
        <ele>1479</ele>
        <time>2019-06-23T08:23:56.075Z</time>
      </trkpt>
      <trkpt lat="42.92595" lon="0.18781">
        <ele>1479</ele>
        <time>2019-06-23T08:23:57.075Z</time>
      </trkpt>
      <trkpt lat="42.92595" lon="0.1878">
        <ele>1479</ele>
        <time>2019-06-23T08:23:58.075Z</time>
      </trkpt>
      <trkpt lat="42.92595" lon="0.18779">
        <ele>1480</ele>
        <time>2019-06-23T08:23:59.075Z</time>
      </trkpt>
      <trkpt lat="42.92595" lon="0.18778">
        <ele>1480</ele>
        <time>2019-06-23T08:24:00.075Z</time>
      </trkpt>
      <trkpt lat="42.92596" lon="0.18778">
        <ele>1480</ele>
        <time>2019-06-23T08:24:01.075Z</time>
      </trkpt>
      <trkpt lat="42.92596" lon="0.18777">
        <ele>1480</ele>
        <time>2019-06-23T08:24:02.075Z</time>
      </trkpt>
      <trkpt lat="42.92596" lon="0.18776">
        <ele>1481</ele>
        <time>2019-06-23T08:24:03.075Z</time>
      </trkpt>
      <trkpt lat="42.92596" lon="0.18776">
        <ele>1481</ele>
        <time>2019-06-23T08:24:04.075Z</time>
      </trkpt>
      <trkpt lat="42.92597" lon="0.18775">
        <ele>1481</ele>
        <time>2019-06-23T08:24:05.075Z</time>
      </trkpt>
      <trkpt lat="42.92597" lon="0.18774">
        <ele>1481</ele>
        <time>2019-06-23T08:24:06.075Z</time>
      </trkpt>
      <trkpt lat="42.92597" lon="0.18773">
        <ele>1482</ele>
        <time>2019-06-23T08:24:07.075Z</time>
      </trkpt>
      <trkpt lat="42.92597" lon="0.18772">
        <ele>1482</ele>
        <time>2019-06-23T08:24:08.075Z</time>
      </trkpt>
      <trkpt lat="42.92598" lon="0.18772">
        <ele>1482</ele>
        <time>2019-06-23T08:24:09.075Z</time>
      </trkpt>
      <trkpt lat="42.92598" lon="0.18771">
        <ele>1482</ele>
        <time>2019-06-23T08:24:10.075Z</time>
      </trkpt>
      <trkpt lat="42.92598" lon="0.1877">
        <ele>1482</ele>
        <time>2019-06-23T08:24:11.075Z</time>
      </trkpt>
      <trkpt lat="42.92598" lon="0.1877">
        <ele>1482</ele>
        <time>2019-06-23T08:24:12.075Z</time>
      </trkpt>
      <trkpt lat="42.92599" lon="0.18769">
        <ele>1482</ele>
        <time>2019-06-23T08:24:13.075Z</time>
      </trkpt>
      <trkpt lat="42.92599" lon="0.18769">
        <ele>1481</ele>
        <time>2019-06-23T08:24:14.075Z</time>
      </trkpt>
      <trkpt lat="42.92599" lon="0.18768">
        <ele>1481</ele>
        <time>2019-06-23T08:24:15.075Z</time>
      </trkpt>
      <trkpt lat="42.92599" lon="0.18767">
        <ele>1481</ele>
        <time>2019-06-23T08:24:16.075Z</time>
      </trkpt>
      <trkpt lat="42.92599" lon="0.18767">
        <ele>1481</ele>
        <time>2019-06-23T08:24:17.075Z</time>
      </trkpt>
      <trkpt lat="42.926" lon="0.18766">
        <ele>1481</ele>
        <time>2019-06-23T08:24:18.075Z</time>
      </trkpt>
      <trkpt lat="42.926" lon="0.18766">
        <ele>1481</ele>
        <time>2019-06-23T08:24:19.075Z</time>
      </trkpt>
      <trkpt lat="42.926" lon="0.18765">
        <ele>1481</ele>
        <time>2019-06-23T08:24:20.075Z</time>
      </trkpt>
      <trkpt lat="42.926" lon="0.18765">
        <ele>1482</ele>
        <time>2019-06-23T08:24:21.075Z</time>
      </trkpt>
      <trkpt lat="42.92601" lon="0.18764">
        <ele>1482</ele>
        <time>2019-06-23T08:24:22.075Z</time>
      </trkpt>
      <trkpt lat="42.92601" lon="0.18764">
        <ele>1482</ele>
        <time>2019-06-23T08:24:23.075Z</time>
      </trkpt>
      <trkpt lat="42.92601" lon="0.18763">
        <ele>1483</ele>
        <time>2019-06-23T08:24:24.075Z</time>
      </trkpt>
      <trkpt lat="42.92601" lon="0.18762">
        <ele>1483</ele>
        <time>2019-06-23T08:24:25.075Z</time>
      </trkpt>
      <trkpt lat="42.92601" lon="0.18762">
        <ele>1483</ele>
        <time>2019-06-23T08:24:26.075Z</time>
      </trkpt>
      <trkpt lat="42.92601" lon="0.18761">
        <ele>1484</ele>
        <time>2019-06-23T08:24:27.075Z</time>
      </trkpt>
      <trkpt lat="42.92602" lon="0.1876">
        <ele>1484</ele>
        <time>2019-06-23T08:24:28.075Z</time>
      </trkpt>
      <trkpt lat="42.92602" lon="0.18759">
        <ele>1484</ele>
        <time>2019-06-23T08:24:29.075Z</time>
      </trkpt>
      <trkpt lat="42.92602" lon="0.18758">
        <ele>1484</ele>
        <time>2019-06-23T08:24:30.075Z</time>
      </trkpt>
      <trkpt lat="42.92601" lon="0.18758">
        <ele>1485</ele>
        <time>2019-06-23T08:24:31.075Z</time>
      </trkpt>
      <trkpt lat="42.92601" lon="0.18757">
        <ele>1485</ele>
        <time>2019-06-23T08:24:32.075Z</time>
      </trkpt>
      <trkpt lat="42.92601" lon="0.18757">
        <ele>1485</ele>
        <time>2019-06-23T08:24:33.075Z</time>
      </trkpt>
      <trkpt lat="42.92601" lon="0.18756">
        <ele>1485</ele>
        <time>2019-06-23T08:24:34.075Z</time>
      </trkpt>
      <trkpt lat="42.92601" lon="0.18755">
        <ele>1485</ele>
        <time>2019-06-23T08:24:35.075Z</time>
      </trkpt>
      <trkpt lat="42.92601" lon="0.18755">
        <ele>1485</ele>
        <time>2019-06-23T08:24:36.075Z</time>
      </trkpt>
      <trkpt lat="42.92602" lon="0.18754">
        <ele>1485</ele>
        <time>2019-06-23T08:24:37.075Z</time>
      </trkpt>
      <trkpt lat="42.92602" lon="0.18754">
        <ele>1485</ele>
        <time>2019-06-23T08:24:38.075Z</time>
      </trkpt>
      <trkpt lat="42.92603" lon="0.18753">
        <ele>1486</ele>
        <time>2019-06-23T08:24:39.075Z</time>
      </trkpt>
      <trkpt lat="42.92603" lon="0.18753">
        <ele>1486</ele>
        <time>2019-06-23T08:24:40.075Z</time>
      </trkpt>
      <trkpt lat="42.92603" lon="0.18752">
        <ele>1486</ele>
        <time>2019-06-23T08:24:41.075Z</time>
      </trkpt>
      <trkpt lat="42.92604" lon="0.18752">
        <ele>1486</ele>
        <time>2019-06-23T08:24:42.075Z</time>
      </trkpt>
      <trkpt lat="42.92604" lon="0.18751">
        <ele>1486</ele>
        <time>2019-06-23T08:24:43.075Z</time>
      </trkpt>
      <trkpt lat="42.92604" lon="0.18751">
        <ele>1486</ele>
        <time>2019-06-23T08:24:44.075Z</time>
      </trkpt>
      <trkpt lat="42.92604" lon="0.1875">
        <ele>1486</ele>
        <time>2019-06-23T08:24:45.075Z</time>
      </trkpt>
      <trkpt lat="42.92604" lon="0.18749">
        <ele>1486</ele>
        <time>2019-06-23T08:24:46.075Z</time>
      </trkpt>
      <trkpt lat="42.92604" lon="0.18749">
        <ele>1486</ele>
        <time>2019-06-23T08:24:47.075Z</time>
      </trkpt>
      <trkpt lat="42.92604" lon="0.18748">
        <ele>1486</ele>
        <time>2019-06-23T08:24:48.075Z</time>
      </trkpt>
      <trkpt lat="42.92604" lon="0.18748">
        <ele>1486</ele>
        <time>2019-06-23T08:24:49.075Z</time>
      </trkpt>
      <trkpt lat="42.92604" lon="0.18747">
        <ele>1486</ele>
        <time>2019-06-23T08:24:50.075Z</time>
      </trkpt>
      <trkpt lat="42.92604" lon="0.18746">
        <ele>1486</ele>
        <time>2019-06-23T08:24:51.075Z</time>
      </trkpt>
      <trkpt lat="42.92604" lon="0.18745">
        <ele>1486</ele>
        <time>2019-06-23T08:24:52.075Z</time>
      </trkpt>
      <trkpt lat="42.92604" lon="0.18744">
        <ele>1487</ele>
        <time>2019-06-23T08:24:53.075Z</time>
      </trkpt>
      <trkpt lat="42.92605" lon="0.18744">
        <ele>1487</ele>
        <time>2019-06-23T08:24:54.075Z</time>
      </trkpt>
      <trkpt lat="42.92605" lon="0.18743">
        <ele>1487</ele>
        <time>2019-06-23T08:24:55.075Z</time>
      </trkpt>
      <trkpt lat="42.92605" lon="0.18742">
        <ele>1487</ele>
        <time>2019-06-23T08:24:56.075Z</time>
      </trkpt>
      <trkpt lat="42.92605" lon="0.18742">
        <ele>1487</ele>
        <time>2019-06-23T08:24:57.075Z</time>
      </trkpt>
      <trkpt lat="42.92605" lon="0.18741">
        <ele>1487</ele>
        <time>2019-06-23T08:24:58.075Z</time>
      </trkpt>
      <trkpt lat="42.92605" lon="0.1874">
        <ele>1487</ele>
        <time>2019-06-23T08:24:59.075Z</time>
      </trkpt>
      <trkpt lat="42.92605" lon="0.18739">
        <ele>1488</ele>
        <time>2019-06-23T08:25:00.075Z</time>
      </trkpt>
      <trkpt lat="42.92605" lon="0.18738">
        <ele>1487</ele>
        <time>2019-06-23T08:25:01.075Z</time>
      </trkpt>
      <trkpt lat="42.92605" lon="0.18737">
        <ele>1487</ele>
        <time>2019-06-23T08:25:02.075Z</time>
      </trkpt>
      <trkpt lat="42.92605" lon="0.18737">
        <ele>1487</ele>
        <time>2019-06-23T08:25:03.075Z</time>
      </trkpt>
      <trkpt lat="42.92605" lon="0.18736">
        <ele>1486</ele>
        <time>2019-06-23T08:25:04.075Z</time>
      </trkpt>
      <trkpt lat="42.92605" lon="0.18735">
        <ele>1486</ele>
        <time>2019-06-23T08:25:05.075Z</time>
      </trkpt>
      <trkpt lat="42.92606" lon="0.18734">
        <ele>1487</ele>
        <time>2019-06-23T08:25:06.075Z</time>
      </trkpt>
      <trkpt lat="42.92606" lon="0.18733">
        <ele>1487</ele>
        <time>2019-06-23T08:25:07.075Z</time>
      </trkpt>
      <trkpt lat="42.92606" lon="0.18733">
        <ele>1487</ele>
        <time>2019-06-23T08:25:08.075Z</time>
      </trkpt>
      <trkpt lat="42.92606" lon="0.18732">
        <ele>1488</ele>
        <time>2019-06-23T08:25:09.075Z</time>
      </trkpt>
      <trkpt lat="42.92607" lon="0.18732">
        <ele>1488</ele>
        <time>2019-06-23T08:25:10.075Z</time>
      </trkpt>
      <trkpt lat="42.92607" lon="0.18731">
        <ele>1488</ele>
        <time>2019-06-23T08:25:11.075Z</time>
      </trkpt>
      <trkpt lat="42.92607" lon="0.18731">
        <ele>1488</ele>
        <time>2019-06-23T08:25:12.075Z</time>
      </trkpt>
      <trkpt lat="42.92607" lon="0.1873">
        <ele>1489</ele>
        <time>2019-06-23T08:25:13.075Z</time>
      </trkpt>
      <trkpt lat="42.92607" lon="0.18729">
        <ele>1489</ele>
        <time>2019-06-23T08:25:14.075Z</time>
      </trkpt>
      <trkpt lat="42.92606" lon="0.18728">
        <ele>1489</ele>
        <time>2019-06-23T08:25:15.075Z</time>
      </trkpt>
      <trkpt lat="42.92606" lon="0.18728">
        <ele>1489</ele>
        <time>2019-06-23T08:25:16.075Z</time>
      </trkpt>
      <trkpt lat="42.92606" lon="0.18727">
        <ele>1489</ele>
        <time>2019-06-23T08:25:17.075Z</time>
      </trkpt>
      <trkpt lat="42.92606" lon="0.18727">
        <ele>1489</ele>
        <time>2019-06-23T08:25:18.075Z</time>
      </trkpt>
      <trkpt lat="42.92606" lon="0.18726">
        <ele>1489</ele>
        <time>2019-06-23T08:25:19.075Z</time>
      </trkpt>
      <trkpt lat="42.92606" lon="0.18725">
        <ele>1490</ele>
        <time>2019-06-23T08:25:20.075Z</time>
      </trkpt>
      <trkpt lat="42.92605" lon="0.18725">
        <ele>1490</ele>
        <time>2019-06-23T08:25:21.075Z</time>
      </trkpt>
      <trkpt lat="42.92605" lon="0.18724">
        <ele>1490</ele>
        <time>2019-06-23T08:25:22.075Z</time>
      </trkpt>
      <trkpt lat="42.92605" lon="0.18723">
        <ele>1490</ele>
        <time>2019-06-23T08:25:23.075Z</time>
      </trkpt>
      <trkpt lat="42.92605" lon="0.18722">
        <ele>1490</ele>
        <time>2019-06-23T08:25:24.075Z</time>
      </trkpt>
      <trkpt lat="42.92606" lon="0.18722">
        <ele>1490</ele>
        <time>2019-06-23T08:25:25.075Z</time>
      </trkpt>
      <trkpt lat="42.92606" lon="0.18721">
        <ele>1490</ele>
        <time>2019-06-23T08:25:26.075Z</time>
      </trkpt>
      <trkpt lat="42.92605" lon="0.1872">
        <ele>1490</ele>
        <time>2019-06-23T08:25:27.075Z</time>
      </trkpt>
      <trkpt lat="42.92605" lon="0.1872">
        <ele>1490</ele>
        <time>2019-06-23T08:25:28.075Z</time>
      </trkpt>
      <trkpt lat="42.92605" lon="0.18719">
        <ele>1490</ele>
        <time>2019-06-23T08:25:29.075Z</time>
      </trkpt>
      <trkpt lat="42.92605" lon="0.18718">
        <ele>1490</ele>
        <time>2019-06-23T08:25:30.075Z</time>
      </trkpt>
      <trkpt lat="42.92605" lon="0.18717">
        <ele>1490</ele>
        <time>2019-06-23T08:25:31.075Z</time>
      </trkpt>
      <trkpt lat="42.92605" lon="0.18717">
        <ele>1490</ele>
        <time>2019-06-23T08:25:32.075Z</time>
      </trkpt>
      <trkpt lat="42.92605" lon="0.18716">
        <ele>1490</ele>
        <time>2019-06-23T08:25:33.075Z</time>
      </trkpt>
      <trkpt lat="42.92605" lon="0.18715">
        <ele>1490</ele>
        <time>2019-06-23T08:25:34.075Z</time>
      </trkpt>
      <trkpt lat="42.92605" lon="0.18714">
        <ele>1490</ele>
        <time>2019-06-23T08:25:35.075Z</time>
      </trkpt>
      <trkpt lat="42.92606" lon="0.18713">
        <ele>1490</ele>
        <time>2019-06-23T08:25:36.075Z</time>
      </trkpt>
      <trkpt lat="42.92606" lon="0.18712">
        <ele>1490</ele>
        <time>2019-06-23T08:25:37.075Z</time>
      </trkpt>
      <trkpt lat="42.92606" lon="0.18711">
        <ele>1490</ele>
        <time>2019-06-23T08:25:38.075Z</time>
      </trkpt>
      <trkpt lat="42.92606" lon="0.1871">
        <ele>1490</ele>
        <time>2019-06-23T08:25:39.075Z</time>
      </trkpt>
      <trkpt lat="42.92607" lon="0.18709">
        <ele>1490</ele>
        <time>2019-06-23T08:25:40.075Z</time>
      </trkpt>
      <trkpt lat="42.92607" lon="0.18708">
        <ele>1491</ele>
        <time>2019-06-23T08:25:41.075Z</time>
      </trkpt>
      <trkpt lat="42.92607" lon="0.18707">
        <ele>1491</ele>
        <time>2019-06-23T08:25:42.075Z</time>
      </trkpt>
      <trkpt lat="42.92607" lon="0.18706">
        <ele>1491</ele>
        <time>2019-06-23T08:25:43.075Z</time>
      </trkpt>
      <trkpt lat="42.92607" lon="0.18706">
        <ele>1491</ele>
        <time>2019-06-23T08:25:44.075Z</time>
      </trkpt>
      <trkpt lat="42.92607" lon="0.18705">
        <ele>1491</ele>
        <time>2019-06-23T08:25:45.075Z</time>
      </trkpt>
      <trkpt lat="42.92607" lon="0.18704">
        <ele>1491</ele>
        <time>2019-06-23T08:25:46.075Z</time>
      </trkpt>
      <trkpt lat="42.92607" lon="0.18704">
        <ele>1491</ele>
        <time>2019-06-23T08:25:47.075Z</time>
      </trkpt>
      <trkpt lat="42.92607" lon="0.18703">
        <ele>1490</ele>
        <time>2019-06-23T08:25:48.075Z</time>
      </trkpt>
      <trkpt lat="42.92607" lon="0.18703">
        <ele>1490</ele>
        <time>2019-06-23T08:25:49.075Z</time>
      </trkpt>
      <trkpt lat="42.92608" lon="0.18702">
        <ele>1490</ele>
        <time>2019-06-23T08:25:50.075Z</time>
      </trkpt>
      <trkpt lat="42.92608" lon="0.18702">
        <ele>1490</ele>
        <time>2019-06-23T08:25:51.075Z</time>
      </trkpt>
      <trkpt lat="42.92608" lon="0.18702">
        <ele>1490</ele>
        <time>2019-06-23T08:25:52.075Z</time>
      </trkpt>
      <trkpt lat="42.92609" lon="0.18683">
        <ele>1498</ele>
        <time>2019-06-23T08:25:53.087Z</time>
      </trkpt>
      <trkpt lat="42.92609" lon="0.18682">
        <ele>1498</ele>
        <time>2019-06-23T08:25:54.087Z</time>
      </trkpt>
      <trkpt lat="42.92609" lon="0.18682">
        <ele>1498</ele>
        <time>2019-06-23T08:25:55.087Z</time>
      </trkpt>
      <trkpt lat="42.92609" lon="0.18681">
        <ele>1499</ele>
        <time>2019-06-23T08:25:56.087Z</time>
      </trkpt>
      <trkpt lat="42.92609" lon="0.1868">
        <ele>1499</ele>
        <time>2019-06-23T08:25:57.087Z</time>
      </trkpt>
      <trkpt lat="42.92609" lon="0.18678">
        <ele>1499</ele>
        <time>2019-06-23T08:25:58.087Z</time>
      </trkpt>
      <trkpt lat="42.92609" lon="0.18678">
        <ele>1499</ele>
        <time>2019-06-23T08:25:59.087Z</time>
      </trkpt>
      <trkpt lat="42.92609" lon="0.18677">
        <ele>1498</ele>
        <time>2019-06-23T08:26:00.087Z</time>
      </trkpt>
      <trkpt lat="42.9261" lon="0.18676">
        <ele>1499</ele>
        <time>2019-06-23T08:26:01.087Z</time>
      </trkpt>
      <trkpt lat="42.9261" lon="0.18676">
        <ele>1499</ele>
        <time>2019-06-23T08:26:02.087Z</time>
      </trkpt>
      <trkpt lat="42.9261" lon="0.18675">
        <ele>1498</ele>
        <time>2019-06-23T08:26:03.087Z</time>
      </trkpt>
      <trkpt lat="42.9261" lon="0.18674">
        <ele>1499</ele>
        <time>2019-06-23T08:26:04.087Z</time>
      </trkpt>
      <trkpt lat="42.92611" lon="0.18673">
        <ele>1499</ele>
        <time>2019-06-23T08:26:05.087Z</time>
      </trkpt>
      <trkpt lat="42.92611" lon="0.18672">
        <ele>1500</ele>
        <time>2019-06-23T08:26:06.087Z</time>
      </trkpt>
      <trkpt lat="42.92612" lon="0.18671">
        <ele>1501</ele>
        <time>2019-06-23T08:26:07.087Z</time>
      </trkpt>
      <trkpt lat="42.92612" lon="0.1867">
        <ele>1501</ele>
        <time>2019-06-23T08:26:08.087Z</time>
      </trkpt>
      <trkpt lat="42.92612" lon="0.18669">
        <ele>1501</ele>
        <time>2019-06-23T08:26:09.087Z</time>
      </trkpt>
      <trkpt lat="42.92612" lon="0.18669">
        <ele>1501</ele>
        <time>2019-06-23T08:26:10.087Z</time>
      </trkpt>
      <trkpt lat="42.92613" lon="0.18668">
        <ele>1502</ele>
        <time>2019-06-23T08:26:11.087Z</time>
      </trkpt>
      <trkpt lat="42.92613" lon="0.18667">
        <ele>1502</ele>
        <time>2019-06-23T08:26:12.087Z</time>
      </trkpt>
      <trkpt lat="42.92614" lon="0.18667">
        <ele>1503</ele>
        <time>2019-06-23T08:26:13.087Z</time>
      </trkpt>
      <trkpt lat="42.92614" lon="0.18666">
        <ele>1503</ele>
        <time>2019-06-23T08:26:14.087Z</time>
      </trkpt>
      <trkpt lat="42.92615" lon="0.18666">
        <ele>1502</ele>
        <time>2019-06-23T08:26:15.087Z</time>
      </trkpt>
      <trkpt lat="42.92615" lon="0.18666">
        <ele>1502</ele>
        <time>2019-06-23T08:26:16.087Z</time>
      </trkpt>
      <trkpt lat="42.92615" lon="0.18665">
        <ele>1503</ele>
        <time>2019-06-23T08:26:17.087Z</time>
      </trkpt>
      <trkpt lat="42.92615" lon="0.18664">
        <ele>1503</ele>
        <time>2019-06-23T08:26:18.087Z</time>
      </trkpt>
      <trkpt lat="42.92615" lon="0.18663">
        <ele>1503</ele>
        <time>2019-06-23T08:26:19.087Z</time>
      </trkpt>
      <trkpt lat="42.92615" lon="0.18663">
        <ele>1504</ele>
        <time>2019-06-23T08:26:20.087Z</time>
      </trkpt>
      <trkpt lat="42.92616" lon="0.18662">
        <ele>1503</ele>
        <time>2019-06-23T08:26:21.087Z</time>
      </trkpt>
      <trkpt lat="42.92616" lon="0.18662">
        <ele>1504</ele>
        <time>2019-06-23T08:26:22.087Z</time>
      </trkpt>
      <trkpt lat="42.92616" lon="0.18662">
        <ele>1504</ele>
        <time>2019-06-23T08:26:23.087Z</time>
      </trkpt>
      <trkpt lat="42.92617" lon="0.18661">
        <ele>1503</ele>
        <time>2019-06-23T08:26:24.087Z</time>
      </trkpt>
      <trkpt lat="42.92617" lon="0.18661">
        <ele>1504</ele>
        <time>2019-06-23T08:26:25.087Z</time>
      </trkpt>
      <trkpt lat="42.92617" lon="0.18661">
        <ele>1503</ele>
        <time>2019-06-23T08:26:26.087Z</time>
      </trkpt>
      <trkpt lat="42.92617" lon="0.18661">
        <ele>1502</ele>
        <time>2019-06-23T08:26:27.087Z</time>
      </trkpt>
      <trkpt lat="42.92617" lon="0.18661">
        <ele>1501</ele>
        <time>2019-06-23T08:26:28.087Z</time>
      </trkpt>
      <trkpt lat="42.92617" lon="0.18661">
        <ele>1501</ele>
        <time>2019-06-23T08:26:29.087Z</time>
      </trkpt>
      <trkpt lat="42.92617" lon="0.1866">
        <ele>1501</ele>
        <time>2019-06-23T08:26:30.087Z</time>
      </trkpt>
      <trkpt lat="42.92617" lon="0.1866">
        <ele>1501</ele>
        <time>2019-06-23T08:26:31.087Z</time>
      </trkpt>
      <trkpt lat="42.92617" lon="0.1866">
        <ele>1500</ele>
        <time>2019-06-23T08:26:32.087Z</time>
      </trkpt>
      <trkpt lat="42.92617" lon="0.18659">
        <ele>1500</ele>
        <time>2019-06-23T08:26:33.087Z</time>
      </trkpt>
      <trkpt lat="42.92617" lon="0.18659">
        <ele>1500</ele>
        <time>2019-06-23T08:26:34.087Z</time>
      </trkpt>
      <trkpt lat="42.92617" lon="0.18658">
        <ele>1500</ele>
        <time>2019-06-23T08:26:35.087Z</time>
      </trkpt>
      <trkpt lat="42.92618" lon="0.18658">
        <ele>1500</ele>
        <time>2019-06-23T08:26:36.087Z</time>
      </trkpt>
      <trkpt lat="42.92618" lon="0.18657">
        <ele>1501</ele>
        <time>2019-06-23T08:26:37.087Z</time>
      </trkpt>
      <trkpt lat="42.92618" lon="0.18657">
        <ele>1501</ele>
        <time>2019-06-23T08:26:38.087Z</time>
      </trkpt>
      <trkpt lat="42.92618" lon="0.18656">
        <ele>1501</ele>
        <time>2019-06-23T08:26:39.087Z</time>
      </trkpt>
      <trkpt lat="42.92618" lon="0.18656">
        <ele>1501</ele>
        <time>2019-06-23T08:26:40.087Z</time>
      </trkpt>
      <trkpt lat="42.92618" lon="0.18656">
        <ele>1500</ele>
        <time>2019-06-23T08:26:41.087Z</time>
      </trkpt>
      <trkpt lat="42.92618" lon="0.18655">
        <ele>1500</ele>
        <time>2019-06-23T08:26:42.087Z</time>
      </trkpt>
      <trkpt lat="42.92618" lon="0.18655">
        <ele>1500</ele>
        <time>2019-06-23T08:26:43.087Z</time>
      </trkpt>
      <trkpt lat="42.92618" lon="0.18655">
        <ele>1500</ele>
        <time>2019-06-23T08:26:44.087Z</time>
      </trkpt>
      <trkpt lat="42.92618" lon="0.18654">
        <ele>1501</ele>
        <time>2019-06-23T08:26:45.087Z</time>
      </trkpt>
      <trkpt lat="42.92618" lon="0.18654">
        <ele>1500</ele>
        <time>2019-06-23T08:26:46.087Z</time>
      </trkpt>
      <trkpt lat="42.92618" lon="0.18653">
        <ele>1501</ele>
        <time>2019-06-23T08:26:47.087Z</time>
      </trkpt>
      <trkpt lat="42.92619" lon="0.18653">
        <ele>1501</ele>
        <time>2019-06-23T08:26:48.087Z</time>
      </trkpt>
      <trkpt lat="42.92619" lon="0.18652">
        <ele>1501</ele>
        <time>2019-06-23T08:26:49.087Z</time>
      </trkpt>
      <trkpt lat="42.92619" lon="0.18652">
        <ele>1501</ele>
        <time>2019-06-23T08:26:50.087Z</time>
      </trkpt>
      <trkpt lat="42.92619" lon="0.18651">
        <ele>1501</ele>
        <time>2019-06-23T08:26:51.087Z</time>
      </trkpt>
      <trkpt lat="42.92619" lon="0.18651">
        <ele>1502</ele>
        <time>2019-06-23T08:26:52.087Z</time>
      </trkpt>
      <trkpt lat="42.9262" lon="0.18651">
        <ele>1502</ele>
        <time>2019-06-23T08:26:53.087Z</time>
      </trkpt>
      <trkpt lat="42.9262" lon="0.1865">
        <ele>1502</ele>
        <time>2019-06-23T08:26:54.087Z</time>
      </trkpt>
      <trkpt lat="42.9262" lon="0.1865">
        <ele>1502</ele>
        <time>2019-06-23T08:26:55.087Z</time>
      </trkpt>
      <trkpt lat="42.92621" lon="0.18649">
        <ele>1502</ele>
        <time>2019-06-23T08:26:56.087Z</time>
      </trkpt>
      <trkpt lat="42.92621" lon="0.18649">
        <ele>1502</ele>
        <time>2019-06-23T08:26:57.087Z</time>
      </trkpt>
      <trkpt lat="42.92621" lon="0.18649">
        <ele>1503</ele>
        <time>2019-06-23T08:26:58.087Z</time>
      </trkpt>
      <trkpt lat="42.92621" lon="0.18648">
        <ele>1502</ele>
        <time>2019-06-23T08:26:59.087Z</time>
      </trkpt>
      <trkpt lat="42.92621" lon="0.18648">
        <ele>1502</ele>
        <time>2019-06-23T08:27:00.087Z</time>
      </trkpt>
      <trkpt lat="42.92621" lon="0.18648">
        <ele>1502</ele>
        <time>2019-06-23T08:27:01.087Z</time>
      </trkpt>
      <trkpt lat="42.92621" lon="0.18647">
        <ele>1502</ele>
        <time>2019-06-23T08:27:02.087Z</time>
      </trkpt>
      <trkpt lat="42.92621" lon="0.18647">
        <ele>1502</ele>
        <time>2019-06-23T08:27:03.087Z</time>
      </trkpt>
      <trkpt lat="42.92621" lon="0.18647">
        <ele>1502</ele>
        <time>2019-06-23T08:27:04.087Z</time>
      </trkpt>
      <trkpt lat="42.92621" lon="0.18647">
        <ele>1502</ele>
        <time>2019-06-23T08:27:05.087Z</time>
      </trkpt>
      <trkpt lat="42.9262" lon="0.18644">
        <ele>1499</ele>
        <time>2019-06-23T08:27:06.083Z</time>
      </trkpt>
      <trkpt lat="42.9262" lon="0.18643">
        <ele>1499</ele>
        <time>2019-06-23T08:27:07.083Z</time>
      </trkpt>
      <trkpt lat="42.9262" lon="0.18643">
        <ele>1499</ele>
        <time>2019-06-23T08:27:08.083Z</time>
      </trkpt>
      <trkpt lat="42.92619" lon="0.18642">
        <ele>1498</ele>
        <time>2019-06-23T08:27:09.083Z</time>
      </trkpt>
      <trkpt lat="42.92619" lon="0.18642">
        <ele>1498</ele>
        <time>2019-06-23T08:27:10.083Z</time>
      </trkpt>
      <trkpt lat="42.92619" lon="0.18642">
        <ele>1498</ele>
        <time>2019-06-23T08:27:11.083Z</time>
      </trkpt>
      <trkpt lat="42.92619" lon="0.18642">
        <ele>1500</ele>
        <time>2019-06-23T08:27:12.083Z</time>
      </trkpt>
      <trkpt lat="42.92619" lon="0.18641">
        <ele>1500</ele>
        <time>2019-06-23T08:27:13.083Z</time>
      </trkpt>
      <trkpt lat="42.92619" lon="0.18641">
        <ele>1499</ele>
        <time>2019-06-23T08:27:14.083Z</time>
      </trkpt>
      <trkpt lat="42.92619" lon="0.1864">
        <ele>1500</ele>
        <time>2019-06-23T08:27:15.083Z</time>
      </trkpt>
      <trkpt lat="42.92619" lon="0.1864">
        <ele>1500</ele>
        <time>2019-06-23T08:27:16.083Z</time>
      </trkpt>
      <trkpt lat="42.92619" lon="0.1864">
        <ele>1500</ele>
        <time>2019-06-23T08:27:17.083Z</time>
      </trkpt>
      <trkpt lat="42.9262" lon="0.1864">
        <ele>1500</ele>
        <time>2019-06-23T08:27:18.083Z</time>
      </trkpt>
      <trkpt lat="42.9262" lon="0.18639">
        <ele>1500</ele>
        <time>2019-06-23T08:27:19.083Z</time>
      </trkpt>
      <trkpt lat="42.92622" lon="0.18636">
        <ele>1503</ele>
        <time>2019-06-23T08:27:20.087Z</time>
      </trkpt>
      <trkpt lat="42.92622" lon="0.18636">
        <ele>1503</ele>
        <time>2019-06-23T08:27:21.087Z</time>
      </trkpt>
      <trkpt lat="42.92622" lon="0.18635">
        <ele>1503</ele>
        <time>2019-06-23T08:27:22.087Z</time>
      </trkpt>
      <trkpt lat="42.92623" lon="0.18635">
        <ele>1504</ele>
        <time>2019-06-23T08:27:23.087Z</time>
      </trkpt>
      <trkpt lat="42.92623" lon="0.18634">
        <ele>1504</ele>
        <time>2019-06-23T08:27:24.087Z</time>
      </trkpt>
      <trkpt lat="42.92623" lon="0.18633">
        <ele>1504</ele>
        <time>2019-06-23T08:27:25.087Z</time>
      </trkpt>
      <trkpt lat="42.92623" lon="0.18632">
        <ele>1505</ele>
        <time>2019-06-23T08:27:26.087Z</time>
      </trkpt>
      <trkpt lat="42.92623" lon="0.18632">
        <ele>1506</ele>
        <time>2019-06-23T08:27:27.087Z</time>
      </trkpt>
      <trkpt lat="42.92623" lon="0.18631">
        <ele>1505</ele>
        <time>2019-06-23T08:27:28.087Z</time>
      </trkpt>
      <trkpt lat="42.92622" lon="0.18631">
        <ele>1505</ele>
        <time>2019-06-23T08:27:29.087Z</time>
      </trkpt>
      <trkpt lat="42.92622" lon="0.18631">
        <ele>1505</ele>
        <time>2019-06-23T08:27:30.087Z</time>
      </trkpt>
      <trkpt lat="42.92622" lon="0.18631">
        <ele>1505</ele>
        <time>2019-06-23T08:27:31.087Z</time>
      </trkpt>
      <trkpt lat="42.92622" lon="0.18631">
        <ele>1505</ele>
        <time>2019-06-23T08:27:32.087Z</time>
      </trkpt>
      <trkpt lat="42.92622" lon="0.18631">
        <ele>1505</ele>
        <time>2019-06-23T08:27:33.087Z</time>
      </trkpt>
      <trkpt lat="42.92622" lon="0.18631">
        <ele>1505</ele>
        <time>2019-06-23T08:27:34.087Z</time>
      </trkpt>
      <trkpt lat="42.92623" lon="0.18629">
        <ele>1507</ele>
        <time>2019-06-23T08:27:35.087Z</time>
      </trkpt>
      <trkpt lat="42.92623" lon="0.18628">
        <ele>1507</ele>
        <time>2019-06-23T08:27:36.087Z</time>
      </trkpt>
      <trkpt lat="42.92623" lon="0.18627">
        <ele>1508</ele>
        <time>2019-06-23T08:27:37.087Z</time>
      </trkpt>
      <trkpt lat="42.92624" lon="0.18627">
        <ele>1508</ele>
        <time>2019-06-23T08:27:38.087Z</time>
      </trkpt>
      <trkpt lat="42.92624" lon="0.18626">
        <ele>1508</ele>
        <time>2019-06-23T08:27:39.087Z</time>
      </trkpt>
      <trkpt lat="42.92624" lon="0.18626">
        <ele>1508</ele>
        <time>2019-06-23T08:27:40.087Z</time>
      </trkpt>
      <trkpt lat="42.92624" lon="0.18625">
        <ele>1508</ele>
        <time>2019-06-23T08:27:41.087Z</time>
      </trkpt>
      <trkpt lat="42.92624" lon="0.18624">
        <ele>1507</ele>
        <time>2019-06-23T08:27:42.087Z</time>
      </trkpt>
      <trkpt lat="42.92624" lon="0.18624">
        <ele>1507</ele>
        <time>2019-06-23T08:27:43.087Z</time>
      </trkpt>
      <trkpt lat="42.92624" lon="0.18623">
        <ele>1507</ele>
        <time>2019-06-23T08:27:44.087Z</time>
      </trkpt>
      <trkpt lat="42.92625" lon="0.18623">
        <ele>1507</ele>
        <time>2019-06-23T08:27:45.087Z</time>
      </trkpt>
      <trkpt lat="42.92625" lon="0.18622">
        <ele>1508</ele>
        <time>2019-06-23T08:27:46.087Z</time>
      </trkpt>
      <trkpt lat="42.92625" lon="0.18622">
        <ele>1507</ele>
        <time>2019-06-23T08:27:47.087Z</time>
      </trkpt>
      <trkpt lat="42.92625" lon="0.18621">
        <ele>1507</ele>
        <time>2019-06-23T08:27:48.087Z</time>
      </trkpt>
      <trkpt lat="42.92625" lon="0.18621">
        <ele>1507</ele>
        <time>2019-06-23T08:27:49.087Z</time>
      </trkpt>
      <trkpt lat="42.92625" lon="0.1862">
        <ele>1507</ele>
        <time>2019-06-23T08:27:50.087Z</time>
      </trkpt>
      <trkpt lat="42.92625" lon="0.18619">
        <ele>1507</ele>
        <time>2019-06-23T08:27:51.087Z</time>
      </trkpt>
      <trkpt lat="42.92625" lon="0.18619">
        <ele>1507</ele>
        <time>2019-06-23T08:27:52.087Z</time>
      </trkpt>
      <trkpt lat="42.92625" lon="0.18618">
        <ele>1508</ele>
        <time>2019-06-23T08:27:53.087Z</time>
      </trkpt>
      <trkpt lat="42.92625" lon="0.18617">
        <ele>1507</ele>
        <time>2019-06-23T08:27:54.087Z</time>
      </trkpt>
      <trkpt lat="42.92625" lon="0.18616">
        <ele>1506</ele>
        <time>2019-06-23T08:27:55.087Z</time>
      </trkpt>
      <trkpt lat="42.92625" lon="0.18616">
        <ele>1506</ele>
        <time>2019-06-23T08:27:56.087Z</time>
      </trkpt>
      <trkpt lat="42.92625" lon="0.18615">
        <ele>1506</ele>
        <time>2019-06-23T08:27:57.087Z</time>
      </trkpt>
      <trkpt lat="42.92625" lon="0.18614">
        <ele>1508</ele>
        <time>2019-06-23T08:27:58.087Z</time>
      </trkpt>
      <trkpt lat="42.92625" lon="0.18613">
        <ele>1507</ele>
        <time>2019-06-23T08:27:59.087Z</time>
      </trkpt>
      <trkpt lat="42.92625" lon="0.18612">
        <ele>1507</ele>
        <time>2019-06-23T08:28:00.087Z</time>
      </trkpt>
      <trkpt lat="42.92625" lon="0.18611">
        <ele>1507</ele>
        <time>2019-06-23T08:28:01.087Z</time>
      </trkpt>
      <trkpt lat="42.92626" lon="0.1861">
        <ele>1508</ele>
        <time>2019-06-23T08:28:02.087Z</time>
      </trkpt>
      <trkpt lat="42.92626" lon="0.18609">
        <ele>1508</ele>
        <time>2019-06-23T08:28:03.087Z</time>
      </trkpt>
      <trkpt lat="42.92627" lon="0.18608">
        <ele>1510</ele>
        <time>2019-06-23T08:28:04.087Z</time>
      </trkpt>
      <trkpt lat="42.92628" lon="0.18608">
        <ele>1510</ele>
        <time>2019-06-23T08:28:05.087Z</time>
      </trkpt>
      <trkpt lat="42.92629" lon="0.18607">
        <ele>1510</ele>
        <time>2019-06-23T08:28:06.087Z</time>
      </trkpt>
      <trkpt lat="42.92629" lon="0.18606">
        <ele>1509</ele>
        <time>2019-06-23T08:28:07.087Z</time>
      </trkpt>
      <trkpt lat="42.92629" lon="0.18606">
        <ele>1510</ele>
        <time>2019-06-23T08:28:08.087Z</time>
      </trkpt>
      <trkpt lat="42.9263" lon="0.18605">
        <ele>1511</ele>
        <time>2019-06-23T08:28:09.087Z</time>
      </trkpt>
      <trkpt lat="42.9263" lon="0.18604">
        <ele>1511</ele>
        <time>2019-06-23T08:28:10.087Z</time>
      </trkpt>
      <trkpt lat="42.92631" lon="0.18604">
        <ele>1511</ele>
        <time>2019-06-23T08:28:11.087Z</time>
      </trkpt>
      <trkpt lat="42.92631" lon="0.18603">
        <ele>1511</ele>
        <time>2019-06-23T08:28:12.087Z</time>
      </trkpt>
      <trkpt lat="42.92631" lon="0.18603">
        <ele>1512</ele>
        <time>2019-06-23T08:28:13.087Z</time>
      </trkpt>
      <trkpt lat="42.92631" lon="0.18602">
        <ele>1512</ele>
        <time>2019-06-23T08:28:14.087Z</time>
      </trkpt>
      <trkpt lat="42.92631" lon="0.18601">
        <ele>1512</ele>
        <time>2019-06-23T08:28:15.087Z</time>
      </trkpt>
      <trkpt lat="42.92631" lon="0.18601">
        <ele>1512</ele>
        <time>2019-06-23T08:28:16.087Z</time>
      </trkpt>
      <trkpt lat="42.92632" lon="0.186">
        <ele>1511</ele>
        <time>2019-06-23T08:28:17.087Z</time>
      </trkpt>
      <trkpt lat="42.92632" lon="0.18599">
        <ele>1511</ele>
        <time>2019-06-23T08:28:18.087Z</time>
      </trkpt>
      <trkpt lat="42.92632" lon="0.18599">
        <ele>1511</ele>
        <time>2019-06-23T08:28:19.087Z</time>
      </trkpt>
      <trkpt lat="42.92632" lon="0.18598">
        <ele>1511</ele>
        <time>2019-06-23T08:28:20.087Z</time>
      </trkpt>
      <trkpt lat="42.92632" lon="0.18598">
        <ele>1511</ele>
        <time>2019-06-23T08:28:21.087Z</time>
      </trkpt>
      <trkpt lat="42.92632" lon="0.18597">
        <ele>1510</ele>
        <time>2019-06-23T08:28:22.087Z</time>
      </trkpt>
      <trkpt lat="42.92632" lon="0.18597">
        <ele>1510</ele>
        <time>2019-06-23T08:28:23.087Z</time>
      </trkpt>
      <trkpt lat="42.92633" lon="0.18596">
        <ele>1510</ele>
        <time>2019-06-23T08:28:24.087Z</time>
      </trkpt>
      <trkpt lat="42.92633" lon="0.18596">
        <ele>1510</ele>
        <time>2019-06-23T08:28:25.087Z</time>
      </trkpt>
      <trkpt lat="42.92632" lon="0.18595">
        <ele>1511</ele>
        <time>2019-06-23T08:28:26.087Z</time>
      </trkpt>
      <trkpt lat="42.92632" lon="0.18594">
        <ele>1511</ele>
        <time>2019-06-23T08:28:27.087Z</time>
      </trkpt>
      <trkpt lat="42.92632" lon="0.18594">
        <ele>1511</ele>
        <time>2019-06-23T08:28:28.087Z</time>
      </trkpt>
      <trkpt lat="42.92632" lon="0.18593">
        <ele>1510</ele>
        <time>2019-06-23T08:28:29.087Z</time>
      </trkpt>
      <trkpt lat="42.92632" lon="0.18593">
        <ele>1510</ele>
        <time>2019-06-23T08:28:30.087Z</time>
      </trkpt>
      <trkpt lat="42.92632" lon="0.18592">
        <ele>1510</ele>
        <time>2019-06-23T08:28:31.087Z</time>
      </trkpt>
      <trkpt lat="42.92632" lon="0.18591">
        <ele>1511</ele>
        <time>2019-06-23T08:28:32.087Z</time>
      </trkpt>
      <trkpt lat="42.92632" lon="0.18591">
        <ele>1511</ele>
        <time>2019-06-23T08:28:33.087Z</time>
      </trkpt>
      <trkpt lat="42.92633" lon="0.1859">
        <ele>1512</ele>
        <time>2019-06-23T08:28:34.087Z</time>
      </trkpt>
      <trkpt lat="42.92633" lon="0.1859">
        <ele>1512</ele>
        <time>2019-06-23T08:28:35.087Z</time>
      </trkpt>
      <trkpt lat="42.92633" lon="0.18589">
        <ele>1512</ele>
        <time>2019-06-23T08:28:36.087Z</time>
      </trkpt>
      <trkpt lat="42.92634" lon="0.18588">
        <ele>1512</ele>
        <time>2019-06-23T08:28:37.087Z</time>
      </trkpt>
      <trkpt lat="42.92634" lon="0.18588">
        <ele>1513</ele>
        <time>2019-06-23T08:28:38.087Z</time>
      </trkpt>
      <trkpt lat="42.92635" lon="0.18587">
        <ele>1513</ele>
        <time>2019-06-23T08:28:39.087Z</time>
      </trkpt>
      <trkpt lat="42.92635" lon="0.18586">
        <ele>1512</ele>
        <time>2019-06-23T08:28:40.087Z</time>
      </trkpt>
      <trkpt lat="42.92635" lon="0.18586">
        <ele>1512</ele>
        <time>2019-06-23T08:28:41.087Z</time>
      </trkpt>
      <trkpt lat="42.92635" lon="0.18585">
        <ele>1512</ele>
        <time>2019-06-23T08:28:42.087Z</time>
      </trkpt>
      <trkpt lat="42.92636" lon="0.18585">
        <ele>1513</ele>
        <time>2019-06-23T08:28:43.087Z</time>
      </trkpt>
      <trkpt lat="42.92636" lon="0.18584">
        <ele>1512</ele>
        <time>2019-06-23T08:28:44.087Z</time>
      </trkpt>
      <trkpt lat="42.92636" lon="0.18583">
        <ele>1513</ele>
        <time>2019-06-23T08:28:45.087Z</time>
      </trkpt>
      <trkpt lat="42.92636" lon="0.18582">
        <ele>1513</ele>
        <time>2019-06-23T08:28:46.087Z</time>
      </trkpt>
      <trkpt lat="42.92637" lon="0.18582">
        <ele>1513</ele>
        <time>2019-06-23T08:28:47.087Z</time>
      </trkpt>
      <trkpt lat="42.92637" lon="0.18582">
        <ele>1513</ele>
        <time>2019-06-23T08:28:48.087Z</time>
      </trkpt>
      <trkpt lat="42.92637" lon="0.18581">
        <ele>1514</ele>
        <time>2019-06-23T08:28:49.087Z</time>
      </trkpt>
      <trkpt lat="42.92637" lon="0.18581">
        <ele>1514</ele>
        <time>2019-06-23T08:28:50.087Z</time>
      </trkpt>
      <trkpt lat="42.92637" lon="0.1858">
        <ele>1514</ele>
        <time>2019-06-23T08:28:51.087Z</time>
      </trkpt>
      <trkpt lat="42.92638" lon="0.18579">
        <ele>1514</ele>
        <time>2019-06-23T08:28:52.087Z</time>
      </trkpt>
      <trkpt lat="42.92638" lon="0.18579">
        <ele>1515</ele>
        <time>2019-06-23T08:28:53.087Z</time>
      </trkpt>
      <trkpt lat="42.92638" lon="0.18579">
        <ele>1515</ele>
        <time>2019-06-23T08:28:54.087Z</time>
      </trkpt>
      <trkpt lat="42.92638" lon="0.18579">
        <ele>1515</ele>
        <time>2019-06-23T08:28:55.087Z</time>
      </trkpt>
      <trkpt lat="42.92638" lon="0.18579">
        <ele>1515</ele>
        <time>2019-06-23T08:28:56.087Z</time>
      </trkpt>
      <trkpt lat="42.92638" lon="0.18579">
        <ele>1515</ele>
        <time>2019-06-23T08:28:57.087Z</time>
      </trkpt>
      <trkpt lat="42.92639" lon="0.1857">
        <ele>1526</ele>
        <time>2019-06-23T08:28:58.103Z</time>
      </trkpt>
      <trkpt lat="42.92639" lon="0.18569">
        <ele>1526</ele>
        <time>2019-06-23T08:28:59.103Z</time>
      </trkpt>
      <trkpt lat="42.9264" lon="0.18568">
        <ele>1527</ele>
        <time>2019-06-23T08:29:00.103Z</time>
      </trkpt>
      <trkpt lat="42.9264" lon="0.18567">
        <ele>1527</ele>
        <time>2019-06-23T08:29:01.103Z</time>
      </trkpt>
      <trkpt lat="42.9264" lon="0.18567">
        <ele>1526</ele>
        <time>2019-06-23T08:29:02.103Z</time>
      </trkpt>
      <trkpt lat="42.92641" lon="0.18566">
        <ele>1527</ele>
        <time>2019-06-23T08:29:03.103Z</time>
      </trkpt>
      <trkpt lat="42.92641" lon="0.18566">
        <ele>1527</ele>
        <time>2019-06-23T08:29:04.103Z</time>
      </trkpt>
      <trkpt lat="42.92641" lon="0.18566">
        <ele>1528</ele>
        <time>2019-06-23T08:29:05.103Z</time>
      </trkpt>
      <trkpt lat="42.92642" lon="0.18566">
        <ele>1527</ele>
        <time>2019-06-23T08:29:06.103Z</time>
      </trkpt>
      <trkpt lat="42.92642" lon="0.18565">
        <ele>1528</ele>
        <time>2019-06-23T08:29:07.103Z</time>
      </trkpt>
      <trkpt lat="42.92642" lon="0.18565">
        <ele>1528</ele>
        <time>2019-06-23T08:29:08.103Z</time>
      </trkpt>
      <trkpt lat="42.92643" lon="0.18565">
        <ele>1528</ele>
        <time>2019-06-23T08:29:09.103Z</time>
      </trkpt>
      <trkpt lat="42.92643" lon="0.18564">
        <ele>1528</ele>
        <time>2019-06-23T08:29:10.103Z</time>
      </trkpt>
      <trkpt lat="42.92644" lon="0.18564">
        <ele>1528</ele>
        <time>2019-06-23T08:29:11.103Z</time>
      </trkpt>
      <trkpt lat="42.92644" lon="0.18563">
        <ele>1528</ele>
        <time>2019-06-23T08:29:12.103Z</time>
      </trkpt>
      <trkpt lat="42.92644" lon="0.18563">
        <ele>1526</ele>
        <time>2019-06-23T08:29:13.103Z</time>
      </trkpt>
      <trkpt lat="42.92644" lon="0.18563">
        <ele>1525</ele>
        <time>2019-06-23T08:29:14.103Z</time>
      </trkpt>
      <trkpt lat="42.92644" lon="0.18562">
        <ele>1524</ele>
        <time>2019-06-23T08:29:15.103Z</time>
      </trkpt>
      <trkpt lat="42.92644" lon="0.18562">
        <ele>1523</ele>
        <time>2019-06-23T08:29:16.103Z</time>
      </trkpt>
      <trkpt lat="42.92644" lon="0.18561">
        <ele>1523</ele>
        <time>2019-06-23T08:29:17.103Z</time>
      </trkpt>
      <trkpt lat="42.92644" lon="0.18561">
        <ele>1523</ele>
        <time>2019-06-23T08:29:18.103Z</time>
      </trkpt>
      <trkpt lat="42.92645" lon="0.1856">
        <ele>1523</ele>
        <time>2019-06-23T08:29:19.103Z</time>
      </trkpt>
      <trkpt lat="42.92645" lon="0.18559">
        <ele>1524</ele>
        <time>2019-06-23T08:29:20.103Z</time>
      </trkpt>
      <trkpt lat="42.92645" lon="0.18559">
        <ele>1524</ele>
        <time>2019-06-23T08:29:21.103Z</time>
      </trkpt>
      <trkpt lat="42.92646" lon="0.18558">
        <ele>1524</ele>
        <time>2019-06-23T08:29:22.103Z</time>
      </trkpt>
      <trkpt lat="42.92646" lon="0.18558">
        <ele>1523</ele>
        <time>2019-06-23T08:29:23.103Z</time>
      </trkpt>
      <trkpt lat="42.92646" lon="0.18557">
        <ele>1523</ele>
        <time>2019-06-23T08:29:24.103Z</time>
      </trkpt>
      <trkpt lat="42.92646" lon="0.18557">
        <ele>1524</ele>
        <time>2019-06-23T08:29:25.103Z</time>
      </trkpt>
      <trkpt lat="42.92647" lon="0.18556">
        <ele>1524</ele>
        <time>2019-06-23T08:29:26.103Z</time>
      </trkpt>
      <trkpt lat="42.92647" lon="0.18556">
        <ele>1525</ele>
        <time>2019-06-23T08:29:27.103Z</time>
      </trkpt>
      <trkpt lat="42.92648" lon="0.18556">
        <ele>1525</ele>
        <time>2019-06-23T08:29:28.103Z</time>
      </trkpt>
      <trkpt lat="42.92648" lon="0.18556">
        <ele>1526</ele>
        <time>2019-06-23T08:29:29.103Z</time>
      </trkpt>
      <trkpt lat="42.92649" lon="0.18556">
        <ele>1526</ele>
        <time>2019-06-23T08:29:30.103Z</time>
      </trkpt>
      <trkpt lat="42.92649" lon="0.18556">
        <ele>1525</ele>
        <time>2019-06-23T08:29:31.103Z</time>
      </trkpt>
      <trkpt lat="42.92649" lon="0.18556">
        <ele>1525</ele>
        <time>2019-06-23T08:29:32.103Z</time>
      </trkpt>
      <trkpt lat="42.92648" lon="0.18556">
        <ele>1521</ele>
        <time>2019-06-23T08:29:34.103Z</time>
      </trkpt>
      <trkpt lat="42.92648" lon="0.18556">
        <ele>1521</ele>
        <time>2019-06-23T08:29:35.103Z</time>
      </trkpt>
      <trkpt lat="42.92649" lon="0.18555">
        <ele>1522</ele>
        <time>2019-06-23T08:29:36.103Z</time>
      </trkpt>
      <trkpt lat="42.92649" lon="0.18554">
        <ele>1522</ele>
        <time>2019-06-23T08:29:37.103Z</time>
      </trkpt>
      <trkpt lat="42.9265" lon="0.18553">
        <ele>1522</ele>
        <time>2019-06-23T08:29:38.103Z</time>
      </trkpt>
      <trkpt lat="42.9265" lon="0.18552">
        <ele>1522</ele>
        <time>2019-06-23T08:29:39.103Z</time>
      </trkpt>
      <trkpt lat="42.92651" lon="0.18552">
        <ele>1522</ele>
        <time>2019-06-23T08:29:40.103Z</time>
      </trkpt>
      <trkpt lat="42.92651" lon="0.18551">
        <ele>1522</ele>
        <time>2019-06-23T08:29:41.103Z</time>
      </trkpt>
      <trkpt lat="42.92651" lon="0.1855">
        <ele>1522</ele>
        <time>2019-06-23T08:29:42.103Z</time>
      </trkpt>
      <trkpt lat="42.92652" lon="0.1855">
        <ele>1522</ele>
        <time>2019-06-23T08:29:43.103Z</time>
      </trkpt>
      <trkpt lat="42.92652" lon="0.18549">
        <ele>1523</ele>
        <time>2019-06-23T08:29:44.103Z</time>
      </trkpt>
      <trkpt lat="42.92653" lon="0.18548">
        <ele>1523</ele>
        <time>2019-06-23T08:29:45.103Z</time>
      </trkpt>
      <trkpt lat="42.92653" lon="0.18548">
        <ele>1523</ele>
        <time>2019-06-23T08:29:46.103Z</time>
      </trkpt>
      <trkpt lat="42.92654" lon="0.18547">
        <ele>1524</ele>
        <time>2019-06-23T08:29:47.103Z</time>
      </trkpt>
      <trkpt lat="42.92654" lon="0.18546">
        <ele>1523</ele>
        <time>2019-06-23T08:29:48.103Z</time>
      </trkpt>
      <trkpt lat="42.92655" lon="0.18546">
        <ele>1523</ele>
        <time>2019-06-23T08:29:49.103Z</time>
      </trkpt>
      <trkpt lat="42.92655" lon="0.18545">
        <ele>1524</ele>
        <time>2019-06-23T08:29:50.103Z</time>
      </trkpt>
      <trkpt lat="42.92655" lon="0.18544">
        <ele>1523</ele>
        <time>2019-06-23T08:29:51.103Z</time>
      </trkpt>
      <trkpt lat="42.92656" lon="0.18544">
        <ele>1523</ele>
        <time>2019-06-23T08:29:52.103Z</time>
      </trkpt>
      <trkpt lat="42.92656" lon="0.18543">
        <ele>1523</ele>
        <time>2019-06-23T08:29:53.103Z</time>
      </trkpt>
      <trkpt lat="42.92656" lon="0.18543">
        <ele>1522</ele>
        <time>2019-06-23T08:29:54.103Z</time>
      </trkpt>
      <trkpt lat="42.92657" lon="0.18542">
        <ele>1522</ele>
        <time>2019-06-23T08:29:55.103Z</time>
      </trkpt>
      <trkpt lat="42.92657" lon="0.18542">
        <ele>1522</ele>
        <time>2019-06-23T08:29:56.103Z</time>
      </trkpt>
      <trkpt lat="42.92657" lon="0.18541">
        <ele>1522</ele>
        <time>2019-06-23T08:29:57.103Z</time>
      </trkpt>
      <trkpt lat="42.92657" lon="0.1854">
        <ele>1522</ele>
        <time>2019-06-23T08:29:58.103Z</time>
      </trkpt>
      <trkpt lat="42.92657" lon="0.1854">
        <ele>1522</ele>
        <time>2019-06-23T08:29:59.103Z</time>
      </trkpt>
      <trkpt lat="42.92657" lon="0.18539">
        <ele>1523</ele>
        <time>2019-06-23T08:30:00.103Z</time>
      </trkpt>
      <trkpt lat="42.92657" lon="0.18538">
        <ele>1523</ele>
        <time>2019-06-23T08:30:01.103Z</time>
      </trkpt>
      <trkpt lat="42.92658" lon="0.18537">
        <ele>1523</ele>
        <time>2019-06-23T08:30:02.103Z</time>
      </trkpt>
      <trkpt lat="42.92658" lon="0.18536">
        <ele>1523</ele>
        <time>2019-06-23T08:30:03.103Z</time>
      </trkpt>
      <trkpt lat="42.92659" lon="0.18535">
        <ele>1524</ele>
        <time>2019-06-23T08:30:04.103Z</time>
      </trkpt>
      <trkpt lat="42.92659" lon="0.18534">
        <ele>1525</ele>
        <time>2019-06-23T08:30:05.103Z</time>
      </trkpt>
      <trkpt lat="42.9266" lon="0.18533">
        <ele>1527</ele>
        <time>2019-06-23T08:30:06.103Z</time>
      </trkpt>
      <trkpt lat="42.92661" lon="0.18531">
        <ele>1527</ele>
        <time>2019-06-23T08:30:07.103Z</time>
      </trkpt>
      <trkpt lat="42.92661" lon="0.1853">
        <ele>1527</ele>
        <time>2019-06-23T08:30:08.103Z</time>
      </trkpt>
      <trkpt lat="42.92662" lon="0.18529">
        <ele>1527</ele>
        <time>2019-06-23T08:30:09.103Z</time>
      </trkpt>
      <trkpt lat="42.92662" lon="0.18528">
        <ele>1528</ele>
        <time>2019-06-23T08:30:10.103Z</time>
      </trkpt>
      <trkpt lat="42.92663" lon="0.18527">
        <ele>1529</ele>
        <time>2019-06-23T08:30:11.103Z</time>
      </trkpt>
      <trkpt lat="42.92663" lon="0.18526">
        <ele>1531</ele>
        <time>2019-06-23T08:30:12.103Z</time>
      </trkpt>
      <trkpt lat="42.92664" lon="0.18525">
        <ele>1533</ele>
        <time>2019-06-23T08:30:13.103Z</time>
      </trkpt>
      <trkpt lat="42.92664" lon="0.18523">
        <ele>1534</ele>
        <time>2019-06-23T08:30:14.103Z</time>
      </trkpt>
      <trkpt lat="42.92665" lon="0.18522">
        <ele>1535</ele>
        <time>2019-06-23T08:30:15.103Z</time>
      </trkpt>
      <trkpt lat="42.92665" lon="0.18521">
        <ele>1536</ele>
        <time>2019-06-23T08:30:16.103Z</time>
      </trkpt>
      <trkpt lat="42.92666" lon="0.1852">
        <ele>1537</ele>
        <time>2019-06-23T08:30:17.103Z</time>
      </trkpt>
      <trkpt lat="42.92666" lon="0.1852">
        <ele>1539</ele>
        <time>2019-06-23T08:30:18.103Z</time>
      </trkpt>
      <trkpt lat="42.92667" lon="0.18519">
        <ele>1538</ele>
        <time>2019-06-23T08:30:19.103Z</time>
      </trkpt>
      <trkpt lat="42.92668" lon="0.18519">
        <ele>1538</ele>
        <time>2019-06-23T08:30:20.103Z</time>
      </trkpt>
      <trkpt lat="42.92669" lon="0.18519">
        <ele>1539</ele>
        <time>2019-06-23T08:30:21.103Z</time>
      </trkpt>
      <trkpt lat="42.92669" lon="0.18518">
        <ele>1539</ele>
        <time>2019-06-23T08:30:22.103Z</time>
      </trkpt>
      <trkpt lat="42.92669" lon="0.18518">
        <ele>1538</ele>
        <time>2019-06-23T08:30:23.103Z</time>
      </trkpt>
      <trkpt lat="42.9267" lon="0.18517">
        <ele>1539</ele>
        <time>2019-06-23T08:30:24.103Z</time>
      </trkpt>
      <trkpt lat="42.9267" lon="0.18517">
        <ele>1538</ele>
        <time>2019-06-23T08:30:25.103Z</time>
      </trkpt>
      <trkpt lat="42.92671" lon="0.18516">
        <ele>1539</ele>
        <time>2019-06-23T08:30:26.103Z</time>
      </trkpt>
      <trkpt lat="42.92671" lon="0.18515">
        <ele>1538</ele>
        <time>2019-06-23T08:30:27.103Z</time>
      </trkpt>
      <trkpt lat="42.92671" lon="0.18515">
        <ele>1537</ele>
        <time>2019-06-23T08:30:28.103Z</time>
      </trkpt>
      <trkpt lat="42.92671" lon="0.18515">
        <ele>1537</ele>
        <time>2019-06-23T08:30:29.103Z</time>
      </trkpt>
      <trkpt lat="42.92671" lon="0.18514">
        <ele>1537</ele>
        <time>2019-06-23T08:30:30.103Z</time>
      </trkpt>
      <trkpt lat="42.92672" lon="0.18513">
        <ele>1537</ele>
        <time>2019-06-23T08:30:31.103Z</time>
      </trkpt>
      <trkpt lat="42.92672" lon="0.18513">
        <ele>1537</ele>
        <time>2019-06-23T08:30:32.103Z</time>
      </trkpt>
      <trkpt lat="42.92672" lon="0.18512">
        <ele>1537</ele>
        <time>2019-06-23T08:30:33.103Z</time>
      </trkpt>
      <trkpt lat="42.92672" lon="0.18512">
        <ele>1537</ele>
        <time>2019-06-23T08:30:34.103Z</time>
      </trkpt>
      <trkpt lat="42.92673" lon="0.18511">
        <ele>1537</ele>
        <time>2019-06-23T08:30:35.103Z</time>
      </trkpt>
      <trkpt lat="42.92673" lon="0.1851">
        <ele>1537</ele>
        <time>2019-06-23T08:30:36.103Z</time>
      </trkpt>
      <trkpt lat="42.92674" lon="0.1851">
        <ele>1537</ele>
        <time>2019-06-23T08:30:37.103Z</time>
      </trkpt>
      <trkpt lat="42.92674" lon="0.18509">
        <ele>1536</ele>
        <time>2019-06-23T08:30:38.103Z</time>
      </trkpt>
      <trkpt lat="42.92674" lon="0.18509">
        <ele>1536</ele>
        <time>2019-06-23T08:30:39.103Z</time>
      </trkpt>
      <trkpt lat="42.92674" lon="0.18509">
        <ele>1536</ele>
        <time>2019-06-23T08:30:40.103Z</time>
      </trkpt>
      <trkpt lat="42.92675" lon="0.18508">
        <ele>1536</ele>
        <time>2019-06-23T08:30:41.103Z</time>
      </trkpt>
      <trkpt lat="42.92675" lon="0.18508">
        <ele>1537</ele>
        <time>2019-06-23T08:30:42.103Z</time>
      </trkpt>
      <trkpt lat="42.92675" lon="0.18507">
        <ele>1537</ele>
        <time>2019-06-23T08:30:43.103Z</time>
      </trkpt>
      <trkpt lat="42.92676" lon="0.18507">
        <ele>1537</ele>
        <time>2019-06-23T08:30:44.103Z</time>
      </trkpt>
      <trkpt lat="42.92676" lon="0.18506">
        <ele>1536</ele>
        <time>2019-06-23T08:30:45.103Z</time>
      </trkpt>
      <trkpt lat="42.92676" lon="0.18506">
        <ele>1536</ele>
        <time>2019-06-23T08:30:46.103Z</time>
      </trkpt>
      <trkpt lat="42.92677" lon="0.18505">
        <ele>1537</ele>
        <time>2019-06-23T08:30:47.103Z</time>
      </trkpt>
      <trkpt lat="42.92677" lon="0.18505">
        <ele>1537</ele>
        <time>2019-06-23T08:30:48.103Z</time>
      </trkpt>
      <trkpt lat="42.92677" lon="0.18504">
        <ele>1537</ele>
        <time>2019-06-23T08:30:49.103Z</time>
      </trkpt>
      <trkpt lat="42.92678" lon="0.18503">
        <ele>1537</ele>
        <time>2019-06-23T08:30:50.103Z</time>
      </trkpt>
      <trkpt lat="42.92678" lon="0.18502">
        <ele>1537</ele>
        <time>2019-06-23T08:30:51.103Z</time>
      </trkpt>
      <trkpt lat="42.92679" lon="0.18502">
        <ele>1537</ele>
        <time>2019-06-23T08:30:52.103Z</time>
      </trkpt>
      <trkpt lat="42.92679" lon="0.18501">
        <ele>1537</ele>
        <time>2019-06-23T08:30:53.103Z</time>
      </trkpt>
      <trkpt lat="42.92679" lon="0.18501">
        <ele>1537</ele>
        <time>2019-06-23T08:30:54.103Z</time>
      </trkpt>
      <trkpt lat="42.9268" lon="0.18501">
        <ele>1538</ele>
        <time>2019-06-23T08:30:55.103Z</time>
      </trkpt>
      <trkpt lat="42.9268" lon="0.18501">
        <ele>1538</ele>
        <time>2019-06-23T08:30:56.103Z</time>
      </trkpt>
      <trkpt lat="42.9268" lon="0.18501">
        <ele>1538</ele>
        <time>2019-06-23T08:30:57.103Z</time>
      </trkpt>
      <trkpt lat="42.9268" lon="0.18501">
        <ele>1537</ele>
        <time>2019-06-23T08:30:58.103Z</time>
      </trkpt>
      <trkpt lat="42.9268" lon="0.18501">
        <ele>1537</ele>
        <time>2019-06-23T08:30:59.103Z</time>
      </trkpt>
      <trkpt lat="42.92681" lon="0.18501">
        <ele>1537</ele>
        <time>2019-06-23T08:31:00.103Z</time>
      </trkpt>
      <trkpt lat="42.92681" lon="0.18501">
        <ele>1538</ele>
        <time>2019-06-23T08:31:01.103Z</time>
      </trkpt>
      <trkpt lat="42.92683" lon="0.18499">
        <ele>1528</ele>
        <time>2019-06-23T08:31:02.115Z</time>
      </trkpt>
      <trkpt lat="42.92683" lon="0.18499">
        <ele>1528</ele>
        <time>2019-06-23T08:31:03.115Z</time>
      </trkpt>
      <trkpt lat="42.92683" lon="0.18498">
        <ele>1528</ele>
        <time>2019-06-23T08:31:04.115Z</time>
      </trkpt>
      <trkpt lat="42.92684" lon="0.18498">
        <ele>1528</ele>
        <time>2019-06-23T08:31:05.115Z</time>
      </trkpt>
      <trkpt lat="42.92684" lon="0.18497">
        <ele>1530</ele>
        <time>2019-06-23T08:31:06.115Z</time>
      </trkpt>
      <trkpt lat="42.92685" lon="0.18496">
        <ele>1530</ele>
        <time>2019-06-23T08:31:07.115Z</time>
      </trkpt>
      <trkpt lat="42.92685" lon="0.18495">
        <ele>1530</ele>
        <time>2019-06-23T08:31:08.115Z</time>
      </trkpt>
      <trkpt lat="42.92685" lon="0.18495">
        <ele>1530</ele>
        <time>2019-06-23T08:31:09.115Z</time>
      </trkpt>
      <trkpt lat="42.92686" lon="0.18494">
        <ele>1529</ele>
        <time>2019-06-23T08:31:10.115Z</time>
      </trkpt>
      <trkpt lat="42.92686" lon="0.18494">
        <ele>1528</ele>
        <time>2019-06-23T08:31:11.115Z</time>
      </trkpt>
      <trkpt lat="42.92686" lon="0.18495">
        <ele>1527</ele>
        <time>2019-06-23T08:31:12.115Z</time>
      </trkpt>
      <trkpt lat="42.92685" lon="0.18495">
        <ele>1528</ele>
        <time>2019-06-23T08:31:13.115Z</time>
      </trkpt>
      <trkpt lat="42.92686" lon="0.18494">
        <ele>1528</ele>
        <time>2019-06-23T08:31:14.115Z</time>
      </trkpt>
      <trkpt lat="42.92686" lon="0.18493">
        <ele>1528</ele>
        <time>2019-06-23T08:31:15.115Z</time>
      </trkpt>
      <trkpt lat="42.92686" lon="0.18493">
        <ele>1528</ele>
        <time>2019-06-23T08:31:16.115Z</time>
      </trkpt>
      <trkpt lat="42.92687" lon="0.18492">
        <ele>1528</ele>
        <time>2019-06-23T08:31:17.115Z</time>
      </trkpt>
      <trkpt lat="42.92687" lon="0.18492">
        <ele>1528</ele>
        <time>2019-06-23T08:31:18.115Z</time>
      </trkpt>
      <trkpt lat="42.92688" lon="0.18491">
        <ele>1528</ele>
        <time>2019-06-23T08:31:19.115Z</time>
      </trkpt>
      <trkpt lat="42.92688" lon="0.18491">
        <ele>1528</ele>
        <time>2019-06-23T08:31:20.115Z</time>
      </trkpt>
      <trkpt lat="42.92689" lon="0.1849">
        <ele>1528</ele>
        <time>2019-06-23T08:31:21.115Z</time>
      </trkpt>
      <trkpt lat="42.92689" lon="0.1849">
        <ele>1528</ele>
        <time>2019-06-23T08:31:22.115Z</time>
      </trkpt>
      <trkpt lat="42.9269" lon="0.1849">
        <ele>1528</ele>
        <time>2019-06-23T08:31:23.115Z</time>
      </trkpt>
      <trkpt lat="42.9269" lon="0.18489">
        <ele>1528</ele>
        <time>2019-06-23T08:31:24.115Z</time>
      </trkpt>
      <trkpt lat="42.9269" lon="0.18489">
        <ele>1527</ele>
        <time>2019-06-23T08:31:25.115Z</time>
      </trkpt>
      <trkpt lat="42.92691" lon="0.18488">
        <ele>1527</ele>
        <time>2019-06-23T08:31:26.115Z</time>
      </trkpt>
      <trkpt lat="42.92691" lon="0.18488">
        <ele>1528</ele>
        <time>2019-06-23T08:31:27.115Z</time>
      </trkpt>
      <trkpt lat="42.92691" lon="0.18487">
        <ele>1528</ele>
        <time>2019-06-23T08:31:28.115Z</time>
      </trkpt>
      <trkpt lat="42.92692" lon="0.18486">
        <ele>1529</ele>
        <time>2019-06-23T08:31:29.115Z</time>
      </trkpt>
      <trkpt lat="42.92692" lon="0.18486">
        <ele>1528</ele>
        <time>2019-06-23T08:31:30.115Z</time>
      </trkpt>
      <trkpt lat="42.92693" lon="0.18485">
        <ele>1528</ele>
        <time>2019-06-23T08:31:31.115Z</time>
      </trkpt>
      <trkpt lat="42.92693" lon="0.18485">
        <ele>1528</ele>
        <time>2019-06-23T08:31:32.115Z</time>
      </trkpt>
      <trkpt lat="42.92694" lon="0.18484">
        <ele>1528</ele>
        <time>2019-06-23T08:31:33.115Z</time>
      </trkpt>
      <trkpt lat="42.92694" lon="0.18484">
        <ele>1528</ele>
        <time>2019-06-23T08:31:34.115Z</time>
      </trkpt>
      <trkpt lat="42.92694" lon="0.18483">
        <ele>1527</ele>
        <time>2019-06-23T08:31:35.115Z</time>
      </trkpt>
      <trkpt lat="42.92695" lon="0.18483">
        <ele>1527</ele>
        <time>2019-06-23T08:31:36.115Z</time>
      </trkpt>
      <trkpt lat="42.92695" lon="0.18483">
        <ele>1527</ele>
        <time>2019-06-23T08:31:37.115Z</time>
      </trkpt>
      <trkpt lat="42.92695" lon="0.18483">
        <ele>1528</ele>
        <time>2019-06-23T08:31:38.115Z</time>
      </trkpt>
      <trkpt lat="42.92696" lon="0.18482">
        <ele>1528</ele>
        <time>2019-06-23T08:31:39.115Z</time>
      </trkpt>
      <trkpt lat="42.92696" lon="0.18482">
        <ele>1528</ele>
        <time>2019-06-23T08:31:40.115Z</time>
      </trkpt>
      <trkpt lat="42.92697" lon="0.18481">
        <ele>1528</ele>
        <time>2019-06-23T08:31:41.115Z</time>
      </trkpt>
      <trkpt lat="42.92697" lon="0.18481">
        <ele>1529</ele>
        <time>2019-06-23T08:31:42.115Z</time>
      </trkpt>
      <trkpt lat="42.92698" lon="0.1848">
        <ele>1529</ele>
        <time>2019-06-23T08:31:43.115Z</time>
      </trkpt>
      <trkpt lat="42.92698" lon="0.18479">
        <ele>1529</ele>
        <time>2019-06-23T08:31:44.115Z</time>
      </trkpt>
      <trkpt lat="42.92699" lon="0.18479">
        <ele>1529</ele>
        <time>2019-06-23T08:31:45.115Z</time>
      </trkpt>
      <trkpt lat="42.92699" lon="0.18478">
        <ele>1531</ele>
        <time>2019-06-23T08:31:46.115Z</time>
      </trkpt>
      <trkpt lat="42.927" lon="0.18477">
        <ele>1531</ele>
        <time>2019-06-23T08:31:47.115Z</time>
      </trkpt>
      <trkpt lat="42.927" lon="0.18476">
        <ele>1531</ele>
        <time>2019-06-23T08:31:48.115Z</time>
      </trkpt>
      <trkpt lat="42.92701" lon="0.18475">
        <ele>1531</ele>
        <time>2019-06-23T08:31:49.115Z</time>
      </trkpt>
      <trkpt lat="42.92701" lon="0.18475">
        <ele>1532</ele>
        <time>2019-06-23T08:31:50.115Z</time>
      </trkpt>
      <trkpt lat="42.92702" lon="0.18474">
        <ele>1532</ele>
        <time>2019-06-23T08:31:51.115Z</time>
      </trkpt>
      <trkpt lat="42.92702" lon="0.18473">
        <ele>1532</ele>
        <time>2019-06-23T08:31:52.115Z</time>
      </trkpt>
      <trkpt lat="42.92703" lon="0.18473">
        <ele>1532</ele>
        <time>2019-06-23T08:31:53.115Z</time>
      </trkpt>
      <trkpt lat="42.92703" lon="0.18472">
        <ele>1532</ele>
        <time>2019-06-23T08:31:54.115Z</time>
      </trkpt>
      <trkpt lat="42.92704" lon="0.18472">
        <ele>1532</ele>
        <time>2019-06-23T08:31:55.115Z</time>
      </trkpt>
      <trkpt lat="42.92705" lon="0.18472">
        <ele>1532</ele>
        <time>2019-06-23T08:31:56.115Z</time>
      </trkpt>
      <trkpt lat="42.92705" lon="0.18471">
        <ele>1532</ele>
        <time>2019-06-23T08:31:57.115Z</time>
      </trkpt>
      <trkpt lat="42.92706" lon="0.1847">
        <ele>1532</ele>
        <time>2019-06-23T08:31:58.115Z</time>
      </trkpt>
      <trkpt lat="42.92707" lon="0.1847">
        <ele>1532</ele>
        <time>2019-06-23T08:31:59.115Z</time>
      </trkpt>
      <trkpt lat="42.92707" lon="0.1847">
        <ele>1532</ele>
        <time>2019-06-23T08:32:00.115Z</time>
      </trkpt>
      <trkpt lat="42.92708" lon="0.18469">
        <ele>1533</ele>
        <time>2019-06-23T08:32:01.115Z</time>
      </trkpt>
      <trkpt lat="42.92708" lon="0.18469">
        <ele>1533</ele>
        <time>2019-06-23T08:32:02.115Z</time>
      </trkpt>
      <trkpt lat="42.92709" lon="0.18469">
        <ele>1532</ele>
        <time>2019-06-23T08:32:03.115Z</time>
      </trkpt>
      <trkpt lat="42.92709" lon="0.18468">
        <ele>1533</ele>
        <time>2019-06-23T08:32:04.115Z</time>
      </trkpt>
      <trkpt lat="42.92709" lon="0.18468">
        <ele>1533</ele>
        <time>2019-06-23T08:32:05.115Z</time>
      </trkpt>
      <trkpt lat="42.92709" lon="0.18467">
        <ele>1532</ele>
        <time>2019-06-23T08:32:06.115Z</time>
      </trkpt>
      <trkpt lat="42.9271" lon="0.18467">
        <ele>1530</ele>
        <time>2019-06-23T08:32:07.115Z</time>
      </trkpt>
      <trkpt lat="42.92711" lon="0.18467">
        <ele>1530</ele>
        <time>2019-06-23T08:32:08.115Z</time>
      </trkpt>
      <trkpt lat="42.92711" lon="0.18467">
        <ele>1530</ele>
        <time>2019-06-23T08:32:09.115Z</time>
      </trkpt>
      <trkpt lat="42.92712" lon="0.18467">
        <ele>1531</ele>
        <time>2019-06-23T08:32:10.115Z</time>
      </trkpt>
      <trkpt lat="42.92712" lon="0.18466">
        <ele>1532</ele>
        <time>2019-06-23T08:32:11.115Z</time>
      </trkpt>
      <trkpt lat="42.92712" lon="0.18466">
        <ele>1532</ele>
        <time>2019-06-23T08:32:12.115Z</time>
      </trkpt>
      <trkpt lat="42.92713" lon="0.18465">
        <ele>1533</ele>
        <time>2019-06-23T08:32:13.115Z</time>
      </trkpt>
      <trkpt lat="42.92713" lon="0.18465">
        <ele>1533</ele>
        <time>2019-06-23T08:32:14.115Z</time>
      </trkpt>
      <trkpt lat="42.92713" lon="0.18465">
        <ele>1532</ele>
        <time>2019-06-23T08:32:15.115Z</time>
      </trkpt>
      <trkpt lat="42.92713" lon="0.18465">
        <ele>1531</ele>
        <time>2019-06-23T08:32:16.115Z</time>
      </trkpt>
      <trkpt lat="42.92713" lon="0.18465">
        <ele>1531</ele>
        <time>2019-06-23T08:32:17.115Z</time>
      </trkpt>
      <trkpt lat="42.92713" lon="0.18465">
        <ele>1531</ele>
        <time>2019-06-23T08:32:18.115Z</time>
      </trkpt>
      <trkpt lat="42.92713" lon="0.18465">
        <ele>1531</ele>
        <time>2019-06-23T08:32:19.115Z</time>
      </trkpt>
      <trkpt lat="42.92715" lon="0.18462">
        <ele>1531</ele>
        <time>2019-06-23T08:32:20.123Z</time>
      </trkpt>
      <trkpt lat="42.92715" lon="0.18461">
        <ele>1532</ele>
        <time>2019-06-23T08:32:21.123Z</time>
      </trkpt>
      <trkpt lat="42.92716" lon="0.1846">
        <ele>1532</ele>
        <time>2019-06-23T08:32:22.123Z</time>
      </trkpt>
      <trkpt lat="42.92716" lon="0.1846">
        <ele>1533</ele>
        <time>2019-06-23T08:32:23.123Z</time>
      </trkpt>
      <trkpt lat="42.92717" lon="0.18459">
        <ele>1533</ele>
        <time>2019-06-23T08:32:24.123Z</time>
      </trkpt>
      <trkpt lat="42.92717" lon="0.18459">
        <ele>1533</ele>
        <time>2019-06-23T08:32:25.123Z</time>
      </trkpt>
      <trkpt lat="42.92718" lon="0.18458">
        <ele>1533</ele>
        <time>2019-06-23T08:32:26.123Z</time>
      </trkpt>
      <trkpt lat="42.92718" lon="0.18458">
        <ele>1534</ele>
        <time>2019-06-23T08:32:27.123Z</time>
      </trkpt>
      <trkpt lat="42.92719" lon="0.18457">
        <ele>1534</ele>
        <time>2019-06-23T08:32:28.123Z</time>
      </trkpt>
      <trkpt lat="42.92719" lon="0.18457">
        <ele>1534</ele>
        <time>2019-06-23T08:32:29.123Z</time>
      </trkpt>
      <trkpt lat="42.92719" lon="0.18457">
        <ele>1534</ele>
        <time>2019-06-23T08:32:30.123Z</time>
      </trkpt>
      <trkpt lat="42.92719" lon="0.18457">
        <ele>1534</ele>
        <time>2019-06-23T08:32:31.123Z</time>
      </trkpt>
      <trkpt lat="42.92719" lon="0.18457">
        <ele>1534</ele>
        <time>2019-06-23T08:32:32.123Z</time>
      </trkpt>
      <trkpt lat="42.92719" lon="0.18457">
        <ele>1534</ele>
        <time>2019-06-23T08:32:33.123Z</time>
      </trkpt>
      <trkpt lat="42.92719" lon="0.18458">
        <ele>1534</ele>
        <time>2019-06-23T08:32:34.123Z</time>
      </trkpt>
      <trkpt lat="42.92719" lon="0.18458">
        <ele>1534</ele>
        <time>2019-06-23T08:32:35.123Z</time>
      </trkpt>
      <trkpt lat="42.92719" lon="0.18458">
        <ele>1533</ele>
        <time>2019-06-23T08:32:36.123Z</time>
      </trkpt>
      <trkpt lat="42.92722" lon="0.18456">
        <ele>1533</ele>
        <time>2019-06-23T08:32:37.006Z</time>
      </trkpt>
      <trkpt lat="42.92722" lon="0.18455">
        <ele>1533</ele>
        <time>2019-06-23T08:32:38.006Z</time>
      </trkpt>
      <trkpt lat="42.92722" lon="0.18455">
        <ele>1533</ele>
        <time>2019-06-23T08:32:39.006Z</time>
      </trkpt>
      <trkpt lat="42.92723" lon="0.18455">
        <ele>1533</ele>
        <time>2019-06-23T08:32:40.006Z</time>
      </trkpt>
      <trkpt lat="42.92723" lon="0.18454">
        <ele>1533</ele>
        <time>2019-06-23T08:32:41.006Z</time>
      </trkpt>
      <trkpt lat="42.92724" lon="0.18454">
        <ele>1533</ele>
        <time>2019-06-23T08:32:42.006Z</time>
      </trkpt>
      <trkpt lat="42.92725" lon="0.18454">
        <ele>1533</ele>
        <time>2019-06-23T08:32:43.006Z</time>
      </trkpt>
      <trkpt lat="42.92725" lon="0.18453">
        <ele>1533</ele>
        <time>2019-06-23T08:32:44.006Z</time>
      </trkpt>
      <trkpt lat="42.92726" lon="0.18453">
        <ele>1533</ele>
        <time>2019-06-23T08:32:45.006Z</time>
      </trkpt>
      <trkpt lat="42.92727" lon="0.18452">
        <ele>1533</ele>
        <time>2019-06-23T08:32:46.006Z</time>
      </trkpt>
      <trkpt lat="42.92727" lon="0.18452">
        <ele>1534</ele>
        <time>2019-06-23T08:32:47.006Z</time>
      </trkpt>
      <trkpt lat="42.92728" lon="0.18451">
        <ele>1534</ele>
        <time>2019-06-23T08:32:48.006Z</time>
      </trkpt>
      <trkpt lat="42.92729" lon="0.18451">
        <ele>1534</ele>
        <time>2019-06-23T08:32:49.006Z</time>
      </trkpt>
      <trkpt lat="42.9273" lon="0.1845">
        <ele>1535</ele>
        <time>2019-06-23T08:32:50.006Z</time>
      </trkpt>
      <trkpt lat="42.9273" lon="0.1845">
        <ele>1536</ele>
        <time>2019-06-23T08:32:51.006Z</time>
      </trkpt>
      <trkpt lat="42.92731" lon="0.18449">
        <ele>1536</ele>
        <time>2019-06-23T08:32:52.006Z</time>
      </trkpt>
      <trkpt lat="42.92731" lon="0.18449">
        <ele>1535</ele>
        <time>2019-06-23T08:32:53.006Z</time>
      </trkpt>
      <trkpt lat="42.92732" lon="0.18449">
        <ele>1536</ele>
        <time>2019-06-23T08:32:54.006Z</time>
      </trkpt>
      <trkpt lat="42.92732" lon="0.18448">
        <ele>1536</ele>
        <time>2019-06-23T08:32:55.006Z</time>
      </trkpt>
      <trkpt lat="42.92732" lon="0.18448">
        <ele>1537</ele>
        <time>2019-06-23T08:32:56.006Z</time>
      </trkpt>
      <trkpt lat="42.92733" lon="0.18447">
        <ele>1538</ele>
        <time>2019-06-23T08:32:57.006Z</time>
      </trkpt>
      <trkpt lat="42.92733" lon="0.18447">
        <ele>1538</ele>
        <time>2019-06-23T08:32:58.006Z</time>
      </trkpt>
      <trkpt lat="42.92734" lon="0.18447">
        <ele>1539</ele>
        <time>2019-06-23T08:32:59.006Z</time>
      </trkpt>
      <trkpt lat="42.92734" lon="0.18446">
        <ele>1540</ele>
        <time>2019-06-23T08:33:00.006Z</time>
      </trkpt>
      <trkpt lat="42.92735" lon="0.18446">
        <ele>1539</ele>
        <time>2019-06-23T08:33:01.006Z</time>
      </trkpt>
      <trkpt lat="42.92735" lon="0.18446">
        <ele>1539</ele>
        <time>2019-06-23T08:33:02.006Z</time>
      </trkpt>
      <trkpt lat="42.92735" lon="0.18446">
        <ele>1539</ele>
        <time>2019-06-23T08:33:03.006Z</time>
      </trkpt>
      <trkpt lat="42.92735" lon="0.18446">
        <ele>1539</ele>
        <time>2019-06-23T08:33:04.006Z</time>
      </trkpt>
      <trkpt lat="42.92735" lon="0.18446">
        <ele>1538</ele>
        <time>2019-06-23T08:33:05.006Z</time>
      </trkpt>
      <trkpt lat="42.92736" lon="0.18446">
        <ele>1539</ele>
        <time>2019-06-23T08:33:06.006Z</time>
      </trkpt>
      <trkpt lat="42.92736" lon="0.18446">
        <ele>1539</ele>
        <time>2019-06-23T08:33:07.006Z</time>
      </trkpt>
      <trkpt lat="42.92737" lon="0.18445">
        <ele>1538</ele>
        <time>2019-06-23T08:33:08.006Z</time>
      </trkpt>
      <trkpt lat="42.92737" lon="0.18445">
        <ele>1538</ele>
        <time>2019-06-23T08:33:09.006Z</time>
      </trkpt>
      <trkpt lat="42.92737" lon="0.18445">
        <ele>1538</ele>
        <time>2019-06-23T08:33:10.006Z</time>
      </trkpt>
      <trkpt lat="42.92738" lon="0.18444">
        <ele>1538</ele>
        <time>2019-06-23T08:33:11.006Z</time>
      </trkpt>
      <trkpt lat="42.92738" lon="0.18444">
        <ele>1538</ele>
        <time>2019-06-23T08:33:12.006Z</time>
      </trkpt>
      <trkpt lat="42.92739" lon="0.18444">
        <ele>1538</ele>
        <time>2019-06-23T08:33:13.006Z</time>
      </trkpt>
      <trkpt lat="42.9274" lon="0.18444">
        <ele>1537</ele>
        <time>2019-06-23T08:33:14.006Z</time>
      </trkpt>
      <trkpt lat="42.92741" lon="0.18444">
        <ele>1537</ele>
        <time>2019-06-23T08:33:15.006Z</time>
      </trkpt>
      <trkpt lat="42.92741" lon="0.18444">
        <ele>1537</ele>
        <time>2019-06-23T08:33:16.006Z</time>
      </trkpt>
      <trkpt lat="42.92742" lon="0.18444">
        <ele>1537</ele>
        <time>2019-06-23T08:33:17.006Z</time>
      </trkpt>
      <trkpt lat="42.92743" lon="0.18444">
        <ele>1537</ele>
        <time>2019-06-23T08:33:18.006Z</time>
      </trkpt>
      <trkpt lat="42.92743" lon="0.18443">
        <ele>1538</ele>
        <time>2019-06-23T08:33:19.006Z</time>
      </trkpt>
      <trkpt lat="42.92744" lon="0.18443">
        <ele>1537</ele>
        <time>2019-06-23T08:33:20.006Z</time>
      </trkpt>
      <trkpt lat="42.92744" lon="0.18442">
        <ele>1537</ele>
        <time>2019-06-23T08:33:21.006Z</time>
      </trkpt>
      <trkpt lat="42.92745" lon="0.18442">
        <ele>1537</ele>
        <time>2019-06-23T08:33:22.006Z</time>
      </trkpt>
      <trkpt lat="42.92746" lon="0.18442">
        <ele>1538</ele>
        <time>2019-06-23T08:33:23.006Z</time>
      </trkpt>
      <trkpt lat="42.92746" lon="0.18441">
        <ele>1539</ele>
        <time>2019-06-23T08:33:24.006Z</time>
      </trkpt>
      <trkpt lat="42.92747" lon="0.1844">
        <ele>1541</ele>
        <time>2019-06-23T08:33:25.006Z</time>
      </trkpt>
      <trkpt lat="42.92748" lon="0.18439">
        <ele>1542</ele>
        <time>2019-06-23T08:33:26.006Z</time>
      </trkpt>
      <trkpt lat="42.92749" lon="0.18438">
        <ele>1542</ele>
        <time>2019-06-23T08:33:27.006Z</time>
      </trkpt>
      <trkpt lat="42.92749" lon="0.18438">
        <ele>1542</ele>
        <time>2019-06-23T08:33:28.006Z</time>
      </trkpt>
      <trkpt lat="42.9275" lon="0.18438">
        <ele>1542</ele>
        <time>2019-06-23T08:33:29.006Z</time>
      </trkpt>
      <trkpt lat="42.9275" lon="0.18437">
        <ele>1543</ele>
        <time>2019-06-23T08:33:30.006Z</time>
      </trkpt>
      <trkpt lat="42.9275" lon="0.18437">
        <ele>1543</ele>
        <time>2019-06-23T08:33:31.006Z</time>
      </trkpt>
      <trkpt lat="42.92751" lon="0.18436">
        <ele>1543</ele>
        <time>2019-06-23T08:33:32.006Z</time>
      </trkpt>
      <trkpt lat="42.92751" lon="0.18435">
        <ele>1544</ele>
        <time>2019-06-23T08:33:33.006Z</time>
      </trkpt>
      <trkpt lat="42.92752" lon="0.18435">
        <ele>1544</ele>
        <time>2019-06-23T08:33:34.006Z</time>
      </trkpt>
      <trkpt lat="42.92753" lon="0.18434">
        <ele>1544</ele>
        <time>2019-06-23T08:33:35.006Z</time>
      </trkpt>
      <trkpt lat="42.92753" lon="0.18434">
        <ele>1544</ele>
        <time>2019-06-23T08:33:36.006Z</time>
      </trkpt>
      <trkpt lat="42.92754" lon="0.18434">
        <ele>1544</ele>
        <time>2019-06-23T08:33:37.006Z</time>
      </trkpt>
      <trkpt lat="42.92754" lon="0.18433">
        <ele>1544</ele>
        <time>2019-06-23T08:33:38.006Z</time>
      </trkpt>
      <trkpt lat="42.92754" lon="0.18433">
        <ele>1544</ele>
        <time>2019-06-23T08:33:39.006Z</time>
      </trkpt>
      <trkpt lat="42.92755" lon="0.18432">
        <ele>1544</ele>
        <time>2019-06-23T08:33:40.006Z</time>
      </trkpt>
      <trkpt lat="42.92755" lon="0.18432">
        <ele>1544</ele>
        <time>2019-06-23T08:33:41.006Z</time>
      </trkpt>
      <trkpt lat="42.92756" lon="0.18431">
        <ele>1544</ele>
        <time>2019-06-23T08:33:42.006Z</time>
      </trkpt>
      <trkpt lat="42.92757" lon="0.18431">
        <ele>1545</ele>
        <time>2019-06-23T08:33:43.006Z</time>
      </trkpt>
      <trkpt lat="42.92757" lon="0.1843">
        <ele>1544</ele>
        <time>2019-06-23T08:33:44.006Z</time>
      </trkpt>
      <trkpt lat="42.92758" lon="0.1843">
        <ele>1544</ele>
        <time>2019-06-23T08:33:45.006Z</time>
      </trkpt>
      <trkpt lat="42.92758" lon="0.18429">
        <ele>1545</ele>
        <time>2019-06-23T08:33:46.006Z</time>
      </trkpt>
      <trkpt lat="42.92758" lon="0.18429">
        <ele>1545</ele>
        <time>2019-06-23T08:33:47.006Z</time>
      </trkpt>
      <trkpt lat="42.92759" lon="0.18428">
        <ele>1546</ele>
        <time>2019-06-23T08:33:48.006Z</time>
      </trkpt>
      <trkpt lat="42.92759" lon="0.18427">
        <ele>1547</ele>
        <time>2019-06-23T08:33:49.006Z</time>
      </trkpt>
      <trkpt lat="42.9276" lon="0.18426">
        <ele>1547</ele>
        <time>2019-06-23T08:33:50.006Z</time>
      </trkpt>
      <trkpt lat="42.9276" lon="0.18426">
        <ele>1548</ele>
        <time>2019-06-23T08:33:51.006Z</time>
      </trkpt>
      <trkpt lat="42.92761" lon="0.18425">
        <ele>1548</ele>
        <time>2019-06-23T08:33:52.006Z</time>
      </trkpt>
      <trkpt lat="42.92761" lon="0.18425">
        <ele>1548</ele>
        <time>2019-06-23T08:33:53.006Z</time>
      </trkpt>
      <trkpt lat="42.92762" lon="0.18424">
        <ele>1548</ele>
        <time>2019-06-23T08:33:54.006Z</time>
      </trkpt>
      <trkpt lat="42.92762" lon="0.18424">
        <ele>1548</ele>
        <time>2019-06-23T08:33:55.006Z</time>
      </trkpt>
      <trkpt lat="42.92762" lon="0.18424">
        <ele>1548</ele>
        <time>2019-06-23T08:33:56.006Z</time>
      </trkpt>
      <trkpt lat="42.92763" lon="0.18423">
        <ele>1547</ele>
        <time>2019-06-23T08:33:57.006Z</time>
      </trkpt>
      <trkpt lat="42.92763" lon="0.18423">
        <ele>1547</ele>
        <time>2019-06-23T08:33:58.006Z</time>
      </trkpt>
      <trkpt lat="42.92763" lon="0.18423">
        <ele>1547</ele>
        <time>2019-06-23T08:33:59.006Z</time>
      </trkpt>
      <trkpt lat="42.92764" lon="0.18423">
        <ele>1547</ele>
        <time>2019-06-23T08:34:00.006Z</time>
      </trkpt>
      <trkpt lat="42.92764" lon="0.18422">
        <ele>1547</ele>
        <time>2019-06-23T08:34:01.006Z</time>
      </trkpt>
      <trkpt lat="42.92765" lon="0.18422">
        <ele>1548</ele>
        <time>2019-06-23T08:34:02.006Z</time>
      </trkpt>
      <trkpt lat="42.92765" lon="0.18421">
        <ele>1548</ele>
        <time>2019-06-23T08:34:03.006Z</time>
      </trkpt>
      <trkpt lat="42.92766" lon="0.18421">
        <ele>1546</ele>
        <time>2019-06-23T08:34:04.006Z</time>
      </trkpt>
      <trkpt lat="42.92766" lon="0.18422">
        <ele>1545</ele>
        <time>2019-06-23T08:34:05.006Z</time>
      </trkpt>
      <trkpt lat="42.92766" lon="0.18422">
        <ele>1545</ele>
        <time>2019-06-23T08:34:06.006Z</time>
      </trkpt>
      <trkpt lat="42.92766" lon="0.18422">
        <ele>1544</ele>
        <time>2019-06-23T08:34:07.006Z</time>
      </trkpt>
      <trkpt lat="42.92766" lon="0.18422">
        <ele>1544</ele>
        <time>2019-06-23T08:34:08.006Z</time>
      </trkpt>
      <trkpt lat="42.92766" lon="0.18423">
        <ele>1544</ele>
        <time>2019-06-23T08:34:09.006Z</time>
      </trkpt>
      <trkpt lat="42.92766" lon="0.18423">
        <ele>1544</ele>
        <time>2019-06-23T08:34:10.006Z</time>
      </trkpt>
      <trkpt lat="42.92768" lon="0.18421">
        <ele>1543</ele>
        <time>2019-06-23T08:34:11.014Z</time>
      </trkpt>
      <trkpt lat="42.92768" lon="0.18421">
        <ele>1543</ele>
        <time>2019-06-23T08:34:12.014Z</time>
      </trkpt>
      <trkpt lat="42.92769" lon="0.18421">
        <ele>1543</ele>
        <time>2019-06-23T08:34:13.014Z</time>
      </trkpt>
      <trkpt lat="42.92769" lon="0.1842">
        <ele>1543</ele>
        <time>2019-06-23T08:34:14.014Z</time>
      </trkpt>
      <trkpt lat="42.92769" lon="0.1842">
        <ele>1543</ele>
        <time>2019-06-23T08:34:15.014Z</time>
      </trkpt>
      <trkpt lat="42.9277" lon="0.18419">
        <ele>1542</ele>
        <time>2019-06-23T08:34:16.014Z</time>
      </trkpt>
      <trkpt lat="42.9277" lon="0.18418">
        <ele>1543</ele>
        <time>2019-06-23T08:34:17.014Z</time>
      </trkpt>
      <trkpt lat="42.92771" lon="0.18418">
        <ele>1543</ele>
        <time>2019-06-23T08:34:18.014Z</time>
      </trkpt>
      <trkpt lat="42.92771" lon="0.18417">
        <ele>1543</ele>
        <time>2019-06-23T08:34:19.014Z</time>
      </trkpt>
      <trkpt lat="42.92771" lon="0.18416">
        <ele>1543</ele>
        <time>2019-06-23T08:34:20.014Z</time>
      </trkpt>
      <trkpt lat="42.92771" lon="0.18416">
        <ele>1543</ele>
        <time>2019-06-23T08:34:21.014Z</time>
      </trkpt>
      <trkpt lat="42.92772" lon="0.18416">
        <ele>1543</ele>
        <time>2019-06-23T08:34:22.014Z</time>
      </trkpt>
      <trkpt lat="42.92772" lon="0.18415">
        <ele>1543</ele>
        <time>2019-06-23T08:34:23.014Z</time>
      </trkpt>
      <trkpt lat="42.92772" lon="0.18415">
        <ele>1543</ele>
        <time>2019-06-23T08:34:24.014Z</time>
      </trkpt>
      <trkpt lat="42.92772" lon="0.18414">
        <ele>1543</ele>
        <time>2019-06-23T08:34:25.014Z</time>
      </trkpt>
      <trkpt lat="42.92772" lon="0.18413">
        <ele>1543</ele>
        <time>2019-06-23T08:34:26.014Z</time>
      </trkpt>
      <trkpt lat="42.92773" lon="0.18413">
        <ele>1543</ele>
        <time>2019-06-23T08:34:27.014Z</time>
      </trkpt>
      <trkpt lat="42.92773" lon="0.18413">
        <ele>1543</ele>
        <time>2019-06-23T08:34:28.014Z</time>
      </trkpt>
      <trkpt lat="42.92774" lon="0.18412">
        <ele>1544</ele>
        <time>2019-06-23T08:34:29.014Z</time>
      </trkpt>
      <trkpt lat="42.92775" lon="0.18411">
        <ele>1545</ele>
        <time>2019-06-23T08:34:30.014Z</time>
      </trkpt>
      <trkpt lat="42.92775" lon="0.18411">
        <ele>1545</ele>
        <time>2019-06-23T08:34:31.014Z</time>
      </trkpt>
      <trkpt lat="42.92775" lon="0.1841">
        <ele>1545</ele>
        <time>2019-06-23T08:34:32.014Z</time>
      </trkpt>
      <trkpt lat="42.92776" lon="0.1841">
        <ele>1545</ele>
        <time>2019-06-23T08:34:33.014Z</time>
      </trkpt>
      <trkpt lat="42.92776" lon="0.18409">
        <ele>1545</ele>
        <time>2019-06-23T08:34:34.014Z</time>
      </trkpt>
      <trkpt lat="42.92777" lon="0.18408">
        <ele>1546</ele>
        <time>2019-06-23T08:34:35.014Z</time>
      </trkpt>
      <trkpt lat="42.92777" lon="0.18408">
        <ele>1546</ele>
        <time>2019-06-23T08:34:36.014Z</time>
      </trkpt>
      <trkpt lat="42.92778" lon="0.18408">
        <ele>1547</ele>
        <time>2019-06-23T08:34:37.014Z</time>
      </trkpt>
      <trkpt lat="42.92778" lon="0.18407">
        <ele>1547</ele>
        <time>2019-06-23T08:34:38.014Z</time>
      </trkpt>
      <trkpt lat="42.92779" lon="0.18407">
        <ele>1547</ele>
        <time>2019-06-23T08:34:39.014Z</time>
      </trkpt>
      <trkpt lat="42.92779" lon="0.18407">
        <ele>1548</ele>
        <time>2019-06-23T08:34:40.014Z</time>
      </trkpt>
      <trkpt lat="42.92779" lon="0.18406">
        <ele>1548</ele>
        <time>2019-06-23T08:34:41.014Z</time>
      </trkpt>
      <trkpt lat="42.9278" lon="0.18406">
        <ele>1548</ele>
        <time>2019-06-23T08:34:42.014Z</time>
      </trkpt>
      <trkpt lat="42.9278" lon="0.18405">
        <ele>1548</ele>
        <time>2019-06-23T08:34:43.014Z</time>
      </trkpt>
      <trkpt lat="42.9278" lon="0.18405">
        <ele>1547</ele>
        <time>2019-06-23T08:34:44.014Z</time>
      </trkpt>
      <trkpt lat="42.92781" lon="0.18405">
        <ele>1547</ele>
        <time>2019-06-23T08:34:45.014Z</time>
      </trkpt>
      <trkpt lat="42.92781" lon="0.18405">
        <ele>1547</ele>
        <time>2019-06-23T08:34:46.014Z</time>
      </trkpt>
      <trkpt lat="42.92782" lon="0.18405">
        <ele>1547</ele>
        <time>2019-06-23T08:34:47.014Z</time>
      </trkpt>
      <trkpt lat="42.92782" lon="0.18405">
        <ele>1548</ele>
        <time>2019-06-23T08:34:48.014Z</time>
      </trkpt>
      <trkpt lat="42.92781" lon="0.18405">
        <ele>1549</ele>
        <time>2019-06-23T08:34:49.014Z</time>
      </trkpt>
      <trkpt lat="42.92781" lon="0.18405">
        <ele>1550</ele>
        <time>2019-06-23T08:34:50.014Z</time>
      </trkpt>
      <trkpt lat="42.92781" lon="0.18405">
        <ele>1550</ele>
        <time>2019-06-23T08:34:51.014Z</time>
      </trkpt>
      <trkpt lat="42.92781" lon="0.18404">
        <ele>1550</ele>
        <time>2019-06-23T08:34:52.014Z</time>
      </trkpt>
      <trkpt lat="42.92782" lon="0.18404">
        <ele>1550</ele>
        <time>2019-06-23T08:34:53.014Z</time>
      </trkpt>
      <trkpt lat="42.92782" lon="0.18403">
        <ele>1551</ele>
        <time>2019-06-23T08:34:54.014Z</time>
      </trkpt>
      <trkpt lat="42.92783" lon="0.18402">
        <ele>1551</ele>
        <time>2019-06-23T08:34:55.014Z</time>
      </trkpt>
      <trkpt lat="42.92783" lon="0.18402">
        <ele>1551</ele>
        <time>2019-06-23T08:34:56.014Z</time>
      </trkpt>
      <trkpt lat="42.92784" lon="0.18401">
        <ele>1551</ele>
        <time>2019-06-23T08:34:57.014Z</time>
      </trkpt>
      <trkpt lat="42.92784" lon="0.184">
        <ele>1550</ele>
        <time>2019-06-23T08:34:58.014Z</time>
      </trkpt>
      <trkpt lat="42.92784" lon="0.184">
        <ele>1550</ele>
        <time>2019-06-23T08:34:59.014Z</time>
      </trkpt>
      <trkpt lat="42.92785" lon="0.18399">
        <ele>1550</ele>
        <time>2019-06-23T08:35:00.014Z</time>
      </trkpt>
      <trkpt lat="42.92785" lon="0.18398">
        <ele>1550</ele>
        <time>2019-06-23T08:35:01.014Z</time>
      </trkpt>
      <trkpt lat="42.92786" lon="0.18397">
        <ele>1550</ele>
        <time>2019-06-23T08:35:02.014Z</time>
      </trkpt>
      <trkpt lat="42.92786" lon="0.18396">
        <ele>1550</ele>
        <time>2019-06-23T08:35:03.014Z</time>
      </trkpt>
      <trkpt lat="42.92787" lon="0.18395">
        <ele>1550</ele>
        <time>2019-06-23T08:35:04.014Z</time>
      </trkpt>
      <trkpt lat="42.92787" lon="0.18394">
        <ele>1550</ele>
        <time>2019-06-23T08:35:05.014Z</time>
      </trkpt>
      <trkpt lat="42.92788" lon="0.18394">
        <ele>1550</ele>
        <time>2019-06-23T08:35:06.014Z</time>
      </trkpt>
      <trkpt lat="42.92788" lon="0.18393">
        <ele>1550</ele>
        <time>2019-06-23T08:35:07.014Z</time>
      </trkpt>
      <trkpt lat="42.92789" lon="0.18392">
        <ele>1550</ele>
        <time>2019-06-23T08:35:08.014Z</time>
      </trkpt>
      <trkpt lat="42.92789" lon="0.18391">
        <ele>1550</ele>
        <time>2019-06-23T08:35:09.014Z</time>
      </trkpt>
      <trkpt lat="42.9279" lon="0.1839">
        <ele>1550</ele>
        <time>2019-06-23T08:35:10.014Z</time>
      </trkpt>
      <trkpt lat="42.9279" lon="0.18389">
        <ele>1551</ele>
        <time>2019-06-23T08:35:11.014Z</time>
      </trkpt>
      <trkpt lat="42.92791" lon="0.18388">
        <ele>1552</ele>
        <time>2019-06-23T08:35:12.014Z</time>
      </trkpt>
      <trkpt lat="42.92791" lon="0.18387">
        <ele>1552</ele>
        <time>2019-06-23T08:35:13.014Z</time>
      </trkpt>
      <trkpt lat="42.92791" lon="0.18387">
        <ele>1552</ele>
        <time>2019-06-23T08:35:14.014Z</time>
      </trkpt>
      <trkpt lat="42.92792" lon="0.18386">
        <ele>1552</ele>
        <time>2019-06-23T08:35:15.014Z</time>
      </trkpt>
      <trkpt lat="42.92792" lon="0.18386">
        <ele>1552</ele>
        <time>2019-06-23T08:35:16.014Z</time>
      </trkpt>
      <trkpt lat="42.92793" lon="0.18385">
        <ele>1553</ele>
        <time>2019-06-23T08:35:17.014Z</time>
      </trkpt>
      <trkpt lat="42.92793" lon="0.18384">
        <ele>1552</ele>
        <time>2019-06-23T08:35:18.014Z</time>
      </trkpt>
      <trkpt lat="42.92793" lon="0.18384">
        <ele>1552</ele>
        <time>2019-06-23T08:35:19.014Z</time>
      </trkpt>
      <trkpt lat="42.92794" lon="0.18383">
        <ele>1554</ele>
        <time>2019-06-23T08:35:20.014Z</time>
      </trkpt>
      <trkpt lat="42.92794" lon="0.18383">
        <ele>1554</ele>
        <time>2019-06-23T08:35:21.014Z</time>
      </trkpt>
      <trkpt lat="42.92795" lon="0.18382">
        <ele>1554</ele>
        <time>2019-06-23T08:35:22.014Z</time>
      </trkpt>
      <trkpt lat="42.92796" lon="0.18381">
        <ele>1553</ele>
        <time>2019-06-23T08:35:23.014Z</time>
      </trkpt>
      <trkpt lat="42.92796" lon="0.18381">
        <ele>1553</ele>
        <time>2019-06-23T08:35:24.014Z</time>
      </trkpt>
      <trkpt lat="42.92796" lon="0.1838">
        <ele>1553</ele>
        <time>2019-06-23T08:35:25.014Z</time>
      </trkpt>
      <trkpt lat="42.92797" lon="0.18379">
        <ele>1553</ele>
        <time>2019-06-23T08:35:26.014Z</time>
      </trkpt>
      <trkpt lat="42.92797" lon="0.18379">
        <ele>1553</ele>
        <time>2019-06-23T08:35:27.014Z</time>
      </trkpt>
      <trkpt lat="42.92797" lon="0.18378">
        <ele>1553</ele>
        <time>2019-06-23T08:35:28.014Z</time>
      </trkpt>
      <trkpt lat="42.92797" lon="0.18377">
        <ele>1553</ele>
        <time>2019-06-23T08:35:29.014Z</time>
      </trkpt>
      <trkpt lat="42.92797" lon="0.18376">
        <ele>1552</ele>
        <time>2019-06-23T08:35:30.014Z</time>
      </trkpt>
      <trkpt lat="42.92797" lon="0.18376">
        <ele>1552</ele>
        <time>2019-06-23T08:35:31.014Z</time>
      </trkpt>
      <trkpt lat="42.92797" lon="0.18375">
        <ele>1552</ele>
        <time>2019-06-23T08:35:32.014Z</time>
      </trkpt>
      <trkpt lat="42.92798" lon="0.18374">
        <ele>1552</ele>
        <time>2019-06-23T08:35:33.014Z</time>
      </trkpt>
      <trkpt lat="42.92798" lon="0.18373">
        <ele>1552</ele>
        <time>2019-06-23T08:35:34.014Z</time>
      </trkpt>
      <trkpt lat="42.92798" lon="0.18372">
        <ele>1552</ele>
        <time>2019-06-23T08:35:35.014Z</time>
      </trkpt>
      <trkpt lat="42.92798" lon="0.18371">
        <ele>1552</ele>
        <time>2019-06-23T08:35:36.014Z</time>
      </trkpt>
      <trkpt lat="42.92798" lon="0.18371">
        <ele>1552</ele>
        <time>2019-06-23T08:35:37.014Z</time>
      </trkpt>
      <trkpt lat="42.92798" lon="0.1837">
        <ele>1551</ele>
        <time>2019-06-23T08:35:38.014Z</time>
      </trkpt>
      <trkpt lat="42.92798" lon="0.18369">
        <ele>1551</ele>
        <time>2019-06-23T08:35:39.014Z</time>
      </trkpt>
      <trkpt lat="42.92798" lon="0.18368">
        <ele>1551</ele>
        <time>2019-06-23T08:35:40.014Z</time>
      </trkpt>
      <trkpt lat="42.92798" lon="0.18367">
        <ele>1551</ele>
        <time>2019-06-23T08:35:41.014Z</time>
      </trkpt>
      <trkpt lat="42.92798" lon="0.18367">
        <ele>1553</ele>
        <time>2019-06-23T08:35:42.014Z</time>
      </trkpt>
      <trkpt lat="42.92799" lon="0.18366">
        <ele>1553</ele>
        <time>2019-06-23T08:35:43.014Z</time>
      </trkpt>
      <trkpt lat="42.928" lon="0.18366">
        <ele>1553</ele>
        <time>2019-06-23T08:35:44.014Z</time>
      </trkpt>
      <trkpt lat="42.928" lon="0.18365">
        <ele>1552</ele>
        <time>2019-06-23T08:35:45.014Z</time>
      </trkpt>
      <trkpt lat="42.928" lon="0.18364">
        <ele>1551</ele>
        <time>2019-06-23T08:35:46.014Z</time>
      </trkpt>
      <trkpt lat="42.928" lon="0.18363">
        <ele>1551</ele>
        <time>2019-06-23T08:35:47.014Z</time>
      </trkpt>
      <trkpt lat="42.928" lon="0.18363">
        <ele>1552</ele>
        <time>2019-06-23T08:35:48.014Z</time>
      </trkpt>
      <trkpt lat="42.928" lon="0.18362">
        <ele>1552</ele>
        <time>2019-06-23T08:35:49.014Z</time>
      </trkpt>
      <trkpt lat="42.92801" lon="0.18361">
        <ele>1552</ele>
        <time>2019-06-23T08:35:50.014Z</time>
      </trkpt>
      <trkpt lat="42.92801" lon="0.1836">
        <ele>1551</ele>
        <time>2019-06-23T08:35:51.014Z</time>
      </trkpt>
      <trkpt lat="42.92801" lon="0.18359">
        <ele>1551</ele>
        <time>2019-06-23T08:35:52.014Z</time>
      </trkpt>
      <trkpt lat="42.92801" lon="0.18358">
        <ele>1551</ele>
        <time>2019-06-23T08:35:53.014Z</time>
      </trkpt>
      <trkpt lat="42.92801" lon="0.18358">
        <ele>1551</ele>
        <time>2019-06-23T08:35:54.014Z</time>
      </trkpt>
      <trkpt lat="42.92801" lon="0.18357">
        <ele>1551</ele>
        <time>2019-06-23T08:35:55.014Z</time>
      </trkpt>
      <trkpt lat="42.92801" lon="0.18356">
        <ele>1551</ele>
        <time>2019-06-23T08:35:56.014Z</time>
      </trkpt>
      <trkpt lat="42.928" lon="0.18355">
        <ele>1551</ele>
        <time>2019-06-23T08:35:57.014Z</time>
      </trkpt>
      <trkpt lat="42.928" lon="0.18354">
        <ele>1551</ele>
        <time>2019-06-23T08:35:58.014Z</time>
      </trkpt>
      <trkpt lat="42.928" lon="0.18354">
        <ele>1551</ele>
        <time>2019-06-23T08:35:59.014Z</time>
      </trkpt>
      <trkpt lat="42.928" lon="0.18353">
        <ele>1552</ele>
        <time>2019-06-23T08:36:00.014Z</time>
      </trkpt>
      <trkpt lat="42.928" lon="0.18353">
        <ele>1551</ele>
        <time>2019-06-23T08:36:01.014Z</time>
      </trkpt>
      <trkpt lat="42.928" lon="0.18353">
        <ele>1551</ele>
        <time>2019-06-23T08:36:02.014Z</time>
      </trkpt>
      <trkpt lat="42.928" lon="0.18349">
        <ele>1549</ele>
        <time>2019-06-23T08:36:03.018Z</time>
      </trkpt>
      <trkpt lat="42.928" lon="0.18348">
        <ele>1549</ele>
        <time>2019-06-23T08:36:04.018Z</time>
      </trkpt>
      <trkpt lat="42.92801" lon="0.18347">
        <ele>1550</ele>
        <time>2019-06-23T08:36:05.018Z</time>
      </trkpt>
      <trkpt lat="42.92801" lon="0.18346">
        <ele>1550</ele>
        <time>2019-06-23T08:36:06.018Z</time>
      </trkpt>
      <trkpt lat="42.92801" lon="0.18345">
        <ele>1550</ele>
        <time>2019-06-23T08:36:07.018Z</time>
      </trkpt>
      <trkpt lat="42.92802" lon="0.18344">
        <ele>1550</ele>
        <time>2019-06-23T08:36:08.018Z</time>
      </trkpt>
      <trkpt lat="42.92802" lon="0.18343">
        <ele>1551</ele>
        <time>2019-06-23T08:36:09.018Z</time>
      </trkpt>
      <trkpt lat="42.92802" lon="0.18342">
        <ele>1551</ele>
        <time>2019-06-23T08:36:10.018Z</time>
      </trkpt>
      <trkpt lat="42.92802" lon="0.18341">
        <ele>1551</ele>
        <time>2019-06-23T08:36:11.018Z</time>
      </trkpt>
      <trkpt lat="42.92802" lon="0.1834">
        <ele>1551</ele>
        <time>2019-06-23T08:36:12.018Z</time>
      </trkpt>
      <trkpt lat="42.92803" lon="0.18339">
        <ele>1551</ele>
        <time>2019-06-23T08:36:13.018Z</time>
      </trkpt>
      <trkpt lat="42.92803" lon="0.18339">
        <ele>1550</ele>
        <time>2019-06-23T08:36:14.018Z</time>
      </trkpt>
      <trkpt lat="42.92803" lon="0.18338">
        <ele>1550</ele>
        <time>2019-06-23T08:36:15.018Z</time>
      </trkpt>
      <trkpt lat="42.92804" lon="0.18337">
        <ele>1550</ele>
        <time>2019-06-23T08:36:16.018Z</time>
      </trkpt>
      <trkpt lat="42.92804" lon="0.18336">
        <ele>1550</ele>
        <time>2019-06-23T08:36:17.018Z</time>
      </trkpt>
      <trkpt lat="42.92804" lon="0.18335">
        <ele>1550</ele>
        <time>2019-06-23T08:36:18.018Z</time>
      </trkpt>
      <trkpt lat="42.92804" lon="0.18334">
        <ele>1550</ele>
        <time>2019-06-23T08:36:19.018Z</time>
      </trkpt>
      <trkpt lat="42.92804" lon="0.18333">
        <ele>1550</ele>
        <time>2019-06-23T08:36:20.018Z</time>
      </trkpt>
      <trkpt lat="42.92804" lon="0.18332">
        <ele>1551</ele>
        <time>2019-06-23T08:36:21.018Z</time>
      </trkpt>
      <trkpt lat="42.92804" lon="0.18331">
        <ele>1551</ele>
        <time>2019-06-23T08:36:22.018Z</time>
      </trkpt>
      <trkpt lat="42.92804" lon="0.1833">
        <ele>1550</ele>
        <time>2019-06-23T08:36:23.018Z</time>
      </trkpt>
      <trkpt lat="42.92804" lon="0.18329">
        <ele>1551</ele>
        <time>2019-06-23T08:36:24.018Z</time>
      </trkpt>
      <trkpt lat="42.92804" lon="0.18328">
        <ele>1551</ele>
        <time>2019-06-23T08:36:25.018Z</time>
      </trkpt>
      <trkpt lat="42.92805" lon="0.18327">
        <ele>1551</ele>
        <time>2019-06-23T08:36:26.018Z</time>
      </trkpt>
      <trkpt lat="42.92805" lon="0.18326">
        <ele>1552</ele>
        <time>2019-06-23T08:36:27.018Z</time>
      </trkpt>
      <trkpt lat="42.92806" lon="0.18325">
        <ele>1552</ele>
        <time>2019-06-23T08:36:28.018Z</time>
      </trkpt>
      <trkpt lat="42.92806" lon="0.18325">
        <ele>1553</ele>
        <time>2019-06-23T08:36:29.018Z</time>
      </trkpt>
      <trkpt lat="42.92806" lon="0.18324">
        <ele>1552</ele>
        <time>2019-06-23T08:36:30.018Z</time>
      </trkpt>
      <trkpt lat="42.92807" lon="0.18323">
        <ele>1552</ele>
        <time>2019-06-23T08:36:31.018Z</time>
      </trkpt>
      <trkpt lat="42.92807" lon="0.18322">
        <ele>1552</ele>
        <time>2019-06-23T08:36:32.018Z</time>
      </trkpt>
      <trkpt lat="42.92807" lon="0.18322">
        <ele>1553</ele>
        <time>2019-06-23T08:36:33.018Z</time>
      </trkpt>
      <trkpt lat="42.92807" lon="0.18321">
        <ele>1553</ele>
        <time>2019-06-23T08:36:34.018Z</time>
      </trkpt>
      <trkpt lat="42.92807" lon="0.1832">
        <ele>1553</ele>
        <time>2019-06-23T08:36:35.018Z</time>
      </trkpt>
      <trkpt lat="42.92807" lon="0.18319">
        <ele>1553</ele>
        <time>2019-06-23T08:36:36.018Z</time>
      </trkpt>
      <trkpt lat="42.92808" lon="0.18319">
        <ele>1554</ele>
        <time>2019-06-23T08:36:37.018Z</time>
      </trkpt>
      <trkpt lat="42.92808" lon="0.18318">
        <ele>1553</ele>
        <time>2019-06-23T08:36:38.018Z</time>
      </trkpt>
      <trkpt lat="42.92808" lon="0.18317">
        <ele>1554</ele>
        <time>2019-06-23T08:36:39.018Z</time>
      </trkpt>
      <trkpt lat="42.92808" lon="0.18317">
        <ele>1555</ele>
        <time>2019-06-23T08:36:40.018Z</time>
      </trkpt>
      <trkpt lat="42.92808" lon="0.18317">
        <ele>1554</ele>
        <time>2019-06-23T08:36:41.018Z</time>
      </trkpt>
      <trkpt lat="42.92808" lon="0.18316">
        <ele>1554</ele>
        <time>2019-06-23T08:36:42.018Z</time>
      </trkpt>
      <trkpt lat="42.92808" lon="0.18316">
        <ele>1554</ele>
        <time>2019-06-23T08:36:43.018Z</time>
      </trkpt>
      <trkpt lat="42.92808" lon="0.18315">
        <ele>1555</ele>
        <time>2019-06-23T08:36:44.018Z</time>
      </trkpt>
      <trkpt lat="42.92807" lon="0.18314">
        <ele>1555</ele>
        <time>2019-06-23T08:36:45.018Z</time>
      </trkpt>
      <trkpt lat="42.92807" lon="0.18313">
        <ele>1555</ele>
        <time>2019-06-23T08:36:46.018Z</time>
      </trkpt>
      <trkpt lat="42.92808" lon="0.18313">
        <ele>1556</ele>
        <time>2019-06-23T08:36:47.018Z</time>
      </trkpt>
      <trkpt lat="42.92808" lon="0.18312">
        <ele>1556</ele>
        <time>2019-06-23T08:36:48.018Z</time>
      </trkpt>
      <trkpt lat="42.92808" lon="0.18311">
        <ele>1556</ele>
        <time>2019-06-23T08:36:49.018Z</time>
      </trkpt>
      <trkpt lat="42.92808" lon="0.1831">
        <ele>1556</ele>
        <time>2019-06-23T08:36:50.018Z</time>
      </trkpt>
      <trkpt lat="42.92808" lon="0.1831">
        <ele>1556</ele>
        <time>2019-06-23T08:36:51.018Z</time>
      </trkpt>
      <trkpt lat="42.92808" lon="0.18309">
        <ele>1556</ele>
        <time>2019-06-23T08:36:52.018Z</time>
      </trkpt>
      <trkpt lat="42.92808" lon="0.18308">
        <ele>1556</ele>
        <time>2019-06-23T08:36:53.018Z</time>
      </trkpt>
      <trkpt lat="42.92808" lon="0.18307">
        <ele>1556</ele>
        <time>2019-06-23T08:36:54.018Z</time>
      </trkpt>
      <trkpt lat="42.92808" lon="0.18306">
        <ele>1556</ele>
        <time>2019-06-23T08:36:55.018Z</time>
      </trkpt>
      <trkpt lat="42.92808" lon="0.18305">
        <ele>1555</ele>
        <time>2019-06-23T08:36:56.018Z</time>
      </trkpt>
      <trkpt lat="42.92808" lon="0.18305">
        <ele>1555</ele>
        <time>2019-06-23T08:36:57.018Z</time>
      </trkpt>
      <trkpt lat="42.92808" lon="0.18304">
        <ele>1556</ele>
        <time>2019-06-23T08:36:58.018Z</time>
      </trkpt>
      <trkpt lat="42.92807" lon="0.18304">
        <ele>1555</ele>
        <time>2019-06-23T08:36:59.018Z</time>
      </trkpt>
      <trkpt lat="42.92807" lon="0.18303">
        <ele>1554</ele>
        <time>2019-06-23T08:37:00.018Z</time>
      </trkpt>
      <trkpt lat="42.92807" lon="0.18303">
        <ele>1555</ele>
        <time>2019-06-23T08:37:01.018Z</time>
      </trkpt>
      <trkpt lat="42.92806" lon="0.18303">
        <ele>1555</ele>
        <time>2019-06-23T08:37:02.018Z</time>
      </trkpt>
      <trkpt lat="42.92806" lon="0.18303">
        <ele>1555</ele>
        <time>2019-06-23T08:37:03.018Z</time>
      </trkpt>
      <trkpt lat="42.92806" lon="0.18303">
        <ele>1556</ele>
        <time>2019-06-23T08:37:04.018Z</time>
      </trkpt>
      <trkpt lat="42.92807" lon="0.183">
        <ele>1556</ele>
        <time>2019-06-23T08:37:06.022Z</time>
      </trkpt>
      <trkpt lat="42.92807" lon="0.18299">
        <ele>1556</ele>
        <time>2019-06-23T08:37:07.022Z</time>
      </trkpt>
      <trkpt lat="42.92808" lon="0.18299">
        <ele>1556</ele>
        <time>2019-06-23T08:37:08.022Z</time>
      </trkpt>
      <trkpt lat="42.92808" lon="0.18298">
        <ele>1556</ele>
        <time>2019-06-23T08:37:09.022Z</time>
      </trkpt>
      <trkpt lat="42.92808" lon="0.18298">
        <ele>1556</ele>
        <time>2019-06-23T08:37:10.022Z</time>
      </trkpt>
      <trkpt lat="42.92809" lon="0.18297">
        <ele>1557</ele>
        <time>2019-06-23T08:37:11.022Z</time>
      </trkpt>
      <trkpt lat="42.92809" lon="0.18296">
        <ele>1557</ele>
        <time>2019-06-23T08:37:12.022Z</time>
      </trkpt>
      <trkpt lat="42.9281" lon="0.18296">
        <ele>1557</ele>
        <time>2019-06-23T08:37:13.022Z</time>
      </trkpt>
      <trkpt lat="42.9281" lon="0.18295">
        <ele>1557</ele>
        <time>2019-06-23T08:37:14.022Z</time>
      </trkpt>
      <trkpt lat="42.92811" lon="0.18294">
        <ele>1557</ele>
        <time>2019-06-23T08:37:15.022Z</time>
      </trkpt>
      <trkpt lat="42.92811" lon="0.18294">
        <ele>1557</ele>
        <time>2019-06-23T08:37:16.022Z</time>
      </trkpt>
      <trkpt lat="42.92811" lon="0.18293">
        <ele>1557</ele>
        <time>2019-06-23T08:37:17.022Z</time>
      </trkpt>
      <trkpt lat="42.92811" lon="0.18293">
        <ele>1557</ele>
        <time>2019-06-23T08:37:18.022Z</time>
      </trkpt>
      <trkpt lat="42.92811" lon="0.18292">
        <ele>1557</ele>
        <time>2019-06-23T08:37:19.022Z</time>
      </trkpt>
      <trkpt lat="42.92811" lon="0.18291">
        <ele>1557</ele>
        <time>2019-06-23T08:37:20.022Z</time>
      </trkpt>
      <trkpt lat="42.92812" lon="0.18291">
        <ele>1558</ele>
        <time>2019-06-23T08:37:21.022Z</time>
      </trkpt>
      <trkpt lat="42.92811" lon="0.1829">
        <ele>1559</ele>
        <time>2019-06-23T08:37:22.022Z</time>
      </trkpt>
      <trkpt lat="42.92811" lon="0.18289">
        <ele>1559</ele>
        <time>2019-06-23T08:37:23.022Z</time>
      </trkpt>
      <trkpt lat="42.92811" lon="0.18289">
        <ele>1559</ele>
        <time>2019-06-23T08:37:24.022Z</time>
      </trkpt>
      <trkpt lat="42.92811" lon="0.18288">
        <ele>1559</ele>
        <time>2019-06-23T08:37:25.022Z</time>
      </trkpt>
      <trkpt lat="42.92811" lon="0.18287">
        <ele>1559</ele>
        <time>2019-06-23T08:37:26.022Z</time>
      </trkpt>
      <trkpt lat="42.92811" lon="0.18287">
        <ele>1559</ele>
        <time>2019-06-23T08:37:27.022Z</time>
      </trkpt>
      <trkpt lat="42.92811" lon="0.18286">
        <ele>1559</ele>
        <time>2019-06-23T08:37:28.022Z</time>
      </trkpt>
      <trkpt lat="42.92812" lon="0.18285">
        <ele>1559</ele>
        <time>2019-06-23T08:37:29.022Z</time>
      </trkpt>
      <trkpt lat="42.92812" lon="0.18285">
        <ele>1559</ele>
        <time>2019-06-23T08:37:30.022Z</time>
      </trkpt>
      <trkpt lat="42.92812" lon="0.18284">
        <ele>1559</ele>
        <time>2019-06-23T08:37:31.022Z</time>
      </trkpt>
      <trkpt lat="42.92813" lon="0.18283">
        <ele>1559</ele>
        <time>2019-06-23T08:37:32.022Z</time>
      </trkpt>
      <trkpt lat="42.92813" lon="0.18283">
        <ele>1559</ele>
        <time>2019-06-23T08:37:33.022Z</time>
      </trkpt>
      <trkpt lat="42.92813" lon="0.18283">
        <ele>1559</ele>
        <time>2019-06-23T08:37:34.022Z</time>
      </trkpt>
      <trkpt lat="42.92813" lon="0.18283">
        <ele>1560</ele>
        <time>2019-06-23T08:37:35.022Z</time>
      </trkpt>
      <trkpt lat="42.92814" lon="0.18282">
        <ele>1560</ele>
        <time>2019-06-23T08:37:36.022Z</time>
      </trkpt>
      <trkpt lat="42.92814" lon="0.18282">
        <ele>1560</ele>
        <time>2019-06-23T08:37:37.022Z</time>
      </trkpt>
      <trkpt lat="42.92814" lon="0.18281">
        <ele>1560</ele>
        <time>2019-06-23T08:37:38.022Z</time>
      </trkpt>
      <trkpt lat="42.92815" lon="0.18281">
        <ele>1560</ele>
        <time>2019-06-23T08:37:39.022Z</time>
      </trkpt>
      <trkpt lat="42.92815" lon="0.1828">
        <ele>1560</ele>
        <time>2019-06-23T08:37:40.022Z</time>
      </trkpt>
      <trkpt lat="42.92815" lon="0.1828">
        <ele>1560</ele>
        <time>2019-06-23T08:37:41.022Z</time>
      </trkpt>
      <trkpt lat="42.92815" lon="0.18279">
        <ele>1561</ele>
        <time>2019-06-23T08:37:42.022Z</time>
      </trkpt>
      <trkpt lat="42.92816" lon="0.18278">
        <ele>1561</ele>
        <time>2019-06-23T08:37:43.022Z</time>
      </trkpt>
      <trkpt lat="42.92816" lon="0.18277">
        <ele>1561</ele>
        <time>2019-06-23T08:37:44.022Z</time>
      </trkpt>
      <trkpt lat="42.92817" lon="0.18276">
        <ele>1562</ele>
        <time>2019-06-23T08:37:45.022Z</time>
      </trkpt>
      <trkpt lat="42.92817" lon="0.18275">
        <ele>1561</ele>
        <time>2019-06-23T08:37:46.022Z</time>
      </trkpt>
      <trkpt lat="42.92818" lon="0.18275">
        <ele>1562</ele>
        <time>2019-06-23T08:37:47.022Z</time>
      </trkpt>
      <trkpt lat="42.92818" lon="0.18274">
        <ele>1561</ele>
        <time>2019-06-23T08:37:48.022Z</time>
      </trkpt>
      <trkpt lat="42.92819" lon="0.18274">
        <ele>1560</ele>
        <time>2019-06-23T08:37:49.022Z</time>
      </trkpt>
      <trkpt lat="42.92819" lon="0.18274">
        <ele>1560</ele>
        <time>2019-06-23T08:37:50.022Z</time>
      </trkpt>
      <trkpt lat="42.92819" lon="0.18274">
        <ele>1560</ele>
        <time>2019-06-23T08:37:51.022Z</time>
      </trkpt>
      <trkpt lat="42.92819" lon="0.18274">
        <ele>1560</ele>
        <time>2019-06-23T08:37:52.022Z</time>
      </trkpt>
      <trkpt lat="42.92819" lon="0.18274">
        <ele>1560</ele>
        <time>2019-06-23T08:37:53.022Z</time>
      </trkpt>
      <trkpt lat="42.92819" lon="0.18274">
        <ele>1560</ele>
        <time>2019-06-23T08:37:54.022Z</time>
      </trkpt>
      <trkpt lat="42.92819" lon="0.18274">
        <ele>1560</ele>
        <time>2019-06-23T08:37:55.022Z</time>
      </trkpt>
      <trkpt lat="42.92818" lon="0.18268">
        <ele>1554</ele>
        <time>2019-06-23T08:37:56.026Z</time>
      </trkpt>
      <trkpt lat="42.92819" lon="0.18268">
        <ele>1554</ele>
        <time>2019-06-23T08:37:57.026Z</time>
      </trkpt>
      <trkpt lat="42.92819" lon="0.18267">
        <ele>1554</ele>
        <time>2019-06-23T08:37:58.026Z</time>
      </trkpt>
      <trkpt lat="42.92819" lon="0.18266">
        <ele>1554</ele>
        <time>2019-06-23T08:37:59.026Z</time>
      </trkpt>
      <trkpt lat="42.9282" lon="0.18265">
        <ele>1553</ele>
        <time>2019-06-23T08:38:00.026Z</time>
      </trkpt>
      <trkpt lat="42.9282" lon="0.18264">
        <ele>1553</ele>
        <time>2019-06-23T08:38:01.026Z</time>
      </trkpt>
      <trkpt lat="42.92821" lon="0.18264">
        <ele>1555</ele>
        <time>2019-06-23T08:38:02.026Z</time>
      </trkpt>
      <trkpt lat="42.92821" lon="0.18263">
        <ele>1555</ele>
        <time>2019-06-23T08:38:03.026Z</time>
      </trkpt>
      <trkpt lat="42.92822" lon="0.18262">
        <ele>1555</ele>
        <time>2019-06-23T08:38:04.026Z</time>
      </trkpt>
      <trkpt lat="42.92822" lon="0.18262">
        <ele>1555</ele>
        <time>2019-06-23T08:38:05.026Z</time>
      </trkpt>
      <trkpt lat="42.92822" lon="0.18261">
        <ele>1555</ele>
        <time>2019-06-23T08:38:06.026Z</time>
      </trkpt>
      <trkpt lat="42.92822" lon="0.1826">
        <ele>1554</ele>
        <time>2019-06-23T08:38:07.026Z</time>
      </trkpt>
      <trkpt lat="42.92823" lon="0.18259">
        <ele>1554</ele>
        <time>2019-06-23T08:38:08.026Z</time>
      </trkpt>
      <trkpt lat="42.92823" lon="0.18258">
        <ele>1555</ele>
        <time>2019-06-23T08:38:09.026Z</time>
      </trkpt>
      <trkpt lat="42.92824" lon="0.18258">
        <ele>1555</ele>
        <time>2019-06-23T08:38:10.026Z</time>
      </trkpt>
      <trkpt lat="42.92824" lon="0.18257">
        <ele>1557</ele>
        <time>2019-06-23T08:38:11.026Z</time>
      </trkpt>
      <trkpt lat="42.92825" lon="0.18256">
        <ele>1557</ele>
        <time>2019-06-23T08:38:12.026Z</time>
      </trkpt>
      <trkpt lat="42.92825" lon="0.18254">
        <ele>1557</ele>
        <time>2019-06-23T08:38:13.026Z</time>
      </trkpt>
      <trkpt lat="42.92825" lon="0.18253">
        <ele>1557</ele>
        <time>2019-06-23T08:38:14.026Z</time>
      </trkpt>
      <trkpt lat="42.92826" lon="0.18252">
        <ele>1557</ele>
        <time>2019-06-23T08:38:15.026Z</time>
      </trkpt>
      <trkpt lat="42.92826" lon="0.1825">
        <ele>1557</ele>
        <time>2019-06-23T08:38:16.026Z</time>
      </trkpt>
      <trkpt lat="42.92826" lon="0.18249">
        <ele>1557</ele>
        <time>2019-06-23T08:38:17.026Z</time>
      </trkpt>
      <trkpt lat="42.92826" lon="0.18248">
        <ele>1556</ele>
        <time>2019-06-23T08:38:18.026Z</time>
      </trkpt>
      <trkpt lat="42.92826" lon="0.18247">
        <ele>1556</ele>
        <time>2019-06-23T08:38:19.026Z</time>
      </trkpt>
      <trkpt lat="42.92827" lon="0.18246">
        <ele>1556</ele>
        <time>2019-06-23T08:38:20.026Z</time>
      </trkpt>
      <trkpt lat="42.92827" lon="0.18245">
        <ele>1556</ele>
        <time>2019-06-23T08:38:21.026Z</time>
      </trkpt>
      <trkpt lat="42.92827" lon="0.18244">
        <ele>1556</ele>
        <time>2019-06-23T08:38:22.026Z</time>
      </trkpt>
      <trkpt lat="42.92827" lon="0.18243">
        <ele>1556</ele>
        <time>2019-06-23T08:38:23.026Z</time>
      </trkpt>
      <trkpt lat="42.92828" lon="0.18242">
        <ele>1556</ele>
        <time>2019-06-23T08:38:24.026Z</time>
      </trkpt>
      <trkpt lat="42.92828" lon="0.18241">
        <ele>1556</ele>
        <time>2019-06-23T08:38:25.026Z</time>
      </trkpt>
      <trkpt lat="42.92828" lon="0.18239">
        <ele>1556</ele>
        <time>2019-06-23T08:38:26.026Z</time>
      </trkpt>
      <trkpt lat="42.92828" lon="0.18238">
        <ele>1558</ele>
        <time>2019-06-23T08:38:27.026Z</time>
      </trkpt>
      <trkpt lat="42.92829" lon="0.18237">
        <ele>1558</ele>
        <time>2019-06-23T08:38:28.026Z</time>
      </trkpt>
      <trkpt lat="42.92829" lon="0.18236">
        <ele>1558</ele>
        <time>2019-06-23T08:38:29.026Z</time>
      </trkpt>
      <trkpt lat="42.9283" lon="0.18235">
        <ele>1558</ele>
        <time>2019-06-23T08:38:30.026Z</time>
      </trkpt>
      <trkpt lat="42.9283" lon="0.18234">
        <ele>1558</ele>
        <time>2019-06-23T08:38:31.026Z</time>
      </trkpt>
      <trkpt lat="42.92831" lon="0.18233">
        <ele>1558</ele>
        <time>2019-06-23T08:38:32.026Z</time>
      </trkpt>
      <trkpt lat="42.92831" lon="0.18231">
        <ele>1558</ele>
        <time>2019-06-23T08:38:33.026Z</time>
      </trkpt>
      <trkpt lat="42.92831" lon="0.1823">
        <ele>1559</ele>
        <time>2019-06-23T08:38:34.026Z</time>
      </trkpt>
      <trkpt lat="42.92832" lon="0.18229">
        <ele>1559</ele>
        <time>2019-06-23T08:38:35.026Z</time>
      </trkpt>
      <trkpt lat="42.92832" lon="0.18228">
        <ele>1558</ele>
        <time>2019-06-23T08:38:36.026Z</time>
      </trkpt>
      <trkpt lat="42.92832" lon="0.18227">
        <ele>1559</ele>
        <time>2019-06-23T08:38:37.026Z</time>
      </trkpt>
      <trkpt lat="42.92832" lon="0.18226">
        <ele>1558</ele>
        <time>2019-06-23T08:38:38.026Z</time>
      </trkpt>
      <trkpt lat="42.92832" lon="0.18225">
        <ele>1559</ele>
        <time>2019-06-23T08:38:39.026Z</time>
      </trkpt>
      <trkpt lat="42.92832" lon="0.18224">
        <ele>1558</ele>
        <time>2019-06-23T08:38:40.026Z</time>
      </trkpt>
      <trkpt lat="42.92832" lon="0.18223">
        <ele>1558</ele>
        <time>2019-06-23T08:38:41.026Z</time>
      </trkpt>
      <trkpt lat="42.92832" lon="0.18221">
        <ele>1558</ele>
        <time>2019-06-23T08:38:42.026Z</time>
      </trkpt>
      <trkpt lat="42.92833" lon="0.1822">
        <ele>1558</ele>
        <time>2019-06-23T08:38:43.026Z</time>
      </trkpt>
      <trkpt lat="42.92833" lon="0.18219">
        <ele>1558</ele>
        <time>2019-06-23T08:38:44.026Z</time>
      </trkpt>
      <trkpt lat="42.92833" lon="0.18217">
        <ele>1557</ele>
        <time>2019-06-23T08:38:45.026Z</time>
      </trkpt>
      <trkpt lat="42.92833" lon="0.18216">
        <ele>1557</ele>
        <time>2019-06-23T08:38:46.026Z</time>
      </trkpt>
      <trkpt lat="42.92834" lon="0.18215">
        <ele>1557</ele>
        <time>2019-06-23T08:38:47.026Z</time>
      </trkpt>
      <trkpt lat="42.92834" lon="0.18213">
        <ele>1557</ele>
        <time>2019-06-23T08:38:48.026Z</time>
      </trkpt>
      <trkpt lat="42.92834" lon="0.18212">
        <ele>1558</ele>
        <time>2019-06-23T08:38:49.026Z</time>
      </trkpt>
      <trkpt lat="42.92835" lon="0.18211">
        <ele>1558</ele>
        <time>2019-06-23T08:38:50.026Z</time>
      </trkpt>
      <trkpt lat="42.92835" lon="0.1821">
        <ele>1557</ele>
        <time>2019-06-23T08:38:51.026Z</time>
      </trkpt>
      <trkpt lat="42.92835" lon="0.18209">
        <ele>1557</ele>
        <time>2019-06-23T08:38:52.026Z</time>
      </trkpt>
      <trkpt lat="42.92835" lon="0.18209">
        <ele>1557</ele>
        <time>2019-06-23T08:38:53.026Z</time>
      </trkpt>
      <trkpt lat="42.92835" lon="0.18208">
        <ele>1557</ele>
        <time>2019-06-23T08:38:54.026Z</time>
      </trkpt>
      <trkpt lat="42.92834" lon="0.18207">
        <ele>1557</ele>
        <time>2019-06-23T08:38:55.026Z</time>
      </trkpt>
      <trkpt lat="42.92834" lon="0.18206">
        <ele>1556</ele>
        <time>2019-06-23T08:38:56.026Z</time>
      </trkpt>
      <trkpt lat="42.92834" lon="0.18205">
        <ele>1556</ele>
        <time>2019-06-23T08:38:57.026Z</time>
      </trkpt>
      <trkpt lat="42.92834" lon="0.18204">
        <ele>1556</ele>
        <time>2019-06-23T08:38:58.026Z</time>
      </trkpt>
      <trkpt lat="42.92834" lon="0.18203">
        <ele>1556</ele>
        <time>2019-06-23T08:38:59.026Z</time>
      </trkpt>
      <trkpt lat="42.92834" lon="0.18202">
        <ele>1556</ele>
        <time>2019-06-23T08:39:00.026Z</time>
      </trkpt>
      <trkpt lat="42.92834" lon="0.18201">
        <ele>1556</ele>
        <time>2019-06-23T08:39:01.026Z</time>
      </trkpt>
      <trkpt lat="42.92834" lon="0.182">
        <ele>1556</ele>
        <time>2019-06-23T08:39:02.026Z</time>
      </trkpt>
      <trkpt lat="42.92835" lon="0.18199">
        <ele>1556</ele>
        <time>2019-06-23T08:39:03.026Z</time>
      </trkpt>
      <trkpt lat="42.92835" lon="0.18198">
        <ele>1556</ele>
        <time>2019-06-23T08:39:04.026Z</time>
      </trkpt>
      <trkpt lat="42.92835" lon="0.18197">
        <ele>1556</ele>
        <time>2019-06-23T08:39:05.026Z</time>
      </trkpt>
      <trkpt lat="42.92835" lon="0.18197">
        <ele>1556</ele>
        <time>2019-06-23T08:39:06.026Z</time>
      </trkpt>
      <trkpt lat="42.92835" lon="0.18196">
        <ele>1556</ele>
        <time>2019-06-23T08:39:07.026Z</time>
      </trkpt>
      <trkpt lat="42.92836" lon="0.18195">
        <ele>1556</ele>
        <time>2019-06-23T08:39:08.026Z</time>
      </trkpt>
      <trkpt lat="42.92836" lon="0.18194">
        <ele>1555</ele>
        <time>2019-06-23T08:39:09.026Z</time>
      </trkpt>
      <trkpt lat="42.92836" lon="0.18193">
        <ele>1555</ele>
        <time>2019-06-23T08:39:10.026Z</time>
      </trkpt>
      <trkpt lat="42.92836" lon="0.18192">
        <ele>1556</ele>
        <time>2019-06-23T08:39:11.026Z</time>
      </trkpt>
      <trkpt lat="42.92837" lon="0.18191">
        <ele>1556</ele>
        <time>2019-06-23T08:39:12.026Z</time>
      </trkpt>
      <trkpt lat="42.92837" lon="0.1819">
        <ele>1556</ele>
        <time>2019-06-23T08:39:13.026Z</time>
      </trkpt>
      <trkpt lat="42.92837" lon="0.18189">
        <ele>1556</ele>
        <time>2019-06-23T08:39:14.026Z</time>
      </trkpt>
      <trkpt lat="42.92838" lon="0.18188">
        <ele>1556</ele>
        <time>2019-06-23T08:39:15.026Z</time>
      </trkpt>
      <trkpt lat="42.92839" lon="0.18187">
        <ele>1556</ele>
        <time>2019-06-23T08:39:16.026Z</time>
      </trkpt>
      <trkpt lat="42.92839" lon="0.18185">
        <ele>1556</ele>
        <time>2019-06-23T08:39:17.026Z</time>
      </trkpt>
      <trkpt lat="42.9284" lon="0.18184">
        <ele>1556</ele>
        <time>2019-06-23T08:39:18.026Z</time>
      </trkpt>
      <trkpt lat="42.92841" lon="0.18183">
        <ele>1557</ele>
        <time>2019-06-23T08:39:19.026Z</time>
      </trkpt>
      <trkpt lat="42.92842" lon="0.18182">
        <ele>1557</ele>
        <time>2019-06-23T08:39:20.026Z</time>
      </trkpt>
      <trkpt lat="42.92843" lon="0.18181">
        <ele>1558</ele>
        <time>2019-06-23T08:39:21.026Z</time>
      </trkpt>
      <trkpt lat="42.92844" lon="0.1818">
        <ele>1558</ele>
        <time>2019-06-23T08:39:22.026Z</time>
      </trkpt>
      <trkpt lat="42.92844" lon="0.1818">
        <ele>1558</ele>
        <time>2019-06-23T08:39:23.026Z</time>
      </trkpt>
      <trkpt lat="42.92844" lon="0.18179">
        <ele>1557</ele>
        <time>2019-06-23T08:39:24.026Z</time>
      </trkpt>
      <trkpt lat="42.92844" lon="0.18179">
        <ele>1557</ele>
        <time>2019-06-23T08:39:25.026Z</time>
      </trkpt>
      <trkpt lat="42.92844" lon="0.18179">
        <ele>1557</ele>
        <time>2019-06-23T08:39:26.026Z</time>
      </trkpt>
      <trkpt lat="42.92844" lon="0.18179">
        <ele>1558</ele>
        <time>2019-06-23T08:39:27.026Z</time>
      </trkpt>
      <trkpt lat="42.92844" lon="0.18179">
        <ele>1558</ele>
        <time>2019-06-23T08:39:28.026Z</time>
      </trkpt>
      <trkpt lat="42.92844" lon="0.18179">
        <ele>1558</ele>
        <time>2019-06-23T08:39:29.026Z</time>
      </trkpt>
      <trkpt lat="42.92845" lon="0.18179">
        <ele>1559</ele>
        <time>2019-06-23T08:39:30.026Z</time>
      </trkpt>
      <trkpt lat="42.92845" lon="0.18178">
        <ele>1558</ele>
        <time>2019-06-23T08:39:31.026Z</time>
      </trkpt>
      <trkpt lat="42.92842" lon="0.18174">
        <ele>1555</ele>
        <time>2019-06-23T08:39:32.023Z</time>
      </trkpt>
      <trkpt lat="42.92842" lon="0.18174">
        <ele>1556</ele>
        <time>2019-06-23T08:39:33.023Z</time>
      </trkpt>
      <trkpt lat="42.92842" lon="0.18173">
        <ele>1556</ele>
        <time>2019-06-23T08:39:34.023Z</time>
      </trkpt>
      <trkpt lat="42.92842" lon="0.18173">
        <ele>1556</ele>
        <time>2019-06-23T08:39:35.023Z</time>
      </trkpt>
      <trkpt lat="42.92842" lon="0.18173">
        <ele>1556</ele>
        <time>2019-06-23T08:39:36.023Z</time>
      </trkpt>
      <trkpt lat="42.92842" lon="0.18173">
        <ele>1556</ele>
        <time>2019-06-23T08:39:37.023Z</time>
      </trkpt>
      <trkpt lat="42.92841" lon="0.18173">
        <ele>1556</ele>
        <time>2019-06-23T08:39:38.023Z</time>
      </trkpt>
      <trkpt lat="42.92841" lon="0.18173">
        <ele>1556</ele>
        <time>2019-06-23T08:39:39.023Z</time>
      </trkpt>
      <trkpt lat="42.9284" lon="0.18173">
        <ele>1556</ele>
        <time>2019-06-23T08:39:40.023Z</time>
      </trkpt>
      <trkpt lat="42.9284" lon="0.18172">
        <ele>1556</ele>
        <time>2019-06-23T08:39:41.023Z</time>
      </trkpt>
      <trkpt lat="42.9284" lon="0.18172">
        <ele>1556</ele>
        <time>2019-06-23T08:39:42.023Z</time>
      </trkpt>
      <trkpt lat="42.9284" lon="0.18171">
        <ele>1557</ele>
        <time>2019-06-23T08:39:43.023Z</time>
      </trkpt>
      <trkpt lat="42.92841" lon="0.18171">
        <ele>1557</ele>
        <time>2019-06-23T08:39:44.023Z</time>
      </trkpt>
      <trkpt lat="42.92841" lon="0.18171">
        <ele>1558</ele>
        <time>2019-06-23T08:39:45.023Z</time>
      </trkpt>
      <trkpt lat="42.92841" lon="0.18171">
        <ele>1558</ele>
        <time>2019-06-23T08:39:46.023Z</time>
      </trkpt>
      <trkpt lat="42.92841" lon="0.18171">
        <ele>1558</ele>
        <time>2019-06-23T08:39:47.023Z</time>
      </trkpt>
      <trkpt lat="42.92843" lon="0.18171">
        <ele>1559</ele>
        <time>2019-06-23T08:39:48.023Z</time>
      </trkpt>
      <trkpt lat="42.92843" lon="0.18171">
        <ele>1559</ele>
        <time>2019-06-23T08:39:49.023Z</time>
      </trkpt>
      <trkpt lat="42.92843" lon="0.18171">
        <ele>1559</ele>
        <time>2019-06-23T08:39:50.023Z</time>
      </trkpt>
      <trkpt lat="42.92843" lon="0.18171">
        <ele>1559</ele>
        <time>2019-06-23T08:39:51.023Z</time>
      </trkpt>
      <trkpt lat="42.92843" lon="0.18171">
        <ele>1559</ele>
        <time>2019-06-23T08:39:52.023Z</time>
      </trkpt>
      <trkpt lat="42.92843" lon="0.18171">
        <ele>1559</ele>
        <time>2019-06-23T08:39:53.023Z</time>
      </trkpt>
      <trkpt lat="42.92843" lon="0.18171">
        <ele>1559</ele>
        <time>2019-06-23T08:39:54.023Z</time>
      </trkpt>
      <trkpt lat="42.92842" lon="0.18171">
        <ele>1558</ele>
        <time>2019-06-23T08:39:55.023Z</time>
      </trkpt>
      <trkpt lat="42.92842" lon="0.18172">
        <ele>1558</ele>
        <time>2019-06-23T08:39:56.023Z</time>
      </trkpt>
      <trkpt lat="42.92842" lon="0.18173">
        <ele>1558</ele>
        <time>2019-06-23T08:39:57.023Z</time>
      </trkpt>
      <trkpt lat="42.92843" lon="0.18174">
        <ele>1557</ele>
        <time>2019-06-23T08:39:58.023Z</time>
      </trkpt>
      <trkpt lat="42.92843" lon="0.18174">
        <ele>1557</ele>
        <time>2019-06-23T08:39:59.023Z</time>
      </trkpt>
      <trkpt lat="42.92843" lon="0.18174">
        <ele>1556</ele>
        <time>2019-06-23T08:40:00.023Z</time>
      </trkpt>
      <trkpt lat="42.92841" lon="0.1817">
        <ele>1558</ele>
        <time>2019-06-23T08:40:01.038Z</time>
      </trkpt>
      <trkpt lat="42.92841" lon="0.1817">
        <ele>1558</ele>
        <time>2019-06-23T08:40:02.038Z</time>
      </trkpt>
      <trkpt lat="42.92841" lon="0.1817">
        <ele>1558</ele>
        <time>2019-06-23T08:40:03.038Z</time>
      </trkpt>
      <trkpt lat="42.92841" lon="0.1817">
        <ele>1558</ele>
        <time>2019-06-23T08:40:04.038Z</time>
      </trkpt>
      <trkpt lat="42.92841" lon="0.1817">
        <ele>1558</ele>
        <time>2019-06-23T08:40:05.038Z</time>
      </trkpt>
      <trkpt lat="42.92841" lon="0.1817">
        <ele>1558</ele>
        <time>2019-06-23T08:40:06.038Z</time>
      </trkpt>
      <trkpt lat="42.92838" lon="0.18173">
        <ele>1556</ele>
        <time>2019-06-23T08:40:07.050Z</time>
      </trkpt>
      <trkpt lat="42.92837" lon="0.18174">
        <ele>1556</ele>
        <time>2019-06-23T08:40:08.050Z</time>
      </trkpt>
      <trkpt lat="42.92837" lon="0.18174">
        <ele>1556</ele>
        <time>2019-06-23T08:40:09.050Z</time>
      </trkpt>
      <trkpt lat="42.92837" lon="0.18175">
        <ele>1555</ele>
        <time>2019-06-23T08:40:10.050Z</time>
      </trkpt>
      <trkpt lat="42.92836" lon="0.18175">
        <ele>1555</ele>
        <time>2019-06-23T08:40:11.050Z</time>
      </trkpt>
      <trkpt lat="42.92836" lon="0.18175">
        <ele>1555</ele>
        <time>2019-06-23T08:40:12.050Z</time>
      </trkpt>
      <trkpt lat="42.92836" lon="0.18175">
        <ele>1555</ele>
        <time>2019-06-23T08:40:13.050Z</time>
      </trkpt>
      <trkpt lat="42.92836" lon="0.18175">
        <ele>1555</ele>
        <time>2019-06-23T08:40:14.050Z</time>
      </trkpt>
      <trkpt lat="42.92836" lon="0.18175">
        <ele>1554</ele>
        <time>2019-06-23T08:40:15.050Z</time>
      </trkpt>
      <trkpt lat="42.92836" lon="0.18176">
        <ele>1554</ele>
        <time>2019-06-23T08:40:16.050Z</time>
      </trkpt>
      <trkpt lat="42.92836" lon="0.18176">
        <ele>1555</ele>
        <time>2019-06-23T08:40:17.050Z</time>
      </trkpt>
      <trkpt lat="42.92837" lon="0.18174">
        <ele>1555</ele>
        <time>2019-06-23T08:40:18.065Z</time>
      </trkpt>
      <trkpt lat="42.92836" lon="0.18174">
        <ele>1555</ele>
        <time>2019-06-23T08:40:19.065Z</time>
      </trkpt>
      <trkpt lat="42.92836" lon="0.18174">
        <ele>1554</ele>
        <time>2019-06-23T08:40:20.065Z</time>
      </trkpt>
      <trkpt lat="42.92836" lon="0.18174">
        <ele>1554</ele>
        <time>2019-06-23T08:40:21.065Z</time>
      </trkpt>
      <trkpt lat="42.92836" lon="0.18174">
        <ele>1554</ele>
        <time>2019-06-23T08:40:22.065Z</time>
      </trkpt>
      <trkpt lat="42.92838" lon="0.1817">
        <ele>1555</ele>
        <time>2019-06-23T08:40:23.077Z</time>
      </trkpt>
      <trkpt lat="42.92838" lon="0.1817">
        <ele>1554</ele>
        <time>2019-06-23T08:40:24.077Z</time>
      </trkpt>
      <trkpt lat="42.92839" lon="0.1817">
        <ele>1554</ele>
        <time>2019-06-23T08:40:25.077Z</time>
      </trkpt>
      <trkpt lat="42.92839" lon="0.1817">
        <ele>1554</ele>
        <time>2019-06-23T08:40:26.077Z</time>
      </trkpt>
      <trkpt lat="42.9284" lon="0.1817">
        <ele>1553</ele>
        <time>2019-06-23T08:40:27.077Z</time>
      </trkpt>
      <trkpt lat="42.9284" lon="0.18171">
        <ele>1554</ele>
        <time>2019-06-23T08:40:28.077Z</time>
      </trkpt>
      <trkpt lat="42.92841" lon="0.18171">
        <ele>1554</ele>
        <time>2019-06-23T08:40:29.077Z</time>
      </trkpt>
      <trkpt lat="42.92842" lon="0.18171">
        <ele>1555</ele>
        <time>2019-06-23T08:40:30.077Z</time>
      </trkpt>
      <trkpt lat="42.92842" lon="0.18171">
        <ele>1555</ele>
        <time>2019-06-23T08:40:31.077Z</time>
      </trkpt>
      <trkpt lat="42.92842" lon="0.18171">
        <ele>1555</ele>
        <time>2019-06-23T08:40:32.077Z</time>
      </trkpt>
      <trkpt lat="42.92842" lon="0.18171">
        <ele>1555</ele>
        <time>2019-06-23T08:40:33.077Z</time>
      </trkpt>
      <trkpt lat="42.92842" lon="0.18171">
        <ele>1555</ele>
        <time>2019-06-23T08:40:34.077Z</time>
      </trkpt>
      <trkpt lat="42.92842" lon="0.18171">
        <ele>1555</ele>
        <time>2019-06-23T08:40:35.077Z</time>
      </trkpt>
      <trkpt lat="42.92842" lon="0.18171">
        <ele>1555</ele>
        <time>2019-06-23T08:40:36.077Z</time>
      </trkpt>
      <trkpt lat="42.92842" lon="0.18171">
        <ele>1555</ele>
        <time>2019-06-23T08:40:37.077Z</time>
      </trkpt>
      <trkpt lat="42.92841" lon="0.1817">
        <ele>1555</ele>
        <time>2019-06-23T08:40:38.077Z</time>
      </trkpt>
      <trkpt lat="42.92842" lon="0.18166">
        <ele>1556</ele>
        <time>2019-06-23T08:40:39.089Z</time>
      </trkpt>
      <trkpt lat="42.92842" lon="0.18165">
        <ele>1556</ele>
        <time>2019-06-23T08:40:40.089Z</time>
      </trkpt>
      <trkpt lat="42.92842" lon="0.18164">
        <ele>1557</ele>
        <time>2019-06-23T08:40:41.089Z</time>
      </trkpt>
      <trkpt lat="42.92843" lon="0.18163">
        <ele>1557</ele>
        <time>2019-06-23T08:40:42.089Z</time>
      </trkpt>
      <trkpt lat="42.92843" lon="0.18162">
        <ele>1557</ele>
        <time>2019-06-23T08:40:43.089Z</time>
      </trkpt>
      <trkpt lat="42.92844" lon="0.18161">
        <ele>1557</ele>
        <time>2019-06-23T08:40:44.089Z</time>
      </trkpt>
      <trkpt lat="42.92844" lon="0.18161">
        <ele>1557</ele>
        <time>2019-06-23T08:40:45.089Z</time>
      </trkpt>
      <trkpt lat="42.92845" lon="0.1816">
        <ele>1557</ele>
        <time>2019-06-23T08:40:46.089Z</time>
      </trkpt>
      <trkpt lat="42.92845" lon="0.18159">
        <ele>1557</ele>
        <time>2019-06-23T08:40:47.089Z</time>
      </trkpt>
      <trkpt lat="42.92845" lon="0.18159">
        <ele>1558</ele>
        <time>2019-06-23T08:40:48.089Z</time>
      </trkpt>
      <trkpt lat="42.92845" lon="0.18158">
        <ele>1558</ele>
        <time>2019-06-23T08:40:49.089Z</time>
      </trkpt>
      <trkpt lat="42.92845" lon="0.18157">
        <ele>1558</ele>
        <time>2019-06-23T08:40:50.089Z</time>
      </trkpt>
      <trkpt lat="42.92845" lon="0.18156">
        <ele>1559</ele>
        <time>2019-06-23T08:40:51.089Z</time>
      </trkpt>
      <trkpt lat="42.92845" lon="0.18156">
        <ele>1559</ele>
        <time>2019-06-23T08:40:52.089Z</time>
      </trkpt>
      <trkpt lat="42.92845" lon="0.18155">
        <ele>1559</ele>
        <time>2019-06-23T08:40:53.089Z</time>
      </trkpt>
      <trkpt lat="42.92845" lon="0.18155">
        <ele>1559</ele>
        <time>2019-06-23T08:40:54.089Z</time>
      </trkpt>
      <trkpt lat="42.92844" lon="0.18155">
        <ele>1559</ele>
        <time>2019-06-23T08:40:55.089Z</time>
      </trkpt>
      <trkpt lat="42.92844" lon="0.18155">
        <ele>1559</ele>
        <time>2019-06-23T08:40:56.089Z</time>
      </trkpt>
      <trkpt lat="42.92844" lon="0.18154">
        <ele>1559</ele>
        <time>2019-06-23T08:40:57.089Z</time>
      </trkpt>
      <trkpt lat="42.92844" lon="0.18154">
        <ele>1558</ele>
        <time>2019-06-23T08:40:58.089Z</time>
      </trkpt>
      <trkpt lat="42.92844" lon="0.18154">
        <ele>1558</ele>
        <time>2019-06-23T08:40:59.089Z</time>
      </trkpt>
      <trkpt lat="42.92843" lon="0.18154">
        <ele>1557</ele>
        <time>2019-06-23T08:41:00.089Z</time>
      </trkpt>
      <trkpt lat="42.92841" lon="0.1815">
        <ele>1557</ele>
        <time>2019-06-23T08:41:01.104Z</time>
      </trkpt>
      <trkpt lat="42.92841" lon="0.18149">
        <ele>1557</ele>
        <time>2019-06-23T08:41:02.104Z</time>
      </trkpt>
      <trkpt lat="42.92841" lon="0.18148">
        <ele>1557</ele>
        <time>2019-06-23T08:41:03.104Z</time>
      </trkpt>
      <trkpt lat="42.92841" lon="0.18147">
        <ele>1557</ele>
        <time>2019-06-23T08:41:04.104Z</time>
      </trkpt>
      <trkpt lat="42.92841" lon="0.18147">
        <ele>1557</ele>
        <time>2019-06-23T08:41:05.104Z</time>
      </trkpt>
      <trkpt lat="42.92841" lon="0.18146">
        <ele>1557</ele>
        <time>2019-06-23T08:41:06.104Z</time>
      </trkpt>
      <trkpt lat="42.92841" lon="0.18145">
        <ele>1557</ele>
        <time>2019-06-23T08:41:07.104Z</time>
      </trkpt>
      <trkpt lat="42.92841" lon="0.18144">
        <ele>1557</ele>
        <time>2019-06-23T08:41:08.104Z</time>
      </trkpt>
      <trkpt lat="42.92841" lon="0.18143">
        <ele>1557</ele>
        <time>2019-06-23T08:41:09.104Z</time>
      </trkpt>
      <trkpt lat="42.9284" lon="0.18142">
        <ele>1558</ele>
        <time>2019-06-23T08:41:10.104Z</time>
      </trkpt>
      <trkpt lat="42.9284" lon="0.18141">
        <ele>1558</ele>
        <time>2019-06-23T08:41:11.104Z</time>
      </trkpt>
      <trkpt lat="42.9284" lon="0.18141">
        <ele>1560</ele>
        <time>2019-06-23T08:41:12.104Z</time>
      </trkpt>
      <trkpt lat="42.9284" lon="0.1814">
        <ele>1560</ele>
        <time>2019-06-23T08:41:13.104Z</time>
      </trkpt>
      <trkpt lat="42.9284" lon="0.18139">
        <ele>1561</ele>
        <time>2019-06-23T08:41:14.104Z</time>
      </trkpt>
      <trkpt lat="42.9284" lon="0.18139">
        <ele>1561</ele>
        <time>2019-06-23T08:41:15.104Z</time>
      </trkpt>
      <trkpt lat="42.92839" lon="0.18139">
        <ele>1561</ele>
        <time>2019-06-23T08:41:16.104Z</time>
      </trkpt>
      <trkpt lat="42.92838" lon="0.18139">
        <ele>1561</ele>
        <time>2019-06-23T08:41:17.104Z</time>
      </trkpt>
      <trkpt lat="42.92838" lon="0.18138">
        <ele>1562</ele>
        <time>2019-06-23T08:41:18.104Z</time>
      </trkpt>
      <trkpt lat="42.92838" lon="0.18138">
        <ele>1562</ele>
        <time>2019-06-23T08:41:19.104Z</time>
      </trkpt>
      <trkpt lat="42.92837" lon="0.18137">
        <ele>1562</ele>
        <time>2019-06-23T08:41:20.104Z</time>
      </trkpt>
      <trkpt lat="42.92837" lon="0.18137">
        <ele>1563</ele>
        <time>2019-06-23T08:41:21.104Z</time>
      </trkpt>
      <trkpt lat="42.92837" lon="0.18137">
        <ele>1562</ele>
        <time>2019-06-23T08:41:22.104Z</time>
      </trkpt>
      <trkpt lat="42.92837" lon="0.18136">
        <ele>1561</ele>
        <time>2019-06-23T08:41:23.104Z</time>
      </trkpt>
      <trkpt lat="42.92836" lon="0.18136">
        <ele>1561</ele>
        <time>2019-06-23T08:41:24.104Z</time>
      </trkpt>
      <trkpt lat="42.92836" lon="0.18135">
        <ele>1562</ele>
        <time>2019-06-23T08:41:25.104Z</time>
      </trkpt>
      <trkpt lat="42.92836" lon="0.18135">
        <ele>1562</ele>
        <time>2019-06-23T08:41:26.104Z</time>
      </trkpt>
      <trkpt lat="42.92836" lon="0.18135">
        <ele>1563</ele>
        <time>2019-06-23T08:41:27.104Z</time>
      </trkpt>
      <trkpt lat="42.92836" lon="0.18135">
        <ele>1563</ele>
        <time>2019-06-23T08:41:28.104Z</time>
      </trkpt>
      <trkpt lat="42.92835" lon="0.18134">
        <ele>1564</ele>
        <time>2019-06-23T08:41:29.104Z</time>
      </trkpt>
      <trkpt lat="42.92834" lon="0.18132">
        <ele>1564</ele>
        <time>2019-06-23T08:41:30.116Z</time>
      </trkpt>
      <trkpt lat="42.92834" lon="0.18132">
        <ele>1564</ele>
        <time>2019-06-23T08:41:31.116Z</time>
      </trkpt>
      <trkpt lat="42.92834" lon="0.18132">
        <ele>1565</ele>
        <time>2019-06-23T08:41:32.116Z</time>
      </trkpt>
      <trkpt lat="42.92834" lon="0.18132">
        <ele>1565</ele>
        <time>2019-06-23T08:41:33.116Z</time>
      </trkpt>
      <trkpt lat="42.92834" lon="0.18132">
        <ele>1565</ele>
        <time>2019-06-23T08:41:34.116Z</time>
      </trkpt>
      <trkpt lat="42.92831" lon="0.18134">
        <ele>1565</ele>
        <time>2019-06-23T08:41:35.124Z</time>
      </trkpt>
      <trkpt lat="42.92831" lon="0.18135">
        <ele>1565</ele>
        <time>2019-06-23T08:41:36.124Z</time>
      </trkpt>
      <trkpt lat="42.9283" lon="0.18136">
        <ele>1565</ele>
        <time>2019-06-23T08:41:37.124Z</time>
      </trkpt>
      <trkpt lat="42.9283" lon="0.18136">
        <ele>1565</ele>
        <time>2019-06-23T08:41:38.124Z</time>
      </trkpt>
      <trkpt lat="42.9283" lon="0.18137">
        <ele>1565</ele>
        <time>2019-06-23T08:41:39.124Z</time>
      </trkpt>
      <trkpt lat="42.92829" lon="0.18138">
        <ele>1565</ele>
        <time>2019-06-23T08:41:40.124Z</time>
      </trkpt>
      <trkpt lat="42.92829" lon="0.18139">
        <ele>1565</ele>
        <time>2019-06-23T08:41:41.124Z</time>
      </trkpt>
      <trkpt lat="42.92828" lon="0.18139">
        <ele>1565</ele>
        <time>2019-06-23T08:41:42.124Z</time>
      </trkpt>
      <trkpt lat="42.92828" lon="0.1814">
        <ele>1564</ele>
        <time>2019-06-23T08:41:43.124Z</time>
      </trkpt>
      <trkpt lat="42.92827" lon="0.18141">
        <ele>1565</ele>
        <time>2019-06-23T08:41:44.124Z</time>
      </trkpt>
      <trkpt lat="42.92827" lon="0.18142">
        <ele>1565</ele>
        <time>2019-06-23T08:41:45.124Z</time>
      </trkpt>
      <trkpt lat="42.92827" lon="0.18143">
        <ele>1564</ele>
        <time>2019-06-23T08:41:46.124Z</time>
      </trkpt>
      <trkpt lat="42.92827" lon="0.18143">
        <ele>1565</ele>
        <time>2019-06-23T08:41:47.124Z</time>
      </trkpt>
      <trkpt lat="42.92827" lon="0.18143">
        <ele>1564</ele>
        <time>2019-06-23T08:41:48.124Z</time>
      </trkpt>
      <trkpt lat="42.92827" lon="0.18143">
        <ele>1564</ele>
        <time>2019-06-23T08:41:49.124Z</time>
      </trkpt>
      <trkpt lat="42.92827" lon="0.18143">
        <ele>1565</ele>
        <time>2019-06-23T08:41:50.124Z</time>
      </trkpt>
      <trkpt lat="42.92827" lon="0.18143">
        <ele>1565</ele>
        <time>2019-06-23T08:41:51.124Z</time>
      </trkpt>
      <trkpt lat="42.92828" lon="0.18143">
        <ele>1565</ele>
        <time>2019-06-23T08:41:52.124Z</time>
      </trkpt>
      <trkpt lat="42.92828" lon="0.18143">
        <ele>1565</ele>
        <time>2019-06-23T08:41:53.124Z</time>
      </trkpt>
      <trkpt lat="42.92826" lon="0.18147">
        <ele>1563</ele>
        <time>2019-06-23T08:41:55.011Z</time>
      </trkpt>
      <trkpt lat="42.92826" lon="0.18148">
        <ele>1563</ele>
        <time>2019-06-23T08:41:56.011Z</time>
      </trkpt>
      <trkpt lat="42.92826" lon="0.18148">
        <ele>1564</ele>
        <time>2019-06-23T08:41:57.011Z</time>
      </trkpt>
      <trkpt lat="42.92825" lon="0.18149">
        <ele>1564</ele>
        <time>2019-06-23T08:41:58.011Z</time>
      </trkpt>
      <trkpt lat="42.92825" lon="0.1815">
        <ele>1563</ele>
        <time>2019-06-23T08:41:59.011Z</time>
      </trkpt>
      <trkpt lat="42.92824" lon="0.1815">
        <ele>1563</ele>
        <time>2019-06-23T08:42:00.011Z</time>
      </trkpt>
      <trkpt lat="42.92824" lon="0.18151">
        <ele>1563</ele>
        <time>2019-06-23T08:42:01.011Z</time>
      </trkpt>
      <trkpt lat="42.92824" lon="0.18152">
        <ele>1563</ele>
        <time>2019-06-23T08:42:02.011Z</time>
      </trkpt>
      <trkpt lat="42.92823" lon="0.18152">
        <ele>1563</ele>
        <time>2019-06-23T08:42:03.011Z</time>
      </trkpt>
      <trkpt lat="42.92822" lon="0.18153">
        <ele>1562</ele>
        <time>2019-06-23T08:42:04.011Z</time>
      </trkpt>
      <trkpt lat="42.92821" lon="0.18154">
        <ele>1562</ele>
        <time>2019-06-23T08:42:05.011Z</time>
      </trkpt>
      <trkpt lat="42.92821" lon="0.18154">
        <ele>1562</ele>
        <time>2019-06-23T08:42:06.011Z</time>
      </trkpt>
      <trkpt lat="42.92821" lon="0.18155">
        <ele>1562</ele>
        <time>2019-06-23T08:42:07.011Z</time>
      </trkpt>
      <trkpt lat="42.92821" lon="0.18155">
        <ele>1562</ele>
        <time>2019-06-23T08:42:08.011Z</time>
      </trkpt>
      <trkpt lat="42.9282" lon="0.18155">
        <ele>1561</ele>
        <time>2019-06-23T08:42:09.011Z</time>
      </trkpt>
      <trkpt lat="42.9282" lon="0.18155">
        <ele>1561</ele>
        <time>2019-06-23T08:42:10.011Z</time>
      </trkpt>
      <trkpt lat="42.92819" lon="0.18155">
        <ele>1561</ele>
        <time>2019-06-23T08:42:11.011Z</time>
      </trkpt>
      <trkpt lat="42.92819" lon="0.18155">
        <ele>1561</ele>
        <time>2019-06-23T08:42:12.011Z</time>
      </trkpt>
      <trkpt lat="42.92819" lon="0.18156">
        <ele>1561</ele>
        <time>2019-06-23T08:42:13.011Z</time>
      </trkpt>
      <trkpt lat="42.92818" lon="0.18156">
        <ele>1561</ele>
        <time>2019-06-23T08:42:14.011Z</time>
      </trkpt>
      <trkpt lat="42.92817" lon="0.18156">
        <ele>1560</ele>
        <time>2019-06-23T08:42:15.011Z</time>
      </trkpt>
      <trkpt lat="42.92817" lon="0.18157">
        <ele>1560</ele>
        <time>2019-06-23T08:42:16.011Z</time>
      </trkpt>
      <trkpt lat="42.92816" lon="0.18157">
        <ele>1560</ele>
        <time>2019-06-23T08:42:17.011Z</time>
      </trkpt>
      <trkpt lat="42.92816" lon="0.18157">
        <ele>1561</ele>
        <time>2019-06-23T08:42:18.011Z</time>
      </trkpt>
      <trkpt lat="42.92816" lon="0.18157">
        <ele>1561</ele>
        <time>2019-06-23T08:42:19.011Z</time>
      </trkpt>
      <trkpt lat="42.92816" lon="0.18158">
        <ele>1560</ele>
        <time>2019-06-23T08:42:20.011Z</time>
      </trkpt>
      <trkpt lat="42.92815" lon="0.18158">
        <ele>1560</ele>
        <time>2019-06-23T08:42:21.011Z</time>
      </trkpt>
      <trkpt lat="42.92815" lon="0.18158">
        <ele>1560</ele>
        <time>2019-06-23T08:42:22.011Z</time>
      </trkpt>
      <trkpt lat="42.92814" lon="0.18159">
        <ele>1560</ele>
        <time>2019-06-23T08:42:23.011Z</time>
      </trkpt>
      <trkpt lat="42.92814" lon="0.18159">
        <ele>1561</ele>
        <time>2019-06-23T08:42:24.011Z</time>
      </trkpt>
      <trkpt lat="42.92814" lon="0.18159">
        <ele>1561</ele>
        <time>2019-06-23T08:42:25.011Z</time>
      </trkpt>
      <trkpt lat="42.92814" lon="0.18159">
        <ele>1561</ele>
        <time>2019-06-23T08:42:26.011Z</time>
      </trkpt>
      <trkpt lat="42.92814" lon="0.18159">
        <ele>1561</ele>
        <time>2019-06-23T08:42:27.011Z</time>
      </trkpt>
      <trkpt lat="42.92814" lon="0.1816">
        <ele>1560</ele>
        <time>2019-06-23T08:42:28.011Z</time>
      </trkpt>
      <trkpt lat="42.92814" lon="0.1816">
        <ele>1561</ele>
        <time>2019-06-23T08:42:29.011Z</time>
      </trkpt>
      <trkpt lat="42.92813" lon="0.18161">
        <ele>1561</ele>
        <time>2019-06-23T08:42:30.011Z</time>
      </trkpt>
      <trkpt lat="42.92813" lon="0.18161">
        <ele>1562</ele>
        <time>2019-06-23T08:42:31.011Z</time>
      </trkpt>
      <trkpt lat="42.92813" lon="0.18162">
        <ele>1562</ele>
        <time>2019-06-23T08:42:32.011Z</time>
      </trkpt>
      <trkpt lat="42.92812" lon="0.18162">
        <ele>1562</ele>
        <time>2019-06-23T08:42:33.011Z</time>
      </trkpt>
      <trkpt lat="42.92812" lon="0.18163">
        <ele>1562</ele>
        <time>2019-06-23T08:42:34.011Z</time>
      </trkpt>
      <trkpt lat="42.92812" lon="0.18164">
        <ele>1563</ele>
        <time>2019-06-23T08:42:35.011Z</time>
      </trkpt>
      <trkpt lat="42.92812" lon="0.18165">
        <ele>1564</ele>
        <time>2019-06-23T08:42:36.011Z</time>
      </trkpt>
      <trkpt lat="42.92812" lon="0.18166">
        <ele>1564</ele>
        <time>2019-06-23T08:42:37.011Z</time>
      </trkpt>
      <trkpt lat="42.92812" lon="0.18166">
        <ele>1564</ele>
        <time>2019-06-23T08:42:38.011Z</time>
      </trkpt>
      <trkpt lat="42.92811" lon="0.18167">
        <ele>1564</ele>
        <time>2019-06-23T08:42:39.011Z</time>
      </trkpt>
      <trkpt lat="42.92811" lon="0.18168">
        <ele>1564</ele>
        <time>2019-06-23T08:42:40.011Z</time>
      </trkpt>
      <trkpt lat="42.9281" lon="0.18168">
        <ele>1564</ele>
        <time>2019-06-23T08:42:41.011Z</time>
      </trkpt>
      <trkpt lat="42.9281" lon="0.18169">
        <ele>1564</ele>
        <time>2019-06-23T08:42:42.011Z</time>
      </trkpt>
      <trkpt lat="42.92809" lon="0.18169">
        <ele>1564</ele>
        <time>2019-06-23T08:42:43.011Z</time>
      </trkpt>
      <trkpt lat="42.92809" lon="0.1817">
        <ele>1564</ele>
        <time>2019-06-23T08:42:44.011Z</time>
      </trkpt>
      <trkpt lat="42.92808" lon="0.1817">
        <ele>1564</ele>
        <time>2019-06-23T08:42:45.011Z</time>
      </trkpt>
      <trkpt lat="42.92808" lon="0.18171">
        <ele>1565</ele>
        <time>2019-06-23T08:42:46.011Z</time>
      </trkpt>
      <trkpt lat="42.92807" lon="0.18171">
        <ele>1565</ele>
        <time>2019-06-23T08:42:47.011Z</time>
      </trkpt>
      <trkpt lat="42.92807" lon="0.18171">
        <ele>1565</ele>
        <time>2019-06-23T08:42:48.011Z</time>
      </trkpt>
      <trkpt lat="42.92807" lon="0.18172">
        <ele>1565</ele>
        <time>2019-06-23T08:42:49.011Z</time>
      </trkpt>
      <trkpt lat="42.92807" lon="0.18172">
        <ele>1566</ele>
        <time>2019-06-23T08:42:50.011Z</time>
      </trkpt>
      <trkpt lat="42.92807" lon="0.18172">
        <ele>1565</ele>
        <time>2019-06-23T08:42:51.011Z</time>
      </trkpt>
      <trkpt lat="42.92807" lon="0.18172">
        <ele>1565</ele>
        <time>2019-06-23T08:42:52.011Z</time>
      </trkpt>
      <trkpt lat="42.92806" lon="0.18172">
        <ele>1564</ele>
        <time>2019-06-23T08:42:53.011Z</time>
      </trkpt>
      <trkpt lat="42.92806" lon="0.18173">
        <ele>1564</ele>
        <time>2019-06-23T08:42:54.011Z</time>
      </trkpt>
      <trkpt lat="42.92806" lon="0.18173">
        <ele>1564</ele>
        <time>2019-06-23T08:42:55.011Z</time>
      </trkpt>
      <trkpt lat="42.92805" lon="0.18174">
        <ele>1563</ele>
        <time>2019-06-23T08:42:56.011Z</time>
      </trkpt>
      <trkpt lat="42.92805" lon="0.18175">
        <ele>1563</ele>
        <time>2019-06-23T08:42:57.011Z</time>
      </trkpt>
      <trkpt lat="42.92805" lon="0.18175">
        <ele>1562</ele>
        <time>2019-06-23T08:42:58.011Z</time>
      </trkpt>
      <trkpt lat="42.92805" lon="0.18175">
        <ele>1562</ele>
        <time>2019-06-23T08:42:59.011Z</time>
      </trkpt>
      <trkpt lat="42.92805" lon="0.18175">
        <ele>1562</ele>
        <time>2019-06-23T08:43:00.011Z</time>
      </trkpt>
      <trkpt lat="42.92805" lon="0.18175">
        <ele>1562</ele>
        <time>2019-06-23T08:43:01.011Z</time>
      </trkpt>
      <trkpt lat="42.92803" lon="0.18179">
        <ele>1561</ele>
        <time>2019-06-23T08:43:02.019Z</time>
      </trkpt>
      <trkpt lat="42.92803" lon="0.1818">
        <ele>1560</ele>
        <time>2019-06-23T08:43:03.019Z</time>
      </trkpt>
      <trkpt lat="42.92802" lon="0.1818">
        <ele>1560</ele>
        <time>2019-06-23T08:43:04.019Z</time>
      </trkpt>
      <trkpt lat="42.92801" lon="0.18181">
        <ele>1560</ele>
        <time>2019-06-23T08:43:05.019Z</time>
      </trkpt>
      <trkpt lat="42.92801" lon="0.18182">
        <ele>1560</ele>
        <time>2019-06-23T08:43:06.019Z</time>
      </trkpt>
      <trkpt lat="42.928" lon="0.18183">
        <ele>1560</ele>
        <time>2019-06-23T08:43:07.019Z</time>
      </trkpt>
      <trkpt lat="42.92799" lon="0.18184">
        <ele>1561</ele>
        <time>2019-06-23T08:43:08.019Z</time>
      </trkpt>
      <trkpt lat="42.92798" lon="0.18185">
        <ele>1561</ele>
        <time>2019-06-23T08:43:09.019Z</time>
      </trkpt>
      <trkpt lat="42.92798" lon="0.18186">
        <ele>1560</ele>
        <time>2019-06-23T08:43:10.019Z</time>
      </trkpt>
      <trkpt lat="42.92797" lon="0.18187">
        <ele>1561</ele>
        <time>2019-06-23T08:43:11.019Z</time>
      </trkpt>
      <trkpt lat="42.92797" lon="0.18188">
        <ele>1560</ele>
        <time>2019-06-23T08:43:12.019Z</time>
      </trkpt>
      <trkpt lat="42.92796" lon="0.18189">
        <ele>1560</ele>
        <time>2019-06-23T08:43:13.019Z</time>
      </trkpt>
      <trkpt lat="42.92796" lon="0.18189">
        <ele>1561</ele>
        <time>2019-06-23T08:43:14.019Z</time>
      </trkpt>
      <trkpt lat="42.92795" lon="0.1819">
        <ele>1561</ele>
        <time>2019-06-23T08:43:15.019Z</time>
      </trkpt>
      <trkpt lat="42.92795" lon="0.1819">
        <ele>1561</ele>
        <time>2019-06-23T08:43:16.019Z</time>
      </trkpt>
      <trkpt lat="42.92795" lon="0.1819">
        <ele>1562</ele>
        <time>2019-06-23T08:43:17.019Z</time>
      </trkpt>
      <trkpt lat="42.92795" lon="0.18191">
        <ele>1562</ele>
        <time>2019-06-23T08:43:18.019Z</time>
      </trkpt>
      <trkpt lat="42.92795" lon="0.18191">
        <ele>1561</ele>
        <time>2019-06-23T08:43:19.019Z</time>
      </trkpt>
      <trkpt lat="42.92794" lon="0.18191">
        <ele>1561</ele>
        <time>2019-06-23T08:43:20.019Z</time>
      </trkpt>
      <trkpt lat="42.92793" lon="0.18192">
        <ele>1561</ele>
        <time>2019-06-23T08:43:21.019Z</time>
      </trkpt>
      <trkpt lat="42.92793" lon="0.18192">
        <ele>1561</ele>
        <time>2019-06-23T08:43:22.019Z</time>
      </trkpt>
      <trkpt lat="42.92793" lon="0.18193">
        <ele>1562</ele>
        <time>2019-06-23T08:43:23.019Z</time>
      </trkpt>
      <trkpt lat="42.92793" lon="0.18193">
        <ele>1561</ele>
        <time>2019-06-23T08:43:24.019Z</time>
      </trkpt>
      <trkpt lat="42.92793" lon="0.18193">
        <ele>1561</ele>
        <time>2019-06-23T08:43:25.019Z</time>
      </trkpt>
      <trkpt lat="42.92793" lon="0.18192">
        <ele>1561</ele>
        <time>2019-06-23T08:43:26.019Z</time>
      </trkpt>
      <trkpt lat="42.92793" lon="0.18193">
        <ele>1562</ele>
        <time>2019-06-23T08:43:27.019Z</time>
      </trkpt>
      <trkpt lat="42.92793" lon="0.18193">
        <ele>1563</ele>
        <time>2019-06-23T08:43:28.019Z</time>
      </trkpt>
      <trkpt lat="42.92792" lon="0.18193">
        <ele>1564</ele>
        <time>2019-06-23T08:43:29.019Z</time>
      </trkpt>
      <trkpt lat="42.92792" lon="0.18193">
        <ele>1564</ele>
        <time>2019-06-23T08:43:30.019Z</time>
      </trkpt>
      <trkpt lat="42.92792" lon="0.18193">
        <ele>1564</ele>
        <time>2019-06-23T08:43:31.019Z</time>
      </trkpt>
      <trkpt lat="42.92792" lon="0.18193">
        <ele>1564</ele>
        <time>2019-06-23T08:43:32.019Z</time>
      </trkpt>
      <trkpt lat="42.92792" lon="0.18193">
        <ele>1564</ele>
        <time>2019-06-23T08:43:33.019Z</time>
      </trkpt>
      <trkpt lat="42.9279" lon="0.18195">
        <ele>1566</ele>
        <time>2019-06-23T08:43:34.027Z</time>
      </trkpt>
      <trkpt lat="42.9279" lon="0.18195">
        <ele>1566</ele>
        <time>2019-06-23T08:43:35.027Z</time>
      </trkpt>
      <trkpt lat="42.92789" lon="0.18196">
        <ele>1566</ele>
        <time>2019-06-23T08:43:36.027Z</time>
      </trkpt>
      <trkpt lat="42.92789" lon="0.18196">
        <ele>1566</ele>
        <time>2019-06-23T08:43:37.027Z</time>
      </trkpt>
      <trkpt lat="42.92788" lon="0.18196">
        <ele>1566</ele>
        <time>2019-06-23T08:43:38.027Z</time>
      </trkpt>
      <trkpt lat="42.92788" lon="0.18197">
        <ele>1567</ele>
        <time>2019-06-23T08:43:39.027Z</time>
      </trkpt>
      <trkpt lat="42.92787" lon="0.18197">
        <ele>1567</ele>
        <time>2019-06-23T08:43:40.027Z</time>
      </trkpt>
      <trkpt lat="42.92787" lon="0.18197">
        <ele>1568</ele>
        <time>2019-06-23T08:43:41.027Z</time>
      </trkpt>
      <trkpt lat="42.92787" lon="0.18197">
        <ele>1568</ele>
        <time>2019-06-23T08:43:42.027Z</time>
      </trkpt>
      <trkpt lat="42.92786" lon="0.18198">
        <ele>1567</ele>
        <time>2019-06-23T08:43:43.027Z</time>
      </trkpt>
      <trkpt lat="42.92786" lon="0.18198">
        <ele>1567</ele>
        <time>2019-06-23T08:43:44.027Z</time>
      </trkpt>
      <trkpt lat="42.92785" lon="0.18198">
        <ele>1568</ele>
        <time>2019-06-23T08:43:45.027Z</time>
      </trkpt>
      <trkpt lat="42.92785" lon="0.18198">
        <ele>1569</ele>
        <time>2019-06-23T08:43:46.027Z</time>
      </trkpt>
      <trkpt lat="42.92785" lon="0.18198">
        <ele>1569</ele>
        <time>2019-06-23T08:43:47.027Z</time>
      </trkpt>
      <trkpt lat="42.92784" lon="0.18197">
        <ele>1569</ele>
        <time>2019-06-23T08:43:48.027Z</time>
      </trkpt>
      <trkpt lat="42.92784" lon="0.18197">
        <ele>1568</ele>
        <time>2019-06-23T08:43:49.027Z</time>
      </trkpt>
      <trkpt lat="42.92783" lon="0.18197">
        <ele>1569</ele>
        <time>2019-06-23T08:43:50.027Z</time>
      </trkpt>
      <trkpt lat="42.92782" lon="0.18198">
        <ele>1568</ele>
        <time>2019-06-23T08:43:51.027Z</time>
      </trkpt>
      <trkpt lat="42.92782" lon="0.18198">
        <ele>1568</ele>
        <time>2019-06-23T08:43:52.027Z</time>
      </trkpt>
      <trkpt lat="42.92781" lon="0.18198">
        <ele>1568</ele>
        <time>2019-06-23T08:43:53.027Z</time>
      </trkpt>
      <trkpt lat="42.92779" lon="0.18198">
        <ele>1568</ele>
        <time>2019-06-23T08:43:54.027Z</time>
      </trkpt>
      <trkpt lat="42.92779" lon="0.18199">
        <ele>1568</ele>
        <time>2019-06-23T08:43:55.027Z</time>
      </trkpt>
      <trkpt lat="42.92779" lon="0.18199">
        <ele>1568</ele>
        <time>2019-06-23T08:43:56.027Z</time>
      </trkpt>
      <trkpt lat="42.92779" lon="0.18199">
        <ele>1569</ele>
        <time>2019-06-23T08:43:57.027Z</time>
      </trkpt>
      <trkpt lat="42.92778" lon="0.18199">
        <ele>1569</ele>
        <time>2019-06-23T08:43:58.027Z</time>
      </trkpt>
      <trkpt lat="42.92778" lon="0.18199">
        <ele>1571</ele>
        <time>2019-06-23T08:43:59.027Z</time>
      </trkpt>
      <trkpt lat="42.92778" lon="0.18199">
        <ele>1570</ele>
        <time>2019-06-23T08:44:00.027Z</time>
      </trkpt>
      <trkpt lat="42.92778" lon="0.18199">
        <ele>1570</ele>
        <time>2019-06-23T08:44:01.027Z</time>
      </trkpt>
      <trkpt lat="42.92777" lon="0.18199">
        <ele>1570</ele>
        <time>2019-06-23T08:44:02.027Z</time>
      </trkpt>
      <trkpt lat="42.92777" lon="0.182">
        <ele>1570</ele>
        <time>2019-06-23T08:44:03.027Z</time>
      </trkpt>
      <trkpt lat="42.92776" lon="0.182">
        <ele>1572</ele>
        <time>2019-06-23T08:44:04.027Z</time>
      </trkpt>
      <trkpt lat="42.92776" lon="0.18201">
        <ele>1571</ele>
        <time>2019-06-23T08:44:05.027Z</time>
      </trkpt>
      <trkpt lat="42.92776" lon="0.18201">
        <ele>1571</ele>
        <time>2019-06-23T08:44:06.027Z</time>
      </trkpt>
      <trkpt lat="42.92775" lon="0.18202">
        <ele>1572</ele>
        <time>2019-06-23T08:44:07.027Z</time>
      </trkpt>
      <trkpt lat="42.92774" lon="0.18202">
        <ele>1572</ele>
        <time>2019-06-23T08:44:08.027Z</time>
      </trkpt>
      <trkpt lat="42.92773" lon="0.18202">
        <ele>1572</ele>
        <time>2019-06-23T08:44:09.027Z</time>
      </trkpt>
      <trkpt lat="42.92773" lon="0.18203">
        <ele>1572</ele>
        <time>2019-06-23T08:44:10.027Z</time>
      </trkpt>
      <trkpt lat="42.92772" lon="0.18203">
        <ele>1572</ele>
        <time>2019-06-23T08:44:11.027Z</time>
      </trkpt>
      <trkpt lat="42.92772" lon="0.18203">
        <ele>1572</ele>
        <time>2019-06-23T08:44:12.027Z</time>
      </trkpt>
      <trkpt lat="42.92771" lon="0.18203">
        <ele>1572</ele>
        <time>2019-06-23T08:44:13.027Z</time>
      </trkpt>
      <trkpt lat="42.9277" lon="0.18203">
        <ele>1572</ele>
        <time>2019-06-23T08:44:14.027Z</time>
      </trkpt>
      <trkpt lat="42.9277" lon="0.18203">
        <ele>1572</ele>
        <time>2019-06-23T08:44:15.027Z</time>
      </trkpt>
      <trkpt lat="42.9277" lon="0.18204">
        <ele>1573</ele>
        <time>2019-06-23T08:44:16.027Z</time>
      </trkpt>
      <trkpt lat="42.9277" lon="0.18204">
        <ele>1573</ele>
        <time>2019-06-23T08:44:17.027Z</time>
      </trkpt>
      <trkpt lat="42.92769" lon="0.18205">
        <ele>1573</ele>
        <time>2019-06-23T08:44:18.027Z</time>
      </trkpt>
      <trkpt lat="42.92769" lon="0.18205">
        <ele>1573</ele>
        <time>2019-06-23T08:44:19.027Z</time>
      </trkpt>
      <trkpt lat="42.92768" lon="0.18205">
        <ele>1573</ele>
        <time>2019-06-23T08:44:20.027Z</time>
      </trkpt>
      <trkpt lat="42.92768" lon="0.18205">
        <ele>1572</ele>
        <time>2019-06-23T08:44:21.027Z</time>
      </trkpt>
      <trkpt lat="42.92767" lon="0.18205">
        <ele>1572</ele>
        <time>2019-06-23T08:44:22.027Z</time>
      </trkpt>
      <trkpt lat="42.92766" lon="0.18206">
        <ele>1572</ele>
        <time>2019-06-23T08:44:23.027Z</time>
      </trkpt>
      <trkpt lat="42.92766" lon="0.18206">
        <ele>1572</ele>
        <time>2019-06-23T08:44:24.027Z</time>
      </trkpt>
      <trkpt lat="42.92766" lon="0.18207">
        <ele>1572</ele>
        <time>2019-06-23T08:44:25.027Z</time>
      </trkpt>
      <trkpt lat="42.92766" lon="0.18207">
        <ele>1572</ele>
        <time>2019-06-23T08:44:26.027Z</time>
      </trkpt>
      <trkpt lat="42.92765" lon="0.18208">
        <ele>1572</ele>
        <time>2019-06-23T08:44:27.027Z</time>
      </trkpt>
      <trkpt lat="42.92765" lon="0.18208">
        <ele>1572</ele>
        <time>2019-06-23T08:44:28.027Z</time>
      </trkpt>
      <trkpt lat="42.92765" lon="0.18209">
        <ele>1571</ele>
        <time>2019-06-23T08:44:29.027Z</time>
      </trkpt>
      <trkpt lat="42.92764" lon="0.18209">
        <ele>1572</ele>
        <time>2019-06-23T08:44:30.027Z</time>
      </trkpt>
      <trkpt lat="42.92764" lon="0.18209">
        <ele>1572</ele>
        <time>2019-06-23T08:44:31.027Z</time>
      </trkpt>
      <trkpt lat="42.92763" lon="0.18209">
        <ele>1571</ele>
        <time>2019-06-23T08:44:32.027Z</time>
      </trkpt>
      <trkpt lat="42.92763" lon="0.18209">
        <ele>1571</ele>
        <time>2019-06-23T08:44:33.027Z</time>
      </trkpt>
      <trkpt lat="42.92762" lon="0.1821">
        <ele>1573</ele>
        <time>2019-06-23T08:44:34.027Z</time>
      </trkpt>
      <trkpt lat="42.92762" lon="0.1821">
        <ele>1573</ele>
        <time>2019-06-23T08:44:35.027Z</time>
      </trkpt>
      <trkpt lat="42.92762" lon="0.1821">
        <ele>1573</ele>
        <time>2019-06-23T08:44:36.027Z</time>
      </trkpt>
      <trkpt lat="42.92761" lon="0.1821">
        <ele>1573</ele>
        <time>2019-06-23T08:44:37.027Z</time>
      </trkpt>
      <trkpt lat="42.92761" lon="0.1821">
        <ele>1573</ele>
        <time>2019-06-23T08:44:38.027Z</time>
      </trkpt>
      <trkpt lat="42.92761" lon="0.1821">
        <ele>1573</ele>
        <time>2019-06-23T08:44:39.027Z</time>
      </trkpt>
      <trkpt lat="42.9276" lon="0.18211">
        <ele>1574</ele>
        <time>2019-06-23T08:44:40.027Z</time>
      </trkpt>
      <trkpt lat="42.9276" lon="0.18212">
        <ele>1574</ele>
        <time>2019-06-23T08:44:41.027Z</time>
      </trkpt>
      <trkpt lat="42.9276" lon="0.18212">
        <ele>1574</ele>
        <time>2019-06-23T08:44:42.027Z</time>
      </trkpt>
      <trkpt lat="42.9276" lon="0.18212">
        <ele>1574</ele>
        <time>2019-06-23T08:44:43.027Z</time>
      </trkpt>
      <trkpt lat="42.9276" lon="0.18213">
        <ele>1574</ele>
        <time>2019-06-23T08:44:44.027Z</time>
      </trkpt>
      <trkpt lat="42.9276" lon="0.18213">
        <ele>1574</ele>
        <time>2019-06-23T08:44:45.027Z</time>
      </trkpt>
      <trkpt lat="42.92759" lon="0.18214">
        <ele>1573</ele>
        <time>2019-06-23T08:44:46.027Z</time>
      </trkpt>
      <trkpt lat="42.92758" lon="0.18215">
        <ele>1573</ele>
        <time>2019-06-23T08:44:47.027Z</time>
      </trkpt>
      <trkpt lat="42.92758" lon="0.18215">
        <ele>1573</ele>
        <time>2019-06-23T08:44:48.027Z</time>
      </trkpt>
      <trkpt lat="42.92758" lon="0.18216">
        <ele>1573</ele>
        <time>2019-06-23T08:44:49.027Z</time>
      </trkpt>
      <trkpt lat="42.92757" lon="0.18217">
        <ele>1573</ele>
        <time>2019-06-23T08:44:50.027Z</time>
      </trkpt>
      <trkpt lat="42.92757" lon="0.18217">
        <ele>1573</ele>
        <time>2019-06-23T08:44:51.027Z</time>
      </trkpt>
      <trkpt lat="42.92756" lon="0.18218">
        <ele>1574</ele>
        <time>2019-06-23T08:44:52.027Z</time>
      </trkpt>
      <trkpt lat="42.92756" lon="0.18218">
        <ele>1574</ele>
        <time>2019-06-23T08:44:53.027Z</time>
      </trkpt>
      <trkpt lat="42.92756" lon="0.18219">
        <ele>1574</ele>
        <time>2019-06-23T08:44:54.027Z</time>
      </trkpt>
      <trkpt lat="42.92756" lon="0.18219">
        <ele>1574</ele>
        <time>2019-06-23T08:44:55.027Z</time>
      </trkpt>
      <trkpt lat="42.92755" lon="0.18219">
        <ele>1575</ele>
        <time>2019-06-23T08:44:56.027Z</time>
      </trkpt>
      <trkpt lat="42.92754" lon="0.18219">
        <ele>1575</ele>
        <time>2019-06-23T08:44:57.027Z</time>
      </trkpt>
      <trkpt lat="42.92754" lon="0.18219">
        <ele>1575</ele>
        <time>2019-06-23T08:44:58.027Z</time>
      </trkpt>
      <trkpt lat="42.92754" lon="0.18219">
        <ele>1575</ele>
        <time>2019-06-23T08:44:59.027Z</time>
      </trkpt>
      <trkpt lat="42.92754" lon="0.18218">
        <ele>1576</ele>
        <time>2019-06-23T08:45:00.027Z</time>
      </trkpt>
      <trkpt lat="42.92754" lon="0.18218">
        <ele>1576</ele>
        <time>2019-06-23T08:45:01.027Z</time>
      </trkpt>
      <trkpt lat="42.92754" lon="0.18218">
        <ele>1576</ele>
        <time>2019-06-23T08:45:02.027Z</time>
      </trkpt>
      <trkpt lat="42.92755" lon="0.18218">
        <ele>1577</ele>
        <time>2019-06-23T08:45:03.027Z</time>
      </trkpt>
      <trkpt lat="42.92755" lon="0.18218">
        <ele>1577</ele>
        <time>2019-06-23T08:45:04.027Z</time>
      </trkpt>
      <trkpt lat="42.92755" lon="0.18218">
        <ele>1578</ele>
        <time>2019-06-23T08:45:05.027Z</time>
      </trkpt>
      <trkpt lat="42.92756" lon="0.18218">
        <ele>1578</ele>
        <time>2019-06-23T08:45:06.027Z</time>
      </trkpt>
      <trkpt lat="42.92752" lon="0.18218">
        <ele>1577</ele>
        <time>2019-06-23T08:45:07.031Z</time>
      </trkpt>
      <trkpt lat="42.92751" lon="0.18218">
        <ele>1578</ele>
        <time>2019-06-23T08:45:08.031Z</time>
      </trkpt>
      <trkpt lat="42.92751" lon="0.18218">
        <ele>1578</ele>
        <time>2019-06-23T08:45:09.031Z</time>
      </trkpt>
      <trkpt lat="42.9275" lon="0.18219">
        <ele>1578</ele>
        <time>2019-06-23T08:45:10.031Z</time>
      </trkpt>
      <trkpt lat="42.9275" lon="0.18219">
        <ele>1578</ele>
        <time>2019-06-23T08:45:11.031Z</time>
      </trkpt>
      <trkpt lat="42.92749" lon="0.18219">
        <ele>1578</ele>
        <time>2019-06-23T08:45:12.031Z</time>
      </trkpt>
      <trkpt lat="42.92749" lon="0.18219">
        <ele>1578</ele>
        <time>2019-06-23T08:45:13.031Z</time>
      </trkpt>
      <trkpt lat="42.92749" lon="0.18219">
        <ele>1578</ele>
        <time>2019-06-23T08:45:14.031Z</time>
      </trkpt>
      <trkpt lat="42.92747" lon="0.18219">
        <ele>1578</ele>
        <time>2019-06-23T08:45:15.031Z</time>
      </trkpt>
      <trkpt lat="42.92747" lon="0.18219">
        <ele>1578</ele>
        <time>2019-06-23T08:45:16.031Z</time>
      </trkpt>
      <trkpt lat="42.92746" lon="0.1822">
        <ele>1578</ele>
        <time>2019-06-23T08:45:17.031Z</time>
      </trkpt>
      <trkpt lat="42.92746" lon="0.1822">
        <ele>1578</ele>
        <time>2019-06-23T08:45:18.031Z</time>
      </trkpt>
      <trkpt lat="42.92746" lon="0.1822">
        <ele>1578</ele>
        <time>2019-06-23T08:45:19.031Z</time>
      </trkpt>
      <trkpt lat="42.92745" lon="0.1822">
        <ele>1579</ele>
        <time>2019-06-23T08:45:20.031Z</time>
      </trkpt>
      <trkpt lat="42.92744" lon="0.18221">
        <ele>1579</ele>
        <time>2019-06-23T08:45:21.031Z</time>
      </trkpt>
      <trkpt lat="42.92743" lon="0.18221">
        <ele>1579</ele>
        <time>2019-06-23T08:45:22.031Z</time>
      </trkpt>
      <trkpt lat="42.92743" lon="0.18221">
        <ele>1579</ele>
        <time>2019-06-23T08:45:23.031Z</time>
      </trkpt>
      <trkpt lat="42.92742" lon="0.18221">
        <ele>1579</ele>
        <time>2019-06-23T08:45:24.031Z</time>
      </trkpt>
      <trkpt lat="42.92742" lon="0.18221">
        <ele>1579</ele>
        <time>2019-06-23T08:45:25.031Z</time>
      </trkpt>
      <trkpt lat="42.92741" lon="0.18222">
        <ele>1579</ele>
        <time>2019-06-23T08:45:26.031Z</time>
      </trkpt>
      <trkpt lat="42.92741" lon="0.18222">
        <ele>1579</ele>
        <time>2019-06-23T08:45:27.031Z</time>
      </trkpt>
      <trkpt lat="42.9274" lon="0.18221">
        <ele>1579</ele>
        <time>2019-06-23T08:45:28.031Z</time>
      </trkpt>
      <trkpt lat="42.92739" lon="0.18221">
        <ele>1579</ele>
        <time>2019-06-23T08:45:29.031Z</time>
      </trkpt>
      <trkpt lat="42.92739" lon="0.18221">
        <ele>1579</ele>
        <time>2019-06-23T08:45:30.031Z</time>
      </trkpt>
      <trkpt lat="42.92738" lon="0.18221">
        <ele>1579</ele>
        <time>2019-06-23T08:45:31.031Z</time>
      </trkpt>
      <trkpt lat="42.92738" lon="0.18221">
        <ele>1579</ele>
        <time>2019-06-23T08:45:32.031Z</time>
      </trkpt>
      <trkpt lat="42.92737" lon="0.18221">
        <ele>1579</ele>
        <time>2019-06-23T08:45:33.031Z</time>
      </trkpt>
      <trkpt lat="42.92736" lon="0.18221">
        <ele>1579</ele>
        <time>2019-06-23T08:45:34.031Z</time>
      </trkpt>
      <trkpt lat="42.92736" lon="0.18221">
        <ele>1579</ele>
        <time>2019-06-23T08:45:35.031Z</time>
      </trkpt>
      <trkpt lat="42.92735" lon="0.18221">
        <ele>1579</ele>
        <time>2019-06-23T08:45:36.031Z</time>
      </trkpt>
      <trkpt lat="42.92735" lon="0.18222">
        <ele>1579</ele>
        <time>2019-06-23T08:45:37.031Z</time>
      </trkpt>
      <trkpt lat="42.92734" lon="0.18222">
        <ele>1579</ele>
        <time>2019-06-23T08:45:38.031Z</time>
      </trkpt>
      <trkpt lat="42.92733" lon="0.18223">
        <ele>1579</ele>
        <time>2019-06-23T08:45:39.031Z</time>
      </trkpt>
      <trkpt lat="42.92733" lon="0.18223">
        <ele>1579</ele>
        <time>2019-06-23T08:45:40.031Z</time>
      </trkpt>
      <trkpt lat="42.92733" lon="0.18223">
        <ele>1579</ele>
        <time>2019-06-23T08:45:41.031Z</time>
      </trkpt>
      <trkpt lat="42.92732" lon="0.18223">
        <ele>1579</ele>
        <time>2019-06-23T08:45:42.031Z</time>
      </trkpt>
      <trkpt lat="42.92732" lon="0.18223">
        <ele>1578</ele>
        <time>2019-06-23T08:45:43.031Z</time>
      </trkpt>
      <trkpt lat="42.92732" lon="0.18223">
        <ele>1578</ele>
        <time>2019-06-23T08:45:44.031Z</time>
      </trkpt>
      <trkpt lat="42.9273" lon="0.18224">
        <ele>1578</ele>
        <time>2019-06-23T08:45:45.031Z</time>
      </trkpt>
      <trkpt lat="42.9273" lon="0.18224">
        <ele>1578</ele>
        <time>2019-06-23T08:45:46.031Z</time>
      </trkpt>
      <trkpt lat="42.9273" lon="0.18224">
        <ele>1578</ele>
        <time>2019-06-23T08:45:47.031Z</time>
      </trkpt>
      <trkpt lat="42.92729" lon="0.18225">
        <ele>1579</ele>
        <time>2019-06-23T08:45:48.031Z</time>
      </trkpt>
      <trkpt lat="42.92728" lon="0.18226">
        <ele>1579</ele>
        <time>2019-06-23T08:45:49.031Z</time>
      </trkpt>
      <trkpt lat="42.92728" lon="0.18226">
        <ele>1579</ele>
        <time>2019-06-23T08:45:50.031Z</time>
      </trkpt>
      <trkpt lat="42.92728" lon="0.18226">
        <ele>1579</ele>
        <time>2019-06-23T08:45:51.031Z</time>
      </trkpt>
      <trkpt lat="42.92727" lon="0.18227">
        <ele>1579</ele>
        <time>2019-06-23T08:45:52.031Z</time>
      </trkpt>
      <trkpt lat="42.92727" lon="0.18227">
        <ele>1579</ele>
        <time>2019-06-23T08:45:53.031Z</time>
      </trkpt>
      <trkpt lat="42.92727" lon="0.18227">
        <ele>1580</ele>
        <time>2019-06-23T08:45:54.031Z</time>
      </trkpt>
      <trkpt lat="42.92726" lon="0.18228">
        <ele>1580</ele>
        <time>2019-06-23T08:45:55.031Z</time>
      </trkpt>
      <trkpt lat="42.92726" lon="0.18228">
        <ele>1580</ele>
        <time>2019-06-23T08:45:56.031Z</time>
      </trkpt>
      <trkpt lat="42.92725" lon="0.18228">
        <ele>1580</ele>
        <time>2019-06-23T08:45:57.031Z</time>
      </trkpt>
      <trkpt lat="42.92725" lon="0.18228">
        <ele>1581</ele>
        <time>2019-06-23T08:45:58.031Z</time>
      </trkpt>
      <trkpt lat="42.92725" lon="0.18228">
        <ele>1581</ele>
        <time>2019-06-23T08:45:59.031Z</time>
      </trkpt>
      <trkpt lat="42.92725" lon="0.18229">
        <ele>1581</ele>
        <time>2019-06-23T08:46:00.031Z</time>
      </trkpt>
      <trkpt lat="42.92725" lon="0.18229">
        <ele>1581</ele>
        <time>2019-06-23T08:46:01.031Z</time>
      </trkpt>
      <trkpt lat="42.92724" lon="0.18229">
        <ele>1581</ele>
        <time>2019-06-23T08:46:02.031Z</time>
      </trkpt>
      <trkpt lat="42.92724" lon="0.18229">
        <ele>1581</ele>
        <time>2019-06-23T08:46:03.031Z</time>
      </trkpt>
      <trkpt lat="42.92724" lon="0.1823">
        <ele>1581</ele>
        <time>2019-06-23T08:46:04.031Z</time>
      </trkpt>
      <trkpt lat="42.92723" lon="0.1823">
        <ele>1582</ele>
        <time>2019-06-23T08:46:05.031Z</time>
      </trkpt>
      <trkpt lat="42.92723" lon="0.1823">
        <ele>1582</ele>
        <time>2019-06-23T08:46:06.031Z</time>
      </trkpt>
      <trkpt lat="42.92723" lon="0.18231">
        <ele>1582</ele>
        <time>2019-06-23T08:46:07.031Z</time>
      </trkpt>
      <trkpt lat="42.92722" lon="0.18231">
        <ele>1582</ele>
        <time>2019-06-23T08:46:08.031Z</time>
      </trkpt>
      <trkpt lat="42.92722" lon="0.18231">
        <ele>1582</ele>
        <time>2019-06-23T08:46:09.031Z</time>
      </trkpt>
      <trkpt lat="42.92722" lon="0.18231">
        <ele>1582</ele>
        <time>2019-06-23T08:46:10.031Z</time>
      </trkpt>
      <trkpt lat="42.92721" lon="0.18231">
        <ele>1582</ele>
        <time>2019-06-23T08:46:11.031Z</time>
      </trkpt>
      <trkpt lat="42.92721" lon="0.18231">
        <ele>1582</ele>
        <time>2019-06-23T08:46:12.031Z</time>
      </trkpt>
      <trkpt lat="42.92721" lon="0.18232">
        <ele>1582</ele>
        <time>2019-06-23T08:46:13.031Z</time>
      </trkpt>
      <trkpt lat="42.92721" lon="0.18232">
        <ele>1583</ele>
        <time>2019-06-23T08:46:14.031Z</time>
      </trkpt>
      <trkpt lat="42.9272" lon="0.18232">
        <ele>1582</ele>
        <time>2019-06-23T08:46:15.031Z</time>
      </trkpt>
      <trkpt lat="42.92719" lon="0.18232">
        <ele>1583</ele>
        <time>2019-06-23T08:46:16.031Z</time>
      </trkpt>
      <trkpt lat="42.92719" lon="0.18231">
        <ele>1582</ele>
        <time>2019-06-23T08:46:17.031Z</time>
      </trkpt>
      <trkpt lat="42.92718" lon="0.18232">
        <ele>1583</ele>
        <time>2019-06-23T08:46:18.031Z</time>
      </trkpt>
      <trkpt lat="42.92718" lon="0.18232">
        <ele>1583</ele>
        <time>2019-06-23T08:46:19.031Z</time>
      </trkpt>
      <trkpt lat="42.92718" lon="0.18232">
        <ele>1583</ele>
        <time>2019-06-23T08:46:20.031Z</time>
      </trkpt>
      <trkpt lat="42.92717" lon="0.18234">
        <ele>1583</ele>
        <time>2019-06-23T08:46:21.031Z</time>
      </trkpt>
      <trkpt lat="42.92717" lon="0.18234">
        <ele>1583</ele>
        <time>2019-06-23T08:46:22.031Z</time>
      </trkpt>
      <trkpt lat="42.92716" lon="0.18234">
        <ele>1583</ele>
        <time>2019-06-23T08:46:23.031Z</time>
      </trkpt>
      <trkpt lat="42.92716" lon="0.18235">
        <ele>1582</ele>
        <time>2019-06-23T08:46:24.031Z</time>
      </trkpt>
      <trkpt lat="42.92715" lon="0.18235">
        <ele>1582</ele>
        <time>2019-06-23T08:46:25.031Z</time>
      </trkpt>
      <trkpt lat="42.92715" lon="0.18235">
        <ele>1582</ele>
        <time>2019-06-23T08:46:26.031Z</time>
      </trkpt>
      <trkpt lat="42.92714" lon="0.18236">
        <ele>1583</ele>
        <time>2019-06-23T08:46:27.031Z</time>
      </trkpt>
      <trkpt lat="42.92714" lon="0.18236">
        <ele>1583</ele>
        <time>2019-06-23T08:46:28.031Z</time>
      </trkpt>
      <trkpt lat="42.92714" lon="0.18236">
        <ele>1583</ele>
        <time>2019-06-23T08:46:29.031Z</time>
      </trkpt>
      <trkpt lat="42.92713" lon="0.18236">
        <ele>1583</ele>
        <time>2019-06-23T08:46:30.031Z</time>
      </trkpt>
      <trkpt lat="42.92713" lon="0.18236">
        <ele>1583</ele>
        <time>2019-06-23T08:46:31.031Z</time>
      </trkpt>
      <trkpt lat="42.92713" lon="0.18237">
        <ele>1584</ele>
        <time>2019-06-23T08:46:32.031Z</time>
      </trkpt>
      <trkpt lat="42.92713" lon="0.18238">
        <ele>1584</ele>
        <time>2019-06-23T08:46:33.031Z</time>
      </trkpt>
      <trkpt lat="42.92712" lon="0.18238">
        <ele>1584</ele>
        <time>2019-06-23T08:46:34.031Z</time>
      </trkpt>
      <trkpt lat="42.92712" lon="0.18238">
        <ele>1584</ele>
        <time>2019-06-23T08:46:35.031Z</time>
      </trkpt>
      <trkpt lat="42.92711" lon="0.18239">
        <ele>1585</ele>
        <time>2019-06-23T08:46:36.031Z</time>
      </trkpt>
      <trkpt lat="42.92711" lon="0.18239">
        <ele>1584</ele>
        <time>2019-06-23T08:46:37.031Z</time>
      </trkpt>
      <trkpt lat="42.9271" lon="0.1824">
        <ele>1584</ele>
        <time>2019-06-23T08:46:38.031Z</time>
      </trkpt>
      <trkpt lat="42.92709" lon="0.1824">
        <ele>1585</ele>
        <time>2019-06-23T08:46:39.031Z</time>
      </trkpt>
      <trkpt lat="42.92709" lon="0.1824">
        <ele>1584</ele>
        <time>2019-06-23T08:46:40.031Z</time>
      </trkpt>
      <trkpt lat="42.92709" lon="0.1824">
        <ele>1585</ele>
        <time>2019-06-23T08:46:41.031Z</time>
      </trkpt>
      <trkpt lat="42.92708" lon="0.1824">
        <ele>1585</ele>
        <time>2019-06-23T08:46:42.031Z</time>
      </trkpt>
      <trkpt lat="42.92708" lon="0.1824">
        <ele>1585</ele>
        <time>2019-06-23T08:46:43.031Z</time>
      </trkpt>
      <trkpt lat="42.92708" lon="0.1824">
        <ele>1585</ele>
        <time>2019-06-23T08:46:44.031Z</time>
      </trkpt>
      <trkpt lat="42.92708" lon="0.1824">
        <ele>1585</ele>
        <time>2019-06-23T08:46:45.031Z</time>
      </trkpt>
      <trkpt lat="42.92708" lon="0.1824">
        <ele>1585</ele>
        <time>2019-06-23T08:46:46.031Z</time>
      </trkpt>
      <trkpt lat="42.92707" lon="0.1824">
        <ele>1586</ele>
        <time>2019-06-23T08:46:47.031Z</time>
      </trkpt>
      <trkpt lat="42.92707" lon="0.1824">
        <ele>1586</ele>
        <time>2019-06-23T08:46:48.031Z</time>
      </trkpt>
      <trkpt lat="42.92707" lon="0.1824">
        <ele>1586</ele>
        <time>2019-06-23T08:46:49.031Z</time>
      </trkpt>
      <trkpt lat="42.92707" lon="0.1824">
        <ele>1586</ele>
        <time>2019-06-23T08:46:50.031Z</time>
      </trkpt>
      <trkpt lat="42.92707" lon="0.1824">
        <ele>1586</ele>
        <time>2019-06-23T08:46:51.031Z</time>
      </trkpt>
      <trkpt lat="42.92707" lon="0.18241">
        <ele>1586</ele>
        <time>2019-06-23T08:46:52.031Z</time>
      </trkpt>
      <trkpt lat="42.92707" lon="0.18241">
        <ele>1587</ele>
        <time>2019-06-23T08:46:53.031Z</time>
      </trkpt>
      <trkpt lat="42.92706" lon="0.18242">
        <ele>1587</ele>
        <time>2019-06-23T08:46:54.031Z</time>
      </trkpt>
      <trkpt lat="42.92706" lon="0.18242">
        <ele>1587</ele>
        <time>2019-06-23T08:46:55.031Z</time>
      </trkpt>
      <trkpt lat="42.92706" lon="0.18242">
        <ele>1586</ele>
        <time>2019-06-23T08:46:56.031Z</time>
      </trkpt>
      <trkpt lat="42.92705" lon="0.18243">
        <ele>1586</ele>
        <time>2019-06-23T08:46:57.031Z</time>
      </trkpt>
      <trkpt lat="42.92705" lon="0.18243">
        <ele>1586</ele>
        <time>2019-06-23T08:46:58.031Z</time>
      </trkpt>
      <trkpt lat="42.92704" lon="0.18243">
        <ele>1586</ele>
        <time>2019-06-23T08:46:59.031Z</time>
      </trkpt>
      <trkpt lat="42.92704" lon="0.18244">
        <ele>1586</ele>
        <time>2019-06-23T08:47:00.031Z</time>
      </trkpt>
      <trkpt lat="42.92704" lon="0.18244">
        <ele>1586</ele>
        <time>2019-06-23T08:47:01.031Z</time>
      </trkpt>
      <trkpt lat="42.92703" lon="0.18244">
        <ele>1586</ele>
        <time>2019-06-23T08:47:02.031Z</time>
      </trkpt>
      <trkpt lat="42.92703" lon="0.18244">
        <ele>1587</ele>
        <time>2019-06-23T08:47:03.031Z</time>
      </trkpt>
      <trkpt lat="42.92703" lon="0.18244">
        <ele>1587</ele>
        <time>2019-06-23T08:47:04.031Z</time>
      </trkpt>
      <trkpt lat="42.92703" lon="0.18244">
        <ele>1587</ele>
        <time>2019-06-23T08:47:05.031Z</time>
      </trkpt>
      <trkpt lat="42.92702" lon="0.18244">
        <ele>1587</ele>
        <time>2019-06-23T08:47:06.031Z</time>
      </trkpt>
      <trkpt lat="42.92702" lon="0.18244">
        <ele>1586</ele>
        <time>2019-06-23T08:47:07.031Z</time>
      </trkpt>
      <trkpt lat="42.92702" lon="0.18244">
        <ele>1586</ele>
        <time>2019-06-23T08:47:08.031Z</time>
      </trkpt>
      <trkpt lat="42.92702" lon="0.18245">
        <ele>1586</ele>
        <time>2019-06-23T08:47:09.031Z</time>
      </trkpt>
      <trkpt lat="42.92699" lon="0.18247">
        <ele>1587</ele>
        <time>2019-06-23T08:47:10.035Z</time>
      </trkpt>
      <trkpt lat="42.92699" lon="0.18247">
        <ele>1588</ele>
        <time>2019-06-23T08:47:11.035Z</time>
      </trkpt>
      <trkpt lat="42.92699" lon="0.18247">
        <ele>1588</ele>
        <time>2019-06-23T08:47:12.035Z</time>
      </trkpt>
      <trkpt lat="42.92698" lon="0.18248">
        <ele>1588</ele>
        <time>2019-06-23T08:47:13.035Z</time>
      </trkpt>
      <trkpt lat="42.92698" lon="0.18248">
        <ele>1588</ele>
        <time>2019-06-23T08:47:14.035Z</time>
      </trkpt>
      <trkpt lat="42.92697" lon="0.18248">
        <ele>1588</ele>
        <time>2019-06-23T08:47:15.035Z</time>
      </trkpt>
      <trkpt lat="42.92697" lon="0.18248">
        <ele>1589</ele>
        <time>2019-06-23T08:47:16.035Z</time>
      </trkpt>
      <trkpt lat="42.92696" lon="0.18249">
        <ele>1589</ele>
        <time>2019-06-23T08:47:17.035Z</time>
      </trkpt>
      <trkpt lat="42.92696" lon="0.18249">
        <ele>1589</ele>
        <time>2019-06-23T08:47:18.035Z</time>
      </trkpt>
      <trkpt lat="42.92695" lon="0.18249">
        <ele>1589</ele>
        <time>2019-06-23T08:47:19.035Z</time>
      </trkpt>
      <trkpt lat="42.92695" lon="0.18249">
        <ele>1589</ele>
        <time>2019-06-23T08:47:20.035Z</time>
      </trkpt>
      <trkpt lat="42.92695" lon="0.18249">
        <ele>1589</ele>
        <time>2019-06-23T08:47:21.035Z</time>
      </trkpt>
      <trkpt lat="42.92694" lon="0.18249">
        <ele>1589</ele>
        <time>2019-06-23T08:47:22.035Z</time>
      </trkpt>
      <trkpt lat="42.92693" lon="0.18249">
        <ele>1589</ele>
        <time>2019-06-23T08:47:23.035Z</time>
      </trkpt>
      <trkpt lat="42.92693" lon="0.18249">
        <ele>1590</ele>
        <time>2019-06-23T08:47:24.035Z</time>
      </trkpt>
      <trkpt lat="42.92693" lon="0.18249">
        <ele>1590</ele>
        <time>2019-06-23T08:47:25.035Z</time>
      </trkpt>
      <trkpt lat="42.92692" lon="0.18249">
        <ele>1590</ele>
        <time>2019-06-23T08:47:26.035Z</time>
      </trkpt>
      <trkpt lat="42.92692" lon="0.18249">
        <ele>1591</ele>
        <time>2019-06-23T08:47:27.035Z</time>
      </trkpt>
      <trkpt lat="42.92692" lon="0.1825">
        <ele>1591</ele>
        <time>2019-06-23T08:47:28.035Z</time>
      </trkpt>
      <trkpt lat="42.92692" lon="0.1825">
        <ele>1592</ele>
        <time>2019-06-23T08:47:29.035Z</time>
      </trkpt>
      <trkpt lat="42.92692" lon="0.1825">
        <ele>1592</ele>
        <time>2019-06-23T08:47:30.035Z</time>
      </trkpt>
      <trkpt lat="42.92691" lon="0.18249">
        <ele>1592</ele>
        <time>2019-06-23T08:47:31.035Z</time>
      </trkpt>
      <trkpt lat="42.92691" lon="0.18249">
        <ele>1591</ele>
        <time>2019-06-23T08:47:32.035Z</time>
      </trkpt>
      <trkpt lat="42.9269" lon="0.18248">
        <ele>1591</ele>
        <time>2019-06-23T08:47:33.035Z</time>
      </trkpt>
      <trkpt lat="42.9269" lon="0.18248">
        <ele>1592</ele>
        <time>2019-06-23T08:47:34.035Z</time>
      </trkpt>
      <trkpt lat="42.9269" lon="0.18248">
        <ele>1592</ele>
        <time>2019-06-23T08:47:35.035Z</time>
      </trkpt>
      <trkpt lat="42.92689" lon="0.18248">
        <ele>1592</ele>
        <time>2019-06-23T08:47:36.035Z</time>
      </trkpt>
      <trkpt lat="42.92689" lon="0.18248">
        <ele>1592</ele>
        <time>2019-06-23T08:47:37.035Z</time>
      </trkpt>
      <trkpt lat="42.92688" lon="0.18248">
        <ele>1592</ele>
        <time>2019-06-23T08:47:38.035Z</time>
      </trkpt>
      <trkpt lat="42.92688" lon="0.18248">
        <ele>1592</ele>
        <time>2019-06-23T08:47:39.035Z</time>
      </trkpt>
      <trkpt lat="42.92688" lon="0.18249">
        <ele>1592</ele>
        <time>2019-06-23T08:47:40.035Z</time>
      </trkpt>
      <trkpt lat="42.92687" lon="0.18249">
        <ele>1592</ele>
        <time>2019-06-23T08:47:41.035Z</time>
      </trkpt>
      <trkpt lat="42.92687" lon="0.18249">
        <ele>1592</ele>
        <time>2019-06-23T08:47:42.035Z</time>
      </trkpt>
      <trkpt lat="42.92686" lon="0.18249">
        <ele>1592</ele>
        <time>2019-06-23T08:47:43.035Z</time>
      </trkpt>
      <trkpt lat="42.92686" lon="0.1825">
        <ele>1592</ele>
        <time>2019-06-23T08:47:44.035Z</time>
      </trkpt>
      <trkpt lat="42.92685" lon="0.1825">
        <ele>1592</ele>
        <time>2019-06-23T08:47:45.035Z</time>
      </trkpt>
      <trkpt lat="42.92684" lon="0.1825">
        <ele>1591</ele>
        <time>2019-06-23T08:47:46.035Z</time>
      </trkpt>
      <trkpt lat="42.92684" lon="0.1825">
        <ele>1591</ele>
        <time>2019-06-23T08:47:47.035Z</time>
      </trkpt>
      <trkpt lat="42.92684" lon="0.1825">
        <ele>1591</ele>
        <time>2019-06-23T08:47:48.035Z</time>
      </trkpt>
      <trkpt lat="42.92684" lon="0.1825">
        <ele>1591</ele>
        <time>2019-06-23T08:47:49.035Z</time>
      </trkpt>
      <trkpt lat="42.92684" lon="0.1825">
        <ele>1592</ele>
        <time>2019-06-23T08:47:50.035Z</time>
      </trkpt>
      <trkpt lat="42.92684" lon="0.18251">
        <ele>1592</ele>
        <time>2019-06-23T08:47:51.035Z</time>
      </trkpt>
      <trkpt lat="42.92684" lon="0.18251">
        <ele>1592</ele>
        <time>2019-06-23T08:47:52.035Z</time>
      </trkpt>
      <trkpt lat="42.92684" lon="0.18251">
        <ele>1592</ele>
        <time>2019-06-23T08:47:53.035Z</time>
      </trkpt>
      <trkpt lat="42.92684" lon="0.18251">
        <ele>1592</ele>
        <time>2019-06-23T08:47:54.035Z</time>
      </trkpt>
      <trkpt lat="42.92681" lon="0.18253">
        <ele>1589</ele>
        <time>2019-06-23T08:47:56.035Z</time>
      </trkpt>
      <trkpt lat="42.92681" lon="0.18252">
        <ele>1589</ele>
        <time>2019-06-23T08:47:57.035Z</time>
      </trkpt>
      <trkpt lat="42.92681" lon="0.18252">
        <ele>1589</ele>
        <time>2019-06-23T08:47:58.035Z</time>
      </trkpt>
      <trkpt lat="42.92681" lon="0.18252">
        <ele>1589</ele>
        <time>2019-06-23T08:47:59.035Z</time>
      </trkpt>
      <trkpt lat="42.92681" lon="0.18252">
        <ele>1589</ele>
        <time>2019-06-23T08:48:00.035Z</time>
      </trkpt>
      <trkpt lat="42.92679" lon="0.18253">
        <ele>1591</ele>
        <time>2019-06-23T08:48:01.047Z</time>
      </trkpt>
      <trkpt lat="42.92679" lon="0.18254">
        <ele>1592</ele>
        <time>2019-06-23T08:48:02.047Z</time>
      </trkpt>
      <trkpt lat="42.92678" lon="0.18254">
        <ele>1592</ele>
        <time>2019-06-23T08:48:03.047Z</time>
      </trkpt>
      <trkpt lat="42.92678" lon="0.18254">
        <ele>1592</ele>
        <time>2019-06-23T08:48:04.047Z</time>
      </trkpt>
      <trkpt lat="42.92677" lon="0.18254">
        <ele>1592</ele>
        <time>2019-06-23T08:48:05.047Z</time>
      </trkpt>
      <trkpt lat="42.92677" lon="0.18254">
        <ele>1592</ele>
        <time>2019-06-23T08:48:06.047Z</time>
      </trkpt>
      <trkpt lat="42.92676" lon="0.18255">
        <ele>1592</ele>
        <time>2019-06-23T08:48:07.047Z</time>
      </trkpt>
      <trkpt lat="42.92676" lon="0.18255">
        <ele>1592</ele>
        <time>2019-06-23T08:48:08.047Z</time>
      </trkpt>
      <trkpt lat="42.92675" lon="0.18256">
        <ele>1593</ele>
        <time>2019-06-23T08:48:09.047Z</time>
      </trkpt>
      <trkpt lat="42.92675" lon="0.18256">
        <ele>1593</ele>
        <time>2019-06-23T08:48:10.047Z</time>
      </trkpt>
      <trkpt lat="42.92674" lon="0.18257">
        <ele>1594</ele>
        <time>2019-06-23T08:48:11.047Z</time>
      </trkpt>
      <trkpt lat="42.92674" lon="0.18257">
        <ele>1594</ele>
        <time>2019-06-23T08:48:12.047Z</time>
      </trkpt>
      <trkpt lat="42.92674" lon="0.18258">
        <ele>1594</ele>
        <time>2019-06-23T08:48:13.047Z</time>
      </trkpt>
      <trkpt lat="42.92673" lon="0.18258">
        <ele>1595</ele>
        <time>2019-06-23T08:48:14.047Z</time>
      </trkpt>
      <trkpt lat="42.92673" lon="0.18258">
        <ele>1595</ele>
        <time>2019-06-23T08:48:15.047Z</time>
      </trkpt>
      <trkpt lat="42.92672" lon="0.18258">
        <ele>1595</ele>
        <time>2019-06-23T08:48:16.047Z</time>
      </trkpt>
      <trkpt lat="42.92672" lon="0.18258">
        <ele>1596</ele>
        <time>2019-06-23T08:48:17.047Z</time>
      </trkpt>
      <trkpt lat="42.92671" lon="0.18259">
        <ele>1596</ele>
        <time>2019-06-23T08:48:18.047Z</time>
      </trkpt>
      <trkpt lat="42.9267" lon="0.18259">
        <ele>1597</ele>
        <time>2019-06-23T08:48:19.047Z</time>
      </trkpt>
      <trkpt lat="42.9267" lon="0.18259">
        <ele>1597</ele>
        <time>2019-06-23T08:48:20.047Z</time>
      </trkpt>
      <trkpt lat="42.92669" lon="0.1826">
        <ele>1597</ele>
        <time>2019-06-23T08:48:21.047Z</time>
      </trkpt>
      <trkpt lat="42.92669" lon="0.1826">
        <ele>1598</ele>
        <time>2019-06-23T08:48:22.047Z</time>
      </trkpt>
      <trkpt lat="42.92668" lon="0.1826">
        <ele>1598</ele>
        <time>2019-06-23T08:48:23.047Z</time>
      </trkpt>
      <trkpt lat="42.92668" lon="0.18261">
        <ele>1598</ele>
        <time>2019-06-23T08:48:24.047Z</time>
      </trkpt>
      <trkpt lat="42.92668" lon="0.18261">
        <ele>1598</ele>
        <time>2019-06-23T08:48:25.047Z</time>
      </trkpt>
      <trkpt lat="42.92667" lon="0.18261">
        <ele>1598</ele>
        <time>2019-06-23T08:48:26.047Z</time>
      </trkpt>
      <trkpt lat="42.92667" lon="0.18262">
        <ele>1599</ele>
        <time>2019-06-23T08:48:27.047Z</time>
      </trkpt>
      <trkpt lat="42.92666" lon="0.18262">
        <ele>1598</ele>
        <time>2019-06-23T08:48:28.047Z</time>
      </trkpt>
      <trkpt lat="42.92666" lon="0.18263">
        <ele>1598</ele>
        <time>2019-06-23T08:48:29.047Z</time>
      </trkpt>
      <trkpt lat="42.92665" lon="0.18263">
        <ele>1598</ele>
        <time>2019-06-23T08:48:30.047Z</time>
      </trkpt>
      <trkpt lat="42.92664" lon="0.18264">
        <ele>1598</ele>
        <time>2019-06-23T08:48:31.047Z</time>
      </trkpt>
      <trkpt lat="42.92664" lon="0.18264">
        <ele>1598</ele>
        <time>2019-06-23T08:48:32.047Z</time>
      </trkpt>
      <trkpt lat="42.92663" lon="0.18265">
        <ele>1598</ele>
        <time>2019-06-23T08:48:33.047Z</time>
      </trkpt>
      <trkpt lat="42.92662" lon="0.18265">
        <ele>1598</ele>
        <time>2019-06-23T08:48:34.047Z</time>
      </trkpt>
      <trkpt lat="42.92662" lon="0.18265">
        <ele>1598</ele>
        <time>2019-06-23T08:48:35.047Z</time>
      </trkpt>
      <trkpt lat="42.92661" lon="0.18265">
        <ele>1599</ele>
        <time>2019-06-23T08:48:36.047Z</time>
      </trkpt>
      <trkpt lat="42.92661" lon="0.18265">
        <ele>1599</ele>
        <time>2019-06-23T08:48:37.047Z</time>
      </trkpt>
      <trkpt lat="42.9266" lon="0.18266">
        <ele>1599</ele>
        <time>2019-06-23T08:48:38.047Z</time>
      </trkpt>
      <trkpt lat="42.92659" lon="0.18266">
        <ele>1599</ele>
        <time>2019-06-23T08:48:39.047Z</time>
      </trkpt>
      <trkpt lat="42.92659" lon="0.18266">
        <ele>1599</ele>
        <time>2019-06-23T08:48:40.047Z</time>
      </trkpt>
      <trkpt lat="42.92658" lon="0.18266">
        <ele>1599</ele>
        <time>2019-06-23T08:48:41.047Z</time>
      </trkpt>
      <trkpt lat="42.92658" lon="0.18266">
        <ele>1600</ele>
        <time>2019-06-23T08:48:42.047Z</time>
      </trkpt>
      <trkpt lat="42.92657" lon="0.18267">
        <ele>1600</ele>
        <time>2019-06-23T08:48:43.047Z</time>
      </trkpt>
      <trkpt lat="42.92657" lon="0.18267">
        <ele>1600</ele>
        <time>2019-06-23T08:48:44.047Z</time>
      </trkpt>
      <trkpt lat="42.92657" lon="0.18267">
        <ele>1600</ele>
        <time>2019-06-23T08:48:45.047Z</time>
      </trkpt>
      <trkpt lat="42.92656" lon="0.18268">
        <ele>1601</ele>
        <time>2019-06-23T08:48:46.047Z</time>
      </trkpt>
      <trkpt lat="42.92656" lon="0.18268">
        <ele>1601</ele>
        <time>2019-06-23T08:48:47.047Z</time>
      </trkpt>
      <trkpt lat="42.92655" lon="0.18268">
        <ele>1601</ele>
        <time>2019-06-23T08:48:48.047Z</time>
      </trkpt>
      <trkpt lat="42.92655" lon="0.18268">
        <ele>1601</ele>
        <time>2019-06-23T08:48:49.047Z</time>
      </trkpt>
      <trkpt lat="42.92655" lon="0.18268">
        <ele>1601</ele>
        <time>2019-06-23T08:48:50.047Z</time>
      </trkpt>
      <trkpt lat="42.92654" lon="0.18268">
        <ele>1601</ele>
        <time>2019-06-23T08:48:51.047Z</time>
      </trkpt>
      <trkpt lat="42.92654" lon="0.18268">
        <ele>1601</ele>
        <time>2019-06-23T08:48:52.047Z</time>
      </trkpt>
      <trkpt lat="42.92653" lon="0.18268">
        <ele>1601</ele>
        <time>2019-06-23T08:48:53.047Z</time>
      </trkpt>
      <trkpt lat="42.92652" lon="0.18268">
        <ele>1601</ele>
        <time>2019-06-23T08:48:54.047Z</time>
      </trkpt>
      <trkpt lat="42.92652" lon="0.18269">
        <ele>1602</ele>
        <time>2019-06-23T08:48:55.047Z</time>
      </trkpt>
      <trkpt lat="42.92651" lon="0.18269">
        <ele>1602</ele>
        <time>2019-06-23T08:48:56.047Z</time>
      </trkpt>
      <trkpt lat="42.92651" lon="0.18269">
        <ele>1602</ele>
        <time>2019-06-23T08:48:57.047Z</time>
      </trkpt>
      <trkpt lat="42.9265" lon="0.18269">
        <ele>1602</ele>
        <time>2019-06-23T08:48:58.047Z</time>
      </trkpt>
      <trkpt lat="42.9265" lon="0.18269">
        <ele>1602</ele>
        <time>2019-06-23T08:48:59.047Z</time>
      </trkpt>
      <trkpt lat="42.92649" lon="0.18269">
        <ele>1603</ele>
        <time>2019-06-23T08:49:00.047Z</time>
      </trkpt>
      <trkpt lat="42.92648" lon="0.18269">
        <ele>1603</ele>
        <time>2019-06-23T08:49:01.047Z</time>
      </trkpt>
      <trkpt lat="42.92648" lon="0.1827">
        <ele>1603</ele>
        <time>2019-06-23T08:49:02.047Z</time>
      </trkpt>
      <trkpt lat="42.92648" lon="0.1827">
        <ele>1603</ele>
        <time>2019-06-23T08:49:03.047Z</time>
      </trkpt>
      <trkpt lat="42.92647" lon="0.1827">
        <ele>1603</ele>
        <time>2019-06-23T08:49:04.047Z</time>
      </trkpt>
      <trkpt lat="42.92647" lon="0.1827">
        <ele>1603</ele>
        <time>2019-06-23T08:49:05.047Z</time>
      </trkpt>
      <trkpt lat="42.92646" lon="0.1827">
        <ele>1603</ele>
        <time>2019-06-23T08:49:06.047Z</time>
      </trkpt>
      <trkpt lat="42.92646" lon="0.1827">
        <ele>1602</ele>
        <time>2019-06-23T08:49:07.047Z</time>
      </trkpt>
      <trkpt lat="42.92646" lon="0.1827">
        <ele>1603</ele>
        <time>2019-06-23T08:49:08.047Z</time>
      </trkpt>
      <trkpt lat="42.92646" lon="0.18269">
        <ele>1602</ele>
        <time>2019-06-23T08:49:09.047Z</time>
      </trkpt>
      <trkpt lat="42.92645" lon="0.18269">
        <ele>1601</ele>
        <time>2019-06-23T08:49:10.047Z</time>
      </trkpt>
      <trkpt lat="42.92645" lon="0.18269">
        <ele>1601</ele>
        <time>2019-06-23T08:49:11.047Z</time>
      </trkpt>
      <trkpt lat="42.92645" lon="0.18269">
        <ele>1601</ele>
        <time>2019-06-23T08:49:12.047Z</time>
      </trkpt>
      <trkpt lat="42.92645" lon="0.18269">
        <ele>1601</ele>
        <time>2019-06-23T08:49:13.047Z</time>
      </trkpt>
      <trkpt lat="42.92645" lon="0.18269">
        <ele>1601</ele>
        <time>2019-06-23T08:49:14.047Z</time>
      </trkpt>
      <trkpt lat="42.92645" lon="0.18269">
        <ele>1601</ele>
        <time>2019-06-23T08:49:15.047Z</time>
      </trkpt>
      <trkpt lat="42.92644" lon="0.1827">
        <ele>1601</ele>
        <time>2019-06-23T08:49:16.047Z</time>
      </trkpt>
      <trkpt lat="42.92644" lon="0.1827">
        <ele>1601</ele>
        <time>2019-06-23T08:49:17.047Z</time>
      </trkpt>
      <trkpt lat="42.92643" lon="0.1827">
        <ele>1601</ele>
        <time>2019-06-23T08:49:18.047Z</time>
      </trkpt>
      <trkpt lat="42.92643" lon="0.1827">
        <ele>1601</ele>
        <time>2019-06-23T08:49:19.047Z</time>
      </trkpt>
      <trkpt lat="42.92642" lon="0.18271">
        <ele>1601</ele>
        <time>2019-06-23T08:49:20.047Z</time>
      </trkpt>
      <trkpt lat="42.92642" lon="0.18271">
        <ele>1601</ele>
        <time>2019-06-23T08:49:21.047Z</time>
      </trkpt>
      <trkpt lat="42.92641" lon="0.18271">
        <ele>1601</ele>
        <time>2019-06-23T08:49:22.047Z</time>
      </trkpt>
      <trkpt lat="42.9264" lon="0.18272">
        <ele>1601</ele>
        <time>2019-06-23T08:49:23.047Z</time>
      </trkpt>
      <trkpt lat="42.9264" lon="0.18272">
        <ele>1601</ele>
        <time>2019-06-23T08:49:24.047Z</time>
      </trkpt>
      <trkpt lat="42.9264" lon="0.18272">
        <ele>1601</ele>
        <time>2019-06-23T08:49:25.047Z</time>
      </trkpt>
      <trkpt lat="42.9264" lon="0.18273">
        <ele>1601</ele>
        <time>2019-06-23T08:49:26.047Z</time>
      </trkpt>
      <trkpt lat="42.9264" lon="0.18273">
        <ele>1601</ele>
        <time>2019-06-23T08:49:27.047Z</time>
      </trkpt>
      <trkpt lat="42.92639" lon="0.18273">
        <ele>1602</ele>
        <time>2019-06-23T08:49:28.047Z</time>
      </trkpt>
      <trkpt lat="42.92639" lon="0.18274">
        <ele>1602</ele>
        <time>2019-06-23T08:49:29.047Z</time>
      </trkpt>
      <trkpt lat="42.92639" lon="0.18274">
        <ele>1602</ele>
        <time>2019-06-23T08:49:30.047Z</time>
      </trkpt>
      <trkpt lat="42.92639" lon="0.18275">
        <ele>1603</ele>
        <time>2019-06-23T08:49:31.047Z</time>
      </trkpt>
      <trkpt lat="42.92638" lon="0.18275">
        <ele>1603</ele>
        <time>2019-06-23T08:49:32.047Z</time>
      </trkpt>
      <trkpt lat="42.92638" lon="0.18275">
        <ele>1602</ele>
        <time>2019-06-23T08:49:33.047Z</time>
      </trkpt>
      <trkpt lat="42.92637" lon="0.18275">
        <ele>1603</ele>
        <time>2019-06-23T08:49:34.047Z</time>
      </trkpt>
      <trkpt lat="42.92637" lon="0.18276">
        <ele>1603</ele>
        <time>2019-06-23T08:49:35.047Z</time>
      </trkpt>
      <trkpt lat="42.92636" lon="0.18276">
        <ele>1603</ele>
        <time>2019-06-23T08:49:36.047Z</time>
      </trkpt>
      <trkpt lat="42.92636" lon="0.18276">
        <ele>1604</ele>
        <time>2019-06-23T08:49:37.047Z</time>
      </trkpt>
      <trkpt lat="42.92636" lon="0.18277">
        <ele>1604</ele>
        <time>2019-06-23T08:49:38.047Z</time>
      </trkpt>
      <trkpt lat="42.92635" lon="0.18277">
        <ele>1604</ele>
        <time>2019-06-23T08:49:39.047Z</time>
      </trkpt>
      <trkpt lat="42.92635" lon="0.18277">
        <ele>1604</ele>
        <time>2019-06-23T08:49:40.047Z</time>
      </trkpt>
      <trkpt lat="42.92635" lon="0.18278">
        <ele>1604</ele>
        <time>2019-06-23T08:49:41.047Z</time>
      </trkpt>
      <trkpt lat="42.92634" lon="0.18278">
        <ele>1604</ele>
        <time>2019-06-23T08:49:42.047Z</time>
      </trkpt>
      <trkpt lat="42.92634" lon="0.18279">
        <ele>1604</ele>
        <time>2019-06-23T08:49:43.047Z</time>
      </trkpt>
      <trkpt lat="42.92633" lon="0.18279">
        <ele>1604</ele>
        <time>2019-06-23T08:49:44.047Z</time>
      </trkpt>
      <trkpt lat="42.92633" lon="0.18279">
        <ele>1604</ele>
        <time>2019-06-23T08:49:45.047Z</time>
      </trkpt>
      <trkpt lat="42.92632" lon="0.18279">
        <ele>1604</ele>
        <time>2019-06-23T08:49:46.047Z</time>
      </trkpt>
      <trkpt lat="42.92632" lon="0.18279">
        <ele>1604</ele>
        <time>2019-06-23T08:49:47.047Z</time>
      </trkpt>
      <trkpt lat="42.92631" lon="0.1828">
        <ele>1604</ele>
        <time>2019-06-23T08:49:48.047Z</time>
      </trkpt>
      <trkpt lat="42.92631" lon="0.1828">
        <ele>1604</ele>
        <time>2019-06-23T08:49:49.047Z</time>
      </trkpt>
      <trkpt lat="42.92631" lon="0.1828">
        <ele>1605</ele>
        <time>2019-06-23T08:49:50.047Z</time>
      </trkpt>
      <trkpt lat="42.9263" lon="0.18281">
        <ele>1605</ele>
        <time>2019-06-23T08:49:51.047Z</time>
      </trkpt>
      <trkpt lat="42.9263" lon="0.18281">
        <ele>1605</ele>
        <time>2019-06-23T08:49:52.047Z</time>
      </trkpt>
      <trkpt lat="42.9263" lon="0.18281">
        <ele>1605</ele>
        <time>2019-06-23T08:49:53.047Z</time>
      </trkpt>
      <trkpt lat="42.92629" lon="0.18282">
        <ele>1605</ele>
        <time>2019-06-23T08:49:54.047Z</time>
      </trkpt>
      <trkpt lat="42.92629" lon="0.18282">
        <ele>1605</ele>
        <time>2019-06-23T08:49:55.047Z</time>
      </trkpt>
      <trkpt lat="42.92629" lon="0.18283">
        <ele>1606</ele>
        <time>2019-06-23T08:49:56.047Z</time>
      </trkpt>
      <trkpt lat="42.92628" lon="0.18283">
        <ele>1606</ele>
        <time>2019-06-23T08:49:57.047Z</time>
      </trkpt>
      <trkpt lat="42.92628" lon="0.18283">
        <ele>1606</ele>
        <time>2019-06-23T08:49:58.047Z</time>
      </trkpt>
      <trkpt lat="42.92628" lon="0.18283">
        <ele>1605</ele>
        <time>2019-06-23T08:49:59.047Z</time>
      </trkpt>
      <trkpt lat="42.92628" lon="0.18283">
        <ele>1605</ele>
        <time>2019-06-23T08:50:00.047Z</time>
      </trkpt>
      <trkpt lat="42.92628" lon="0.18283">
        <ele>1606</ele>
        <time>2019-06-23T08:50:01.047Z</time>
      </trkpt>
      <trkpt lat="42.92628" lon="0.18283">
        <ele>1606</ele>
        <time>2019-06-23T08:50:02.047Z</time>
      </trkpt>
      <trkpt lat="42.92627" lon="0.18284">
        <ele>1606</ele>
        <time>2019-06-23T08:50:03.047Z</time>
      </trkpt>
      <trkpt lat="42.92627" lon="0.18284">
        <ele>1607</ele>
        <time>2019-06-23T08:50:04.047Z</time>
      </trkpt>
      <trkpt lat="42.92627" lon="0.18284">
        <ele>1607</ele>
        <time>2019-06-23T08:50:05.047Z</time>
      </trkpt>
      <trkpt lat="42.92627" lon="0.18285">
        <ele>1607</ele>
        <time>2019-06-23T08:50:06.047Z</time>
      </trkpt>
      <trkpt lat="42.92626" lon="0.18285">
        <ele>1607</ele>
        <time>2019-06-23T08:50:07.047Z</time>
      </trkpt>
      <trkpt lat="42.92626" lon="0.18285">
        <ele>1607</ele>
        <time>2019-06-23T08:50:08.047Z</time>
      </trkpt>
      <trkpt lat="42.92626" lon="0.18285">
        <ele>1607</ele>
        <time>2019-06-23T08:50:09.047Z</time>
      </trkpt>
      <trkpt lat="42.92626" lon="0.18285">
        <ele>1607</ele>
        <time>2019-06-23T08:50:10.047Z</time>
      </trkpt>
      <trkpt lat="42.92625" lon="0.18286">
        <ele>1607</ele>
        <time>2019-06-23T08:50:11.047Z</time>
      </trkpt>
      <trkpt lat="42.9262" lon="0.18292">
        <ele>1611</ele>
        <time>2019-06-23T08:50:12.059Z</time>
      </trkpt>
      <trkpt lat="42.9262" lon="0.18293">
        <ele>1611</ele>
        <time>2019-06-23T08:50:13.059Z</time>
      </trkpt>
      <trkpt lat="42.92619" lon="0.18293">
        <ele>1611</ele>
        <time>2019-06-23T08:50:14.059Z</time>
      </trkpt>
      <trkpt lat="42.92619" lon="0.18293">
        <ele>1611</ele>
        <time>2019-06-23T08:50:15.059Z</time>
      </trkpt>
      <trkpt lat="42.92618" lon="0.18294">
        <ele>1611</ele>
        <time>2019-06-23T08:50:16.059Z</time>
      </trkpt>
      <trkpt lat="42.92617" lon="0.18294">
        <ele>1611</ele>
        <time>2019-06-23T08:50:17.059Z</time>
      </trkpt>
      <trkpt lat="42.92617" lon="0.18294">
        <ele>1611</ele>
        <time>2019-06-23T08:50:18.059Z</time>
      </trkpt>
      <trkpt lat="42.92617" lon="0.18294">
        <ele>1611</ele>
        <time>2019-06-23T08:50:19.059Z</time>
      </trkpt>
      <trkpt lat="42.92617" lon="0.18294">
        <ele>1611</ele>
        <time>2019-06-23T08:50:20.059Z</time>
      </trkpt>
      <trkpt lat="42.92617" lon="0.18294">
        <ele>1610</ele>
        <time>2019-06-23T08:50:21.059Z</time>
      </trkpt>
      <trkpt lat="42.92617" lon="0.18295">
        <ele>1611</ele>
        <time>2019-06-23T08:50:22.059Z</time>
      </trkpt>
      <trkpt lat="42.92616" lon="0.18295">
        <ele>1611</ele>
        <time>2019-06-23T08:50:23.059Z</time>
      </trkpt>
      <trkpt lat="42.92616" lon="0.18295">
        <ele>1610</ele>
        <time>2019-06-23T08:50:24.059Z</time>
      </trkpt>
      <trkpt lat="42.92616" lon="0.18295">
        <ele>1610</ele>
        <time>2019-06-23T08:50:25.059Z</time>
      </trkpt>
      <trkpt lat="42.92615" lon="0.18295">
        <ele>1610</ele>
        <time>2019-06-23T08:50:26.059Z</time>
      </trkpt>
      <trkpt lat="42.92614" lon="0.18302">
        <ele>1613</ele>
        <time>2019-06-23T08:50:27.067Z</time>
      </trkpt>
      <trkpt lat="42.92615" lon="0.18302">
        <ele>1613</ele>
        <time>2019-06-23T08:50:28.067Z</time>
      </trkpt>
      <trkpt lat="42.92615" lon="0.18302">
        <ele>1613</ele>
        <time>2019-06-23T08:50:29.067Z</time>
      </trkpt>
      <trkpt lat="42.92615" lon="0.18302">
        <ele>1614</ele>
        <time>2019-06-23T08:50:30.067Z</time>
      </trkpt>
      <trkpt lat="42.92615" lon="0.18302">
        <ele>1614</ele>
        <time>2019-06-23T08:50:31.067Z</time>
      </trkpt>
      <trkpt lat="42.92616" lon="0.18303">
        <ele>1614</ele>
        <time>2019-06-23T08:50:32.067Z</time>
      </trkpt>
      <trkpt lat="42.92609" lon="0.1831">
        <ele>1617</ele>
        <time>2019-06-23T08:50:33.075Z</time>
      </trkpt>
      <trkpt lat="42.92609" lon="0.1831">
        <ele>1617</ele>
        <time>2019-06-23T08:50:34.075Z</time>
      </trkpt>
      <trkpt lat="42.92609" lon="0.1831">
        <ele>1617</ele>
        <time>2019-06-23T08:50:35.075Z</time>
      </trkpt>
      <trkpt lat="42.92609" lon="0.18311">
        <ele>1618</ele>
        <time>2019-06-23T08:50:36.075Z</time>
      </trkpt>
      <trkpt lat="42.92609" lon="0.18312">
        <ele>1618</ele>
        <time>2019-06-23T08:50:37.075Z</time>
      </trkpt>
      <trkpt lat="42.92609" lon="0.18312">
        <ele>1617</ele>
        <time>2019-06-23T08:50:38.075Z</time>
      </trkpt>
      <trkpt lat="42.9261" lon="0.18312">
        <ele>1617</ele>
        <time>2019-06-23T08:50:39.075Z</time>
      </trkpt>
      <trkpt lat="42.9261" lon="0.18312">
        <ele>1617</ele>
        <time>2019-06-23T08:50:40.075Z</time>
      </trkpt>
      <trkpt lat="42.9261" lon="0.18312">
        <ele>1617</ele>
        <time>2019-06-23T08:50:41.075Z</time>
      </trkpt>
      <trkpt lat="42.9261" lon="0.18313">
        <ele>1617</ele>
        <time>2019-06-23T08:50:42.075Z</time>
      </trkpt>
      <trkpt lat="42.9261" lon="0.18313">
        <ele>1617</ele>
        <time>2019-06-23T08:50:43.075Z</time>
      </trkpt>
      <trkpt lat="42.92605" lon="0.18317">
        <ele>1617</ele>
        <time>2019-06-23T08:50:44.083Z</time>
      </trkpt>
      <trkpt lat="42.92604" lon="0.18318">
        <ele>1617</ele>
        <time>2019-06-23T08:50:45.083Z</time>
      </trkpt>
      <trkpt lat="42.92604" lon="0.18318">
        <ele>1617</ele>
        <time>2019-06-23T08:50:46.083Z</time>
      </trkpt>
      <trkpt lat="42.92603" lon="0.18319">
        <ele>1617</ele>
        <time>2019-06-23T08:50:47.083Z</time>
      </trkpt>
      <trkpt lat="42.92603" lon="0.18319">
        <ele>1617</ele>
        <time>2019-06-23T08:50:48.083Z</time>
      </trkpt>
      <trkpt lat="42.92602" lon="0.1832">
        <ele>1617</ele>
        <time>2019-06-23T08:50:49.083Z</time>
      </trkpt>
      <trkpt lat="42.92602" lon="0.1832">
        <ele>1617</ele>
        <time>2019-06-23T08:50:50.083Z</time>
      </trkpt>
      <trkpt lat="42.92602" lon="0.18321">
        <ele>1617</ele>
        <time>2019-06-23T08:50:51.083Z</time>
      </trkpt>
      <trkpt lat="42.92601" lon="0.18322">
        <ele>1617</ele>
        <time>2019-06-23T08:50:52.083Z</time>
      </trkpt>
      <trkpt lat="42.92601" lon="0.18322">
        <ele>1617</ele>
        <time>2019-06-23T08:50:53.083Z</time>
      </trkpt>
      <trkpt lat="42.92601" lon="0.18322">
        <ele>1617</ele>
        <time>2019-06-23T08:50:54.083Z</time>
      </trkpt>
      <trkpt lat="42.92601" lon="0.18323">
        <ele>1617</ele>
        <time>2019-06-23T08:50:55.083Z</time>
      </trkpt>
      <trkpt lat="42.926" lon="0.18324">
        <ele>1617</ele>
        <time>2019-06-23T08:50:56.083Z</time>
      </trkpt>
      <trkpt lat="42.926" lon="0.18324">
        <ele>1617</ele>
        <time>2019-06-23T08:50:57.083Z</time>
      </trkpt>
      <trkpt lat="42.926" lon="0.18324">
        <ele>1617</ele>
        <time>2019-06-23T08:50:58.083Z</time>
      </trkpt>
      <trkpt lat="42.926" lon="0.18325">
        <ele>1618</ele>
        <time>2019-06-23T08:50:59.083Z</time>
      </trkpt>
      <trkpt lat="42.92599" lon="0.18326">
        <ele>1619</ele>
        <time>2019-06-23T08:51:00.083Z</time>
      </trkpt>
      <trkpt lat="42.92599" lon="0.18327">
        <ele>1619</ele>
        <time>2019-06-23T08:51:01.083Z</time>
      </trkpt>
      <trkpt lat="42.92599" lon="0.18327">
        <ele>1619</ele>
        <time>2019-06-23T08:51:02.083Z</time>
      </trkpt>
      <trkpt lat="42.92599" lon="0.18328">
        <ele>1619</ele>
        <time>2019-06-23T08:51:03.083Z</time>
      </trkpt>
      <trkpt lat="42.92599" lon="0.18328">
        <ele>1619</ele>
        <time>2019-06-23T08:51:04.083Z</time>
      </trkpt>
      <trkpt lat="42.92598" lon="0.18328">
        <ele>1620</ele>
        <time>2019-06-23T08:51:05.083Z</time>
      </trkpt>
      <trkpt lat="42.92598" lon="0.18329">
        <ele>1620</ele>
        <time>2019-06-23T08:51:06.083Z</time>
      </trkpt>
      <trkpt lat="42.92598" lon="0.18329">
        <ele>1620</ele>
        <time>2019-06-23T08:51:07.083Z</time>
      </trkpt>
      <trkpt lat="42.92597" lon="0.18329">
        <ele>1620</ele>
        <time>2019-06-23T08:51:08.083Z</time>
      </trkpt>
      <trkpt lat="42.92597" lon="0.18329">
        <ele>1620</ele>
        <time>2019-06-23T08:51:09.083Z</time>
      </trkpt>
      <trkpt lat="42.92596" lon="0.18329">
        <ele>1620</ele>
        <time>2019-06-23T08:51:10.083Z</time>
      </trkpt>
      <trkpt lat="42.92596" lon="0.18329">
        <ele>1620</ele>
        <time>2019-06-23T08:51:11.083Z</time>
      </trkpt>
      <trkpt lat="42.92596" lon="0.18329">
        <ele>1620</ele>
        <time>2019-06-23T08:51:12.083Z</time>
      </trkpt>
      <trkpt lat="42.92596" lon="0.1833">
        <ele>1620</ele>
        <time>2019-06-23T08:51:13.083Z</time>
      </trkpt>
      <trkpt lat="42.92589" lon="0.18335">
        <ele>1621</ele>
        <time>2019-06-23T08:51:14.091Z</time>
      </trkpt>
      <trkpt lat="42.92588" lon="0.18335">
        <ele>1621</ele>
        <time>2019-06-23T08:51:15.091Z</time>
      </trkpt>
      <trkpt lat="42.92588" lon="0.18335">
        <ele>1621</ele>
        <time>2019-06-23T08:51:16.091Z</time>
      </trkpt>
      <trkpt lat="42.92587" lon="0.18335">
        <ele>1621</ele>
        <time>2019-06-23T08:51:17.091Z</time>
      </trkpt>
      <trkpt lat="42.92587" lon="0.18336">
        <ele>1621</ele>
        <time>2019-06-23T08:51:18.091Z</time>
      </trkpt>
      <trkpt lat="42.92586" lon="0.18336">
        <ele>1622</ele>
        <time>2019-06-23T08:51:19.091Z</time>
      </trkpt>
      <trkpt lat="42.92586" lon="0.18337">
        <ele>1621</ele>
        <time>2019-06-23T08:51:20.091Z</time>
      </trkpt>
      <trkpt lat="42.92586" lon="0.18337">
        <ele>1621</ele>
        <time>2019-06-23T08:51:21.091Z</time>
      </trkpt>
      <trkpt lat="42.92585" lon="0.18338">
        <ele>1622</ele>
        <time>2019-06-23T08:51:22.091Z</time>
      </trkpt>
      <trkpt lat="42.92585" lon="0.18339">
        <ele>1622</ele>
        <time>2019-06-23T08:51:23.091Z</time>
      </trkpt>
      <trkpt lat="42.92584" lon="0.18339">
        <ele>1622</ele>
        <time>2019-06-23T08:51:24.091Z</time>
      </trkpt>
      <trkpt lat="42.92584" lon="0.1834">
        <ele>1622</ele>
        <time>2019-06-23T08:51:25.091Z</time>
      </trkpt>
      <trkpt lat="42.92584" lon="0.18341">
        <ele>1623</ele>
        <time>2019-06-23T08:51:26.091Z</time>
      </trkpt>
      <trkpt lat="42.92584" lon="0.18341">
        <ele>1623</ele>
        <time>2019-06-23T08:51:27.091Z</time>
      </trkpt>
      <trkpt lat="42.92584" lon="0.18341">
        <ele>1623</ele>
        <time>2019-06-23T08:51:28.091Z</time>
      </trkpt>
      <trkpt lat="42.92584" lon="0.18341">
        <ele>1622</ele>
        <time>2019-06-23T08:51:29.091Z</time>
      </trkpt>
      <trkpt lat="42.92584" lon="0.18341">
        <ele>1622</ele>
        <time>2019-06-23T08:51:30.091Z</time>
      </trkpt>
      <trkpt lat="42.92584" lon="0.18341">
        <ele>1622</ele>
        <time>2019-06-23T08:51:31.091Z</time>
      </trkpt>
      <trkpt lat="42.92584" lon="0.18342">
        <ele>1622</ele>
        <time>2019-06-23T08:51:32.091Z</time>
      </trkpt>
      <trkpt lat="42.92583" lon="0.18342">
        <ele>1622</ele>
        <time>2019-06-23T08:51:33.091Z</time>
      </trkpt>
      <trkpt lat="42.92583" lon="0.18342">
        <ele>1622</ele>
        <time>2019-06-23T08:51:34.091Z</time>
      </trkpt>
      <trkpt lat="42.92583" lon="0.18343">
        <ele>1623</ele>
        <time>2019-06-23T08:51:35.091Z</time>
      </trkpt>
      <trkpt lat="42.92582" lon="0.18343">
        <ele>1623</ele>
        <time>2019-06-23T08:51:36.091Z</time>
      </trkpt>
      <trkpt lat="42.92582" lon="0.18344">
        <ele>1623</ele>
        <time>2019-06-23T08:51:37.091Z</time>
      </trkpt>
      <trkpt lat="42.92582" lon="0.18344">
        <ele>1623</ele>
        <time>2019-06-23T08:51:38.091Z</time>
      </trkpt>
      <trkpt lat="42.92581" lon="0.18344">
        <ele>1623</ele>
        <time>2019-06-23T08:51:39.091Z</time>
      </trkpt>
      <trkpt lat="42.92581" lon="0.18345">
        <ele>1623</ele>
        <time>2019-06-23T08:51:40.091Z</time>
      </trkpt>
      <trkpt lat="42.9258" lon="0.18345">
        <ele>1623</ele>
        <time>2019-06-23T08:51:41.091Z</time>
      </trkpt>
      <trkpt lat="42.92579" lon="0.18345">
        <ele>1624</ele>
        <time>2019-06-23T08:51:42.091Z</time>
      </trkpt>
      <trkpt lat="42.92579" lon="0.18346">
        <ele>1623</ele>
        <time>2019-06-23T08:51:43.091Z</time>
      </trkpt>
      <trkpt lat="42.92578" lon="0.18346">
        <ele>1624</ele>
        <time>2019-06-23T08:51:44.091Z</time>
      </trkpt>
      <trkpt lat="42.92578" lon="0.18346">
        <ele>1623</ele>
        <time>2019-06-23T08:51:45.091Z</time>
      </trkpt>
      <trkpt lat="42.92578" lon="0.18347">
        <ele>1623</ele>
        <time>2019-06-23T08:51:46.091Z</time>
      </trkpt>
      <trkpt lat="42.92577" lon="0.18347">
        <ele>1623</ele>
        <time>2019-06-23T08:51:47.091Z</time>
      </trkpt>
      <trkpt lat="42.92576" lon="0.18347">
        <ele>1623</ele>
        <time>2019-06-23T08:51:48.091Z</time>
      </trkpt>
      <trkpt lat="42.92576" lon="0.18347">
        <ele>1623</ele>
        <time>2019-06-23T08:51:49.091Z</time>
      </trkpt>
      <trkpt lat="42.92575" lon="0.18348">
        <ele>1624</ele>
        <time>2019-06-23T08:51:50.091Z</time>
      </trkpt>
      <trkpt lat="42.92575" lon="0.18348">
        <ele>1623</ele>
        <time>2019-06-23T08:51:51.091Z</time>
      </trkpt>
      <trkpt lat="42.92575" lon="0.18348">
        <ele>1623</ele>
        <time>2019-06-23T08:51:52.091Z</time>
      </trkpt>
      <trkpt lat="42.92575" lon="0.18349">
        <ele>1624</ele>
        <time>2019-06-23T08:51:53.091Z</time>
      </trkpt>
      <trkpt lat="42.92575" lon="0.18349">
        <ele>1624</ele>
        <time>2019-06-23T08:51:54.091Z</time>
      </trkpt>
      <trkpt lat="42.92574" lon="0.18349">
        <ele>1624</ele>
        <time>2019-06-23T08:51:55.091Z</time>
      </trkpt>
      <trkpt lat="42.92574" lon="0.18349">
        <ele>1624</ele>
        <time>2019-06-23T08:51:56.091Z</time>
      </trkpt>
      <trkpt lat="42.9257" lon="0.18353">
        <ele>1624</ele>
        <time>2019-06-23T08:51:57.099Z</time>
      </trkpt>
      <trkpt lat="42.9257" lon="0.18353">
        <ele>1624</ele>
        <time>2019-06-23T08:51:58.099Z</time>
      </trkpt>
      <trkpt lat="42.9257" lon="0.18353">
        <ele>1624</ele>
        <time>2019-06-23T08:51:59.099Z</time>
      </trkpt>
      <trkpt lat="42.9257" lon="0.18352">
        <ele>1624</ele>
        <time>2019-06-23T08:52:00.099Z</time>
      </trkpt>
      <trkpt lat="42.9257" lon="0.18352">
        <ele>1624</ele>
        <time>2019-06-23T08:52:01.099Z</time>
      </trkpt>
      <trkpt lat="42.92569" lon="0.18359">
        <ele>1627</ele>
        <time>2019-06-23T08:52:02.103Z</time>
      </trkpt>
      <trkpt lat="42.92569" lon="0.18359">
        <ele>1627</ele>
        <time>2019-06-23T08:52:03.103Z</time>
      </trkpt>
      <trkpt lat="42.92568" lon="0.1836">
        <ele>1627</ele>
        <time>2019-06-23T08:52:04.103Z</time>
      </trkpt>
      <trkpt lat="42.92568" lon="0.1836">
        <ele>1627</ele>
        <time>2019-06-23T08:52:05.103Z</time>
      </trkpt>
      <trkpt lat="42.92567" lon="0.1836">
        <ele>1627</ele>
        <time>2019-06-23T08:52:06.103Z</time>
      </trkpt>
      <trkpt lat="42.92567" lon="0.18361">
        <ele>1627</ele>
        <time>2019-06-23T08:52:07.103Z</time>
      </trkpt>
      <trkpt lat="42.92566" lon="0.18361">
        <ele>1627</ele>
        <time>2019-06-23T08:52:08.103Z</time>
      </trkpt>
      <trkpt lat="42.92566" lon="0.18361">
        <ele>1627</ele>
        <time>2019-06-23T08:52:09.103Z</time>
      </trkpt>
      <trkpt lat="42.92565" lon="0.18362">
        <ele>1627</ele>
        <time>2019-06-23T08:52:10.103Z</time>
      </trkpt>
      <trkpt lat="42.92565" lon="0.18362">
        <ele>1627</ele>
        <time>2019-06-23T08:52:11.103Z</time>
      </trkpt>
      <trkpt lat="42.92565" lon="0.18363">
        <ele>1627</ele>
        <time>2019-06-23T08:52:12.103Z</time>
      </trkpt>
      <trkpt lat="42.92564" lon="0.18363">
        <ele>1627</ele>
        <time>2019-06-23T08:52:13.103Z</time>
      </trkpt>
      <trkpt lat="42.92564" lon="0.18364">
        <ele>1627</ele>
        <time>2019-06-23T08:52:14.103Z</time>
      </trkpt>
      <trkpt lat="42.92563" lon="0.18364">
        <ele>1627</ele>
        <time>2019-06-23T08:52:15.103Z</time>
      </trkpt>
      <trkpt lat="42.92563" lon="0.18364">
        <ele>1627</ele>
        <time>2019-06-23T08:52:16.103Z</time>
      </trkpt>
      <trkpt lat="42.92562" lon="0.18365">
        <ele>1627</ele>
        <time>2019-06-23T08:52:17.103Z</time>
      </trkpt>
      <trkpt lat="42.92562" lon="0.18365">
        <ele>1627</ele>
        <time>2019-06-23T08:52:18.103Z</time>
      </trkpt>
      <trkpt lat="42.92561" lon="0.18366">
        <ele>1627</ele>
        <time>2019-06-23T08:52:19.103Z</time>
      </trkpt>
      <trkpt lat="42.92561" lon="0.18366">
        <ele>1627</ele>
        <time>2019-06-23T08:52:20.103Z</time>
      </trkpt>
      <trkpt lat="42.92561" lon="0.18367">
        <ele>1628</ele>
        <time>2019-06-23T08:52:21.103Z</time>
      </trkpt>
      <trkpt lat="42.9256" lon="0.18367">
        <ele>1628</ele>
        <time>2019-06-23T08:52:22.103Z</time>
      </trkpt>
      <trkpt lat="42.9256" lon="0.18367">
        <ele>1628</ele>
        <time>2019-06-23T08:52:23.103Z</time>
      </trkpt>
      <trkpt lat="42.9256" lon="0.18368">
        <ele>1628</ele>
        <time>2019-06-23T08:52:24.103Z</time>
      </trkpt>
      <trkpt lat="42.92559" lon="0.18368">
        <ele>1628</ele>
        <time>2019-06-23T08:52:25.103Z</time>
      </trkpt>
      <trkpt lat="42.92559" lon="0.18369">
        <ele>1629</ele>
        <time>2019-06-23T08:52:26.103Z</time>
      </trkpt>
      <trkpt lat="42.92558" lon="0.18369">
        <ele>1629</ele>
        <time>2019-06-23T08:52:27.103Z</time>
      </trkpt>
      <trkpt lat="42.92558" lon="0.1837">
        <ele>1629</ele>
        <time>2019-06-23T08:52:28.103Z</time>
      </trkpt>
      <trkpt lat="42.92557" lon="0.1837">
        <ele>1629</ele>
        <time>2019-06-23T08:52:29.103Z</time>
      </trkpt>
      <trkpt lat="42.92556" lon="0.1837">
        <ele>1629</ele>
        <time>2019-06-23T08:52:30.103Z</time>
      </trkpt>
      <trkpt lat="42.92556" lon="0.1837">
        <ele>1629</ele>
        <time>2019-06-23T08:52:31.103Z</time>
      </trkpt>
      <trkpt lat="42.92556" lon="0.1837">
        <ele>1629</ele>
        <time>2019-06-23T08:52:32.103Z</time>
      </trkpt>
      <trkpt lat="42.92555" lon="0.1837">
        <ele>1629</ele>
        <time>2019-06-23T08:52:33.103Z</time>
      </trkpt>
      <trkpt lat="42.92555" lon="0.18371">
        <ele>1630</ele>
        <time>2019-06-23T08:52:34.103Z</time>
      </trkpt>
      <trkpt lat="42.92554" lon="0.18371">
        <ele>1630</ele>
        <time>2019-06-23T08:52:35.103Z</time>
      </trkpt>
      <trkpt lat="42.92554" lon="0.18372">
        <ele>1630</ele>
        <time>2019-06-23T08:52:36.103Z</time>
      </trkpt>
      <trkpt lat="42.92554" lon="0.18372">
        <ele>1630</ele>
        <time>2019-06-23T08:52:37.103Z</time>
      </trkpt>
      <trkpt lat="42.92554" lon="0.18372">
        <ele>1630</ele>
        <time>2019-06-23T08:52:38.103Z</time>
      </trkpt>
      <trkpt lat="42.92553" lon="0.18373">
        <ele>1631</ele>
        <time>2019-06-23T08:52:39.103Z</time>
      </trkpt>
      <trkpt lat="42.92552" lon="0.18373">
        <ele>1631</ele>
        <time>2019-06-23T08:52:40.103Z</time>
      </trkpt>
      <trkpt lat="42.92552" lon="0.18373">
        <ele>1631</ele>
        <time>2019-06-23T08:52:41.103Z</time>
      </trkpt>
      <trkpt lat="42.92552" lon="0.18373">
        <ele>1630</ele>
        <time>2019-06-23T08:52:42.103Z</time>
      </trkpt>
      <trkpt lat="42.92552" lon="0.18373">
        <ele>1630</ele>
        <time>2019-06-23T08:52:43.103Z</time>
      </trkpt>
      <trkpt lat="42.92552" lon="0.18373">
        <ele>1630</ele>
        <time>2019-06-23T08:52:44.103Z</time>
      </trkpt>
      <trkpt lat="42.92552" lon="0.18373">
        <ele>1630</ele>
        <time>2019-06-23T08:52:45.103Z</time>
      </trkpt>
      <trkpt lat="42.92552" lon="0.18373">
        <ele>1630</ele>
        <time>2019-06-23T08:52:46.103Z</time>
      </trkpt>
      <trkpt lat="42.92552" lon="0.18373">
        <ele>1630</ele>
        <time>2019-06-23T08:52:47.103Z</time>
      </trkpt>
      <trkpt lat="42.92552" lon="0.18373">
        <ele>1631</ele>
        <time>2019-06-23T08:52:48.103Z</time>
      </trkpt>
      <trkpt lat="42.92549" lon="0.18376">
        <ele>1632</ele>
        <time>2019-06-23T08:52:49.103Z</time>
      </trkpt>
      <trkpt lat="42.92549" lon="0.18376">
        <ele>1632</ele>
        <time>2019-06-23T08:52:50.103Z</time>
      </trkpt>
      <trkpt lat="42.92549" lon="0.18377">
        <ele>1632</ele>
        <time>2019-06-23T08:52:51.103Z</time>
      </trkpt>
      <trkpt lat="42.92548" lon="0.18377">
        <ele>1632</ele>
        <time>2019-06-23T08:52:52.103Z</time>
      </trkpt>
      <trkpt lat="42.92548" lon="0.18377">
        <ele>1632</ele>
        <time>2019-06-23T08:52:53.103Z</time>
      </trkpt>
      <trkpt lat="42.92548" lon="0.18378">
        <ele>1632</ele>
        <time>2019-06-23T08:52:54.103Z</time>
      </trkpt>
      <trkpt lat="42.92547" lon="0.18378">
        <ele>1632</ele>
        <time>2019-06-23T08:52:55.103Z</time>
      </trkpt>
      <trkpt lat="42.92547" lon="0.18378">
        <ele>1632</ele>
        <time>2019-06-23T08:52:56.103Z</time>
      </trkpt>
      <trkpt lat="42.92547" lon="0.18379">
        <ele>1632</ele>
        <time>2019-06-23T08:52:57.103Z</time>
      </trkpt>
      <trkpt lat="42.92547" lon="0.18379">
        <ele>1632</ele>
        <time>2019-06-23T08:52:58.103Z</time>
      </trkpt>
      <trkpt lat="42.92547" lon="0.1838">
        <ele>1632</ele>
        <time>2019-06-23T08:52:59.103Z</time>
      </trkpt>
      <trkpt lat="42.92546" lon="0.1838">
        <ele>1632</ele>
        <time>2019-06-23T08:53:00.103Z</time>
      </trkpt>
      <trkpt lat="42.92546" lon="0.18381">
        <ele>1632</ele>
        <time>2019-06-23T08:53:01.103Z</time>
      </trkpt>
      <trkpt lat="42.92545" lon="0.18381">
        <ele>1632</ele>
        <time>2019-06-23T08:53:02.103Z</time>
      </trkpt>
      <trkpt lat="42.92545" lon="0.18381">
        <ele>1632</ele>
        <time>2019-06-23T08:53:03.103Z</time>
      </trkpt>
      <trkpt lat="42.92544" lon="0.18381">
        <ele>1632</ele>
        <time>2019-06-23T08:53:04.103Z</time>
      </trkpt>
      <trkpt lat="42.92544" lon="0.18381">
        <ele>1632</ele>
        <time>2019-06-23T08:53:05.103Z</time>
      </trkpt>
      <trkpt lat="42.92543" lon="0.18382">
        <ele>1632</ele>
        <time>2019-06-23T08:53:06.103Z</time>
      </trkpt>
      <trkpt lat="42.92543" lon="0.18382">
        <ele>1632</ele>
        <time>2019-06-23T08:53:07.103Z</time>
      </trkpt>
      <trkpt lat="42.92542" lon="0.18383">
        <ele>1632</ele>
        <time>2019-06-23T08:53:08.103Z</time>
      </trkpt>
      <trkpt lat="42.92542" lon="0.18383">
        <ele>1632</ele>
        <time>2019-06-23T08:53:09.103Z</time>
      </trkpt>
      <trkpt lat="42.92542" lon="0.18384">
        <ele>1632</ele>
        <time>2019-06-23T08:53:10.103Z</time>
      </trkpt>
      <trkpt lat="42.92541" lon="0.18384">
        <ele>1632</ele>
        <time>2019-06-23T08:53:11.103Z</time>
      </trkpt>
      <trkpt lat="42.92541" lon="0.18385">
        <ele>1632</ele>
        <time>2019-06-23T08:53:12.103Z</time>
      </trkpt>
      <trkpt lat="42.9254" lon="0.18386">
        <ele>1632</ele>
        <time>2019-06-23T08:53:13.103Z</time>
      </trkpt>
      <trkpt lat="42.9254" lon="0.18386">
        <ele>1633</ele>
        <time>2019-06-23T08:53:14.103Z</time>
      </trkpt>
      <trkpt lat="42.92539" lon="0.18386">
        <ele>1633</ele>
        <time>2019-06-23T08:53:15.103Z</time>
      </trkpt>
      <trkpt lat="42.92539" lon="0.18387">
        <ele>1633</ele>
        <time>2019-06-23T08:53:16.103Z</time>
      </trkpt>
      <trkpt lat="42.92538" lon="0.18387">
        <ele>1633</ele>
        <time>2019-06-23T08:53:17.103Z</time>
      </trkpt>
      <trkpt lat="42.92538" lon="0.18387">
        <ele>1633</ele>
        <time>2019-06-23T08:53:18.103Z</time>
      </trkpt>
      <trkpt lat="42.92537" lon="0.18388">
        <ele>1633</ele>
        <time>2019-06-23T08:53:19.103Z</time>
      </trkpt>
      <trkpt lat="42.92537" lon="0.18388">
        <ele>1633</ele>
        <time>2019-06-23T08:53:20.103Z</time>
      </trkpt>
      <trkpt lat="42.92536" lon="0.18388">
        <ele>1633</ele>
        <time>2019-06-23T08:53:21.103Z</time>
      </trkpt>
      <trkpt lat="42.92536" lon="0.18389">
        <ele>1634</ele>
        <time>2019-06-23T08:53:22.103Z</time>
      </trkpt>
      <trkpt lat="42.92536" lon="0.18389">
        <ele>1634</ele>
        <time>2019-06-23T08:53:23.103Z</time>
      </trkpt>
      <trkpt lat="42.92536" lon="0.18389">
        <ele>1634</ele>
        <time>2019-06-23T08:53:24.103Z</time>
      </trkpt>
      <trkpt lat="42.92535" lon="0.18389">
        <ele>1634</ele>
        <time>2019-06-23T08:53:25.103Z</time>
      </trkpt>
      <trkpt lat="42.92535" lon="0.18389">
        <ele>1634</ele>
        <time>2019-06-23T08:53:26.103Z</time>
      </trkpt>
      <trkpt lat="42.92534" lon="0.18389">
        <ele>1634</ele>
        <time>2019-06-23T08:53:27.103Z</time>
      </trkpt>
      <trkpt lat="42.92534" lon="0.18389">
        <ele>1634</ele>
        <time>2019-06-23T08:53:28.103Z</time>
      </trkpt>
      <trkpt lat="42.92533" lon="0.18389">
        <ele>1634</ele>
        <time>2019-06-23T08:53:29.103Z</time>
      </trkpt>
      <trkpt lat="42.92533" lon="0.18389">
        <ele>1635</ele>
        <time>2019-06-23T08:53:30.103Z</time>
      </trkpt>
      <trkpt lat="42.92533" lon="0.1839">
        <ele>1635</ele>
        <time>2019-06-23T08:53:31.103Z</time>
      </trkpt>
      <trkpt lat="42.92532" lon="0.1839">
        <ele>1635</ele>
        <time>2019-06-23T08:53:32.103Z</time>
      </trkpt>
      <trkpt lat="42.92532" lon="0.1839">
        <ele>1635</ele>
        <time>2019-06-23T08:53:33.103Z</time>
      </trkpt>
      <trkpt lat="42.92531" lon="0.1839">
        <ele>1635</ele>
        <time>2019-06-23T08:53:34.103Z</time>
      </trkpt>
      <trkpt lat="42.92531" lon="0.18391">
        <ele>1635</ele>
        <time>2019-06-23T08:53:35.103Z</time>
      </trkpt>
      <trkpt lat="42.92531" lon="0.18391">
        <ele>1636</ele>
        <time>2019-06-23T08:53:36.103Z</time>
      </trkpt>
      <trkpt lat="42.9253" lon="0.18392">
        <ele>1636</ele>
        <time>2019-06-23T08:53:37.103Z</time>
      </trkpt>
      <trkpt lat="42.9253" lon="0.18392">
        <ele>1636</ele>
        <time>2019-06-23T08:53:38.103Z</time>
      </trkpt>
      <trkpt lat="42.92529" lon="0.18393">
        <ele>1637</ele>
        <time>2019-06-23T08:53:39.103Z</time>
      </trkpt>
      <trkpt lat="42.92529" lon="0.18393">
        <ele>1637</ele>
        <time>2019-06-23T08:53:40.103Z</time>
      </trkpt>
      <trkpt lat="42.92529" lon="0.18394">
        <ele>1637</ele>
        <time>2019-06-23T08:53:41.103Z</time>
      </trkpt>
      <trkpt lat="42.92529" lon="0.18394">
        <ele>1637</ele>
        <time>2019-06-23T08:53:42.103Z</time>
      </trkpt>
      <trkpt lat="42.92529" lon="0.18394">
        <ele>1637</ele>
        <time>2019-06-23T08:53:43.103Z</time>
      </trkpt>
      <trkpt lat="42.92529" lon="0.18394">
        <ele>1638</ele>
        <time>2019-06-23T08:53:44.103Z</time>
      </trkpt>
      <trkpt lat="42.92528" lon="0.18394">
        <ele>1637</ele>
        <time>2019-06-23T08:53:45.103Z</time>
      </trkpt>
      <trkpt lat="42.92528" lon="0.18394">
        <ele>1637</ele>
        <time>2019-06-23T08:53:46.103Z</time>
      </trkpt>
      <trkpt lat="42.92527" lon="0.18394">
        <ele>1637</ele>
        <time>2019-06-23T08:53:47.103Z</time>
      </trkpt>
      <trkpt lat="42.92527" lon="0.18394">
        <ele>1637</ele>
        <time>2019-06-23T08:53:48.103Z</time>
      </trkpt>
      <trkpt lat="42.92526" lon="0.18394">
        <ele>1637</ele>
        <time>2019-06-23T08:53:49.103Z</time>
      </trkpt>
      <trkpt lat="42.92526" lon="0.18395">
        <ele>1637</ele>
        <time>2019-06-23T08:53:50.103Z</time>
      </trkpt>
      <trkpt lat="42.92525" lon="0.18395">
        <ele>1638</ele>
        <time>2019-06-23T08:53:51.103Z</time>
      </trkpt>
      <trkpt lat="42.92524" lon="0.18395">
        <ele>1638</ele>
        <time>2019-06-23T08:53:52.103Z</time>
      </trkpt>
      <trkpt lat="42.92523" lon="0.18395">
        <ele>1638</ele>
        <time>2019-06-23T08:53:53.103Z</time>
      </trkpt>
      <trkpt lat="42.92523" lon="0.18395">
        <ele>1638</ele>
        <time>2019-06-23T08:53:54.103Z</time>
      </trkpt>
      <trkpt lat="42.92522" lon="0.18395">
        <ele>1638</ele>
        <time>2019-06-23T08:53:55.103Z</time>
      </trkpt>
      <trkpt lat="42.92522" lon="0.18395">
        <ele>1638</ele>
        <time>2019-06-23T08:53:56.103Z</time>
      </trkpt>
      <trkpt lat="42.92522" lon="0.18394">
        <ele>1638</ele>
        <time>2019-06-23T08:53:57.103Z</time>
      </trkpt>
      <trkpt lat="42.92521" lon="0.18394">
        <ele>1639</ele>
        <time>2019-06-23T08:53:58.103Z</time>
      </trkpt>
      <trkpt lat="42.92521" lon="0.18394">
        <ele>1639</ele>
        <time>2019-06-23T08:53:59.103Z</time>
      </trkpt>
      <trkpt lat="42.92521" lon="0.18394">
        <ele>1639</ele>
        <time>2019-06-23T08:54:00.103Z</time>
      </trkpt>
      <trkpt lat="42.92521" lon="0.18394">
        <ele>1639</ele>
        <time>2019-06-23T08:54:01.103Z</time>
      </trkpt>
      <trkpt lat="42.92521" lon="0.18394">
        <ele>1639</ele>
        <time>2019-06-23T08:54:02.103Z</time>
      </trkpt>
      <trkpt lat="42.92521" lon="0.18394">
        <ele>1639</ele>
        <time>2019-06-23T08:54:03.103Z</time>
      </trkpt>
      <trkpt lat="42.9252" lon="0.18394">
        <ele>1640</ele>
        <time>2019-06-23T08:54:04.103Z</time>
      </trkpt>
      <trkpt lat="42.9252" lon="0.18394">
        <ele>1640</ele>
        <time>2019-06-23T08:54:05.103Z</time>
      </trkpt>
      <trkpt lat="42.92519" lon="0.18398">
        <ele>1642</ele>
        <time>2019-06-23T08:54:07.103Z</time>
      </trkpt>
      <trkpt lat="42.92519" lon="0.18399">
        <ele>1642</ele>
        <time>2019-06-23T08:54:08.103Z</time>
      </trkpt>
      <trkpt lat="42.92518" lon="0.18399">
        <ele>1642</ele>
        <time>2019-06-23T08:54:09.103Z</time>
      </trkpt>
      <trkpt lat="42.92518" lon="0.184">
        <ele>1642</ele>
        <time>2019-06-23T08:54:10.103Z</time>
      </trkpt>
      <trkpt lat="42.92518" lon="0.184">
        <ele>1642</ele>
        <time>2019-06-23T08:54:11.103Z</time>
      </trkpt>
      <trkpt lat="42.92518" lon="0.18401">
        <ele>1642</ele>
        <time>2019-06-23T08:54:12.103Z</time>
      </trkpt>
      <trkpt lat="42.92517" lon="0.18402">
        <ele>1642</ele>
        <time>2019-06-23T08:54:13.103Z</time>
      </trkpt>
      <trkpt lat="42.92517" lon="0.18402">
        <ele>1642</ele>
        <time>2019-06-23T08:54:14.103Z</time>
      </trkpt>
      <trkpt lat="42.92517" lon="0.18402">
        <ele>1642</ele>
        <time>2019-06-23T08:54:15.103Z</time>
      </trkpt>
      <trkpt lat="42.92517" lon="0.18402">
        <ele>1642</ele>
        <time>2019-06-23T08:54:16.103Z</time>
      </trkpt>
      <trkpt lat="42.92517" lon="0.18403">
        <ele>1642</ele>
        <time>2019-06-23T08:54:17.103Z</time>
      </trkpt>
      <trkpt lat="42.92516" lon="0.18403">
        <ele>1642</ele>
        <time>2019-06-23T08:54:18.103Z</time>
      </trkpt>
      <trkpt lat="42.92516" lon="0.18404">
        <ele>1642</ele>
        <time>2019-06-23T08:54:19.103Z</time>
      </trkpt>
      <trkpt lat="42.92516" lon="0.18404">
        <ele>1643</ele>
        <time>2019-06-23T08:54:20.103Z</time>
      </trkpt>
      <trkpt lat="42.92515" lon="0.18405">
        <ele>1643</ele>
        <time>2019-06-23T08:54:21.103Z</time>
      </trkpt>
      <trkpt lat="42.92515" lon="0.18405">
        <ele>1643</ele>
        <time>2019-06-23T08:54:22.103Z</time>
      </trkpt>
      <trkpt lat="42.92515" lon="0.18405">
        <ele>1642</ele>
        <time>2019-06-23T08:54:23.103Z</time>
      </trkpt>
      <trkpt lat="42.92515" lon="0.18405">
        <ele>1642</ele>
        <time>2019-06-23T08:54:24.103Z</time>
      </trkpt>
      <trkpt lat="42.92514" lon="0.18405">
        <ele>1642</ele>
        <time>2019-06-23T08:54:25.103Z</time>
      </trkpt>
      <trkpt lat="42.92514" lon="0.18406">
        <ele>1642</ele>
        <time>2019-06-23T08:54:26.103Z</time>
      </trkpt>
      <trkpt lat="42.92514" lon="0.18406">
        <ele>1642</ele>
        <time>2019-06-23T08:54:27.103Z</time>
      </trkpt>
      <trkpt lat="42.92513" lon="0.18407">
        <ele>1642</ele>
        <time>2019-06-23T08:54:28.103Z</time>
      </trkpt>
      <trkpt lat="42.92513" lon="0.18407">
        <ele>1642</ele>
        <time>2019-06-23T08:54:29.103Z</time>
      </trkpt>
      <trkpt lat="42.92513" lon="0.18408">
        <ele>1642</ele>
        <time>2019-06-23T08:54:30.103Z</time>
      </trkpt>
      <trkpt lat="42.92513" lon="0.18408">
        <ele>1643</ele>
        <time>2019-06-23T08:54:31.103Z</time>
      </trkpt>
      <trkpt lat="42.92513" lon="0.18409">
        <ele>1643</ele>
        <time>2019-06-23T08:54:32.103Z</time>
      </trkpt>
      <trkpt lat="42.92512" lon="0.1841">
        <ele>1643</ele>
        <time>2019-06-23T08:54:33.103Z</time>
      </trkpt>
      <trkpt lat="42.92512" lon="0.1841">
        <ele>1643</ele>
        <time>2019-06-23T08:54:34.103Z</time>
      </trkpt>
      <trkpt lat="42.92512" lon="0.1841">
        <ele>1643</ele>
        <time>2019-06-23T08:54:35.103Z</time>
      </trkpt>
      <trkpt lat="42.92511" lon="0.1841">
        <ele>1643</ele>
        <time>2019-06-23T08:54:36.103Z</time>
      </trkpt>
      <trkpt lat="42.92511" lon="0.1841">
        <ele>1643</ele>
        <time>2019-06-23T08:54:37.103Z</time>
      </trkpt>
      <trkpt lat="42.92511" lon="0.1841">
        <ele>1643</ele>
        <time>2019-06-23T08:54:38.103Z</time>
      </trkpt>
      <trkpt lat="42.9251" lon="0.18411">
        <ele>1643</ele>
        <time>2019-06-23T08:54:39.103Z</time>
      </trkpt>
      <trkpt lat="42.9251" lon="0.18411">
        <ele>1643</ele>
        <time>2019-06-23T08:54:40.103Z</time>
      </trkpt>
      <trkpt lat="42.9251" lon="0.18411">
        <ele>1644</ele>
        <time>2019-06-23T08:54:41.103Z</time>
      </trkpt>
      <trkpt lat="42.92509" lon="0.18412">
        <ele>1644</ele>
        <time>2019-06-23T08:54:42.103Z</time>
      </trkpt>
      <trkpt lat="42.92509" lon="0.18412">
        <ele>1644</ele>
        <time>2019-06-23T08:54:43.103Z</time>
      </trkpt>
      <trkpt lat="42.92509" lon="0.18413">
        <ele>1644</ele>
        <time>2019-06-23T08:54:44.103Z</time>
      </trkpt>
      <trkpt lat="42.92509" lon="0.18413">
        <ele>1644</ele>
        <time>2019-06-23T08:54:45.103Z</time>
      </trkpt>
      <trkpt lat="42.92509" lon="0.18414">
        <ele>1644</ele>
        <time>2019-06-23T08:54:46.103Z</time>
      </trkpt>
      <trkpt lat="42.92509" lon="0.18415">
        <ele>1644</ele>
        <time>2019-06-23T08:54:47.103Z</time>
      </trkpt>
      <trkpt lat="42.92509" lon="0.18416">
        <ele>1644</ele>
        <time>2019-06-23T08:54:48.103Z</time>
      </trkpt>
      <trkpt lat="42.9251" lon="0.18416">
        <ele>1644</ele>
        <time>2019-06-23T08:54:49.103Z</time>
      </trkpt>
      <trkpt lat="42.9251" lon="0.18417">
        <ele>1644</ele>
        <time>2019-06-23T08:54:50.103Z</time>
      </trkpt>
      <trkpt lat="42.9251" lon="0.18418">
        <ele>1645</ele>
        <time>2019-06-23T08:54:51.103Z</time>
      </trkpt>
      <trkpt lat="42.9251" lon="0.18419">
        <ele>1645</ele>
        <time>2019-06-23T08:54:52.103Z</time>
      </trkpt>
      <trkpt lat="42.92509" lon="0.1842">
        <ele>1645</ele>
        <time>2019-06-23T08:54:53.103Z</time>
      </trkpt>
      <trkpt lat="42.92509" lon="0.1842">
        <ele>1645</ele>
        <time>2019-06-23T08:54:54.103Z</time>
      </trkpt>
      <trkpt lat="42.92508" lon="0.1842">
        <ele>1645</ele>
        <time>2019-06-23T08:54:55.103Z</time>
      </trkpt>
      <trkpt lat="42.92508" lon="0.18421">
        <ele>1645</ele>
        <time>2019-06-23T08:54:56.103Z</time>
      </trkpt>
      <trkpt lat="42.92507" lon="0.18421">
        <ele>1645</ele>
        <time>2019-06-23T08:54:57.103Z</time>
      </trkpt>
      <trkpt lat="42.92507" lon="0.18422">
        <ele>1646</ele>
        <time>2019-06-23T08:54:58.103Z</time>
      </trkpt>
      <trkpt lat="42.92506" lon="0.18422">
        <ele>1646</ele>
        <time>2019-06-23T08:54:59.103Z</time>
      </trkpt>
      <trkpt lat="42.92506" lon="0.18423">
        <ele>1646</ele>
        <time>2019-06-23T08:55:00.103Z</time>
      </trkpt>
      <trkpt lat="42.92505" lon="0.18423">
        <ele>1646</ele>
        <time>2019-06-23T08:55:01.103Z</time>
      </trkpt>
      <trkpt lat="42.92505" lon="0.18424">
        <ele>1646</ele>
        <time>2019-06-23T08:55:02.103Z</time>
      </trkpt>
      <trkpt lat="42.92505" lon="0.18424">
        <ele>1646</ele>
        <time>2019-06-23T08:55:03.103Z</time>
      </trkpt>
      <trkpt lat="42.92504" lon="0.18425">
        <ele>1646</ele>
        <time>2019-06-23T08:55:04.103Z</time>
      </trkpt>
      <trkpt lat="42.92503" lon="0.18425">
        <ele>1646</ele>
        <time>2019-06-23T08:55:05.103Z</time>
      </trkpt>
      <trkpt lat="42.92503" lon="0.18426">
        <ele>1646</ele>
        <time>2019-06-23T08:55:06.103Z</time>
      </trkpt>
      <trkpt lat="42.92502" lon="0.18426">
        <ele>1646</ele>
        <time>2019-06-23T08:55:07.103Z</time>
      </trkpt>
      <trkpt lat="42.92501" lon="0.18427">
        <ele>1646</ele>
        <time>2019-06-23T08:55:08.103Z</time>
      </trkpt>
      <trkpt lat="42.92501" lon="0.18427">
        <ele>1646</ele>
        <time>2019-06-23T08:55:09.103Z</time>
      </trkpt>
      <trkpt lat="42.925" lon="0.18428">
        <ele>1647</ele>
        <time>2019-06-23T08:55:10.103Z</time>
      </trkpt>
      <trkpt lat="42.925" lon="0.18428">
        <ele>1647</ele>
        <time>2019-06-23T08:55:11.103Z</time>
      </trkpt>
      <trkpt lat="42.92499" lon="0.18429">
        <ele>1647</ele>
        <time>2019-06-23T08:55:12.103Z</time>
      </trkpt>
      <trkpt lat="42.92499" lon="0.18429">
        <ele>1647</ele>
        <time>2019-06-23T08:55:13.103Z</time>
      </trkpt>
      <trkpt lat="42.92498" lon="0.1843">
        <ele>1647</ele>
        <time>2019-06-23T08:55:14.103Z</time>
      </trkpt>
      <trkpt lat="42.92497" lon="0.1843">
        <ele>1647</ele>
        <time>2019-06-23T08:55:15.103Z</time>
      </trkpt>
      <trkpt lat="42.92497" lon="0.1843">
        <ele>1647</ele>
        <time>2019-06-23T08:55:16.103Z</time>
      </trkpt>
      <trkpt lat="42.92496" lon="0.1843">
        <ele>1647</ele>
        <time>2019-06-23T08:55:17.103Z</time>
      </trkpt>
      <trkpt lat="42.92495" lon="0.1843">
        <ele>1647</ele>
        <time>2019-06-23T08:55:18.103Z</time>
      </trkpt>
      <trkpt lat="42.92495" lon="0.18431">
        <ele>1646</ele>
        <time>2019-06-23T08:55:19.103Z</time>
      </trkpt>
      <trkpt lat="42.92494" lon="0.18431">
        <ele>1646</ele>
        <time>2019-06-23T08:55:20.103Z</time>
      </trkpt>
      <trkpt lat="42.92493" lon="0.18431">
        <ele>1647</ele>
        <time>2019-06-23T08:55:21.103Z</time>
      </trkpt>
      <trkpt lat="42.92493" lon="0.18432">
        <ele>1647</ele>
        <time>2019-06-23T08:55:22.103Z</time>
      </trkpt>
      <trkpt lat="42.92492" lon="0.18432">
        <ele>1647</ele>
        <time>2019-06-23T08:55:23.103Z</time>
      </trkpt>
      <trkpt lat="42.92492" lon="0.18433">
        <ele>1647</ele>
        <time>2019-06-23T08:55:24.103Z</time>
      </trkpt>
      <trkpt lat="42.92492" lon="0.18433">
        <ele>1647</ele>
        <time>2019-06-23T08:55:25.103Z</time>
      </trkpt>
      <trkpt lat="42.92491" lon="0.18433">
        <ele>1647</ele>
        <time>2019-06-23T08:55:26.103Z</time>
      </trkpt>
      <trkpt lat="42.9249" lon="0.18433">
        <ele>1647</ele>
        <time>2019-06-23T08:55:27.103Z</time>
      </trkpt>
      <trkpt lat="42.9249" lon="0.18434">
        <ele>1647</ele>
        <time>2019-06-23T08:55:28.103Z</time>
      </trkpt>
      <trkpt lat="42.92489" lon="0.18434">
        <ele>1647</ele>
        <time>2019-06-23T08:55:29.103Z</time>
      </trkpt>
      <trkpt lat="42.92488" lon="0.18434">
        <ele>1647</ele>
        <time>2019-06-23T08:55:30.103Z</time>
      </trkpt>
      <trkpt lat="42.92488" lon="0.18435">
        <ele>1647</ele>
        <time>2019-06-23T08:55:31.103Z</time>
      </trkpt>
      <trkpt lat="42.92487" lon="0.18435">
        <ele>1647</ele>
        <time>2019-06-23T08:55:32.103Z</time>
      </trkpt>
      <trkpt lat="42.92486" lon="0.18436">
        <ele>1647</ele>
        <time>2019-06-23T08:55:33.103Z</time>
      </trkpt>
      <trkpt lat="42.92486" lon="0.18436">
        <ele>1647</ele>
        <time>2019-06-23T08:55:34.103Z</time>
      </trkpt>
      <trkpt lat="42.92485" lon="0.18437">
        <ele>1647</ele>
        <time>2019-06-23T08:55:35.103Z</time>
      </trkpt>
      <trkpt lat="42.92485" lon="0.18437">
        <ele>1647</ele>
        <time>2019-06-23T08:55:36.103Z</time>
      </trkpt>
      <trkpt lat="42.92484" lon="0.18438">
        <ele>1647</ele>
        <time>2019-06-23T08:55:37.103Z</time>
      </trkpt>
      <trkpt lat="42.92484" lon="0.18439">
        <ele>1647</ele>
        <time>2019-06-23T08:55:38.103Z</time>
      </trkpt>
      <trkpt lat="42.92483" lon="0.18439">
        <ele>1647</ele>
        <time>2019-06-23T08:55:39.103Z</time>
      </trkpt>
      <trkpt lat="42.92483" lon="0.1844">
        <ele>1647</ele>
        <time>2019-06-23T08:55:40.103Z</time>
      </trkpt>
      <trkpt lat="42.92482" lon="0.1844">
        <ele>1647</ele>
        <time>2019-06-23T08:55:41.103Z</time>
      </trkpt>
      <trkpt lat="42.92481" lon="0.18441">
        <ele>1647</ele>
        <time>2019-06-23T08:55:42.103Z</time>
      </trkpt>
      <trkpt lat="42.92481" lon="0.18441">
        <ele>1648</ele>
        <time>2019-06-23T08:55:43.103Z</time>
      </trkpt>
      <trkpt lat="42.9248" lon="0.18442">
        <ele>1648</ele>
        <time>2019-06-23T08:55:44.103Z</time>
      </trkpt>
      <trkpt lat="42.9248" lon="0.18443">
        <ele>1648</ele>
        <time>2019-06-23T08:55:45.103Z</time>
      </trkpt>
      <trkpt lat="42.92479" lon="0.18443">
        <ele>1648</ele>
        <time>2019-06-23T08:55:46.103Z</time>
      </trkpt>
      <trkpt lat="42.92479" lon="0.18444">
        <ele>1648</ele>
        <time>2019-06-23T08:55:47.103Z</time>
      </trkpt>
      <trkpt lat="42.92478" lon="0.18444">
        <ele>1648</ele>
        <time>2019-06-23T08:55:48.103Z</time>
      </trkpt>
      <trkpt lat="42.92477" lon="0.18445">
        <ele>1648</ele>
        <time>2019-06-23T08:55:49.103Z</time>
      </trkpt>
      <trkpt lat="42.92477" lon="0.18446">
        <ele>1649</ele>
        <time>2019-06-23T08:55:50.103Z</time>
      </trkpt>
      <trkpt lat="42.92476" lon="0.18447">
        <ele>1649</ele>
        <time>2019-06-23T08:55:51.103Z</time>
      </trkpt>
      <trkpt lat="42.92476" lon="0.18448">
        <ele>1649</ele>
        <time>2019-06-23T08:55:52.103Z</time>
      </trkpt>
      <trkpt lat="42.92475" lon="0.18449">
        <ele>1649</ele>
        <time>2019-06-23T08:55:53.103Z</time>
      </trkpt>
      <trkpt lat="42.92475" lon="0.18449">
        <ele>1649</ele>
        <time>2019-06-23T08:55:54.103Z</time>
      </trkpt>
      <trkpt lat="42.92474" lon="0.1845">
        <ele>1649</ele>
        <time>2019-06-23T08:55:55.103Z</time>
      </trkpt>
      <trkpt lat="42.92474" lon="0.1845">
        <ele>1649</ele>
        <time>2019-06-23T08:55:56.103Z</time>
      </trkpt>
      <trkpt lat="42.92473" lon="0.18451">
        <ele>1649</ele>
        <time>2019-06-23T08:55:57.103Z</time>
      </trkpt>
      <trkpt lat="42.92472" lon="0.18451">
        <ele>1649</ele>
        <time>2019-06-23T08:55:58.103Z</time>
      </trkpt>
      <trkpt lat="42.92472" lon="0.18452">
        <ele>1649</ele>
        <time>2019-06-23T08:55:59.103Z</time>
      </trkpt>
      <trkpt lat="42.92471" lon="0.18453">
        <ele>1649</ele>
        <time>2019-06-23T08:56:00.103Z</time>
      </trkpt>
      <trkpt lat="42.92471" lon="0.18453">
        <ele>1649</ele>
        <time>2019-06-23T08:56:01.103Z</time>
      </trkpt>
      <trkpt lat="42.9247" lon="0.18454">
        <ele>1649</ele>
        <time>2019-06-23T08:56:02.103Z</time>
      </trkpt>
      <trkpt lat="42.9247" lon="0.18455">
        <ele>1649</ele>
        <time>2019-06-23T08:56:03.103Z</time>
      </trkpt>
      <trkpt lat="42.92469" lon="0.18455">
        <ele>1649</ele>
        <time>2019-06-23T08:56:04.103Z</time>
      </trkpt>
      <trkpt lat="42.92468" lon="0.18455">
        <ele>1649</ele>
        <time>2019-06-23T08:56:05.103Z</time>
      </trkpt>
      <trkpt lat="42.92468" lon="0.18456">
        <ele>1649</ele>
        <time>2019-06-23T08:56:06.103Z</time>
      </trkpt>
      <trkpt lat="42.92467" lon="0.18456">
        <ele>1649</ele>
        <time>2019-06-23T08:56:07.103Z</time>
      </trkpt>
      <trkpt lat="42.92467" lon="0.18457">
        <ele>1649</ele>
        <time>2019-06-23T08:56:08.103Z</time>
      </trkpt>
      <trkpt lat="42.92466" lon="0.18458">
        <ele>1650</ele>
        <time>2019-06-23T08:56:09.103Z</time>
      </trkpt>
      <trkpt lat="42.92466" lon="0.18458">
        <ele>1650</ele>
        <time>2019-06-23T08:56:10.103Z</time>
      </trkpt>
      <trkpt lat="42.92465" lon="0.18459">
        <ele>1650</ele>
        <time>2019-06-23T08:56:11.103Z</time>
      </trkpt>
      <trkpt lat="42.92465" lon="0.1846">
        <ele>1650</ele>
        <time>2019-06-23T08:56:12.103Z</time>
      </trkpt>
      <trkpt lat="42.92464" lon="0.1846">
        <ele>1650</ele>
        <time>2019-06-23T08:56:13.103Z</time>
      </trkpt>
      <trkpt lat="42.92464" lon="0.18461">
        <ele>1651</ele>
        <time>2019-06-23T08:56:14.103Z</time>
      </trkpt>
      <trkpt lat="42.92464" lon="0.18462">
        <ele>1651</ele>
        <time>2019-06-23T08:56:15.103Z</time>
      </trkpt>
      <trkpt lat="42.92463" lon="0.18463">
        <ele>1651</ele>
        <time>2019-06-23T08:56:16.103Z</time>
      </trkpt>
      <trkpt lat="42.92463" lon="0.18463">
        <ele>1651</ele>
        <time>2019-06-23T08:56:17.103Z</time>
      </trkpt>
      <trkpt lat="42.92462" lon="0.18464">
        <ele>1652</ele>
        <time>2019-06-23T08:56:18.103Z</time>
      </trkpt>
      <trkpt lat="42.92462" lon="0.18465">
        <ele>1652</ele>
        <time>2019-06-23T08:56:19.103Z</time>
      </trkpt>
      <trkpt lat="42.92461" lon="0.18465">
        <ele>1652</ele>
        <time>2019-06-23T08:56:20.103Z</time>
      </trkpt>
      <trkpt lat="42.92461" lon="0.18466">
        <ele>1652</ele>
        <time>2019-06-23T08:56:21.103Z</time>
      </trkpt>
      <trkpt lat="42.92461" lon="0.18466">
        <ele>1652</ele>
        <time>2019-06-23T08:56:22.103Z</time>
      </trkpt>
      <trkpt lat="42.9246" lon="0.18467">
        <ele>1652</ele>
        <time>2019-06-23T08:56:23.103Z</time>
      </trkpt>
      <trkpt lat="42.9246" lon="0.18468">
        <ele>1653</ele>
        <time>2019-06-23T08:56:24.103Z</time>
      </trkpt>
      <trkpt lat="42.92459" lon="0.18468">
        <ele>1653</ele>
        <time>2019-06-23T08:56:25.103Z</time>
      </trkpt>
      <trkpt lat="42.92459" lon="0.18469">
        <ele>1653</ele>
        <time>2019-06-23T08:56:26.103Z</time>
      </trkpt>
      <trkpt lat="42.92458" lon="0.18469">
        <ele>1653</ele>
        <time>2019-06-23T08:56:27.103Z</time>
      </trkpt>
      <trkpt lat="42.92458" lon="0.18469">
        <ele>1653</ele>
        <time>2019-06-23T08:56:28.103Z</time>
      </trkpt>
      <trkpt lat="42.92457" lon="0.18469">
        <ele>1653</ele>
        <time>2019-06-23T08:56:29.103Z</time>
      </trkpt>
      <trkpt lat="42.92457" lon="0.1847">
        <ele>1653</ele>
        <time>2019-06-23T08:56:30.103Z</time>
      </trkpt>
      <trkpt lat="42.92456" lon="0.1847">
        <ele>1653</ele>
        <time>2019-06-23T08:56:31.103Z</time>
      </trkpt>
      <trkpt lat="42.92455" lon="0.1847">
        <ele>1653</ele>
        <time>2019-06-23T08:56:32.103Z</time>
      </trkpt>
      <trkpt lat="42.92455" lon="0.18471">
        <ele>1653</ele>
        <time>2019-06-23T08:56:33.103Z</time>
      </trkpt>
      <trkpt lat="42.92454" lon="0.18471">
        <ele>1653</ele>
        <time>2019-06-23T08:56:34.103Z</time>
      </trkpt>
      <trkpt lat="42.92454" lon="0.18471">
        <ele>1653</ele>
        <time>2019-06-23T08:56:35.103Z</time>
      </trkpt>
      <trkpt lat="42.92453" lon="0.18472">
        <ele>1653</ele>
        <time>2019-06-23T08:56:36.103Z</time>
      </trkpt>
      <trkpt lat="42.92453" lon="0.18472">
        <ele>1653</ele>
        <time>2019-06-23T08:56:37.103Z</time>
      </trkpt>
      <trkpt lat="42.92453" lon="0.18473">
        <ele>1654</ele>
        <time>2019-06-23T08:56:38.103Z</time>
      </trkpt>
      <trkpt lat="42.92452" lon="0.18474">
        <ele>1654</ele>
        <time>2019-06-23T08:56:39.103Z</time>
      </trkpt>
      <trkpt lat="42.92452" lon="0.18474">
        <ele>1654</ele>
        <time>2019-06-23T08:56:40.103Z</time>
      </trkpt>
      <trkpt lat="42.92451" lon="0.18474">
        <ele>1654</ele>
        <time>2019-06-23T08:56:41.103Z</time>
      </trkpt>
      <trkpt lat="42.92451" lon="0.18474">
        <ele>1654</ele>
        <time>2019-06-23T08:56:42.103Z</time>
      </trkpt>
      <trkpt lat="42.9245" lon="0.18474">
        <ele>1654</ele>
        <time>2019-06-23T08:56:43.103Z</time>
      </trkpt>
      <trkpt lat="42.9245" lon="0.18474">
        <ele>1654</ele>
        <time>2019-06-23T08:56:44.103Z</time>
      </trkpt>
      <trkpt lat="42.92449" lon="0.18475">
        <ele>1654</ele>
        <time>2019-06-23T08:56:45.103Z</time>
      </trkpt>
      <trkpt lat="42.92449" lon="0.18475">
        <ele>1654</ele>
        <time>2019-06-23T08:56:46.103Z</time>
      </trkpt>
      <trkpt lat="42.92448" lon="0.18476">
        <ele>1655</ele>
        <time>2019-06-23T08:56:47.103Z</time>
      </trkpt>
      <trkpt lat="42.92448" lon="0.18476">
        <ele>1655</ele>
        <time>2019-06-23T08:56:48.103Z</time>
      </trkpt>
      <trkpt lat="42.92447" lon="0.18477">
        <ele>1655</ele>
        <time>2019-06-23T08:56:49.103Z</time>
      </trkpt>
      <trkpt lat="42.92447" lon="0.18477">
        <ele>1655</ele>
        <time>2019-06-23T08:56:50.103Z</time>
      </trkpt>
      <trkpt lat="42.92446" lon="0.18478">
        <ele>1655</ele>
        <time>2019-06-23T08:56:51.103Z</time>
      </trkpt>
      <trkpt lat="42.92446" lon="0.18478">
        <ele>1655</ele>
        <time>2019-06-23T08:56:52.103Z</time>
      </trkpt>
      <trkpt lat="42.92445" lon="0.18479">
        <ele>1656</ele>
        <time>2019-06-23T08:56:53.103Z</time>
      </trkpt>
      <trkpt lat="42.92444" lon="0.18479">
        <ele>1655</ele>
        <time>2019-06-23T08:56:54.103Z</time>
      </trkpt>
      <trkpt lat="42.92444" lon="0.18479">
        <ele>1656</ele>
        <time>2019-06-23T08:56:55.103Z</time>
      </trkpt>
      <trkpt lat="42.92444" lon="0.18479">
        <ele>1656</ele>
        <time>2019-06-23T08:56:56.103Z</time>
      </trkpt>
      <trkpt lat="42.92443" lon="0.1848">
        <ele>1656</ele>
        <time>2019-06-23T08:56:57.103Z</time>
      </trkpt>
      <trkpt lat="42.92443" lon="0.1848">
        <ele>1656</ele>
        <time>2019-06-23T08:56:58.103Z</time>
      </trkpt>
      <trkpt lat="42.92442" lon="0.1848">
        <ele>1656</ele>
        <time>2019-06-23T08:56:59.103Z</time>
      </trkpt>
      <trkpt lat="42.92442" lon="0.18481">
        <ele>1656</ele>
        <time>2019-06-23T08:57:00.103Z</time>
      </trkpt>
      <trkpt lat="42.92442" lon="0.18481">
        <ele>1656</ele>
        <time>2019-06-23T08:57:01.103Z</time>
      </trkpt>
      <trkpt lat="42.92441" lon="0.18482">
        <ele>1657</ele>
        <time>2019-06-23T08:57:02.103Z</time>
      </trkpt>
      <trkpt lat="42.92441" lon="0.18482">
        <ele>1657</ele>
        <time>2019-06-23T08:57:03.103Z</time>
      </trkpt>
      <trkpt lat="42.9244" lon="0.18483">
        <ele>1657</ele>
        <time>2019-06-23T08:57:04.103Z</time>
      </trkpt>
      <trkpt lat="42.9244" lon="0.18483">
        <ele>1657</ele>
        <time>2019-06-23T08:57:05.103Z</time>
      </trkpt>
      <trkpt lat="42.9244" lon="0.18483">
        <ele>1657</ele>
        <time>2019-06-23T08:57:06.103Z</time>
      </trkpt>
      <trkpt lat="42.9244" lon="0.18484">
        <ele>1657</ele>
        <time>2019-06-23T08:57:07.103Z</time>
      </trkpt>
      <trkpt lat="42.92439" lon="0.18484">
        <ele>1657</ele>
        <time>2019-06-23T08:57:08.103Z</time>
      </trkpt>
      <trkpt lat="42.92439" lon="0.18485">
        <ele>1658</ele>
        <time>2019-06-23T08:57:09.103Z</time>
      </trkpt>
      <trkpt lat="42.92439" lon="0.18486">
        <ele>1658</ele>
        <time>2019-06-23T08:57:10.103Z</time>
      </trkpt>
      <trkpt lat="42.92438" lon="0.18486">
        <ele>1658</ele>
        <time>2019-06-23T08:57:11.103Z</time>
      </trkpt>
      <trkpt lat="42.92438" lon="0.18486">
        <ele>1658</ele>
        <time>2019-06-23T08:57:12.103Z</time>
      </trkpt>
      <trkpt lat="42.92438" lon="0.18486">
        <ele>1658</ele>
        <time>2019-06-23T08:57:13.103Z</time>
      </trkpt>
      <trkpt lat="42.92438" lon="0.18486">
        <ele>1658</ele>
        <time>2019-06-23T08:57:14.103Z</time>
      </trkpt>
      <trkpt lat="42.92438" lon="0.18486">
        <ele>1658</ele>
        <time>2019-06-23T08:57:15.103Z</time>
      </trkpt>
      <trkpt lat="42.92437" lon="0.18487">
        <ele>1658</ele>
        <time>2019-06-23T08:57:16.103Z</time>
      </trkpt>
      <trkpt lat="42.92437" lon="0.18487">
        <ele>1658</ele>
        <time>2019-06-23T08:57:17.103Z</time>
      </trkpt>
      <trkpt lat="42.92436" lon="0.18487">
        <ele>1658</ele>
        <time>2019-06-23T08:57:18.103Z</time>
      </trkpt>
      <trkpt lat="42.92436" lon="0.18488">
        <ele>1658</ele>
        <time>2019-06-23T08:57:19.103Z</time>
      </trkpt>
      <trkpt lat="42.92435" lon="0.18488">
        <ele>1658</ele>
        <time>2019-06-23T08:57:20.103Z</time>
      </trkpt>
      <trkpt lat="42.92435" lon="0.18489">
        <ele>1659</ele>
        <time>2019-06-23T08:57:21.103Z</time>
      </trkpt>
      <trkpt lat="42.92434" lon="0.18489">
        <ele>1659</ele>
        <time>2019-06-23T08:57:22.103Z</time>
      </trkpt>
      <trkpt lat="42.92434" lon="0.18489">
        <ele>1659</ele>
        <time>2019-06-23T08:57:23.103Z</time>
      </trkpt>
      <trkpt lat="42.92433" lon="0.18489">
        <ele>1659</ele>
        <time>2019-06-23T08:57:24.103Z</time>
      </trkpt>
      <trkpt lat="42.92433" lon="0.1849">
        <ele>1659</ele>
        <time>2019-06-23T08:57:25.103Z</time>
      </trkpt>
      <trkpt lat="42.92432" lon="0.1849">
        <ele>1660</ele>
        <time>2019-06-23T08:57:26.103Z</time>
      </trkpt>
      <trkpt lat="42.92432" lon="0.1849">
        <ele>1660</ele>
        <time>2019-06-23T08:57:27.103Z</time>
      </trkpt>
      <trkpt lat="42.92431" lon="0.18491">
        <ele>1660</ele>
        <time>2019-06-23T08:57:28.103Z</time>
      </trkpt>
      <trkpt lat="42.92431" lon="0.18491">
        <ele>1660</ele>
        <time>2019-06-23T08:57:29.103Z</time>
      </trkpt>
      <trkpt lat="42.92431" lon="0.18492">
        <ele>1660</ele>
        <time>2019-06-23T08:57:30.103Z</time>
      </trkpt>
      <trkpt lat="42.9243" lon="0.18492">
        <ele>1660</ele>
        <time>2019-06-23T08:57:31.103Z</time>
      </trkpt>
      <trkpt lat="42.9243" lon="0.18493">
        <ele>1660</ele>
        <time>2019-06-23T08:57:32.103Z</time>
      </trkpt>
      <trkpt lat="42.92429" lon="0.18493">
        <ele>1660</ele>
        <time>2019-06-23T08:57:33.103Z</time>
      </trkpt>
      <trkpt lat="42.92429" lon="0.18493">
        <ele>1660</ele>
        <time>2019-06-23T08:57:34.103Z</time>
      </trkpt>
      <trkpt lat="42.92428" lon="0.18494">
        <ele>1660</ele>
        <time>2019-06-23T08:57:35.103Z</time>
      </trkpt>
      <trkpt lat="42.92428" lon="0.18494">
        <ele>1660</ele>
        <time>2019-06-23T08:57:36.103Z</time>
      </trkpt>
      <trkpt lat="42.92428" lon="0.18495">
        <ele>1660</ele>
        <time>2019-06-23T08:57:37.103Z</time>
      </trkpt>
      <trkpt lat="42.92427" lon="0.18495">
        <ele>1660</ele>
        <time>2019-06-23T08:57:38.103Z</time>
      </trkpt>
      <trkpt lat="42.92427" lon="0.18496">
        <ele>1660</ele>
        <time>2019-06-23T08:57:39.103Z</time>
      </trkpt>
      <trkpt lat="42.92427" lon="0.18496">
        <ele>1661</ele>
        <time>2019-06-23T08:57:40.103Z</time>
      </trkpt>
      <trkpt lat="42.92426" lon="0.18496">
        <ele>1660</ele>
        <time>2019-06-23T08:57:41.103Z</time>
      </trkpt>
      <trkpt lat="42.92426" lon="0.18497">
        <ele>1660</ele>
        <time>2019-06-23T08:57:42.103Z</time>
      </trkpt>
      <trkpt lat="42.92426" lon="0.18497">
        <ele>1661</ele>
        <time>2019-06-23T08:57:43.103Z</time>
      </trkpt>
      <trkpt lat="42.92425" lon="0.18498">
        <ele>1661</ele>
        <time>2019-06-23T08:57:44.103Z</time>
      </trkpt>
      <trkpt lat="42.92425" lon="0.18499">
        <ele>1661</ele>
        <time>2019-06-23T08:57:45.103Z</time>
      </trkpt>
      <trkpt lat="42.92425" lon="0.18499">
        <ele>1661</ele>
        <time>2019-06-23T08:57:46.103Z</time>
      </trkpt>
      <trkpt lat="42.92424" lon="0.18499">
        <ele>1661</ele>
        <time>2019-06-23T08:57:47.103Z</time>
      </trkpt>
      <trkpt lat="42.92423" lon="0.18499">
        <ele>1660</ele>
        <time>2019-06-23T08:57:48.103Z</time>
      </trkpt>
      <trkpt lat="42.92423" lon="0.18499">
        <ele>1661</ele>
        <time>2019-06-23T08:57:49.103Z</time>
      </trkpt>
      <trkpt lat="42.92423" lon="0.18499">
        <ele>1661</ele>
        <time>2019-06-23T08:57:50.103Z</time>
      </trkpt>
      <trkpt lat="42.92422" lon="0.185">
        <ele>1661</ele>
        <time>2019-06-23T08:57:51.103Z</time>
      </trkpt>
      <trkpt lat="42.92422" lon="0.185">
        <ele>1662</ele>
        <time>2019-06-23T08:57:52.103Z</time>
      </trkpt>
      <trkpt lat="42.92422" lon="0.185">
        <ele>1662</ele>
        <time>2019-06-23T08:57:53.103Z</time>
      </trkpt>
      <trkpt lat="42.92422" lon="0.18501">
        <ele>1663</ele>
        <time>2019-06-23T08:57:54.103Z</time>
      </trkpt>
      <trkpt lat="42.92422" lon="0.18502">
        <ele>1663</ele>
        <time>2019-06-23T08:57:55.103Z</time>
      </trkpt>
      <trkpt lat="42.92421" lon="0.18503">
        <ele>1663</ele>
        <time>2019-06-23T08:57:56.103Z</time>
      </trkpt>
      <trkpt lat="42.92421" lon="0.18504">
        <ele>1664</ele>
        <time>2019-06-23T08:57:57.103Z</time>
      </trkpt>
      <trkpt lat="42.92421" lon="0.18504">
        <ele>1664</ele>
        <time>2019-06-23T08:57:58.103Z</time>
      </trkpt>
      <trkpt lat="42.92421" lon="0.18504">
        <ele>1664</ele>
        <time>2019-06-23T08:57:59.103Z</time>
      </trkpt>
      <trkpt lat="42.9242" lon="0.18505">
        <ele>1664</ele>
        <time>2019-06-23T08:58:00.103Z</time>
      </trkpt>
      <trkpt lat="42.9242" lon="0.18505">
        <ele>1664</ele>
        <time>2019-06-23T08:58:01.103Z</time>
      </trkpt>
      <trkpt lat="42.92419" lon="0.18506">
        <ele>1664</ele>
        <time>2019-06-23T08:58:02.103Z</time>
      </trkpt>
      <trkpt lat="42.92419" lon="0.18506">
        <ele>1664</ele>
        <time>2019-06-23T08:58:03.103Z</time>
      </trkpt>
      <trkpt lat="42.92419" lon="0.18506">
        <ele>1664</ele>
        <time>2019-06-23T08:58:04.103Z</time>
      </trkpt>
      <trkpt lat="42.92418" lon="0.18507">
        <ele>1664</ele>
        <time>2019-06-23T08:58:05.103Z</time>
      </trkpt>
      <trkpt lat="42.92418" lon="0.18507">
        <ele>1665</ele>
        <time>2019-06-23T08:58:06.103Z</time>
      </trkpt>
      <trkpt lat="42.92417" lon="0.18508">
        <ele>1665</ele>
        <time>2019-06-23T08:58:07.103Z</time>
      </trkpt>
      <trkpt lat="42.92417" lon="0.18508">
        <ele>1665</ele>
        <time>2019-06-23T08:58:08.103Z</time>
      </trkpt>
      <trkpt lat="42.92417" lon="0.18508">
        <ele>1665</ele>
        <time>2019-06-23T08:58:09.103Z</time>
      </trkpt>
      <trkpt lat="42.92417" lon="0.18508">
        <ele>1665</ele>
        <time>2019-06-23T08:58:10.103Z</time>
      </trkpt>
      <trkpt lat="42.92417" lon="0.18508">
        <ele>1665</ele>
        <time>2019-06-23T08:58:11.103Z</time>
      </trkpt>
      <trkpt lat="42.92417" lon="0.18508">
        <ele>1665</ele>
        <time>2019-06-23T08:58:12.103Z</time>
      </trkpt>
      <trkpt lat="42.92417" lon="0.18508">
        <ele>1666</ele>
        <time>2019-06-23T08:58:13.103Z</time>
      </trkpt>
      <trkpt lat="42.92417" lon="0.18508">
        <ele>1666</ele>
        <time>2019-06-23T08:58:14.103Z</time>
      </trkpt>
      <trkpt lat="42.92415" lon="0.1851">
        <ele>1665</ele>
        <time>2019-06-23T08:58:16.099Z</time>
      </trkpt>
      <trkpt lat="42.92415" lon="0.1851">
        <ele>1665</ele>
        <time>2019-06-23T08:58:17.099Z</time>
      </trkpt>
      <trkpt lat="42.92415" lon="0.1851">
        <ele>1666</ele>
        <time>2019-06-23T08:58:18.099Z</time>
      </trkpt>
      <trkpt lat="42.92415" lon="0.18511">
        <ele>1666</ele>
        <time>2019-06-23T08:58:19.099Z</time>
      </trkpt>
      <trkpt lat="42.92415" lon="0.18511">
        <ele>1666</ele>
        <time>2019-06-23T08:58:20.099Z</time>
      </trkpt>
      <trkpt lat="42.92414" lon="0.18512">
        <ele>1666</ele>
        <time>2019-06-23T08:58:21.099Z</time>
      </trkpt>
      <trkpt lat="42.92414" lon="0.18512">
        <ele>1666</ele>
        <time>2019-06-23T08:58:22.099Z</time>
      </trkpt>
      <trkpt lat="42.92413" lon="0.18513">
        <ele>1666</ele>
        <time>2019-06-23T08:58:23.099Z</time>
      </trkpt>
      <trkpt lat="42.92413" lon="0.18513">
        <ele>1666</ele>
        <time>2019-06-23T08:58:24.099Z</time>
      </trkpt>
      <trkpt lat="42.92413" lon="0.18514">
        <ele>1666</ele>
        <time>2019-06-23T08:58:25.099Z</time>
      </trkpt>
      <trkpt lat="42.92412" lon="0.18514">
        <ele>1666</ele>
        <time>2019-06-23T08:58:26.099Z</time>
      </trkpt>
      <trkpt lat="42.92412" lon="0.18514">
        <ele>1666</ele>
        <time>2019-06-23T08:58:27.099Z</time>
      </trkpt>
      <trkpt lat="42.92412" lon="0.18514">
        <ele>1666</ele>
        <time>2019-06-23T08:58:28.099Z</time>
      </trkpt>
      <trkpt lat="42.92412" lon="0.18514">
        <ele>1665</ele>
        <time>2019-06-23T08:58:29.099Z</time>
      </trkpt>
      <trkpt lat="42.92412" lon="0.18514">
        <ele>1665</ele>
        <time>2019-06-23T08:58:30.099Z</time>
      </trkpt>
      <trkpt lat="42.92413" lon="0.18513">
        <ele>1665</ele>
        <time>2019-06-23T08:58:31.099Z</time>
      </trkpt>
      <trkpt lat="42.92413" lon="0.18513">
        <ele>1665</ele>
        <time>2019-06-23T08:58:32.099Z</time>
      </trkpt>
      <trkpt lat="42.92413" lon="0.18514">
        <ele>1665</ele>
        <time>2019-06-23T08:58:33.099Z</time>
      </trkpt>
      <trkpt lat="42.92413" lon="0.18514">
        <ele>1665</ele>
        <time>2019-06-23T08:58:34.099Z</time>
      </trkpt>
      <trkpt lat="42.92412" lon="0.18515">
        <ele>1665</ele>
        <time>2019-06-23T08:58:35.099Z</time>
      </trkpt>
      <trkpt lat="42.92412" lon="0.18515">
        <ele>1665</ele>
        <time>2019-06-23T08:58:36.099Z</time>
      </trkpt>
      <trkpt lat="42.92411" lon="0.18515">
        <ele>1665</ele>
        <time>2019-06-23T08:58:37.099Z</time>
      </trkpt>
      <trkpt lat="42.92411" lon="0.18515">
        <ele>1665</ele>
        <time>2019-06-23T08:58:38.099Z</time>
      </trkpt>
      <trkpt lat="42.92411" lon="0.18515">
        <ele>1665</ele>
        <time>2019-06-23T08:58:39.099Z</time>
      </trkpt>
      <trkpt lat="42.9241" lon="0.18516">
        <ele>1666</ele>
        <time>2019-06-23T08:58:40.110Z</time>
      </trkpt>
      <trkpt lat="42.9241" lon="0.18516">
        <ele>1665</ele>
        <time>2019-06-23T08:58:41.110Z</time>
      </trkpt>
      <trkpt lat="42.92409" lon="0.18517">
        <ele>1665</ele>
        <time>2019-06-23T08:58:42.110Z</time>
      </trkpt>
      <trkpt lat="42.92408" lon="0.18517">
        <ele>1665</ele>
        <time>2019-06-23T08:58:43.110Z</time>
      </trkpt>
      <trkpt lat="42.92408" lon="0.18517">
        <ele>1665</ele>
        <time>2019-06-23T08:58:44.110Z</time>
      </trkpt>
      <trkpt lat="42.92407" lon="0.18517">
        <ele>1665</ele>
        <time>2019-06-23T08:58:45.110Z</time>
      </trkpt>
      <trkpt lat="42.92407" lon="0.18517">
        <ele>1665</ele>
        <time>2019-06-23T08:58:46.110Z</time>
      </trkpt>
      <trkpt lat="42.92406" lon="0.18518">
        <ele>1665</ele>
        <time>2019-06-23T08:58:47.110Z</time>
      </trkpt>
      <trkpt lat="42.92406" lon="0.18518">
        <ele>1665</ele>
        <time>2019-06-23T08:58:48.110Z</time>
      </trkpt>
      <trkpt lat="42.92405" lon="0.18519">
        <ele>1665</ele>
        <time>2019-06-23T08:58:49.110Z</time>
      </trkpt>
      <trkpt lat="42.92404" lon="0.18519">
        <ele>1665</ele>
        <time>2019-06-23T08:58:50.110Z</time>
      </trkpt>
      <trkpt lat="42.92404" lon="0.1852">
        <ele>1665</ele>
        <time>2019-06-23T08:58:51.110Z</time>
      </trkpt>
      <trkpt lat="42.92403" lon="0.1852">
        <ele>1665</ele>
        <time>2019-06-23T08:58:52.110Z</time>
      </trkpt>
      <trkpt lat="42.92403" lon="0.18521">
        <ele>1665</ele>
        <time>2019-06-23T08:58:53.110Z</time>
      </trkpt>
      <trkpt lat="42.92402" lon="0.18521">
        <ele>1664</ele>
        <time>2019-06-23T08:58:54.110Z</time>
      </trkpt>
      <trkpt lat="42.92402" lon="0.18522">
        <ele>1664</ele>
        <time>2019-06-23T08:58:55.110Z</time>
      </trkpt>
      <trkpt lat="42.92401" lon="0.18522">
        <ele>1664</ele>
        <time>2019-06-23T08:58:56.110Z</time>
      </trkpt>
      <trkpt lat="42.924" lon="0.18523">
        <ele>1664</ele>
        <time>2019-06-23T08:58:57.110Z</time>
      </trkpt>
      <trkpt lat="42.92399" lon="0.18523">
        <ele>1664</ele>
        <time>2019-06-23T08:58:58.110Z</time>
      </trkpt>
      <trkpt lat="42.92399" lon="0.18523">
        <ele>1664</ele>
        <time>2019-06-23T08:58:59.110Z</time>
      </trkpt>
      <trkpt lat="42.92398" lon="0.18524">
        <ele>1664</ele>
        <time>2019-06-23T08:59:00.110Z</time>
      </trkpt>
      <trkpt lat="42.92398" lon="0.18524">
        <ele>1664</ele>
        <time>2019-06-23T08:59:01.110Z</time>
      </trkpt>
      <trkpt lat="42.92397" lon="0.18525">
        <ele>1664</ele>
        <time>2019-06-23T08:59:02.110Z</time>
      </trkpt>
      <trkpt lat="42.92396" lon="0.18525">
        <ele>1664</ele>
        <time>2019-06-23T08:59:03.110Z</time>
      </trkpt>
      <trkpt lat="42.92396" lon="0.18525">
        <ele>1664</ele>
        <time>2019-06-23T08:59:04.110Z</time>
      </trkpt>
      <trkpt lat="42.92395" lon="0.18526">
        <ele>1664</ele>
        <time>2019-06-23T08:59:05.110Z</time>
      </trkpt>
      <trkpt lat="42.92394" lon="0.18526">
        <ele>1664</ele>
        <time>2019-06-23T08:59:06.110Z</time>
      </trkpt>
      <trkpt lat="42.92394" lon="0.18526">
        <ele>1664</ele>
        <time>2019-06-23T08:59:07.110Z</time>
      </trkpt>
      <trkpt lat="42.92393" lon="0.18527">
        <ele>1664</ele>
        <time>2019-06-23T08:59:08.110Z</time>
      </trkpt>
      <trkpt lat="42.92392" lon="0.18528">
        <ele>1664</ele>
        <time>2019-06-23T08:59:09.110Z</time>
      </trkpt>
      <trkpt lat="42.92392" lon="0.18528">
        <ele>1664</ele>
        <time>2019-06-23T08:59:10.110Z</time>
      </trkpt>
      <trkpt lat="42.92391" lon="0.18528">
        <ele>1664</ele>
        <time>2019-06-23T08:59:11.110Z</time>
      </trkpt>
      <trkpt lat="42.9239" lon="0.18528">
        <ele>1664</ele>
        <time>2019-06-23T08:59:12.110Z</time>
      </trkpt>
      <trkpt lat="42.92389" lon="0.18529">
        <ele>1664</ele>
        <time>2019-06-23T08:59:13.110Z</time>
      </trkpt>
      <trkpt lat="42.92389" lon="0.18529">
        <ele>1664</ele>
        <time>2019-06-23T08:59:14.110Z</time>
      </trkpt>
      <trkpt lat="42.92388" lon="0.18529">
        <ele>1664</ele>
        <time>2019-06-23T08:59:15.110Z</time>
      </trkpt>
      <trkpt lat="42.92387" lon="0.1853">
        <ele>1664</ele>
        <time>2019-06-23T08:59:16.110Z</time>
      </trkpt>
      <trkpt lat="42.92386" lon="0.1853">
        <ele>1664</ele>
        <time>2019-06-23T08:59:17.110Z</time>
      </trkpt>
      <trkpt lat="42.92386" lon="0.1853">
        <ele>1664</ele>
        <time>2019-06-23T08:59:18.110Z</time>
      </trkpt>
      <trkpt lat="42.92385" lon="0.1853">
        <ele>1664</ele>
        <time>2019-06-23T08:59:19.110Z</time>
      </trkpt>
      <trkpt lat="42.92385" lon="0.18531">
        <ele>1664</ele>
        <time>2019-06-23T08:59:20.110Z</time>
      </trkpt>
      <trkpt lat="42.92384" lon="0.18531">
        <ele>1664</ele>
        <time>2019-06-23T08:59:21.110Z</time>
      </trkpt>
      <trkpt lat="42.92383" lon="0.18531">
        <ele>1664</ele>
        <time>2019-06-23T08:59:22.110Z</time>
      </trkpt>
      <trkpt lat="42.92382" lon="0.18531">
        <ele>1664</ele>
        <time>2019-06-23T08:59:23.110Z</time>
      </trkpt>
      <trkpt lat="42.92382" lon="0.18531">
        <ele>1664</ele>
        <time>2019-06-23T08:59:24.110Z</time>
      </trkpt>
      <trkpt lat="42.92381" lon="0.18532">
        <ele>1664</ele>
        <time>2019-06-23T08:59:25.110Z</time>
      </trkpt>
      <trkpt lat="42.92381" lon="0.18532">
        <ele>1664</ele>
        <time>2019-06-23T08:59:26.110Z</time>
      </trkpt>
      <trkpt lat="42.9238" lon="0.18532">
        <ele>1664</ele>
        <time>2019-06-23T08:59:27.110Z</time>
      </trkpt>
      <trkpt lat="42.9238" lon="0.18532">
        <ele>1665</ele>
        <time>2019-06-23T08:59:28.110Z</time>
      </trkpt>
      <trkpt lat="42.92379" lon="0.18533">
        <ele>1665</ele>
        <time>2019-06-23T08:59:29.110Z</time>
      </trkpt>
      <trkpt lat="42.92378" lon="0.18533">
        <ele>1665</ele>
        <time>2019-06-23T08:59:30.110Z</time>
      </trkpt>
      <trkpt lat="42.92378" lon="0.18533">
        <ele>1665</ele>
        <time>2019-06-23T08:59:31.110Z</time>
      </trkpt>
      <trkpt lat="42.92377" lon="0.18534">
        <ele>1665</ele>
        <time>2019-06-23T08:59:32.110Z</time>
      </trkpt>
      <trkpt lat="42.92376" lon="0.18534">
        <ele>1665</ele>
        <time>2019-06-23T08:59:33.110Z</time>
      </trkpt>
      <trkpt lat="42.92376" lon="0.18535">
        <ele>1665</ele>
        <time>2019-06-23T08:59:34.110Z</time>
      </trkpt>
      <trkpt lat="42.92375" lon="0.18535">
        <ele>1665</ele>
        <time>2019-06-23T08:59:35.110Z</time>
      </trkpt>
      <trkpt lat="42.92375" lon="0.18536">
        <ele>1665</ele>
        <time>2019-06-23T08:59:36.110Z</time>
      </trkpt>
      <trkpt lat="42.92374" lon="0.18536">
        <ele>1665</ele>
        <time>2019-06-23T08:59:37.110Z</time>
      </trkpt>
      <trkpt lat="42.92374" lon="0.18537">
        <ele>1665</ele>
        <time>2019-06-23T08:59:38.110Z</time>
      </trkpt>
      <trkpt lat="42.92373" lon="0.18537">
        <ele>1665</ele>
        <time>2019-06-23T08:59:39.110Z</time>
      </trkpt>
      <trkpt lat="42.92372" lon="0.18538">
        <ele>1665</ele>
        <time>2019-06-23T08:59:40.110Z</time>
      </trkpt>
      <trkpt lat="42.92372" lon="0.18538">
        <ele>1665</ele>
        <time>2019-06-23T08:59:41.110Z</time>
      </trkpt>
      <trkpt lat="42.92371" lon="0.18539">
        <ele>1666</ele>
        <time>2019-06-23T08:59:42.110Z</time>
      </trkpt>
      <trkpt lat="42.9237" lon="0.1854">
        <ele>1665</ele>
        <time>2019-06-23T08:59:43.110Z</time>
      </trkpt>
      <trkpt lat="42.9237" lon="0.1854">
        <ele>1665</ele>
        <time>2019-06-23T08:59:44.110Z</time>
      </trkpt>
      <trkpt lat="42.92369" lon="0.18541">
        <ele>1666</ele>
        <time>2019-06-23T08:59:45.110Z</time>
      </trkpt>
      <trkpt lat="42.92368" lon="0.18543">
        <ele>1666</ele>
        <time>2019-06-23T08:59:46.110Z</time>
      </trkpt>
      <trkpt lat="42.92368" lon="0.18543">
        <ele>1666</ele>
        <time>2019-06-23T08:59:47.110Z</time>
      </trkpt>
      <trkpt lat="42.92368" lon="0.18543">
        <ele>1666</ele>
        <time>2019-06-23T08:59:48.110Z</time>
      </trkpt>
      <trkpt lat="42.92367" lon="0.18544">
        <ele>1666</ele>
        <time>2019-06-23T08:59:49.110Z</time>
      </trkpt>
      <trkpt lat="42.92366" lon="0.18545">
        <ele>1666</ele>
        <time>2019-06-23T08:59:50.110Z</time>
      </trkpt>
      <trkpt lat="42.92366" lon="0.18545">
        <ele>1666</ele>
        <time>2019-06-23T08:59:51.110Z</time>
      </trkpt>
      <trkpt lat="42.92365" lon="0.18546">
        <ele>1666</ele>
        <time>2019-06-23T08:59:52.110Z</time>
      </trkpt>
      <trkpt lat="42.92365" lon="0.18547">
        <ele>1666</ele>
        <time>2019-06-23T08:59:53.110Z</time>
      </trkpt>
      <trkpt lat="42.92364" lon="0.18548">
        <ele>1666</ele>
        <time>2019-06-23T08:59:54.110Z</time>
      </trkpt>
      <trkpt lat="42.92363" lon="0.18548">
        <ele>1666</ele>
        <time>2019-06-23T08:59:55.110Z</time>
      </trkpt>
      <trkpt lat="42.92363" lon="0.18549">
        <ele>1666</ele>
        <time>2019-06-23T08:59:56.110Z</time>
      </trkpt>
      <trkpt lat="42.92362" lon="0.18549">
        <ele>1667</ele>
        <time>2019-06-23T08:59:57.110Z</time>
      </trkpt>
      <trkpt lat="42.92362" lon="0.1855">
        <ele>1667</ele>
        <time>2019-06-23T08:59:58.110Z</time>
      </trkpt>
      <trkpt lat="42.92361" lon="0.18551">
        <ele>1666</ele>
        <time>2019-06-23T08:59:59.110Z</time>
      </trkpt>
      <trkpt lat="42.9236" lon="0.18551">
        <ele>1667</ele>
        <time>2019-06-23T09:00:00.110Z</time>
      </trkpt>
      <trkpt lat="42.9236" lon="0.18552">
        <ele>1667</ele>
        <time>2019-06-23T09:00:01.110Z</time>
      </trkpt>
      <trkpt lat="42.92359" lon="0.18552">
        <ele>1667</ele>
        <time>2019-06-23T09:00:02.110Z</time>
      </trkpt>
      <trkpt lat="42.92359" lon="0.18553">
        <ele>1667</ele>
        <time>2019-06-23T09:00:03.110Z</time>
      </trkpt>
      <trkpt lat="42.92358" lon="0.18554">
        <ele>1667</ele>
        <time>2019-06-23T09:00:04.110Z</time>
      </trkpt>
      <trkpt lat="42.92358" lon="0.18554">
        <ele>1667</ele>
        <time>2019-06-23T09:00:05.110Z</time>
      </trkpt>
      <trkpt lat="42.92357" lon="0.18554">
        <ele>1667</ele>
        <time>2019-06-23T09:00:06.110Z</time>
      </trkpt>
      <trkpt lat="42.92356" lon="0.18555">
        <ele>1667</ele>
        <time>2019-06-23T09:00:07.110Z</time>
      </trkpt>
      <trkpt lat="42.92356" lon="0.18555">
        <ele>1667</ele>
        <time>2019-06-23T09:00:08.110Z</time>
      </trkpt>
      <trkpt lat="42.92355" lon="0.18556">
        <ele>1667</ele>
        <time>2019-06-23T09:00:09.110Z</time>
      </trkpt>
      <trkpt lat="42.92354" lon="0.18556">
        <ele>1667</ele>
        <time>2019-06-23T09:00:10.110Z</time>
      </trkpt>
      <trkpt lat="42.92354" lon="0.18557">
        <ele>1667</ele>
        <time>2019-06-23T09:00:11.110Z</time>
      </trkpt>
      <trkpt lat="42.92353" lon="0.18557">
        <ele>1667</ele>
        <time>2019-06-23T09:00:12.110Z</time>
      </trkpt>
      <trkpt lat="42.92352" lon="0.18558">
        <ele>1668</ele>
        <time>2019-06-23T09:00:13.110Z</time>
      </trkpt>
      <trkpt lat="42.92352" lon="0.18558">
        <ele>1668</ele>
        <time>2019-06-23T09:00:14.110Z</time>
      </trkpt>
      <trkpt lat="42.92351" lon="0.18559">
        <ele>1668</ele>
        <time>2019-06-23T09:00:15.110Z</time>
      </trkpt>
      <trkpt lat="42.9235" lon="0.18559">
        <ele>1668</ele>
        <time>2019-06-23T09:00:16.110Z</time>
      </trkpt>
      <trkpt lat="42.9235" lon="0.18559">
        <ele>1667</ele>
        <time>2019-06-23T09:00:17.110Z</time>
      </trkpt>
      <trkpt lat="42.92349" lon="0.1856">
        <ele>1667</ele>
        <time>2019-06-23T09:00:18.110Z</time>
      </trkpt>
      <trkpt lat="42.92348" lon="0.1856">
        <ele>1667</ele>
        <time>2019-06-23T09:00:19.110Z</time>
      </trkpt>
      <trkpt lat="42.92348" lon="0.1856">
        <ele>1667</ele>
        <time>2019-06-23T09:00:20.110Z</time>
      </trkpt>
      <trkpt lat="42.92347" lon="0.1856">
        <ele>1667</ele>
        <time>2019-06-23T09:00:21.110Z</time>
      </trkpt>
      <trkpt lat="42.92347" lon="0.1856">
        <ele>1667</ele>
        <time>2019-06-23T09:00:22.110Z</time>
      </trkpt>
      <trkpt lat="42.92346" lon="0.18561">
        <ele>1667</ele>
        <time>2019-06-23T09:00:23.110Z</time>
      </trkpt>
      <trkpt lat="42.92345" lon="0.18561">
        <ele>1667</ele>
        <time>2019-06-23T09:00:24.110Z</time>
      </trkpt>
      <trkpt lat="42.92345" lon="0.18562">
        <ele>1667</ele>
        <time>2019-06-23T09:00:25.110Z</time>
      </trkpt>
      <trkpt lat="42.92344" lon="0.18562">
        <ele>1667</ele>
        <time>2019-06-23T09:00:26.110Z</time>
      </trkpt>
      <trkpt lat="42.92344" lon="0.18562">
        <ele>1666</ele>
        <time>2019-06-23T09:00:27.110Z</time>
      </trkpt>
      <trkpt lat="42.92343" lon="0.18563">
        <ele>1667</ele>
        <time>2019-06-23T09:00:28.110Z</time>
      </trkpt>
      <trkpt lat="42.92342" lon="0.18563">
        <ele>1667</ele>
        <time>2019-06-23T09:00:29.110Z</time>
      </trkpt>
      <trkpt lat="42.92341" lon="0.18563">
        <ele>1667</ele>
        <time>2019-06-23T09:00:30.110Z</time>
      </trkpt>
      <trkpt lat="42.9234" lon="0.18563">
        <ele>1667</ele>
        <time>2019-06-23T09:00:31.110Z</time>
      </trkpt>
      <trkpt lat="42.92339" lon="0.18563">
        <ele>1667</ele>
        <time>2019-06-23T09:00:32.110Z</time>
      </trkpt>
      <trkpt lat="42.92339" lon="0.18563">
        <ele>1667</ele>
        <time>2019-06-23T09:00:33.110Z</time>
      </trkpt>
      <trkpt lat="42.92338" lon="0.18564">
        <ele>1667</ele>
        <time>2019-06-23T09:00:34.110Z</time>
      </trkpt>
      <trkpt lat="42.92337" lon="0.18564">
        <ele>1667</ele>
        <time>2019-06-23T09:00:35.110Z</time>
      </trkpt>
      <trkpt lat="42.92336" lon="0.18564">
        <ele>1667</ele>
        <time>2019-06-23T09:00:36.110Z</time>
      </trkpt>
      <trkpt lat="42.92336" lon="0.18564">
        <ele>1667</ele>
        <time>2019-06-23T09:00:37.110Z</time>
      </trkpt>
      <trkpt lat="42.92335" lon="0.18564">
        <ele>1667</ele>
        <time>2019-06-23T09:00:38.110Z</time>
      </trkpt>
      <trkpt lat="42.92335" lon="0.18564">
        <ele>1667</ele>
        <time>2019-06-23T09:00:39.110Z</time>
      </trkpt>
      <trkpt lat="42.92335" lon="0.18564">
        <ele>1667</ele>
        <time>2019-06-23T09:00:40.110Z</time>
      </trkpt>
      <trkpt lat="42.92335" lon="0.18563">
        <ele>1667</ele>
        <time>2019-06-23T09:00:41.110Z</time>
      </trkpt>
      <trkpt lat="42.92335" lon="0.18563">
        <ele>1667</ele>
        <time>2019-06-23T09:00:42.110Z</time>
      </trkpt>
      <trkpt lat="42.92335" lon="0.18563">
        <ele>1667</ele>
        <time>2019-06-23T09:00:43.110Z</time>
      </trkpt>
      <trkpt lat="42.92335" lon="0.18563">
        <ele>1667</ele>
        <time>2019-06-23T09:00:44.110Z</time>
      </trkpt>
      <trkpt lat="42.92335" lon="0.18563">
        <ele>1667</ele>
        <time>2019-06-23T09:00:45.110Z</time>
      </trkpt>
      <trkpt lat="42.92332" lon="0.18564">
        <ele>1667</ele>
        <time>2019-06-23T09:00:46.114Z</time>
      </trkpt>
      <trkpt lat="42.92331" lon="0.18564">
        <ele>1667</ele>
        <time>2019-06-23T09:00:47.114Z</time>
      </trkpt>
      <trkpt lat="42.9233" lon="0.18565">
        <ele>1667</ele>
        <time>2019-06-23T09:00:48.114Z</time>
      </trkpt>
      <trkpt lat="42.92329" lon="0.18565">
        <ele>1667</ele>
        <time>2019-06-23T09:00:49.114Z</time>
      </trkpt>
      <trkpt lat="42.92328" lon="0.18565">
        <ele>1667</ele>
        <time>2019-06-23T09:00:50.114Z</time>
      </trkpt>
      <trkpt lat="42.92327" lon="0.18566">
        <ele>1667</ele>
        <time>2019-06-23T09:00:51.114Z</time>
      </trkpt>
      <trkpt lat="42.92326" lon="0.18566">
        <ele>1667</ele>
        <time>2019-06-23T09:00:52.114Z</time>
      </trkpt>
      <trkpt lat="42.92325" lon="0.18566">
        <ele>1667</ele>
        <time>2019-06-23T09:00:53.114Z</time>
      </trkpt>
      <trkpt lat="42.92324" lon="0.18566">
        <ele>1668</ele>
        <time>2019-06-23T09:00:54.114Z</time>
      </trkpt>
      <trkpt lat="42.92324" lon="0.18567">
        <ele>1668</ele>
        <time>2019-06-23T09:00:55.114Z</time>
      </trkpt>
      <trkpt lat="42.92322" lon="0.18567">
        <ele>1667</ele>
        <time>2019-06-23T09:00:56.114Z</time>
      </trkpt>
      <trkpt lat="42.92322" lon="0.18567">
        <ele>1667</ele>
        <time>2019-06-23T09:00:57.114Z</time>
      </trkpt>
      <trkpt lat="42.92321" lon="0.18568">
        <ele>1667</ele>
        <time>2019-06-23T09:00:58.114Z</time>
      </trkpt>
      <trkpt lat="42.9232" lon="0.18568">
        <ele>1667</ele>
        <time>2019-06-23T09:00:59.114Z</time>
      </trkpt>
      <trkpt lat="42.9232" lon="0.18568">
        <ele>1667</ele>
        <time>2019-06-23T09:01:00.114Z</time>
      </trkpt>
      <trkpt lat="42.92319" lon="0.18569">
        <ele>1667</ele>
        <time>2019-06-23T09:01:01.114Z</time>
      </trkpt>
      <trkpt lat="42.92318" lon="0.18569">
        <ele>1667</ele>
        <time>2019-06-23T09:01:02.114Z</time>
      </trkpt>
      <trkpt lat="42.92317" lon="0.18569">
        <ele>1667</ele>
        <time>2019-06-23T09:01:03.114Z</time>
      </trkpt>
      <trkpt lat="42.92317" lon="0.1857">
        <ele>1668</ele>
        <time>2019-06-23T09:01:04.114Z</time>
      </trkpt>
      <trkpt lat="42.92316" lon="0.1857">
        <ele>1668</ele>
        <time>2019-06-23T09:01:05.114Z</time>
      </trkpt>
      <trkpt lat="42.92315" lon="0.18571">
        <ele>1668</ele>
        <time>2019-06-23T09:01:06.114Z</time>
      </trkpt>
      <trkpt lat="42.92315" lon="0.18571">
        <ele>1668</ele>
        <time>2019-06-23T09:01:07.114Z</time>
      </trkpt>
      <trkpt lat="42.92314" lon="0.18572">
        <ele>1668</ele>
        <time>2019-06-23T09:01:08.114Z</time>
      </trkpt>
      <trkpt lat="42.92313" lon="0.18572">
        <ele>1668</ele>
        <time>2019-06-23T09:01:09.114Z</time>
      </trkpt>
      <trkpt lat="42.92312" lon="0.18573">
        <ele>1668</ele>
        <time>2019-06-23T09:01:10.114Z</time>
      </trkpt>
      <trkpt lat="42.92312" lon="0.18573">
        <ele>1668</ele>
        <time>2019-06-23T09:01:11.114Z</time>
      </trkpt>
      <trkpt lat="42.92312" lon="0.18573">
        <ele>1668</ele>
        <time>2019-06-23T09:01:12.114Z</time>
      </trkpt>
      <trkpt lat="42.92312" lon="0.18573">
        <ele>1668</ele>
        <time>2019-06-23T09:01:13.114Z</time>
      </trkpt>
      <trkpt lat="42.92311" lon="0.18574">
        <ele>1668</ele>
        <time>2019-06-23T09:01:14.114Z</time>
      </trkpt>
      <trkpt lat="42.9231" lon="0.18574">
        <ele>1668</ele>
        <time>2019-06-23T09:01:15.114Z</time>
      </trkpt>
      <trkpt lat="42.9231" lon="0.18575">
        <ele>1668</ele>
        <time>2019-06-23T09:01:16.114Z</time>
      </trkpt>
      <trkpt lat="42.92309" lon="0.18575">
        <ele>1668</ele>
        <time>2019-06-23T09:01:17.114Z</time>
      </trkpt>
      <trkpt lat="42.92308" lon="0.18576">
        <ele>1668</ele>
        <time>2019-06-23T09:01:18.114Z</time>
      </trkpt>
      <trkpt lat="42.92308" lon="0.18577">
        <ele>1668</ele>
        <time>2019-06-23T09:01:19.114Z</time>
      </trkpt>
      <trkpt lat="42.92307" lon="0.18578">
        <ele>1668</ele>
        <time>2019-06-23T09:01:20.114Z</time>
      </trkpt>
      <trkpt lat="42.92307" lon="0.18578">
        <ele>1668</ele>
        <time>2019-06-23T09:01:21.114Z</time>
      </trkpt>
      <trkpt lat="42.92306" lon="0.18579">
        <ele>1668</ele>
        <time>2019-06-23T09:01:22.114Z</time>
      </trkpt>
      <trkpt lat="42.92306" lon="0.18579">
        <ele>1668</ele>
        <time>2019-06-23T09:01:23.114Z</time>
      </trkpt>
      <trkpt lat="42.92305" lon="0.1858">
        <ele>1668</ele>
        <time>2019-06-23T09:01:24.114Z</time>
      </trkpt>
      <trkpt lat="42.92305" lon="0.1858">
        <ele>1668</ele>
        <time>2019-06-23T09:01:25.114Z</time>
      </trkpt>
      <trkpt lat="42.92304" lon="0.18581">
        <ele>1668</ele>
        <time>2019-06-23T09:01:26.114Z</time>
      </trkpt>
      <trkpt lat="42.92304" lon="0.18581">
        <ele>1668</ele>
        <time>2019-06-23T09:01:27.114Z</time>
      </trkpt>
      <trkpt lat="42.92303" lon="0.18582">
        <ele>1668</ele>
        <time>2019-06-23T09:01:28.114Z</time>
      </trkpt>
      <trkpt lat="42.92303" lon="0.18583">
        <ele>1668</ele>
        <time>2019-06-23T09:01:29.114Z</time>
      </trkpt>
      <trkpt lat="42.92302" lon="0.18583">
        <ele>1668</ele>
        <time>2019-06-23T09:01:30.114Z</time>
      </trkpt>
      <trkpt lat="42.92301" lon="0.18584">
        <ele>1668</ele>
        <time>2019-06-23T09:01:31.114Z</time>
      </trkpt>
      <trkpt lat="42.92301" lon="0.18585">
        <ele>1668</ele>
        <time>2019-06-23T09:01:32.114Z</time>
      </trkpt>
      <trkpt lat="42.923" lon="0.18586">
        <ele>1669</ele>
        <time>2019-06-23T09:01:33.114Z</time>
      </trkpt>
      <trkpt lat="42.923" lon="0.18586">
        <ele>1668</ele>
        <time>2019-06-23T09:01:34.114Z</time>
      </trkpt>
      <trkpt lat="42.92299" lon="0.18587">
        <ele>1669</ele>
        <time>2019-06-23T09:01:35.114Z</time>
      </trkpt>
      <trkpt lat="42.92299" lon="0.18587">
        <ele>1669</ele>
        <time>2019-06-23T09:01:36.114Z</time>
      </trkpt>
      <trkpt lat="42.92299" lon="0.18588">
        <ele>1669</ele>
        <time>2019-06-23T09:01:37.114Z</time>
      </trkpt>
      <trkpt lat="42.92298" lon="0.18588">
        <ele>1669</ele>
        <time>2019-06-23T09:01:38.114Z</time>
      </trkpt>
      <trkpt lat="42.92298" lon="0.18589">
        <ele>1669</ele>
        <time>2019-06-23T09:01:39.114Z</time>
      </trkpt>
      <trkpt lat="42.92297" lon="0.18589">
        <ele>1669</ele>
        <time>2019-06-23T09:01:40.114Z</time>
      </trkpt>
      <trkpt lat="42.92296" lon="0.1859">
        <ele>1669</ele>
        <time>2019-06-23T09:01:41.114Z</time>
      </trkpt>
      <trkpt lat="42.92296" lon="0.1859">
        <ele>1669</ele>
        <time>2019-06-23T09:01:42.114Z</time>
      </trkpt>
      <trkpt lat="42.92295" lon="0.18591">
        <ele>1669</ele>
        <time>2019-06-23T09:01:43.114Z</time>
      </trkpt>
      <trkpt lat="42.92295" lon="0.18591">
        <ele>1669</ele>
        <time>2019-06-23T09:01:44.114Z</time>
      </trkpt>
      <trkpt lat="42.92294" lon="0.18592">
        <ele>1669</ele>
        <time>2019-06-23T09:01:45.114Z</time>
      </trkpt>
      <trkpt lat="42.92294" lon="0.18592">
        <ele>1669</ele>
        <time>2019-06-23T09:01:46.114Z</time>
      </trkpt>
      <trkpt lat="42.92294" lon="0.18593">
        <ele>1669</ele>
        <time>2019-06-23T09:01:47.114Z</time>
      </trkpt>
      <trkpt lat="42.92293" lon="0.18594">
        <ele>1669</ele>
        <time>2019-06-23T09:01:48.114Z</time>
      </trkpt>
      <trkpt lat="42.92293" lon="0.18595">
        <ele>1669</ele>
        <time>2019-06-23T09:01:49.114Z</time>
      </trkpt>
      <trkpt lat="42.92293" lon="0.18596">
        <ele>1669</ele>
        <time>2019-06-23T09:01:50.114Z</time>
      </trkpt>
      <trkpt lat="42.92293" lon="0.18597">
        <ele>1669</ele>
        <time>2019-06-23T09:01:51.114Z</time>
      </trkpt>
      <trkpt lat="42.92292" lon="0.18598">
        <ele>1669</ele>
        <time>2019-06-23T09:01:52.114Z</time>
      </trkpt>
      <trkpt lat="42.92292" lon="0.18599">
        <ele>1669</ele>
        <time>2019-06-23T09:01:53.114Z</time>
      </trkpt>
      <trkpt lat="42.92292" lon="0.18599">
        <ele>1669</ele>
        <time>2019-06-23T09:01:54.114Z</time>
      </trkpt>
      <trkpt lat="42.92291" lon="0.186">
        <ele>1670</ele>
        <time>2019-06-23T09:01:55.114Z</time>
      </trkpt>
      <trkpt lat="42.9229" lon="0.18601">
        <ele>1670</ele>
        <time>2019-06-23T09:01:56.114Z</time>
      </trkpt>
      <trkpt lat="42.92289" lon="0.18601">
        <ele>1670</ele>
        <time>2019-06-23T09:01:57.114Z</time>
      </trkpt>
      <trkpt lat="42.92288" lon="0.18602">
        <ele>1670</ele>
        <time>2019-06-23T09:01:58.114Z</time>
      </trkpt>
      <trkpt lat="42.92288" lon="0.18602">
        <ele>1670</ele>
        <time>2019-06-23T09:01:59.114Z</time>
      </trkpt>
      <trkpt lat="42.92288" lon="0.18603">
        <ele>1670</ele>
        <time>2019-06-23T09:02:00.114Z</time>
      </trkpt>
      <trkpt lat="42.92287" lon="0.18603">
        <ele>1670</ele>
        <time>2019-06-23T09:02:01.114Z</time>
      </trkpt>
      <trkpt lat="42.92286" lon="0.18603">
        <ele>1670</ele>
        <time>2019-06-23T09:02:02.114Z</time>
      </trkpt>
      <trkpt lat="42.92286" lon="0.18604">
        <ele>1670</ele>
        <time>2019-06-23T09:02:03.114Z</time>
      </trkpt>
      <trkpt lat="42.92285" lon="0.18604">
        <ele>1670</ele>
        <time>2019-06-23T09:02:04.114Z</time>
      </trkpt>
      <trkpt lat="42.92285" lon="0.18604">
        <ele>1670</ele>
        <time>2019-06-23T09:02:05.114Z</time>
      </trkpt>
      <trkpt lat="42.92285" lon="0.18604">
        <ele>1670</ele>
        <time>2019-06-23T09:02:06.114Z</time>
      </trkpt>
      <trkpt lat="42.92285" lon="0.18604">
        <ele>1671</ele>
        <time>2019-06-23T09:02:07.114Z</time>
      </trkpt>
      <trkpt lat="42.92284" lon="0.18605">
        <ele>1671</ele>
        <time>2019-06-23T09:02:08.114Z</time>
      </trkpt>
      <trkpt lat="42.92283" lon="0.18605">
        <ele>1671</ele>
        <time>2019-06-23T09:02:09.114Z</time>
      </trkpt>
      <trkpt lat="42.92283" lon="0.18606">
        <ele>1671</ele>
        <time>2019-06-23T09:02:10.114Z</time>
      </trkpt>
      <trkpt lat="42.92282" lon="0.18606">
        <ele>1671</ele>
        <time>2019-06-23T09:02:11.114Z</time>
      </trkpt>
      <trkpt lat="42.92281" lon="0.18607">
        <ele>1671</ele>
        <time>2019-06-23T09:02:12.114Z</time>
      </trkpt>
      <trkpt lat="42.92281" lon="0.18607">
        <ele>1671</ele>
        <time>2019-06-23T09:02:13.114Z</time>
      </trkpt>
      <trkpt lat="42.9228" lon="0.18607">
        <ele>1671</ele>
        <time>2019-06-23T09:02:14.114Z</time>
      </trkpt>
      <trkpt lat="42.92279" lon="0.18607">
        <ele>1672</ele>
        <time>2019-06-23T09:02:15.114Z</time>
      </trkpt>
      <trkpt lat="42.92278" lon="0.18607">
        <ele>1671</ele>
        <time>2019-06-23T09:02:16.114Z</time>
      </trkpt>
      <trkpt lat="42.92278" lon="0.18607">
        <ele>1671</ele>
        <time>2019-06-23T09:02:17.114Z</time>
      </trkpt>
      <trkpt lat="42.92277" lon="0.18607">
        <ele>1672</ele>
        <time>2019-06-23T09:02:18.114Z</time>
      </trkpt>
      <trkpt lat="42.92276" lon="0.18607">
        <ele>1671</ele>
        <time>2019-06-23T09:02:19.114Z</time>
      </trkpt>
      <trkpt lat="42.92276" lon="0.18607">
        <ele>1672</ele>
        <time>2019-06-23T09:02:20.114Z</time>
      </trkpt>
      <trkpt lat="42.92275" lon="0.18606">
        <ele>1672</ele>
        <time>2019-06-23T09:02:21.114Z</time>
      </trkpt>
      <trkpt lat="42.92275" lon="0.18606">
        <ele>1672</ele>
        <time>2019-06-23T09:02:22.114Z</time>
      </trkpt>
      <trkpt lat="42.92274" lon="0.18606">
        <ele>1672</ele>
        <time>2019-06-23T09:02:23.114Z</time>
      </trkpt>
      <trkpt lat="42.92274" lon="0.18606">
        <ele>1672</ele>
        <time>2019-06-23T09:02:24.114Z</time>
      </trkpt>
      <trkpt lat="42.92273" lon="0.18605">
        <ele>1672</ele>
        <time>2019-06-23T09:02:25.114Z</time>
      </trkpt>
      <trkpt lat="42.92273" lon="0.18605">
        <ele>1672</ele>
        <time>2019-06-23T09:02:26.114Z</time>
      </trkpt>
      <trkpt lat="42.92271" lon="0.18605">
        <ele>1672</ele>
        <time>2019-06-23T09:02:27.114Z</time>
      </trkpt>
      <trkpt lat="42.92271" lon="0.18605">
        <ele>1672</ele>
        <time>2019-06-23T09:02:28.114Z</time>
      </trkpt>
      <trkpt lat="42.92271" lon="0.18605">
        <ele>1672</ele>
        <time>2019-06-23T09:02:29.114Z</time>
      </trkpt>
      <trkpt lat="42.9227" lon="0.18605">
        <ele>1672</ele>
        <time>2019-06-23T09:02:30.114Z</time>
      </trkpt>
      <trkpt lat="42.92269" lon="0.18605">
        <ele>1673</ele>
        <time>2019-06-23T09:02:31.114Z</time>
      </trkpt>
      <trkpt lat="42.92269" lon="0.18606">
        <ele>1673</ele>
        <time>2019-06-23T09:02:32.114Z</time>
      </trkpt>
      <trkpt lat="42.92268" lon="0.18606">
        <ele>1673</ele>
        <time>2019-06-23T09:02:33.114Z</time>
      </trkpt>
      <trkpt lat="42.92267" lon="0.18606">
        <ele>1673</ele>
        <time>2019-06-23T09:02:34.114Z</time>
      </trkpt>
      <trkpt lat="42.92267" lon="0.18606">
        <ele>1673</ele>
        <time>2019-06-23T09:02:35.114Z</time>
      </trkpt>
      <trkpt lat="42.92266" lon="0.18606">
        <ele>1673</ele>
        <time>2019-06-23T09:02:36.114Z</time>
      </trkpt>
      <trkpt lat="42.92265" lon="0.18606">
        <ele>1673</ele>
        <time>2019-06-23T09:02:37.114Z</time>
      </trkpt>
      <trkpt lat="42.92265" lon="0.18607">
        <ele>1673</ele>
        <time>2019-06-23T09:02:38.114Z</time>
      </trkpt>
      <trkpt lat="42.92264" lon="0.18607">
        <ele>1673</ele>
        <time>2019-06-23T09:02:39.114Z</time>
      </trkpt>
      <trkpt lat="42.92263" lon="0.18607">
        <ele>1673</ele>
        <time>2019-06-23T09:02:40.114Z</time>
      </trkpt>
      <trkpt lat="42.92263" lon="0.18607">
        <ele>1673</ele>
        <time>2019-06-23T09:02:41.114Z</time>
      </trkpt>
      <trkpt lat="42.92262" lon="0.18607">
        <ele>1673</ele>
        <time>2019-06-23T09:02:42.114Z</time>
      </trkpt>
      <trkpt lat="42.92261" lon="0.18608">
        <ele>1673</ele>
        <time>2019-06-23T09:02:43.114Z</time>
      </trkpt>
      <trkpt lat="42.92261" lon="0.18608">
        <ele>1673</ele>
        <time>2019-06-23T09:02:44.114Z</time>
      </trkpt>
      <trkpt lat="42.92259" lon="0.18608">
        <ele>1674</ele>
        <time>2019-06-23T09:02:45.114Z</time>
      </trkpt>
      <trkpt lat="42.92259" lon="0.18608">
        <ele>1674</ele>
        <time>2019-06-23T09:02:46.114Z</time>
      </trkpt>
      <trkpt lat="42.92258" lon="0.18608">
        <ele>1673</ele>
        <time>2019-06-23T09:02:47.114Z</time>
      </trkpt>
      <trkpt lat="42.92258" lon="0.18608">
        <ele>1674</ele>
        <time>2019-06-23T09:02:48.114Z</time>
      </trkpt>
      <trkpt lat="42.92257" lon="0.18608">
        <ele>1674</ele>
        <time>2019-06-23T09:02:49.114Z</time>
      </trkpt>
      <trkpt lat="42.92256" lon="0.18608">
        <ele>1674</ele>
        <time>2019-06-23T09:02:50.114Z</time>
      </trkpt>
      <trkpt lat="42.92256" lon="0.18608">
        <ele>1673</ele>
        <time>2019-06-23T09:02:51.114Z</time>
      </trkpt>
      <trkpt lat="42.92255" lon="0.18608">
        <ele>1673</ele>
        <time>2019-06-23T09:02:52.114Z</time>
      </trkpt>
      <trkpt lat="42.92254" lon="0.18608">
        <ele>1673</ele>
        <time>2019-06-23T09:02:53.114Z</time>
      </trkpt>
      <trkpt lat="42.92254" lon="0.18608">
        <ele>1673</ele>
        <time>2019-06-23T09:02:54.114Z</time>
      </trkpt>
      <trkpt lat="42.92253" lon="0.18608">
        <ele>1673</ele>
        <time>2019-06-23T09:02:55.114Z</time>
      </trkpt>
      <trkpt lat="42.92252" lon="0.18608">
        <ele>1673</ele>
        <time>2019-06-23T09:02:56.114Z</time>
      </trkpt>
      <trkpt lat="42.92252" lon="0.18608">
        <ele>1673</ele>
        <time>2019-06-23T09:02:57.114Z</time>
      </trkpt>
      <trkpt lat="42.92251" lon="0.18608">
        <ele>1673</ele>
        <time>2019-06-23T09:02:58.114Z</time>
      </trkpt>
      <trkpt lat="42.9225" lon="0.18608">
        <ele>1674</ele>
        <time>2019-06-23T09:02:59.114Z</time>
      </trkpt>
      <trkpt lat="42.92249" lon="0.18608">
        <ele>1674</ele>
        <time>2019-06-23T09:03:00.114Z</time>
      </trkpt>
      <trkpt lat="42.92249" lon="0.18609">
        <ele>1674</ele>
        <time>2019-06-23T09:03:01.114Z</time>
      </trkpt>
      <trkpt lat="42.92248" lon="0.18609">
        <ele>1674</ele>
        <time>2019-06-23T09:03:02.114Z</time>
      </trkpt>
      <trkpt lat="42.92247" lon="0.18609">
        <ele>1674</ele>
        <time>2019-06-23T09:03:03.114Z</time>
      </trkpt>
      <trkpt lat="42.92246" lon="0.18609">
        <ele>1674</ele>
        <time>2019-06-23T09:03:04.114Z</time>
      </trkpt>
      <trkpt lat="42.92245" lon="0.18609">
        <ele>1674</ele>
        <time>2019-06-23T09:03:05.114Z</time>
      </trkpt>
      <trkpt lat="42.92245" lon="0.1861">
        <ele>1674</ele>
        <time>2019-06-23T09:03:06.114Z</time>
      </trkpt>
      <trkpt lat="42.92243" lon="0.1861">
        <ele>1673</ele>
        <time>2019-06-23T09:03:07.114Z</time>
      </trkpt>
      <trkpt lat="42.92243" lon="0.1861">
        <ele>1673</ele>
        <time>2019-06-23T09:03:08.114Z</time>
      </trkpt>
      <trkpt lat="42.92242" lon="0.1861">
        <ele>1673</ele>
        <time>2019-06-23T09:03:09.114Z</time>
      </trkpt>
      <trkpt lat="42.92242" lon="0.1861">
        <ele>1673</ele>
        <time>2019-06-23T09:03:10.114Z</time>
      </trkpt>
      <trkpt lat="42.9224" lon="0.18611">
        <ele>1673</ele>
        <time>2019-06-23T09:03:11.114Z</time>
      </trkpt>
      <trkpt lat="42.9224" lon="0.18611">
        <ele>1673</ele>
        <time>2019-06-23T09:03:12.114Z</time>
      </trkpt>
      <trkpt lat="42.92239" lon="0.18612">
        <ele>1673</ele>
        <time>2019-06-23T09:03:13.114Z</time>
      </trkpt>
      <trkpt lat="42.92238" lon="0.18613">
        <ele>1673</ele>
        <time>2019-06-23T09:03:14.114Z</time>
      </trkpt>
      <trkpt lat="42.92238" lon="0.18613">
        <ele>1673</ele>
        <time>2019-06-23T09:03:15.114Z</time>
      </trkpt>
      <trkpt lat="42.92237" lon="0.18614">
        <ele>1673</ele>
        <time>2019-06-23T09:03:16.114Z</time>
      </trkpt>
      <trkpt lat="42.92236" lon="0.18616">
        <ele>1673</ele>
        <time>2019-06-23T09:03:17.114Z</time>
      </trkpt>
      <trkpt lat="42.92236" lon="0.18616">
        <ele>1673</ele>
        <time>2019-06-23T09:03:18.114Z</time>
      </trkpt>
      <trkpt lat="42.92235" lon="0.18616">
        <ele>1673</ele>
        <time>2019-06-23T09:03:19.114Z</time>
      </trkpt>
      <trkpt lat="42.92234" lon="0.18617">
        <ele>1673</ele>
        <time>2019-06-23T09:03:20.114Z</time>
      </trkpt>
      <trkpt lat="42.92234" lon="0.18618">
        <ele>1673</ele>
        <time>2019-06-23T09:03:21.114Z</time>
      </trkpt>
      <trkpt lat="42.92233" lon="0.18618">
        <ele>1673</ele>
        <time>2019-06-23T09:03:22.114Z</time>
      </trkpt>
      <trkpt lat="42.92232" lon="0.1862">
        <ele>1673</ele>
        <time>2019-06-23T09:03:23.114Z</time>
      </trkpt>
      <trkpt lat="42.92232" lon="0.1862">
        <ele>1673</ele>
        <time>2019-06-23T09:03:24.114Z</time>
      </trkpt>
      <trkpt lat="42.9223" lon="0.18621">
        <ele>1673</ele>
        <time>2019-06-23T09:03:25.114Z</time>
      </trkpt>
      <trkpt lat="42.9223" lon="0.18621">
        <ele>1673</ele>
        <time>2019-06-23T09:03:26.114Z</time>
      </trkpt>
      <trkpt lat="42.92229" lon="0.18622">
        <ele>1673</ele>
        <time>2019-06-23T09:03:27.114Z</time>
      </trkpt>
      <trkpt lat="42.92228" lon="0.18622">
        <ele>1673</ele>
        <time>2019-06-23T09:03:28.114Z</time>
      </trkpt>
      <trkpt lat="42.92227" lon="0.18622">
        <ele>1673</ele>
        <time>2019-06-23T09:03:29.114Z</time>
      </trkpt>
      <trkpt lat="42.92227" lon="0.18622">
        <ele>1673</ele>
        <time>2019-06-23T09:03:30.114Z</time>
      </trkpt>
      <trkpt lat="42.92226" lon="0.18622">
        <ele>1673</ele>
        <time>2019-06-23T09:03:31.114Z</time>
      </trkpt>
      <trkpt lat="42.92225" lon="0.18622">
        <ele>1673</ele>
        <time>2019-06-23T09:03:32.114Z</time>
      </trkpt>
      <trkpt lat="42.92223" lon="0.18623">
        <ele>1673</ele>
        <time>2019-06-23T09:03:33.114Z</time>
      </trkpt>
      <trkpt lat="42.92223" lon="0.18624">
        <ele>1673</ele>
        <time>2019-06-23T09:03:34.114Z</time>
      </trkpt>
      <trkpt lat="42.92223" lon="0.18624">
        <ele>1673</ele>
        <time>2019-06-23T09:03:35.114Z</time>
      </trkpt>
      <trkpt lat="42.92221" lon="0.18624">
        <ele>1674</ele>
        <time>2019-06-23T09:03:36.114Z</time>
      </trkpt>
      <trkpt lat="42.92221" lon="0.18624">
        <ele>1674</ele>
        <time>2019-06-23T09:03:37.114Z</time>
      </trkpt>
      <trkpt lat="42.9222" lon="0.18625">
        <ele>1674</ele>
        <time>2019-06-23T09:03:38.114Z</time>
      </trkpt>
      <trkpt lat="42.92219" lon="0.18626">
        <ele>1674</ele>
        <time>2019-06-23T09:03:39.114Z</time>
      </trkpt>
      <trkpt lat="42.92219" lon="0.18626">
        <ele>1674</ele>
        <time>2019-06-23T09:03:40.114Z</time>
      </trkpt>
      <trkpt lat="42.92218" lon="0.18626">
        <ele>1674</ele>
        <time>2019-06-23T09:03:41.114Z</time>
      </trkpt>
      <trkpt lat="42.92218" lon="0.18627">
        <ele>1674</ele>
        <time>2019-06-23T09:03:42.114Z</time>
      </trkpt>
      <trkpt lat="42.92217" lon="0.18627">
        <ele>1674</ele>
        <time>2019-06-23T09:03:43.114Z</time>
      </trkpt>
      <trkpt lat="42.92216" lon="0.18627">
        <ele>1674</ele>
        <time>2019-06-23T09:03:44.114Z</time>
      </trkpt>
      <trkpt lat="42.92216" lon="0.18628">
        <ele>1675</ele>
        <time>2019-06-23T09:03:45.114Z</time>
      </trkpt>
      <trkpt lat="42.92215" lon="0.18628">
        <ele>1674</ele>
        <time>2019-06-23T09:03:46.114Z</time>
      </trkpt>
      <trkpt lat="42.92214" lon="0.18629">
        <ele>1674</ele>
        <time>2019-06-23T09:03:47.114Z</time>
      </trkpt>
      <trkpt lat="42.92214" lon="0.18629">
        <ele>1674</ele>
        <time>2019-06-23T09:03:48.114Z</time>
      </trkpt>
      <trkpt lat="42.92212" lon="0.1863">
        <ele>1675</ele>
        <time>2019-06-23T09:03:49.114Z</time>
      </trkpt>
      <trkpt lat="42.92212" lon="0.18631">
        <ele>1675</ele>
        <time>2019-06-23T09:03:50.114Z</time>
      </trkpt>
      <trkpt lat="42.92212" lon="0.18631">
        <ele>1675</ele>
        <time>2019-06-23T09:03:51.114Z</time>
      </trkpt>
      <trkpt lat="42.9221" lon="0.18632">
        <ele>1675</ele>
        <time>2019-06-23T09:03:52.114Z</time>
      </trkpt>
      <trkpt lat="42.9221" lon="0.18632">
        <ele>1675</ele>
        <time>2019-06-23T09:03:53.114Z</time>
      </trkpt>
      <trkpt lat="42.92209" lon="0.18633">
        <ele>1675</ele>
        <time>2019-06-23T09:03:54.114Z</time>
      </trkpt>
      <trkpt lat="42.92209" lon="0.18633">
        <ele>1675</ele>
        <time>2019-06-23T09:03:55.114Z</time>
      </trkpt>
      <trkpt lat="42.92208" lon="0.18634">
        <ele>1675</ele>
        <time>2019-06-23T09:03:56.114Z</time>
      </trkpt>
      <trkpt lat="42.92208" lon="0.18634">
        <ele>1675</ele>
        <time>2019-06-23T09:03:57.114Z</time>
      </trkpt>
      <trkpt lat="42.92207" lon="0.18636">
        <ele>1675</ele>
        <time>2019-06-23T09:03:58.114Z</time>
      </trkpt>
      <trkpt lat="42.92207" lon="0.18636">
        <ele>1675</ele>
        <time>2019-06-23T09:03:59.114Z</time>
      </trkpt>
      <trkpt lat="42.92206" lon="0.18637">
        <ele>1675</ele>
        <time>2019-06-23T09:04:00.114Z</time>
      </trkpt>
      <trkpt lat="42.92205" lon="0.18637">
        <ele>1675</ele>
        <time>2019-06-23T09:04:01.114Z</time>
      </trkpt>
      <trkpt lat="42.92205" lon="0.18637">
        <ele>1675</ele>
        <time>2019-06-23T09:04:02.114Z</time>
      </trkpt>
      <trkpt lat="42.92204" lon="0.18638">
        <ele>1676</ele>
        <time>2019-06-23T09:04:03.114Z</time>
      </trkpt>
      <trkpt lat="42.92204" lon="0.18638">
        <ele>1675</ele>
        <time>2019-06-23T09:04:04.114Z</time>
      </trkpt>
      <trkpt lat="42.92203" lon="0.18638">
        <ele>1675</ele>
        <time>2019-06-23T09:04:05.114Z</time>
      </trkpt>
      <trkpt lat="42.92203" lon="0.18638">
        <ele>1675</ele>
        <time>2019-06-23T09:04:06.114Z</time>
      </trkpt>
      <trkpt lat="42.92203" lon="0.18638">
        <ele>1676</ele>
        <time>2019-06-23T09:04:07.114Z</time>
      </trkpt>
      <trkpt lat="42.92203" lon="0.18639">
        <ele>1675</ele>
        <time>2019-06-23T09:04:08.114Z</time>
      </trkpt>
      <trkpt lat="42.92202" lon="0.18639">
        <ele>1675</ele>
        <time>2019-06-23T09:04:09.114Z</time>
      </trkpt>
      <trkpt lat="42.92201" lon="0.1864">
        <ele>1676</ele>
        <time>2019-06-23T09:04:10.114Z</time>
      </trkpt>
      <trkpt lat="42.92201" lon="0.1864">
        <ele>1676</ele>
        <time>2019-06-23T09:04:11.114Z</time>
      </trkpt>
      <trkpt lat="42.92201" lon="0.1864">
        <ele>1676</ele>
        <time>2019-06-23T09:04:12.114Z</time>
      </trkpt>
      <trkpt lat="42.922" lon="0.18641">
        <ele>1676</ele>
        <time>2019-06-23T09:04:13.114Z</time>
      </trkpt>
      <trkpt lat="42.922" lon="0.18641">
        <ele>1676</ele>
        <time>2019-06-23T09:04:14.114Z</time>
      </trkpt>
      <trkpt lat="42.92199" lon="0.18641">
        <ele>1676</ele>
        <time>2019-06-23T09:04:15.114Z</time>
      </trkpt>
      <trkpt lat="42.92198" lon="0.18643">
        <ele>1676</ele>
        <time>2019-06-23T09:04:16.114Z</time>
      </trkpt>
      <trkpt lat="42.92198" lon="0.18643">
        <ele>1676</ele>
        <time>2019-06-23T09:04:17.114Z</time>
      </trkpt>
      <trkpt lat="42.92197" lon="0.18643">
        <ele>1677</ele>
        <time>2019-06-23T09:04:18.114Z</time>
      </trkpt>
      <trkpt lat="42.92197" lon="0.18644">
        <ele>1677</ele>
        <time>2019-06-23T09:04:19.114Z</time>
      </trkpt>
      <trkpt lat="42.92196" lon="0.18644">
        <ele>1677</ele>
        <time>2019-06-23T09:04:20.114Z</time>
      </trkpt>
      <trkpt lat="42.92196" lon="0.18644">
        <ele>1677</ele>
        <time>2019-06-23T09:04:21.114Z</time>
      </trkpt>
      <trkpt lat="42.92195" lon="0.18644">
        <ele>1677</ele>
        <time>2019-06-23T09:04:22.114Z</time>
      </trkpt>
      <trkpt lat="42.92195" lon="0.18644">
        <ele>1677</ele>
        <time>2019-06-23T09:04:23.114Z</time>
      </trkpt>
      <trkpt lat="42.92195" lon="0.18644">
        <ele>1677</ele>
        <time>2019-06-23T09:04:24.114Z</time>
      </trkpt>
      <trkpt lat="42.92194" lon="0.18645">
        <ele>1677</ele>
        <time>2019-06-23T09:04:25.114Z</time>
      </trkpt>
      <trkpt lat="42.92194" lon="0.18645">
        <ele>1677</ele>
        <time>2019-06-23T09:04:26.114Z</time>
      </trkpt>
      <trkpt lat="42.92193" lon="0.18646">
        <ele>1678</ele>
        <time>2019-06-23T09:04:27.114Z</time>
      </trkpt>
      <trkpt lat="42.92193" lon="0.18646">
        <ele>1678</ele>
        <time>2019-06-23T09:04:28.114Z</time>
      </trkpt>
      <trkpt lat="42.92192" lon="0.18647">
        <ele>1678</ele>
        <time>2019-06-23T09:04:29.114Z</time>
      </trkpt>
      <trkpt lat="42.92192" lon="0.18647">
        <ele>1678</ele>
        <time>2019-06-23T09:04:30.114Z</time>
      </trkpt>
      <trkpt lat="42.92191" lon="0.18647">
        <ele>1678</ele>
        <time>2019-06-23T09:04:31.114Z</time>
      </trkpt>
      <trkpt lat="42.92191" lon="0.18647">
        <ele>1678</ele>
        <time>2019-06-23T09:04:32.114Z</time>
      </trkpt>
      <trkpt lat="42.92191" lon="0.18647">
        <ele>1678</ele>
        <time>2019-06-23T09:04:33.114Z</time>
      </trkpt>
      <trkpt lat="42.9219" lon="0.18648">
        <ele>1678</ele>
        <time>2019-06-23T09:04:34.114Z</time>
      </trkpt>
      <trkpt lat="42.9219" lon="0.18648">
        <ele>1678</ele>
        <time>2019-06-23T09:04:35.114Z</time>
      </trkpt>
      <trkpt lat="42.92189" lon="0.18648">
        <ele>1678</ele>
        <time>2019-06-23T09:04:36.114Z</time>
      </trkpt>
      <trkpt lat="42.92189" lon="0.18648">
        <ele>1678</ele>
        <time>2019-06-23T09:04:37.114Z</time>
      </trkpt>
      <trkpt lat="42.92189" lon="0.18649">
        <ele>1678</ele>
        <time>2019-06-23T09:04:38.114Z</time>
      </trkpt>
      <trkpt lat="42.92188" lon="0.18649">
        <ele>1678</ele>
        <time>2019-06-23T09:04:39.114Z</time>
      </trkpt>
      <trkpt lat="42.92188" lon="0.1865">
        <ele>1678</ele>
        <time>2019-06-23T09:04:40.114Z</time>
      </trkpt>
      <trkpt lat="42.92188" lon="0.1865">
        <ele>1678</ele>
        <time>2019-06-23T09:04:41.114Z</time>
      </trkpt>
      <trkpt lat="42.92188" lon="0.18651">
        <ele>1678</ele>
        <time>2019-06-23T09:04:42.114Z</time>
      </trkpt>
      <trkpt lat="42.92187" lon="0.18651">
        <ele>1679</ele>
        <time>2019-06-23T09:04:43.114Z</time>
      </trkpt>
      <trkpt lat="42.92187" lon="0.18651">
        <ele>1680</ele>
        <time>2019-06-23T09:04:44.114Z</time>
      </trkpt>
      <trkpt lat="42.92187" lon="0.18651">
        <ele>1680</ele>
        <time>2019-06-23T09:04:45.114Z</time>
      </trkpt>
      <trkpt lat="42.92187" lon="0.18651">
        <ele>1680</ele>
        <time>2019-06-23T09:04:46.114Z</time>
      </trkpt>
      <trkpt lat="42.92187" lon="0.18651">
        <ele>1680</ele>
        <time>2019-06-23T09:04:47.114Z</time>
      </trkpt>
      <trkpt lat="42.92187" lon="0.18651">
        <ele>1680</ele>
        <time>2019-06-23T09:04:48.114Z</time>
      </trkpt>
      <trkpt lat="42.92185" lon="0.18654">
        <ele>1679</ele>
        <time>2019-06-23T09:04:49.121Z</time>
      </trkpt>
      <trkpt lat="42.92185" lon="0.18655">
        <ele>1679</ele>
        <time>2019-06-23T09:04:50.121Z</time>
      </trkpt>
      <trkpt lat="42.92184" lon="0.18655">
        <ele>1679</ele>
        <time>2019-06-23T09:04:51.121Z</time>
      </trkpt>
      <trkpt lat="42.92184" lon="0.18655">
        <ele>1679</ele>
        <time>2019-06-23T09:04:52.121Z</time>
      </trkpt>
      <trkpt lat="42.92183" lon="0.18656">
        <ele>1679</ele>
        <time>2019-06-23T09:04:53.121Z</time>
      </trkpt>
      <trkpt lat="42.92182" lon="0.18656">
        <ele>1679</ele>
        <time>2019-06-23T09:04:54.121Z</time>
      </trkpt>
      <trkpt lat="42.92182" lon="0.18656">
        <ele>1679</ele>
        <time>2019-06-23T09:04:55.121Z</time>
      </trkpt>
      <trkpt lat="42.92182" lon="0.18657">
        <ele>1679</ele>
        <time>2019-06-23T09:04:56.121Z</time>
      </trkpt>
      <trkpt lat="42.92181" lon="0.18657">
        <ele>1679</ele>
        <time>2019-06-23T09:04:57.121Z</time>
      </trkpt>
      <trkpt lat="42.9218" lon="0.18657">
        <ele>1679</ele>
        <time>2019-06-23T09:04:58.121Z</time>
      </trkpt>
      <trkpt lat="42.9218" lon="0.18657">
        <ele>1680</ele>
        <time>2019-06-23T09:04:59.121Z</time>
      </trkpt>
      <trkpt lat="42.9218" lon="0.18657">
        <ele>1680</ele>
        <time>2019-06-23T09:05:00.121Z</time>
      </trkpt>
      <trkpt lat="42.9218" lon="0.18657">
        <ele>1680</ele>
        <time>2019-06-23T09:05:01.121Z</time>
      </trkpt>
      <trkpt lat="42.9218" lon="0.18657">
        <ele>1680</ele>
        <time>2019-06-23T09:05:02.121Z</time>
      </trkpt>
      <trkpt lat="42.9218" lon="0.18656">
        <ele>1680</ele>
        <time>2019-06-23T09:05:03.121Z</time>
      </trkpt>
      <trkpt lat="42.9218" lon="0.18656">
        <ele>1680</ele>
        <time>2019-06-23T09:05:04.121Z</time>
      </trkpt>
      <trkpt lat="42.9218" lon="0.18656">
        <ele>1680</ele>
        <time>2019-06-23T09:05:05.121Z</time>
      </trkpt>
      <trkpt lat="42.9218" lon="0.18656">
        <ele>1681</ele>
        <time>2019-06-23T09:05:06.121Z</time>
      </trkpt>
      <trkpt lat="42.9218" lon="0.18656">
        <ele>1681</ele>
        <time>2019-06-23T09:05:07.121Z</time>
      </trkpt>
      <trkpt lat="42.9218" lon="0.18657">
        <ele>1681</ele>
        <time>2019-06-23T09:05:08.121Z</time>
      </trkpt>
      <trkpt lat="42.9218" lon="0.18657">
        <ele>1681</ele>
        <time>2019-06-23T09:05:09.121Z</time>
      </trkpt>
      <trkpt lat="42.92179" lon="0.18657">
        <ele>1681</ele>
        <time>2019-06-23T09:05:10.121Z</time>
      </trkpt>
      <trkpt lat="42.92179" lon="0.18657">
        <ele>1681</ele>
        <time>2019-06-23T09:05:11.121Z</time>
      </trkpt>
      <trkpt lat="42.92179" lon="0.18658">
        <ele>1681</ele>
        <time>2019-06-23T09:05:12.121Z</time>
      </trkpt>
      <trkpt lat="42.92178" lon="0.18658">
        <ele>1681</ele>
        <time>2019-06-23T09:05:13.121Z</time>
      </trkpt>
      <trkpt lat="42.92178" lon="0.18659">
        <ele>1681</ele>
        <time>2019-06-23T09:05:14.121Z</time>
      </trkpt>
      <trkpt lat="42.92177" lon="0.18659">
        <ele>1681</ele>
        <time>2019-06-23T09:05:15.121Z</time>
      </trkpt>
      <trkpt lat="42.92176" lon="0.1866">
        <ele>1681</ele>
        <time>2019-06-23T09:05:16.121Z</time>
      </trkpt>
      <trkpt lat="42.92176" lon="0.1866">
        <ele>1681</ele>
        <time>2019-06-23T09:05:17.121Z</time>
      </trkpt>
      <trkpt lat="42.92176" lon="0.18661">
        <ele>1681</ele>
        <time>2019-06-23T09:05:18.121Z</time>
      </trkpt>
      <trkpt lat="42.92175" lon="0.18661">
        <ele>1681</ele>
        <time>2019-06-23T09:05:19.121Z</time>
      </trkpt>
      <trkpt lat="42.92175" lon="0.18662">
        <ele>1681</ele>
        <time>2019-06-23T09:05:20.121Z</time>
      </trkpt>
      <trkpt lat="42.92175" lon="0.18662">
        <ele>1681</ele>
        <time>2019-06-23T09:05:21.121Z</time>
      </trkpt>
      <trkpt lat="42.92175" lon="0.18662">
        <ele>1681</ele>
        <time>2019-06-23T09:05:22.121Z</time>
      </trkpt>
      <trkpt lat="42.92175" lon="0.18662">
        <ele>1681</ele>
        <time>2019-06-23T09:05:23.121Z</time>
      </trkpt>
      <trkpt lat="42.92175" lon="0.18662">
        <ele>1681</ele>
        <time>2019-06-23T09:05:24.121Z</time>
      </trkpt>
      <trkpt lat="42.92174" lon="0.18665">
        <ele>1679</ele>
        <time>2019-06-23T09:05:25.000Z</time>
      </trkpt>
      <trkpt lat="42.92173" lon="0.18666">
        <ele>1680</ele>
        <time>2019-06-23T09:05:26.000Z</time>
      </trkpt>
      <trkpt lat="42.92173" lon="0.18666">
        <ele>1680</ele>
        <time>2019-06-23T09:05:27.000Z</time>
      </trkpt>
      <trkpt lat="42.92173" lon="0.18666">
        <ele>1680</ele>
        <time>2019-06-23T09:05:28.000Z</time>
      </trkpt>
      <trkpt lat="42.92173" lon="0.18667">
        <ele>1680</ele>
        <time>2019-06-23T09:05:29.000Z</time>
      </trkpt>
      <trkpt lat="42.92173" lon="0.18667">
        <ele>1680</ele>
        <time>2019-06-23T09:05:30.000Z</time>
      </trkpt>
      <trkpt lat="42.92173" lon="0.18667">
        <ele>1680</ele>
        <time>2019-06-23T09:05:31.000Z</time>
      </trkpt>
      <trkpt lat="42.92173" lon="0.18667">
        <ele>1680</ele>
        <time>2019-06-23T09:05:32.000Z</time>
      </trkpt>
      <trkpt lat="42.92173" lon="0.18667">
        <ele>1680</ele>
        <time>2019-06-23T09:05:33.000Z</time>
      </trkpt>
      <trkpt lat="42.92174" lon="0.18664">
        <ele>1680</ele>
        <time>2019-06-23T09:05:34.004Z</time>
      </trkpt>
      <trkpt lat="42.92174" lon="0.18664">
        <ele>1680</ele>
        <time>2019-06-23T09:05:35.004Z</time>
      </trkpt>
      <trkpt lat="42.92174" lon="0.18663">
        <ele>1680</ele>
        <time>2019-06-23T09:05:36.004Z</time>
      </trkpt>
      <trkpt lat="42.92175" lon="0.18663">
        <ele>1681</ele>
        <time>2019-06-23T09:05:37.004Z</time>
      </trkpt>
      <trkpt lat="42.92175" lon="0.18662">
        <ele>1681</ele>
        <time>2019-06-23T09:05:38.004Z</time>
      </trkpt>
      <trkpt lat="42.92175" lon="0.18662">
        <ele>1681</ele>
        <time>2019-06-23T09:05:39.004Z</time>
      </trkpt>
      <trkpt lat="42.92175" lon="0.18662">
        <ele>1682</ele>
        <time>2019-06-23T09:05:40.004Z</time>
      </trkpt>
      <trkpt lat="42.92175" lon="0.18662">
        <ele>1682</ele>
        <time>2019-06-23T09:05:41.004Z</time>
      </trkpt>
      <trkpt lat="42.92175" lon="0.18662">
        <ele>1682</ele>
        <time>2019-06-23T09:05:42.004Z</time>
      </trkpt>
      <trkpt lat="42.92175" lon="0.18663">
        <ele>1682</ele>
        <time>2019-06-23T09:05:43.004Z</time>
      </trkpt>
      <trkpt lat="42.92175" lon="0.18665">
        <ele>1679</ele>
        <time>2019-06-23T09:05:44.008Z</time>
      </trkpt>
      <trkpt lat="42.92175" lon="0.18666">
        <ele>1679</ele>
        <time>2019-06-23T09:05:45.008Z</time>
      </trkpt>
      <trkpt lat="42.92175" lon="0.18666">
        <ele>1679</ele>
        <time>2019-06-23T09:05:46.008Z</time>
      </trkpt>
      <trkpt lat="42.92175" lon="0.18667">
        <ele>1679</ele>
        <time>2019-06-23T09:05:47.008Z</time>
      </trkpt>
      <trkpt lat="42.92175" lon="0.18667">
        <ele>1679</ele>
        <time>2019-06-23T09:05:48.008Z</time>
      </trkpt>
      <trkpt lat="42.92174" lon="0.18667">
        <ele>1679</ele>
        <time>2019-06-23T09:05:49.008Z</time>
      </trkpt>
      <trkpt lat="42.92174" lon="0.18667">
        <ele>1679</ele>
        <time>2019-06-23T09:05:50.008Z</time>
      </trkpt>
      <trkpt lat="42.92174" lon="0.18667">
        <ele>1679</ele>
        <time>2019-06-23T09:05:51.008Z</time>
      </trkpt>
      <trkpt lat="42.92174" lon="0.18667">
        <ele>1679</ele>
        <time>2019-06-23T09:05:52.008Z</time>
      </trkpt>
      <trkpt lat="42.92174" lon="0.18667">
        <ele>1679</ele>
        <time>2019-06-23T09:05:53.008Z</time>
      </trkpt>
      <trkpt lat="42.92175" lon="0.18664">
        <ele>1679</ele>
        <time>2019-06-23T09:05:54.012Z</time>
      </trkpt>
      <trkpt lat="42.92175" lon="0.18663">
        <ele>1679</ele>
        <time>2019-06-23T09:05:55.012Z</time>
      </trkpt>
      <trkpt lat="42.92175" lon="0.18662">
        <ele>1679</ele>
        <time>2019-06-23T09:05:56.012Z</time>
      </trkpt>
      <trkpt lat="42.92176" lon="0.18662">
        <ele>1680</ele>
        <time>2019-06-23T09:05:57.012Z</time>
      </trkpt>
      <trkpt lat="42.92176" lon="0.18661">
        <ele>1680</ele>
        <time>2019-06-23T09:05:58.012Z</time>
      </trkpt>
      <trkpt lat="42.92176" lon="0.1866">
        <ele>1680</ele>
        <time>2019-06-23T09:05:59.012Z</time>
      </trkpt>
      <trkpt lat="42.92176" lon="0.1866">
        <ele>1680</ele>
        <time>2019-06-23T09:06:00.012Z</time>
      </trkpt>
      <trkpt lat="42.92176" lon="0.1866">
        <ele>1680</ele>
        <time>2019-06-23T09:06:01.012Z</time>
      </trkpt>
      <trkpt lat="42.92177" lon="0.1866">
        <ele>1680</ele>
        <time>2019-06-23T09:06:02.012Z</time>
      </trkpt>
      <trkpt lat="42.92176" lon="0.1866">
        <ele>1680</ele>
        <time>2019-06-23T09:06:03.012Z</time>
      </trkpt>
      <trkpt lat="42.92176" lon="0.1866">
        <ele>1680</ele>
        <time>2019-06-23T09:06:04.012Z</time>
      </trkpt>
      <trkpt lat="42.92176" lon="0.1866">
        <ele>1680</ele>
        <time>2019-06-23T09:06:05.012Z</time>
      </trkpt>
      <trkpt lat="42.92176" lon="0.1866">
        <ele>1679</ele>
        <time>2019-06-23T09:06:06.012Z</time>
      </trkpt>
      <trkpt lat="42.92175" lon="0.18657">
        <ele>1680</ele>
        <time>2019-06-23T09:06:07.016Z</time>
      </trkpt>
      <trkpt lat="42.92175" lon="0.18657">
        <ele>1680</ele>
        <time>2019-06-23T09:06:08.016Z</time>
      </trkpt>
      <trkpt lat="42.92175" lon="0.18657">
        <ele>1680</ele>
        <time>2019-06-23T09:06:09.016Z</time>
      </trkpt>
      <trkpt lat="42.92175" lon="0.18657">
        <ele>1680</ele>
        <time>2019-06-23T09:06:10.016Z</time>
      </trkpt>
      <trkpt lat="42.92175" lon="0.18657">
        <ele>1680</ele>
        <time>2019-06-23T09:06:11.016Z</time>
      </trkpt>
      <trkpt lat="42.92175" lon="0.18657">
        <ele>1680</ele>
        <time>2019-06-23T09:06:12.016Z</time>
      </trkpt>
      <trkpt lat="42.92175" lon="0.18659">
        <ele>1681</ele>
        <time>2019-06-23T09:06:13.020Z</time>
      </trkpt>
      <trkpt lat="42.92175" lon="0.1866">
        <ele>1680</ele>
        <time>2019-06-23T09:06:14.020Z</time>
      </trkpt>
      <trkpt lat="42.92175" lon="0.1866">
        <ele>1680</ele>
        <time>2019-06-23T09:06:15.020Z</time>
      </trkpt>
      <trkpt lat="42.92174" lon="0.1866">
        <ele>1680</ele>
        <time>2019-06-23T09:06:16.020Z</time>
      </trkpt>
      <trkpt lat="42.92174" lon="0.1866">
        <ele>1681</ele>
        <time>2019-06-23T09:06:17.020Z</time>
      </trkpt>
      <trkpt lat="42.92174" lon="0.1866">
        <ele>1681</ele>
        <time>2019-06-23T09:06:18.020Z</time>
      </trkpt>
      <trkpt lat="42.92174" lon="0.1866">
        <ele>1681</ele>
        <time>2019-06-23T09:06:19.020Z</time>
      </trkpt>
      <trkpt lat="42.92175" lon="0.1866">
        <ele>1681</ele>
        <time>2019-06-23T09:06:20.020Z</time>
      </trkpt>
      <trkpt lat="42.92175" lon="0.18658">
        <ele>1681</ele>
        <time>2019-06-23T09:06:21.040Z</time>
      </trkpt>
      <trkpt lat="42.92175" lon="0.18658">
        <ele>1681</ele>
        <time>2019-06-23T09:06:22.040Z</time>
      </trkpt>
      <trkpt lat="42.92174" lon="0.18659">
        <ele>1681</ele>
        <time>2019-06-23T09:06:23.040Z</time>
      </trkpt>
      <trkpt lat="42.92174" lon="0.18659">
        <ele>1681</ele>
        <time>2019-06-23T09:06:24.040Z</time>
      </trkpt>
      <trkpt lat="42.92174" lon="0.1866">
        <ele>1681</ele>
        <time>2019-06-23T09:06:25.040Z</time>
      </trkpt>
      <trkpt lat="42.92174" lon="0.1866">
        <ele>1681</ele>
        <time>2019-06-23T09:06:26.040Z</time>
      </trkpt>
      <trkpt lat="42.92173" lon="0.1866">
        <ele>1681</ele>
        <time>2019-06-23T09:06:27.040Z</time>
      </trkpt>
      <trkpt lat="42.92174" lon="0.1866">
        <ele>1681</ele>
        <time>2019-06-23T09:06:28.040Z</time>
      </trkpt>
      <trkpt lat="42.92174" lon="0.1866">
        <ele>1681</ele>
        <time>2019-06-23T09:06:29.040Z</time>
      </trkpt>
      <trkpt lat="42.92171" lon="0.18661">
        <ele>1679</ele>
        <time>2019-06-23T09:06:30.044Z</time>
      </trkpt>
      <trkpt lat="42.9217" lon="0.18661">
        <ele>1679</ele>
        <time>2019-06-23T09:06:31.044Z</time>
      </trkpt>
      <trkpt lat="42.9217" lon="0.18661">
        <ele>1679</ele>
        <time>2019-06-23T09:06:32.044Z</time>
      </trkpt>
      <trkpt lat="42.9217" lon="0.18661">
        <ele>1679</ele>
        <time>2019-06-23T09:06:33.044Z</time>
      </trkpt>
      <trkpt lat="42.9217" lon="0.18661">
        <ele>1679</ele>
        <time>2019-06-23T09:06:34.044Z</time>
      </trkpt>
      <trkpt lat="42.9217" lon="0.18661">
        <ele>1679</ele>
        <time>2019-06-23T09:06:35.044Z</time>
      </trkpt>
      <trkpt lat="42.9217" lon="0.18661">
        <ele>1679</ele>
        <time>2019-06-23T09:06:36.044Z</time>
      </trkpt>
      <trkpt lat="42.9217" lon="0.18661">
        <ele>1679</ele>
        <time>2019-06-23T09:06:37.044Z</time>
      </trkpt>
      <trkpt lat="42.92169" lon="0.1866">
        <ele>1679</ele>
        <time>2019-06-23T09:06:38.044Z</time>
      </trkpt>
      <trkpt lat="42.92169" lon="0.1866">
        <ele>1679</ele>
        <time>2019-06-23T09:06:39.044Z</time>
      </trkpt>
      <trkpt lat="42.92169" lon="0.1866">
        <ele>1679</ele>
        <time>2019-06-23T09:06:40.044Z</time>
      </trkpt>
      <trkpt lat="42.92169" lon="0.1866">
        <ele>1679</ele>
        <time>2019-06-23T09:06:41.044Z</time>
      </trkpt>
      <trkpt lat="42.92168" lon="0.1866">
        <ele>1679</ele>
        <time>2019-06-23T09:06:42.044Z</time>
      </trkpt>
      <trkpt lat="42.92168" lon="0.18661">
        <ele>1679</ele>
        <time>2019-06-23T09:06:43.044Z</time>
      </trkpt>
      <trkpt lat="42.92167" lon="0.18661">
        <ele>1679</ele>
        <time>2019-06-23T09:06:44.044Z</time>
      </trkpt>
      <trkpt lat="42.92167" lon="0.18661">
        <ele>1679</ele>
        <time>2019-06-23T09:06:45.044Z</time>
      </trkpt>
      <trkpt lat="42.92166" lon="0.18661">
        <ele>1679</ele>
        <time>2019-06-23T09:06:46.044Z</time>
      </trkpt>
      <trkpt lat="42.92166" lon="0.18661">
        <ele>1678</ele>
        <time>2019-06-23T09:06:47.044Z</time>
      </trkpt>
      <trkpt lat="42.92165" lon="0.18661">
        <ele>1678</ele>
        <time>2019-06-23T09:06:48.044Z</time>
      </trkpt>
      <trkpt lat="42.92165" lon="0.18662">
        <ele>1678</ele>
        <time>2019-06-23T09:06:49.044Z</time>
      </trkpt>
      <trkpt lat="42.92164" lon="0.18662">
        <ele>1678</ele>
        <time>2019-06-23T09:06:50.044Z</time>
      </trkpt>
      <trkpt lat="42.92164" lon="0.18662">
        <ele>1678</ele>
        <time>2019-06-23T09:06:51.044Z</time>
      </trkpt>
      <trkpt lat="42.92163" lon="0.18663">
        <ele>1677</ele>
        <time>2019-06-23T09:06:52.044Z</time>
      </trkpt>
      <trkpt lat="42.92163" lon="0.18663">
        <ele>1677</ele>
        <time>2019-06-23T09:06:53.044Z</time>
      </trkpt>
      <trkpt lat="42.92162" lon="0.18663">
        <ele>1677</ele>
        <time>2019-06-23T09:06:54.044Z</time>
      </trkpt>
      <trkpt lat="42.92162" lon="0.18663">
        <ele>1677</ele>
        <time>2019-06-23T09:06:55.044Z</time>
      </trkpt>
      <trkpt lat="42.92161" lon="0.18663">
        <ele>1677</ele>
        <time>2019-06-23T09:06:56.044Z</time>
      </trkpt>
      <trkpt lat="42.92161" lon="0.18663">
        <ele>1677</ele>
        <time>2019-06-23T09:06:57.044Z</time>
      </trkpt>
      <trkpt lat="42.9216" lon="0.18663">
        <ele>1677</ele>
        <time>2019-06-23T09:06:58.044Z</time>
      </trkpt>
      <trkpt lat="42.9216" lon="0.18663">
        <ele>1676</ele>
        <time>2019-06-23T09:06:59.044Z</time>
      </trkpt>
      <trkpt lat="42.92159" lon="0.18663">
        <ele>1676</ele>
        <time>2019-06-23T09:07:00.044Z</time>
      </trkpt>
      <trkpt lat="42.92158" lon="0.18663">
        <ele>1676</ele>
        <time>2019-06-23T09:07:01.044Z</time>
      </trkpt>
      <trkpt lat="42.92158" lon="0.18663">
        <ele>1676</ele>
        <time>2019-06-23T09:07:02.044Z</time>
      </trkpt>
      <trkpt lat="42.92157" lon="0.18663">
        <ele>1676</ele>
        <time>2019-06-23T09:07:03.044Z</time>
      </trkpt>
      <trkpt lat="42.92157" lon="0.18663">
        <ele>1675</ele>
        <time>2019-06-23T09:07:04.044Z</time>
      </trkpt>
      <trkpt lat="42.92156" lon="0.18663">
        <ele>1675</ele>
        <time>2019-06-23T09:07:05.044Z</time>
      </trkpt>
      <trkpt lat="42.92155" lon="0.18663">
        <ele>1675</ele>
        <time>2019-06-23T09:07:06.044Z</time>
      </trkpt>
      <trkpt lat="42.92155" lon="0.18662">
        <ele>1675</ele>
        <time>2019-06-23T09:07:07.044Z</time>
      </trkpt>
      <trkpt lat="42.92154" lon="0.18662">
        <ele>1674</ele>
        <time>2019-06-23T09:07:08.044Z</time>
      </trkpt>
      <trkpt lat="42.92154" lon="0.18662">
        <ele>1674</ele>
        <time>2019-06-23T09:07:09.044Z</time>
      </trkpt>
      <trkpt lat="42.92153" lon="0.18662">
        <ele>1674</ele>
        <time>2019-06-23T09:07:10.044Z</time>
      </trkpt>
      <trkpt lat="42.92153" lon="0.18662">
        <ele>1674</ele>
        <time>2019-06-23T09:07:11.044Z</time>
      </trkpt>
      <trkpt lat="42.92153" lon="0.18662">
        <ele>1674</ele>
        <time>2019-06-23T09:07:12.044Z</time>
      </trkpt>
      <trkpt lat="42.92152" lon="0.18662">
        <ele>1674</ele>
        <time>2019-06-23T09:07:13.044Z</time>
      </trkpt>
      <trkpt lat="42.92152" lon="0.18661">
        <ele>1674</ele>
        <time>2019-06-23T09:07:14.044Z</time>
      </trkpt>
      <trkpt lat="42.92152" lon="0.18661">
        <ele>1673</ele>
        <time>2019-06-23T09:07:15.044Z</time>
      </trkpt>
      <trkpt lat="42.92151" lon="0.18661">
        <ele>1673</ele>
        <time>2019-06-23T09:07:16.044Z</time>
      </trkpt>
      <trkpt lat="42.9215" lon="0.18661">
        <ele>1673</ele>
        <time>2019-06-23T09:07:17.044Z</time>
      </trkpt>
      <trkpt lat="42.92149" lon="0.18661">
        <ele>1673</ele>
        <time>2019-06-23T09:07:18.044Z</time>
      </trkpt>
      <trkpt lat="42.92149" lon="0.18661">
        <ele>1673</ele>
        <time>2019-06-23T09:07:19.044Z</time>
      </trkpt>
      <trkpt lat="42.92148" lon="0.18661">
        <ele>1672</ele>
        <time>2019-06-23T09:07:20.044Z</time>
      </trkpt>
      <trkpt lat="42.92148" lon="0.18661">
        <ele>1672</ele>
        <time>2019-06-23T09:07:21.044Z</time>
      </trkpt>
      <trkpt lat="42.92147" lon="0.18661">
        <ele>1672</ele>
        <time>2019-06-23T09:07:22.044Z</time>
      </trkpt>
      <trkpt lat="42.92146" lon="0.18661">
        <ele>1672</ele>
        <time>2019-06-23T09:07:23.044Z</time>
      </trkpt>
      <trkpt lat="42.92146" lon="0.18661">
        <ele>1672</ele>
        <time>2019-06-23T09:07:24.044Z</time>
      </trkpt>
      <trkpt lat="42.92145" lon="0.18661">
        <ele>1672</ele>
        <time>2019-06-23T09:07:25.044Z</time>
      </trkpt>
      <trkpt lat="42.92144" lon="0.18661">
        <ele>1672</ele>
        <time>2019-06-23T09:07:26.044Z</time>
      </trkpt>
      <trkpt lat="42.92144" lon="0.18661">
        <ele>1672</ele>
        <time>2019-06-23T09:07:27.044Z</time>
      </trkpt>
      <trkpt lat="42.92143" lon="0.18661">
        <ele>1672</ele>
        <time>2019-06-23T09:07:28.044Z</time>
      </trkpt>
      <trkpt lat="42.92142" lon="0.18661">
        <ele>1672</ele>
        <time>2019-06-23T09:07:29.044Z</time>
      </trkpt>
      <trkpt lat="42.92142" lon="0.18661">
        <ele>1671</ele>
        <time>2019-06-23T09:07:30.044Z</time>
      </trkpt>
      <trkpt lat="42.92141" lon="0.1866">
        <ele>1671</ele>
        <time>2019-06-23T09:07:31.044Z</time>
      </trkpt>
      <trkpt lat="42.9214" lon="0.18661">
        <ele>1671</ele>
        <time>2019-06-23T09:07:32.044Z</time>
      </trkpt>
      <trkpt lat="42.92139" lon="0.18661">
        <ele>1671</ele>
        <time>2019-06-23T09:07:33.044Z</time>
      </trkpt>
      <trkpt lat="42.92139" lon="0.18661">
        <ele>1671</ele>
        <time>2019-06-23T09:07:34.044Z</time>
      </trkpt>
      <trkpt lat="42.92138" lon="0.1866">
        <ele>1670</ele>
        <time>2019-06-23T09:07:35.044Z</time>
      </trkpt>
      <trkpt lat="42.92137" lon="0.1866">
        <ele>1670</ele>
        <time>2019-06-23T09:07:36.044Z</time>
      </trkpt>
      <trkpt lat="42.92137" lon="0.1866">
        <ele>1670</ele>
        <time>2019-06-23T09:07:37.044Z</time>
      </trkpt>
      <trkpt lat="42.92136" lon="0.1866">
        <ele>1670</ele>
        <time>2019-06-23T09:07:38.044Z</time>
      </trkpt>
      <trkpt lat="42.92135" lon="0.1866">
        <ele>1670</ele>
        <time>2019-06-23T09:07:39.044Z</time>
      </trkpt>
      <trkpt lat="42.92134" lon="0.1866">
        <ele>1670</ele>
        <time>2019-06-23T09:07:40.044Z</time>
      </trkpt>
      <trkpt lat="42.92134" lon="0.1866">
        <ele>1670</ele>
        <time>2019-06-23T09:07:41.044Z</time>
      </trkpt>
      <trkpt lat="42.92133" lon="0.1866">
        <ele>1669</ele>
        <time>2019-06-23T09:07:42.044Z</time>
      </trkpt>
      <trkpt lat="42.92133" lon="0.1866">
        <ele>1669</ele>
        <time>2019-06-23T09:07:43.044Z</time>
      </trkpt>
      <trkpt lat="42.92132" lon="0.18659">
        <ele>1669</ele>
        <time>2019-06-23T09:07:44.044Z</time>
      </trkpt>
      <trkpt lat="42.92132" lon="0.18659">
        <ele>1669</ele>
        <time>2019-06-23T09:07:45.044Z</time>
      </trkpt>
      <trkpt lat="42.92132" lon="0.18659">
        <ele>1669</ele>
        <time>2019-06-23T09:07:46.044Z</time>
      </trkpt>
      <trkpt lat="42.92132" lon="0.18659">
        <ele>1669</ele>
        <time>2019-06-23T09:07:47.044Z</time>
      </trkpt>
      <trkpt lat="42.92132" lon="0.18659">
        <ele>1669</ele>
        <time>2019-06-23T09:07:48.044Z</time>
      </trkpt>
      <trkpt lat="42.92132" lon="0.18659">
        <ele>1669</ele>
        <time>2019-06-23T09:07:49.044Z</time>
      </trkpt>
      <trkpt lat="42.9213" lon="0.18657">
        <ele>1669</ele>
        <time>2019-06-23T09:07:50.052Z</time>
      </trkpt>
      <trkpt lat="42.92129" lon="0.18657">
        <ele>1669</ele>
        <time>2019-06-23T09:07:51.052Z</time>
      </trkpt>
      <trkpt lat="42.92129" lon="0.18657">
        <ele>1669</ele>
        <time>2019-06-23T09:07:52.052Z</time>
      </trkpt>
      <trkpt lat="42.92128" lon="0.18657">
        <ele>1669</ele>
        <time>2019-06-23T09:07:53.052Z</time>
      </trkpt>
      <trkpt lat="42.92127" lon="0.18657">
        <ele>1669</ele>
        <time>2019-06-23T09:07:54.052Z</time>
      </trkpt>
      <trkpt lat="42.92127" lon="0.18657">
        <ele>1669</ele>
        <time>2019-06-23T09:07:55.052Z</time>
      </trkpt>
      <trkpt lat="42.92126" lon="0.18657">
        <ele>1669</ele>
        <time>2019-06-23T09:07:56.052Z</time>
      </trkpt>
      <trkpt lat="42.92126" lon="0.18657">
        <ele>1668</ele>
        <time>2019-06-23T09:07:57.052Z</time>
      </trkpt>
      <trkpt lat="42.92125" lon="0.18657">
        <ele>1668</ele>
        <time>2019-06-23T09:07:58.052Z</time>
      </trkpt>
      <trkpt lat="42.92124" lon="0.18657">
        <ele>1668</ele>
        <time>2019-06-23T09:07:59.052Z</time>
      </trkpt>
      <trkpt lat="42.92124" lon="0.18657">
        <ele>1668</ele>
        <time>2019-06-23T09:08:00.052Z</time>
      </trkpt>
      <trkpt lat="42.92123" lon="0.18657">
        <ele>1668</ele>
        <time>2019-06-23T09:08:01.052Z</time>
      </trkpt>
      <trkpt lat="42.92122" lon="0.18657">
        <ele>1667</ele>
        <time>2019-06-23T09:08:02.052Z</time>
      </trkpt>
      <trkpt lat="42.92122" lon="0.18657">
        <ele>1667</ele>
        <time>2019-06-23T09:08:03.052Z</time>
      </trkpt>
      <trkpt lat="42.92121" lon="0.18657">
        <ele>1667</ele>
        <time>2019-06-23T09:08:04.052Z</time>
      </trkpt>
      <trkpt lat="42.9212" lon="0.18657">
        <ele>1667</ele>
        <time>2019-06-23T09:08:05.052Z</time>
      </trkpt>
      <trkpt lat="42.9212" lon="0.18656">
        <ele>1667</ele>
        <time>2019-06-23T09:08:06.052Z</time>
      </trkpt>
      <trkpt lat="42.92119" lon="0.18656">
        <ele>1667</ele>
        <time>2019-06-23T09:08:07.052Z</time>
      </trkpt>
      <trkpt lat="42.92119" lon="0.18656">
        <ele>1667</ele>
        <time>2019-06-23T09:08:08.052Z</time>
      </trkpt>
      <trkpt lat="42.92119" lon="0.18656">
        <ele>1667</ele>
        <time>2019-06-23T09:08:09.052Z</time>
      </trkpt>
      <trkpt lat="42.92118" lon="0.18656">
        <ele>1666</ele>
        <time>2019-06-23T09:08:10.052Z</time>
      </trkpt>
      <trkpt lat="42.92118" lon="0.18656">
        <ele>1667</ele>
        <time>2019-06-23T09:08:11.052Z</time>
      </trkpt>
      <trkpt lat="42.92117" lon="0.18656">
        <ele>1667</ele>
        <time>2019-06-23T09:08:12.052Z</time>
      </trkpt>
      <trkpt lat="42.92117" lon="0.18656">
        <ele>1667</ele>
        <time>2019-06-23T09:08:13.052Z</time>
      </trkpt>
      <trkpt lat="42.92116" lon="0.18656">
        <ele>1667</ele>
        <time>2019-06-23T09:08:14.052Z</time>
      </trkpt>
      <trkpt lat="42.92116" lon="0.18656">
        <ele>1666</ele>
        <time>2019-06-23T09:08:15.052Z</time>
      </trkpt>
      <trkpt lat="42.92116" lon="0.18656">
        <ele>1667</ele>
        <time>2019-06-23T09:08:16.052Z</time>
      </trkpt>
      <trkpt lat="42.92116" lon="0.18656">
        <ele>1666</ele>
        <time>2019-06-23T09:08:17.052Z</time>
      </trkpt>
      <trkpt lat="42.92115" lon="0.18656">
        <ele>1666</ele>
        <time>2019-06-23T09:08:18.052Z</time>
      </trkpt>
      <trkpt lat="42.92115" lon="0.18656">
        <ele>1666</ele>
        <time>2019-06-23T09:08:19.052Z</time>
      </trkpt>
      <trkpt lat="42.92115" lon="0.18656">
        <ele>1666</ele>
        <time>2019-06-23T09:08:20.052Z</time>
      </trkpt>
      <trkpt lat="42.92115" lon="0.18656">
        <ele>1665</ele>
        <time>2019-06-23T09:08:21.052Z</time>
      </trkpt>
      <trkpt lat="42.92115" lon="0.18656">
        <ele>1665</ele>
        <time>2019-06-23T09:08:22.052Z</time>
      </trkpt>
      <trkpt lat="42.92115" lon="0.18658">
        <ele>1665</ele>
        <time>2019-06-23T09:08:23.060Z</time>
      </trkpt>
      <trkpt lat="42.92115" lon="0.18658">
        <ele>1665</ele>
        <time>2019-06-23T09:08:24.060Z</time>
      </trkpt>
      <trkpt lat="42.92114" lon="0.18658">
        <ele>1665</ele>
        <time>2019-06-23T09:08:25.060Z</time>
      </trkpt>
      <trkpt lat="42.92114" lon="0.18658">
        <ele>1665</ele>
        <time>2019-06-23T09:08:26.060Z</time>
      </trkpt>
      <trkpt lat="42.92114" lon="0.18658">
        <ele>1665</ele>
        <time>2019-06-23T09:08:27.060Z</time>
      </trkpt>
      <trkpt lat="42.92113" lon="0.18659">
        <ele>1665</ele>
        <time>2019-06-23T09:08:28.060Z</time>
      </trkpt>
      <trkpt lat="42.92113" lon="0.18659">
        <ele>1664</ele>
        <time>2019-06-23T09:08:29.060Z</time>
      </trkpt>
      <trkpt lat="42.92112" lon="0.18659">
        <ele>1664</ele>
        <time>2019-06-23T09:08:30.060Z</time>
      </trkpt>
      <trkpt lat="42.92112" lon="0.18659">
        <ele>1664</ele>
        <time>2019-06-23T09:08:31.060Z</time>
      </trkpt>
      <trkpt lat="42.92111" lon="0.18659">
        <ele>1664</ele>
        <time>2019-06-23T09:08:32.060Z</time>
      </trkpt>
      <trkpt lat="42.92111" lon="0.18659">
        <ele>1664</ele>
        <time>2019-06-23T09:08:33.060Z</time>
      </trkpt>
      <trkpt lat="42.9211" lon="0.18659">
        <ele>1664</ele>
        <time>2019-06-23T09:08:34.060Z</time>
      </trkpt>
      <trkpt lat="42.9211" lon="0.18659">
        <ele>1663</ele>
        <time>2019-06-23T09:08:35.060Z</time>
      </trkpt>
      <trkpt lat="42.92109" lon="0.18659">
        <ele>1663</ele>
        <time>2019-06-23T09:08:36.060Z</time>
      </trkpt>
      <trkpt lat="42.92108" lon="0.18659">
        <ele>1663</ele>
        <time>2019-06-23T09:08:37.060Z</time>
      </trkpt>
      <trkpt lat="42.92108" lon="0.18659">
        <ele>1663</ele>
        <time>2019-06-23T09:08:38.060Z</time>
      </trkpt>
      <trkpt lat="42.92107" lon="0.1866">
        <ele>1663</ele>
        <time>2019-06-23T09:08:39.060Z</time>
      </trkpt>
      <trkpt lat="42.92106" lon="0.1866">
        <ele>1662</ele>
        <time>2019-06-23T09:08:40.060Z</time>
      </trkpt>
      <trkpt lat="42.92105" lon="0.1866">
        <ele>1662</ele>
        <time>2019-06-23T09:08:41.060Z</time>
      </trkpt>
      <trkpt lat="42.92105" lon="0.1866">
        <ele>1662</ele>
        <time>2019-06-23T09:08:42.060Z</time>
      </trkpt>
      <trkpt lat="42.92104" lon="0.1866">
        <ele>1662</ele>
        <time>2019-06-23T09:08:43.060Z</time>
      </trkpt>
      <trkpt lat="42.92103" lon="0.1866">
        <ele>1662</ele>
        <time>2019-06-23T09:08:44.060Z</time>
      </trkpt>
      <trkpt lat="42.92103" lon="0.1866">
        <ele>1662</ele>
        <time>2019-06-23T09:08:45.060Z</time>
      </trkpt>
      <trkpt lat="42.92102" lon="0.1866">
        <ele>1662</ele>
        <time>2019-06-23T09:08:46.060Z</time>
      </trkpt>
      <trkpt lat="42.92101" lon="0.1866">
        <ele>1661</ele>
        <time>2019-06-23T09:08:47.060Z</time>
      </trkpt>
      <trkpt lat="42.921" lon="0.18659">
        <ele>1661</ele>
        <time>2019-06-23T09:08:48.060Z</time>
      </trkpt>
      <trkpt lat="42.92099" lon="0.18659">
        <ele>1662</ele>
        <time>2019-06-23T09:08:49.060Z</time>
      </trkpt>
      <trkpt lat="42.92098" lon="0.18659">
        <ele>1661</ele>
        <time>2019-06-23T09:08:50.060Z</time>
      </trkpt>
      <trkpt lat="42.92098" lon="0.18659">
        <ele>1662</ele>
        <time>2019-06-23T09:08:51.060Z</time>
      </trkpt>
      <trkpt lat="42.92097" lon="0.18659">
        <ele>1661</ele>
        <time>2019-06-23T09:08:52.060Z</time>
      </trkpt>
      <trkpt lat="42.92096" lon="0.18658">
        <ele>1661</ele>
        <time>2019-06-23T09:08:53.060Z</time>
      </trkpt>
      <trkpt lat="42.92095" lon="0.18658">
        <ele>1661</ele>
        <time>2019-06-23T09:08:54.060Z</time>
      </trkpt>
      <trkpt lat="42.92094" lon="0.18658">
        <ele>1661</ele>
        <time>2019-06-23T09:08:55.060Z</time>
      </trkpt>
      <trkpt lat="42.92094" lon="0.18658">
        <ele>1661</ele>
        <time>2019-06-23T09:08:56.060Z</time>
      </trkpt>
      <trkpt lat="42.92093" lon="0.18657">
        <ele>1661</ele>
        <time>2019-06-23T09:08:57.060Z</time>
      </trkpt>
      <trkpt lat="42.92092" lon="0.18657">
        <ele>1661</ele>
        <time>2019-06-23T09:08:58.060Z</time>
      </trkpt>
      <trkpt lat="42.92092" lon="0.18657">
        <ele>1660</ele>
        <time>2019-06-23T09:08:59.060Z</time>
      </trkpt>
      <trkpt lat="42.92091" lon="0.18657">
        <ele>1660</ele>
        <time>2019-06-23T09:09:00.060Z</time>
      </trkpt>
      <trkpt lat="42.9209" lon="0.18657">
        <ele>1660</ele>
        <time>2019-06-23T09:09:01.060Z</time>
      </trkpt>
      <trkpt lat="42.92089" lon="0.18657">
        <ele>1660</ele>
        <time>2019-06-23T09:09:02.060Z</time>
      </trkpt>
      <trkpt lat="42.92089" lon="0.18657">
        <ele>1659</ele>
        <time>2019-06-23T09:09:03.060Z</time>
      </trkpt>
      <trkpt lat="42.92088" lon="0.18657">
        <ele>1659</ele>
        <time>2019-06-23T09:09:04.060Z</time>
      </trkpt>
      <trkpt lat="42.92087" lon="0.18657">
        <ele>1659</ele>
        <time>2019-06-23T09:09:05.060Z</time>
      </trkpt>
      <trkpt lat="42.92087" lon="0.18657">
        <ele>1659</ele>
        <time>2019-06-23T09:09:06.060Z</time>
      </trkpt>
      <trkpt lat="42.92086" lon="0.18656">
        <ele>1658</ele>
        <time>2019-06-23T09:09:07.060Z</time>
      </trkpt>
      <trkpt lat="42.92086" lon="0.18656">
        <ele>1658</ele>
        <time>2019-06-23T09:09:08.060Z</time>
      </trkpt>
      <trkpt lat="42.92085" lon="0.18656">
        <ele>1658</ele>
        <time>2019-06-23T09:09:09.060Z</time>
      </trkpt>
      <trkpt lat="42.92085" lon="0.18656">
        <ele>1658</ele>
        <time>2019-06-23T09:09:10.060Z</time>
      </trkpt>
      <trkpt lat="42.92084" lon="0.18656">
        <ele>1658</ele>
        <time>2019-06-23T09:09:11.060Z</time>
      </trkpt>
      <trkpt lat="42.92084" lon="0.18655">
        <ele>1658</ele>
        <time>2019-06-23T09:09:12.060Z</time>
      </trkpt>
      <trkpt lat="42.92084" lon="0.18655">
        <ele>1658</ele>
        <time>2019-06-23T09:09:13.060Z</time>
      </trkpt>
      <trkpt lat="42.92084" lon="0.18656">
        <ele>1658</ele>
        <time>2019-06-23T09:09:14.060Z</time>
      </trkpt>
      <trkpt lat="42.92083" lon="0.18655">
        <ele>1658</ele>
        <time>2019-06-23T09:09:15.060Z</time>
      </trkpt>
      <trkpt lat="42.92083" lon="0.18655">
        <ele>1658</ele>
        <time>2019-06-23T09:09:16.060Z</time>
      </trkpt>
      <trkpt lat="42.92083" lon="0.18655">
        <ele>1658</ele>
        <time>2019-06-23T09:09:17.060Z</time>
      </trkpt>
      <trkpt lat="42.92082" lon="0.18654">
        <ele>1658</ele>
        <time>2019-06-23T09:09:18.060Z</time>
      </trkpt>
      <trkpt lat="42.92082" lon="0.18654">
        <ele>1658</ele>
        <time>2019-06-23T09:09:19.060Z</time>
      </trkpt>
      <trkpt lat="42.92081" lon="0.18654">
        <ele>1657</ele>
        <time>2019-06-23T09:09:20.060Z</time>
      </trkpt>
      <trkpt lat="42.92081" lon="0.18654">
        <ele>1657</ele>
        <time>2019-06-23T09:09:21.060Z</time>
      </trkpt>
      <trkpt lat="42.9208" lon="0.18654">
        <ele>1657</ele>
        <time>2019-06-23T09:09:22.060Z</time>
      </trkpt>
      <trkpt lat="42.9208" lon="0.18653">
        <ele>1657</ele>
        <time>2019-06-23T09:09:23.060Z</time>
      </trkpt>
      <trkpt lat="42.9208" lon="0.18653">
        <ele>1657</ele>
        <time>2019-06-23T09:09:24.060Z</time>
      </trkpt>
      <trkpt lat="42.92079" lon="0.18653">
        <ele>1657</ele>
        <time>2019-06-23T09:09:25.060Z</time>
      </trkpt>
      <trkpt lat="42.92079" lon="0.18653">
        <ele>1656</ele>
        <time>2019-06-23T09:09:26.060Z</time>
      </trkpt>
      <trkpt lat="42.92078" lon="0.18653">
        <ele>1657</ele>
        <time>2019-06-23T09:09:27.060Z</time>
      </trkpt>
      <trkpt lat="42.92077" lon="0.18653">
        <ele>1657</ele>
        <time>2019-06-23T09:09:28.060Z</time>
      </trkpt>
      <trkpt lat="42.92077" lon="0.18653">
        <ele>1656</ele>
        <time>2019-06-23T09:09:29.060Z</time>
      </trkpt>
      <trkpt lat="42.92077" lon="0.18652">
        <ele>1656</ele>
        <time>2019-06-23T09:09:30.060Z</time>
      </trkpt>
      <trkpt lat="42.92076" lon="0.18652">
        <ele>1656</ele>
        <time>2019-06-23T09:09:31.060Z</time>
      </trkpt>
      <trkpt lat="42.92076" lon="0.18652">
        <ele>1657</ele>
        <time>2019-06-23T09:09:32.060Z</time>
      </trkpt>
      <trkpt lat="42.92075" lon="0.18652">
        <ele>1656</ele>
        <time>2019-06-23T09:09:33.060Z</time>
      </trkpt>
      <trkpt lat="42.92075" lon="0.18651">
        <ele>1656</ele>
        <time>2019-06-23T09:09:34.060Z</time>
      </trkpt>
      <trkpt lat="42.92075" lon="0.18651">
        <ele>1656</ele>
        <time>2019-06-23T09:09:35.060Z</time>
      </trkpt>
      <trkpt lat="42.92075" lon="0.18651">
        <ele>1656</ele>
        <time>2019-06-23T09:09:36.060Z</time>
      </trkpt>
      <trkpt lat="42.92074" lon="0.18651">
        <ele>1656</ele>
        <time>2019-06-23T09:09:37.060Z</time>
      </trkpt>
      <trkpt lat="42.92074" lon="0.18651">
        <ele>1655</ele>
        <time>2019-06-23T09:09:38.060Z</time>
      </trkpt>
      <trkpt lat="42.92074" lon="0.18651">
        <ele>1655</ele>
        <time>2019-06-23T09:09:39.060Z</time>
      </trkpt>
      <trkpt lat="42.92074" lon="0.18651">
        <ele>1655</ele>
        <time>2019-06-23T09:09:40.060Z</time>
      </trkpt>
      <trkpt lat="42.92074" lon="0.18651">
        <ele>1655</ele>
        <time>2019-06-23T09:09:41.060Z</time>
      </trkpt>
      <trkpt lat="42.92074" lon="0.18651">
        <ele>1655</ele>
        <time>2019-06-23T09:09:42.060Z</time>
      </trkpt>
      <trkpt lat="42.92074" lon="0.1865">
        <ele>1655</ele>
        <time>2019-06-23T09:09:43.060Z</time>
      </trkpt>
      <trkpt lat="42.92073" lon="0.1865">
        <ele>1655</ele>
        <time>2019-06-23T09:09:44.060Z</time>
      </trkpt>
      <trkpt lat="42.92073" lon="0.18649">
        <ele>1654</ele>
        <time>2019-06-23T09:09:45.060Z</time>
      </trkpt>
      <trkpt lat="42.92072" lon="0.18649">
        <ele>1654</ele>
        <time>2019-06-23T09:09:46.060Z</time>
      </trkpt>
      <trkpt lat="42.92072" lon="0.18648">
        <ele>1654</ele>
        <time>2019-06-23T09:09:47.060Z</time>
      </trkpt>
      <trkpt lat="42.92071" lon="0.18647">
        <ele>1654</ele>
        <time>2019-06-23T09:09:48.060Z</time>
      </trkpt>
      <trkpt lat="42.92071" lon="0.18647">
        <ele>1653</ele>
        <time>2019-06-23T09:09:49.060Z</time>
      </trkpt>
      <trkpt lat="42.9207" lon="0.18646">
        <ele>1653</ele>
        <time>2019-06-23T09:09:50.060Z</time>
      </trkpt>
      <trkpt lat="42.9207" lon="0.18646">
        <ele>1653</ele>
        <time>2019-06-23T09:09:51.060Z</time>
      </trkpt>
      <trkpt lat="42.92069" lon="0.18645">
        <ele>1653</ele>
        <time>2019-06-23T09:09:52.060Z</time>
      </trkpt>
      <trkpt lat="42.92069" lon="0.18645">
        <ele>1653</ele>
        <time>2019-06-23T09:09:53.060Z</time>
      </trkpt>
      <trkpt lat="42.92068" lon="0.18644">
        <ele>1652</ele>
        <time>2019-06-23T09:09:54.060Z</time>
      </trkpt>
      <trkpt lat="42.92068" lon="0.18643">
        <ele>1652</ele>
        <time>2019-06-23T09:09:55.060Z</time>
      </trkpt>
      <trkpt lat="42.92067" lon="0.18643">
        <ele>1652</ele>
        <time>2019-06-23T09:09:56.060Z</time>
      </trkpt>
      <trkpt lat="42.92066" lon="0.18642">
        <ele>1652</ele>
        <time>2019-06-23T09:09:57.060Z</time>
      </trkpt>
      <trkpt lat="42.92066" lon="0.18641">
        <ele>1651</ele>
        <time>2019-06-23T09:09:58.060Z</time>
      </trkpt>
      <trkpt lat="42.92065" lon="0.1864">
        <ele>1651</ele>
        <time>2019-06-23T09:09:59.060Z</time>
      </trkpt>
      <trkpt lat="42.92064" lon="0.18639">
        <ele>1651</ele>
        <time>2019-06-23T09:10:00.060Z</time>
      </trkpt>
      <trkpt lat="42.92064" lon="0.18638">
        <ele>1651</ele>
        <time>2019-06-23T09:10:01.060Z</time>
      </trkpt>
      <trkpt lat="42.92063" lon="0.18637">
        <ele>1651</ele>
        <time>2019-06-23T09:10:02.060Z</time>
      </trkpt>
      <trkpt lat="42.92063" lon="0.18637">
        <ele>1651</ele>
        <time>2019-06-23T09:10:03.060Z</time>
      </trkpt>
      <trkpt lat="42.92062" lon="0.18636">
        <ele>1650</ele>
        <time>2019-06-23T09:10:04.060Z</time>
      </trkpt>
      <trkpt lat="42.92062" lon="0.18636">
        <ele>1650</ele>
        <time>2019-06-23T09:10:05.060Z</time>
      </trkpt>
      <trkpt lat="42.92062" lon="0.18635">
        <ele>1650</ele>
        <time>2019-06-23T09:10:06.060Z</time>
      </trkpt>
      <trkpt lat="42.92061" lon="0.18634">
        <ele>1650</ele>
        <time>2019-06-23T09:10:07.060Z</time>
      </trkpt>
      <trkpt lat="42.92061" lon="0.18634">
        <ele>1650</ele>
        <time>2019-06-23T09:10:08.060Z</time>
      </trkpt>
      <trkpt lat="42.9206" lon="0.18633">
        <ele>1650</ele>
        <time>2019-06-23T09:10:09.060Z</time>
      </trkpt>
      <trkpt lat="42.92059" lon="0.18633">
        <ele>1649</ele>
        <time>2019-06-23T09:10:10.060Z</time>
      </trkpt>
      <trkpt lat="42.92059" lon="0.18632">
        <ele>1649</ele>
        <time>2019-06-23T09:10:11.060Z</time>
      </trkpt>
      <trkpt lat="42.92058" lon="0.18631">
        <ele>1649</ele>
        <time>2019-06-23T09:10:12.060Z</time>
      </trkpt>
      <trkpt lat="42.92058" lon="0.1863">
        <ele>1649</ele>
        <time>2019-06-23T09:10:13.060Z</time>
      </trkpt>
      <trkpt lat="42.92057" lon="0.1863">
        <ele>1649</ele>
        <time>2019-06-23T09:10:14.060Z</time>
      </trkpt>
      <trkpt lat="42.92057" lon="0.18629">
        <ele>1648</ele>
        <time>2019-06-23T09:10:15.060Z</time>
      </trkpt>
      <trkpt lat="42.92056" lon="0.18628">
        <ele>1648</ele>
        <time>2019-06-23T09:10:16.060Z</time>
      </trkpt>
      <trkpt lat="42.92055" lon="0.18628">
        <ele>1648</ele>
        <time>2019-06-23T09:10:17.060Z</time>
      </trkpt>
      <trkpt lat="42.92055" lon="0.18627">
        <ele>1648</ele>
        <time>2019-06-23T09:10:18.060Z</time>
      </trkpt>
      <trkpt lat="42.92054" lon="0.18626">
        <ele>1647</ele>
        <time>2019-06-23T09:10:19.060Z</time>
      </trkpt>
      <trkpt lat="42.92054" lon="0.18625">
        <ele>1647</ele>
        <time>2019-06-23T09:10:20.060Z</time>
      </trkpt>
      <trkpt lat="42.92053" lon="0.18625">
        <ele>1647</ele>
        <time>2019-06-23T09:10:21.060Z</time>
      </trkpt>
      <trkpt lat="42.92053" lon="0.18624">
        <ele>1647</ele>
        <time>2019-06-23T09:10:22.060Z</time>
      </trkpt>
      <trkpt lat="42.92053" lon="0.18624">
        <ele>1646</ele>
        <time>2019-06-23T09:10:23.060Z</time>
      </trkpt>
      <trkpt lat="42.92052" lon="0.18624">
        <ele>1646</ele>
        <time>2019-06-23T09:10:24.060Z</time>
      </trkpt>
      <trkpt lat="42.92052" lon="0.18623">
        <ele>1646</ele>
        <time>2019-06-23T09:10:25.060Z</time>
      </trkpt>
      <trkpt lat="42.92051" lon="0.18623">
        <ele>1646</ele>
        <time>2019-06-23T09:10:26.060Z</time>
      </trkpt>
      <trkpt lat="42.9205" lon="0.18622">
        <ele>1645</ele>
        <time>2019-06-23T09:10:27.060Z</time>
      </trkpt>
      <trkpt lat="42.9205" lon="0.18622">
        <ele>1645</ele>
        <time>2019-06-23T09:10:28.060Z</time>
      </trkpt>
      <trkpt lat="42.92049" lon="0.18621">
        <ele>1645</ele>
        <time>2019-06-23T09:10:29.060Z</time>
      </trkpt>
      <trkpt lat="42.92049" lon="0.18621">
        <ele>1645</ele>
        <time>2019-06-23T09:10:30.060Z</time>
      </trkpt>
      <trkpt lat="42.92048" lon="0.1862">
        <ele>1644</ele>
        <time>2019-06-23T09:10:31.060Z</time>
      </trkpt>
      <trkpt lat="42.92048" lon="0.1862">
        <ele>1644</ele>
        <time>2019-06-23T09:10:32.060Z</time>
      </trkpt>
      <trkpt lat="42.92047" lon="0.1862">
        <ele>1644</ele>
        <time>2019-06-23T09:10:33.060Z</time>
      </trkpt>
      <trkpt lat="42.92047" lon="0.18619">
        <ele>1644</ele>
        <time>2019-06-23T09:10:34.060Z</time>
      </trkpt>
      <trkpt lat="42.92046" lon="0.18619">
        <ele>1644</ele>
        <time>2019-06-23T09:10:35.060Z</time>
      </trkpt>
      <trkpt lat="42.92046" lon="0.18618">
        <ele>1643</ele>
        <time>2019-06-23T09:10:36.060Z</time>
      </trkpt>
      <trkpt lat="42.92045" lon="0.18618">
        <ele>1644</ele>
        <time>2019-06-23T09:10:37.060Z</time>
      </trkpt>
      <trkpt lat="42.92044" lon="0.18618">
        <ele>1644</ele>
        <time>2019-06-23T09:10:38.060Z</time>
      </trkpt>
      <trkpt lat="42.92044" lon="0.18618">
        <ele>1644</ele>
        <time>2019-06-23T09:10:39.060Z</time>
      </trkpt>
      <trkpt lat="42.92043" lon="0.18617">
        <ele>1644</ele>
        <time>2019-06-23T09:10:40.060Z</time>
      </trkpt>
      <trkpt lat="42.92043" lon="0.18617">
        <ele>1644</ele>
        <time>2019-06-23T09:10:41.060Z</time>
      </trkpt>
      <trkpt lat="42.92042" lon="0.18616">
        <ele>1644</ele>
        <time>2019-06-23T09:10:42.060Z</time>
      </trkpt>
      <trkpt lat="42.92041" lon="0.18616">
        <ele>1644</ele>
        <time>2019-06-23T09:10:43.060Z</time>
      </trkpt>
      <trkpt lat="42.92041" lon="0.18615">
        <ele>1644</ele>
        <time>2019-06-23T09:10:44.060Z</time>
      </trkpt>
      <trkpt lat="42.92041" lon="0.18615">
        <ele>1644</ele>
        <time>2019-06-23T09:10:45.060Z</time>
      </trkpt>
      <trkpt lat="42.9204" lon="0.18614">
        <ele>1644</ele>
        <time>2019-06-23T09:10:46.060Z</time>
      </trkpt>
      <trkpt lat="42.9204" lon="0.18614">
        <ele>1644</ele>
        <time>2019-06-23T09:10:47.060Z</time>
      </trkpt>
      <trkpt lat="42.92039" lon="0.18614">
        <ele>1644</ele>
        <time>2019-06-23T09:10:48.060Z</time>
      </trkpt>
      <trkpt lat="42.92039" lon="0.18613">
        <ele>1644</ele>
        <time>2019-06-23T09:10:49.060Z</time>
      </trkpt>
      <trkpt lat="42.92038" lon="0.18613">
        <ele>1644</ele>
        <time>2019-06-23T09:10:50.060Z</time>
      </trkpt>
      <trkpt lat="42.92038" lon="0.18613">
        <ele>1644</ele>
        <time>2019-06-23T09:10:51.060Z</time>
      </trkpt>
      <trkpt lat="42.92037" lon="0.18613">
        <ele>1644</ele>
        <time>2019-06-23T09:10:52.060Z</time>
      </trkpt>
      <trkpt lat="42.92037" lon="0.18612">
        <ele>1644</ele>
        <time>2019-06-23T09:10:53.060Z</time>
      </trkpt>
      <trkpt lat="42.92036" lon="0.18612">
        <ele>1644</ele>
        <time>2019-06-23T09:10:54.060Z</time>
      </trkpt>
      <trkpt lat="42.92036" lon="0.18612">
        <ele>1644</ele>
        <time>2019-06-23T09:10:55.060Z</time>
      </trkpt>
      <trkpt lat="42.92035" lon="0.18612">
        <ele>1644</ele>
        <time>2019-06-23T09:10:56.060Z</time>
      </trkpt>
      <trkpt lat="42.92035" lon="0.18612">
        <ele>1643</ele>
        <time>2019-06-23T09:10:57.060Z</time>
      </trkpt>
      <trkpt lat="42.92034" lon="0.18612">
        <ele>1643</ele>
        <time>2019-06-23T09:10:58.060Z</time>
      </trkpt>
      <trkpt lat="42.92034" lon="0.18612">
        <ele>1643</ele>
        <time>2019-06-23T09:10:59.060Z</time>
      </trkpt>
      <trkpt lat="42.92033" lon="0.18611">
        <ele>1642</ele>
        <time>2019-06-23T09:11:00.060Z</time>
      </trkpt>
      <trkpt lat="42.92033" lon="0.18611">
        <ele>1642</ele>
        <time>2019-06-23T09:11:01.060Z</time>
      </trkpt>
      <trkpt lat="42.92032" lon="0.1861">
        <ele>1642</ele>
        <time>2019-06-23T09:11:02.060Z</time>
      </trkpt>
      <trkpt lat="42.92032" lon="0.1861">
        <ele>1641</ele>
        <time>2019-06-23T09:11:03.060Z</time>
      </trkpt>
      <trkpt lat="42.92031" lon="0.1861">
        <ele>1641</ele>
        <time>2019-06-23T09:11:04.060Z</time>
      </trkpt>
      <trkpt lat="42.92031" lon="0.18609">
        <ele>1641</ele>
        <time>2019-06-23T09:11:05.060Z</time>
      </trkpt>
      <trkpt lat="42.9203" lon="0.18609">
        <ele>1641</ele>
        <time>2019-06-23T09:11:06.060Z</time>
      </trkpt>
      <trkpt lat="42.9203" lon="0.18608">
        <ele>1640</ele>
        <time>2019-06-23T09:11:07.060Z</time>
      </trkpt>
      <trkpt lat="42.92029" lon="0.18607">
        <ele>1640</ele>
        <time>2019-06-23T09:11:08.060Z</time>
      </trkpt>
      <trkpt lat="42.92029" lon="0.18607">
        <ele>1640</ele>
        <time>2019-06-23T09:11:09.060Z</time>
      </trkpt>
      <trkpt lat="42.92028" lon="0.18606">
        <ele>1640</ele>
        <time>2019-06-23T09:11:10.060Z</time>
      </trkpt>
      <trkpt lat="42.92027" lon="0.18605">
        <ele>1639</ele>
        <time>2019-06-23T09:11:11.060Z</time>
      </trkpt>
      <trkpt lat="42.92027" lon="0.18605">
        <ele>1639</ele>
        <time>2019-06-23T09:11:12.060Z</time>
      </trkpt>
      <trkpt lat="42.92026" lon="0.18604">
        <ele>1639</ele>
        <time>2019-06-23T09:11:13.060Z</time>
      </trkpt>
      <trkpt lat="42.92026" lon="0.18603">
        <ele>1639</ele>
        <time>2019-06-23T09:11:14.060Z</time>
      </trkpt>
      <trkpt lat="42.92025" lon="0.18603">
        <ele>1639</ele>
        <time>2019-06-23T09:11:15.060Z</time>
      </trkpt>
      <trkpt lat="42.92024" lon="0.18602">
        <ele>1638</ele>
        <time>2019-06-23T09:11:16.060Z</time>
      </trkpt>
      <trkpt lat="42.92024" lon="0.18602">
        <ele>1638</ele>
        <time>2019-06-23T09:11:17.060Z</time>
      </trkpt>
      <trkpt lat="42.92024" lon="0.18601">
        <ele>1638</ele>
        <time>2019-06-23T09:11:18.060Z</time>
      </trkpt>
      <trkpt lat="42.92023" lon="0.18601">
        <ele>1638</ele>
        <time>2019-06-23T09:11:19.060Z</time>
      </trkpt>
      <trkpt lat="42.92022" lon="0.18601">
        <ele>1638</ele>
        <time>2019-06-23T09:11:20.060Z</time>
      </trkpt>
      <trkpt lat="42.92022" lon="0.18601">
        <ele>1638</ele>
        <time>2019-06-23T09:11:21.060Z</time>
      </trkpt>
      <trkpt lat="42.92021" lon="0.186">
        <ele>1637</ele>
        <time>2019-06-23T09:11:22.060Z</time>
      </trkpt>
      <trkpt lat="42.92021" lon="0.186">
        <ele>1637</ele>
        <time>2019-06-23T09:11:23.060Z</time>
      </trkpt>
      <trkpt lat="42.9202" lon="0.186">
        <ele>1637</ele>
        <time>2019-06-23T09:11:24.060Z</time>
      </trkpt>
      <trkpt lat="42.9202" lon="0.18599">
        <ele>1637</ele>
        <time>2019-06-23T09:11:25.060Z</time>
      </trkpt>
      <trkpt lat="42.92019" lon="0.18599">
        <ele>1637</ele>
        <time>2019-06-23T09:11:26.060Z</time>
      </trkpt>
      <trkpt lat="42.92019" lon="0.18598">
        <ele>1637</ele>
        <time>2019-06-23T09:11:27.060Z</time>
      </trkpt>
      <trkpt lat="42.92019" lon="0.18598">
        <ele>1637</ele>
        <time>2019-06-23T09:11:28.060Z</time>
      </trkpt>
      <trkpt lat="42.92018" lon="0.18598">
        <ele>1637</ele>
        <time>2019-06-23T09:11:29.060Z</time>
      </trkpt>
      <trkpt lat="42.92018" lon="0.18598">
        <ele>1637</ele>
        <time>2019-06-23T09:11:30.060Z</time>
      </trkpt>
      <trkpt lat="42.92017" lon="0.18597">
        <ele>1637</ele>
        <time>2019-06-23T09:11:31.060Z</time>
      </trkpt>
      <trkpt lat="42.92017" lon="0.18597">
        <ele>1637</ele>
        <time>2019-06-23T09:11:32.060Z</time>
      </trkpt>
      <trkpt lat="42.92016" lon="0.18597">
        <ele>1637</ele>
        <time>2019-06-23T09:11:33.060Z</time>
      </trkpt>
      <trkpt lat="42.92016" lon="0.18596">
        <ele>1637</ele>
        <time>2019-06-23T09:11:34.060Z</time>
      </trkpt>
      <trkpt lat="42.92015" lon="0.18596">
        <ele>1637</ele>
        <time>2019-06-23T09:11:35.060Z</time>
      </trkpt>
      <trkpt lat="42.92015" lon="0.18596">
        <ele>1636</ele>
        <time>2019-06-23T09:11:36.060Z</time>
      </trkpt>
      <trkpt lat="42.92014" lon="0.18595">
        <ele>1636</ele>
        <time>2019-06-23T09:11:37.060Z</time>
      </trkpt>
      <trkpt lat="42.92013" lon="0.18595">
        <ele>1636</ele>
        <time>2019-06-23T09:11:38.060Z</time>
      </trkpt>
      <trkpt lat="42.92013" lon="0.18594">
        <ele>1636</ele>
        <time>2019-06-23T09:11:39.060Z</time>
      </trkpt>
      <trkpt lat="42.92012" lon="0.18594">
        <ele>1636</ele>
        <time>2019-06-23T09:11:40.060Z</time>
      </trkpt>
      <trkpt lat="42.92011" lon="0.18593">
        <ele>1635</ele>
        <time>2019-06-23T09:11:41.060Z</time>
      </trkpt>
      <trkpt lat="42.92011" lon="0.18592">
        <ele>1635</ele>
        <time>2019-06-23T09:11:42.060Z</time>
      </trkpt>
      <trkpt lat="42.9201" lon="0.18591">
        <ele>1635</ele>
        <time>2019-06-23T09:11:43.060Z</time>
      </trkpt>
      <trkpt lat="42.92009" lon="0.1859">
        <ele>1635</ele>
        <time>2019-06-23T09:11:44.060Z</time>
      </trkpt>
      <trkpt lat="42.92009" lon="0.1859">
        <ele>1635</ele>
        <time>2019-06-23T09:11:45.060Z</time>
      </trkpt>
      <trkpt lat="42.92008" lon="0.18589">
        <ele>1635</ele>
        <time>2019-06-23T09:11:46.060Z</time>
      </trkpt>
      <trkpt lat="42.92008" lon="0.18588">
        <ele>1635</ele>
        <time>2019-06-23T09:11:47.060Z</time>
      </trkpt>
      <trkpt lat="42.92007" lon="0.18588">
        <ele>1635</ele>
        <time>2019-06-23T09:11:48.060Z</time>
      </trkpt>
      <trkpt lat="42.92007" lon="0.18587">
        <ele>1635</ele>
        <time>2019-06-23T09:11:49.060Z</time>
      </trkpt>
      <trkpt lat="42.92006" lon="0.18586">
        <ele>1635</ele>
        <time>2019-06-23T09:11:50.060Z</time>
      </trkpt>
      <trkpt lat="42.92006" lon="0.18585">
        <ele>1635</ele>
        <time>2019-06-23T09:11:51.060Z</time>
      </trkpt>
      <trkpt lat="42.92006" lon="0.18584">
        <ele>1635</ele>
        <time>2019-06-23T09:11:52.060Z</time>
      </trkpt>
      <trkpt lat="42.92005" lon="0.18583">
        <ele>1635</ele>
        <time>2019-06-23T09:11:53.060Z</time>
      </trkpt>
      <trkpt lat="42.92005" lon="0.18582">
        <ele>1634</ele>
        <time>2019-06-23T09:11:54.060Z</time>
      </trkpt>
      <trkpt lat="42.92005" lon="0.18582">
        <ele>1634</ele>
        <time>2019-06-23T09:11:55.060Z</time>
      </trkpt>
      <trkpt lat="42.92005" lon="0.18581">
        <ele>1634</ele>
        <time>2019-06-23T09:11:56.060Z</time>
      </trkpt>
      <trkpt lat="42.92005" lon="0.1858">
        <ele>1634</ele>
        <time>2019-06-23T09:11:57.060Z</time>
      </trkpt>
      <trkpt lat="42.92005" lon="0.18579">
        <ele>1634</ele>
        <time>2019-06-23T09:11:58.060Z</time>
      </trkpt>
      <trkpt lat="42.92005" lon="0.18578">
        <ele>1634</ele>
        <time>2019-06-23T09:11:59.060Z</time>
      </trkpt>
      <trkpt lat="42.92005" lon="0.18577">
        <ele>1634</ele>
        <time>2019-06-23T09:12:00.060Z</time>
      </trkpt>
      <trkpt lat="42.92005" lon="0.18576">
        <ele>1633</ele>
        <time>2019-06-23T09:12:01.060Z</time>
      </trkpt>
      <trkpt lat="42.92005" lon="0.18576">
        <ele>1633</ele>
        <time>2019-06-23T09:12:02.060Z</time>
      </trkpt>
      <trkpt lat="42.92005" lon="0.18575">
        <ele>1634</ele>
        <time>2019-06-23T09:12:03.060Z</time>
      </trkpt>
      <trkpt lat="42.92005" lon="0.18575">
        <ele>1634</ele>
        <time>2019-06-23T09:12:04.060Z</time>
      </trkpt>
      <trkpt lat="42.92005" lon="0.18574">
        <ele>1633</ele>
        <time>2019-06-23T09:12:05.060Z</time>
      </trkpt>
      <trkpt lat="42.92005" lon="0.18574">
        <ele>1634</ele>
        <time>2019-06-23T09:12:06.060Z</time>
      </trkpt>
      <trkpt lat="42.92005" lon="0.18574">
        <ele>1634</ele>
        <time>2019-06-23T09:12:07.060Z</time>
      </trkpt>
      <trkpt lat="42.92005" lon="0.18573">
        <ele>1634</ele>
        <time>2019-06-23T09:12:08.060Z</time>
      </trkpt>
      <trkpt lat="42.92005" lon="0.18573">
        <ele>1634</ele>
        <time>2019-06-23T09:12:09.060Z</time>
      </trkpt>
      <trkpt lat="42.92003" lon="0.1857">
        <ele>1633</ele>
        <time>2019-06-23T09:12:10.064Z</time>
      </trkpt>
      <trkpt lat="42.92003" lon="0.18569">
        <ele>1633</ele>
        <time>2019-06-23T09:12:11.064Z</time>
      </trkpt>
      <trkpt lat="42.92003" lon="0.18569">
        <ele>1633</ele>
        <time>2019-06-23T09:12:12.064Z</time>
      </trkpt>
      <trkpt lat="42.92003" lon="0.18569">
        <ele>1633</ele>
        <time>2019-06-23T09:12:13.064Z</time>
      </trkpt>
      <trkpt lat="42.92003" lon="0.18568">
        <ele>1633</ele>
        <time>2019-06-23T09:12:14.064Z</time>
      </trkpt>
      <trkpt lat="42.92002" lon="0.18568">
        <ele>1633</ele>
        <time>2019-06-23T09:12:15.064Z</time>
      </trkpt>
      <trkpt lat="42.92002" lon="0.18568">
        <ele>1633</ele>
        <time>2019-06-23T09:12:16.064Z</time>
      </trkpt>
      <trkpt lat="42.92002" lon="0.18567">
        <ele>1633</ele>
        <time>2019-06-23T09:12:17.064Z</time>
      </trkpt>
      <trkpt lat="42.92002" lon="0.18567">
        <ele>1633</ele>
        <time>2019-06-23T09:12:18.064Z</time>
      </trkpt>
      <trkpt lat="42.92002" lon="0.18566">
        <ele>1632</ele>
        <time>2019-06-23T09:12:19.064Z</time>
      </trkpt>
      <trkpt lat="42.92002" lon="0.18566">
        <ele>1632</ele>
        <time>2019-06-23T09:12:20.064Z</time>
      </trkpt>
      <trkpt lat="42.92001" lon="0.18566">
        <ele>1632</ele>
        <time>2019-06-23T09:12:21.064Z</time>
      </trkpt>
      <trkpt lat="42.92001" lon="0.18565">
        <ele>1632</ele>
        <time>2019-06-23T09:12:22.064Z</time>
      </trkpt>
      <trkpt lat="42.92001" lon="0.18565">
        <ele>1632</ele>
        <time>2019-06-23T09:12:23.064Z</time>
      </trkpt>
      <trkpt lat="42.92" lon="0.18565">
        <ele>1632</ele>
        <time>2019-06-23T09:12:24.064Z</time>
      </trkpt>
      <trkpt lat="42.91999" lon="0.18565">
        <ele>1632</ele>
        <time>2019-06-23T09:12:25.064Z</time>
      </trkpt>
      <trkpt lat="42.91999" lon="0.18565">
        <ele>1633</ele>
        <time>2019-06-23T09:12:26.064Z</time>
      </trkpt>
      <trkpt lat="42.91998" lon="0.18565">
        <ele>1632</ele>
        <time>2019-06-23T09:12:27.064Z</time>
      </trkpt>
      <trkpt lat="42.91997" lon="0.18564">
        <ele>1632</ele>
        <time>2019-06-23T09:12:28.064Z</time>
      </trkpt>
      <trkpt lat="42.91997" lon="0.18564">
        <ele>1632</ele>
        <time>2019-06-23T09:12:29.064Z</time>
      </trkpt>
      <trkpt lat="42.91997" lon="0.18564">
        <ele>1632</ele>
        <time>2019-06-23T09:12:30.064Z</time>
      </trkpt>
      <trkpt lat="42.91997" lon="0.18564">
        <ele>1632</ele>
        <time>2019-06-23T09:12:31.064Z</time>
      </trkpt>
      <trkpt lat="42.91997" lon="0.18564">
        <ele>1632</ele>
        <time>2019-06-23T09:12:32.064Z</time>
      </trkpt>
      <trkpt lat="42.91997" lon="0.18565">
        <ele>1632</ele>
        <time>2019-06-23T09:12:33.064Z</time>
      </trkpt>
      <trkpt lat="42.91996" lon="0.18565">
        <ele>1633</ele>
        <time>2019-06-23T09:12:34.064Z</time>
      </trkpt>
      <trkpt lat="42.91996" lon="0.18565">
        <ele>1632</ele>
        <time>2019-06-23T09:12:35.064Z</time>
      </trkpt>
      <trkpt lat="42.91995" lon="0.18565">
        <ele>1633</ele>
        <time>2019-06-23T09:12:36.064Z</time>
      </trkpt>
      <trkpt lat="42.91995" lon="0.18565">
        <ele>1633</ele>
        <time>2019-06-23T09:12:37.064Z</time>
      </trkpt>
      <trkpt lat="42.91994" lon="0.18565">
        <ele>1633</ele>
        <time>2019-06-23T09:12:38.064Z</time>
      </trkpt>
      <trkpt lat="42.91994" lon="0.18565">
        <ele>1632</ele>
        <time>2019-06-23T09:12:39.064Z</time>
      </trkpt>
      <trkpt lat="42.91993" lon="0.18565">
        <ele>1632</ele>
        <time>2019-06-23T09:12:40.064Z</time>
      </trkpt>
      <trkpt lat="42.91992" lon="0.18565">
        <ele>1632</ele>
        <time>2019-06-23T09:12:41.064Z</time>
      </trkpt>
      <trkpt lat="42.91992" lon="0.18566">
        <ele>1632</ele>
        <time>2019-06-23T09:12:42.064Z</time>
      </trkpt>
      <trkpt lat="42.91991" lon="0.18566">
        <ele>1632</ele>
        <time>2019-06-23T09:12:43.064Z</time>
      </trkpt>
      <trkpt lat="42.9199" lon="0.18566">
        <ele>1632</ele>
        <time>2019-06-23T09:12:44.064Z</time>
      </trkpt>
      <trkpt lat="42.91989" lon="0.18566">
        <ele>1633</ele>
        <time>2019-06-23T09:12:45.064Z</time>
      </trkpt>
      <trkpt lat="42.91989" lon="0.18566">
        <ele>1633</ele>
        <time>2019-06-23T09:12:46.064Z</time>
      </trkpt>
      <trkpt lat="42.91988" lon="0.18566">
        <ele>1633</ele>
        <time>2019-06-23T09:12:47.064Z</time>
      </trkpt>
      <trkpt lat="42.91988" lon="0.18566">
        <ele>1633</ele>
        <time>2019-06-23T09:12:48.064Z</time>
      </trkpt>
      <trkpt lat="42.91987" lon="0.18566">
        <ele>1633</ele>
        <time>2019-06-23T09:12:49.064Z</time>
      </trkpt>
      <trkpt lat="42.91986" lon="0.18566">
        <ele>1632</ele>
        <time>2019-06-23T09:12:50.064Z</time>
      </trkpt>
      <trkpt lat="42.91986" lon="0.18567">
        <ele>1632</ele>
        <time>2019-06-23T09:12:51.064Z</time>
      </trkpt>
      <trkpt lat="42.91985" lon="0.18567">
        <ele>1632</ele>
        <time>2019-06-23T09:12:52.064Z</time>
      </trkpt>
      <trkpt lat="42.91984" lon="0.18567">
        <ele>1632</ele>
        <time>2019-06-23T09:12:53.064Z</time>
      </trkpt>
      <trkpt lat="42.91983" lon="0.18567">
        <ele>1632</ele>
        <time>2019-06-23T09:12:54.064Z</time>
      </trkpt>
      <trkpt lat="42.91983" lon="0.18567">
        <ele>1632</ele>
        <time>2019-06-23T09:12:55.064Z</time>
      </trkpt>
      <trkpt lat="42.91982" lon="0.18567">
        <ele>1632</ele>
        <time>2019-06-23T09:12:56.064Z</time>
      </trkpt>
      <trkpt lat="42.91981" lon="0.18567">
        <ele>1632</ele>
        <time>2019-06-23T09:12:57.064Z</time>
      </trkpt>
      <trkpt lat="42.9198" lon="0.18567">
        <ele>1632</ele>
        <time>2019-06-23T09:12:58.064Z</time>
      </trkpt>
      <trkpt lat="42.9198" lon="0.18567">
        <ele>1632</ele>
        <time>2019-06-23T09:12:59.064Z</time>
      </trkpt>
      <trkpt lat="42.91979" lon="0.18567">
        <ele>1632</ele>
        <time>2019-06-23T09:13:00.064Z</time>
      </trkpt>
      <trkpt lat="42.91979" lon="0.18567">
        <ele>1632</ele>
        <time>2019-06-23T09:13:01.064Z</time>
      </trkpt>
      <trkpt lat="42.91978" lon="0.18567">
        <ele>1632</ele>
        <time>2019-06-23T09:13:02.064Z</time>
      </trkpt>
      <trkpt lat="42.91977" lon="0.18567">
        <ele>1632</ele>
        <time>2019-06-23T09:13:03.064Z</time>
      </trkpt>
      <trkpt lat="42.91977" lon="0.18566">
        <ele>1632</ele>
        <time>2019-06-23T09:13:04.064Z</time>
      </trkpt>
      <trkpt lat="42.91976" lon="0.18566">
        <ele>1632</ele>
        <time>2019-06-23T09:13:05.064Z</time>
      </trkpt>
      <trkpt lat="42.91975" lon="0.18566">
        <ele>1632</ele>
        <time>2019-06-23T09:13:06.064Z</time>
      </trkpt>
      <trkpt lat="42.91975" lon="0.18566">
        <ele>1632</ele>
        <time>2019-06-23T09:13:07.064Z</time>
      </trkpt>
      <trkpt lat="42.91974" lon="0.18565">
        <ele>1632</ele>
        <time>2019-06-23T09:13:08.064Z</time>
      </trkpt>
      <trkpt lat="42.91973" lon="0.18565">
        <ele>1631</ele>
        <time>2019-06-23T09:13:09.064Z</time>
      </trkpt>
      <trkpt lat="42.91972" lon="0.18565">
        <ele>1631</ele>
        <time>2019-06-23T09:13:10.064Z</time>
      </trkpt>
      <trkpt lat="42.91971" lon="0.18565">
        <ele>1631</ele>
        <time>2019-06-23T09:13:11.064Z</time>
      </trkpt>
      <trkpt lat="42.9197" lon="0.18565">
        <ele>1632</ele>
        <time>2019-06-23T09:13:12.064Z</time>
      </trkpt>
      <trkpt lat="42.91969" lon="0.18565">
        <ele>1632</ele>
        <time>2019-06-23T09:13:13.064Z</time>
      </trkpt>
      <trkpt lat="42.91968" lon="0.18565">
        <ele>1632</ele>
        <time>2019-06-23T09:13:14.064Z</time>
      </trkpt>
      <trkpt lat="42.91967" lon="0.18565">
        <ele>1632</ele>
        <time>2019-06-23T09:13:15.064Z</time>
      </trkpt>
      <trkpt lat="42.91966" lon="0.18564">
        <ele>1632</ele>
        <time>2019-06-23T09:13:16.064Z</time>
      </trkpt>
      <trkpt lat="42.91966" lon="0.18564">
        <ele>1632</ele>
        <time>2019-06-23T09:13:17.064Z</time>
      </trkpt>
      <trkpt lat="42.91965" lon="0.18564">
        <ele>1632</ele>
        <time>2019-06-23T09:13:18.064Z</time>
      </trkpt>
      <trkpt lat="42.91965" lon="0.18564">
        <ele>1632</ele>
        <time>2019-06-23T09:13:19.064Z</time>
      </trkpt>
      <trkpt lat="42.91965" lon="0.18564">
        <ele>1631</ele>
        <time>2019-06-23T09:13:20.064Z</time>
      </trkpt>
      <trkpt lat="42.91964" lon="0.18564">
        <ele>1631</ele>
        <time>2019-06-23T09:13:21.064Z</time>
      </trkpt>
      <trkpt lat="42.91964" lon="0.18564">
        <ele>1632</ele>
        <time>2019-06-23T09:13:22.064Z</time>
      </trkpt>
      <trkpt lat="42.91964" lon="0.18564">
        <ele>1631</ele>
        <time>2019-06-23T09:13:23.064Z</time>
      </trkpt>
      <trkpt lat="42.91963" lon="0.18564">
        <ele>1631</ele>
        <time>2019-06-23T09:13:24.064Z</time>
      </trkpt>
      <trkpt lat="42.91963" lon="0.18564">
        <ele>1631</ele>
        <time>2019-06-23T09:13:25.064Z</time>
      </trkpt>
      <trkpt lat="42.91962" lon="0.18564">
        <ele>1630</ele>
        <time>2019-06-23T09:13:26.064Z</time>
      </trkpt>
      <trkpt lat="42.91962" lon="0.18564">
        <ele>1630</ele>
        <time>2019-06-23T09:13:27.064Z</time>
      </trkpt>
      <trkpt lat="42.91961" lon="0.18564">
        <ele>1630</ele>
        <time>2019-06-23T09:13:28.064Z</time>
      </trkpt>
      <trkpt lat="42.9196" lon="0.18564">
        <ele>1630</ele>
        <time>2019-06-23T09:13:29.064Z</time>
      </trkpt>
      <trkpt lat="42.91959" lon="0.18563">
        <ele>1630</ele>
        <time>2019-06-23T09:13:30.064Z</time>
      </trkpt>
      <trkpt lat="42.91958" lon="0.18563">
        <ele>1630</ele>
        <time>2019-06-23T09:13:31.064Z</time>
      </trkpt>
      <trkpt lat="42.91957" lon="0.18563">
        <ele>1630</ele>
        <time>2019-06-23T09:13:32.064Z</time>
      </trkpt>
      <trkpt lat="42.91957" lon="0.18562">
        <ele>1630</ele>
        <time>2019-06-23T09:13:33.064Z</time>
      </trkpt>
      <trkpt lat="42.91956" lon="0.18562">
        <ele>1630</ele>
        <time>2019-06-23T09:13:34.064Z</time>
      </trkpt>
      <trkpt lat="42.91955" lon="0.18561">
        <ele>1631</ele>
        <time>2019-06-23T09:13:35.064Z</time>
      </trkpt>
      <trkpt lat="42.91955" lon="0.18561">
        <ele>1631</ele>
        <time>2019-06-23T09:13:36.064Z</time>
      </trkpt>
      <trkpt lat="42.91954" lon="0.1856">
        <ele>1631</ele>
        <time>2019-06-23T09:13:37.064Z</time>
      </trkpt>
      <trkpt lat="42.91954" lon="0.1856">
        <ele>1631</ele>
        <time>2019-06-23T09:13:38.064Z</time>
      </trkpt>
      <trkpt lat="42.91953" lon="0.18559">
        <ele>1631</ele>
        <time>2019-06-23T09:13:39.064Z</time>
      </trkpt>
      <trkpt lat="42.91953" lon="0.18559">
        <ele>1631</ele>
        <time>2019-06-23T09:13:40.064Z</time>
      </trkpt>
      <trkpt lat="42.91952" lon="0.18558">
        <ele>1631</ele>
        <time>2019-06-23T09:13:41.064Z</time>
      </trkpt>
      <trkpt lat="42.91952" lon="0.18558">
        <ele>1631</ele>
        <time>2019-06-23T09:13:42.064Z</time>
      </trkpt>
      <trkpt lat="42.91952" lon="0.18557">
        <ele>1631</ele>
        <time>2019-06-23T09:13:43.064Z</time>
      </trkpt>
      <trkpt lat="42.91951" lon="0.18557">
        <ele>1632</ele>
        <time>2019-06-23T09:13:44.064Z</time>
      </trkpt>
      <trkpt lat="42.9195" lon="0.18557">
        <ele>1632</ele>
        <time>2019-06-23T09:13:45.064Z</time>
      </trkpt>
      <trkpt lat="42.9195" lon="0.18556">
        <ele>1632</ele>
        <time>2019-06-23T09:13:46.064Z</time>
      </trkpt>
      <trkpt lat="42.9195" lon="0.18556">
        <ele>1632</ele>
        <time>2019-06-23T09:13:47.064Z</time>
      </trkpt>
      <trkpt lat="42.91949" lon="0.18555">
        <ele>1632</ele>
        <time>2019-06-23T09:13:48.064Z</time>
      </trkpt>
      <trkpt lat="42.91948" lon="0.18555">
        <ele>1632</ele>
        <time>2019-06-23T09:13:49.064Z</time>
      </trkpt>
      <trkpt lat="42.91948" lon="0.18555">
        <ele>1632</ele>
        <time>2019-06-23T09:13:50.064Z</time>
      </trkpt>
      <trkpt lat="42.91947" lon="0.18554">
        <ele>1632</ele>
        <time>2019-06-23T09:13:51.064Z</time>
      </trkpt>
      <trkpt lat="42.91947" lon="0.18554">
        <ele>1633</ele>
        <time>2019-06-23T09:13:52.064Z</time>
      </trkpt>
      <trkpt lat="42.91947" lon="0.18553">
        <ele>1632</ele>
        <time>2019-06-23T09:13:53.064Z</time>
      </trkpt>
      <trkpt lat="42.91946" lon="0.18553">
        <ele>1632</ele>
        <time>2019-06-23T09:13:54.064Z</time>
      </trkpt>
      <trkpt lat="42.91945" lon="0.18553">
        <ele>1632</ele>
        <time>2019-06-23T09:13:55.064Z</time>
      </trkpt>
      <trkpt lat="42.91945" lon="0.18552">
        <ele>1632</ele>
        <time>2019-06-23T09:13:56.064Z</time>
      </trkpt>
      <trkpt lat="42.91944" lon="0.18552">
        <ele>1632</ele>
        <time>2019-06-23T09:13:57.064Z</time>
      </trkpt>
      <trkpt lat="42.91943" lon="0.18552">
        <ele>1632</ele>
        <time>2019-06-23T09:13:58.064Z</time>
      </trkpt>
      <trkpt lat="42.91943" lon="0.18551">
        <ele>1632</ele>
        <time>2019-06-23T09:13:59.064Z</time>
      </trkpt>
      <trkpt lat="42.91943" lon="0.18551">
        <ele>1632</ele>
        <time>2019-06-23T09:14:00.064Z</time>
      </trkpt>
      <trkpt lat="42.91942" lon="0.1855">
        <ele>1632</ele>
        <time>2019-06-23T09:14:01.064Z</time>
      </trkpt>
      <trkpt lat="42.91942" lon="0.1855">
        <ele>1632</ele>
        <time>2019-06-23T09:14:02.064Z</time>
      </trkpt>
      <trkpt lat="42.91942" lon="0.18549">
        <ele>1632</ele>
        <time>2019-06-23T09:14:03.064Z</time>
      </trkpt>
      <trkpt lat="42.91941" lon="0.18548">
        <ele>1632</ele>
        <time>2019-06-23T09:14:04.064Z</time>
      </trkpt>
      <trkpt lat="42.9194" lon="0.18548">
        <ele>1632</ele>
        <time>2019-06-23T09:14:05.064Z</time>
      </trkpt>
      <trkpt lat="42.9194" lon="0.18548">
        <ele>1632</ele>
        <time>2019-06-23T09:14:06.064Z</time>
      </trkpt>
      <trkpt lat="42.91939" lon="0.18547">
        <ele>1633</ele>
        <time>2019-06-23T09:14:07.064Z</time>
      </trkpt>
      <trkpt lat="42.91939" lon="0.18547">
        <ele>1633</ele>
        <time>2019-06-23T09:14:08.064Z</time>
      </trkpt>
      <trkpt lat="42.91938" lon="0.18546">
        <ele>1632</ele>
        <time>2019-06-23T09:14:09.064Z</time>
      </trkpt>
      <trkpt lat="42.91938" lon="0.18545">
        <ele>1633</ele>
        <time>2019-06-23T09:14:10.064Z</time>
      </trkpt>
      <trkpt lat="42.91938" lon="0.18545">
        <ele>1633</ele>
        <time>2019-06-23T09:14:11.064Z</time>
      </trkpt>
      <trkpt lat="42.91937" lon="0.18544">
        <ele>1633</ele>
        <time>2019-06-23T09:14:12.064Z</time>
      </trkpt>
      <trkpt lat="42.91937" lon="0.18544">
        <ele>1633</ele>
        <time>2019-06-23T09:14:13.064Z</time>
      </trkpt>
      <trkpt lat="42.91936" lon="0.18543">
        <ele>1633</ele>
        <time>2019-06-23T09:14:14.064Z</time>
      </trkpt>
      <trkpt lat="42.91935" lon="0.18543">
        <ele>1633</ele>
        <time>2019-06-23T09:14:15.064Z</time>
      </trkpt>
      <trkpt lat="42.91935" lon="0.18543">
        <ele>1633</ele>
        <time>2019-06-23T09:14:16.064Z</time>
      </trkpt>
      <trkpt lat="42.91934" lon="0.18542">
        <ele>1633</ele>
        <time>2019-06-23T09:14:17.064Z</time>
      </trkpt>
      <trkpt lat="42.91934" lon="0.18542">
        <ele>1633</ele>
        <time>2019-06-23T09:14:18.064Z</time>
      </trkpt>
      <trkpt lat="42.91933" lon="0.18542">
        <ele>1633</ele>
        <time>2019-06-23T09:14:19.064Z</time>
      </trkpt>
      <trkpt lat="42.91932" lon="0.18542">
        <ele>1633</ele>
        <time>2019-06-23T09:14:20.064Z</time>
      </trkpt>
      <trkpt lat="42.91932" lon="0.18542">
        <ele>1633</ele>
        <time>2019-06-23T09:14:21.064Z</time>
      </trkpt>
      <trkpt lat="42.91931" lon="0.18542">
        <ele>1633</ele>
        <time>2019-06-23T09:14:22.064Z</time>
      </trkpt>
      <trkpt lat="42.91931" lon="0.18542">
        <ele>1632</ele>
        <time>2019-06-23T09:14:23.064Z</time>
      </trkpt>
      <trkpt lat="42.9193" lon="0.18542">
        <ele>1632</ele>
        <time>2019-06-23T09:14:24.064Z</time>
      </trkpt>
      <trkpt lat="42.91929" lon="0.18543">
        <ele>1632</ele>
        <time>2019-06-23T09:14:25.064Z</time>
      </trkpt>
      <trkpt lat="42.91929" lon="0.18543">
        <ele>1632</ele>
        <time>2019-06-23T09:14:26.064Z</time>
      </trkpt>
      <trkpt lat="42.91928" lon="0.18543">
        <ele>1632</ele>
        <time>2019-06-23T09:14:27.064Z</time>
      </trkpt>
      <trkpt lat="42.91927" lon="0.18543">
        <ele>1632</ele>
        <time>2019-06-23T09:14:28.064Z</time>
      </trkpt>
      <trkpt lat="42.91927" lon="0.18544">
        <ele>1632</ele>
        <time>2019-06-23T09:14:29.064Z</time>
      </trkpt>
      <trkpt lat="42.91926" lon="0.18544">
        <ele>1632</ele>
        <time>2019-06-23T09:14:30.064Z</time>
      </trkpt>
      <trkpt lat="42.91926" lon="0.18544">
        <ele>1632</ele>
        <time>2019-06-23T09:14:31.064Z</time>
      </trkpt>
      <trkpt lat="42.91926" lon="0.18544">
        <ele>1632</ele>
        <time>2019-06-23T09:14:32.064Z</time>
      </trkpt>
      <trkpt lat="42.91925" lon="0.18544">
        <ele>1632</ele>
        <time>2019-06-23T09:14:33.064Z</time>
      </trkpt>
      <trkpt lat="42.91925" lon="0.18545">
        <ele>1631</ele>
        <time>2019-06-23T09:14:34.064Z</time>
      </trkpt>
      <trkpt lat="42.91924" lon="0.18545">
        <ele>1631</ele>
        <time>2019-06-23T09:14:35.064Z</time>
      </trkpt>
      <trkpt lat="42.91923" lon="0.18545">
        <ele>1631</ele>
        <time>2019-06-23T09:14:36.064Z</time>
      </trkpt>
      <trkpt lat="42.91923" lon="0.18545">
        <ele>1631</ele>
        <time>2019-06-23T09:14:37.064Z</time>
      </trkpt>
      <trkpt lat="42.91923" lon="0.18545">
        <ele>1631</ele>
        <time>2019-06-23T09:14:38.064Z</time>
      </trkpt>
      <trkpt lat="42.91923" lon="0.18545">
        <ele>1631</ele>
        <time>2019-06-23T09:14:39.064Z</time>
      </trkpt>
      <trkpt lat="42.91923" lon="0.18545">
        <ele>1630</ele>
        <time>2019-06-23T09:14:40.064Z</time>
      </trkpt>
      <trkpt lat="42.91922" lon="0.18545">
        <ele>1630</ele>
        <time>2019-06-23T09:14:41.064Z</time>
      </trkpt>
      <trkpt lat="42.91922" lon="0.18545">
        <ele>1630</ele>
        <time>2019-06-23T09:14:42.064Z</time>
      </trkpt>
      <trkpt lat="42.91922" lon="0.18545">
        <ele>1630</ele>
        <time>2019-06-23T09:14:43.064Z</time>
      </trkpt>
      <trkpt lat="42.91921" lon="0.18545">
        <ele>1630</ele>
        <time>2019-06-23T09:14:44.064Z</time>
      </trkpt>
      <trkpt lat="42.91921" lon="0.18545">
        <ele>1630</ele>
        <time>2019-06-23T09:14:45.064Z</time>
      </trkpt>
      <trkpt lat="42.91921" lon="0.18546">
        <ele>1630</ele>
        <time>2019-06-23T09:14:46.064Z</time>
      </trkpt>
      <trkpt lat="42.9192" lon="0.18546">
        <ele>1631</ele>
        <time>2019-06-23T09:14:47.064Z</time>
      </trkpt>
      <trkpt lat="42.9192" lon="0.18546">
        <ele>1631</ele>
        <time>2019-06-23T09:14:48.064Z</time>
      </trkpt>
      <trkpt lat="42.9192" lon="0.18546">
        <ele>1631</ele>
        <time>2019-06-23T09:14:49.064Z</time>
      </trkpt>
      <trkpt lat="42.9192" lon="0.18546">
        <ele>1631</ele>
        <time>2019-06-23T09:14:50.064Z</time>
      </trkpt>
      <trkpt lat="42.91921" lon="0.18547">
        <ele>1631</ele>
        <time>2019-06-23T09:14:51.064Z</time>
      </trkpt>
      <trkpt lat="42.9192" lon="0.18547">
        <ele>1631</ele>
        <time>2019-06-23T09:14:52.064Z</time>
      </trkpt>
      <trkpt lat="42.9192" lon="0.18547">
        <ele>1631</ele>
        <time>2019-06-23T09:14:53.064Z</time>
      </trkpt>
      <trkpt lat="42.9192" lon="0.18547">
        <ele>1631</ele>
        <time>2019-06-23T09:14:54.064Z</time>
      </trkpt>
      <trkpt lat="42.9192" lon="0.18546">
        <ele>1631</ele>
        <time>2019-06-23T09:14:55.064Z</time>
      </trkpt>
      <trkpt lat="42.91917" lon="0.18545">
        <ele>1630</ele>
        <time>2019-06-23T09:14:56.064Z</time>
      </trkpt>
      <trkpt lat="42.91916" lon="0.18545">
        <ele>1630</ele>
        <time>2019-06-23T09:14:57.064Z</time>
      </trkpt>
      <trkpt lat="42.91915" lon="0.18545">
        <ele>1630</ele>
        <time>2019-06-23T09:14:58.064Z</time>
      </trkpt>
      <trkpt lat="42.91915" lon="0.18544">
        <ele>1630</ele>
        <time>2019-06-23T09:14:59.064Z</time>
      </trkpt>
      <trkpt lat="42.91914" lon="0.18543">
        <ele>1630</ele>
        <time>2019-06-23T09:15:00.064Z</time>
      </trkpt>
      <trkpt lat="42.91914" lon="0.18543">
        <ele>1630</ele>
        <time>2019-06-23T09:15:01.064Z</time>
      </trkpt>
      <trkpt lat="42.91913" lon="0.18542">
        <ele>1630</ele>
        <time>2019-06-23T09:15:02.064Z</time>
      </trkpt>
      <trkpt lat="42.91913" lon="0.18541">
        <ele>1630</ele>
        <time>2019-06-23T09:15:03.064Z</time>
      </trkpt>
      <trkpt lat="42.91912" lon="0.18541">
        <ele>1630</ele>
        <time>2019-06-23T09:15:04.064Z</time>
      </trkpt>
      <trkpt lat="42.91912" lon="0.1854">
        <ele>1630</ele>
        <time>2019-06-23T09:15:05.064Z</time>
      </trkpt>
      <trkpt lat="42.91912" lon="0.18539">
        <ele>1630</ele>
        <time>2019-06-23T09:15:06.064Z</time>
      </trkpt>
      <trkpt lat="42.91911" lon="0.18539">
        <ele>1629</ele>
        <time>2019-06-23T09:15:07.064Z</time>
      </trkpt>
      <trkpt lat="42.9191" lon="0.18539">
        <ele>1629</ele>
        <time>2019-06-23T09:15:08.064Z</time>
      </trkpt>
      <trkpt lat="42.91909" lon="0.18539">
        <ele>1629</ele>
        <time>2019-06-23T09:15:09.064Z</time>
      </trkpt>
      <trkpt lat="42.91908" lon="0.18539">
        <ele>1629</ele>
        <time>2019-06-23T09:15:10.064Z</time>
      </trkpt>
      <trkpt lat="42.91908" lon="0.18538">
        <ele>1629</ele>
        <time>2019-06-23T09:15:11.064Z</time>
      </trkpt>
      <trkpt lat="42.91907" lon="0.18538">
        <ele>1630</ele>
        <time>2019-06-23T09:15:12.064Z</time>
      </trkpt>
      <trkpt lat="42.91906" lon="0.18537">
        <ele>1630</ele>
        <time>2019-06-23T09:15:13.064Z</time>
      </trkpt>
      <trkpt lat="42.91906" lon="0.18538">
        <ele>1630</ele>
        <time>2019-06-23T09:15:14.064Z</time>
      </trkpt>
      <trkpt lat="42.91905" lon="0.18538">
        <ele>1630</ele>
        <time>2019-06-23T09:15:15.064Z</time>
      </trkpt>
      <trkpt lat="42.91904" lon="0.18538">
        <ele>1630</ele>
        <time>2019-06-23T09:15:16.064Z</time>
      </trkpt>
      <trkpt lat="42.91904" lon="0.18538">
        <ele>1630</ele>
        <time>2019-06-23T09:15:17.064Z</time>
      </trkpt>
      <trkpt lat="42.91904" lon="0.18538">
        <ele>1630</ele>
        <time>2019-06-23T09:15:18.064Z</time>
      </trkpt>
      <trkpt lat="42.91903" lon="0.18539">
        <ele>1630</ele>
        <time>2019-06-23T09:15:19.064Z</time>
      </trkpt>
      <trkpt lat="42.91903" lon="0.18539">
        <ele>1630</ele>
        <time>2019-06-23T09:15:20.064Z</time>
      </trkpt>
      <trkpt lat="42.91902" lon="0.1854">
        <ele>1630</ele>
        <time>2019-06-23T09:15:21.064Z</time>
      </trkpt>
      <trkpt lat="42.91901" lon="0.1854">
        <ele>1630</ele>
        <time>2019-06-23T09:15:22.064Z</time>
      </trkpt>
      <trkpt lat="42.91901" lon="0.18541">
        <ele>1630</ele>
        <time>2019-06-23T09:15:23.064Z</time>
      </trkpt>
      <trkpt lat="42.919" lon="0.18541">
        <ele>1629</ele>
        <time>2019-06-23T09:15:24.064Z</time>
      </trkpt>
      <trkpt lat="42.919" lon="0.18542">
        <ele>1629</ele>
        <time>2019-06-23T09:15:25.064Z</time>
      </trkpt>
      <trkpt lat="42.91899" lon="0.18542">
        <ele>1629</ele>
        <time>2019-06-23T09:15:26.064Z</time>
      </trkpt>
      <trkpt lat="42.91898" lon="0.18543">
        <ele>1629</ele>
        <time>2019-06-23T09:15:27.064Z</time>
      </trkpt>
      <trkpt lat="42.91898" lon="0.18543">
        <ele>1629</ele>
        <time>2019-06-23T09:15:28.064Z</time>
      </trkpt>
      <trkpt lat="42.91897" lon="0.18544">
        <ele>1628</ele>
        <time>2019-06-23T09:15:29.064Z</time>
      </trkpt>
      <trkpt lat="42.91897" lon="0.18544">
        <ele>1629</ele>
        <time>2019-06-23T09:15:30.064Z</time>
      </trkpt>
      <trkpt lat="42.91897" lon="0.18544">
        <ele>1629</ele>
        <time>2019-06-23T09:15:31.064Z</time>
      </trkpt>
      <trkpt lat="42.91896" lon="0.18544">
        <ele>1629</ele>
        <time>2019-06-23T09:15:32.064Z</time>
      </trkpt>
      <trkpt lat="42.91896" lon="0.18545">
        <ele>1628</ele>
        <time>2019-06-23T09:15:33.064Z</time>
      </trkpt>
      <trkpt lat="42.91895" lon="0.18545">
        <ele>1628</ele>
        <time>2019-06-23T09:15:34.064Z</time>
      </trkpt>
      <trkpt lat="42.91895" lon="0.18546">
        <ele>1628</ele>
        <time>2019-06-23T09:15:35.064Z</time>
      </trkpt>
      <trkpt lat="42.91894" lon="0.18546">
        <ele>1628</ele>
        <time>2019-06-23T09:15:36.064Z</time>
      </trkpt>
      <trkpt lat="42.91893" lon="0.18547">
        <ele>1628</ele>
        <time>2019-06-23T09:15:37.064Z</time>
      </trkpt>
      <trkpt lat="42.91892" lon="0.18547">
        <ele>1628</ele>
        <time>2019-06-23T09:15:38.064Z</time>
      </trkpt>
      <trkpt lat="42.91891" lon="0.18548">
        <ele>1628</ele>
        <time>2019-06-23T09:15:39.064Z</time>
      </trkpt>
      <trkpt lat="42.9189" lon="0.18548">
        <ele>1628</ele>
        <time>2019-06-23T09:15:40.064Z</time>
      </trkpt>
      <trkpt lat="42.91889" lon="0.18548">
        <ele>1628</ele>
        <time>2019-06-23T09:15:41.064Z</time>
      </trkpt>
      <trkpt lat="42.91888" lon="0.18549">
        <ele>1628</ele>
        <time>2019-06-23T09:15:42.064Z</time>
      </trkpt>
      <trkpt lat="42.91888" lon="0.18549">
        <ele>1628</ele>
        <time>2019-06-23T09:15:43.064Z</time>
      </trkpt>
      <trkpt lat="42.91887" lon="0.18549">
        <ele>1628</ele>
        <time>2019-06-23T09:15:44.064Z</time>
      </trkpt>
      <trkpt lat="42.91886" lon="0.1855">
        <ele>1628</ele>
        <time>2019-06-23T09:15:45.064Z</time>
      </trkpt>
      <trkpt lat="42.91885" lon="0.1855">
        <ele>1628</ele>
        <time>2019-06-23T09:15:46.064Z</time>
      </trkpt>
      <trkpt lat="42.91884" lon="0.1855">
        <ele>1628</ele>
        <time>2019-06-23T09:15:47.064Z</time>
      </trkpt>
      <trkpt lat="42.91883" lon="0.1855">
        <ele>1627</ele>
        <time>2019-06-23T09:15:48.064Z</time>
      </trkpt>
      <trkpt lat="42.91882" lon="0.1855">
        <ele>1627</ele>
        <time>2019-06-23T09:15:49.064Z</time>
      </trkpt>
      <trkpt lat="42.91882" lon="0.1855">
        <ele>1627</ele>
        <time>2019-06-23T09:15:50.064Z</time>
      </trkpt>
      <trkpt lat="42.91881" lon="0.1855">
        <ele>1627</ele>
        <time>2019-06-23T09:15:51.064Z</time>
      </trkpt>
      <trkpt lat="42.9188" lon="0.18549">
        <ele>1627</ele>
        <time>2019-06-23T09:15:52.064Z</time>
      </trkpt>
      <trkpt lat="42.91879" lon="0.18549">
        <ele>1627</ele>
        <time>2019-06-23T09:15:53.064Z</time>
      </trkpt>
      <trkpt lat="42.91879" lon="0.18549">
        <ele>1627</ele>
        <time>2019-06-23T09:15:54.064Z</time>
      </trkpt>
      <trkpt lat="42.91878" lon="0.18549">
        <ele>1627</ele>
        <time>2019-06-23T09:15:55.064Z</time>
      </trkpt>
      <trkpt lat="42.91877" lon="0.1855">
        <ele>1627</ele>
        <time>2019-06-23T09:15:56.064Z</time>
      </trkpt>
      <trkpt lat="42.91876" lon="0.1855">
        <ele>1627</ele>
        <time>2019-06-23T09:15:57.064Z</time>
      </trkpt>
      <trkpt lat="42.91875" lon="0.1855">
        <ele>1627</ele>
        <time>2019-06-23T09:15:58.064Z</time>
      </trkpt>
      <trkpt lat="42.91875" lon="0.1855">
        <ele>1627</ele>
        <time>2019-06-23T09:15:59.064Z</time>
      </trkpt>
      <trkpt lat="42.91874" lon="0.1855">
        <ele>1628</ele>
        <time>2019-06-23T09:16:00.064Z</time>
      </trkpt>
      <trkpt lat="42.91873" lon="0.1855">
        <ele>1627</ele>
        <time>2019-06-23T09:16:01.064Z</time>
      </trkpt>
      <trkpt lat="42.91872" lon="0.1855">
        <ele>1627</ele>
        <time>2019-06-23T09:16:02.064Z</time>
      </trkpt>
      <trkpt lat="42.91872" lon="0.1855">
        <ele>1627</ele>
        <time>2019-06-23T09:16:03.064Z</time>
      </trkpt>
      <trkpt lat="42.91871" lon="0.1855">
        <ele>1627</ele>
        <time>2019-06-23T09:16:04.064Z</time>
      </trkpt>
      <trkpt lat="42.9187" lon="0.18549">
        <ele>1627</ele>
        <time>2019-06-23T09:16:05.064Z</time>
      </trkpt>
      <trkpt lat="42.91869" lon="0.18549">
        <ele>1627</ele>
        <time>2019-06-23T09:16:06.064Z</time>
      </trkpt>
      <trkpt lat="42.91869" lon="0.18549">
        <ele>1627</ele>
        <time>2019-06-23T09:16:07.064Z</time>
      </trkpt>
      <trkpt lat="42.91868" lon="0.18549">
        <ele>1627</ele>
        <time>2019-06-23T09:16:08.064Z</time>
      </trkpt>
      <trkpt lat="42.91867" lon="0.18549">
        <ele>1627</ele>
        <time>2019-06-23T09:16:09.064Z</time>
      </trkpt>
      <trkpt lat="42.91866" lon="0.18549">
        <ele>1627</ele>
        <time>2019-06-23T09:16:10.064Z</time>
      </trkpt>
      <trkpt lat="42.91865" lon="0.18548">
        <ele>1627</ele>
        <time>2019-06-23T09:16:11.064Z</time>
      </trkpt>
      <trkpt lat="42.91865" lon="0.18548">
        <ele>1627</ele>
        <time>2019-06-23T09:16:12.064Z</time>
      </trkpt>
      <trkpt lat="42.91864" lon="0.18548">
        <ele>1627</ele>
        <time>2019-06-23T09:16:13.064Z</time>
      </trkpt>
      <trkpt lat="42.91863" lon="0.18548">
        <ele>1627</ele>
        <time>2019-06-23T09:16:14.064Z</time>
      </trkpt>
      <trkpt lat="42.91863" lon="0.18549">
        <ele>1627</ele>
        <time>2019-06-23T09:16:15.064Z</time>
      </trkpt>
      <trkpt lat="42.91862" lon="0.18549">
        <ele>1627</ele>
        <time>2019-06-23T09:16:16.064Z</time>
      </trkpt>
      <trkpt lat="42.91862" lon="0.18549">
        <ele>1626</ele>
        <time>2019-06-23T09:16:17.064Z</time>
      </trkpt>
      <trkpt lat="42.91861" lon="0.18549">
        <ele>1626</ele>
        <time>2019-06-23T09:16:18.064Z</time>
      </trkpt>
      <trkpt lat="42.91861" lon="0.18549">
        <ele>1626</ele>
        <time>2019-06-23T09:16:19.064Z</time>
      </trkpt>
      <trkpt lat="42.9186" lon="0.18549">
        <ele>1626</ele>
        <time>2019-06-23T09:16:20.064Z</time>
      </trkpt>
      <trkpt lat="42.91859" lon="0.18549">
        <ele>1626</ele>
        <time>2019-06-23T09:16:21.064Z</time>
      </trkpt>
      <trkpt lat="42.91859" lon="0.18549">
        <ele>1626</ele>
        <time>2019-06-23T09:16:22.064Z</time>
      </trkpt>
      <trkpt lat="42.91858" lon="0.18549">
        <ele>1626</ele>
        <time>2019-06-23T09:16:23.064Z</time>
      </trkpt>
      <trkpt lat="42.91857" lon="0.18549">
        <ele>1626</ele>
        <time>2019-06-23T09:16:24.064Z</time>
      </trkpt>
      <trkpt lat="42.91857" lon="0.18549">
        <ele>1626</ele>
        <time>2019-06-23T09:16:25.064Z</time>
      </trkpt>
      <trkpt lat="42.91856" lon="0.18549">
        <ele>1626</ele>
        <time>2019-06-23T09:16:26.064Z</time>
      </trkpt>
      <trkpt lat="42.91855" lon="0.18549">
        <ele>1626</ele>
        <time>2019-06-23T09:16:27.064Z</time>
      </trkpt>
      <trkpt lat="42.91855" lon="0.18549">
        <ele>1626</ele>
        <time>2019-06-23T09:16:28.064Z</time>
      </trkpt>
      <trkpt lat="42.91854" lon="0.18548">
        <ele>1626</ele>
        <time>2019-06-23T09:16:29.064Z</time>
      </trkpt>
      <trkpt lat="42.91853" lon="0.18548">
        <ele>1626</ele>
        <time>2019-06-23T09:16:30.064Z</time>
      </trkpt>
      <trkpt lat="42.91853" lon="0.18548">
        <ele>1626</ele>
        <time>2019-06-23T09:16:31.064Z</time>
      </trkpt>
      <trkpt lat="42.91852" lon="0.18548">
        <ele>1626</ele>
        <time>2019-06-23T09:16:32.064Z</time>
      </trkpt>
      <trkpt lat="42.91852" lon="0.18548">
        <ele>1626</ele>
        <time>2019-06-23T09:16:33.064Z</time>
      </trkpt>
      <trkpt lat="42.91851" lon="0.18547">
        <ele>1626</ele>
        <time>2019-06-23T09:16:34.064Z</time>
      </trkpt>
      <trkpt lat="42.91851" lon="0.18547">
        <ele>1626</ele>
        <time>2019-06-23T09:16:35.064Z</time>
      </trkpt>
      <trkpt lat="42.9185" lon="0.18547">
        <ele>1626</ele>
        <time>2019-06-23T09:16:36.064Z</time>
      </trkpt>
      <trkpt lat="42.9185" lon="0.18547">
        <ele>1626</ele>
        <time>2019-06-23T09:16:37.064Z</time>
      </trkpt>
      <trkpt lat="42.91849" lon="0.18547">
        <ele>1625</ele>
        <time>2019-06-23T09:16:38.064Z</time>
      </trkpt>
      <trkpt lat="42.91849" lon="0.18546">
        <ele>1625</ele>
        <time>2019-06-23T09:16:39.064Z</time>
      </trkpt>
      <trkpt lat="42.91848" lon="0.18546">
        <ele>1625</ele>
        <time>2019-06-23T09:16:40.064Z</time>
      </trkpt>
      <trkpt lat="42.91848" lon="0.18546">
        <ele>1625</ele>
        <time>2019-06-23T09:16:41.064Z</time>
      </trkpt>
      <trkpt lat="42.91847" lon="0.18546">
        <ele>1625</ele>
        <time>2019-06-23T09:16:42.064Z</time>
      </trkpt>
      <trkpt lat="42.91847" lon="0.18546">
        <ele>1625</ele>
        <time>2019-06-23T09:16:43.064Z</time>
      </trkpt>
      <trkpt lat="42.91846" lon="0.18546">
        <ele>1625</ele>
        <time>2019-06-23T09:16:44.064Z</time>
      </trkpt>
      <trkpt lat="42.91846" lon="0.18546">
        <ele>1625</ele>
        <time>2019-06-23T09:16:45.064Z</time>
      </trkpt>
      <trkpt lat="42.91846" lon="0.18546">
        <ele>1625</ele>
        <time>2019-06-23T09:16:46.064Z</time>
      </trkpt>
      <trkpt lat="42.91845" lon="0.18547">
        <ele>1625</ele>
        <time>2019-06-23T09:16:47.064Z</time>
      </trkpt>
      <trkpt lat="42.91845" lon="0.18547">
        <ele>1625</ele>
        <time>2019-06-23T09:16:48.064Z</time>
      </trkpt>
      <trkpt lat="42.91844" lon="0.18547">
        <ele>1625</ele>
        <time>2019-06-23T09:16:49.064Z</time>
      </trkpt>
      <trkpt lat="42.91844" lon="0.18547">
        <ele>1625</ele>
        <time>2019-06-23T09:16:50.064Z</time>
      </trkpt>
      <trkpt lat="42.91844" lon="0.18548">
        <ele>1625</ele>
        <time>2019-06-23T09:16:51.064Z</time>
      </trkpt>
      <trkpt lat="42.91843" lon="0.18548">
        <ele>1625</ele>
        <time>2019-06-23T09:16:52.064Z</time>
      </trkpt>
      <trkpt lat="42.91843" lon="0.18548">
        <ele>1625</ele>
        <time>2019-06-23T09:16:53.064Z</time>
      </trkpt>
      <trkpt lat="42.91843" lon="0.18548">
        <ele>1624</ele>
        <time>2019-06-23T09:16:54.064Z</time>
      </trkpt>
      <trkpt lat="42.91843" lon="0.18549">
        <ele>1624</ele>
        <time>2019-06-23T09:16:55.064Z</time>
      </trkpt>
      <trkpt lat="42.91842" lon="0.18549">
        <ele>1624</ele>
        <time>2019-06-23T09:16:56.064Z</time>
      </trkpt>
      <trkpt lat="42.91842" lon="0.1855">
        <ele>1624</ele>
        <time>2019-06-23T09:16:57.064Z</time>
      </trkpt>
      <trkpt lat="42.91842" lon="0.1855">
        <ele>1624</ele>
        <time>2019-06-23T09:16:58.064Z</time>
      </trkpt>
      <trkpt lat="42.91842" lon="0.1855">
        <ele>1624</ele>
        <time>2019-06-23T09:16:59.064Z</time>
      </trkpt>
      <trkpt lat="42.91841" lon="0.18551">
        <ele>1623</ele>
        <time>2019-06-23T09:17:00.064Z</time>
      </trkpt>
      <trkpt lat="42.91841" lon="0.18551">
        <ele>1623</ele>
        <time>2019-06-23T09:17:01.064Z</time>
      </trkpt>
      <trkpt lat="42.91841" lon="0.18551">
        <ele>1623</ele>
        <time>2019-06-23T09:17:02.064Z</time>
      </trkpt>
      <trkpt lat="42.91841" lon="0.18551">
        <ele>1623</ele>
        <time>2019-06-23T09:17:03.064Z</time>
      </trkpt>
      <trkpt lat="42.9184" lon="0.18552">
        <ele>1623</ele>
        <time>2019-06-23T09:17:04.064Z</time>
      </trkpt>
      <trkpt lat="42.9184" lon="0.18552">
        <ele>1624</ele>
        <time>2019-06-23T09:17:05.064Z</time>
      </trkpt>
      <trkpt lat="42.9184" lon="0.18553">
        <ele>1623</ele>
        <time>2019-06-23T09:17:06.064Z</time>
      </trkpt>
      <trkpt lat="42.91839" lon="0.18553">
        <ele>1624</ele>
        <time>2019-06-23T09:17:07.064Z</time>
      </trkpt>
      <trkpt lat="42.91839" lon="0.18553">
        <ele>1624</ele>
        <time>2019-06-23T09:17:08.064Z</time>
      </trkpt>
      <trkpt lat="42.91838" lon="0.18553">
        <ele>1624</ele>
        <time>2019-06-23T09:17:09.064Z</time>
      </trkpt>
      <trkpt lat="42.91838" lon="0.18553">
        <ele>1624</ele>
        <time>2019-06-23T09:17:10.064Z</time>
      </trkpt>
      <trkpt lat="42.91838" lon="0.18553">
        <ele>1624</ele>
        <time>2019-06-23T09:17:11.064Z</time>
      </trkpt>
      <trkpt lat="42.91837" lon="0.18553">
        <ele>1624</ele>
        <time>2019-06-23T09:17:12.064Z</time>
      </trkpt>
      <trkpt lat="42.91837" lon="0.18553">
        <ele>1624</ele>
        <time>2019-06-23T09:17:13.064Z</time>
      </trkpt>
      <trkpt lat="42.91837" lon="0.18553">
        <ele>1624</ele>
        <time>2019-06-23T09:17:14.064Z</time>
      </trkpt>
      <trkpt lat="42.91837" lon="0.18553">
        <ele>1624</ele>
        <time>2019-06-23T09:17:15.064Z</time>
      </trkpt>
      <trkpt lat="42.91836" lon="0.18553">
        <ele>1624</ele>
        <time>2019-06-23T09:17:16.064Z</time>
      </trkpt>
      <trkpt lat="42.91836" lon="0.18552">
        <ele>1624</ele>
        <time>2019-06-23T09:17:17.064Z</time>
      </trkpt>
      <trkpt lat="42.91835" lon="0.18552">
        <ele>1624</ele>
        <time>2019-06-23T09:17:18.064Z</time>
      </trkpt>
      <trkpt lat="42.91835" lon="0.18552">
        <ele>1624</ele>
        <time>2019-06-23T09:17:19.064Z</time>
      </trkpt>
      <trkpt lat="42.91835" lon="0.18552">
        <ele>1624</ele>
        <time>2019-06-23T09:17:20.064Z</time>
      </trkpt>
      <trkpt lat="42.91834" lon="0.18552">
        <ele>1624</ele>
        <time>2019-06-23T09:17:21.064Z</time>
      </trkpt>
      <trkpt lat="42.91834" lon="0.18552">
        <ele>1624</ele>
        <time>2019-06-23T09:17:22.064Z</time>
      </trkpt>
      <trkpt lat="42.91833" lon="0.18552">
        <ele>1624</ele>
        <time>2019-06-23T09:17:23.064Z</time>
      </trkpt>
      <trkpt lat="42.91833" lon="0.18552">
        <ele>1624</ele>
        <time>2019-06-23T09:17:24.064Z</time>
      </trkpt>
      <trkpt lat="42.91833" lon="0.18552">
        <ele>1624</ele>
        <time>2019-06-23T09:17:25.064Z</time>
      </trkpt>
      <trkpt lat="42.91832" lon="0.18552">
        <ele>1623</ele>
        <time>2019-06-23T09:17:26.064Z</time>
      </trkpt>
      <trkpt lat="42.91832" lon="0.18552">
        <ele>1623</ele>
        <time>2019-06-23T09:17:27.064Z</time>
      </trkpt>
      <trkpt lat="42.91832" lon="0.18552">
        <ele>1623</ele>
        <time>2019-06-23T09:17:28.064Z</time>
      </trkpt>
      <trkpt lat="42.91831" lon="0.18552">
        <ele>1623</ele>
        <time>2019-06-23T09:17:29.064Z</time>
      </trkpt>
      <trkpt lat="42.91831" lon="0.18553">
        <ele>1623</ele>
        <time>2019-06-23T09:17:30.064Z</time>
      </trkpt>
      <trkpt lat="42.9183" lon="0.18553">
        <ele>1623</ele>
        <time>2019-06-23T09:17:31.064Z</time>
      </trkpt>
      <trkpt lat="42.9183" lon="0.18553">
        <ele>1623</ele>
        <time>2019-06-23T09:17:32.064Z</time>
      </trkpt>
      <trkpt lat="42.9183" lon="0.18553">
        <ele>1623</ele>
        <time>2019-06-23T09:17:33.064Z</time>
      </trkpt>
      <trkpt lat="42.91829" lon="0.18553">
        <ele>1622</ele>
        <time>2019-06-23T09:17:34.064Z</time>
      </trkpt>
      <trkpt lat="42.91829" lon="0.18554">
        <ele>1622</ele>
        <time>2019-06-23T09:17:35.064Z</time>
      </trkpt>
      <trkpt lat="42.91828" lon="0.18554">
        <ele>1622</ele>
        <time>2019-06-23T09:17:36.064Z</time>
      </trkpt>
      <trkpt lat="42.91828" lon="0.18554">
        <ele>1622</ele>
        <time>2019-06-23T09:17:37.064Z</time>
      </trkpt>
      <trkpt lat="42.91828" lon="0.18554">
        <ele>1621</ele>
        <time>2019-06-23T09:17:38.064Z</time>
      </trkpt>
      <trkpt lat="42.91827" lon="0.18554">
        <ele>1621</ele>
        <time>2019-06-23T09:17:39.064Z</time>
      </trkpt>
      <trkpt lat="42.91826" lon="0.18554">
        <ele>1621</ele>
        <time>2019-06-23T09:17:40.064Z</time>
      </trkpt>
      <trkpt lat="42.91826" lon="0.18554">
        <ele>1621</ele>
        <time>2019-06-23T09:17:41.064Z</time>
      </trkpt>
      <trkpt lat="42.91825" lon="0.18553">
        <ele>1620</ele>
        <time>2019-06-23T09:17:42.064Z</time>
      </trkpt>
      <trkpt lat="42.91824" lon="0.18553">
        <ele>1620</ele>
        <time>2019-06-23T09:17:43.064Z</time>
      </trkpt>
      <trkpt lat="42.91824" lon="0.18552">
        <ele>1620</ele>
        <time>2019-06-23T09:17:44.064Z</time>
      </trkpt>
      <trkpt lat="42.91823" lon="0.18552">
        <ele>1620</ele>
        <time>2019-06-23T09:17:45.064Z</time>
      </trkpt>
      <trkpt lat="42.91823" lon="0.18552">
        <ele>1619</ele>
        <time>2019-06-23T09:17:46.064Z</time>
      </trkpt>
      <trkpt lat="42.91823" lon="0.18553">
        <ele>1619</ele>
        <time>2019-06-23T09:17:47.064Z</time>
      </trkpt>
      <trkpt lat="42.91823" lon="0.18553">
        <ele>1618</ele>
        <time>2019-06-23T09:17:48.064Z</time>
      </trkpt>
      <trkpt lat="42.91823" lon="0.18554">
        <ele>1617</ele>
        <time>2019-06-23T09:17:49.064Z</time>
      </trkpt>
      <trkpt lat="42.91822" lon="0.18554">
        <ele>1616</ele>
        <time>2019-06-23T09:17:50.064Z</time>
      </trkpt>
      <trkpt lat="42.91821" lon="0.18554">
        <ele>1617</ele>
        <time>2019-06-23T09:17:51.064Z</time>
      </trkpt>
      <trkpt lat="42.9182" lon="0.18555">
        <ele>1616</ele>
        <time>2019-06-23T09:17:52.064Z</time>
      </trkpt>
      <trkpt lat="42.9182" lon="0.18555">
        <ele>1616</ele>
        <time>2019-06-23T09:17:53.064Z</time>
      </trkpt>
      <trkpt lat="42.91819" lon="0.18556">
        <ele>1615</ele>
        <time>2019-06-23T09:17:54.064Z</time>
      </trkpt>
      <trkpt lat="42.91819" lon="0.18556">
        <ele>1615</ele>
        <time>2019-06-23T09:17:55.064Z</time>
      </trkpt>
      <trkpt lat="42.91819" lon="0.18557">
        <ele>1614</ele>
        <time>2019-06-23T09:17:56.064Z</time>
      </trkpt>
      <trkpt lat="42.91819" lon="0.18558">
        <ele>1614</ele>
        <time>2019-06-23T09:17:57.064Z</time>
      </trkpt>
      <trkpt lat="42.9182" lon="0.18558">
        <ele>1615</ele>
        <time>2019-06-23T09:17:58.064Z</time>
      </trkpt>
      <trkpt lat="42.91821" lon="0.18559">
        <ele>1614</ele>
        <time>2019-06-23T09:17:59.064Z</time>
      </trkpt>
      <trkpt lat="42.91821" lon="0.18559">
        <ele>1614</ele>
        <time>2019-06-23T09:18:00.064Z</time>
      </trkpt>
      <trkpt lat="42.91822" lon="0.18559">
        <ele>1615</ele>
        <time>2019-06-23T09:18:01.064Z</time>
      </trkpt>
      <trkpt lat="42.91823" lon="0.18559">
        <ele>1614</ele>
        <time>2019-06-23T09:18:02.064Z</time>
      </trkpt>
      <trkpt lat="42.91824" lon="0.18559">
        <ele>1614</ele>
        <time>2019-06-23T09:18:03.064Z</time>
      </trkpt>
      <trkpt lat="42.91825" lon="0.18559">
        <ele>1614</ele>
        <time>2019-06-23T09:18:04.064Z</time>
      </trkpt>
      <trkpt lat="42.91825" lon="0.1856">
        <ele>1614</ele>
        <time>2019-06-23T09:18:05.064Z</time>
      </trkpt>
      <trkpt lat="42.91826" lon="0.1856">
        <ele>1614</ele>
        <time>2019-06-23T09:18:06.064Z</time>
      </trkpt>
      <trkpt lat="42.91826" lon="0.18561">
        <ele>1614</ele>
        <time>2019-06-23T09:18:07.064Z</time>
      </trkpt>
      <trkpt lat="42.91826" lon="0.18562">
        <ele>1614</ele>
        <time>2019-06-23T09:18:08.064Z</time>
      </trkpt>
      <trkpt lat="42.91827" lon="0.18563">
        <ele>1614</ele>
        <time>2019-06-23T09:18:09.064Z</time>
      </trkpt>
      <trkpt lat="42.91827" lon="0.18563">
        <ele>1614</ele>
        <time>2019-06-23T09:18:10.064Z</time>
      </trkpt>
      <trkpt lat="42.91828" lon="0.18563">
        <ele>1614</ele>
        <time>2019-06-23T09:18:11.064Z</time>
      </trkpt>
      <trkpt lat="42.91828" lon="0.18563">
        <ele>1614</ele>
        <time>2019-06-23T09:18:12.064Z</time>
      </trkpt>
      <trkpt lat="42.91829" lon="0.18563">
        <ele>1614</ele>
        <time>2019-06-23T09:18:13.064Z</time>
      </trkpt>
      <trkpt lat="42.91829" lon="0.18563">
        <ele>1615</ele>
        <time>2019-06-23T09:18:14.064Z</time>
      </trkpt>
      <trkpt lat="42.91829" lon="0.18563">
        <ele>1615</ele>
        <time>2019-06-23T09:18:15.064Z</time>
      </trkpt>
      <trkpt lat="42.91829" lon="0.18563">
        <ele>1615</ele>
        <time>2019-06-23T09:18:16.064Z</time>
      </trkpt>
      <trkpt lat="42.91832" lon="0.18562">
        <ele>1613</ele>
        <time>2019-06-23T09:18:17.056Z</time>
      </trkpt>
      <trkpt lat="42.91832" lon="0.18563">
        <ele>1613</ele>
        <time>2019-06-23T09:18:18.056Z</time>
      </trkpt>
      <trkpt lat="42.91832" lon="0.18564">
        <ele>1613</ele>
        <time>2019-06-23T09:18:19.056Z</time>
      </trkpt>
      <trkpt lat="42.91832" lon="0.18564">
        <ele>1613</ele>
        <time>2019-06-23T09:18:20.056Z</time>
      </trkpt>
      <trkpt lat="42.91832" lon="0.18564">
        <ele>1613</ele>
        <time>2019-06-23T09:18:21.056Z</time>
      </trkpt>
      <trkpt lat="42.91832" lon="0.18565">
        <ele>1614</ele>
        <time>2019-06-23T09:18:22.056Z</time>
      </trkpt>
      <trkpt lat="42.91832" lon="0.18565">
        <ele>1614</ele>
        <time>2019-06-23T09:18:23.056Z</time>
      </trkpt>
      <trkpt lat="42.91832" lon="0.18565">
        <ele>1614</ele>
        <time>2019-06-23T09:18:24.056Z</time>
      </trkpt>
      <trkpt lat="42.91831" lon="0.18565">
        <ele>1614</ele>
        <time>2019-06-23T09:18:25.056Z</time>
      </trkpt>
      <trkpt lat="42.91831" lon="0.18565">
        <ele>1614</ele>
        <time>2019-06-23T09:18:26.056Z</time>
      </trkpt>
      <trkpt lat="42.91831" lon="0.18565">
        <ele>1614</ele>
        <time>2019-06-23T09:18:27.056Z</time>
      </trkpt>
      <trkpt lat="42.91831" lon="0.18565">
        <ele>1615</ele>
        <time>2019-06-23T09:18:28.056Z</time>
      </trkpt>
      <trkpt lat="42.91835" lon="0.18567">
        <ele>1612</ele>
        <time>2019-06-23T09:18:29.064Z</time>
      </trkpt>
      <trkpt lat="42.91835" lon="0.18567">
        <ele>1612</ele>
        <time>2019-06-23T09:18:30.064Z</time>
      </trkpt>
      <trkpt lat="42.91836" lon="0.18568">
        <ele>1612</ele>
        <time>2019-06-23T09:18:31.064Z</time>
      </trkpt>
      <trkpt lat="42.91837" lon="0.18568">
        <ele>1612</ele>
        <time>2019-06-23T09:18:32.064Z</time>
      </trkpt>
      <trkpt lat="42.91837" lon="0.18569">
        <ele>1611</ele>
        <time>2019-06-23T09:18:33.064Z</time>
      </trkpt>
      <trkpt lat="42.91838" lon="0.18569">
        <ele>1611</ele>
        <time>2019-06-23T09:18:34.064Z</time>
      </trkpt>
      <trkpt lat="42.91839" lon="0.18569">
        <ele>1611</ele>
        <time>2019-06-23T09:18:35.064Z</time>
      </trkpt>
      <trkpt lat="42.91839" lon="0.1857">
        <ele>1611</ele>
        <time>2019-06-23T09:18:36.064Z</time>
      </trkpt>
      <trkpt lat="42.9184" lon="0.1857">
        <ele>1612</ele>
        <time>2019-06-23T09:18:37.064Z</time>
      </trkpt>
      <trkpt lat="42.91841" lon="0.1857">
        <ele>1612</ele>
        <time>2019-06-23T09:18:38.064Z</time>
      </trkpt>
      <trkpt lat="42.91842" lon="0.1857">
        <ele>1612</ele>
        <time>2019-06-23T09:18:39.064Z</time>
      </trkpt>
      <trkpt lat="42.91842" lon="0.18571">
        <ele>1612</ele>
        <time>2019-06-23T09:18:40.064Z</time>
      </trkpt>
      <trkpt lat="42.91842" lon="0.18571">
        <ele>1612</ele>
        <time>2019-06-23T09:18:41.064Z</time>
      </trkpt>
      <trkpt lat="42.91843" lon="0.18571">
        <ele>1612</ele>
        <time>2019-06-23T09:18:42.064Z</time>
      </trkpt>
      <trkpt lat="42.91843" lon="0.1857">
        <ele>1612</ele>
        <time>2019-06-23T09:18:43.064Z</time>
      </trkpt>
      <trkpt lat="42.91843" lon="0.1857">
        <ele>1613</ele>
        <time>2019-06-23T09:18:44.064Z</time>
      </trkpt>
      <trkpt lat="42.91843" lon="0.1857">
        <ele>1613</ele>
        <time>2019-06-23T09:18:45.064Z</time>
      </trkpt>
      <trkpt lat="42.91843" lon="0.1857">
        <ele>1613</ele>
        <time>2019-06-23T09:18:46.064Z</time>
      </trkpt>
      <trkpt lat="42.91843" lon="0.1857">
        <ele>1613</ele>
        <time>2019-06-23T09:18:47.064Z</time>
      </trkpt>
      <trkpt lat="42.91845" lon="0.1857">
        <ele>1612</ele>
        <time>2019-06-23T09:18:48.072Z</time>
      </trkpt>
      <trkpt lat="42.91846" lon="0.18571">
        <ele>1612</ele>
        <time>2019-06-23T09:18:49.072Z</time>
      </trkpt>
      <trkpt lat="42.91846" lon="0.18571">
        <ele>1612</ele>
        <time>2019-06-23T09:18:50.072Z</time>
      </trkpt>
      <trkpt lat="42.91847" lon="0.18571">
        <ele>1611</ele>
        <time>2019-06-23T09:18:51.072Z</time>
      </trkpt>
      <trkpt lat="42.91847" lon="0.18572">
        <ele>1611</ele>
        <time>2019-06-23T09:18:52.072Z</time>
      </trkpt>
      <trkpt lat="42.91847" lon="0.18572">
        <ele>1612</ele>
        <time>2019-06-23T09:18:53.072Z</time>
      </trkpt>
      <trkpt lat="42.91848" lon="0.18572">
        <ele>1612</ele>
        <time>2019-06-23T09:18:54.072Z</time>
      </trkpt>
      <trkpt lat="42.91848" lon="0.18572">
        <ele>1612</ele>
        <time>2019-06-23T09:18:55.072Z</time>
      </trkpt>
      <trkpt lat="42.91848" lon="0.18573">
        <ele>1611</ele>
        <time>2019-06-23T09:18:56.072Z</time>
      </trkpt>
      <trkpt lat="42.91849" lon="0.18573">
        <ele>1611</ele>
        <time>2019-06-23T09:18:57.072Z</time>
      </trkpt>
      <trkpt lat="42.9185" lon="0.18573">
        <ele>1612</ele>
        <time>2019-06-23T09:18:58.072Z</time>
      </trkpt>
      <trkpt lat="42.9185" lon="0.18574">
        <ele>1612</ele>
        <time>2019-06-23T09:18:59.072Z</time>
      </trkpt>
      <trkpt lat="42.91851" lon="0.18574">
        <ele>1612</ele>
        <time>2019-06-23T09:19:00.072Z</time>
      </trkpt>
      <trkpt lat="42.91851" lon="0.18574">
        <ele>1612</ele>
        <time>2019-06-23T09:19:01.072Z</time>
      </trkpt>
      <trkpt lat="42.91852" lon="0.18575">
        <ele>1612</ele>
        <time>2019-06-23T09:19:02.072Z</time>
      </trkpt>
      <trkpt lat="42.91852" lon="0.18575">
        <ele>1612</ele>
        <time>2019-06-23T09:19:03.072Z</time>
      </trkpt>
      <trkpt lat="42.91852" lon="0.18575">
        <ele>1612</ele>
        <time>2019-06-23T09:19:04.072Z</time>
      </trkpt>
      <trkpt lat="42.91853" lon="0.18575">
        <ele>1612</ele>
        <time>2019-06-23T09:19:05.072Z</time>
      </trkpt>
      <trkpt lat="42.91853" lon="0.18575">
        <ele>1612</ele>
        <time>2019-06-23T09:19:06.072Z</time>
      </trkpt>
      <trkpt lat="42.91853" lon="0.18576">
        <ele>1612</ele>
        <time>2019-06-23T09:19:07.072Z</time>
      </trkpt>
      <trkpt lat="42.91854" lon="0.18576">
        <ele>1612</ele>
        <time>2019-06-23T09:19:08.072Z</time>
      </trkpt>
      <trkpt lat="42.91854" lon="0.18577">
        <ele>1613</ele>
        <time>2019-06-23T09:19:09.072Z</time>
      </trkpt>
      <trkpt lat="42.91855" lon="0.18577">
        <ele>1613</ele>
        <time>2019-06-23T09:19:10.072Z</time>
      </trkpt>
      <trkpt lat="42.91855" lon="0.18577">
        <ele>1612</ele>
        <time>2019-06-23T09:19:11.072Z</time>
      </trkpt>
      <trkpt lat="42.91856" lon="0.18578">
        <ele>1612</ele>
        <time>2019-06-23T09:19:12.072Z</time>
      </trkpt>
      <trkpt lat="42.91856" lon="0.18578">
        <ele>1612</ele>
        <time>2019-06-23T09:19:13.072Z</time>
      </trkpt>
      <trkpt lat="42.91857" lon="0.18578">
        <ele>1612</ele>
        <time>2019-06-23T09:19:14.072Z</time>
      </trkpt>
      <trkpt lat="42.91857" lon="0.18579">
        <ele>1612</ele>
        <time>2019-06-23T09:19:15.072Z</time>
      </trkpt>
      <trkpt lat="42.91857" lon="0.18579">
        <ele>1612</ele>
        <time>2019-06-23T09:19:16.072Z</time>
      </trkpt>
      <trkpt lat="42.91857" lon="0.18578">
        <ele>1612</ele>
        <time>2019-06-23T09:19:17.072Z</time>
      </trkpt>
      <trkpt lat="42.91857" lon="0.18578">
        <ele>1612</ele>
        <time>2019-06-23T09:19:18.072Z</time>
      </trkpt>
      <trkpt lat="42.91857" lon="0.18578">
        <ele>1612</ele>
        <time>2019-06-23T09:19:19.072Z</time>
      </trkpt>
      <trkpt lat="42.91859" lon="0.18579">
        <ele>1610</ele>
        <time>2019-06-23T09:19:20.080Z</time>
      </trkpt>
      <trkpt lat="42.91859" lon="0.1858">
        <ele>1609</ele>
        <time>2019-06-23T09:19:21.080Z</time>
      </trkpt>
      <trkpt lat="42.9186" lon="0.1858">
        <ele>1610</ele>
        <time>2019-06-23T09:19:22.080Z</time>
      </trkpt>
      <trkpt lat="42.91861" lon="0.1858">
        <ele>1610</ele>
        <time>2019-06-23T09:19:23.080Z</time>
      </trkpt>
      <trkpt lat="42.91861" lon="0.1858">
        <ele>1609</ele>
        <time>2019-06-23T09:19:24.080Z</time>
      </trkpt>
      <trkpt lat="42.91862" lon="0.18581">
        <ele>1609</ele>
        <time>2019-06-23T09:19:25.080Z</time>
      </trkpt>
      <trkpt lat="42.91862" lon="0.18581">
        <ele>1610</ele>
        <time>2019-06-23T09:19:26.080Z</time>
      </trkpt>
      <trkpt lat="42.91863" lon="0.18581">
        <ele>1610</ele>
        <time>2019-06-23T09:19:27.080Z</time>
      </trkpt>
      <trkpt lat="42.91863" lon="0.18581">
        <ele>1610</ele>
        <time>2019-06-23T09:19:28.080Z</time>
      </trkpt>
      <trkpt lat="42.91863" lon="0.18581">
        <ele>1610</ele>
        <time>2019-06-23T09:19:29.080Z</time>
      </trkpt>
      <trkpt lat="42.91863" lon="0.1858">
        <ele>1610</ele>
        <time>2019-06-23T09:19:30.080Z</time>
      </trkpt>
      <trkpt lat="42.91864" lon="0.1858">
        <ele>1611</ele>
        <time>2019-06-23T09:19:31.080Z</time>
      </trkpt>
      <trkpt lat="42.91864" lon="0.1858">
        <ele>1611</ele>
        <time>2019-06-23T09:19:32.080Z</time>
      </trkpt>
      <trkpt lat="42.91867" lon="0.18583">
        <ele>1611</ele>
        <time>2019-06-23T09:19:33.084Z</time>
      </trkpt>
      <trkpt lat="42.91868" lon="0.18583">
        <ele>1611</ele>
        <time>2019-06-23T09:19:34.084Z</time>
      </trkpt>
      <trkpt lat="42.91868" lon="0.18582">
        <ele>1611</ele>
        <time>2019-06-23T09:19:35.084Z</time>
      </trkpt>
      <trkpt lat="42.91869" lon="0.18582">
        <ele>1611</ele>
        <time>2019-06-23T09:19:36.084Z</time>
      </trkpt>
      <trkpt lat="42.9187" lon="0.18583">
        <ele>1611</ele>
        <time>2019-06-23T09:19:37.084Z</time>
      </trkpt>
      <trkpt lat="42.91871" lon="0.18583">
        <ele>1611</ele>
        <time>2019-06-23T09:19:38.084Z</time>
      </trkpt>
      <trkpt lat="42.91872" lon="0.18583">
        <ele>1611</ele>
        <time>2019-06-23T09:19:39.084Z</time>
      </trkpt>
      <trkpt lat="42.91872" lon="0.18583">
        <ele>1610</ele>
        <time>2019-06-23T09:19:40.084Z</time>
      </trkpt>
      <trkpt lat="42.91873" lon="0.18583">
        <ele>1610</ele>
        <time>2019-06-23T09:19:41.084Z</time>
      </trkpt>
      <trkpt lat="42.91874" lon="0.18584">
        <ele>1610</ele>
        <time>2019-06-23T09:19:42.084Z</time>
      </trkpt>
      <trkpt lat="42.91875" lon="0.18584">
        <ele>1610</ele>
        <time>2019-06-23T09:19:43.084Z</time>
      </trkpt>
      <trkpt lat="42.91875" lon="0.18584">
        <ele>1609</ele>
        <time>2019-06-23T09:19:44.084Z</time>
      </trkpt>
      <trkpt lat="42.91876" lon="0.18584">
        <ele>1609</ele>
        <time>2019-06-23T09:19:45.084Z</time>
      </trkpt>
      <trkpt lat="42.91877" lon="0.18585">
        <ele>1609</ele>
        <time>2019-06-23T09:19:46.084Z</time>
      </trkpt>
      <trkpt lat="42.91878" lon="0.18585">
        <ele>1609</ele>
        <time>2019-06-23T09:19:47.084Z</time>
      </trkpt>
      <trkpt lat="42.91879" lon="0.18585">
        <ele>1609</ele>
        <time>2019-06-23T09:19:48.084Z</time>
      </trkpt>
      <trkpt lat="42.9188" lon="0.18585">
        <ele>1609</ele>
        <time>2019-06-23T09:19:49.084Z</time>
      </trkpt>
      <trkpt lat="42.9188" lon="0.18586">
        <ele>1609</ele>
        <time>2019-06-23T09:19:50.084Z</time>
      </trkpt>
      <trkpt lat="42.91881" lon="0.18586">
        <ele>1608</ele>
        <time>2019-06-23T09:19:51.084Z</time>
      </trkpt>
      <trkpt lat="42.91882" lon="0.18586">
        <ele>1608</ele>
        <time>2019-06-23T09:19:52.084Z</time>
      </trkpt>
      <trkpt lat="42.91882" lon="0.18586">
        <ele>1608</ele>
        <time>2019-06-23T09:19:53.084Z</time>
      </trkpt>
      <trkpt lat="42.91883" lon="0.18586">
        <ele>1608</ele>
        <time>2019-06-23T09:19:54.084Z</time>
      </trkpt>
      <trkpt lat="42.91884" lon="0.18586">
        <ele>1608</ele>
        <time>2019-06-23T09:19:55.084Z</time>
      </trkpt>
      <trkpt lat="42.91885" lon="0.18586">
        <ele>1608</ele>
        <time>2019-06-23T09:19:56.084Z</time>
      </trkpt>
      <trkpt lat="42.91885" lon="0.18586">
        <ele>1607</ele>
        <time>2019-06-23T09:19:57.084Z</time>
      </trkpt>
      <trkpt lat="42.91886" lon="0.18586">
        <ele>1607</ele>
        <time>2019-06-23T09:19:58.084Z</time>
      </trkpt>
      <trkpt lat="42.91886" lon="0.18586">
        <ele>1607</ele>
        <time>2019-06-23T09:19:59.084Z</time>
      </trkpt>
      <trkpt lat="42.91887" lon="0.18586">
        <ele>1607</ele>
        <time>2019-06-23T09:20:00.084Z</time>
      </trkpt>
      <trkpt lat="42.91888" lon="0.18586">
        <ele>1607</ele>
        <time>2019-06-23T09:20:01.084Z</time>
      </trkpt>
      <trkpt lat="42.91888" lon="0.18587">
        <ele>1606</ele>
        <time>2019-06-23T09:20:02.084Z</time>
      </trkpt>
      <trkpt lat="42.91889" lon="0.18587">
        <ele>1606</ele>
        <time>2019-06-23T09:20:03.084Z</time>
      </trkpt>
      <trkpt lat="42.9189" lon="0.18587">
        <ele>1606</ele>
        <time>2019-06-23T09:20:04.084Z</time>
      </trkpt>
      <trkpt lat="42.9189" lon="0.18588">
        <ele>1606</ele>
        <time>2019-06-23T09:20:05.084Z</time>
      </trkpt>
      <trkpt lat="42.91891" lon="0.18588">
        <ele>1606</ele>
        <time>2019-06-23T09:20:06.084Z</time>
      </trkpt>
      <trkpt lat="42.91891" lon="0.18588">
        <ele>1606</ele>
        <time>2019-06-23T09:20:07.084Z</time>
      </trkpt>
      <trkpt lat="42.91892" lon="0.18589">
        <ele>1606</ele>
        <time>2019-06-23T09:20:08.084Z</time>
      </trkpt>
      <trkpt lat="42.91892" lon="0.18589">
        <ele>1606</ele>
        <time>2019-06-23T09:20:09.084Z</time>
      </trkpt>
      <trkpt lat="42.91893" lon="0.18589">
        <ele>1605</ele>
        <time>2019-06-23T09:20:10.084Z</time>
      </trkpt>
      <trkpt lat="42.91893" lon="0.18589">
        <ele>1606</ele>
        <time>2019-06-23T09:20:11.084Z</time>
      </trkpt>
      <trkpt lat="42.91894" lon="0.1859">
        <ele>1605</ele>
        <time>2019-06-23T09:20:12.084Z</time>
      </trkpt>
      <trkpt lat="42.91894" lon="0.1859">
        <ele>1605</ele>
        <time>2019-06-23T09:20:13.084Z</time>
      </trkpt>
      <trkpt lat="42.91894" lon="0.1859">
        <ele>1605</ele>
        <time>2019-06-23T09:20:14.084Z</time>
      </trkpt>
      <trkpt lat="42.91895" lon="0.18591">
        <ele>1605</ele>
        <time>2019-06-23T09:20:15.084Z</time>
      </trkpt>
      <trkpt lat="42.91895" lon="0.18591">
        <ele>1605</ele>
        <time>2019-06-23T09:20:16.084Z</time>
      </trkpt>
      <trkpt lat="42.91896" lon="0.18591">
        <ele>1604</ele>
        <time>2019-06-23T09:20:17.084Z</time>
      </trkpt>
      <trkpt lat="42.91896" lon="0.18591">
        <ele>1603</ele>
        <time>2019-06-23T09:20:18.084Z</time>
      </trkpt>
      <trkpt lat="42.91897" lon="0.18591">
        <ele>1603</ele>
        <time>2019-06-23T09:20:19.084Z</time>
      </trkpt>
      <trkpt lat="42.91898" lon="0.18591">
        <ele>1603</ele>
        <time>2019-06-23T09:20:20.084Z</time>
      </trkpt>
      <trkpt lat="42.91899" lon="0.18591">
        <ele>1602</ele>
        <time>2019-06-23T09:20:21.084Z</time>
      </trkpt>
      <trkpt lat="42.919" lon="0.18591">
        <ele>1602</ele>
        <time>2019-06-23T09:20:22.084Z</time>
      </trkpt>
      <trkpt lat="42.919" lon="0.18591">
        <ele>1602</ele>
        <time>2019-06-23T09:20:23.084Z</time>
      </trkpt>
      <trkpt lat="42.91901" lon="0.18591">
        <ele>1602</ele>
        <time>2019-06-23T09:20:24.084Z</time>
      </trkpt>
      <trkpt lat="42.91902" lon="0.18591">
        <ele>1602</ele>
        <time>2019-06-23T09:20:25.084Z</time>
      </trkpt>
      <trkpt lat="42.91903" lon="0.18591">
        <ele>1601</ele>
        <time>2019-06-23T09:20:26.084Z</time>
      </trkpt>
      <trkpt lat="42.91903" lon="0.18591">
        <ele>1602</ele>
        <time>2019-06-23T09:20:27.084Z</time>
      </trkpt>
      <trkpt lat="42.91904" lon="0.18592">
        <ele>1602</ele>
        <time>2019-06-23T09:20:28.084Z</time>
      </trkpt>
      <trkpt lat="42.91905" lon="0.18592">
        <ele>1602</ele>
        <time>2019-06-23T09:20:29.084Z</time>
      </trkpt>
      <trkpt lat="42.91905" lon="0.18592">
        <ele>1602</ele>
        <time>2019-06-23T09:20:30.084Z</time>
      </trkpt>
      <trkpt lat="42.91906" lon="0.18592">
        <ele>1602</ele>
        <time>2019-06-23T09:20:31.084Z</time>
      </trkpt>
      <trkpt lat="42.91907" lon="0.18593">
        <ele>1601</ele>
        <time>2019-06-23T09:20:32.084Z</time>
      </trkpt>
      <trkpt lat="42.91907" lon="0.18593">
        <ele>1600</ele>
        <time>2019-06-23T09:20:33.084Z</time>
      </trkpt>
      <trkpt lat="42.91908" lon="0.18593">
        <ele>1600</ele>
        <time>2019-06-23T09:20:34.084Z</time>
      </trkpt>
      <trkpt lat="42.91908" lon="0.18594">
        <ele>1600</ele>
        <time>2019-06-23T09:20:35.084Z</time>
      </trkpt>
      <trkpt lat="42.91909" lon="0.18595">
        <ele>1600</ele>
        <time>2019-06-23T09:20:36.084Z</time>
      </trkpt>
      <trkpt lat="42.9191" lon="0.18596">
        <ele>1600</ele>
        <time>2019-06-23T09:20:37.084Z</time>
      </trkpt>
      <trkpt lat="42.9191" lon="0.18596">
        <ele>1600</ele>
        <time>2019-06-23T09:20:38.084Z</time>
      </trkpt>
      <trkpt lat="42.91911" lon="0.18597">
        <ele>1600</ele>
        <time>2019-06-23T09:20:39.084Z</time>
      </trkpt>
      <trkpt lat="42.91912" lon="0.18598">
        <ele>1600</ele>
        <time>2019-06-23T09:20:40.084Z</time>
      </trkpt>
      <trkpt lat="42.91912" lon="0.18598">
        <ele>1600</ele>
        <time>2019-06-23T09:20:41.084Z</time>
      </trkpt>
      <trkpt lat="42.91912" lon="0.18599">
        <ele>1600</ele>
        <time>2019-06-23T09:20:42.084Z</time>
      </trkpt>
      <trkpt lat="42.91913" lon="0.186">
        <ele>1600</ele>
        <time>2019-06-23T09:20:43.084Z</time>
      </trkpt>
      <trkpt lat="42.91913" lon="0.186">
        <ele>1600</ele>
        <time>2019-06-23T09:20:44.084Z</time>
      </trkpt>
      <trkpt lat="42.91914" lon="0.18601">
        <ele>1600</ele>
        <time>2019-06-23T09:20:45.084Z</time>
      </trkpt>
      <trkpt lat="42.91915" lon="0.18601">
        <ele>1600</ele>
        <time>2019-06-23T09:20:46.084Z</time>
      </trkpt>
      <trkpt lat="42.91915" lon="0.18602">
        <ele>1600</ele>
        <time>2019-06-23T09:20:47.084Z</time>
      </trkpt>
      <trkpt lat="42.91916" lon="0.18603">
        <ele>1600</ele>
        <time>2019-06-23T09:20:48.084Z</time>
      </trkpt>
      <trkpt lat="42.91916" lon="0.18603">
        <ele>1600</ele>
        <time>2019-06-23T09:20:49.084Z</time>
      </trkpt>
      <trkpt lat="42.91917" lon="0.18603">
        <ele>1600</ele>
        <time>2019-06-23T09:20:50.084Z</time>
      </trkpt>
      <trkpt lat="42.91918" lon="0.18604">
        <ele>1600</ele>
        <time>2019-06-23T09:20:51.084Z</time>
      </trkpt>
      <trkpt lat="42.91918" lon="0.18604">
        <ele>1600</ele>
        <time>2019-06-23T09:20:52.084Z</time>
      </trkpt>
      <trkpt lat="42.91919" lon="0.18605">
        <ele>1600</ele>
        <time>2019-06-23T09:20:53.084Z</time>
      </trkpt>
      <trkpt lat="42.9192" lon="0.18605">
        <ele>1601</ele>
        <time>2019-06-23T09:20:54.084Z</time>
      </trkpt>
      <trkpt lat="42.9192" lon="0.18606">
        <ele>1601</ele>
        <time>2019-06-23T09:20:55.084Z</time>
      </trkpt>
      <trkpt lat="42.91921" lon="0.18607">
        <ele>1600</ele>
        <time>2019-06-23T09:20:56.084Z</time>
      </trkpt>
      <trkpt lat="42.91922" lon="0.18607">
        <ele>1600</ele>
        <time>2019-06-23T09:20:57.084Z</time>
      </trkpt>
      <trkpt lat="42.91922" lon="0.18608">
        <ele>1600</ele>
        <time>2019-06-23T09:20:58.084Z</time>
      </trkpt>
      <trkpt lat="42.91923" lon="0.18609">
        <ele>1600</ele>
        <time>2019-06-23T09:20:59.084Z</time>
      </trkpt>
      <trkpt lat="42.91923" lon="0.18609">
        <ele>1600</ele>
        <time>2019-06-23T09:21:00.084Z</time>
      </trkpt>
      <trkpt lat="42.91924" lon="0.1861">
        <ele>1600</ele>
        <time>2019-06-23T09:21:01.084Z</time>
      </trkpt>
      <trkpt lat="42.91924" lon="0.1861">
        <ele>1600</ele>
        <time>2019-06-23T09:21:02.084Z</time>
      </trkpt>
      <trkpt lat="42.91925" lon="0.1861">
        <ele>1600</ele>
        <time>2019-06-23T09:21:03.084Z</time>
      </trkpt>
      <trkpt lat="42.91926" lon="0.18611">
        <ele>1600</ele>
        <time>2019-06-23T09:21:04.084Z</time>
      </trkpt>
      <trkpt lat="42.91927" lon="0.18611">
        <ele>1600</ele>
        <time>2019-06-23T09:21:05.084Z</time>
      </trkpt>
      <trkpt lat="42.91927" lon="0.18612">
        <ele>1599</ele>
        <time>2019-06-23T09:21:06.084Z</time>
      </trkpt>
      <trkpt lat="42.91928" lon="0.18612">
        <ele>1599</ele>
        <time>2019-06-23T09:21:07.084Z</time>
      </trkpt>
      <trkpt lat="42.91928" lon="0.18613">
        <ele>1599</ele>
        <time>2019-06-23T09:21:08.084Z</time>
      </trkpt>
      <trkpt lat="42.91928" lon="0.18614">
        <ele>1598</ele>
        <time>2019-06-23T09:21:09.084Z</time>
      </trkpt>
      <trkpt lat="42.91929" lon="0.18614">
        <ele>1598</ele>
        <time>2019-06-23T09:21:10.084Z</time>
      </trkpt>
      <trkpt lat="42.91929" lon="0.18615">
        <ele>1598</ele>
        <time>2019-06-23T09:21:11.084Z</time>
      </trkpt>
      <trkpt lat="42.91929" lon="0.18616">
        <ele>1598</ele>
        <time>2019-06-23T09:21:12.084Z</time>
      </trkpt>
      <trkpt lat="42.91929" lon="0.18617">
        <ele>1598</ele>
        <time>2019-06-23T09:21:13.084Z</time>
      </trkpt>
      <trkpt lat="42.91929" lon="0.18618">
        <ele>1598</ele>
        <time>2019-06-23T09:21:14.084Z</time>
      </trkpt>
      <trkpt lat="42.9193" lon="0.18619">
        <ele>1598</ele>
        <time>2019-06-23T09:21:15.084Z</time>
      </trkpt>
      <trkpt lat="42.9193" lon="0.1862">
        <ele>1598</ele>
        <time>2019-06-23T09:21:16.084Z</time>
      </trkpt>
      <trkpt lat="42.9193" lon="0.1862">
        <ele>1597</ele>
        <time>2019-06-23T09:21:17.084Z</time>
      </trkpt>
      <trkpt lat="42.91931" lon="0.18621">
        <ele>1598</ele>
        <time>2019-06-23T09:21:18.084Z</time>
      </trkpt>
      <trkpt lat="42.91931" lon="0.18621">
        <ele>1598</ele>
        <time>2019-06-23T09:21:19.084Z</time>
      </trkpt>
      <trkpt lat="42.91932" lon="0.18622">
        <ele>1598</ele>
        <time>2019-06-23T09:21:20.084Z</time>
      </trkpt>
      <trkpt lat="42.91933" lon="0.18623">
        <ele>1598</ele>
        <time>2019-06-23T09:21:21.084Z</time>
      </trkpt>
      <trkpt lat="42.91933" lon="0.18623">
        <ele>1598</ele>
        <time>2019-06-23T09:21:22.084Z</time>
      </trkpt>
      <trkpt lat="42.91934" lon="0.18624">
        <ele>1598</ele>
        <time>2019-06-23T09:21:23.084Z</time>
      </trkpt>
      <trkpt lat="42.91934" lon="0.18625">
        <ele>1598</ele>
        <time>2019-06-23T09:21:24.084Z</time>
      </trkpt>
      <trkpt lat="42.91934" lon="0.18626">
        <ele>1597</ele>
        <time>2019-06-23T09:21:25.084Z</time>
      </trkpt>
      <trkpt lat="42.91934" lon="0.18627">
        <ele>1597</ele>
        <time>2019-06-23T09:21:26.084Z</time>
      </trkpt>
      <trkpt lat="42.91935" lon="0.18628">
        <ele>1598</ele>
        <time>2019-06-23T09:21:27.084Z</time>
      </trkpt>
      <trkpt lat="42.91935" lon="0.18629">
        <ele>1598</ele>
        <time>2019-06-23T09:21:28.084Z</time>
      </trkpt>
      <trkpt lat="42.91935" lon="0.1863">
        <ele>1597</ele>
        <time>2019-06-23T09:21:29.084Z</time>
      </trkpt>
      <trkpt lat="42.91936" lon="0.18631">
        <ele>1597</ele>
        <time>2019-06-23T09:21:30.084Z</time>
      </trkpt>
      <trkpt lat="42.91936" lon="0.18632">
        <ele>1597</ele>
        <time>2019-06-23T09:21:31.084Z</time>
      </trkpt>
      <trkpt lat="42.91936" lon="0.18633">
        <ele>1597</ele>
        <time>2019-06-23T09:21:32.084Z</time>
      </trkpt>
      <trkpt lat="42.91937" lon="0.18634">
        <ele>1597</ele>
        <time>2019-06-23T09:21:33.084Z</time>
      </trkpt>
      <trkpt lat="42.91937" lon="0.18635">
        <ele>1597</ele>
        <time>2019-06-23T09:21:34.084Z</time>
      </trkpt>
      <trkpt lat="42.91938" lon="0.18636">
        <ele>1597</ele>
        <time>2019-06-23T09:21:35.084Z</time>
      </trkpt>
      <trkpt lat="42.91938" lon="0.18637">
        <ele>1598</ele>
        <time>2019-06-23T09:21:36.084Z</time>
      </trkpt>
      <trkpt lat="42.91939" lon="0.18638">
        <ele>1597</ele>
        <time>2019-06-23T09:21:37.084Z</time>
      </trkpt>
      <trkpt lat="42.91939" lon="0.18639">
        <ele>1597</ele>
        <time>2019-06-23T09:21:38.084Z</time>
      </trkpt>
      <trkpt lat="42.9194" lon="0.1864">
        <ele>1597</ele>
        <time>2019-06-23T09:21:39.084Z</time>
      </trkpt>
      <trkpt lat="42.9194" lon="0.18641">
        <ele>1597</ele>
        <time>2019-06-23T09:21:40.084Z</time>
      </trkpt>
      <trkpt lat="42.91941" lon="0.18642">
        <ele>1597</ele>
        <time>2019-06-23T09:21:41.084Z</time>
      </trkpt>
      <trkpt lat="42.91941" lon="0.18643">
        <ele>1597</ele>
        <time>2019-06-23T09:21:42.084Z</time>
      </trkpt>
      <trkpt lat="42.91941" lon="0.18644">
        <ele>1597</ele>
        <time>2019-06-23T09:21:43.084Z</time>
      </trkpt>
      <trkpt lat="42.91942" lon="0.18645">
        <ele>1597</ele>
        <time>2019-06-23T09:21:44.084Z</time>
      </trkpt>
      <trkpt lat="42.91942" lon="0.18646">
        <ele>1596</ele>
        <time>2019-06-23T09:21:45.084Z</time>
      </trkpt>
      <trkpt lat="42.91942" lon="0.18647">
        <ele>1596</ele>
        <time>2019-06-23T09:21:46.084Z</time>
      </trkpt>
      <trkpt lat="42.91942" lon="0.18648">
        <ele>1597</ele>
        <time>2019-06-23T09:21:47.084Z</time>
      </trkpt>
      <trkpt lat="42.91943" lon="0.1865">
        <ele>1597</ele>
        <time>2019-06-23T09:21:48.084Z</time>
      </trkpt>
      <trkpt lat="42.91943" lon="0.18651">
        <ele>1596</ele>
        <time>2019-06-23T09:21:49.084Z</time>
      </trkpt>
      <trkpt lat="42.91943" lon="0.18651">
        <ele>1596</ele>
        <time>2019-06-23T09:21:50.084Z</time>
      </trkpt>
      <trkpt lat="42.91943" lon="0.18652">
        <ele>1596</ele>
        <time>2019-06-23T09:21:51.084Z</time>
      </trkpt>
      <trkpt lat="42.91943" lon="0.18653">
        <ele>1596</ele>
        <time>2019-06-23T09:21:52.084Z</time>
      </trkpt>
      <trkpt lat="42.91943" lon="0.18654">
        <ele>1596</ele>
        <time>2019-06-23T09:21:53.084Z</time>
      </trkpt>
      <trkpt lat="42.91943" lon="0.18655">
        <ele>1596</ele>
        <time>2019-06-23T09:21:54.084Z</time>
      </trkpt>
      <trkpt lat="42.91943" lon="0.18656">
        <ele>1596</ele>
        <time>2019-06-23T09:21:55.084Z</time>
      </trkpt>
      <trkpt lat="42.91944" lon="0.18657">
        <ele>1596</ele>
        <time>2019-06-23T09:21:56.084Z</time>
      </trkpt>
      <trkpt lat="42.91944" lon="0.18657">
        <ele>1596</ele>
        <time>2019-06-23T09:21:57.084Z</time>
      </trkpt>
      <trkpt lat="42.91944" lon="0.18658">
        <ele>1595</ele>
        <time>2019-06-23T09:21:58.084Z</time>
      </trkpt>
      <trkpt lat="42.91944" lon="0.18658">
        <ele>1595</ele>
        <time>2019-06-23T09:21:59.084Z</time>
      </trkpt>
      <trkpt lat="42.91944" lon="0.18658">
        <ele>1595</ele>
        <time>2019-06-23T09:22:00.084Z</time>
      </trkpt>
      <trkpt lat="42.91945" lon="0.18657">
        <ele>1596</ele>
        <time>2019-06-23T09:22:01.084Z</time>
      </trkpt>
      <trkpt lat="42.91946" lon="0.18657">
        <ele>1595</ele>
        <time>2019-06-23T09:22:02.084Z</time>
      </trkpt>
      <trkpt lat="42.91947" lon="0.18657">
        <ele>1595</ele>
        <time>2019-06-23T09:22:03.084Z</time>
      </trkpt>
      <trkpt lat="42.91947" lon="0.18658">
        <ele>1595</ele>
        <time>2019-06-23T09:22:04.084Z</time>
      </trkpt>
      <trkpt lat="42.91948" lon="0.18659">
        <ele>1595</ele>
        <time>2019-06-23T09:22:05.084Z</time>
      </trkpt>
      <trkpt lat="42.91948" lon="0.18659">
        <ele>1595</ele>
        <time>2019-06-23T09:22:06.084Z</time>
      </trkpt>
      <trkpt lat="42.91948" lon="0.1866">
        <ele>1594</ele>
        <time>2019-06-23T09:22:07.084Z</time>
      </trkpt>
      <trkpt lat="42.91949" lon="0.18661">
        <ele>1594</ele>
        <time>2019-06-23T09:22:08.084Z</time>
      </trkpt>
      <trkpt lat="42.91949" lon="0.18662">
        <ele>1594</ele>
        <time>2019-06-23T09:22:09.084Z</time>
      </trkpt>
      <trkpt lat="42.91949" lon="0.18662">
        <ele>1594</ele>
        <time>2019-06-23T09:22:10.084Z</time>
      </trkpt>
      <trkpt lat="42.91949" lon="0.18663">
        <ele>1594</ele>
        <time>2019-06-23T09:22:11.084Z</time>
      </trkpt>
      <trkpt lat="42.91949" lon="0.18664">
        <ele>1594</ele>
        <time>2019-06-23T09:22:12.084Z</time>
      </trkpt>
      <trkpt lat="42.9195" lon="0.18665">
        <ele>1594</ele>
        <time>2019-06-23T09:22:13.084Z</time>
      </trkpt>
      <trkpt lat="42.9195" lon="0.18666">
        <ele>1594</ele>
        <time>2019-06-23T09:22:14.084Z</time>
      </trkpt>
      <trkpt lat="42.9195" lon="0.18667">
        <ele>1594</ele>
        <time>2019-06-23T09:22:15.084Z</time>
      </trkpt>
      <trkpt lat="42.9195" lon="0.18668">
        <ele>1594</ele>
        <time>2019-06-23T09:22:16.084Z</time>
      </trkpt>
      <trkpt lat="42.9195" lon="0.18668">
        <ele>1594</ele>
        <time>2019-06-23T09:22:17.084Z</time>
      </trkpt>
      <trkpt lat="42.9195" lon="0.18669">
        <ele>1594</ele>
        <time>2019-06-23T09:22:18.084Z</time>
      </trkpt>
      <trkpt lat="42.91951" lon="0.1867">
        <ele>1594</ele>
        <time>2019-06-23T09:22:19.084Z</time>
      </trkpt>
      <trkpt lat="42.91951" lon="0.1867">
        <ele>1594</ele>
        <time>2019-06-23T09:22:20.084Z</time>
      </trkpt>
      <trkpt lat="42.91952" lon="0.18671">
        <ele>1594</ele>
        <time>2019-06-23T09:22:21.084Z</time>
      </trkpt>
      <trkpt lat="42.91952" lon="0.18672">
        <ele>1593</ele>
        <time>2019-06-23T09:22:22.084Z</time>
      </trkpt>
      <trkpt lat="42.91953" lon="0.18673">
        <ele>1593</ele>
        <time>2019-06-23T09:22:23.084Z</time>
      </trkpt>
      <trkpt lat="42.91953" lon="0.18674">
        <ele>1593</ele>
        <time>2019-06-23T09:22:24.084Z</time>
      </trkpt>
      <trkpt lat="42.91954" lon="0.18675">
        <ele>1593</ele>
        <time>2019-06-23T09:22:25.084Z</time>
      </trkpt>
      <trkpt lat="42.91954" lon="0.18676">
        <ele>1593</ele>
        <time>2019-06-23T09:22:26.084Z</time>
      </trkpt>
      <trkpt lat="42.91954" lon="0.18677">
        <ele>1593</ele>
        <time>2019-06-23T09:22:27.084Z</time>
      </trkpt>
      <trkpt lat="42.91954" lon="0.18678">
        <ele>1592</ele>
        <time>2019-06-23T09:22:28.084Z</time>
      </trkpt>
      <trkpt lat="42.91954" lon="0.18678">
        <ele>1592</ele>
        <time>2019-06-23T09:22:29.084Z</time>
      </trkpt>
      <trkpt lat="42.91955" lon="0.18679">
        <ele>1592</ele>
        <time>2019-06-23T09:22:30.084Z</time>
      </trkpt>
      <trkpt lat="42.91955" lon="0.1868">
        <ele>1592</ele>
        <time>2019-06-23T09:22:31.084Z</time>
      </trkpt>
      <trkpt lat="42.91955" lon="0.18681">
        <ele>1591</ele>
        <time>2019-06-23T09:22:32.084Z</time>
      </trkpt>
      <trkpt lat="42.91956" lon="0.18681">
        <ele>1591</ele>
        <time>2019-06-23T09:22:33.084Z</time>
      </trkpt>
      <trkpt lat="42.91956" lon="0.18682">
        <ele>1591</ele>
        <time>2019-06-23T09:22:34.084Z</time>
      </trkpt>
      <trkpt lat="42.91957" lon="0.18682">
        <ele>1591</ele>
        <time>2019-06-23T09:22:35.084Z</time>
      </trkpt>
      <trkpt lat="42.91957" lon="0.18683">
        <ele>1591</ele>
        <time>2019-06-23T09:22:36.084Z</time>
      </trkpt>
      <trkpt lat="42.91958" lon="0.18683">
        <ele>1591</ele>
        <time>2019-06-23T09:22:37.084Z</time>
      </trkpt>
      <trkpt lat="42.91959" lon="0.18683">
        <ele>1591</ele>
        <time>2019-06-23T09:22:38.084Z</time>
      </trkpt>
      <trkpt lat="42.9196" lon="0.18684">
        <ele>1591</ele>
        <time>2019-06-23T09:22:39.084Z</time>
      </trkpt>
      <trkpt lat="42.9196" lon="0.18685">
        <ele>1591</ele>
        <time>2019-06-23T09:22:40.084Z</time>
      </trkpt>
      <trkpt lat="42.91961" lon="0.18685">
        <ele>1590</ele>
        <time>2019-06-23T09:22:41.084Z</time>
      </trkpt>
      <trkpt lat="42.91961" lon="0.18686">
        <ele>1590</ele>
        <time>2019-06-23T09:22:42.084Z</time>
      </trkpt>
      <trkpt lat="42.91961" lon="0.18687">
        <ele>1590</ele>
        <time>2019-06-23T09:22:43.084Z</time>
      </trkpt>
      <trkpt lat="42.91962" lon="0.18687">
        <ele>1590</ele>
        <time>2019-06-23T09:22:44.084Z</time>
      </trkpt>
      <trkpt lat="42.91962" lon="0.18687">
        <ele>1590</ele>
        <time>2019-06-23T09:22:45.084Z</time>
      </trkpt>
      <trkpt lat="42.91963" lon="0.18688">
        <ele>1590</ele>
        <time>2019-06-23T09:22:46.084Z</time>
      </trkpt>
      <trkpt lat="42.91964" lon="0.18688">
        <ele>1590</ele>
        <time>2019-06-23T09:22:47.084Z</time>
      </trkpt>
      <trkpt lat="42.91964" lon="0.18689">
        <ele>1590</ele>
        <time>2019-06-23T09:22:48.084Z</time>
      </trkpt>
      <trkpt lat="42.91965" lon="0.18689">
        <ele>1590</ele>
        <time>2019-06-23T09:22:49.084Z</time>
      </trkpt>
      <trkpt lat="42.91966" lon="0.18689">
        <ele>1590</ele>
        <time>2019-06-23T09:22:50.084Z</time>
      </trkpt>
      <trkpt lat="42.91967" lon="0.18689">
        <ele>1590</ele>
        <time>2019-06-23T09:22:51.084Z</time>
      </trkpt>
      <trkpt lat="42.91967" lon="0.18689">
        <ele>1590</ele>
        <time>2019-06-23T09:22:52.084Z</time>
      </trkpt>
      <trkpt lat="42.91968" lon="0.18689">
        <ele>1589</ele>
        <time>2019-06-23T09:22:53.084Z</time>
      </trkpt>
      <trkpt lat="42.91968" lon="0.18689">
        <ele>1589</ele>
        <time>2019-06-23T09:22:54.084Z</time>
      </trkpt>
      <trkpt lat="42.91969" lon="0.1869">
        <ele>1588</ele>
        <time>2019-06-23T09:22:55.084Z</time>
      </trkpt>
      <trkpt lat="42.91969" lon="0.1869">
        <ele>1588</ele>
        <time>2019-06-23T09:22:56.084Z</time>
      </trkpt>
      <trkpt lat="42.91969" lon="0.1869">
        <ele>1589</ele>
        <time>2019-06-23T09:22:57.084Z</time>
      </trkpt>
      <trkpt lat="42.91969" lon="0.18689">
        <ele>1589</ele>
        <time>2019-06-23T09:22:58.084Z</time>
      </trkpt>
      <trkpt lat="42.9197" lon="0.18689">
        <ele>1589</ele>
        <time>2019-06-23T09:22:59.084Z</time>
      </trkpt>
      <trkpt lat="42.91971" lon="0.18689">
        <ele>1589</ele>
        <time>2019-06-23T09:23:00.084Z</time>
      </trkpt>
      <trkpt lat="42.91971" lon="0.18689">
        <ele>1588</ele>
        <time>2019-06-23T09:23:01.084Z</time>
      </trkpt>
      <trkpt lat="42.91971" lon="0.1869">
        <ele>1589</ele>
        <time>2019-06-23T09:23:02.084Z</time>
      </trkpt>
      <trkpt lat="42.91972" lon="0.1869">
        <ele>1589</ele>
        <time>2019-06-23T09:23:03.084Z</time>
      </trkpt>
      <trkpt lat="42.91973" lon="0.1869">
        <ele>1589</ele>
        <time>2019-06-23T09:23:04.084Z</time>
      </trkpt>
      <trkpt lat="42.91973" lon="0.18691">
        <ele>1589</ele>
        <time>2019-06-23T09:23:05.084Z</time>
      </trkpt>
      <trkpt lat="42.91974" lon="0.18691">
        <ele>1589</ele>
        <time>2019-06-23T09:23:06.084Z</time>
      </trkpt>
      <trkpt lat="42.91974" lon="0.18691">
        <ele>1589</ele>
        <time>2019-06-23T09:23:07.084Z</time>
      </trkpt>
      <trkpt lat="42.91975" lon="0.18692">
        <ele>1589</ele>
        <time>2019-06-23T09:23:08.084Z</time>
      </trkpt>
      <trkpt lat="42.91975" lon="0.18692">
        <ele>1589</ele>
        <time>2019-06-23T09:23:09.084Z</time>
      </trkpt>
      <trkpt lat="42.91976" lon="0.18693">
        <ele>1588</ele>
        <time>2019-06-23T09:23:10.084Z</time>
      </trkpt>
      <trkpt lat="42.91976" lon="0.18694">
        <ele>1588</ele>
        <time>2019-06-23T09:23:11.084Z</time>
      </trkpt>
      <trkpt lat="42.91976" lon="0.18695">
        <ele>1588</ele>
        <time>2019-06-23T09:23:12.084Z</time>
      </trkpt>
      <trkpt lat="42.91976" lon="0.18696">
        <ele>1588</ele>
        <time>2019-06-23T09:23:13.084Z</time>
      </trkpt>
      <trkpt lat="42.91977" lon="0.18697">
        <ele>1588</ele>
        <time>2019-06-23T09:23:14.084Z</time>
      </trkpt>
      <trkpt lat="42.91977" lon="0.18698">
        <ele>1588</ele>
        <time>2019-06-23T09:23:15.084Z</time>
      </trkpt>
      <trkpt lat="42.91977" lon="0.18698">
        <ele>1587</ele>
        <time>2019-06-23T09:23:16.084Z</time>
      </trkpt>
      <trkpt lat="42.91978" lon="0.18699">
        <ele>1587</ele>
        <time>2019-06-23T09:23:17.084Z</time>
      </trkpt>
      <trkpt lat="42.91978" lon="0.187">
        <ele>1587</ele>
        <time>2019-06-23T09:23:18.084Z</time>
      </trkpt>
      <trkpt lat="42.91979" lon="0.187">
        <ele>1587</ele>
        <time>2019-06-23T09:23:19.084Z</time>
      </trkpt>
      <trkpt lat="42.91979" lon="0.18701">
        <ele>1587</ele>
        <time>2019-06-23T09:23:20.084Z</time>
      </trkpt>
      <trkpt lat="42.91979" lon="0.18701">
        <ele>1587</ele>
        <time>2019-06-23T09:23:21.084Z</time>
      </trkpt>
      <trkpt lat="42.91979" lon="0.18701">
        <ele>1587</ele>
        <time>2019-06-23T09:23:22.084Z</time>
      </trkpt>
      <trkpt lat="42.9198" lon="0.18702">
        <ele>1587</ele>
        <time>2019-06-23T09:23:23.084Z</time>
      </trkpt>
      <trkpt lat="42.9198" lon="0.18702">
        <ele>1588</ele>
        <time>2019-06-23T09:23:24.084Z</time>
      </trkpt>
      <trkpt lat="42.9198" lon="0.18702">
        <ele>1588</ele>
        <time>2019-06-23T09:23:25.084Z</time>
      </trkpt>
      <trkpt lat="42.9198" lon="0.18702">
        <ele>1588</ele>
        <time>2019-06-23T09:23:26.084Z</time>
      </trkpt>
      <trkpt lat="42.9198" lon="0.18702">
        <ele>1588</ele>
        <time>2019-06-23T09:23:27.084Z</time>
      </trkpt>
      <trkpt lat="42.91981" lon="0.18703">
        <ele>1587</ele>
        <time>2019-06-23T09:23:28.084Z</time>
      </trkpt>
      <trkpt lat="42.91981" lon="0.18703">
        <ele>1587</ele>
        <time>2019-06-23T09:23:29.084Z</time>
      </trkpt>
      <trkpt lat="42.91981" lon="0.18704">
        <ele>1587</ele>
        <time>2019-06-23T09:23:30.084Z</time>
      </trkpt>
      <trkpt lat="42.91981" lon="0.18705">
        <ele>1587</ele>
        <time>2019-06-23T09:23:31.084Z</time>
      </trkpt>
      <trkpt lat="42.91982" lon="0.18705">
        <ele>1587</ele>
        <time>2019-06-23T09:23:32.084Z</time>
      </trkpt>
      <trkpt lat="42.91982" lon="0.18706">
        <ele>1586</ele>
        <time>2019-06-23T09:23:33.084Z</time>
      </trkpt>
      <trkpt lat="42.91982" lon="0.18707">
        <ele>1586</ele>
        <time>2019-06-23T09:23:34.084Z</time>
      </trkpt>
      <trkpt lat="42.91983" lon="0.18708">
        <ele>1586</ele>
        <time>2019-06-23T09:23:35.084Z</time>
      </trkpt>
      <trkpt lat="42.91983" lon="0.18708">
        <ele>1585</ele>
        <time>2019-06-23T09:23:36.084Z</time>
      </trkpt>
      <trkpt lat="42.91983" lon="0.18709">
        <ele>1585</ele>
        <time>2019-06-23T09:23:37.084Z</time>
      </trkpt>
      <trkpt lat="42.91984" lon="0.1871">
        <ele>1584</ele>
        <time>2019-06-23T09:23:38.084Z</time>
      </trkpt>
      <trkpt lat="42.91984" lon="0.18711">
        <ele>1584</ele>
        <time>2019-06-23T09:23:39.084Z</time>
      </trkpt>
      <trkpt lat="42.91984" lon="0.18712">
        <ele>1584</ele>
        <time>2019-06-23T09:23:40.084Z</time>
      </trkpt>
      <trkpt lat="42.91985" lon="0.18712">
        <ele>1584</ele>
        <time>2019-06-23T09:23:41.084Z</time>
      </trkpt>
      <trkpt lat="42.91985" lon="0.18713">
        <ele>1584</ele>
        <time>2019-06-23T09:23:42.084Z</time>
      </trkpt>
      <trkpt lat="42.91985" lon="0.18714">
        <ele>1583</ele>
        <time>2019-06-23T09:23:43.084Z</time>
      </trkpt>
      <trkpt lat="42.91986" lon="0.18714">
        <ele>1583</ele>
        <time>2019-06-23T09:23:44.084Z</time>
      </trkpt>
      <trkpt lat="42.91986" lon="0.18715">
        <ele>1583</ele>
        <time>2019-06-23T09:23:45.084Z</time>
      </trkpt>
      <trkpt lat="42.91987" lon="0.18715">
        <ele>1583</ele>
        <time>2019-06-23T09:23:46.084Z</time>
      </trkpt>
      <trkpt lat="42.91987" lon="0.18716">
        <ele>1583</ele>
        <time>2019-06-23T09:23:47.084Z</time>
      </trkpt>
      <trkpt lat="42.91987" lon="0.18717">
        <ele>1583</ele>
        <time>2019-06-23T09:23:48.084Z</time>
      </trkpt>
      <trkpt lat="42.91988" lon="0.18718">
        <ele>1583</ele>
        <time>2019-06-23T09:23:49.084Z</time>
      </trkpt>
      <trkpt lat="42.91988" lon="0.18718">
        <ele>1582</ele>
        <time>2019-06-23T09:23:50.084Z</time>
      </trkpt>
      <trkpt lat="42.91988" lon="0.18719">
        <ele>1582</ele>
        <time>2019-06-23T09:23:51.084Z</time>
      </trkpt>
      <trkpt lat="42.91988" lon="0.1872">
        <ele>1582</ele>
        <time>2019-06-23T09:23:52.084Z</time>
      </trkpt>
      <trkpt lat="42.91989" lon="0.18721">
        <ele>1582</ele>
        <time>2019-06-23T09:23:53.084Z</time>
      </trkpt>
      <trkpt lat="42.91989" lon="0.18722">
        <ele>1582</ele>
        <time>2019-06-23T09:23:54.084Z</time>
      </trkpt>
      <trkpt lat="42.9199" lon="0.18723">
        <ele>1582</ele>
        <time>2019-06-23T09:23:55.084Z</time>
      </trkpt>
      <trkpt lat="42.9199" lon="0.18723">
        <ele>1582</ele>
        <time>2019-06-23T09:23:56.084Z</time>
      </trkpt>
      <trkpt lat="42.91991" lon="0.18724">
        <ele>1582</ele>
        <time>2019-06-23T09:23:57.084Z</time>
      </trkpt>
      <trkpt lat="42.91991" lon="0.18725">
        <ele>1582</ele>
        <time>2019-06-23T09:23:58.084Z</time>
      </trkpt>
      <trkpt lat="42.91992" lon="0.18725">
        <ele>1583</ele>
        <time>2019-06-23T09:23:59.084Z</time>
      </trkpt>
      <trkpt lat="42.91992" lon="0.18726">
        <ele>1583</ele>
        <time>2019-06-23T09:24:00.084Z</time>
      </trkpt>
      <trkpt lat="42.91993" lon="0.18727">
        <ele>1583</ele>
        <time>2019-06-23T09:24:01.084Z</time>
      </trkpt>
      <trkpt lat="42.91994" lon="0.18727">
        <ele>1583</ele>
        <time>2019-06-23T09:24:02.084Z</time>
      </trkpt>
      <trkpt lat="42.91994" lon="0.18728">
        <ele>1583</ele>
        <time>2019-06-23T09:24:03.084Z</time>
      </trkpt>
      <trkpt lat="42.91995" lon="0.18728">
        <ele>1583</ele>
        <time>2019-06-23T09:24:04.084Z</time>
      </trkpt>
      <trkpt lat="42.91995" lon="0.18729">
        <ele>1583</ele>
        <time>2019-06-23T09:24:05.084Z</time>
      </trkpt>
      <trkpt lat="42.91996" lon="0.18729">
        <ele>1582</ele>
        <time>2019-06-23T09:24:06.084Z</time>
      </trkpt>
      <trkpt lat="42.91996" lon="0.1873">
        <ele>1582</ele>
        <time>2019-06-23T09:24:07.084Z</time>
      </trkpt>
      <trkpt lat="42.91997" lon="0.18731">
        <ele>1582</ele>
        <time>2019-06-23T09:24:08.084Z</time>
      </trkpt>
      <trkpt lat="42.91997" lon="0.18731">
        <ele>1582</ele>
        <time>2019-06-23T09:24:09.084Z</time>
      </trkpt>
      <trkpt lat="42.91998" lon="0.18732">
        <ele>1582</ele>
        <time>2019-06-23T09:24:10.084Z</time>
      </trkpt>
      <trkpt lat="42.91998" lon="0.18733">
        <ele>1582</ele>
        <time>2019-06-23T09:24:11.084Z</time>
      </trkpt>
      <trkpt lat="42.91998" lon="0.18734">
        <ele>1582</ele>
        <time>2019-06-23T09:24:12.084Z</time>
      </trkpt>
      <trkpt lat="42.91999" lon="0.18735">
        <ele>1582</ele>
        <time>2019-06-23T09:24:13.084Z</time>
      </trkpt>
      <trkpt lat="42.91999" lon="0.18735">
        <ele>1581</ele>
        <time>2019-06-23T09:24:14.084Z</time>
      </trkpt>
      <trkpt lat="42.92" lon="0.18736">
        <ele>1581</ele>
        <time>2019-06-23T09:24:15.084Z</time>
      </trkpt>
      <trkpt lat="42.92" lon="0.18737">
        <ele>1581</ele>
        <time>2019-06-23T09:24:16.084Z</time>
      </trkpt>
      <trkpt lat="42.92" lon="0.18738">
        <ele>1581</ele>
        <time>2019-06-23T09:24:17.084Z</time>
      </trkpt>
      <trkpt lat="42.92" lon="0.18738">
        <ele>1581</ele>
        <time>2019-06-23T09:24:18.084Z</time>
      </trkpt>
      <trkpt lat="42.92" lon="0.18739">
        <ele>1581</ele>
        <time>2019-06-23T09:24:19.084Z</time>
      </trkpt>
      <trkpt lat="42.92" lon="0.1874">
        <ele>1580</ele>
        <time>2019-06-23T09:24:20.084Z</time>
      </trkpt>
      <trkpt lat="42.92" lon="0.18741">
        <ele>1581</ele>
        <time>2019-06-23T09:24:21.084Z</time>
      </trkpt>
      <trkpt lat="42.92" lon="0.18742">
        <ele>1581</ele>
        <time>2019-06-23T09:24:22.084Z</time>
      </trkpt>
      <trkpt lat="42.92001" lon="0.18743">
        <ele>1580</ele>
        <time>2019-06-23T09:24:23.084Z</time>
      </trkpt>
      <trkpt lat="42.92001" lon="0.18744">
        <ele>1580</ele>
        <time>2019-06-23T09:24:24.084Z</time>
      </trkpt>
      <trkpt lat="42.92001" lon="0.18745">
        <ele>1580</ele>
        <time>2019-06-23T09:24:25.084Z</time>
      </trkpt>
      <trkpt lat="42.92002" lon="0.18745">
        <ele>1581</ele>
        <time>2019-06-23T09:24:26.084Z</time>
      </trkpt>
      <trkpt lat="42.92002" lon="0.18746">
        <ele>1580</ele>
        <time>2019-06-23T09:24:27.084Z</time>
      </trkpt>
      <trkpt lat="42.92003" lon="0.18747">
        <ele>1580</ele>
        <time>2019-06-23T09:24:28.084Z</time>
      </trkpt>
      <trkpt lat="42.92003" lon="0.18749">
        <ele>1579</ele>
        <time>2019-06-23T09:24:29.084Z</time>
      </trkpt>
      <trkpt lat="42.92003" lon="0.1875">
        <ele>1579</ele>
        <time>2019-06-23T09:24:30.084Z</time>
      </trkpt>
      <trkpt lat="42.92003" lon="0.18751">
        <ele>1579</ele>
        <time>2019-06-23T09:24:31.084Z</time>
      </trkpt>
      <trkpt lat="42.92004" lon="0.18752">
        <ele>1579</ele>
        <time>2019-06-23T09:24:32.084Z</time>
      </trkpt>
      <trkpt lat="42.92004" lon="0.18753">
        <ele>1579</ele>
        <time>2019-06-23T09:24:33.084Z</time>
      </trkpt>
      <trkpt lat="42.92004" lon="0.18754">
        <ele>1579</ele>
        <time>2019-06-23T09:24:34.084Z</time>
      </trkpt>
      <trkpt lat="42.92004" lon="0.18754">
        <ele>1579</ele>
        <time>2019-06-23T09:24:35.084Z</time>
      </trkpt>
      <trkpt lat="42.92005" lon="0.18755">
        <ele>1579</ele>
        <time>2019-06-23T09:24:36.084Z</time>
      </trkpt>
      <trkpt lat="42.92005" lon="0.18756">
        <ele>1579</ele>
        <time>2019-06-23T09:24:37.084Z</time>
      </trkpt>
      <trkpt lat="42.92005" lon="0.18757">
        <ele>1578</ele>
        <time>2019-06-23T09:24:38.084Z</time>
      </trkpt>
      <trkpt lat="42.92005" lon="0.18758">
        <ele>1578</ele>
        <time>2019-06-23T09:24:39.084Z</time>
      </trkpt>
      <trkpt lat="42.92005" lon="0.18759">
        <ele>1578</ele>
        <time>2019-06-23T09:24:40.084Z</time>
      </trkpt>
      <trkpt lat="42.92006" lon="0.1876">
        <ele>1578</ele>
        <time>2019-06-23T09:24:41.084Z</time>
      </trkpt>
      <trkpt lat="42.92006" lon="0.18761">
        <ele>1578</ele>
        <time>2019-06-23T09:24:42.084Z</time>
      </trkpt>
      <trkpt lat="42.92006" lon="0.18762">
        <ele>1578</ele>
        <time>2019-06-23T09:24:43.084Z</time>
      </trkpt>
      <trkpt lat="42.92006" lon="0.18763">
        <ele>1578</ele>
        <time>2019-06-23T09:24:44.084Z</time>
      </trkpt>
      <trkpt lat="42.92006" lon="0.18764">
        <ele>1577</ele>
        <time>2019-06-23T09:24:45.084Z</time>
      </trkpt>
      <trkpt lat="42.92006" lon="0.18766">
        <ele>1578</ele>
        <time>2019-06-23T09:24:46.084Z</time>
      </trkpt>
      <trkpt lat="42.92006" lon="0.18767">
        <ele>1578</ele>
        <time>2019-06-23T09:24:47.084Z</time>
      </trkpt>
      <trkpt lat="42.92007" lon="0.18768">
        <ele>1577</ele>
        <time>2019-06-23T09:24:48.084Z</time>
      </trkpt>
      <trkpt lat="42.92007" lon="0.18768">
        <ele>1578</ele>
        <time>2019-06-23T09:24:49.084Z</time>
      </trkpt>
      <trkpt lat="42.92007" lon="0.18769">
        <ele>1578</ele>
        <time>2019-06-23T09:24:50.084Z</time>
      </trkpt>
      <trkpt lat="42.92007" lon="0.18769">
        <ele>1578</ele>
        <time>2019-06-23T09:24:51.084Z</time>
      </trkpt>
      <trkpt lat="42.92008" lon="0.1877">
        <ele>1578</ele>
        <time>2019-06-23T09:24:52.084Z</time>
      </trkpt>
      <trkpt lat="42.92008" lon="0.18771">
        <ele>1577</ele>
        <time>2019-06-23T09:24:53.084Z</time>
      </trkpt>
      <trkpt lat="42.92008" lon="0.18772">
        <ele>1578</ele>
        <time>2019-06-23T09:24:54.084Z</time>
      </trkpt>
      <trkpt lat="42.92009" lon="0.18773">
        <ele>1578</ele>
        <time>2019-06-23T09:24:55.084Z</time>
      </trkpt>
      <trkpt lat="42.92009" lon="0.18774">
        <ele>1577</ele>
        <time>2019-06-23T09:24:56.084Z</time>
      </trkpt>
      <trkpt lat="42.92008" lon="0.18775">
        <ele>1577</ele>
        <time>2019-06-23T09:24:57.084Z</time>
      </trkpt>
      <trkpt lat="42.92008" lon="0.18776">
        <ele>1577</ele>
        <time>2019-06-23T09:24:58.084Z</time>
      </trkpt>
      <trkpt lat="42.92008" lon="0.18777">
        <ele>1578</ele>
        <time>2019-06-23T09:24:59.084Z</time>
      </trkpt>
      <trkpt lat="42.92008" lon="0.18778">
        <ele>1577</ele>
        <time>2019-06-23T09:25:00.084Z</time>
      </trkpt>
      <trkpt lat="42.92008" lon="0.18779">
        <ele>1578</ele>
        <time>2019-06-23T09:25:01.084Z</time>
      </trkpt>
      <trkpt lat="42.92008" lon="0.1878">
        <ele>1578</ele>
        <time>2019-06-23T09:25:02.084Z</time>
      </trkpt>
      <trkpt lat="42.92009" lon="0.18781">
        <ele>1578</ele>
        <time>2019-06-23T09:25:03.084Z</time>
      </trkpt>
      <trkpt lat="42.92009" lon="0.18782">
        <ele>1578</ele>
        <time>2019-06-23T09:25:04.084Z</time>
      </trkpt>
      <trkpt lat="42.92009" lon="0.18783">
        <ele>1578</ele>
        <time>2019-06-23T09:25:05.084Z</time>
      </trkpt>
      <trkpt lat="42.92009" lon="0.18784">
        <ele>1578</ele>
        <time>2019-06-23T09:25:06.084Z</time>
      </trkpt>
      <trkpt lat="42.9201" lon="0.18785">
        <ele>1578</ele>
        <time>2019-06-23T09:25:07.084Z</time>
      </trkpt>
      <trkpt lat="42.9201" lon="0.18785">
        <ele>1578</ele>
        <time>2019-06-23T09:25:08.084Z</time>
      </trkpt>
      <trkpt lat="42.9201" lon="0.18786">
        <ele>1578</ele>
        <time>2019-06-23T09:25:09.084Z</time>
      </trkpt>
      <trkpt lat="42.9201" lon="0.18787">
        <ele>1578</ele>
        <time>2019-06-23T09:25:10.084Z</time>
      </trkpt>
      <trkpt lat="42.9201" lon="0.18788">
        <ele>1578</ele>
        <time>2019-06-23T09:25:11.084Z</time>
      </trkpt>
      <trkpt lat="42.9201" lon="0.18789">
        <ele>1578</ele>
        <time>2019-06-23T09:25:12.084Z</time>
      </trkpt>
      <trkpt lat="42.9201" lon="0.1879">
        <ele>1578</ele>
        <time>2019-06-23T09:25:13.084Z</time>
      </trkpt>
      <trkpt lat="42.9201" lon="0.18791">
        <ele>1577</ele>
        <time>2019-06-23T09:25:14.084Z</time>
      </trkpt>
      <trkpt lat="42.9201" lon="0.18792">
        <ele>1577</ele>
        <time>2019-06-23T09:25:15.084Z</time>
      </trkpt>
      <trkpt lat="42.92009" lon="0.18793">
        <ele>1577</ele>
        <time>2019-06-23T09:25:16.084Z</time>
      </trkpt>
      <trkpt lat="42.92009" lon="0.18794">
        <ele>1577</ele>
        <time>2019-06-23T09:25:17.084Z</time>
      </trkpt>
      <trkpt lat="42.9201" lon="0.18795">
        <ele>1577</ele>
        <time>2019-06-23T09:25:18.084Z</time>
      </trkpt>
      <trkpt lat="42.9201" lon="0.18796">
        <ele>1577</ele>
        <time>2019-06-23T09:25:19.084Z</time>
      </trkpt>
      <trkpt lat="42.9201" lon="0.18797">
        <ele>1577</ele>
        <time>2019-06-23T09:25:20.084Z</time>
      </trkpt>
      <trkpt lat="42.9201" lon="0.18798">
        <ele>1577</ele>
        <time>2019-06-23T09:25:21.084Z</time>
      </trkpt>
      <trkpt lat="42.9201" lon="0.18799">
        <ele>1577</ele>
        <time>2019-06-23T09:25:22.084Z</time>
      </trkpt>
      <trkpt lat="42.9201" lon="0.188">
        <ele>1577</ele>
        <time>2019-06-23T09:25:23.084Z</time>
      </trkpt>
      <trkpt lat="42.9201" lon="0.18801">
        <ele>1577</ele>
        <time>2019-06-23T09:25:24.084Z</time>
      </trkpt>
      <trkpt lat="42.9201" lon="0.18802">
        <ele>1576</ele>
        <time>2019-06-23T09:25:25.084Z</time>
      </trkpt>
      <trkpt lat="42.9201" lon="0.18803">
        <ele>1576</ele>
        <time>2019-06-23T09:25:26.084Z</time>
      </trkpt>
      <trkpt lat="42.9201" lon="0.18804">
        <ele>1577</ele>
        <time>2019-06-23T09:25:27.084Z</time>
      </trkpt>
      <trkpt lat="42.9201" lon="0.18804">
        <ele>1576</ele>
        <time>2019-06-23T09:25:28.084Z</time>
      </trkpt>
      <trkpt lat="42.9201" lon="0.18806">
        <ele>1575</ele>
        <time>2019-06-23T09:25:29.084Z</time>
      </trkpt>
      <trkpt lat="42.9201" lon="0.18807">
        <ele>1575</ele>
        <time>2019-06-23T09:25:30.084Z</time>
      </trkpt>
      <trkpt lat="42.92011" lon="0.18809">
        <ele>1575</ele>
        <time>2019-06-23T09:25:31.084Z</time>
      </trkpt>
      <trkpt lat="42.92011" lon="0.1881">
        <ele>1575</ele>
        <time>2019-06-23T09:25:32.084Z</time>
      </trkpt>
      <trkpt lat="42.92011" lon="0.18811">
        <ele>1575</ele>
        <time>2019-06-23T09:25:33.084Z</time>
      </trkpt>
      <trkpt lat="42.92012" lon="0.18812">
        <ele>1574</ele>
        <time>2019-06-23T09:25:34.084Z</time>
      </trkpt>
      <trkpt lat="42.92012" lon="0.18813">
        <ele>1574</ele>
        <time>2019-06-23T09:25:35.084Z</time>
      </trkpt>
      <trkpt lat="42.92012" lon="0.18814">
        <ele>1574</ele>
        <time>2019-06-23T09:25:36.084Z</time>
      </trkpt>
      <trkpt lat="42.92013" lon="0.18816">
        <ele>1574</ele>
        <time>2019-06-23T09:25:37.084Z</time>
      </trkpt>
      <trkpt lat="42.92013" lon="0.18817">
        <ele>1574</ele>
        <time>2019-06-23T09:25:38.084Z</time>
      </trkpt>
      <trkpt lat="42.92014" lon="0.18818">
        <ele>1573</ele>
        <time>2019-06-23T09:25:39.084Z</time>
      </trkpt>
      <trkpt lat="42.92014" lon="0.1882">
        <ele>1574</ele>
        <time>2019-06-23T09:25:40.084Z</time>
      </trkpt>
      <trkpt lat="42.92014" lon="0.18821">
        <ele>1574</ele>
        <time>2019-06-23T09:25:41.084Z</time>
      </trkpt>
      <trkpt lat="42.92014" lon="0.18821">
        <ele>1575</ele>
        <time>2019-06-23T09:25:42.084Z</time>
      </trkpt>
      <trkpt lat="42.92014" lon="0.18822">
        <ele>1575</ele>
        <time>2019-06-23T09:25:43.084Z</time>
      </trkpt>
      <trkpt lat="42.92015" lon="0.18823">
        <ele>1576</ele>
        <time>2019-06-23T09:25:44.084Z</time>
      </trkpt>
      <trkpt lat="42.92015" lon="0.18825">
        <ele>1576</ele>
        <time>2019-06-23T09:25:45.084Z</time>
      </trkpt>
      <trkpt lat="42.92015" lon="0.18825">
        <ele>1577</ele>
        <time>2019-06-23T09:25:46.084Z</time>
      </trkpt>
      <trkpt lat="42.92015" lon="0.18825">
        <ele>1577</ele>
        <time>2019-06-23T09:25:47.084Z</time>
      </trkpt>
      <trkpt lat="42.92015" lon="0.18825">
        <ele>1576</ele>
        <time>2019-06-23T09:25:48.084Z</time>
      </trkpt>
      <trkpt lat="42.92015" lon="0.18825">
        <ele>1575</ele>
        <time>2019-06-23T09:25:49.084Z</time>
      </trkpt>
      <trkpt lat="42.92015" lon="0.18825">
        <ele>1574</ele>
        <time>2019-06-23T09:25:50.084Z</time>
      </trkpt>
      <trkpt lat="42.92015" lon="0.18826">
        <ele>1575</ele>
        <time>2019-06-23T09:25:51.084Z</time>
      </trkpt>
      <trkpt lat="42.92015" lon="0.18826">
        <ele>1575</ele>
        <time>2019-06-23T09:25:52.084Z</time>
      </trkpt>
      <trkpt lat="42.92016" lon="0.18827">
        <ele>1575</ele>
        <time>2019-06-23T09:25:53.084Z</time>
      </trkpt>
      <trkpt lat="42.92016" lon="0.18828">
        <ele>1574</ele>
        <time>2019-06-23T09:25:54.084Z</time>
      </trkpt>
      <trkpt lat="42.92017" lon="0.18829">
        <ele>1574</ele>
        <time>2019-06-23T09:25:55.084Z</time>
      </trkpt>
      <trkpt lat="42.92017" lon="0.1883">
        <ele>1573</ele>
        <time>2019-06-23T09:25:56.084Z</time>
      </trkpt>
      <trkpt lat="42.92017" lon="0.18831">
        <ele>1574</ele>
        <time>2019-06-23T09:25:57.084Z</time>
      </trkpt>
      <trkpt lat="42.92018" lon="0.18832">
        <ele>1573</ele>
        <time>2019-06-23T09:25:58.084Z</time>
      </trkpt>
      <trkpt lat="42.92018" lon="0.18833">
        <ele>1573</ele>
        <time>2019-06-23T09:25:59.084Z</time>
      </trkpt>
      <trkpt lat="42.92019" lon="0.18834">
        <ele>1573</ele>
        <time>2019-06-23T09:26:00.084Z</time>
      </trkpt>
      <trkpt lat="42.92019" lon="0.18834">
        <ele>1573</ele>
        <time>2019-06-23T09:26:01.084Z</time>
      </trkpt>
      <trkpt lat="42.9202" lon="0.18835">
        <ele>1573</ele>
        <time>2019-06-23T09:26:02.084Z</time>
      </trkpt>
      <trkpt lat="42.9202" lon="0.18836">
        <ele>1574</ele>
        <time>2019-06-23T09:26:03.084Z</time>
      </trkpt>
      <trkpt lat="42.9202" lon="0.18836">
        <ele>1573</ele>
        <time>2019-06-23T09:26:04.084Z</time>
      </trkpt>
      <trkpt lat="42.9202" lon="0.18836">
        <ele>1573</ele>
        <time>2019-06-23T09:26:05.084Z</time>
      </trkpt>
      <trkpt lat="42.9202" lon="0.18836">
        <ele>1573</ele>
        <time>2019-06-23T09:26:06.084Z</time>
      </trkpt>
      <trkpt lat="42.9202" lon="0.18837">
        <ele>1573</ele>
        <time>2019-06-23T09:26:07.084Z</time>
      </trkpt>
      <trkpt lat="42.92022" lon="0.18837">
        <ele>1574</ele>
        <time>2019-06-23T09:26:08.092Z</time>
      </trkpt>
      <trkpt lat="42.92023" lon="0.18837">
        <ele>1574</ele>
        <time>2019-06-23T09:26:09.092Z</time>
      </trkpt>
      <trkpt lat="42.92023" lon="0.18837">
        <ele>1574</ele>
        <time>2019-06-23T09:26:10.092Z</time>
      </trkpt>
      <trkpt lat="42.92023" lon="0.18836">
        <ele>1574</ele>
        <time>2019-06-23T09:26:11.092Z</time>
      </trkpt>
      <trkpt lat="42.92024" lon="0.18836">
        <ele>1574</ele>
        <time>2019-06-23T09:26:12.092Z</time>
      </trkpt>
      <trkpt lat="42.92024" lon="0.18837">
        <ele>1574</ele>
        <time>2019-06-23T09:26:13.092Z</time>
      </trkpt>
      <trkpt lat="42.92024" lon="0.18836">
        <ele>1574</ele>
        <time>2019-06-23T09:26:14.092Z</time>
      </trkpt>
      <trkpt lat="42.92024" lon="0.18836">
        <ele>1574</ele>
        <time>2019-06-23T09:26:15.092Z</time>
      </trkpt>
      <trkpt lat="42.92024" lon="0.18837">
        <ele>1574</ele>
        <time>2019-06-23T09:26:16.092Z</time>
      </trkpt>
      <trkpt lat="42.92026" lon="0.18836">
        <ele>1574</ele>
        <time>2019-06-23T09:26:17.096Z</time>
      </trkpt>
      <trkpt lat="42.92027" lon="0.18836">
        <ele>1574</ele>
        <time>2019-06-23T09:26:18.096Z</time>
      </trkpt>
      <trkpt lat="42.92028" lon="0.18836">
        <ele>1574</ele>
        <time>2019-06-23T09:26:19.096Z</time>
      </trkpt>
      <trkpt lat="42.92029" lon="0.18836">
        <ele>1573</ele>
        <time>2019-06-23T09:26:20.096Z</time>
      </trkpt>
      <trkpt lat="42.92029" lon="0.18836">
        <ele>1573</ele>
        <time>2019-06-23T09:26:21.096Z</time>
      </trkpt>
      <trkpt lat="42.9203" lon="0.18836">
        <ele>1573</ele>
        <time>2019-06-23T09:26:22.096Z</time>
      </trkpt>
      <trkpt lat="42.9203" lon="0.18836">
        <ele>1573</ele>
        <time>2019-06-23T09:26:23.096Z</time>
      </trkpt>
      <trkpt lat="42.92031" lon="0.18835">
        <ele>1572</ele>
        <time>2019-06-23T09:26:24.096Z</time>
      </trkpt>
      <trkpt lat="42.92031" lon="0.18835">
        <ele>1572</ele>
        <time>2019-06-23T09:26:25.096Z</time>
      </trkpt>
      <trkpt lat="42.92032" lon="0.18835">
        <ele>1572</ele>
        <time>2019-06-23T09:26:26.096Z</time>
      </trkpt>
      <trkpt lat="42.92032" lon="0.18835">
        <ele>1571</ele>
        <time>2019-06-23T09:26:27.096Z</time>
      </trkpt>
      <trkpt lat="42.92033" lon="0.18835">
        <ele>1571</ele>
        <time>2019-06-23T09:26:28.096Z</time>
      </trkpt>
      <trkpt lat="42.92033" lon="0.18835">
        <ele>1571</ele>
        <time>2019-06-23T09:26:29.096Z</time>
      </trkpt>
      <trkpt lat="42.92034" lon="0.18835">
        <ele>1571</ele>
        <time>2019-06-23T09:26:30.096Z</time>
      </trkpt>
      <trkpt lat="42.92034" lon="0.18835">
        <ele>1571</ele>
        <time>2019-06-23T09:26:31.096Z</time>
      </trkpt>
      <trkpt lat="42.92035" lon="0.18836">
        <ele>1571</ele>
        <time>2019-06-23T09:26:32.096Z</time>
      </trkpt>
      <trkpt lat="42.92036" lon="0.18836">
        <ele>1571</ele>
        <time>2019-06-23T09:26:33.096Z</time>
      </trkpt>
      <trkpt lat="42.92036" lon="0.18836">
        <ele>1570</ele>
        <time>2019-06-23T09:26:34.096Z</time>
      </trkpt>
      <trkpt lat="42.92037" lon="0.18836">
        <ele>1570</ele>
        <time>2019-06-23T09:26:35.096Z</time>
      </trkpt>
      <trkpt lat="42.92038" lon="0.18837">
        <ele>1570</ele>
        <time>2019-06-23T09:26:36.096Z</time>
      </trkpt>
      <trkpt lat="42.92038" lon="0.18837">
        <ele>1570</ele>
        <time>2019-06-23T09:26:37.096Z</time>
      </trkpt>
      <trkpt lat="42.92039" lon="0.18838">
        <ele>1569</ele>
        <time>2019-06-23T09:26:38.096Z</time>
      </trkpt>
      <trkpt lat="42.92039" lon="0.18838">
        <ele>1569</ele>
        <time>2019-06-23T09:26:39.096Z</time>
      </trkpt>
      <trkpt lat="42.9204" lon="0.18838">
        <ele>1569</ele>
        <time>2019-06-23T09:26:40.096Z</time>
      </trkpt>
      <trkpt lat="42.9204" lon="0.18839">
        <ele>1568</ele>
        <time>2019-06-23T09:26:41.096Z</time>
      </trkpt>
      <trkpt lat="42.9204" lon="0.18839">
        <ele>1568</ele>
        <time>2019-06-23T09:26:42.096Z</time>
      </trkpt>
      <trkpt lat="42.92041" lon="0.1884">
        <ele>1568</ele>
        <time>2019-06-23T09:26:43.096Z</time>
      </trkpt>
      <trkpt lat="42.92041" lon="0.1884">
        <ele>1568</ele>
        <time>2019-06-23T09:26:44.096Z</time>
      </trkpt>
      <trkpt lat="42.92042" lon="0.18841">
        <ele>1568</ele>
        <time>2019-06-23T09:26:45.096Z</time>
      </trkpt>
      <trkpt lat="42.92042" lon="0.18841">
        <ele>1568</ele>
        <time>2019-06-23T09:26:46.096Z</time>
      </trkpt>
      <trkpt lat="42.92043" lon="0.18842">
        <ele>1568</ele>
        <time>2019-06-23T09:26:47.096Z</time>
      </trkpt>
      <trkpt lat="42.92043" lon="0.18842">
        <ele>1568</ele>
        <time>2019-06-23T09:26:48.096Z</time>
      </trkpt>
      <trkpt lat="42.92043" lon="0.18842">
        <ele>1568</ele>
        <time>2019-06-23T09:26:49.096Z</time>
      </trkpt>
      <trkpt lat="42.92044" lon="0.18843">
        <ele>1568</ele>
        <time>2019-06-23T09:26:50.096Z</time>
      </trkpt>
      <trkpt lat="42.92044" lon="0.18843">
        <ele>1568</ele>
        <time>2019-06-23T09:26:51.096Z</time>
      </trkpt>
      <trkpt lat="42.92045" lon="0.18843">
        <ele>1568</ele>
        <time>2019-06-23T09:26:52.096Z</time>
      </trkpt>
      <trkpt lat="42.92045" lon="0.18844">
        <ele>1568</ele>
        <time>2019-06-23T09:26:53.096Z</time>
      </trkpt>
      <trkpt lat="42.92046" lon="0.18844">
        <ele>1568</ele>
        <time>2019-06-23T09:26:54.096Z</time>
      </trkpt>
      <trkpt lat="42.92046" lon="0.18844">
        <ele>1569</ele>
        <time>2019-06-23T09:26:55.096Z</time>
      </trkpt>
      <trkpt lat="42.92046" lon="0.18844">
        <ele>1569</ele>
        <time>2019-06-23T09:26:56.096Z</time>
      </trkpt>
      <trkpt lat="42.92046" lon="0.18844">
        <ele>1569</ele>
        <time>2019-06-23T09:26:57.096Z</time>
      </trkpt>
      <trkpt lat="42.92046" lon="0.18843">
        <ele>1569</ele>
        <time>2019-06-23T09:26:58.096Z</time>
      </trkpt>
      <trkpt lat="42.92048" lon="0.18847">
        <ele>1567</ele>
        <time>2019-06-23T09:26:59.100Z</time>
      </trkpt>
      <trkpt lat="42.92049" lon="0.18848">
        <ele>1567</ele>
        <time>2019-06-23T09:27:00.100Z</time>
      </trkpt>
      <trkpt lat="42.92049" lon="0.18849">
        <ele>1567</ele>
        <time>2019-06-23T09:27:01.100Z</time>
      </trkpt>
      <trkpt lat="42.9205" lon="0.18849">
        <ele>1567</ele>
        <time>2019-06-23T09:27:02.100Z</time>
      </trkpt>
      <trkpt lat="42.92051" lon="0.1885">
        <ele>1567</ele>
        <time>2019-06-23T09:27:03.100Z</time>
      </trkpt>
      <trkpt lat="42.92051" lon="0.18851">
        <ele>1567</ele>
        <time>2019-06-23T09:27:04.100Z</time>
      </trkpt>
      <trkpt lat="42.92052" lon="0.18851">
        <ele>1567</ele>
        <time>2019-06-23T09:27:05.100Z</time>
      </trkpt>
      <trkpt lat="42.92053" lon="0.18852">
        <ele>1567</ele>
        <time>2019-06-23T09:27:06.100Z</time>
      </trkpt>
      <trkpt lat="42.92054" lon="0.18852">
        <ele>1567</ele>
        <time>2019-06-23T09:27:07.100Z</time>
      </trkpt>
      <trkpt lat="42.92054" lon="0.18853">
        <ele>1566</ele>
        <time>2019-06-23T09:27:08.100Z</time>
      </trkpt>
      <trkpt lat="42.92055" lon="0.18854">
        <ele>1566</ele>
        <time>2019-06-23T09:27:09.100Z</time>
      </trkpt>
      <trkpt lat="42.92056" lon="0.18855">
        <ele>1566</ele>
        <time>2019-06-23T09:27:10.100Z</time>
      </trkpt>
      <trkpt lat="42.92057" lon="0.18856">
        <ele>1566</ele>
        <time>2019-06-23T09:27:11.100Z</time>
      </trkpt>
      <trkpt lat="42.92057" lon="0.18857">
        <ele>1566</ele>
        <time>2019-06-23T09:27:12.100Z</time>
      </trkpt>
      <trkpt lat="42.92058" lon="0.18858">
        <ele>1566</ele>
        <time>2019-06-23T09:27:13.100Z</time>
      </trkpt>
      <trkpt lat="42.92059" lon="0.18859">
        <ele>1566</ele>
        <time>2019-06-23T09:27:14.100Z</time>
      </trkpt>
      <trkpt lat="42.9206" lon="0.18859">
        <ele>1566</ele>
        <time>2019-06-23T09:27:15.100Z</time>
      </trkpt>
      <trkpt lat="42.9206" lon="0.1886">
        <ele>1566</ele>
        <time>2019-06-23T09:27:16.100Z</time>
      </trkpt>
      <trkpt lat="42.92061" lon="0.18861">
        <ele>1565</ele>
        <time>2019-06-23T09:27:17.100Z</time>
      </trkpt>
      <trkpt lat="42.92062" lon="0.18861">
        <ele>1565</ele>
        <time>2019-06-23T09:27:18.100Z</time>
      </trkpt>
      <trkpt lat="42.92062" lon="0.18862">
        <ele>1565</ele>
        <time>2019-06-23T09:27:19.100Z</time>
      </trkpt>
      <trkpt lat="42.92063" lon="0.18863">
        <ele>1565</ele>
        <time>2019-06-23T09:27:20.100Z</time>
      </trkpt>
      <trkpt lat="42.92064" lon="0.18864">
        <ele>1565</ele>
        <time>2019-06-23T09:27:21.100Z</time>
      </trkpt>
      <trkpt lat="42.92064" lon="0.18864">
        <ele>1564</ele>
        <time>2019-06-23T09:27:22.100Z</time>
      </trkpt>
      <trkpt lat="42.92065" lon="0.18865">
        <ele>1564</ele>
        <time>2019-06-23T09:27:23.100Z</time>
      </trkpt>
      <trkpt lat="42.92066" lon="0.18866">
        <ele>1564</ele>
        <time>2019-06-23T09:27:24.100Z</time>
      </trkpt>
      <trkpt lat="42.92066" lon="0.18867">
        <ele>1565</ele>
        <time>2019-06-23T09:27:25.100Z</time>
      </trkpt>
      <trkpt lat="42.92067" lon="0.18868">
        <ele>1564</ele>
        <time>2019-06-23T09:27:26.100Z</time>
      </trkpt>
      <trkpt lat="42.92067" lon="0.18869">
        <ele>1564</ele>
        <time>2019-06-23T09:27:27.100Z</time>
      </trkpt>
      <trkpt lat="42.92067" lon="0.18869">
        <ele>1564</ele>
        <time>2019-06-23T09:27:28.100Z</time>
      </trkpt>
      <trkpt lat="42.92067" lon="0.1887">
        <ele>1564</ele>
        <time>2019-06-23T09:27:29.100Z</time>
      </trkpt>
      <trkpt lat="42.92068" lon="0.1887">
        <ele>1564</ele>
        <time>2019-06-23T09:27:30.100Z</time>
      </trkpt>
      <trkpt lat="42.92069" lon="0.18871">
        <ele>1564</ele>
        <time>2019-06-23T09:27:31.100Z</time>
      </trkpt>
      <trkpt lat="42.92069" lon="0.18872">
        <ele>1564</ele>
        <time>2019-06-23T09:27:32.100Z</time>
      </trkpt>
      <trkpt lat="42.9207" lon="0.18873">
        <ele>1563</ele>
        <time>2019-06-23T09:27:33.100Z</time>
      </trkpt>
      <trkpt lat="42.9207" lon="0.18873">
        <ele>1563</ele>
        <time>2019-06-23T09:27:34.100Z</time>
      </trkpt>
      <trkpt lat="42.92071" lon="0.18874">
        <ele>1563</ele>
        <time>2019-06-23T09:27:35.100Z</time>
      </trkpt>
      <trkpt lat="42.92071" lon="0.18875">
        <ele>1563</ele>
        <time>2019-06-23T09:27:36.100Z</time>
      </trkpt>
      <trkpt lat="42.92072" lon="0.18876">
        <ele>1563</ele>
        <time>2019-06-23T09:27:37.100Z</time>
      </trkpt>
      <trkpt lat="42.92072" lon="0.18876">
        <ele>1563</ele>
        <time>2019-06-23T09:27:38.100Z</time>
      </trkpt>
      <trkpt lat="42.92073" lon="0.18877">
        <ele>1563</ele>
        <time>2019-06-23T09:27:39.100Z</time>
      </trkpt>
      <trkpt lat="42.92073" lon="0.18878">
        <ele>1563</ele>
        <time>2019-06-23T09:27:40.100Z</time>
      </trkpt>
      <trkpt lat="42.92074" lon="0.18879">
        <ele>1563</ele>
        <time>2019-06-23T09:27:41.100Z</time>
      </trkpt>
      <trkpt lat="42.92074" lon="0.18879">
        <ele>1563</ele>
        <time>2019-06-23T09:27:42.100Z</time>
      </trkpt>
      <trkpt lat="42.92074" lon="0.1888">
        <ele>1563</ele>
        <time>2019-06-23T09:27:43.100Z</time>
      </trkpt>
      <trkpt lat="42.92075" lon="0.18881">
        <ele>1563</ele>
        <time>2019-06-23T09:27:44.100Z</time>
      </trkpt>
      <trkpt lat="42.92075" lon="0.18882">
        <ele>1563</ele>
        <time>2019-06-23T09:27:45.100Z</time>
      </trkpt>
      <trkpt lat="42.92075" lon="0.18882">
        <ele>1562</ele>
        <time>2019-06-23T09:27:46.100Z</time>
      </trkpt>
      <trkpt lat="42.92075" lon="0.18882">
        <ele>1562</ele>
        <time>2019-06-23T09:27:47.100Z</time>
      </trkpt>
      <trkpt lat="42.92075" lon="0.18882">
        <ele>1563</ele>
        <time>2019-06-23T09:27:48.100Z</time>
      </trkpt>
      <trkpt lat="42.92075" lon="0.18882">
        <ele>1563</ele>
        <time>2019-06-23T09:27:49.100Z</time>
      </trkpt>
      <trkpt lat="42.92075" lon="0.18882">
        <ele>1562</ele>
        <time>2019-06-23T09:27:50.100Z</time>
      </trkpt>
      <trkpt lat="42.92075" lon="0.18882">
        <ele>1563</ele>
        <time>2019-06-23T09:27:51.100Z</time>
      </trkpt>
      <trkpt lat="42.92079" lon="0.18883">
        <ele>1565</ele>
        <time>2019-06-23T09:27:52.115Z</time>
      </trkpt>
      <trkpt lat="42.92079" lon="0.18883">
        <ele>1565</ele>
        <time>2019-06-23T09:27:53.115Z</time>
      </trkpt>
      <trkpt lat="42.9208" lon="0.18884">
        <ele>1565</ele>
        <time>2019-06-23T09:27:54.115Z</time>
      </trkpt>
      <trkpt lat="42.9208" lon="0.18884">
        <ele>1564</ele>
        <time>2019-06-23T09:27:55.115Z</time>
      </trkpt>
      <trkpt lat="42.92081" lon="0.18885">
        <ele>1564</ele>
        <time>2019-06-23T09:27:56.115Z</time>
      </trkpt>
      <trkpt lat="42.92081" lon="0.18885">
        <ele>1564</ele>
        <time>2019-06-23T09:27:57.115Z</time>
      </trkpt>
      <trkpt lat="42.92081" lon="0.18885">
        <ele>1564</ele>
        <time>2019-06-23T09:27:58.115Z</time>
      </trkpt>
      <trkpt lat="42.92081" lon="0.18886">
        <ele>1564</ele>
        <time>2019-06-23T09:27:59.115Z</time>
      </trkpt>
      <trkpt lat="42.92082" lon="0.18886">
        <ele>1564</ele>
        <time>2019-06-23T09:28:00.115Z</time>
      </trkpt>
      <trkpt lat="42.92082" lon="0.18886">
        <ele>1564</ele>
        <time>2019-06-23T09:28:01.115Z</time>
      </trkpt>
      <trkpt lat="42.92082" lon="0.18887">
        <ele>1564</ele>
        <time>2019-06-23T09:28:02.115Z</time>
      </trkpt>
      <trkpt lat="42.92082" lon="0.18887">
        <ele>1564</ele>
        <time>2019-06-23T09:28:03.115Z</time>
      </trkpt>
      <trkpt lat="42.92083" lon="0.18887">
        <ele>1564</ele>
        <time>2019-06-23T09:28:04.115Z</time>
      </trkpt>
      <trkpt lat="42.92083" lon="0.18888">
        <ele>1564</ele>
        <time>2019-06-23T09:28:05.115Z</time>
      </trkpt>
      <trkpt lat="42.92084" lon="0.18888">
        <ele>1564</ele>
        <time>2019-06-23T09:28:06.115Z</time>
      </trkpt>
      <trkpt lat="42.92084" lon="0.18889">
        <ele>1564</ele>
        <time>2019-06-23T09:28:07.115Z</time>
      </trkpt>
      <trkpt lat="42.92085" lon="0.18889">
        <ele>1563</ele>
        <time>2019-06-23T09:28:08.115Z</time>
      </trkpt>
      <trkpt lat="42.92084" lon="0.1889">
        <ele>1563</ele>
        <time>2019-06-23T09:28:09.115Z</time>
      </trkpt>
      <trkpt lat="42.92084" lon="0.1889">
        <ele>1563</ele>
        <time>2019-06-23T09:28:10.115Z</time>
      </trkpt>
      <trkpt lat="42.92084" lon="0.1889">
        <ele>1563</ele>
        <time>2019-06-23T09:28:11.115Z</time>
      </trkpt>
      <trkpt lat="42.92085" lon="0.1889">
        <ele>1563</ele>
        <time>2019-06-23T09:28:12.115Z</time>
      </trkpt>
      <trkpt lat="42.92085" lon="0.1889">
        <ele>1563</ele>
        <time>2019-06-23T09:28:13.115Z</time>
      </trkpt>
      <trkpt lat="42.92085" lon="0.18891">
        <ele>1563</ele>
        <time>2019-06-23T09:28:14.115Z</time>
      </trkpt>
      <trkpt lat="42.92086" lon="0.18891">
        <ele>1563</ele>
        <time>2019-06-23T09:28:15.115Z</time>
      </trkpt>
      <trkpt lat="42.92086" lon="0.18892">
        <ele>1563</ele>
        <time>2019-06-23T09:28:16.115Z</time>
      </trkpt>
      <trkpt lat="42.92086" lon="0.18892">
        <ele>1563</ele>
        <time>2019-06-23T09:28:17.115Z</time>
      </trkpt>
      <trkpt lat="42.92086" lon="0.18893">
        <ele>1563</ele>
        <time>2019-06-23T09:28:18.115Z</time>
      </trkpt>
      <trkpt lat="42.92087" lon="0.18893">
        <ele>1563</ele>
        <time>2019-06-23T09:28:19.115Z</time>
      </trkpt>
      <trkpt lat="42.92087" lon="0.18893">
        <ele>1563</ele>
        <time>2019-06-23T09:28:20.115Z</time>
      </trkpt>
      <trkpt lat="42.92087" lon="0.18893">
        <ele>1563</ele>
        <time>2019-06-23T09:28:21.115Z</time>
      </trkpt>
      <trkpt lat="42.92087" lon="0.18893">
        <ele>1563</ele>
        <time>2019-06-23T09:28:22.115Z</time>
      </trkpt>
      <trkpt lat="42.92087" lon="0.18892">
        <ele>1562</ele>
        <time>2019-06-23T09:28:23.115Z</time>
      </trkpt>
      <trkpt lat="42.92091" lon="0.18891">
        <ele>1562</ele>
        <time>2019-06-23T09:28:24.005Z</time>
      </trkpt>
      <trkpt lat="42.92091" lon="0.18891">
        <ele>1562</ele>
        <time>2019-06-23T09:28:25.005Z</time>
      </trkpt>
      <trkpt lat="42.92092" lon="0.18891">
        <ele>1562</ele>
        <time>2019-06-23T09:28:26.005Z</time>
      </trkpt>
      <trkpt lat="42.92093" lon="0.18891">
        <ele>1562</ele>
        <time>2019-06-23T09:28:27.005Z</time>
      </trkpt>
      <trkpt lat="42.92094" lon="0.18891">
        <ele>1563</ele>
        <time>2019-06-23T09:28:28.005Z</time>
      </trkpt>
      <trkpt lat="42.92095" lon="0.18891">
        <ele>1563</ele>
        <time>2019-06-23T09:28:29.005Z</time>
      </trkpt>
      <trkpt lat="42.92095" lon="0.18891">
        <ele>1563</ele>
        <time>2019-06-23T09:28:30.005Z</time>
      </trkpt>
      <trkpt lat="42.92096" lon="0.18891">
        <ele>1563</ele>
        <time>2019-06-23T09:28:31.005Z</time>
      </trkpt>
      <trkpt lat="42.92097" lon="0.18892">
        <ele>1563</ele>
        <time>2019-06-23T09:28:32.005Z</time>
      </trkpt>
      <trkpt lat="42.92097" lon="0.18892">
        <ele>1563</ele>
        <time>2019-06-23T09:28:33.005Z</time>
      </trkpt>
      <trkpt lat="42.92098" lon="0.18893">
        <ele>1563</ele>
        <time>2019-06-23T09:28:34.005Z</time>
      </trkpt>
      <trkpt lat="42.92098" lon="0.18893">
        <ele>1563</ele>
        <time>2019-06-23T09:28:35.005Z</time>
      </trkpt>
      <trkpt lat="42.92099" lon="0.18893">
        <ele>1563</ele>
        <time>2019-06-23T09:28:36.005Z</time>
      </trkpt>
      <trkpt lat="42.92099" lon="0.18892">
        <ele>1563</ele>
        <time>2019-06-23T09:28:37.005Z</time>
      </trkpt>
      <trkpt lat="42.921" lon="0.18892">
        <ele>1563</ele>
        <time>2019-06-23T09:28:38.005Z</time>
      </trkpt>
      <trkpt lat="42.921" lon="0.18892">
        <ele>1564</ele>
        <time>2019-06-23T09:28:39.005Z</time>
      </trkpt>
      <trkpt lat="42.92099" lon="0.18893">
        <ele>1564</ele>
        <time>2019-06-23T09:28:40.005Z</time>
      </trkpt>
      <trkpt lat="42.92099" lon="0.18891">
        <ele>1564</ele>
        <time>2019-06-23T09:28:41.013Z</time>
      </trkpt>
      <trkpt lat="42.92099" lon="0.18891">
        <ele>1564</ele>
        <time>2019-06-23T09:28:42.013Z</time>
      </trkpt>
      <trkpt lat="42.92099" lon="0.18891">
        <ele>1564</ele>
        <time>2019-06-23T09:28:43.013Z</time>
      </trkpt>
      <trkpt lat="42.92098" lon="0.1889">
        <ele>1564</ele>
        <time>2019-06-23T09:28:44.013Z</time>
      </trkpt>
      <trkpt lat="42.92098" lon="0.1889">
        <ele>1562</ele>
        <time>2019-06-23T09:28:45.013Z</time>
      </trkpt>
      <trkpt lat="42.921" lon="0.18892">
        <ele>1563</ele>
        <time>2019-06-23T09:28:46.021Z</time>
      </trkpt>
      <trkpt lat="42.921" lon="0.18892">
        <ele>1563</ele>
        <time>2019-06-23T09:28:47.021Z</time>
      </trkpt>
      <trkpt lat="42.921" lon="0.18892">
        <ele>1563</ele>
        <time>2019-06-23T09:28:48.021Z</time>
      </trkpt>
      <trkpt lat="42.92101" lon="0.18892">
        <ele>1563</ele>
        <time>2019-06-23T09:28:49.021Z</time>
      </trkpt>
      <trkpt lat="42.92101" lon="0.18892">
        <ele>1562</ele>
        <time>2019-06-23T09:28:50.021Z</time>
      </trkpt>
      <trkpt lat="42.92101" lon="0.18892">
        <ele>1562</ele>
        <time>2019-06-23T09:28:51.021Z</time>
      </trkpt>
      <trkpt lat="42.92102" lon="0.18892">
        <ele>1562</ele>
        <time>2019-06-23T09:28:52.021Z</time>
      </trkpt>
      <trkpt lat="42.92102" lon="0.18892">
        <ele>1562</ele>
        <time>2019-06-23T09:28:53.021Z</time>
      </trkpt>
      <trkpt lat="42.92102" lon="0.18892">
        <ele>1562</ele>
        <time>2019-06-23T09:28:54.021Z</time>
      </trkpt>
      <trkpt lat="42.92102" lon="0.18892">
        <ele>1562</ele>
        <time>2019-06-23T09:28:55.021Z</time>
      </trkpt>
      <trkpt lat="42.92102" lon="0.18892">
        <ele>1562</ele>
        <time>2019-06-23T09:28:56.021Z</time>
      </trkpt>
      <trkpt lat="42.92102" lon="0.18892">
        <ele>1562</ele>
        <time>2019-06-23T09:28:57.021Z</time>
      </trkpt>
      <trkpt lat="42.92106" lon="0.18892">
        <ele>1562</ele>
        <time>2019-06-23T09:28:58.032Z</time>
      </trkpt>
      <trkpt lat="42.92107" lon="0.18892">
        <ele>1562</ele>
        <time>2019-06-23T09:28:59.032Z</time>
      </trkpt>
      <trkpt lat="42.92107" lon="0.18892">
        <ele>1562</ele>
        <time>2019-06-23T09:29:00.032Z</time>
      </trkpt>
      <trkpt lat="42.92108" lon="0.18891">
        <ele>1561</ele>
        <time>2019-06-23T09:29:01.032Z</time>
      </trkpt>
      <trkpt lat="42.92108" lon="0.1889">
        <ele>1561</ele>
        <time>2019-06-23T09:29:02.032Z</time>
      </trkpt>
      <trkpt lat="42.92109" lon="0.1889">
        <ele>1560</ele>
        <time>2019-06-23T09:29:03.032Z</time>
      </trkpt>
      <trkpt lat="42.92109" lon="0.1889">
        <ele>1560</ele>
        <time>2019-06-23T09:29:04.032Z</time>
      </trkpt>
      <trkpt lat="42.9211" lon="0.18889">
        <ele>1560</ele>
        <time>2019-06-23T09:29:05.032Z</time>
      </trkpt>
      <trkpt lat="42.92111" lon="0.18889">
        <ele>1560</ele>
        <time>2019-06-23T09:29:06.032Z</time>
      </trkpt>
      <trkpt lat="42.92111" lon="0.18889">
        <ele>1559</ele>
        <time>2019-06-23T09:29:07.032Z</time>
      </trkpt>
      <trkpt lat="42.92112" lon="0.18888">
        <ele>1559</ele>
        <time>2019-06-23T09:29:08.032Z</time>
      </trkpt>
      <trkpt lat="42.92113" lon="0.18889">
        <ele>1559</ele>
        <time>2019-06-23T09:29:09.032Z</time>
      </trkpt>
      <trkpt lat="42.92113" lon="0.18889">
        <ele>1559</ele>
        <time>2019-06-23T09:29:10.032Z</time>
      </trkpt>
      <trkpt lat="42.92114" lon="0.18889">
        <ele>1559</ele>
        <time>2019-06-23T09:29:11.032Z</time>
      </trkpt>
      <trkpt lat="42.92115" lon="0.18889">
        <ele>1559</ele>
        <time>2019-06-23T09:29:12.032Z</time>
      </trkpt>
      <trkpt lat="42.92115" lon="0.18889">
        <ele>1558</ele>
        <time>2019-06-23T09:29:13.032Z</time>
      </trkpt>
      <trkpt lat="42.92116" lon="0.18889">
        <ele>1559</ele>
        <time>2019-06-23T09:29:14.032Z</time>
      </trkpt>
      <trkpt lat="42.92117" lon="0.18889">
        <ele>1558</ele>
        <time>2019-06-23T09:29:15.032Z</time>
      </trkpt>
      <trkpt lat="42.92117" lon="0.18888">
        <ele>1558</ele>
        <time>2019-06-23T09:29:16.032Z</time>
      </trkpt>
      <trkpt lat="42.92118" lon="0.18888">
        <ele>1558</ele>
        <time>2019-06-23T09:29:17.032Z</time>
      </trkpt>
      <trkpt lat="42.92119" lon="0.18888">
        <ele>1558</ele>
        <time>2019-06-23T09:29:18.032Z</time>
      </trkpt>
      <trkpt lat="42.92119" lon="0.18888">
        <ele>1557</ele>
        <time>2019-06-23T09:29:19.032Z</time>
      </trkpt>
      <trkpt lat="42.9212" lon="0.18888">
        <ele>1558</ele>
        <time>2019-06-23T09:29:20.032Z</time>
      </trkpt>
      <trkpt lat="42.9212" lon="0.18889">
        <ele>1557</ele>
        <time>2019-06-23T09:29:21.032Z</time>
      </trkpt>
      <trkpt lat="42.92121" lon="0.18889">
        <ele>1557</ele>
        <time>2019-06-23T09:29:22.032Z</time>
      </trkpt>
      <trkpt lat="42.92121" lon="0.18889">
        <ele>1557</ele>
        <time>2019-06-23T09:29:23.032Z</time>
      </trkpt>
      <trkpt lat="42.92121" lon="0.18889">
        <ele>1557</ele>
        <time>2019-06-23T09:29:24.032Z</time>
      </trkpt>
      <trkpt lat="42.92122" lon="0.18889">
        <ele>1557</ele>
        <time>2019-06-23T09:29:25.032Z</time>
      </trkpt>
      <trkpt lat="42.92122" lon="0.1889">
        <ele>1557</ele>
        <time>2019-06-23T09:29:26.032Z</time>
      </trkpt>
      <trkpt lat="42.92123" lon="0.1889">
        <ele>1556</ele>
        <time>2019-06-23T09:29:27.032Z</time>
      </trkpt>
      <trkpt lat="42.92123" lon="0.1889">
        <ele>1556</ele>
        <time>2019-06-23T09:29:28.032Z</time>
      </trkpt>
      <trkpt lat="42.92124" lon="0.1889">
        <ele>1556</ele>
        <time>2019-06-23T09:29:29.032Z</time>
      </trkpt>
      <trkpt lat="42.92125" lon="0.18889">
        <ele>1556</ele>
        <time>2019-06-23T09:29:30.032Z</time>
      </trkpt>
      <trkpt lat="42.92125" lon="0.18889">
        <ele>1556</ele>
        <time>2019-06-23T09:29:31.032Z</time>
      </trkpt>
      <trkpt lat="42.92126" lon="0.18889">
        <ele>1556</ele>
        <time>2019-06-23T09:29:32.032Z</time>
      </trkpt>
      <trkpt lat="42.92126" lon="0.18889">
        <ele>1556</ele>
        <time>2019-06-23T09:29:33.032Z</time>
      </trkpt>
      <trkpt lat="42.92127" lon="0.18889">
        <ele>1556</ele>
        <time>2019-06-23T09:29:34.032Z</time>
      </trkpt>
      <trkpt lat="42.92127" lon="0.18889">
        <ele>1556</ele>
        <time>2019-06-23T09:29:35.032Z</time>
      </trkpt>
      <trkpt lat="42.92128" lon="0.18889">
        <ele>1556</ele>
        <time>2019-06-23T09:29:36.032Z</time>
      </trkpt>
      <trkpt lat="42.92129" lon="0.18889">
        <ele>1555</ele>
        <time>2019-06-23T09:29:37.032Z</time>
      </trkpt>
      <trkpt lat="42.92129" lon="0.18889">
        <ele>1555</ele>
        <time>2019-06-23T09:29:38.032Z</time>
      </trkpt>
      <trkpt lat="42.9213" lon="0.18889">
        <ele>1555</ele>
        <time>2019-06-23T09:29:39.032Z</time>
      </trkpt>
      <trkpt lat="42.92131" lon="0.18889">
        <ele>1555</ele>
        <time>2019-06-23T09:29:40.032Z</time>
      </trkpt>
      <trkpt lat="42.92131" lon="0.18889">
        <ele>1555</ele>
        <time>2019-06-23T09:29:41.032Z</time>
      </trkpt>
      <trkpt lat="42.92132" lon="0.18889">
        <ele>1555</ele>
        <time>2019-06-23T09:29:42.032Z</time>
      </trkpt>
      <trkpt lat="42.92133" lon="0.18889">
        <ele>1555</ele>
        <time>2019-06-23T09:29:43.032Z</time>
      </trkpt>
      <trkpt lat="42.92134" lon="0.1889">
        <ele>1555</ele>
        <time>2019-06-23T09:29:44.032Z</time>
      </trkpt>
      <trkpt lat="42.92134" lon="0.1889">
        <ele>1555</ele>
        <time>2019-06-23T09:29:45.032Z</time>
      </trkpt>
      <trkpt lat="42.92135" lon="0.1889">
        <ele>1554</ele>
        <time>2019-06-23T09:29:46.032Z</time>
      </trkpt>
      <trkpt lat="42.92136" lon="0.1889">
        <ele>1554</ele>
        <time>2019-06-23T09:29:47.032Z</time>
      </trkpt>
      <trkpt lat="42.92136" lon="0.18891">
        <ele>1554</ele>
        <time>2019-06-23T09:29:48.032Z</time>
      </trkpt>
      <trkpt lat="42.92137" lon="0.18891">
        <ele>1554</ele>
        <time>2019-06-23T09:29:49.032Z</time>
      </trkpt>
      <trkpt lat="42.92138" lon="0.18892">
        <ele>1554</ele>
        <time>2019-06-23T09:29:50.032Z</time>
      </trkpt>
      <trkpt lat="42.92139" lon="0.18892">
        <ele>1554</ele>
        <time>2019-06-23T09:29:51.032Z</time>
      </trkpt>
      <trkpt lat="42.9214" lon="0.18892">
        <ele>1554</ele>
        <time>2019-06-23T09:29:52.032Z</time>
      </trkpt>
      <trkpt lat="42.92141" lon="0.18892">
        <ele>1554</ele>
        <time>2019-06-23T09:29:53.032Z</time>
      </trkpt>
      <trkpt lat="42.92141" lon="0.18892">
        <ele>1554</ele>
        <time>2019-06-23T09:29:54.032Z</time>
      </trkpt>
      <trkpt lat="42.92142" lon="0.18893">
        <ele>1554</ele>
        <time>2019-06-23T09:29:55.032Z</time>
      </trkpt>
      <trkpt lat="42.92143" lon="0.18893">
        <ele>1554</ele>
        <time>2019-06-23T09:29:56.032Z</time>
      </trkpt>
      <trkpt lat="42.92144" lon="0.18893">
        <ele>1554</ele>
        <time>2019-06-23T09:29:57.032Z</time>
      </trkpt>
      <trkpt lat="42.92145" lon="0.18894">
        <ele>1554</ele>
        <time>2019-06-23T09:29:58.032Z</time>
      </trkpt>
      <trkpt lat="42.92145" lon="0.18894">
        <ele>1553</ele>
        <time>2019-06-23T09:29:59.032Z</time>
      </trkpt>
      <trkpt lat="42.92146" lon="0.18894">
        <ele>1553</ele>
        <time>2019-06-23T09:30:00.032Z</time>
      </trkpt>
      <trkpt lat="42.92147" lon="0.18894">
        <ele>1553</ele>
        <time>2019-06-23T09:30:01.032Z</time>
      </trkpt>
      <trkpt lat="42.92148" lon="0.18894">
        <ele>1553</ele>
        <time>2019-06-23T09:30:02.032Z</time>
      </trkpt>
      <trkpt lat="42.92149" lon="0.18894">
        <ele>1553</ele>
        <time>2019-06-23T09:30:03.032Z</time>
      </trkpt>
      <trkpt lat="42.92149" lon="0.18894">
        <ele>1553</ele>
        <time>2019-06-23T09:30:04.032Z</time>
      </trkpt>
      <trkpt lat="42.9215" lon="0.18894">
        <ele>1553</ele>
        <time>2019-06-23T09:30:05.032Z</time>
      </trkpt>
      <trkpt lat="42.92151" lon="0.18895">
        <ele>1553</ele>
        <time>2019-06-23T09:30:06.032Z</time>
      </trkpt>
      <trkpt lat="42.92151" lon="0.18895">
        <ele>1553</ele>
        <time>2019-06-23T09:30:07.032Z</time>
      </trkpt>
      <trkpt lat="42.92152" lon="0.18895">
        <ele>1553</ele>
        <time>2019-06-23T09:30:08.032Z</time>
      </trkpt>
      <trkpt lat="42.92153" lon="0.18896">
        <ele>1553</ele>
        <time>2019-06-23T09:30:09.032Z</time>
      </trkpt>
      <trkpt lat="42.92153" lon="0.18896">
        <ele>1553</ele>
        <time>2019-06-23T09:30:10.032Z</time>
      </trkpt>
      <trkpt lat="42.92154" lon="0.18896">
        <ele>1552</ele>
        <time>2019-06-23T09:30:11.032Z</time>
      </trkpt>
      <trkpt lat="42.92155" lon="0.18896">
        <ele>1552</ele>
        <time>2019-06-23T09:30:12.032Z</time>
      </trkpt>
      <trkpt lat="42.92156" lon="0.18896">
        <ele>1552</ele>
        <time>2019-06-23T09:30:13.032Z</time>
      </trkpt>
      <trkpt lat="42.92156" lon="0.18896">
        <ele>1552</ele>
        <time>2019-06-23T09:30:14.032Z</time>
      </trkpt>
      <trkpt lat="42.92157" lon="0.18896">
        <ele>1552</ele>
        <time>2019-06-23T09:30:15.032Z</time>
      </trkpt>
      <trkpt lat="42.92158" lon="0.18896">
        <ele>1552</ele>
        <time>2019-06-23T09:30:16.032Z</time>
      </trkpt>
      <trkpt lat="42.92159" lon="0.18896">
        <ele>1552</ele>
        <time>2019-06-23T09:30:17.032Z</time>
      </trkpt>
      <trkpt lat="42.9216" lon="0.18896">
        <ele>1551</ele>
        <time>2019-06-23T09:30:18.032Z</time>
      </trkpt>
      <trkpt lat="42.9216" lon="0.18897">
        <ele>1551</ele>
        <time>2019-06-23T09:30:19.032Z</time>
      </trkpt>
      <trkpt lat="42.92161" lon="0.18897">
        <ele>1551</ele>
        <time>2019-06-23T09:30:20.032Z</time>
      </trkpt>
      <trkpt lat="42.92162" lon="0.18898">
        <ele>1551</ele>
        <time>2019-06-23T09:30:21.032Z</time>
      </trkpt>
      <trkpt lat="42.92162" lon="0.18898">
        <ele>1551</ele>
        <time>2019-06-23T09:30:22.032Z</time>
      </trkpt>
      <trkpt lat="42.92163" lon="0.18898">
        <ele>1551</ele>
        <time>2019-06-23T09:30:23.032Z</time>
      </trkpt>
      <trkpt lat="42.92164" lon="0.18899">
        <ele>1550</ele>
        <time>2019-06-23T09:30:24.032Z</time>
      </trkpt>
      <trkpt lat="42.92165" lon="0.189">
        <ele>1550</ele>
        <time>2019-06-23T09:30:25.032Z</time>
      </trkpt>
      <trkpt lat="42.92166" lon="0.189">
        <ele>1551</ele>
        <time>2019-06-23T09:30:26.032Z</time>
      </trkpt>
      <trkpt lat="42.92166" lon="0.18901">
        <ele>1551</ele>
        <time>2019-06-23T09:30:27.032Z</time>
      </trkpt>
      <trkpt lat="42.92167" lon="0.18901">
        <ele>1551</ele>
        <time>2019-06-23T09:30:28.032Z</time>
      </trkpt>
      <trkpt lat="42.92168" lon="0.18902">
        <ele>1551</ele>
        <time>2019-06-23T09:30:29.032Z</time>
      </trkpt>
      <trkpt lat="42.92169" lon="0.18903">
        <ele>1551</ele>
        <time>2019-06-23T09:30:30.032Z</time>
      </trkpt>
      <trkpt lat="42.92169" lon="0.18903">
        <ele>1551</ele>
        <time>2019-06-23T09:30:31.032Z</time>
      </trkpt>
      <trkpt lat="42.9217" lon="0.18904">
        <ele>1551</ele>
        <time>2019-06-23T09:30:32.032Z</time>
      </trkpt>
      <trkpt lat="42.92171" lon="0.18904">
        <ele>1551</ele>
        <time>2019-06-23T09:30:33.032Z</time>
      </trkpt>
      <trkpt lat="42.92171" lon="0.18905">
        <ele>1551</ele>
        <time>2019-06-23T09:30:34.032Z</time>
      </trkpt>
      <trkpt lat="42.92172" lon="0.18905">
        <ele>1550</ele>
        <time>2019-06-23T09:30:35.032Z</time>
      </trkpt>
      <trkpt lat="42.92172" lon="0.18905">
        <ele>1550</ele>
        <time>2019-06-23T09:30:36.032Z</time>
      </trkpt>
      <trkpt lat="42.92173" lon="0.18906">
        <ele>1551</ele>
        <time>2019-06-23T09:30:37.032Z</time>
      </trkpt>
      <trkpt lat="42.92174" lon="0.18906">
        <ele>1550</ele>
        <time>2019-06-23T09:30:38.032Z</time>
      </trkpt>
      <trkpt lat="42.92174" lon="0.18906">
        <ele>1550</ele>
        <time>2019-06-23T09:30:39.032Z</time>
      </trkpt>
      <trkpt lat="42.92175" lon="0.18906">
        <ele>1550</ele>
        <time>2019-06-23T09:30:40.032Z</time>
      </trkpt>
      <trkpt lat="42.92175" lon="0.18906">
        <ele>1551</ele>
        <time>2019-06-23T09:30:41.032Z</time>
      </trkpt>
      <trkpt lat="42.92175" lon="0.18906">
        <ele>1550</ele>
        <time>2019-06-23T09:30:42.032Z</time>
      </trkpt>
      <trkpt lat="42.92175" lon="0.18906">
        <ele>1550</ele>
        <time>2019-06-23T09:30:43.032Z</time>
      </trkpt>
      <trkpt lat="42.92176" lon="0.18907">
        <ele>1550</ele>
        <time>2019-06-23T09:30:44.032Z</time>
      </trkpt>
      <trkpt lat="42.92176" lon="0.18907">
        <ele>1550</ele>
        <time>2019-06-23T09:30:45.032Z</time>
      </trkpt>
      <trkpt lat="42.92177" lon="0.18907">
        <ele>1550</ele>
        <time>2019-06-23T09:30:46.032Z</time>
      </trkpt>
      <trkpt lat="42.92178" lon="0.18908">
        <ele>1550</ele>
        <time>2019-06-23T09:30:47.032Z</time>
      </trkpt>
      <trkpt lat="42.92178" lon="0.18909">
        <ele>1550</ele>
        <time>2019-06-23T09:30:48.032Z</time>
      </trkpt>
      <trkpt lat="42.92179" lon="0.18909">
        <ele>1550</ele>
        <time>2019-06-23T09:30:49.032Z</time>
      </trkpt>
      <trkpt lat="42.92179" lon="0.18909">
        <ele>1550</ele>
        <time>2019-06-23T09:30:50.032Z</time>
      </trkpt>
      <trkpt lat="42.9218" lon="0.1891">
        <ele>1550</ele>
        <time>2019-06-23T09:30:51.032Z</time>
      </trkpt>
      <trkpt lat="42.9218" lon="0.1891">
        <ele>1550</ele>
        <time>2019-06-23T09:30:52.032Z</time>
      </trkpt>
      <trkpt lat="42.92181" lon="0.18911">
        <ele>1550</ele>
        <time>2019-06-23T09:30:53.032Z</time>
      </trkpt>
      <trkpt lat="42.92182" lon="0.18911">
        <ele>1550</ele>
        <time>2019-06-23T09:30:54.032Z</time>
      </trkpt>
      <trkpt lat="42.92182" lon="0.18912">
        <ele>1549</ele>
        <time>2019-06-23T09:30:55.032Z</time>
      </trkpt>
      <trkpt lat="42.92183" lon="0.18913">
        <ele>1549</ele>
        <time>2019-06-23T09:30:56.032Z</time>
      </trkpt>
      <trkpt lat="42.92183" lon="0.18914">
        <ele>1549</ele>
        <time>2019-06-23T09:30:57.032Z</time>
      </trkpt>
      <trkpt lat="42.92184" lon="0.18914">
        <ele>1549</ele>
        <time>2019-06-23T09:30:58.032Z</time>
      </trkpt>
      <trkpt lat="42.92185" lon="0.18915">
        <ele>1550</ele>
        <time>2019-06-23T09:30:59.032Z</time>
      </trkpt>
      <trkpt lat="42.92185" lon="0.18916">
        <ele>1549</ele>
        <time>2019-06-23T09:31:00.032Z</time>
      </trkpt>
      <trkpt lat="42.92186" lon="0.18916">
        <ele>1549</ele>
        <time>2019-06-23T09:31:01.032Z</time>
      </trkpt>
      <trkpt lat="42.92186" lon="0.18917">
        <ele>1549</ele>
        <time>2019-06-23T09:31:02.032Z</time>
      </trkpt>
      <trkpt lat="42.92186" lon="0.18917">
        <ele>1548</ele>
        <time>2019-06-23T09:31:03.032Z</time>
      </trkpt>
      <trkpt lat="42.92187" lon="0.18918">
        <ele>1548</ele>
        <time>2019-06-23T09:31:04.032Z</time>
      </trkpt>
      <trkpt lat="42.92187" lon="0.18918">
        <ele>1548</ele>
        <time>2019-06-23T09:31:05.032Z</time>
      </trkpt>
      <trkpt lat="42.92188" lon="0.18918">
        <ele>1548</ele>
        <time>2019-06-23T09:31:06.032Z</time>
      </trkpt>
      <trkpt lat="42.92188" lon="0.18919">
        <ele>1548</ele>
        <time>2019-06-23T09:31:07.032Z</time>
      </trkpt>
      <trkpt lat="42.92189" lon="0.18919">
        <ele>1547</ele>
        <time>2019-06-23T09:31:08.032Z</time>
      </trkpt>
      <trkpt lat="42.92189" lon="0.1892">
        <ele>1547</ele>
        <time>2019-06-23T09:31:09.032Z</time>
      </trkpt>
      <trkpt lat="42.92189" lon="0.18921">
        <ele>1547</ele>
        <time>2019-06-23T09:31:10.032Z</time>
      </trkpt>
      <trkpt lat="42.9219" lon="0.18921">
        <ele>1547</ele>
        <time>2019-06-23T09:31:11.032Z</time>
      </trkpt>
      <trkpt lat="42.9219" lon="0.18922">
        <ele>1547</ele>
        <time>2019-06-23T09:31:12.032Z</time>
      </trkpt>
      <trkpt lat="42.92191" lon="0.18922">
        <ele>1547</ele>
        <time>2019-06-23T09:31:13.032Z</time>
      </trkpt>
      <trkpt lat="42.92191" lon="0.18923">
        <ele>1547</ele>
        <time>2019-06-23T09:31:14.032Z</time>
      </trkpt>
      <trkpt lat="42.92192" lon="0.18924">
        <ele>1547</ele>
        <time>2019-06-23T09:31:15.032Z</time>
      </trkpt>
      <trkpt lat="42.92192" lon="0.18925">
        <ele>1546</ele>
        <time>2019-06-23T09:31:16.032Z</time>
      </trkpt>
      <trkpt lat="42.92193" lon="0.18925">
        <ele>1546</ele>
        <time>2019-06-23T09:31:17.032Z</time>
      </trkpt>
      <trkpt lat="42.92193" lon="0.18926">
        <ele>1546</ele>
        <time>2019-06-23T09:31:18.032Z</time>
      </trkpt>
      <trkpt lat="42.92194" lon="0.18927">
        <ele>1546</ele>
        <time>2019-06-23T09:31:19.032Z</time>
      </trkpt>
      <trkpt lat="42.92194" lon="0.18927">
        <ele>1546</ele>
        <time>2019-06-23T09:31:20.032Z</time>
      </trkpt>
      <trkpt lat="42.92195" lon="0.18927">
        <ele>1546</ele>
        <time>2019-06-23T09:31:21.032Z</time>
      </trkpt>
      <trkpt lat="42.92195" lon="0.18928">
        <ele>1546</ele>
        <time>2019-06-23T09:31:22.032Z</time>
      </trkpt>
      <trkpt lat="42.92196" lon="0.18928">
        <ele>1545</ele>
        <time>2019-06-23T09:31:23.032Z</time>
      </trkpt>
      <trkpt lat="42.92196" lon="0.18929">
        <ele>1545</ele>
        <time>2019-06-23T09:31:24.032Z</time>
      </trkpt>
      <trkpt lat="42.92197" lon="0.18929">
        <ele>1544</ele>
        <time>2019-06-23T09:31:25.032Z</time>
      </trkpt>
      <trkpt lat="42.92197" lon="0.1893">
        <ele>1544</ele>
        <time>2019-06-23T09:31:26.032Z</time>
      </trkpt>
      <trkpt lat="42.92198" lon="0.1893">
        <ele>1544</ele>
        <time>2019-06-23T09:31:27.032Z</time>
      </trkpt>
      <trkpt lat="42.92198" lon="0.18931">
        <ele>1544</ele>
        <time>2019-06-23T09:31:28.032Z</time>
      </trkpt>
      <trkpt lat="42.92199" lon="0.18932">
        <ele>1544</ele>
        <time>2019-06-23T09:31:29.032Z</time>
      </trkpt>
      <trkpt lat="42.92199" lon="0.18933">
        <ele>1544</ele>
        <time>2019-06-23T09:31:30.032Z</time>
      </trkpt>
      <trkpt lat="42.922" lon="0.18934">
        <ele>1544</ele>
        <time>2019-06-23T09:31:31.032Z</time>
      </trkpt>
      <trkpt lat="42.922" lon="0.18934">
        <ele>1543</ele>
        <time>2019-06-23T09:31:32.032Z</time>
      </trkpt>
      <trkpt lat="42.92201" lon="0.18935">
        <ele>1543</ele>
        <time>2019-06-23T09:31:33.032Z</time>
      </trkpt>
      <trkpt lat="42.92201" lon="0.18936">
        <ele>1543</ele>
        <time>2019-06-23T09:31:34.032Z</time>
      </trkpt>
      <trkpt lat="42.92201" lon="0.18937">
        <ele>1543</ele>
        <time>2019-06-23T09:31:35.032Z</time>
      </trkpt>
      <trkpt lat="42.92202" lon="0.18938">
        <ele>1543</ele>
        <time>2019-06-23T09:31:36.032Z</time>
      </trkpt>
      <trkpt lat="42.92202" lon="0.18939">
        <ele>1543</ele>
        <time>2019-06-23T09:31:37.032Z</time>
      </trkpt>
      <trkpt lat="42.92202" lon="0.1894">
        <ele>1542</ele>
        <time>2019-06-23T09:31:38.032Z</time>
      </trkpt>
      <trkpt lat="42.92203" lon="0.18941">
        <ele>1542</ele>
        <time>2019-06-23T09:31:39.032Z</time>
      </trkpt>
      <trkpt lat="42.92203" lon="0.18941">
        <ele>1542</ele>
        <time>2019-06-23T09:31:40.032Z</time>
      </trkpt>
      <trkpt lat="42.92204" lon="0.18942">
        <ele>1542</ele>
        <time>2019-06-23T09:31:41.032Z</time>
      </trkpt>
      <trkpt lat="42.92204" lon="0.18943">
        <ele>1541</ele>
        <time>2019-06-23T09:31:42.032Z</time>
      </trkpt>
      <trkpt lat="42.92205" lon="0.18944">
        <ele>1541</ele>
        <time>2019-06-23T09:31:43.032Z</time>
      </trkpt>
      <trkpt lat="42.92205" lon="0.18944">
        <ele>1541</ele>
        <time>2019-06-23T09:31:44.032Z</time>
      </trkpt>
      <trkpt lat="42.92205" lon="0.18945">
        <ele>1541</ele>
        <time>2019-06-23T09:31:45.032Z</time>
      </trkpt>
      <trkpt lat="42.92206" lon="0.18947">
        <ele>1541</ele>
        <time>2019-06-23T09:31:46.032Z</time>
      </trkpt>
      <trkpt lat="42.92206" lon="0.18947">
        <ele>1541</ele>
        <time>2019-06-23T09:31:47.032Z</time>
      </trkpt>
      <trkpt lat="42.92207" lon="0.18948">
        <ele>1541</ele>
        <time>2019-06-23T09:31:48.032Z</time>
      </trkpt>
      <trkpt lat="42.92207" lon="0.18949">
        <ele>1541</ele>
        <time>2019-06-23T09:31:49.032Z</time>
      </trkpt>
      <trkpt lat="42.92208" lon="0.18949">
        <ele>1540</ele>
        <time>2019-06-23T09:31:50.032Z</time>
      </trkpt>
      <trkpt lat="42.92209" lon="0.1895">
        <ele>1540</ele>
        <time>2019-06-23T09:31:51.032Z</time>
      </trkpt>
      <trkpt lat="42.92209" lon="0.18951">
        <ele>1540</ele>
        <time>2019-06-23T09:31:52.032Z</time>
      </trkpt>
      <trkpt lat="42.9221" lon="0.18952">
        <ele>1541</ele>
        <time>2019-06-23T09:31:53.032Z</time>
      </trkpt>
      <trkpt lat="42.9221" lon="0.18953">
        <ele>1541</ele>
        <time>2019-06-23T09:31:54.032Z</time>
      </trkpt>
      <trkpt lat="42.92211" lon="0.18954">
        <ele>1541</ele>
        <time>2019-06-23T09:31:55.032Z</time>
      </trkpt>
      <trkpt lat="42.92211" lon="0.18955">
        <ele>1541</ele>
        <time>2019-06-23T09:31:56.032Z</time>
      </trkpt>
      <trkpt lat="42.92211" lon="0.18956">
        <ele>1540</ele>
        <time>2019-06-23T09:31:57.032Z</time>
      </trkpt>
      <trkpt lat="42.92212" lon="0.18956">
        <ele>1540</ele>
        <time>2019-06-23T09:31:58.032Z</time>
      </trkpt>
      <trkpt lat="42.92212" lon="0.18957">
        <ele>1540</ele>
        <time>2019-06-23T09:31:59.032Z</time>
      </trkpt>
      <trkpt lat="42.92212" lon="0.18958">
        <ele>1540</ele>
        <time>2019-06-23T09:32:00.032Z</time>
      </trkpt>
      <trkpt lat="42.92213" lon="0.18958">
        <ele>1540</ele>
        <time>2019-06-23T09:32:01.032Z</time>
      </trkpt>
      <trkpt lat="42.92213" lon="0.18959">
        <ele>1540</ele>
        <time>2019-06-23T09:32:02.032Z</time>
      </trkpt>
      <trkpt lat="42.92213" lon="0.1896">
        <ele>1540</ele>
        <time>2019-06-23T09:32:03.032Z</time>
      </trkpt>
      <trkpt lat="42.92214" lon="0.18961">
        <ele>1540</ele>
        <time>2019-06-23T09:32:04.032Z</time>
      </trkpt>
      <trkpt lat="42.92214" lon="0.18962">
        <ele>1540</ele>
        <time>2019-06-23T09:32:05.032Z</time>
      </trkpt>
      <trkpt lat="42.92215" lon="0.18963">
        <ele>1540</ele>
        <time>2019-06-23T09:32:06.032Z</time>
      </trkpt>
      <trkpt lat="42.92215" lon="0.18964">
        <ele>1540</ele>
        <time>2019-06-23T09:32:07.032Z</time>
      </trkpt>
      <trkpt lat="42.92216" lon="0.18964">
        <ele>1540</ele>
        <time>2019-06-23T09:32:08.032Z</time>
      </trkpt>
      <trkpt lat="42.92216" lon="0.18965">
        <ele>1540</ele>
        <time>2019-06-23T09:32:09.032Z</time>
      </trkpt>
      <trkpt lat="42.92216" lon="0.18966">
        <ele>1539</ele>
        <time>2019-06-23T09:32:10.032Z</time>
      </trkpt>
      <trkpt lat="42.92217" lon="0.18966">
        <ele>1539</ele>
        <time>2019-06-23T09:32:11.032Z</time>
      </trkpt>
      <trkpt lat="42.92217" lon="0.18967">
        <ele>1539</ele>
        <time>2019-06-23T09:32:12.032Z</time>
      </trkpt>
      <trkpt lat="42.92217" lon="0.18968">
        <ele>1539</ele>
        <time>2019-06-23T09:32:13.032Z</time>
      </trkpt>
      <trkpt lat="42.92218" lon="0.18969">
        <ele>1539</ele>
        <time>2019-06-23T09:32:14.032Z</time>
      </trkpt>
      <trkpt lat="42.92218" lon="0.1897">
        <ele>1539</ele>
        <time>2019-06-23T09:32:15.032Z</time>
      </trkpt>
      <trkpt lat="42.92218" lon="0.1897">
        <ele>1538</ele>
        <time>2019-06-23T09:32:16.032Z</time>
      </trkpt>
      <trkpt lat="42.92219" lon="0.18971">
        <ele>1538</ele>
        <time>2019-06-23T09:32:17.032Z</time>
      </trkpt>
      <trkpt lat="42.92219" lon="0.18972">
        <ele>1539</ele>
        <time>2019-06-23T09:32:18.032Z</time>
      </trkpt>
      <trkpt lat="42.9222" lon="0.18973">
        <ele>1539</ele>
        <time>2019-06-23T09:32:19.032Z</time>
      </trkpt>
      <trkpt lat="42.9222" lon="0.18974">
        <ele>1539</ele>
        <time>2019-06-23T09:32:20.032Z</time>
      </trkpt>
      <trkpt lat="42.92221" lon="0.18975">
        <ele>1538</ele>
        <time>2019-06-23T09:32:21.032Z</time>
      </trkpt>
      <trkpt lat="42.92221" lon="0.18975">
        <ele>1538</ele>
        <time>2019-06-23T09:32:22.032Z</time>
      </trkpt>
      <trkpt lat="42.92222" lon="0.18976">
        <ele>1538</ele>
        <time>2019-06-23T09:32:23.032Z</time>
      </trkpt>
      <trkpt lat="42.92222" lon="0.18976">
        <ele>1538</ele>
        <time>2019-06-23T09:32:24.032Z</time>
      </trkpt>
      <trkpt lat="42.92223" lon="0.18977">
        <ele>1538</ele>
        <time>2019-06-23T09:32:25.032Z</time>
      </trkpt>
      <trkpt lat="42.92223" lon="0.18978">
        <ele>1538</ele>
        <time>2019-06-23T09:32:26.032Z</time>
      </trkpt>
      <trkpt lat="42.92224" lon="0.18979">
        <ele>1538</ele>
        <time>2019-06-23T09:32:27.032Z</time>
      </trkpt>
      <trkpt lat="42.92224" lon="0.1898">
        <ele>1538</ele>
        <time>2019-06-23T09:32:28.032Z</time>
      </trkpt>
      <trkpt lat="42.92225" lon="0.18981">
        <ele>1538</ele>
        <time>2019-06-23T09:32:29.032Z</time>
      </trkpt>
      <trkpt lat="42.92225" lon="0.18982">
        <ele>1539</ele>
        <time>2019-06-23T09:32:30.032Z</time>
      </trkpt>
      <trkpt lat="42.92226" lon="0.18983">
        <ele>1539</ele>
        <time>2019-06-23T09:32:31.032Z</time>
      </trkpt>
      <trkpt lat="42.92227" lon="0.18983">
        <ele>1539</ele>
        <time>2019-06-23T09:32:32.032Z</time>
      </trkpt>
      <trkpt lat="42.92227" lon="0.18984">
        <ele>1540</ele>
        <time>2019-06-23T09:32:33.032Z</time>
      </trkpt>
      <trkpt lat="42.92228" lon="0.18984">
        <ele>1540</ele>
        <time>2019-06-23T09:32:34.032Z</time>
      </trkpt>
      <trkpt lat="42.92229" lon="0.18985">
        <ele>1540</ele>
        <time>2019-06-23T09:32:35.032Z</time>
      </trkpt>
      <trkpt lat="42.92229" lon="0.18985">
        <ele>1540</ele>
        <time>2019-06-23T09:32:36.032Z</time>
      </trkpt>
      <trkpt lat="42.9223" lon="0.18986">
        <ele>1540</ele>
        <time>2019-06-23T09:32:37.032Z</time>
      </trkpt>
      <trkpt lat="42.92231" lon="0.18987">
        <ele>1541</ele>
        <time>2019-06-23T09:32:38.032Z</time>
      </trkpt>
      <trkpt lat="42.92232" lon="0.18987">
        <ele>1540</ele>
        <time>2019-06-23T09:32:39.032Z</time>
      </trkpt>
      <trkpt lat="42.92232" lon="0.18988">
        <ele>1541</ele>
        <time>2019-06-23T09:32:40.032Z</time>
      </trkpt>
      <trkpt lat="42.92233" lon="0.18988">
        <ele>1540</ele>
        <time>2019-06-23T09:32:41.032Z</time>
      </trkpt>
      <trkpt lat="42.92234" lon="0.18989">
        <ele>1540</ele>
        <time>2019-06-23T09:32:42.032Z</time>
      </trkpt>
      <trkpt lat="42.92234" lon="0.18989">
        <ele>1540</ele>
        <time>2019-06-23T09:32:43.032Z</time>
      </trkpt>
      <trkpt lat="42.92235" lon="0.1899">
        <ele>1540</ele>
        <time>2019-06-23T09:32:44.032Z</time>
      </trkpt>
      <trkpt lat="42.92236" lon="0.18991">
        <ele>1540</ele>
        <time>2019-06-23T09:32:45.032Z</time>
      </trkpt>
      <trkpt lat="42.92236" lon="0.18991">
        <ele>1539</ele>
        <time>2019-06-23T09:32:46.032Z</time>
      </trkpt>
      <trkpt lat="42.92237" lon="0.18992">
        <ele>1540</ele>
        <time>2019-06-23T09:32:47.032Z</time>
      </trkpt>
      <trkpt lat="42.92238" lon="0.18992">
        <ele>1539</ele>
        <time>2019-06-23T09:32:48.032Z</time>
      </trkpt>
      <trkpt lat="42.92239" lon="0.18992">
        <ele>1539</ele>
        <time>2019-06-23T09:32:49.032Z</time>
      </trkpt>
      <trkpt lat="42.92239" lon="0.18992">
        <ele>1539</ele>
        <time>2019-06-23T09:32:50.032Z</time>
      </trkpt>
      <trkpt lat="42.9224" lon="0.18992">
        <ele>1539</ele>
        <time>2019-06-23T09:32:51.032Z</time>
      </trkpt>
      <trkpt lat="42.92241" lon="0.18991">
        <ele>1539</ele>
        <time>2019-06-23T09:32:52.032Z</time>
      </trkpt>
      <trkpt lat="42.92241" lon="0.18991">
        <ele>1539</ele>
        <time>2019-06-23T09:32:53.032Z</time>
      </trkpt>
      <trkpt lat="42.92242" lon="0.18991">
        <ele>1538</ele>
        <time>2019-06-23T09:32:54.032Z</time>
      </trkpt>
      <trkpt lat="42.92242" lon="0.18991">
        <ele>1538</ele>
        <time>2019-06-23T09:32:55.032Z</time>
      </trkpt>
      <trkpt lat="42.92243" lon="0.18991">
        <ele>1538</ele>
        <time>2019-06-23T09:32:56.032Z</time>
      </trkpt>
      <trkpt lat="42.92243" lon="0.18991">
        <ele>1538</ele>
        <time>2019-06-23T09:32:57.032Z</time>
      </trkpt>
      <trkpt lat="42.92244" lon="0.18992">
        <ele>1538</ele>
        <time>2019-06-23T09:32:58.032Z</time>
      </trkpt>
      <trkpt lat="42.92245" lon="0.18992">
        <ele>1538</ele>
        <time>2019-06-23T09:32:59.032Z</time>
      </trkpt>
      <trkpt lat="42.92246" lon="0.18992">
        <ele>1538</ele>
        <time>2019-06-23T09:33:00.032Z</time>
      </trkpt>
      <trkpt lat="42.92246" lon="0.18992">
        <ele>1538</ele>
        <time>2019-06-23T09:33:01.032Z</time>
      </trkpt>
      <trkpt lat="42.92246" lon="0.18992">
        <ele>1537</ele>
        <time>2019-06-23T09:33:02.032Z</time>
      </trkpt>
      <trkpt lat="42.92246" lon="0.18993">
        <ele>1536</ele>
        <time>2019-06-23T09:33:03.032Z</time>
      </trkpt>
      <trkpt lat="42.92246" lon="0.18993">
        <ele>1536</ele>
        <time>2019-06-23T09:33:04.032Z</time>
      </trkpt>
      <trkpt lat="42.92247" lon="0.18993">
        <ele>1536</ele>
        <time>2019-06-23T09:33:05.032Z</time>
      </trkpt>
      <trkpt lat="42.92247" lon="0.18993">
        <ele>1536</ele>
        <time>2019-06-23T09:33:06.032Z</time>
      </trkpt>
      <trkpt lat="42.92247" lon="0.18993">
        <ele>1536</ele>
        <time>2019-06-23T09:33:07.032Z</time>
      </trkpt>
      <trkpt lat="42.92247" lon="0.18993">
        <ele>1536</ele>
        <time>2019-06-23T09:33:08.032Z</time>
      </trkpt>
      <trkpt lat="42.92247" lon="0.18993">
        <ele>1537</ele>
        <time>2019-06-23T09:33:09.032Z</time>
      </trkpt>
      <trkpt lat="42.92247" lon="0.18993">
        <ele>1537</ele>
        <time>2019-06-23T09:33:10.032Z</time>
      </trkpt>
      <trkpt lat="42.92252" lon="0.19007">
        <ele>1537</ele>
        <time>2019-06-23T09:33:11.036Z</time>
      </trkpt>
      <trkpt lat="42.92252" lon="0.19008">
        <ele>1537</ele>
        <time>2019-06-23T09:33:12.036Z</time>
      </trkpt>
      <trkpt lat="42.92252" lon="0.19009">
        <ele>1537</ele>
        <time>2019-06-23T09:33:13.036Z</time>
      </trkpt>
      <trkpt lat="42.92253" lon="0.1901">
        <ele>1537</ele>
        <time>2019-06-23T09:33:14.036Z</time>
      </trkpt>
      <trkpt lat="42.92252" lon="0.19011">
        <ele>1537</ele>
        <time>2019-06-23T09:33:15.036Z</time>
      </trkpt>
      <trkpt lat="42.92252" lon="0.19011">
        <ele>1537</ele>
        <time>2019-06-23T09:33:16.036Z</time>
      </trkpt>
      <trkpt lat="42.92252" lon="0.19012">
        <ele>1537</ele>
        <time>2019-06-23T09:33:17.036Z</time>
      </trkpt>
      <trkpt lat="42.92252" lon="0.19013">
        <ele>1536</ele>
        <time>2019-06-23T09:33:18.036Z</time>
      </trkpt>
      <trkpt lat="42.92252" lon="0.19014">
        <ele>1536</ele>
        <time>2019-06-23T09:33:19.036Z</time>
      </trkpt>
      <trkpt lat="42.92251" lon="0.19015">
        <ele>1536</ele>
        <time>2019-06-23T09:33:20.036Z</time>
      </trkpt>
      <trkpt lat="42.92251" lon="0.19016">
        <ele>1536</ele>
        <time>2019-06-23T09:33:21.036Z</time>
      </trkpt>
      <trkpt lat="42.92251" lon="0.19017">
        <ele>1536</ele>
        <time>2019-06-23T09:33:22.036Z</time>
      </trkpt>
      <trkpt lat="42.92251" lon="0.19018">
        <ele>1536</ele>
        <time>2019-06-23T09:33:23.036Z</time>
      </trkpt>
      <trkpt lat="42.92251" lon="0.19019">
        <ele>1536</ele>
        <time>2019-06-23T09:33:24.036Z</time>
      </trkpt>
      <trkpt lat="42.92252" lon="0.19019">
        <ele>1536</ele>
        <time>2019-06-23T09:33:25.036Z</time>
      </trkpt>
      <trkpt lat="42.92252" lon="0.1902">
        <ele>1535</ele>
        <time>2019-06-23T09:33:26.036Z</time>
      </trkpt>
      <trkpt lat="42.92252" lon="0.19021">
        <ele>1536</ele>
        <time>2019-06-23T09:33:27.036Z</time>
      </trkpt>
      <trkpt lat="42.92252" lon="0.19021">
        <ele>1536</ele>
        <time>2019-06-23T09:33:28.036Z</time>
      </trkpt>
      <trkpt lat="42.92252" lon="0.19021">
        <ele>1536</ele>
        <time>2019-06-23T09:33:29.036Z</time>
      </trkpt>
      <trkpt lat="42.92252" lon="0.19022">
        <ele>1536</ele>
        <time>2019-06-23T09:33:30.036Z</time>
      </trkpt>
      <trkpt lat="42.92252" lon="0.19022">
        <ele>1536</ele>
        <time>2019-06-23T09:33:31.036Z</time>
      </trkpt>
      <trkpt lat="42.92251" lon="0.19022">
        <ele>1536</ele>
        <time>2019-06-23T09:33:32.036Z</time>
      </trkpt>
      <trkpt lat="42.92251" lon="0.19022">
        <ele>1535</ele>
        <time>2019-06-23T09:33:33.036Z</time>
      </trkpt>
      <trkpt lat="42.92252" lon="0.19023">
        <ele>1535</ele>
        <time>2019-06-23T09:33:34.036Z</time>
      </trkpt>
      <trkpt lat="42.92252" lon="0.19023">
        <ele>1536</ele>
        <time>2019-06-23T09:33:35.036Z</time>
      </trkpt>
      <trkpt lat="42.92252" lon="0.19023">
        <ele>1536</ele>
        <time>2019-06-23T09:33:36.036Z</time>
      </trkpt>
      <trkpt lat="42.92253" lon="0.19023">
        <ele>1536</ele>
        <time>2019-06-23T09:33:37.036Z</time>
      </trkpt>
      <trkpt lat="42.92253" lon="0.19024">
        <ele>1535</ele>
        <time>2019-06-23T09:33:38.036Z</time>
      </trkpt>
      <trkpt lat="42.92252" lon="0.19024">
        <ele>1535</ele>
        <time>2019-06-23T09:33:39.036Z</time>
      </trkpt>
      <trkpt lat="42.92252" lon="0.19025">
        <ele>1535</ele>
        <time>2019-06-23T09:33:40.036Z</time>
      </trkpt>
      <trkpt lat="42.92252" lon="0.19025">
        <ele>1535</ele>
        <time>2019-06-23T09:33:41.036Z</time>
      </trkpt>
      <trkpt lat="42.92251" lon="0.19026">
        <ele>1536</ele>
        <time>2019-06-23T09:33:42.036Z</time>
      </trkpt>
      <trkpt lat="42.92251" lon="0.19026">
        <ele>1535</ele>
        <time>2019-06-23T09:33:43.036Z</time>
      </trkpt>
      <trkpt lat="42.92251" lon="0.19027">
        <ele>1535</ele>
        <time>2019-06-23T09:33:44.036Z</time>
      </trkpt>
      <trkpt lat="42.92251" lon="0.19027">
        <ele>1535</ele>
        <time>2019-06-23T09:33:45.036Z</time>
      </trkpt>
      <trkpt lat="42.92251" lon="0.19028">
        <ele>1536</ele>
        <time>2019-06-23T09:33:46.036Z</time>
      </trkpt>
      <trkpt lat="42.92251" lon="0.19029">
        <ele>1536</ele>
        <time>2019-06-23T09:33:47.036Z</time>
      </trkpt>
      <trkpt lat="42.9225" lon="0.1903">
        <ele>1536</ele>
        <time>2019-06-23T09:33:48.036Z</time>
      </trkpt>
      <trkpt lat="42.9225" lon="0.19031">
        <ele>1536</ele>
        <time>2019-06-23T09:33:49.036Z</time>
      </trkpt>
      <trkpt lat="42.9225" lon="0.19032">
        <ele>1536</ele>
        <time>2019-06-23T09:33:50.036Z</time>
      </trkpt>
      <trkpt lat="42.9225" lon="0.19033">
        <ele>1536</ele>
        <time>2019-06-23T09:33:51.036Z</time>
      </trkpt>
      <trkpt lat="42.9225" lon="0.19034">
        <ele>1536</ele>
        <time>2019-06-23T09:33:52.036Z</time>
      </trkpt>
      <trkpt lat="42.9225" lon="0.19035">
        <ele>1537</ele>
        <time>2019-06-23T09:33:53.036Z</time>
      </trkpt>
      <trkpt lat="42.92251" lon="0.19036">
        <ele>1537</ele>
        <time>2019-06-23T09:33:54.036Z</time>
      </trkpt>
      <trkpt lat="42.92251" lon="0.19037">
        <ele>1537</ele>
        <time>2019-06-23T09:33:55.036Z</time>
      </trkpt>
      <trkpt lat="42.92251" lon="0.19038">
        <ele>1537</ele>
        <time>2019-06-23T09:33:56.036Z</time>
      </trkpt>
      <trkpt lat="42.92251" lon="0.19038">
        <ele>1537</ele>
        <time>2019-06-23T09:33:57.036Z</time>
      </trkpt>
      <trkpt lat="42.92252" lon="0.19039">
        <ele>1536</ele>
        <time>2019-06-23T09:33:58.036Z</time>
      </trkpt>
      <trkpt lat="42.92252" lon="0.19039">
        <ele>1536</ele>
        <time>2019-06-23T09:33:59.036Z</time>
      </trkpt>
      <trkpt lat="42.92253" lon="0.1904">
        <ele>1536</ele>
        <time>2019-06-23T09:34:00.036Z</time>
      </trkpt>
      <trkpt lat="42.92253" lon="0.19041">
        <ele>1537</ele>
        <time>2019-06-23T09:34:01.036Z</time>
      </trkpt>
      <trkpt lat="42.92253" lon="0.19042">
        <ele>1536</ele>
        <time>2019-06-23T09:34:02.036Z</time>
      </trkpt>
      <trkpt lat="42.92253" lon="0.19042">
        <ele>1536</ele>
        <time>2019-06-23T09:34:03.036Z</time>
      </trkpt>
      <trkpt lat="42.92253" lon="0.19043">
        <ele>1537</ele>
        <time>2019-06-23T09:34:04.036Z</time>
      </trkpt>
      <trkpt lat="42.92253" lon="0.19044">
        <ele>1536</ele>
        <time>2019-06-23T09:34:05.036Z</time>
      </trkpt>
      <trkpt lat="42.92254" lon="0.19045">
        <ele>1537</ele>
        <time>2019-06-23T09:34:06.036Z</time>
      </trkpt>
      <trkpt lat="42.92254" lon="0.19046">
        <ele>1537</ele>
        <time>2019-06-23T09:34:07.036Z</time>
      </trkpt>
      <trkpt lat="42.92254" lon="0.19047">
        <ele>1537</ele>
        <time>2019-06-23T09:34:08.036Z</time>
      </trkpt>
      <trkpt lat="42.92255" lon="0.19048">
        <ele>1537</ele>
        <time>2019-06-23T09:34:09.036Z</time>
      </trkpt>
      <trkpt lat="42.92255" lon="0.19048">
        <ele>1537</ele>
        <time>2019-06-23T09:34:10.036Z</time>
      </trkpt>
      <trkpt lat="42.92255" lon="0.19049">
        <ele>1537</ele>
        <time>2019-06-23T09:34:11.036Z</time>
      </trkpt>
      <trkpt lat="42.92255" lon="0.1905">
        <ele>1537</ele>
        <time>2019-06-23T09:34:12.036Z</time>
      </trkpt>
      <trkpt lat="42.92255" lon="0.19051">
        <ele>1537</ele>
        <time>2019-06-23T09:34:13.036Z</time>
      </trkpt>
      <trkpt lat="42.92255" lon="0.19052">
        <ele>1537</ele>
        <time>2019-06-23T09:34:14.036Z</time>
      </trkpt>
      <trkpt lat="42.92255" lon="0.19052">
        <ele>1537</ele>
        <time>2019-06-23T09:34:15.036Z</time>
      </trkpt>
      <trkpt lat="42.92256" lon="0.19053">
        <ele>1537</ele>
        <time>2019-06-23T09:34:16.036Z</time>
      </trkpt>
      <trkpt lat="42.92256" lon="0.19053">
        <ele>1537</ele>
        <time>2019-06-23T09:34:17.036Z</time>
      </trkpt>
      <trkpt lat="42.92257" lon="0.19053">
        <ele>1537</ele>
        <time>2019-06-23T09:34:18.036Z</time>
      </trkpt>
      <trkpt lat="42.92257" lon="0.19054">
        <ele>1538</ele>
        <time>2019-06-23T09:34:19.036Z</time>
      </trkpt>
      <trkpt lat="42.92257" lon="0.19054">
        <ele>1538</ele>
        <time>2019-06-23T09:34:20.036Z</time>
      </trkpt>
      <trkpt lat="42.92258" lon="0.19054">
        <ele>1538</ele>
        <time>2019-06-23T09:34:21.036Z</time>
      </trkpt>
      <trkpt lat="42.92258" lon="0.19054">
        <ele>1537</ele>
        <time>2019-06-23T09:34:22.036Z</time>
      </trkpt>
      <trkpt lat="42.92257" lon="0.19049">
        <ele>1536</ele>
        <time>2019-06-23T09:34:23.040Z</time>
      </trkpt>
      <trkpt lat="42.92257" lon="0.19048">
        <ele>1536</ele>
        <time>2019-06-23T09:34:24.040Z</time>
      </trkpt>
      <trkpt lat="42.92257" lon="0.19047">
        <ele>1536</ele>
        <time>2019-06-23T09:34:25.040Z</time>
      </trkpt>
      <trkpt lat="42.92256" lon="0.19047">
        <ele>1536</ele>
        <time>2019-06-23T09:34:26.040Z</time>
      </trkpt>
      <trkpt lat="42.92256" lon="0.19046">
        <ele>1536</ele>
        <time>2019-06-23T09:34:27.040Z</time>
      </trkpt>
      <trkpt lat="42.92256" lon="0.19045">
        <ele>1536</ele>
        <time>2019-06-23T09:34:28.040Z</time>
      </trkpt>
      <trkpt lat="42.92256" lon="0.19044">
        <ele>1536</ele>
        <time>2019-06-23T09:34:29.040Z</time>
      </trkpt>
      <trkpt lat="42.92256" lon="0.19043">
        <ele>1535</ele>
        <time>2019-06-23T09:34:30.040Z</time>
      </trkpt>
      <trkpt lat="42.92256" lon="0.19042">
        <ele>1535</ele>
        <time>2019-06-23T09:34:31.040Z</time>
      </trkpt>
      <trkpt lat="42.92257" lon="0.19041">
        <ele>1536</ele>
        <time>2019-06-23T09:34:32.040Z</time>
      </trkpt>
      <trkpt lat="42.92257" lon="0.1904">
        <ele>1536</ele>
        <time>2019-06-23T09:34:33.040Z</time>
      </trkpt>
      <trkpt lat="42.92258" lon="0.19039">
        <ele>1535</ele>
        <time>2019-06-23T09:34:34.040Z</time>
      </trkpt>
      <trkpt lat="42.92258" lon="0.19038">
        <ele>1535</ele>
        <time>2019-06-23T09:34:35.040Z</time>
      </trkpt>
      <trkpt lat="42.92258" lon="0.19037">
        <ele>1535</ele>
        <time>2019-06-23T09:34:36.040Z</time>
      </trkpt>
      <trkpt lat="42.92258" lon="0.19037">
        <ele>1535</ele>
        <time>2019-06-23T09:34:37.040Z</time>
      </trkpt>
      <trkpt lat="42.92259" lon="0.19036">
        <ele>1535</ele>
        <time>2019-06-23T09:34:38.040Z</time>
      </trkpt>
      <trkpt lat="42.92259" lon="0.19035">
        <ele>1534</ele>
        <time>2019-06-23T09:34:39.040Z</time>
      </trkpt>
      <trkpt lat="42.9226" lon="0.19034">
        <ele>1534</ele>
        <time>2019-06-23T09:34:40.040Z</time>
      </trkpt>
      <trkpt lat="42.9226" lon="0.19033">
        <ele>1534</ele>
        <time>2019-06-23T09:34:41.040Z</time>
      </trkpt>
      <trkpt lat="42.92261" lon="0.19033">
        <ele>1534</ele>
        <time>2019-06-23T09:34:42.040Z</time>
      </trkpt>
      <trkpt lat="42.92261" lon="0.19032">
        <ele>1534</ele>
        <time>2019-06-23T09:34:43.040Z</time>
      </trkpt>
      <trkpt lat="42.92262" lon="0.19031">
        <ele>1534</ele>
        <time>2019-06-23T09:34:44.040Z</time>
      </trkpt>
      <trkpt lat="42.92262" lon="0.1903">
        <ele>1534</ele>
        <time>2019-06-23T09:34:45.040Z</time>
      </trkpt>
      <trkpt lat="42.92262" lon="0.1903">
        <ele>1534</ele>
        <time>2019-06-23T09:34:46.040Z</time>
      </trkpt>
      <trkpt lat="42.92263" lon="0.19029">
        <ele>1534</ele>
        <time>2019-06-23T09:34:47.040Z</time>
      </trkpt>
      <trkpt lat="42.92263" lon="0.19028">
        <ele>1534</ele>
        <time>2019-06-23T09:34:48.040Z</time>
      </trkpt>
      <trkpt lat="42.92264" lon="0.19027">
        <ele>1534</ele>
        <time>2019-06-23T09:34:49.040Z</time>
      </trkpt>
      <trkpt lat="42.92264" lon="0.19026">
        <ele>1534</ele>
        <time>2019-06-23T09:34:50.040Z</time>
      </trkpt>
      <trkpt lat="42.92264" lon="0.19025">
        <ele>1534</ele>
        <time>2019-06-23T09:34:51.040Z</time>
      </trkpt>
      <trkpt lat="42.92265" lon="0.19024">
        <ele>1534</ele>
        <time>2019-06-23T09:34:52.040Z</time>
      </trkpt>
      <trkpt lat="42.92265" lon="0.19023">
        <ele>1534</ele>
        <time>2019-06-23T09:34:53.040Z</time>
      </trkpt>
      <trkpt lat="42.92265" lon="0.19022">
        <ele>1534</ele>
        <time>2019-06-23T09:34:54.040Z</time>
      </trkpt>
      <trkpt lat="42.92265" lon="0.19021">
        <ele>1534</ele>
        <time>2019-06-23T09:34:55.040Z</time>
      </trkpt>
      <trkpt lat="42.92265" lon="0.1902">
        <ele>1534</ele>
        <time>2019-06-23T09:34:56.040Z</time>
      </trkpt>
      <trkpt lat="42.92266" lon="0.1902">
        <ele>1533</ele>
        <time>2019-06-23T09:34:57.040Z</time>
      </trkpt>
      <trkpt lat="42.92266" lon="0.19019">
        <ele>1534</ele>
        <time>2019-06-23T09:34:58.040Z</time>
      </trkpt>
      <trkpt lat="42.92267" lon="0.19018">
        <ele>1534</ele>
        <time>2019-06-23T09:34:59.040Z</time>
      </trkpt>
      <trkpt lat="42.92267" lon="0.19018">
        <ele>1534</ele>
        <time>2019-06-23T09:35:00.040Z</time>
      </trkpt>
      <trkpt lat="42.92267" lon="0.19017">
        <ele>1534</ele>
        <time>2019-06-23T09:35:01.040Z</time>
      </trkpt>
      <trkpt lat="42.92267" lon="0.19016">
        <ele>1533</ele>
        <time>2019-06-23T09:35:02.040Z</time>
      </trkpt>
      <trkpt lat="42.92267" lon="0.19015">
        <ele>1534</ele>
        <time>2019-06-23T09:35:03.040Z</time>
      </trkpt>
      <trkpt lat="42.92267" lon="0.19015">
        <ele>1534</ele>
        <time>2019-06-23T09:35:04.040Z</time>
      </trkpt>
      <trkpt lat="42.92267" lon="0.19014">
        <ele>1534</ele>
        <time>2019-06-23T09:35:05.040Z</time>
      </trkpt>
      <trkpt lat="42.92268" lon="0.19014">
        <ele>1534</ele>
        <time>2019-06-23T09:35:06.040Z</time>
      </trkpt>
      <trkpt lat="42.92268" lon="0.19013">
        <ele>1534</ele>
        <time>2019-06-23T09:35:07.040Z</time>
      </trkpt>
      <trkpt lat="42.92269" lon="0.19013">
        <ele>1534</ele>
        <time>2019-06-23T09:35:08.040Z</time>
      </trkpt>
      <trkpt lat="42.92269" lon="0.19012">
        <ele>1534</ele>
        <time>2019-06-23T09:35:09.040Z</time>
      </trkpt>
      <trkpt lat="42.9227" lon="0.19012">
        <ele>1534</ele>
        <time>2019-06-23T09:35:10.040Z</time>
      </trkpt>
      <trkpt lat="42.9227" lon="0.19012">
        <ele>1535</ele>
        <time>2019-06-23T09:35:11.040Z</time>
      </trkpt>
      <trkpt lat="42.92271" lon="0.19011">
        <ele>1535</ele>
        <time>2019-06-23T09:35:12.040Z</time>
      </trkpt>
      <trkpt lat="42.92271" lon="0.19011">
        <ele>1535</ele>
        <time>2019-06-23T09:35:13.040Z</time>
      </trkpt>
      <trkpt lat="42.92272" lon="0.19011">
        <ele>1535</ele>
        <time>2019-06-23T09:35:14.040Z</time>
      </trkpt>
      <trkpt lat="42.92272" lon="0.19011">
        <ele>1535</ele>
        <time>2019-06-23T09:35:15.040Z</time>
      </trkpt>
      <trkpt lat="42.92272" lon="0.19011">
        <ele>1535</ele>
        <time>2019-06-23T09:35:16.040Z</time>
      </trkpt>
      <trkpt lat="42.92272" lon="0.19011">
        <ele>1536</ele>
        <time>2019-06-23T09:35:17.040Z</time>
      </trkpt>
      <trkpt lat="42.92273" lon="0.19011">
        <ele>1536</ele>
        <time>2019-06-23T09:35:18.040Z</time>
      </trkpt>
      <trkpt lat="42.92273" lon="0.19011">
        <ele>1537</ele>
        <time>2019-06-23T09:35:19.040Z</time>
      </trkpt>
      <trkpt lat="42.92273" lon="0.19011">
        <ele>1537</ele>
        <time>2019-06-23T09:35:20.040Z</time>
      </trkpt>
      <trkpt lat="42.92273" lon="0.19011">
        <ele>1536</ele>
        <time>2019-06-23T09:35:21.040Z</time>
      </trkpt>
      <trkpt lat="42.92273" lon="0.19011">
        <ele>1536</ele>
        <time>2019-06-23T09:35:22.040Z</time>
      </trkpt>
      <trkpt lat="42.92273" lon="0.19011">
        <ele>1536</ele>
        <time>2019-06-23T09:35:23.040Z</time>
      </trkpt>
      <trkpt lat="42.92273" lon="0.19011">
        <ele>1536</ele>
        <time>2019-06-23T09:35:24.040Z</time>
      </trkpt>
      <trkpt lat="42.92274" lon="0.19011">
        <ele>1536</ele>
        <time>2019-06-23T09:35:25.040Z</time>
      </trkpt>
      <trkpt lat="42.92274" lon="0.19011">
        <ele>1536</ele>
        <time>2019-06-23T09:35:26.040Z</time>
      </trkpt>
      <trkpt lat="42.92274" lon="0.19011">
        <ele>1536</ele>
        <time>2019-06-23T09:35:27.040Z</time>
      </trkpt>
      <trkpt lat="42.92274" lon="0.1901">
        <ele>1536</ele>
        <time>2019-06-23T09:35:28.040Z</time>
      </trkpt>
      <trkpt lat="42.92275" lon="0.1901">
        <ele>1537</ele>
        <time>2019-06-23T09:35:29.040Z</time>
      </trkpt>
      <trkpt lat="42.92275" lon="0.1901">
        <ele>1537</ele>
        <time>2019-06-23T09:35:30.040Z</time>
      </trkpt>
      <trkpt lat="42.92275" lon="0.19009">
        <ele>1537</ele>
        <time>2019-06-23T09:35:31.040Z</time>
      </trkpt>
      <trkpt lat="42.92275" lon="0.19009">
        <ele>1537</ele>
        <time>2019-06-23T09:35:32.040Z</time>
      </trkpt>
      <trkpt lat="42.92276" lon="0.19009">
        <ele>1538</ele>
        <time>2019-06-23T09:35:33.040Z</time>
      </trkpt>
      <trkpt lat="42.92276" lon="0.19008">
        <ele>1538</ele>
        <time>2019-06-23T09:35:34.040Z</time>
      </trkpt>
      <trkpt lat="42.92277" lon="0.19008">
        <ele>1538</ele>
        <time>2019-06-23T09:35:35.040Z</time>
      </trkpt>
      <trkpt lat="42.92277" lon="0.19007">
        <ele>1538</ele>
        <time>2019-06-23T09:35:36.040Z</time>
      </trkpt>
      <trkpt lat="42.92277" lon="0.19007">
        <ele>1539</ele>
        <time>2019-06-23T09:35:37.040Z</time>
      </trkpt>
      <trkpt lat="42.92277" lon="0.19007">
        <ele>1537</ele>
        <time>2019-06-23T09:35:38.040Z</time>
      </trkpt>
      <trkpt lat="42.92277" lon="0.19006">
        <ele>1537</ele>
        <time>2019-06-23T09:35:39.040Z</time>
      </trkpt>
      <trkpt lat="42.92277" lon="0.19006">
        <ele>1537</ele>
        <time>2019-06-23T09:35:40.040Z</time>
      </trkpt>
      <trkpt lat="42.92277" lon="0.19006">
        <ele>1538</ele>
        <time>2019-06-23T09:35:41.040Z</time>
      </trkpt>
      <trkpt lat="42.92277" lon="0.19006">
        <ele>1538</ele>
        <time>2019-06-23T09:35:42.040Z</time>
      </trkpt>
      <trkpt lat="42.92282" lon="0.19013">
        <ele>1533</ele>
        <time>2019-06-23T09:35:43.040Z</time>
      </trkpt>
      <trkpt lat="42.92282" lon="0.19012">
        <ele>1533</ele>
        <time>2019-06-23T09:35:44.040Z</time>
      </trkpt>
      <trkpt lat="42.92282" lon="0.19012">
        <ele>1533</ele>
        <time>2019-06-23T09:35:45.040Z</time>
      </trkpt>
      <trkpt lat="42.92282" lon="0.19012">
        <ele>1533</ele>
        <time>2019-06-23T09:35:46.040Z</time>
      </trkpt>
      <trkpt lat="42.92282" lon="0.19012">
        <ele>1533</ele>
        <time>2019-06-23T09:35:47.040Z</time>
      </trkpt>
      <trkpt lat="42.92282" lon="0.19012">
        <ele>1533</ele>
        <time>2019-06-23T09:35:48.040Z</time>
      </trkpt>
      <trkpt lat="42.9228" lon="0.19011">
        <ele>1534</ele>
        <time>2019-06-23T09:35:49.052Z</time>
      </trkpt>
      <trkpt lat="42.9228" lon="0.19011">
        <ele>1535</ele>
        <time>2019-06-23T09:35:50.052Z</time>
      </trkpt>
      <trkpt lat="42.9228" lon="0.19011">
        <ele>1536</ele>
        <time>2019-06-23T09:35:51.052Z</time>
      </trkpt>
      <trkpt lat="42.9228" lon="0.19011">
        <ele>1536</ele>
        <time>2019-06-23T09:35:52.052Z</time>
      </trkpt>
      <trkpt lat="42.9228" lon="0.19011">
        <ele>1536</ele>
        <time>2019-06-23T09:35:53.052Z</time>
      </trkpt>
      <trkpt lat="42.9228" lon="0.19011">
        <ele>1536</ele>
        <time>2019-06-23T09:35:54.052Z</time>
      </trkpt>
      <trkpt lat="42.92281" lon="0.19011">
        <ele>1536</ele>
        <time>2019-06-23T09:35:55.052Z</time>
      </trkpt>
      <trkpt lat="42.9228" lon="0.1901">
        <ele>1537</ele>
        <time>2019-06-23T09:35:56.060Z</time>
      </trkpt>
      <trkpt lat="42.9228" lon="0.19011">
        <ele>1535</ele>
        <time>2019-06-23T09:35:57.060Z</time>
      </trkpt>
      <trkpt lat="42.9228" lon="0.19011">
        <ele>1535</ele>
        <time>2019-06-23T09:35:58.060Z</time>
      </trkpt>
      <trkpt lat="42.92279" lon="0.19011">
        <ele>1535</ele>
        <time>2019-06-23T09:35:59.060Z</time>
      </trkpt>
      <trkpt lat="42.92279" lon="0.19011">
        <ele>1535</ele>
        <time>2019-06-23T09:36:00.060Z</time>
      </trkpt>
      <trkpt lat="42.92278" lon="0.19011">
        <ele>1534</ele>
        <time>2019-06-23T09:36:01.060Z</time>
      </trkpt>
      <trkpt lat="42.92277" lon="0.19011">
        <ele>1534</ele>
        <time>2019-06-23T09:36:02.060Z</time>
      </trkpt>
      <trkpt lat="42.92277" lon="0.1901">
        <ele>1534</ele>
        <time>2019-06-23T09:36:03.060Z</time>
      </trkpt>
      <trkpt lat="42.92277" lon="0.1901">
        <ele>1534</ele>
        <time>2019-06-23T09:36:04.060Z</time>
      </trkpt>
      <trkpt lat="42.92277" lon="0.1901">
        <ele>1533</ele>
        <time>2019-06-23T09:36:05.060Z</time>
      </trkpt>
      <trkpt lat="42.92277" lon="0.1901">
        <ele>1533</ele>
        <time>2019-06-23T09:36:06.060Z</time>
      </trkpt>
      <trkpt lat="42.92277" lon="0.1901">
        <ele>1534</ele>
        <time>2019-06-23T09:36:07.060Z</time>
      </trkpt>
      <trkpt lat="42.92277" lon="0.1901">
        <ele>1534</ele>
        <time>2019-06-23T09:36:08.060Z</time>
      </trkpt>
      <trkpt lat="42.92276" lon="0.19011">
        <ele>1534</ele>
        <time>2019-06-23T09:36:09.060Z</time>
      </trkpt>
      <trkpt lat="42.92277" lon="0.19012">
        <ele>1533</ele>
        <time>2019-06-23T09:36:10.068Z</time>
      </trkpt>
      <trkpt lat="42.92277" lon="0.19012">
        <ele>1533</ele>
        <time>2019-06-23T09:36:11.068Z</time>
      </trkpt>
      <trkpt lat="42.92277" lon="0.19011">
        <ele>1533</ele>
        <time>2019-06-23T09:36:12.068Z</time>
      </trkpt>
      <trkpt lat="42.92277" lon="0.19011">
        <ele>1534</ele>
        <time>2019-06-23T09:36:13.068Z</time>
      </trkpt>
      <trkpt lat="42.92276" lon="0.19011">
        <ele>1534</ele>
        <time>2019-06-23T09:36:14.068Z</time>
      </trkpt>
      <trkpt lat="42.92276" lon="0.19011">
        <ele>1534</ele>
        <time>2019-06-23T09:36:15.068Z</time>
      </trkpt>
      <trkpt lat="42.92276" lon="0.19012">
        <ele>1535</ele>
        <time>2019-06-23T09:36:16.068Z</time>
      </trkpt>
      <trkpt lat="42.92276" lon="0.19012">
        <ele>1535</ele>
        <time>2019-06-23T09:36:17.068Z</time>
      </trkpt>
      <trkpt lat="42.92276" lon="0.19012">
        <ele>1535</ele>
        <time>2019-06-23T09:36:18.068Z</time>
      </trkpt>
      <trkpt lat="42.9228" lon="0.19007">
        <ele>1529</ele>
        <time>2019-06-23T09:36:19.072Z</time>
      </trkpt>
      <trkpt lat="42.9228" lon="0.19006">
        <ele>1528</ele>
        <time>2019-06-23T09:36:20.072Z</time>
      </trkpt>
      <trkpt lat="42.9228" lon="0.19006">
        <ele>1528</ele>
        <time>2019-06-23T09:36:21.072Z</time>
      </trkpt>
      <trkpt lat="42.9228" lon="0.19005">
        <ele>1528</ele>
        <time>2019-06-23T09:36:22.072Z</time>
      </trkpt>
      <trkpt lat="42.9228" lon="0.19006">
        <ele>1529</ele>
        <time>2019-06-23T09:36:23.072Z</time>
      </trkpt>
      <trkpt lat="42.9228" lon="0.19006">
        <ele>1529</ele>
        <time>2019-06-23T09:36:24.072Z</time>
      </trkpt>
      <trkpt lat="42.9228" lon="0.19007">
        <ele>1529</ele>
        <time>2019-06-23T09:36:25.072Z</time>
      </trkpt>
      <trkpt lat="42.92281" lon="0.19008">
        <ele>1532</ele>
        <time>2019-06-23T09:36:26.076Z</time>
      </trkpt>
      <trkpt lat="42.92281" lon="0.19008">
        <ele>1531</ele>
        <time>2019-06-23T09:36:27.076Z</time>
      </trkpt>
      <trkpt lat="42.92281" lon="0.19008">
        <ele>1531</ele>
        <time>2019-06-23T09:36:28.076Z</time>
      </trkpt>
      <trkpt lat="42.92281" lon="0.19008">
        <ele>1531</ele>
        <time>2019-06-23T09:36:29.076Z</time>
      </trkpt>
      <trkpt lat="42.92281" lon="0.19009">
        <ele>1531</ele>
        <time>2019-06-23T09:36:30.076Z</time>
      </trkpt>
      <trkpt lat="42.92281" lon="0.19009">
        <ele>1530</ele>
        <time>2019-06-23T09:36:31.076Z</time>
      </trkpt>
      <trkpt lat="42.92281" lon="0.19009">
        <ele>1531</ele>
        <time>2019-06-23T09:36:32.076Z</time>
      </trkpt>
      <trkpt lat="42.92281" lon="0.19009">
        <ele>1531</ele>
        <time>2019-06-23T09:36:33.076Z</time>
      </trkpt>
      <trkpt lat="42.92281" lon="0.19008">
        <ele>1531</ele>
        <time>2019-06-23T09:36:34.076Z</time>
      </trkpt>
      <trkpt lat="42.92281" lon="0.19009">
        <ele>1532</ele>
        <time>2019-06-23T09:36:35.076Z</time>
      </trkpt>
      <trkpt lat="42.92281" lon="0.19009">
        <ele>1532</ele>
        <time>2019-06-23T09:36:36.076Z</time>
      </trkpt>
      <trkpt lat="42.92282" lon="0.19007">
        <ele>1533</ele>
        <time>2019-06-23T09:36:37.088Z</time>
      </trkpt>
      <trkpt lat="42.92281" lon="0.19007">
        <ele>1531</ele>
        <time>2019-06-23T09:36:38.088Z</time>
      </trkpt>
      <trkpt lat="42.92281" lon="0.19008">
        <ele>1532</ele>
        <time>2019-06-23T09:36:39.088Z</time>
      </trkpt>
      <trkpt lat="42.92281" lon="0.19009">
        <ele>1532</ele>
        <time>2019-06-23T09:36:40.088Z</time>
      </trkpt>
      <trkpt lat="42.9228" lon="0.19009">
        <ele>1533</ele>
        <time>2019-06-23T09:36:41.088Z</time>
      </trkpt>
      <trkpt lat="42.9228" lon="0.1901">
        <ele>1533</ele>
        <time>2019-06-23T09:36:42.088Z</time>
      </trkpt>
      <trkpt lat="42.9228" lon="0.1901">
        <ele>1533</ele>
        <time>2019-06-23T09:36:43.088Z</time>
      </trkpt>
      <trkpt lat="42.92279" lon="0.1901">
        <ele>1533</ele>
        <time>2019-06-23T09:36:44.088Z</time>
      </trkpt>
      <trkpt lat="42.92279" lon="0.1901">
        <ele>1533</ele>
        <time>2019-06-23T09:36:45.088Z</time>
      </trkpt>
      <trkpt lat="42.92279" lon="0.19011">
        <ele>1534</ele>
        <time>2019-06-23T09:36:46.088Z</time>
      </trkpt>
      <trkpt lat="42.92279" lon="0.19009">
        <ele>1529</ele>
        <time>2019-06-23T09:36:47.092Z</time>
      </trkpt>
      <trkpt lat="42.92279" lon="0.19009">
        <ele>1529</ele>
        <time>2019-06-23T09:36:48.092Z</time>
      </trkpt>
      <trkpt lat="42.92279" lon="0.19009">
        <ele>1529</ele>
        <time>2019-06-23T09:36:49.092Z</time>
      </trkpt>
      <trkpt lat="42.92278" lon="0.19009">
        <ele>1529</ele>
        <time>2019-06-23T09:36:50.092Z</time>
      </trkpt>
      <trkpt lat="42.92278" lon="0.19009">
        <ele>1529</ele>
        <time>2019-06-23T09:36:51.092Z</time>
      </trkpt>
      <trkpt lat="42.92278" lon="0.1901">
        <ele>1531</ele>
        <time>2019-06-23T09:36:52.092Z</time>
      </trkpt>
      <trkpt lat="42.92278" lon="0.1901">
        <ele>1531</ele>
        <time>2019-06-23T09:36:53.092Z</time>
      </trkpt>
      <trkpt lat="42.92281" lon="0.19012">
        <ele>1534</ele>
        <time>2019-06-23T09:36:54.096Z</time>
      </trkpt>
      <trkpt lat="42.92281" lon="0.19012">
        <ele>1534</ele>
        <time>2019-06-23T09:36:55.096Z</time>
      </trkpt>
      <trkpt lat="42.92281" lon="0.19011">
        <ele>1533</ele>
        <time>2019-06-23T09:36:56.096Z</time>
      </trkpt>
      <trkpt lat="42.92281" lon="0.19011">
        <ele>1533</ele>
        <time>2019-06-23T09:36:57.096Z</time>
      </trkpt>
      <trkpt lat="42.92281" lon="0.19011">
        <ele>1533</ele>
        <time>2019-06-23T09:36:58.096Z</time>
      </trkpt>
      <trkpt lat="42.92281" lon="0.19012">
        <ele>1533</ele>
        <time>2019-06-23T09:36:59.096Z</time>
      </trkpt>
      <trkpt lat="42.92282" lon="0.19012">
        <ele>1533</ele>
        <time>2019-06-23T09:37:00.096Z</time>
      </trkpt>
      <trkpt lat="42.9228" lon="0.19008">
        <ele>1528</ele>
        <time>2019-06-23T09:37:01.111Z</time>
      </trkpt>
      <trkpt lat="42.9228" lon="0.19007">
        <ele>1528</ele>
        <time>2019-06-23T09:37:02.111Z</time>
      </trkpt>
      <trkpt lat="42.9228" lon="0.19007">
        <ele>1528</ele>
        <time>2019-06-23T09:37:03.111Z</time>
      </trkpt>
      <trkpt lat="42.9228" lon="0.19007">
        <ele>1529</ele>
        <time>2019-06-23T09:37:04.111Z</time>
      </trkpt>
      <trkpt lat="42.9228" lon="0.19007">
        <ele>1529</ele>
        <time>2019-06-23T09:37:05.111Z</time>
      </trkpt>
      <trkpt lat="42.9228" lon="0.19007">
        <ele>1530</ele>
        <time>2019-06-23T09:37:06.111Z</time>
      </trkpt>
      <trkpt lat="42.92282" lon="0.19012">
        <ele>1533</ele>
        <time>2019-06-23T09:37:07.123Z</time>
      </trkpt>
      <trkpt lat="42.92282" lon="0.19013">
        <ele>1533</ele>
        <time>2019-06-23T09:37:08.123Z</time>
      </trkpt>
      <trkpt lat="42.92282" lon="0.19013">
        <ele>1533</ele>
        <time>2019-06-23T09:37:09.123Z</time>
      </trkpt>
      <trkpt lat="42.92282" lon="0.19013">
        <ele>1533</ele>
        <time>2019-06-23T09:37:10.123Z</time>
      </trkpt>
      <trkpt lat="42.92282" lon="0.19014">
        <ele>1533</ele>
        <time>2019-06-23T09:37:11.123Z</time>
      </trkpt>
      <trkpt lat="42.92282" lon="0.19014">
        <ele>1533</ele>
        <time>2019-06-23T09:37:12.123Z</time>
      </trkpt>
      <trkpt lat="42.92278" lon="0.19036">
        <ele>1538</ele>
        <time>2019-06-23T09:37:13.002Z</time>
      </trkpt>
      <trkpt lat="42.92278" lon="0.19038">
        <ele>1538</ele>
        <time>2019-06-23T09:37:14.002Z</time>
      </trkpt>
      <trkpt lat="42.92277" lon="0.1904">
        <ele>1538</ele>
        <time>2019-06-23T09:37:15.002Z</time>
      </trkpt>
      <trkpt lat="42.92277" lon="0.19042">
        <ele>1538</ele>
        <time>2019-06-23T09:37:16.002Z</time>
      </trkpt>
      <trkpt lat="42.92277" lon="0.19043">
        <ele>1538</ele>
        <time>2019-06-23T09:37:17.002Z</time>
      </trkpt>
      <trkpt lat="42.92276" lon="0.19046">
        <ele>1538</ele>
        <time>2019-06-23T09:37:18.002Z</time>
      </trkpt>
      <trkpt lat="42.92275" lon="0.19048">
        <ele>1538</ele>
        <time>2019-06-23T09:37:19.002Z</time>
      </trkpt>
      <trkpt lat="42.92275" lon="0.1905">
        <ele>1538</ele>
        <time>2019-06-23T09:37:20.002Z</time>
      </trkpt>
      <trkpt lat="42.92274" lon="0.19052">
        <ele>1538</ele>
        <time>2019-06-23T09:37:21.002Z</time>
      </trkpt>
      <trkpt lat="42.92273" lon="0.19053">
        <ele>1538</ele>
        <time>2019-06-23T09:37:22.002Z</time>
      </trkpt>
      <trkpt lat="42.92273" lon="0.19054">
        <ele>1538</ele>
        <time>2019-06-23T09:37:23.002Z</time>
      </trkpt>
      <trkpt lat="42.92274" lon="0.19053">
        <ele>1538</ele>
        <time>2019-06-23T09:37:24.002Z</time>
      </trkpt>
      <trkpt lat="42.92275" lon="0.1905">
        <ele>1539</ele>
        <time>2019-06-23T09:37:25.002Z</time>
      </trkpt>
      <trkpt lat="42.92277" lon="0.19046">
        <ele>1539</ele>
        <time>2019-06-23T09:37:26.002Z</time>
      </trkpt>
      <trkpt lat="42.92279" lon="0.19042">
        <ele>1540</ele>
        <time>2019-06-23T09:37:27.002Z</time>
      </trkpt>
      <trkpt lat="42.9228" lon="0.19039">
        <ele>1539</ele>
        <time>2019-06-23T09:37:28.002Z</time>
      </trkpt>
      <trkpt lat="42.92281" lon="0.19037">
        <ele>1539</ele>
        <time>2019-06-23T09:37:29.002Z</time>
      </trkpt>
      <trkpt lat="42.92281" lon="0.19035">
        <ele>1539</ele>
        <time>2019-06-23T09:37:30.002Z</time>
      </trkpt>
      <trkpt lat="42.92283" lon="0.19011">
        <ele>1529</ele>
        <time>2019-06-23T09:37:31.002Z</time>
      </trkpt>
      <trkpt lat="42.92283" lon="0.19011">
        <ele>1529</ele>
        <time>2019-06-23T09:37:32.002Z</time>
      </trkpt>
      <trkpt lat="42.92282" lon="0.19011">
        <ele>1529</ele>
        <time>2019-06-23T09:37:33.002Z</time>
      </trkpt>
      <trkpt lat="42.92282" lon="0.1901">
        <ele>1529</ele>
        <time>2019-06-23T09:37:34.002Z</time>
      </trkpt>
      <trkpt lat="42.92282" lon="0.1901">
        <ele>1529</ele>
        <time>2019-06-23T09:37:35.002Z</time>
      </trkpt>
      <trkpt lat="42.92282" lon="0.1901">
        <ele>1529</ele>
        <time>2019-06-23T09:37:36.002Z</time>
      </trkpt>
      <trkpt lat="42.92282" lon="0.1901">
        <ele>1530</ele>
        <time>2019-06-23T09:37:37.002Z</time>
      </trkpt>
      <trkpt lat="42.92282" lon="0.19011">
        <ele>1529</ele>
        <time>2019-06-23T09:37:38.002Z</time>
      </trkpt>
      <trkpt lat="42.92282" lon="0.19011">
        <ele>1529</ele>
        <time>2019-06-23T09:37:39.002Z</time>
      </trkpt>
      <trkpt lat="42.92281" lon="0.19011">
        <ele>1529</ele>
        <time>2019-06-23T09:37:40.002Z</time>
      </trkpt>
      <trkpt lat="42.92281" lon="0.19012">
        <ele>1530</ele>
        <time>2019-06-23T09:37:41.002Z</time>
      </trkpt>
      <trkpt lat="42.9228" lon="0.19012">
        <ele>1530</ele>
        <time>2019-06-23T09:37:42.002Z</time>
      </trkpt>
      <trkpt lat="42.9228" lon="0.19012">
        <ele>1530</ele>
        <time>2019-06-23T09:37:43.002Z</time>
      </trkpt>
      <trkpt lat="42.92279" lon="0.19011">
        <ele>1530</ele>
        <time>2019-06-23T09:37:44.002Z</time>
      </trkpt>
      <trkpt lat="42.92279" lon="0.19011">
        <ele>1530</ele>
        <time>2019-06-23T09:37:45.002Z</time>
      </trkpt>
      <trkpt lat="42.92279" lon="0.19011">
        <ele>1530</ele>
        <time>2019-06-23T09:37:46.002Z</time>
      </trkpt>
      <trkpt lat="42.92279" lon="0.19011">
        <ele>1530</ele>
        <time>2019-06-23T09:37:47.002Z</time>
      </trkpt>
      <trkpt lat="42.92281" lon="0.19009">
        <ele>1528</ele>
        <time>2019-06-23T09:37:48.123Z</time>
      </trkpt>
      <trkpt lat="42.92281" lon="0.19009">
        <ele>1528</ele>
        <time>2019-06-23T09:37:49.123Z</time>
      </trkpt>
      <trkpt lat="42.92281" lon="0.19009">
        <ele>1528</ele>
        <time>2019-06-23T09:37:50.123Z</time>
      </trkpt>
      <trkpt lat="42.92281" lon="0.19009">
        <ele>1528</ele>
        <time>2019-06-23T09:37:51.123Z</time>
      </trkpt>
      <trkpt lat="42.92281" lon="0.19009">
        <ele>1528</ele>
        <time>2019-06-23T09:37:52.123Z</time>
      </trkpt>
      <trkpt lat="42.92281" lon="0.19009">
        <ele>1528</ele>
        <time>2019-06-23T09:37:53.123Z</time>
      </trkpt>
      <trkpt lat="42.9228" lon="0.19014">
        <ele>1530</ele>
        <time>2019-06-23T09:37:54.002Z</time>
      </trkpt>
      <trkpt lat="42.9228" lon="0.19013">
        <ele>1530</ele>
        <time>2019-06-23T09:37:55.002Z</time>
      </trkpt>
      <trkpt lat="42.9228" lon="0.19013">
        <ele>1530</ele>
        <time>2019-06-23T09:37:56.002Z</time>
      </trkpt>
      <trkpt lat="42.92279" lon="0.19013">
        <ele>1530</ele>
        <time>2019-06-23T09:37:57.002Z</time>
      </trkpt>
      <trkpt lat="42.92279" lon="0.19013">
        <ele>1530</ele>
        <time>2019-06-23T09:37:58.002Z</time>
      </trkpt>
      <trkpt lat="42.92278" lon="0.19007">
        <ele>1528</ele>
        <time>2019-06-23T09:37:59.010Z</time>
      </trkpt>
      <trkpt lat="42.92278" lon="0.19006">
        <ele>1528</ele>
        <time>2019-06-23T09:38:00.010Z</time>
      </trkpt>
      <trkpt lat="42.92278" lon="0.19006">
        <ele>1528</ele>
        <time>2019-06-23T09:38:01.010Z</time>
      </trkpt>
      <trkpt lat="42.92278" lon="0.19006">
        <ele>1528</ele>
        <time>2019-06-23T09:38:02.010Z</time>
      </trkpt>
      <trkpt lat="42.92278" lon="0.19006">
        <ele>1528</ele>
        <time>2019-06-23T09:38:03.010Z</time>
      </trkpt>
      <trkpt lat="42.92278" lon="0.19006">
        <ele>1528</ele>
        <time>2019-06-23T09:38:04.010Z</time>
      </trkpt>
      <trkpt lat="42.9228" lon="0.19003">
        <ele>1533</ele>
        <time>2019-06-23T09:38:05.014Z</time>
      </trkpt>
      <trkpt lat="42.9228" lon="0.19002">
        <ele>1533</ele>
        <time>2019-06-23T09:38:06.014Z</time>
      </trkpt>
      <trkpt lat="42.9228" lon="0.19002">
        <ele>1533</ele>
        <time>2019-06-23T09:38:07.014Z</time>
      </trkpt>
      <trkpt lat="42.9228" lon="0.19002">
        <ele>1534</ele>
        <time>2019-06-23T09:38:08.014Z</time>
      </trkpt>
      <trkpt lat="42.92281" lon="0.19002">
        <ele>1534</ele>
        <time>2019-06-23T09:38:09.014Z</time>
      </trkpt>
      <trkpt lat="42.92281" lon="0.19002">
        <ele>1534</ele>
        <time>2019-06-23T09:38:10.014Z</time>
      </trkpt>
      <trkpt lat="42.9227" lon="0.19016">
        <ele>1519</ele>
        <time>2019-06-23T09:38:11.018Z</time>
      </trkpt>
      <trkpt lat="42.9227" lon="0.19015">
        <ele>1520</ele>
        <time>2019-06-23T09:38:12.018Z</time>
      </trkpt>
      <trkpt lat="42.92271" lon="0.19015">
        <ele>1521</ele>
        <time>2019-06-23T09:38:13.018Z</time>
      </trkpt>
      <trkpt lat="42.92271" lon="0.19014">
        <ele>1521</ele>
        <time>2019-06-23T09:38:14.018Z</time>
      </trkpt>
      <trkpt lat="42.92271" lon="0.19014">
        <ele>1522</ele>
        <time>2019-06-23T09:38:15.018Z</time>
      </trkpt>
      <trkpt lat="42.92272" lon="0.19013">
        <ele>1522</ele>
        <time>2019-06-23T09:38:16.018Z</time>
      </trkpt>
      <trkpt lat="42.92276" lon="0.19012">
        <ele>1531</ele>
        <time>2019-06-23T09:38:17.014Z</time>
      </trkpt>
      <trkpt lat="42.92276" lon="0.19012">
        <ele>1531</ele>
        <time>2019-06-23T09:38:18.014Z</time>
      </trkpt>
      <trkpt lat="42.92276" lon="0.19012">
        <ele>1531</ele>
        <time>2019-06-23T09:38:19.014Z</time>
      </trkpt>
      <trkpt lat="42.92276" lon="0.19012">
        <ele>1531</ele>
        <time>2019-06-23T09:38:20.014Z</time>
      </trkpt>
      <trkpt lat="42.92275" lon="0.19013">
        <ele>1531</ele>
        <time>2019-06-23T09:38:21.014Z</time>
      </trkpt>
      <trkpt lat="42.92275" lon="0.19016">
        <ele>1531</ele>
        <time>2019-06-23T09:38:22.022Z</time>
      </trkpt>
      <trkpt lat="42.92275" lon="0.19016">
        <ele>1531</ele>
        <time>2019-06-23T09:38:23.022Z</time>
      </trkpt>
      <trkpt lat="42.92275" lon="0.19016">
        <ele>1530</ele>
        <time>2019-06-23T09:38:24.022Z</time>
      </trkpt>
      <trkpt lat="42.92276" lon="0.19015">
        <ele>1530</ele>
        <time>2019-06-23T09:38:25.022Z</time>
      </trkpt>
      <trkpt lat="42.92277" lon="0.19015">
        <ele>1530</ele>
        <time>2019-06-23T09:38:26.022Z</time>
      </trkpt>
      <trkpt lat="42.92277" lon="0.19015">
        <ele>1530</ele>
        <time>2019-06-23T09:38:27.022Z</time>
      </trkpt>
      <trkpt lat="42.92282" lon="0.19012">
        <ele>1526</ele>
        <time>2019-06-23T09:38:28.030Z</time>
      </trkpt>
      <trkpt lat="42.92282" lon="0.19012">
        <ele>1526</ele>
        <time>2019-06-23T09:38:29.030Z</time>
      </trkpt>
      <trkpt lat="42.92282" lon="0.19013">
        <ele>1526</ele>
        <time>2019-06-23T09:38:30.030Z</time>
      </trkpt>
      <trkpt lat="42.92282" lon="0.19013">
        <ele>1526</ele>
        <time>2019-06-23T09:38:31.030Z</time>
      </trkpt>
      <trkpt lat="42.92283" lon="0.19013">
        <ele>1526</ele>
        <time>2019-06-23T09:38:32.030Z</time>
      </trkpt>
      <trkpt lat="42.92283" lon="0.19013">
        <ele>1526</ele>
        <time>2019-06-23T09:38:33.030Z</time>
      </trkpt>
      <trkpt lat="42.92283" lon="0.19013">
        <ele>1526</ele>
        <time>2019-06-23T09:38:34.030Z</time>
      </trkpt>
      <trkpt lat="42.92284" lon="0.19013">
        <ele>1526</ele>
        <time>2019-06-23T09:38:35.030Z</time>
      </trkpt>
      <trkpt lat="42.92284" lon="0.19014">
        <ele>1526</ele>
        <time>2019-06-23T09:38:36.030Z</time>
      </trkpt>
      <trkpt lat="42.92284" lon="0.19014">
        <ele>1526</ele>
        <time>2019-06-23T09:38:37.030Z</time>
      </trkpt>
      <trkpt lat="42.92284" lon="0.19014">
        <ele>1526</ele>
        <time>2019-06-23T09:38:38.030Z</time>
      </trkpt>
      <trkpt lat="42.92288" lon="0.19015">
        <ele>1527</ele>
        <time>2019-06-23T09:38:39.038Z</time>
      </trkpt>
      <trkpt lat="42.92289" lon="0.19015">
        <ele>1527</ele>
        <time>2019-06-23T09:38:40.038Z</time>
      </trkpt>
      <trkpt lat="42.92289" lon="0.19015">
        <ele>1527</ele>
        <time>2019-06-23T09:38:41.038Z</time>
      </trkpt>
      <trkpt lat="42.92289" lon="0.19015">
        <ele>1527</ele>
        <time>2019-06-23T09:38:42.038Z</time>
      </trkpt>
      <trkpt lat="42.9229" lon="0.19015">
        <ele>1527</ele>
        <time>2019-06-23T09:38:43.038Z</time>
      </trkpt>
      <trkpt lat="42.9229" lon="0.19015">
        <ele>1527</ele>
        <time>2019-06-23T09:38:44.038Z</time>
      </trkpt>
      <trkpt lat="42.9229" lon="0.19015">
        <ele>1527</ele>
        <time>2019-06-23T09:38:45.038Z</time>
      </trkpt>
      <trkpt lat="42.92294" lon="0.19014">
        <ele>1527</ele>
        <time>2019-06-23T09:38:46.042Z</time>
      </trkpt>
      <trkpt lat="42.92294" lon="0.19014">
        <ele>1527</ele>
        <time>2019-06-23T09:38:47.042Z</time>
      </trkpt>
      <trkpt lat="42.92295" lon="0.19014">
        <ele>1527</ele>
        <time>2019-06-23T09:38:48.042Z</time>
      </trkpt>
      <trkpt lat="42.92295" lon="0.19014">
        <ele>1527</ele>
        <time>2019-06-23T09:38:49.042Z</time>
      </trkpt>
      <trkpt lat="42.92295" lon="0.19014">
        <ele>1527</ele>
        <time>2019-06-23T09:38:50.042Z</time>
      </trkpt>
      <trkpt lat="42.92296" lon="0.19014">
        <ele>1526</ele>
        <time>2019-06-23T09:38:51.042Z</time>
      </trkpt>
      <trkpt lat="42.92296" lon="0.19014">
        <ele>1526</ele>
        <time>2019-06-23T09:38:52.042Z</time>
      </trkpt>
      <trkpt lat="42.92297" lon="0.19013">
        <ele>1526</ele>
        <time>2019-06-23T09:38:53.042Z</time>
      </trkpt>
      <trkpt lat="42.92297" lon="0.19013">
        <ele>1526</ele>
        <time>2019-06-23T09:38:54.042Z</time>
      </trkpt>
      <trkpt lat="42.92298" lon="0.19013">
        <ele>1526</ele>
        <time>2019-06-23T09:38:55.042Z</time>
      </trkpt>
      <trkpt lat="42.92298" lon="0.19013">
        <ele>1526</ele>
        <time>2019-06-23T09:38:56.042Z</time>
      </trkpt>
      <trkpt lat="42.92298" lon="0.19013">
        <ele>1526</ele>
        <time>2019-06-23T09:38:57.042Z</time>
      </trkpt>
      <trkpt lat="42.92299" lon="0.19013">
        <ele>1526</ele>
        <time>2019-06-23T09:38:58.042Z</time>
      </trkpt>
      <trkpt lat="42.92299" lon="0.19013">
        <ele>1526</ele>
        <time>2019-06-23T09:38:59.042Z</time>
      </trkpt>
      <trkpt lat="42.923" lon="0.19013">
        <ele>1526</ele>
        <time>2019-06-23T09:39:00.042Z</time>
      </trkpt>
      <trkpt lat="42.923" lon="0.19013">
        <ele>1526</ele>
        <time>2019-06-23T09:39:01.042Z</time>
      </trkpt>
      <trkpt lat="42.92301" lon="0.19012">
        <ele>1525</ele>
        <time>2019-06-23T09:39:02.042Z</time>
      </trkpt>
      <trkpt lat="42.92302" lon="0.19012">
        <ele>1525</ele>
        <time>2019-06-23T09:39:03.042Z</time>
      </trkpt>
      <trkpt lat="42.92302" lon="0.19012">
        <ele>1525</ele>
        <time>2019-06-23T09:39:04.042Z</time>
      </trkpt>
      <trkpt lat="42.92303" lon="0.19012">
        <ele>1525</ele>
        <time>2019-06-23T09:39:05.042Z</time>
      </trkpt>
      <trkpt lat="42.92303" lon="0.19012">
        <ele>1525</ele>
        <time>2019-06-23T09:39:06.042Z</time>
      </trkpt>
      <trkpt lat="42.92304" lon="0.19011">
        <ele>1525</ele>
        <time>2019-06-23T09:39:07.042Z</time>
      </trkpt>
      <trkpt lat="42.92304" lon="0.19011">
        <ele>1525</ele>
        <time>2019-06-23T09:39:08.042Z</time>
      </trkpt>
      <trkpt lat="42.92305" lon="0.19011">
        <ele>1525</ele>
        <time>2019-06-23T09:39:09.042Z</time>
      </trkpt>
      <trkpt lat="42.92305" lon="0.1901">
        <ele>1525</ele>
        <time>2019-06-23T09:39:10.042Z</time>
      </trkpt>
      <trkpt lat="42.92306" lon="0.1901">
        <ele>1525</ele>
        <time>2019-06-23T09:39:11.042Z</time>
      </trkpt>
      <trkpt lat="42.92306" lon="0.19009">
        <ele>1525</ele>
        <time>2019-06-23T09:39:12.042Z</time>
      </trkpt>
      <trkpt lat="42.92307" lon="0.19009">
        <ele>1525</ele>
        <time>2019-06-23T09:39:13.042Z</time>
      </trkpt>
      <trkpt lat="42.92307" lon="0.19008">
        <ele>1525</ele>
        <time>2019-06-23T09:39:14.042Z</time>
      </trkpt>
      <trkpt lat="42.92308" lon="0.19008">
        <ele>1525</ele>
        <time>2019-06-23T09:39:15.042Z</time>
      </trkpt>
      <trkpt lat="42.92308" lon="0.19008">
        <ele>1525</ele>
        <time>2019-06-23T09:39:16.042Z</time>
      </trkpt>
      <trkpt lat="42.92309" lon="0.19007">
        <ele>1525</ele>
        <time>2019-06-23T09:39:17.042Z</time>
      </trkpt>
      <trkpt lat="42.9231" lon="0.19007">
        <ele>1525</ele>
        <time>2019-06-23T09:39:18.042Z</time>
      </trkpt>
      <trkpt lat="42.9231" lon="0.19007">
        <ele>1525</ele>
        <time>2019-06-23T09:39:19.042Z</time>
      </trkpt>
      <trkpt lat="42.92311" lon="0.19006">
        <ele>1525</ele>
        <time>2019-06-23T09:39:20.042Z</time>
      </trkpt>
      <trkpt lat="42.92311" lon="0.19006">
        <ele>1525</ele>
        <time>2019-06-23T09:39:21.042Z</time>
      </trkpt>
      <trkpt lat="42.92312" lon="0.19006">
        <ele>1525</ele>
        <time>2019-06-23T09:39:22.042Z</time>
      </trkpt>
      <trkpt lat="42.92312" lon="0.19005">
        <ele>1525</ele>
        <time>2019-06-23T09:39:23.042Z</time>
      </trkpt>
      <trkpt lat="42.92313" lon="0.19005">
        <ele>1525</ele>
        <time>2019-06-23T09:39:24.042Z</time>
      </trkpt>
      <trkpt lat="42.92313" lon="0.19005">
        <ele>1525</ele>
        <time>2019-06-23T09:39:25.042Z</time>
      </trkpt>
      <trkpt lat="42.92314" lon="0.19005">
        <ele>1525</ele>
        <time>2019-06-23T09:39:26.042Z</time>
      </trkpt>
      <trkpt lat="42.92314" lon="0.19005">
        <ele>1524</ele>
        <time>2019-06-23T09:39:27.042Z</time>
      </trkpt>
      <trkpt lat="42.92315" lon="0.19005">
        <ele>1524</ele>
        <time>2019-06-23T09:39:28.042Z</time>
      </trkpt>
      <trkpt lat="42.92316" lon="0.19005">
        <ele>1524</ele>
        <time>2019-06-23T09:39:29.042Z</time>
      </trkpt>
      <trkpt lat="42.92316" lon="0.19005">
        <ele>1524</ele>
        <time>2019-06-23T09:39:30.042Z</time>
      </trkpt>
      <trkpt lat="42.92317" lon="0.19005">
        <ele>1524</ele>
        <time>2019-06-23T09:39:31.042Z</time>
      </trkpt>
      <trkpt lat="42.92317" lon="0.19005">
        <ele>1524</ele>
        <time>2019-06-23T09:39:32.042Z</time>
      </trkpt>
      <trkpt lat="42.92318" lon="0.19005">
        <ele>1524</ele>
        <time>2019-06-23T09:39:33.042Z</time>
      </trkpt>
      <trkpt lat="42.92318" lon="0.19005">
        <ele>1524</ele>
        <time>2019-06-23T09:39:34.042Z</time>
      </trkpt>
      <trkpt lat="42.92319" lon="0.19005">
        <ele>1523</ele>
        <time>2019-06-23T09:39:35.042Z</time>
      </trkpt>
      <trkpt lat="42.92319" lon="0.19005">
        <ele>1523</ele>
        <time>2019-06-23T09:39:36.042Z</time>
      </trkpt>
      <trkpt lat="42.9232" lon="0.19004">
        <ele>1523</ele>
        <time>2019-06-23T09:39:37.042Z</time>
      </trkpt>
      <trkpt lat="42.92321" lon="0.19004">
        <ele>1523</ele>
        <time>2019-06-23T09:39:38.042Z</time>
      </trkpt>
      <trkpt lat="42.92321" lon="0.19004">
        <ele>1523</ele>
        <time>2019-06-23T09:39:39.042Z</time>
      </trkpt>
      <trkpt lat="42.92322" lon="0.19004">
        <ele>1523</ele>
        <time>2019-06-23T09:39:40.042Z</time>
      </trkpt>
      <trkpt lat="42.92322" lon="0.19004">
        <ele>1523</ele>
        <time>2019-06-23T09:39:41.042Z</time>
      </trkpt>
      <trkpt lat="42.92323" lon="0.19004">
        <ele>1523</ele>
        <time>2019-06-23T09:39:42.042Z</time>
      </trkpt>
      <trkpt lat="42.92323" lon="0.19004">
        <ele>1523</ele>
        <time>2019-06-23T09:39:43.042Z</time>
      </trkpt>
      <trkpt lat="42.92323" lon="0.19004">
        <ele>1523</ele>
        <time>2019-06-23T09:39:44.042Z</time>
      </trkpt>
      <trkpt lat="42.92324" lon="0.19004">
        <ele>1522</ele>
        <time>2019-06-23T09:39:45.042Z</time>
      </trkpt>
      <trkpt lat="42.92325" lon="0.19004">
        <ele>1522</ele>
        <time>2019-06-23T09:39:46.042Z</time>
      </trkpt>
      <trkpt lat="42.92325" lon="0.19005">
        <ele>1522</ele>
        <time>2019-06-23T09:39:47.042Z</time>
      </trkpt>
      <trkpt lat="42.92326" lon="0.19005">
        <ele>1522</ele>
        <time>2019-06-23T09:39:48.042Z</time>
      </trkpt>
      <trkpt lat="42.92326" lon="0.19005">
        <ele>1522</ele>
        <time>2019-06-23T09:39:49.042Z</time>
      </trkpt>
      <trkpt lat="42.92327" lon="0.19005">
        <ele>1523</ele>
        <time>2019-06-23T09:39:50.042Z</time>
      </trkpt>
      <trkpt lat="42.92327" lon="0.19004">
        <ele>1523</ele>
        <time>2019-06-23T09:39:51.042Z</time>
      </trkpt>
      <trkpt lat="42.92327" lon="0.19004">
        <ele>1523</ele>
        <time>2019-06-23T09:39:52.042Z</time>
      </trkpt>
      <trkpt lat="42.92327" lon="0.19004">
        <ele>1523</ele>
        <time>2019-06-23T09:39:53.042Z</time>
      </trkpt>
      <trkpt lat="42.92327" lon="0.19004">
        <ele>1523</ele>
        <time>2019-06-23T09:39:54.042Z</time>
      </trkpt>
      <trkpt lat="42.92327" lon="0.19004">
        <ele>1523</ele>
        <time>2019-06-23T09:39:55.042Z</time>
      </trkpt>
      <trkpt lat="42.92331" lon="0.19001">
        <ele>1525</ele>
        <time>2019-06-23T09:39:56.046Z</time>
      </trkpt>
      <trkpt lat="42.92331" lon="0.19001">
        <ele>1524</ele>
        <time>2019-06-23T09:39:57.046Z</time>
      </trkpt>
      <trkpt lat="42.92332" lon="0.19001">
        <ele>1524</ele>
        <time>2019-06-23T09:39:58.046Z</time>
      </trkpt>
      <trkpt lat="42.92333" lon="0.19001">
        <ele>1524</ele>
        <time>2019-06-23T09:39:59.046Z</time>
      </trkpt>
      <trkpt lat="42.92333" lon="0.19001">
        <ele>1525</ele>
        <time>2019-06-23T09:40:00.046Z</time>
      </trkpt>
      <trkpt lat="42.92334" lon="0.19001">
        <ele>1525</ele>
        <time>2019-06-23T09:40:01.046Z</time>
      </trkpt>
      <trkpt lat="42.92335" lon="0.19001">
        <ele>1525</ele>
        <time>2019-06-23T09:40:02.046Z</time>
      </trkpt>
      <trkpt lat="42.92336" lon="0.19">
        <ele>1524</ele>
        <time>2019-06-23T09:40:03.046Z</time>
      </trkpt>
      <trkpt lat="42.92336" lon="0.19">
        <ele>1524</ele>
        <time>2019-06-23T09:40:04.046Z</time>
      </trkpt>
      <trkpt lat="42.92336" lon="0.19">
        <ele>1524</ele>
        <time>2019-06-23T09:40:05.046Z</time>
      </trkpt>
      <trkpt lat="42.92337" lon="0.19">
        <ele>1524</ele>
        <time>2019-06-23T09:40:06.046Z</time>
      </trkpt>
      <trkpt lat="42.92336" lon="0.18999">
        <ele>1524</ele>
        <time>2019-06-23T09:40:07.046Z</time>
      </trkpt>
      <trkpt lat="42.92336" lon="0.18999">
        <ele>1523</ele>
        <time>2019-06-23T09:40:08.046Z</time>
      </trkpt>
      <trkpt lat="42.92337" lon="0.18999">
        <ele>1523</ele>
        <time>2019-06-23T09:40:09.046Z</time>
      </trkpt>
      <trkpt lat="42.92338" lon="0.18999">
        <ele>1523</ele>
        <time>2019-06-23T09:40:10.046Z</time>
      </trkpt>
      <trkpt lat="42.92343" lon="0.19001">
        <ele>1518</ele>
        <time>2019-06-23T09:40:11.050Z</time>
      </trkpt>
      <trkpt lat="42.92344" lon="0.19001">
        <ele>1518</ele>
        <time>2019-06-23T09:40:12.050Z</time>
      </trkpt>
      <trkpt lat="42.92344" lon="0.19001">
        <ele>1517</ele>
        <time>2019-06-23T09:40:13.050Z</time>
      </trkpt>
      <trkpt lat="42.92345" lon="0.19002">
        <ele>1517</ele>
        <time>2019-06-23T09:40:14.050Z</time>
      </trkpt>
      <trkpt lat="42.92345" lon="0.19002">
        <ele>1516</ele>
        <time>2019-06-23T09:40:15.050Z</time>
      </trkpt>
      <trkpt lat="42.92346" lon="0.19002">
        <ele>1516</ele>
        <time>2019-06-23T09:40:16.050Z</time>
      </trkpt>
      <trkpt lat="42.92346" lon="0.19002">
        <ele>1515</ele>
        <time>2019-06-23T09:40:17.050Z</time>
      </trkpt>
      <trkpt lat="42.92347" lon="0.19002">
        <ele>1515</ele>
        <time>2019-06-23T09:40:18.050Z</time>
      </trkpt>
      <trkpt lat="42.92348" lon="0.19001">
        <ele>1515</ele>
        <time>2019-06-23T09:40:19.050Z</time>
      </trkpt>
      <trkpt lat="42.92349" lon="0.19002">
        <ele>1513</ele>
        <time>2019-06-23T09:40:20.050Z</time>
      </trkpt>
      <trkpt lat="42.9235" lon="0.19002">
        <ele>1512</ele>
        <time>2019-06-23T09:40:21.050Z</time>
      </trkpt>
      <trkpt lat="42.9235" lon="0.19002">
        <ele>1511</ele>
        <time>2019-06-23T09:40:22.050Z</time>
      </trkpt>
      <trkpt lat="42.92351" lon="0.19002">
        <ele>1511</ele>
        <time>2019-06-23T09:40:23.050Z</time>
      </trkpt>
      <trkpt lat="42.92351" lon="0.19002">
        <ele>1510</ele>
        <time>2019-06-23T09:40:24.050Z</time>
      </trkpt>
      <trkpt lat="42.92351" lon="0.19001">
        <ele>1509</ele>
        <time>2019-06-23T09:40:25.050Z</time>
      </trkpt>
      <trkpt lat="42.92352" lon="0.19001">
        <ele>1509</ele>
        <time>2019-06-23T09:40:26.050Z</time>
      </trkpt>
      <trkpt lat="42.92352" lon="0.19001">
        <ele>1508</ele>
        <time>2019-06-23T09:40:27.050Z</time>
      </trkpt>
      <trkpt lat="42.92353" lon="0.19001">
        <ele>1508</ele>
        <time>2019-06-23T09:40:28.050Z</time>
      </trkpt>
      <trkpt lat="42.92353" lon="0.19001">
        <ele>1508</ele>
        <time>2019-06-23T09:40:29.050Z</time>
      </trkpt>
      <trkpt lat="42.92353" lon="0.19001">
        <ele>1507</ele>
        <time>2019-06-23T09:40:30.050Z</time>
      </trkpt>
      <trkpt lat="42.92353" lon="0.19001">
        <ele>1507</ele>
        <time>2019-06-23T09:40:31.050Z</time>
      </trkpt>
      <trkpt lat="42.92354" lon="0.19001">
        <ele>1507</ele>
        <time>2019-06-23T09:40:32.050Z</time>
      </trkpt>
      <trkpt lat="42.92354" lon="0.19001">
        <ele>1507</ele>
        <time>2019-06-23T09:40:33.050Z</time>
      </trkpt>
      <trkpt lat="42.92354" lon="0.19001">
        <ele>1506</ele>
        <time>2019-06-23T09:40:34.050Z</time>
      </trkpt>
      <trkpt lat="42.92354" lon="0.19001">
        <ele>1506</ele>
        <time>2019-06-23T09:40:35.050Z</time>
      </trkpt>
      <trkpt lat="42.92355" lon="0.19001">
        <ele>1505</ele>
        <time>2019-06-23T09:40:36.050Z</time>
      </trkpt>
      <trkpt lat="42.92355" lon="0.19">
        <ele>1505</ele>
        <time>2019-06-23T09:40:37.050Z</time>
      </trkpt>
      <trkpt lat="42.92364" lon="0.19">
        <ele>1503</ele>
        <time>2019-06-23T09:40:38.054Z</time>
      </trkpt>
      <trkpt lat="42.92365" lon="0.19">
        <ele>1503</ele>
        <time>2019-06-23T09:40:39.054Z</time>
      </trkpt>
      <trkpt lat="42.92366" lon="0.18999">
        <ele>1503</ele>
        <time>2019-06-23T09:40:40.054Z</time>
      </trkpt>
      <trkpt lat="42.92366" lon="0.18999">
        <ele>1503</ele>
        <time>2019-06-23T09:40:41.054Z</time>
      </trkpt>
      <trkpt lat="42.92366" lon="0.18999">
        <ele>1503</ele>
        <time>2019-06-23T09:40:42.054Z</time>
      </trkpt>
      <trkpt lat="42.92367" lon="0.18998">
        <ele>1503</ele>
        <time>2019-06-23T09:40:43.054Z</time>
      </trkpt>
      <trkpt lat="42.92367" lon="0.18998">
        <ele>1503</ele>
        <time>2019-06-23T09:40:44.054Z</time>
      </trkpt>
      <trkpt lat="42.92368" lon="0.18998">
        <ele>1504</ele>
        <time>2019-06-23T09:40:45.054Z</time>
      </trkpt>
      <trkpt lat="42.92368" lon="0.18998">
        <ele>1504</ele>
        <time>2019-06-23T09:40:46.054Z</time>
      </trkpt>
      <trkpt lat="42.92368" lon="0.18998">
        <ele>1504</ele>
        <time>2019-06-23T09:40:47.054Z</time>
      </trkpt>
      <trkpt lat="42.92369" lon="0.18998">
        <ele>1504</ele>
        <time>2019-06-23T09:40:48.054Z</time>
      </trkpt>
      <trkpt lat="42.92369" lon="0.18998">
        <ele>1504</ele>
        <time>2019-06-23T09:40:49.054Z</time>
      </trkpt>
      <trkpt lat="42.92369" lon="0.18998">
        <ele>1504</ele>
        <time>2019-06-23T09:40:50.054Z</time>
      </trkpt>
      <trkpt lat="42.9237" lon="0.18998">
        <ele>1504</ele>
        <time>2019-06-23T09:40:51.054Z</time>
      </trkpt>
      <trkpt lat="42.9237" lon="0.18998">
        <ele>1504</ele>
        <time>2019-06-23T09:40:52.054Z</time>
      </trkpt>
      <trkpt lat="42.92371" lon="0.18998">
        <ele>1506</ele>
        <time>2019-06-23T09:40:53.054Z</time>
      </trkpt>
      <trkpt lat="42.92372" lon="0.18998">
        <ele>1506</ele>
        <time>2019-06-23T09:40:54.054Z</time>
      </trkpt>
      <trkpt lat="42.92373" lon="0.18998">
        <ele>1506</ele>
        <time>2019-06-23T09:40:55.054Z</time>
      </trkpt>
      <trkpt lat="42.92373" lon="0.18998">
        <ele>1506</ele>
        <time>2019-06-23T09:40:56.054Z</time>
      </trkpt>
      <trkpt lat="42.92374" lon="0.18998">
        <ele>1506</ele>
        <time>2019-06-23T09:40:57.054Z</time>
      </trkpt>
      <trkpt lat="42.92374" lon="0.18998">
        <ele>1506</ele>
        <time>2019-06-23T09:40:58.054Z</time>
      </trkpt>
      <trkpt lat="42.92375" lon="0.18997">
        <ele>1506</ele>
        <time>2019-06-23T09:40:59.054Z</time>
      </trkpt>
      <trkpt lat="42.92376" lon="0.18997">
        <ele>1506</ele>
        <time>2019-06-23T09:41:00.054Z</time>
      </trkpt>
      <trkpt lat="42.92377" lon="0.18997">
        <ele>1506</ele>
        <time>2019-06-23T09:41:01.054Z</time>
      </trkpt>
      <trkpt lat="42.92378" lon="0.18997">
        <ele>1507</ele>
        <time>2019-06-23T09:41:02.054Z</time>
      </trkpt>
      <trkpt lat="42.9238" lon="0.18997">
        <ele>1507</ele>
        <time>2019-06-23T09:41:03.054Z</time>
      </trkpt>
      <trkpt lat="42.9238" lon="0.18998">
        <ele>1507</ele>
        <time>2019-06-23T09:41:04.054Z</time>
      </trkpt>
      <trkpt lat="42.92381" lon="0.18998">
        <ele>1507</ele>
        <time>2019-06-23T09:41:05.054Z</time>
      </trkpt>
      <trkpt lat="42.92382" lon="0.18999">
        <ele>1507</ele>
        <time>2019-06-23T09:41:06.054Z</time>
      </trkpt>
      <trkpt lat="42.92383" lon="0.19">
        <ele>1507</ele>
        <time>2019-06-23T09:41:07.054Z</time>
      </trkpt>
      <trkpt lat="42.92384" lon="0.19001">
        <ele>1507</ele>
        <time>2019-06-23T09:41:08.054Z</time>
      </trkpt>
      <trkpt lat="42.92384" lon="0.19002">
        <ele>1507</ele>
        <time>2019-06-23T09:41:09.054Z</time>
      </trkpt>
      <trkpt lat="42.92385" lon="0.19003">
        <ele>1507</ele>
        <time>2019-06-23T09:41:10.054Z</time>
      </trkpt>
      <trkpt lat="42.92385" lon="0.19004">
        <ele>1507</ele>
        <time>2019-06-23T09:41:11.054Z</time>
      </trkpt>
      <trkpt lat="42.92386" lon="0.19005">
        <ele>1507</ele>
        <time>2019-06-23T09:41:12.054Z</time>
      </trkpt>
      <trkpt lat="42.92387" lon="0.19006">
        <ele>1507</ele>
        <time>2019-06-23T09:41:13.054Z</time>
      </trkpt>
      <trkpt lat="42.92387" lon="0.19007">
        <ele>1507</ele>
        <time>2019-06-23T09:41:14.054Z</time>
      </trkpt>
      <trkpt lat="42.92387" lon="0.19008">
        <ele>1507</ele>
        <time>2019-06-23T09:41:15.054Z</time>
      </trkpt>
      <trkpt lat="42.92387" lon="0.19009">
        <ele>1507</ele>
        <time>2019-06-23T09:41:16.054Z</time>
      </trkpt>
      <trkpt lat="42.92387" lon="0.1901">
        <ele>1507</ele>
        <time>2019-06-23T09:41:17.054Z</time>
      </trkpt>
      <trkpt lat="42.92387" lon="0.19011">
        <ele>1507</ele>
        <time>2019-06-23T09:41:18.054Z</time>
      </trkpt>
      <trkpt lat="42.92387" lon="0.19012">
        <ele>1507</ele>
        <time>2019-06-23T09:41:19.054Z</time>
      </trkpt>
      <trkpt lat="42.92388" lon="0.19013">
        <ele>1507</ele>
        <time>2019-06-23T09:41:20.054Z</time>
      </trkpt>
      <trkpt lat="42.92388" lon="0.19013">
        <ele>1507</ele>
        <time>2019-06-23T09:41:21.054Z</time>
      </trkpt>
      <trkpt lat="42.92388" lon="0.19014">
        <ele>1507</ele>
        <time>2019-06-23T09:41:22.054Z</time>
      </trkpt>
      <trkpt lat="42.92388" lon="0.19015">
        <ele>1507</ele>
        <time>2019-06-23T09:41:23.054Z</time>
      </trkpt>
      <trkpt lat="42.92388" lon="0.19016">
        <ele>1507</ele>
        <time>2019-06-23T09:41:24.054Z</time>
      </trkpt>
      <trkpt lat="42.92389" lon="0.19017">
        <ele>1506</ele>
        <time>2019-06-23T09:41:25.054Z</time>
      </trkpt>
      <trkpt lat="42.92389" lon="0.19017">
        <ele>1506</ele>
        <time>2019-06-23T09:41:26.054Z</time>
      </trkpt>
      <trkpt lat="42.92389" lon="0.19018">
        <ele>1506</ele>
        <time>2019-06-23T09:41:27.054Z</time>
      </trkpt>
      <trkpt lat="42.92389" lon="0.19018">
        <ele>1506</ele>
        <time>2019-06-23T09:41:28.054Z</time>
      </trkpt>
      <trkpt lat="42.92389" lon="0.19019">
        <ele>1506</ele>
        <time>2019-06-23T09:41:29.054Z</time>
      </trkpt>
      <trkpt lat="42.92389" lon="0.19019">
        <ele>1506</ele>
        <time>2019-06-23T09:41:30.054Z</time>
      </trkpt>
      <trkpt lat="42.92389" lon="0.1902">
        <ele>1506</ele>
        <time>2019-06-23T09:41:31.054Z</time>
      </trkpt>
      <trkpt lat="42.92389" lon="0.1902">
        <ele>1506</ele>
        <time>2019-06-23T09:41:32.054Z</time>
      </trkpt>
      <trkpt lat="42.92389" lon="0.19021">
        <ele>1506</ele>
        <time>2019-06-23T09:41:33.054Z</time>
      </trkpt>
      <trkpt lat="42.92389" lon="0.19022">
        <ele>1506</ele>
        <time>2019-06-23T09:41:34.054Z</time>
      </trkpt>
      <trkpt lat="42.92389" lon="0.19023">
        <ele>1506</ele>
        <time>2019-06-23T09:41:35.054Z</time>
      </trkpt>
      <trkpt lat="42.92389" lon="0.19024">
        <ele>1506</ele>
        <time>2019-06-23T09:41:36.054Z</time>
      </trkpt>
      <trkpt lat="42.92389" lon="0.19024">
        <ele>1506</ele>
        <time>2019-06-23T09:41:37.054Z</time>
      </trkpt>
      <trkpt lat="42.92389" lon="0.19025">
        <ele>1506</ele>
        <time>2019-06-23T09:41:38.054Z</time>
      </trkpt>
      <trkpt lat="42.9239" lon="0.19026">
        <ele>1506</ele>
        <time>2019-06-23T09:41:39.054Z</time>
      </trkpt>
      <trkpt lat="42.9239" lon="0.19027">
        <ele>1506</ele>
        <time>2019-06-23T09:41:40.054Z</time>
      </trkpt>
      <trkpt lat="42.9239" lon="0.19028">
        <ele>1506</ele>
        <time>2019-06-23T09:41:41.054Z</time>
      </trkpt>
      <trkpt lat="42.92391" lon="0.19029">
        <ele>1506</ele>
        <time>2019-06-23T09:41:42.054Z</time>
      </trkpt>
      <trkpt lat="42.92391" lon="0.19029">
        <ele>1505</ele>
        <time>2019-06-23T09:41:43.054Z</time>
      </trkpt>
      <trkpt lat="42.92392" lon="0.19029">
        <ele>1505</ele>
        <time>2019-06-23T09:41:44.054Z</time>
      </trkpt>
      <trkpt lat="42.92392" lon="0.1903">
        <ele>1505</ele>
        <time>2019-06-23T09:41:45.054Z</time>
      </trkpt>
      <trkpt lat="42.92392" lon="0.1903">
        <ele>1505</ele>
        <time>2019-06-23T09:41:46.054Z</time>
      </trkpt>
      <trkpt lat="42.92392" lon="0.19029">
        <ele>1504</ele>
        <time>2019-06-23T09:41:47.054Z</time>
      </trkpt>
      <trkpt lat="42.92392" lon="0.19029">
        <ele>1503</ele>
        <time>2019-06-23T09:41:48.054Z</time>
      </trkpt>
      <trkpt lat="42.92392" lon="0.19029">
        <ele>1502</ele>
        <time>2019-06-23T09:41:49.054Z</time>
      </trkpt>
      <trkpt lat="42.92391" lon="0.19028">
        <ele>1501</ele>
        <time>2019-06-23T09:41:50.054Z</time>
      </trkpt>
      <trkpt lat="42.92391" lon="0.19028">
        <ele>1500</ele>
        <time>2019-06-23T09:41:51.054Z</time>
      </trkpt>
      <trkpt lat="42.92391" lon="0.19027">
        <ele>1500</ele>
        <time>2019-06-23T09:41:52.054Z</time>
      </trkpt>
      <trkpt lat="42.92391" lon="0.19026">
        <ele>1500</ele>
        <time>2019-06-23T09:41:53.054Z</time>
      </trkpt>
      <trkpt lat="42.92391" lon="0.19026">
        <ele>1499</ele>
        <time>2019-06-23T09:41:54.054Z</time>
      </trkpt>
      <trkpt lat="42.92392" lon="0.19025">
        <ele>1499</ele>
        <time>2019-06-23T09:41:55.054Z</time>
      </trkpt>
      <trkpt lat="42.92392" lon="0.19025">
        <ele>1498</ele>
        <time>2019-06-23T09:41:56.054Z</time>
      </trkpt>
      <trkpt lat="42.92393" lon="0.19025">
        <ele>1498</ele>
        <time>2019-06-23T09:41:57.054Z</time>
      </trkpt>
      <trkpt lat="42.92393" lon="0.19025">
        <ele>1498</ele>
        <time>2019-06-23T09:41:58.054Z</time>
      </trkpt>
      <trkpt lat="42.92394" lon="0.19024">
        <ele>1497</ele>
        <time>2019-06-23T09:41:59.054Z</time>
      </trkpt>
      <trkpt lat="42.92394" lon="0.19024">
        <ele>1497</ele>
        <time>2019-06-23T09:42:00.054Z</time>
      </trkpt>
      <trkpt lat="42.92395" lon="0.19024">
        <ele>1497</ele>
        <time>2019-06-23T09:42:01.054Z</time>
      </trkpt>
      <trkpt lat="42.92395" lon="0.19024">
        <ele>1496</ele>
        <time>2019-06-23T09:42:02.054Z</time>
      </trkpt>
      <trkpt lat="42.92396" lon="0.19023">
        <ele>1496</ele>
        <time>2019-06-23T09:42:03.054Z</time>
      </trkpt>
      <trkpt lat="42.92396" lon="0.19023">
        <ele>1496</ele>
        <time>2019-06-23T09:42:04.054Z</time>
      </trkpt>
      <trkpt lat="42.92397" lon="0.19023">
        <ele>1496</ele>
        <time>2019-06-23T09:42:05.054Z</time>
      </trkpt>
      <trkpt lat="42.92397" lon="0.19022">
        <ele>1496</ele>
        <time>2019-06-23T09:42:06.054Z</time>
      </trkpt>
      <trkpt lat="42.92398" lon="0.19022">
        <ele>1496</ele>
        <time>2019-06-23T09:42:07.054Z</time>
      </trkpt>
      <trkpt lat="42.92398" lon="0.19021">
        <ele>1495</ele>
        <time>2019-06-23T09:42:08.054Z</time>
      </trkpt>
      <trkpt lat="42.92398" lon="0.1902">
        <ele>1495</ele>
        <time>2019-06-23T09:42:09.054Z</time>
      </trkpt>
      <trkpt lat="42.92398" lon="0.1902">
        <ele>1495</ele>
        <time>2019-06-23T09:42:10.054Z</time>
      </trkpt>
      <trkpt lat="42.92399" lon="0.1902">
        <ele>1495</ele>
        <time>2019-06-23T09:42:11.054Z</time>
      </trkpt>
      <trkpt lat="42.92399" lon="0.19019">
        <ele>1495</ele>
        <time>2019-06-23T09:42:12.054Z</time>
      </trkpt>
      <trkpt lat="42.924" lon="0.19019">
        <ele>1495</ele>
        <time>2019-06-23T09:42:13.054Z</time>
      </trkpt>
      <trkpt lat="42.92401" lon="0.19019">
        <ele>1495</ele>
        <time>2019-06-23T09:42:14.054Z</time>
      </trkpt>
      <trkpt lat="42.92401" lon="0.19019">
        <ele>1495</ele>
        <time>2019-06-23T09:42:15.054Z</time>
      </trkpt>
      <trkpt lat="42.92402" lon="0.19018">
        <ele>1495</ele>
        <time>2019-06-23T09:42:16.054Z</time>
      </trkpt>
      <trkpt lat="42.92403" lon="0.19018">
        <ele>1495</ele>
        <time>2019-06-23T09:42:17.054Z</time>
      </trkpt>
      <trkpt lat="42.92403" lon="0.19018">
        <ele>1495</ele>
        <time>2019-06-23T09:42:18.054Z</time>
      </trkpt>
      <trkpt lat="42.92404" lon="0.19017">
        <ele>1495</ele>
        <time>2019-06-23T09:42:19.054Z</time>
      </trkpt>
      <trkpt lat="42.92405" lon="0.19017">
        <ele>1496</ele>
        <time>2019-06-23T09:42:20.054Z</time>
      </trkpt>
      <trkpt lat="42.92405" lon="0.19017">
        <ele>1495</ele>
        <time>2019-06-23T09:42:34.054Z</time>
      </trkpt>
      <trkpt lat="42.92405" lon="0.19017">
        <ele>1495</ele>
        <time>2019-06-23T09:42:35.054Z</time>
      </trkpt>
      <trkpt lat="42.92407" lon="0.19018">
        <ele>1496</ele>
        <time>2019-06-23T09:42:36.054Z</time>
      </trkpt>
      <trkpt lat="42.92409" lon="0.19019">
        <ele>1496</ele>
        <time>2019-06-23T09:42:37.054Z</time>
      </trkpt>
      <trkpt lat="42.92411" lon="0.19024">
        <ele>1496</ele>
        <time>2019-06-23T09:42:38.058Z</time>
      </trkpt>
      <trkpt lat="42.92411" lon="0.19025">
        <ele>1496</ele>
        <time>2019-06-23T09:42:39.058Z</time>
      </trkpt>
      <trkpt lat="42.92411" lon="0.19026">
        <ele>1496</ele>
        <time>2019-06-23T09:42:40.058Z</time>
      </trkpt>
      <trkpt lat="42.92411" lon="0.19027">
        <ele>1496</ele>
        <time>2019-06-23T09:42:41.058Z</time>
      </trkpt>
      <trkpt lat="42.92411" lon="0.19027">
        <ele>1496</ele>
        <time>2019-06-23T09:42:42.058Z</time>
      </trkpt>
      <trkpt lat="42.92411" lon="0.19027">
        <ele>1496</ele>
        <time>2019-06-23T09:42:43.058Z</time>
      </trkpt>
      <trkpt lat="42.92411" lon="0.19027">
        <ele>1496</ele>
        <time>2019-06-23T09:42:44.058Z</time>
      </trkpt>
      <trkpt lat="42.9241" lon="0.19027">
        <ele>1496</ele>
        <time>2019-06-23T09:42:45.058Z</time>
      </trkpt>
      <trkpt lat="42.92408" lon="0.19033">
        <ele>1494</ele>
        <time>2019-06-23T09:42:46.062Z</time>
      </trkpt>
      <trkpt lat="42.92408" lon="0.19034">
        <ele>1494</ele>
        <time>2019-06-23T09:42:47.062Z</time>
      </trkpt>
      <trkpt lat="42.92408" lon="0.19035">
        <ele>1494</ele>
        <time>2019-06-23T09:42:48.062Z</time>
      </trkpt>
      <trkpt lat="42.92408" lon="0.19036">
        <ele>1493</ele>
        <time>2019-06-23T09:42:49.062Z</time>
      </trkpt>
      <trkpt lat="42.92407" lon="0.19037">
        <ele>1493</ele>
        <time>2019-06-23T09:42:50.062Z</time>
      </trkpt>
      <trkpt lat="42.92407" lon="0.19038">
        <ele>1493</ele>
        <time>2019-06-23T09:42:51.062Z</time>
      </trkpt>
      <trkpt lat="42.92407" lon="0.19038">
        <ele>1492</ele>
        <time>2019-06-23T09:42:52.062Z</time>
      </trkpt>
      <trkpt lat="42.92407" lon="0.19039">
        <ele>1492</ele>
        <time>2019-06-23T09:42:53.062Z</time>
      </trkpt>
      <trkpt lat="42.92407" lon="0.1904">
        <ele>1491</ele>
        <time>2019-06-23T09:42:54.062Z</time>
      </trkpt>
      <trkpt lat="42.92406" lon="0.19041">
        <ele>1491</ele>
        <time>2019-06-23T09:42:55.062Z</time>
      </trkpt>
      <trkpt lat="42.92406" lon="0.19042">
        <ele>1490</ele>
        <time>2019-06-23T09:42:56.062Z</time>
      </trkpt>
      <trkpt lat="42.92406" lon="0.19043">
        <ele>1490</ele>
        <time>2019-06-23T09:42:57.062Z</time>
      </trkpt>
      <trkpt lat="42.92405" lon="0.19043">
        <ele>1490</ele>
        <time>2019-06-23T09:42:58.062Z</time>
      </trkpt>
      <trkpt lat="42.92405" lon="0.19044">
        <ele>1489</ele>
        <time>2019-06-23T09:42:59.062Z</time>
      </trkpt>
      <trkpt lat="42.92405" lon="0.19045">
        <ele>1489</ele>
        <time>2019-06-23T09:43:00.062Z</time>
      </trkpt>
      <trkpt lat="42.92404" lon="0.19046">
        <ele>1488</ele>
        <time>2019-06-23T09:43:01.062Z</time>
      </trkpt>
      <trkpt lat="42.92404" lon="0.19047">
        <ele>1488</ele>
        <time>2019-06-23T09:43:02.062Z</time>
      </trkpt>
      <trkpt lat="42.92404" lon="0.19048">
        <ele>1488</ele>
        <time>2019-06-23T09:43:03.062Z</time>
      </trkpt>
      <trkpt lat="42.92404" lon="0.19049">
        <ele>1488</ele>
        <time>2019-06-23T09:43:04.062Z</time>
      </trkpt>
      <trkpt lat="42.92404" lon="0.19049">
        <ele>1487</ele>
        <time>2019-06-23T09:43:05.062Z</time>
      </trkpt>
      <trkpt lat="42.92403" lon="0.1905">
        <ele>1487</ele>
        <time>2019-06-23T09:43:06.062Z</time>
      </trkpt>
      <trkpt lat="42.92403" lon="0.19051">
        <ele>1486</ele>
        <time>2019-06-23T09:43:07.062Z</time>
      </trkpt>
      <trkpt lat="42.92403" lon="0.19051">
        <ele>1486</ele>
        <time>2019-06-23T09:43:09.062Z</time>
      </trkpt>
      <trkpt lat="42.92403" lon="0.19051">
        <ele>1486</ele>
        <time>2019-06-23T09:43:10.062Z</time>
      </trkpt>
      <trkpt lat="42.92403" lon="0.19053">
        <ele>1485</ele>
        <time>2019-06-23T09:43:11.062Z</time>
      </trkpt>
      <trkpt lat="42.92403" lon="0.19054">
        <ele>1485</ele>
        <time>2019-06-23T09:43:12.062Z</time>
      </trkpt>
      <trkpt lat="42.92403" lon="0.19056">
        <ele>1485</ele>
        <time>2019-06-23T09:43:13.062Z</time>
      </trkpt>
      <trkpt lat="42.92403" lon="0.19056">
        <ele>1484</ele>
        <time>2019-06-23T09:43:14.062Z</time>
      </trkpt>
      <trkpt lat="42.92403" lon="0.19057">
        <ele>1484</ele>
        <time>2019-06-23T09:43:15.062Z</time>
      </trkpt>
      <trkpt lat="42.92403" lon="0.19058">
        <ele>1484</ele>
        <time>2019-06-23T09:43:16.062Z</time>
      </trkpt>
      <trkpt lat="42.92403" lon="0.19058">
        <ele>1483</ele>
        <time>2019-06-23T09:43:17.062Z</time>
      </trkpt>
      <trkpt lat="42.92403" lon="0.19059">
        <ele>1483</ele>
        <time>2019-06-23T09:43:18.062Z</time>
      </trkpt>
      <trkpt lat="42.92403" lon="0.1906">
        <ele>1483</ele>
        <time>2019-06-23T09:43:19.062Z</time>
      </trkpt>
      <trkpt lat="42.92403" lon="0.19061">
        <ele>1483</ele>
        <time>2019-06-23T09:43:20.062Z</time>
      </trkpt>
      <trkpt lat="42.92403" lon="0.19061">
        <ele>1481</ele>
        <time>2019-06-23T09:43:26.062Z</time>
      </trkpt>
      <trkpt lat="42.92403" lon="0.19061">
        <ele>1481</ele>
        <time>2019-06-23T09:43:27.062Z</time>
      </trkpt>
      <trkpt lat="42.92404" lon="0.19063">
        <ele>1481</ele>
        <time>2019-06-23T09:43:28.062Z</time>
      </trkpt>
      <trkpt lat="42.92404" lon="0.19065">
        <ele>1480</ele>
        <time>2019-06-23T09:43:29.062Z</time>
      </trkpt>
      <trkpt lat="42.92407" lon="0.19069">
        <ele>1478</ele>
        <time>2019-06-23T09:43:30.062Z</time>
      </trkpt>
      <trkpt lat="42.92407" lon="0.1907">
        <ele>1478</ele>
        <time>2019-06-23T09:43:31.062Z</time>
      </trkpt>
      <trkpt lat="42.92407" lon="0.1907">
        <ele>1477</ele>
        <time>2019-06-23T09:43:32.062Z</time>
      </trkpt>
      <trkpt lat="42.92407" lon="0.1907">
        <ele>1477</ele>
        <time>2019-06-23T09:43:33.062Z</time>
      </trkpt>
      <trkpt lat="42.92408" lon="0.19071">
        <ele>1476</ele>
        <time>2019-06-23T09:43:34.062Z</time>
      </trkpt>
      <trkpt lat="42.92408" lon="0.19071">
        <ele>1476</ele>
        <time>2019-06-23T09:43:36.062Z</time>
      </trkpt>
      <trkpt lat="42.92408" lon="0.19071">
        <ele>1476</ele>
        <time>2019-06-23T09:43:37.062Z</time>
      </trkpt>
      <trkpt lat="42.92408" lon="0.19072">
        <ele>1475</ele>
        <time>2019-06-23T09:43:38.062Z</time>
      </trkpt>
      <trkpt lat="42.92409" lon="0.19073">
        <ele>1475</ele>
        <time>2019-06-23T09:43:39.062Z</time>
      </trkpt>
      <trkpt lat="42.92409" lon="0.19075">
        <ele>1475</ele>
        <time>2019-06-23T09:43:40.062Z</time>
      </trkpt>
      <trkpt lat="42.92409" lon="0.19076">
        <ele>1474</ele>
        <time>2019-06-23T09:43:41.062Z</time>
      </trkpt>
      <trkpt lat="42.9241" lon="0.19076">
        <ele>1474</ele>
        <time>2019-06-23T09:43:42.062Z</time>
      </trkpt>
      <trkpt lat="42.9241" lon="0.19077">
        <ele>1474</ele>
        <time>2019-06-23T09:43:43.062Z</time>
      </trkpt>
      <trkpt lat="42.9241" lon="0.19078">
        <ele>1474</ele>
        <time>2019-06-23T09:43:44.062Z</time>
      </trkpt>
      <trkpt lat="42.9241" lon="0.19079">
        <ele>1474</ele>
        <time>2019-06-23T09:43:45.062Z</time>
      </trkpt>
      <trkpt lat="42.9241" lon="0.1908">
        <ele>1474</ele>
        <time>2019-06-23T09:43:46.062Z</time>
      </trkpt>
      <trkpt lat="42.9241" lon="0.1908">
        <ele>1472</ele>
        <time>2019-06-23T09:43:51.062Z</time>
      </trkpt>
      <trkpt lat="42.9241" lon="0.1908">
        <ele>1477</ele>
        <time>2019-06-23T09:43:52.062Z</time>
      </trkpt>
      <trkpt lat="42.92412" lon="0.19082">
        <ele>1478</ele>
        <time>2019-06-23T09:43:53.062Z</time>
      </trkpt>
      <trkpt lat="42.92415" lon="0.19085">
        <ele>1478</ele>
        <time>2019-06-23T09:43:54.062Z</time>
      </trkpt>
      <trkpt lat="42.92417" lon="0.19088">
        <ele>1478</ele>
        <time>2019-06-23T09:43:55.062Z</time>
      </trkpt>
      <trkpt lat="42.92417" lon="0.19089">
        <ele>1477</ele>
        <time>2019-06-23T09:43:56.062Z</time>
      </trkpt>
      <trkpt lat="42.92417" lon="0.1909">
        <ele>1478</ele>
        <time>2019-06-23T09:43:57.062Z</time>
      </trkpt>
      <trkpt lat="42.92418" lon="0.1909">
        <ele>1478</ele>
        <time>2019-06-23T09:43:58.062Z</time>
      </trkpt>
      <trkpt lat="42.92418" lon="0.19091">
        <ele>1478</ele>
        <time>2019-06-23T09:43:59.062Z</time>
      </trkpt>
      <trkpt lat="42.92418" lon="0.19092">
        <ele>1478</ele>
        <time>2019-06-23T09:44:00.062Z</time>
      </trkpt>
      <trkpt lat="42.92419" lon="0.19093">
        <ele>1478</ele>
        <time>2019-06-23T09:44:01.062Z</time>
      </trkpt>
      <trkpt lat="42.92419" lon="0.19094">
        <ele>1478</ele>
        <time>2019-06-23T09:44:02.062Z</time>
      </trkpt>
      <trkpt lat="42.92419" lon="0.19095">
        <ele>1477</ele>
        <time>2019-06-23T09:44:03.062Z</time>
      </trkpt>
      <trkpt lat="42.9242" lon="0.19096">
        <ele>1478</ele>
        <time>2019-06-23T09:44:04.062Z</time>
      </trkpt>
      <trkpt lat="42.9242" lon="0.19097">
        <ele>1478</ele>
        <time>2019-06-23T09:44:05.062Z</time>
      </trkpt>
      <trkpt lat="42.9242" lon="0.19098">
        <ele>1478</ele>
        <time>2019-06-23T09:44:06.062Z</time>
      </trkpt>
      <trkpt lat="42.92421" lon="0.19099">
        <ele>1478</ele>
        <time>2019-06-23T09:44:07.062Z</time>
      </trkpt>
      <trkpt lat="42.92421" lon="0.19099">
        <ele>1478</ele>
        <time>2019-06-23T09:44:08.062Z</time>
      </trkpt>
      <trkpt lat="42.92421" lon="0.191">
        <ele>1477</ele>
        <time>2019-06-23T09:44:09.062Z</time>
      </trkpt>
      <trkpt lat="42.92422" lon="0.19101">
        <ele>1477</ele>
        <time>2019-06-23T09:44:10.062Z</time>
      </trkpt>
      <trkpt lat="42.92422" lon="0.19101">
        <ele>1477</ele>
        <time>2019-06-23T09:44:11.062Z</time>
      </trkpt>
      <trkpt lat="42.92422" lon="0.19102">
        <ele>1477</ele>
        <time>2019-06-23T09:44:12.062Z</time>
      </trkpt>
      <trkpt lat="42.92423" lon="0.19102">
        <ele>1477</ele>
        <time>2019-06-23T09:44:13.062Z</time>
      </trkpt>
      <trkpt lat="42.92423" lon="0.19103">
        <ele>1477</ele>
        <time>2019-06-23T09:44:14.062Z</time>
      </trkpt>
      <trkpt lat="42.92423" lon="0.19104">
        <ele>1477</ele>
        <time>2019-06-23T09:44:15.062Z</time>
      </trkpt>
      <trkpt lat="42.92424" lon="0.19104">
        <ele>1477</ele>
        <time>2019-06-23T09:44:16.062Z</time>
      </trkpt>
      <trkpt lat="42.92424" lon="0.19105">
        <ele>1477</ele>
        <time>2019-06-23T09:44:17.062Z</time>
      </trkpt>
      <trkpt lat="42.92424" lon="0.19105">
        <ele>1478</ele>
        <time>2019-06-23T09:44:18.062Z</time>
      </trkpt>
      <trkpt lat="42.92424" lon="0.19106">
        <ele>1478</ele>
        <time>2019-06-23T09:44:19.062Z</time>
      </trkpt>
      <trkpt lat="42.92425" lon="0.19106">
        <ele>1478</ele>
        <time>2019-06-23T09:44:20.062Z</time>
      </trkpt>
      <trkpt lat="42.92425" lon="0.19107">
        <ele>1477</ele>
        <time>2019-06-23T09:44:21.062Z</time>
      </trkpt>
      <trkpt lat="42.92425" lon="0.19108">
        <ele>1478</ele>
        <time>2019-06-23T09:44:22.062Z</time>
      </trkpt>
      <trkpt lat="42.92426" lon="0.19109">
        <ele>1477</ele>
        <time>2019-06-23T09:44:23.062Z</time>
      </trkpt>
      <trkpt lat="42.92426" lon="0.1911">
        <ele>1477</ele>
        <time>2019-06-23T09:44:24.062Z</time>
      </trkpt>
      <trkpt lat="42.92426" lon="0.1911">
        <ele>1478</ele>
        <time>2019-06-23T09:44:25.062Z</time>
      </trkpt>
      <trkpt lat="42.92426" lon="0.19111">
        <ele>1478</ele>
        <time>2019-06-23T09:44:26.062Z</time>
      </trkpt>
      <trkpt lat="42.92427" lon="0.19112">
        <ele>1477</ele>
        <time>2019-06-23T09:44:27.062Z</time>
      </trkpt>
      <trkpt lat="42.92427" lon="0.19113">
        <ele>1478</ele>
        <time>2019-06-23T09:44:28.062Z</time>
      </trkpt>
      <trkpt lat="42.92427" lon="0.19113">
        <ele>1477</ele>
        <time>2019-06-23T09:44:29.062Z</time>
      </trkpt>
      <trkpt lat="42.92428" lon="0.19114">
        <ele>1478</ele>
        <time>2019-06-23T09:44:30.062Z</time>
      </trkpt>
      <trkpt lat="42.92428" lon="0.19114">
        <ele>1478</ele>
        <time>2019-06-23T09:44:31.062Z</time>
      </trkpt>
      <trkpt lat="42.92428" lon="0.19115">
        <ele>1477</ele>
        <time>2019-06-23T09:44:32.062Z</time>
      </trkpt>
      <trkpt lat="42.92429" lon="0.19115">
        <ele>1477</ele>
        <time>2019-06-23T09:44:33.062Z</time>
      </trkpt>
      <trkpt lat="42.92429" lon="0.19116">
        <ele>1478</ele>
        <time>2019-06-23T09:44:34.062Z</time>
      </trkpt>
      <trkpt lat="42.92429" lon="0.19116">
        <ele>1478</ele>
        <time>2019-06-23T09:44:35.062Z</time>
      </trkpt>
      <trkpt lat="42.92429" lon="0.19117">
        <ele>1478</ele>
        <time>2019-06-23T09:44:36.062Z</time>
      </trkpt>
      <trkpt lat="42.92429" lon="0.19117">
        <ele>1478</ele>
        <time>2019-06-23T09:44:37.062Z</time>
      </trkpt>
      <trkpt lat="42.92429" lon="0.19118">
        <ele>1478</ele>
        <time>2019-06-23T09:44:38.062Z</time>
      </trkpt>
      <trkpt lat="42.9243" lon="0.19118">
        <ele>1478</ele>
        <time>2019-06-23T09:44:39.062Z</time>
      </trkpt>
      <trkpt lat="42.9243" lon="0.19119">
        <ele>1478</ele>
        <time>2019-06-23T09:44:40.062Z</time>
      </trkpt>
      <trkpt lat="42.9243" lon="0.19119">
        <ele>1478</ele>
        <time>2019-06-23T09:44:41.062Z</time>
      </trkpt>
      <trkpt lat="42.9243" lon="0.19119">
        <ele>1477</ele>
        <time>2019-06-23T09:44:42.062Z</time>
      </trkpt>
      <trkpt lat="42.92432" lon="0.19121">
        <ele>1476</ele>
        <time>2019-06-23T09:44:43.062Z</time>
      </trkpt>
      <trkpt lat="42.92433" lon="0.19121">
        <ele>1476</ele>
        <time>2019-06-23T09:44:44.062Z</time>
      </trkpt>
      <trkpt lat="42.92433" lon="0.19121">
        <ele>1475</ele>
        <time>2019-06-23T09:44:45.062Z</time>
      </trkpt>
      <trkpt lat="42.92434" lon="0.19122">
        <ele>1476</ele>
        <time>2019-06-23T09:44:46.062Z</time>
      </trkpt>
      <trkpt lat="42.92434" lon="0.19122">
        <ele>1476</ele>
        <time>2019-06-23T09:44:47.062Z</time>
      </trkpt>
      <trkpt lat="42.92434" lon="0.19122">
        <ele>1476</ele>
        <time>2019-06-23T09:44:48.062Z</time>
      </trkpt>
      <trkpt lat="42.92434" lon="0.19122">
        <ele>1475</ele>
        <time>2019-06-23T09:44:49.062Z</time>
      </trkpt>
      <trkpt lat="42.92434" lon="0.19122">
        <ele>1475</ele>
        <time>2019-06-23T09:44:50.062Z</time>
      </trkpt>
      <trkpt lat="42.92435" lon="0.19122">
        <ele>1475</ele>
        <time>2019-06-23T09:44:51.062Z</time>
      </trkpt>
      <trkpt lat="42.92435" lon="0.19122">
        <ele>1475</ele>
        <time>2019-06-23T09:44:52.062Z</time>
      </trkpt>
      <trkpt lat="42.92435" lon="0.19122">
        <ele>1475</ele>
        <time>2019-06-23T09:44:53.062Z</time>
      </trkpt>
      <trkpt lat="42.92438" lon="0.19123">
        <ele>1476</ele>
        <time>2019-06-23T09:44:54.078Z</time>
      </trkpt>
      <trkpt lat="42.92438" lon="0.19123">
        <ele>1476</ele>
        <time>2019-06-23T09:44:55.078Z</time>
      </trkpt>
      <trkpt lat="42.92439" lon="0.19123">
        <ele>1476</ele>
        <time>2019-06-23T09:44:56.078Z</time>
      </trkpt>
      <trkpt lat="42.92439" lon="0.19123">
        <ele>1476</ele>
        <time>2019-06-23T09:44:57.078Z</time>
      </trkpt>
      <trkpt lat="42.92439" lon="0.19123">
        <ele>1476</ele>
        <time>2019-06-23T09:44:58.078Z</time>
      </trkpt>
      <trkpt lat="42.92439" lon="0.19123">
        <ele>1476</ele>
        <time>2019-06-23T09:44:59.078Z</time>
      </trkpt>
      <trkpt lat="42.9244" lon="0.19124">
        <ele>1476</ele>
        <time>2019-06-23T09:45:00.078Z</time>
      </trkpt>
      <trkpt lat="42.9244" lon="0.19124">
        <ele>1476</ele>
        <time>2019-06-23T09:45:01.078Z</time>
      </trkpt>
      <trkpt lat="42.9244" lon="0.19125">
        <ele>1476</ele>
        <time>2019-06-23T09:45:02.078Z</time>
      </trkpt>
      <trkpt lat="42.9244" lon="0.19125">
        <ele>1476</ele>
        <time>2019-06-23T09:45:03.078Z</time>
      </trkpt>
      <trkpt lat="42.92441" lon="0.19126">
        <ele>1476</ele>
        <time>2019-06-23T09:45:04.078Z</time>
      </trkpt>
      <trkpt lat="42.92441" lon="0.19127">
        <ele>1476</ele>
        <time>2019-06-23T09:45:05.078Z</time>
      </trkpt>
      <trkpt lat="42.92441" lon="0.19127">
        <ele>1476</ele>
        <time>2019-06-23T09:45:06.078Z</time>
      </trkpt>
      <trkpt lat="42.92442" lon="0.19128">
        <ele>1476</ele>
        <time>2019-06-23T09:45:07.078Z</time>
      </trkpt>
      <trkpt lat="42.92442" lon="0.19128">
        <ele>1475</ele>
        <time>2019-06-23T09:45:08.078Z</time>
      </trkpt>
      <trkpt lat="42.92442" lon="0.19128">
        <ele>1475</ele>
        <time>2019-06-23T09:45:09.078Z</time>
      </trkpt>
      <trkpt lat="42.92443" lon="0.19129">
        <ele>1475</ele>
        <time>2019-06-23T09:45:10.078Z</time>
      </trkpt>
      <trkpt lat="42.92443" lon="0.1913">
        <ele>1475</ele>
        <time>2019-06-23T09:45:11.078Z</time>
      </trkpt>
      <trkpt lat="42.92444" lon="0.1913">
        <ele>1475</ele>
        <time>2019-06-23T09:45:12.078Z</time>
      </trkpt>
      <trkpt lat="42.92444" lon="0.19131">
        <ele>1475</ele>
        <time>2019-06-23T09:45:13.078Z</time>
      </trkpt>
      <trkpt lat="42.92444" lon="0.19132">
        <ele>1475</ele>
        <time>2019-06-23T09:45:14.078Z</time>
      </trkpt>
      <trkpt lat="42.92445" lon="0.19133">
        <ele>1475</ele>
        <time>2019-06-23T09:45:15.078Z</time>
      </trkpt>
      <trkpt lat="42.92445" lon="0.19133">
        <ele>1475</ele>
        <time>2019-06-23T09:45:16.078Z</time>
      </trkpt>
      <trkpt lat="42.92445" lon="0.19134">
        <ele>1475</ele>
        <time>2019-06-23T09:45:17.078Z</time>
      </trkpt>
      <trkpt lat="42.92446" lon="0.19134">
        <ele>1475</ele>
        <time>2019-06-23T09:45:18.078Z</time>
      </trkpt>
      <trkpt lat="42.92446" lon="0.19135">
        <ele>1475</ele>
        <time>2019-06-23T09:45:19.078Z</time>
      </trkpt>
      <trkpt lat="42.92447" lon="0.19135">
        <ele>1476</ele>
        <time>2019-06-23T09:45:20.078Z</time>
      </trkpt>
      <trkpt lat="42.92447" lon="0.19136">
        <ele>1475</ele>
        <time>2019-06-23T09:45:21.078Z</time>
      </trkpt>
      <trkpt lat="42.92447" lon="0.19136">
        <ele>1476</ele>
        <time>2019-06-23T09:45:22.078Z</time>
      </trkpt>
      <trkpt lat="42.92447" lon="0.19136">
        <ele>1476</ele>
        <time>2019-06-23T09:45:23.078Z</time>
      </trkpt>
      <trkpt lat="42.92448" lon="0.19139">
        <ele>1475</ele>
        <time>2019-06-23T09:45:24.090Z</time>
      </trkpt>
      <trkpt lat="42.92448" lon="0.1914">
        <ele>1475</ele>
        <time>2019-06-23T09:45:25.090Z</time>
      </trkpt>
      <trkpt lat="42.92449" lon="0.1914">
        <ele>1475</ele>
        <time>2019-06-23T09:45:26.090Z</time>
      </trkpt>
      <trkpt lat="42.92449" lon="0.19141">
        <ele>1475</ele>
        <time>2019-06-23T09:45:27.090Z</time>
      </trkpt>
      <trkpt lat="42.9245" lon="0.19142">
        <ele>1475</ele>
        <time>2019-06-23T09:45:28.090Z</time>
      </trkpt>
      <trkpt lat="42.92451" lon="0.19142">
        <ele>1475</ele>
        <time>2019-06-23T09:45:29.090Z</time>
      </trkpt>
      <trkpt lat="42.92451" lon="0.19143">
        <ele>1475</ele>
        <time>2019-06-23T09:45:30.090Z</time>
      </trkpt>
      <trkpt lat="42.92452" lon="0.19143">
        <ele>1475</ele>
        <time>2019-06-23T09:45:31.090Z</time>
      </trkpt>
      <trkpt lat="42.92452" lon="0.19144">
        <ele>1475</ele>
        <time>2019-06-23T09:45:32.090Z</time>
      </trkpt>
      <trkpt lat="42.92452" lon="0.19145">
        <ele>1475</ele>
        <time>2019-06-23T09:45:33.090Z</time>
      </trkpt>
      <trkpt lat="42.92452" lon="0.19146">
        <ele>1475</ele>
        <time>2019-06-23T09:45:34.090Z</time>
      </trkpt>
      <trkpt lat="42.92453" lon="0.19147">
        <ele>1475</ele>
        <time>2019-06-23T09:45:35.090Z</time>
      </trkpt>
      <trkpt lat="42.92453" lon="0.19147">
        <ele>1475</ele>
        <time>2019-06-23T09:45:36.090Z</time>
      </trkpt>
      <trkpt lat="42.92453" lon="0.19148">
        <ele>1475</ele>
        <time>2019-06-23T09:45:37.090Z</time>
      </trkpt>
      <trkpt lat="42.92453" lon="0.19149">
        <ele>1475</ele>
        <time>2019-06-23T09:45:38.090Z</time>
      </trkpt>
      <trkpt lat="42.92454" lon="0.19149">
        <ele>1475</ele>
        <time>2019-06-23T09:45:39.090Z</time>
      </trkpt>
      <trkpt lat="42.92454" lon="0.1915">
        <ele>1475</ele>
        <time>2019-06-23T09:45:40.090Z</time>
      </trkpt>
      <trkpt lat="42.92455" lon="0.19151">
        <ele>1475</ele>
        <time>2019-06-23T09:45:41.090Z</time>
      </trkpt>
      <trkpt lat="42.92455" lon="0.19152">
        <ele>1475</ele>
        <time>2019-06-23T09:45:42.090Z</time>
      </trkpt>
      <trkpt lat="42.92455" lon="0.19153">
        <ele>1475</ele>
        <time>2019-06-23T09:45:43.090Z</time>
      </trkpt>
      <trkpt lat="42.92455" lon="0.19153">
        <ele>1475</ele>
        <time>2019-06-23T09:45:44.090Z</time>
      </trkpt>
      <trkpt lat="42.92455" lon="0.19154">
        <ele>1476</ele>
        <time>2019-06-23T09:45:45.090Z</time>
      </trkpt>
      <trkpt lat="42.92456" lon="0.19155">
        <ele>1476</ele>
        <time>2019-06-23T09:45:46.090Z</time>
      </trkpt>
      <trkpt lat="42.92456" lon="0.19155">
        <ele>1476</ele>
        <time>2019-06-23T09:45:47.090Z</time>
      </trkpt>
      <trkpt lat="42.92456" lon="0.19156">
        <ele>1476</ele>
        <time>2019-06-23T09:45:48.090Z</time>
      </trkpt>
      <trkpt lat="42.92456" lon="0.19157">
        <ele>1476</ele>
        <time>2019-06-23T09:45:49.090Z</time>
      </trkpt>
      <trkpt lat="42.92456" lon="0.19158">
        <ele>1476</ele>
        <time>2019-06-23T09:45:50.090Z</time>
      </trkpt>
      <trkpt lat="42.92456" lon="0.19159">
        <ele>1476</ele>
        <time>2019-06-23T09:45:51.090Z</time>
      </trkpt>
      <trkpt lat="42.92456" lon="0.19159">
        <ele>1476</ele>
        <time>2019-06-23T09:45:52.090Z</time>
      </trkpt>
      <trkpt lat="42.92456" lon="0.19159">
        <ele>1475</ele>
        <time>2019-06-23T09:45:53.090Z</time>
      </trkpt>
      <trkpt lat="42.92456" lon="0.1916">
        <ele>1475</ele>
        <time>2019-06-23T09:45:54.090Z</time>
      </trkpt>
      <trkpt lat="42.92456" lon="0.1916">
        <ele>1476</ele>
        <time>2019-06-23T09:45:55.090Z</time>
      </trkpt>
      <trkpt lat="42.92456" lon="0.19161">
        <ele>1475</ele>
        <time>2019-06-23T09:45:56.090Z</time>
      </trkpt>
      <trkpt lat="42.92456" lon="0.19162">
        <ele>1475</ele>
        <time>2019-06-23T09:45:57.090Z</time>
      </trkpt>
      <trkpt lat="42.92456" lon="0.19163">
        <ele>1475</ele>
        <time>2019-06-23T09:45:58.090Z</time>
      </trkpt>
      <trkpt lat="42.92456" lon="0.19164">
        <ele>1476</ele>
        <time>2019-06-23T09:45:59.090Z</time>
      </trkpt>
      <trkpt lat="42.92456" lon="0.19164">
        <ele>1475</ele>
        <time>2019-06-23T09:46:00.090Z</time>
      </trkpt>
      <trkpt lat="42.92456" lon="0.19165">
        <ele>1475</ele>
        <time>2019-06-23T09:46:01.090Z</time>
      </trkpt>
      <trkpt lat="42.92456" lon="0.19166">
        <ele>1476</ele>
        <time>2019-06-23T09:46:02.090Z</time>
      </trkpt>
      <trkpt lat="42.92456" lon="0.19167">
        <ele>1476</ele>
        <time>2019-06-23T09:46:03.090Z</time>
      </trkpt>
      <trkpt lat="42.92456" lon="0.19168">
        <ele>1476</ele>
        <time>2019-06-23T09:46:04.090Z</time>
      </trkpt>
      <trkpt lat="42.92456" lon="0.19168">
        <ele>1475</ele>
        <time>2019-06-23T09:46:05.090Z</time>
      </trkpt>
      <trkpt lat="42.92456" lon="0.19169">
        <ele>1475</ele>
        <time>2019-06-23T09:46:06.090Z</time>
      </trkpt>
      <trkpt lat="42.92456" lon="0.1917">
        <ele>1475</ele>
        <time>2019-06-23T09:46:07.090Z</time>
      </trkpt>
      <trkpt lat="42.92456" lon="0.19171">
        <ele>1475</ele>
        <time>2019-06-23T09:46:08.090Z</time>
      </trkpt>
      <trkpt lat="42.92456" lon="0.19172">
        <ele>1475</ele>
        <time>2019-06-23T09:46:09.090Z</time>
      </trkpt>
      <trkpt lat="42.92456" lon="0.19172">
        <ele>1475</ele>
        <time>2019-06-23T09:46:10.090Z</time>
      </trkpt>
      <trkpt lat="42.92456" lon="0.19173">
        <ele>1475</ele>
        <time>2019-06-23T09:46:11.090Z</time>
      </trkpt>
      <trkpt lat="42.92456" lon="0.19174">
        <ele>1476</ele>
        <time>2019-06-23T09:46:12.090Z</time>
      </trkpt>
      <trkpt lat="42.92456" lon="0.19175">
        <ele>1476</ele>
        <time>2019-06-23T09:46:13.090Z</time>
      </trkpt>
      <trkpt lat="42.92456" lon="0.19176">
        <ele>1476</ele>
        <time>2019-06-23T09:46:14.090Z</time>
      </trkpt>
      <trkpt lat="42.92457" lon="0.19177">
        <ele>1476</ele>
        <time>2019-06-23T09:46:15.090Z</time>
      </trkpt>
      <trkpt lat="42.92457" lon="0.19178">
        <ele>1475</ele>
        <time>2019-06-23T09:46:16.090Z</time>
      </trkpt>
      <trkpt lat="42.92457" lon="0.19179">
        <ele>1476</ele>
        <time>2019-06-23T09:46:17.090Z</time>
      </trkpt>
      <trkpt lat="42.92457" lon="0.19179">
        <ele>1475</ele>
        <time>2019-06-23T09:46:18.090Z</time>
      </trkpt>
      <trkpt lat="42.92457" lon="0.1918">
        <ele>1475</ele>
        <time>2019-06-23T09:46:19.090Z</time>
      </trkpt>
      <trkpt lat="42.92457" lon="0.19181">
        <ele>1475</ele>
        <time>2019-06-23T09:46:20.090Z</time>
      </trkpt>
      <trkpt lat="42.92457" lon="0.19182">
        <ele>1476</ele>
        <time>2019-06-23T09:46:21.090Z</time>
      </trkpt>
      <trkpt lat="42.92457" lon="0.19183">
        <ele>1475</ele>
        <time>2019-06-23T09:46:22.090Z</time>
      </trkpt>
      <trkpt lat="42.92458" lon="0.19184">
        <ele>1476</ele>
        <time>2019-06-23T09:46:23.090Z</time>
      </trkpt>
      <trkpt lat="42.92458" lon="0.19185">
        <ele>1476</ele>
        <time>2019-06-23T09:46:24.090Z</time>
      </trkpt>
      <trkpt lat="42.92458" lon="0.19186">
        <ele>1475</ele>
        <time>2019-06-23T09:46:25.090Z</time>
      </trkpt>
      <trkpt lat="42.92458" lon="0.19186">
        <ele>1476</ele>
        <time>2019-06-23T09:46:26.090Z</time>
      </trkpt>
      <trkpt lat="42.92458" lon="0.19187">
        <ele>1475</ele>
        <time>2019-06-23T09:46:27.090Z</time>
      </trkpt>
      <trkpt lat="42.92458" lon="0.19188">
        <ele>1476</ele>
        <time>2019-06-23T09:46:28.090Z</time>
      </trkpt>
      <trkpt lat="42.92458" lon="0.19189">
        <ele>1476</ele>
        <time>2019-06-23T09:46:29.090Z</time>
      </trkpt>
      <trkpt lat="42.92458" lon="0.19189">
        <ele>1476</ele>
        <time>2019-06-23T09:46:30.090Z</time>
      </trkpt>
      <trkpt lat="42.92458" lon="0.1919">
        <ele>1476</ele>
        <time>2019-06-23T09:46:31.090Z</time>
      </trkpt>
      <trkpt lat="42.92458" lon="0.19191">
        <ele>1476</ele>
        <time>2019-06-23T09:46:32.090Z</time>
      </trkpt>
      <trkpt lat="42.92458" lon="0.19192">
        <ele>1476</ele>
        <time>2019-06-23T09:46:33.090Z</time>
      </trkpt>
      <trkpt lat="42.92458" lon="0.19193">
        <ele>1475</ele>
        <time>2019-06-23T09:46:34.090Z</time>
      </trkpt>
      <trkpt lat="42.92459" lon="0.19194">
        <ele>1476</ele>
        <time>2019-06-23T09:46:35.090Z</time>
      </trkpt>
      <trkpt lat="42.92459" lon="0.19195">
        <ele>1475</ele>
        <time>2019-06-23T09:46:36.090Z</time>
      </trkpt>
      <trkpt lat="42.92459" lon="0.19196">
        <ele>1475</ele>
        <time>2019-06-23T09:46:37.090Z</time>
      </trkpt>
      <trkpt lat="42.92459" lon="0.19197">
        <ele>1476</ele>
        <time>2019-06-23T09:46:38.090Z</time>
      </trkpt>
      <trkpt lat="42.92459" lon="0.19198">
        <ele>1476</ele>
        <time>2019-06-23T09:46:39.090Z</time>
      </trkpt>
      <trkpt lat="42.92459" lon="0.19199">
        <ele>1476</ele>
        <time>2019-06-23T09:46:40.090Z</time>
      </trkpt>
      <trkpt lat="42.92459" lon="0.192">
        <ele>1476</ele>
        <time>2019-06-23T09:46:41.090Z</time>
      </trkpt>
      <trkpt lat="42.92459" lon="0.19201">
        <ele>1476</ele>
        <time>2019-06-23T09:46:42.090Z</time>
      </trkpt>
      <trkpt lat="42.92459" lon="0.19202">
        <ele>1475</ele>
        <time>2019-06-23T09:46:43.090Z</time>
      </trkpt>
      <trkpt lat="42.92459" lon="0.19203">
        <ele>1476</ele>
        <time>2019-06-23T09:46:44.090Z</time>
      </trkpt>
      <trkpt lat="42.92459" lon="0.19204">
        <ele>1475</ele>
        <time>2019-06-23T09:46:45.090Z</time>
      </trkpt>
      <trkpt lat="42.92459" lon="0.19205">
        <ele>1476</ele>
        <time>2019-06-23T09:46:46.090Z</time>
      </trkpt>
      <trkpt lat="42.92459" lon="0.19206">
        <ele>1476</ele>
        <time>2019-06-23T09:46:47.090Z</time>
      </trkpt>
      <trkpt lat="42.92459" lon="0.19207">
        <ele>1476</ele>
        <time>2019-06-23T09:46:48.090Z</time>
      </trkpt>
      <trkpt lat="42.92459" lon="0.19207">
        <ele>1476</ele>
        <time>2019-06-23T09:46:49.090Z</time>
      </trkpt>
      <trkpt lat="42.92459" lon="0.19208">
        <ele>1475</ele>
        <time>2019-06-23T09:46:50.090Z</time>
      </trkpt>
      <trkpt lat="42.92459" lon="0.19209">
        <ele>1476</ele>
        <time>2019-06-23T09:46:51.090Z</time>
      </trkpt>
      <trkpt lat="42.92459" lon="0.1921">
        <ele>1476</ele>
        <time>2019-06-23T09:46:52.090Z</time>
      </trkpt>
      <trkpt lat="42.92459" lon="0.19211">
        <ele>1475</ele>
        <time>2019-06-23T09:46:53.090Z</time>
      </trkpt>
      <trkpt lat="42.92459" lon="0.19212">
        <ele>1476</ele>
        <time>2019-06-23T09:46:54.090Z</time>
      </trkpt>
      <trkpt lat="42.92459" lon="0.19213">
        <ele>1476</ele>
        <time>2019-06-23T09:46:55.090Z</time>
      </trkpt>
      <trkpt lat="42.92459" lon="0.19214">
        <ele>1476</ele>
        <time>2019-06-23T09:46:56.090Z</time>
      </trkpt>
      <trkpt lat="42.92458" lon="0.19214">
        <ele>1476</ele>
        <time>2019-06-23T09:46:57.090Z</time>
      </trkpt>
      <trkpt lat="42.92458" lon="0.19215">
        <ele>1476</ele>
        <time>2019-06-23T09:46:58.090Z</time>
      </trkpt>
      <trkpt lat="42.92458" lon="0.19216">
        <ele>1475</ele>
        <time>2019-06-23T09:46:59.090Z</time>
      </trkpt>
      <trkpt lat="42.92458" lon="0.19217">
        <ele>1476</ele>
        <time>2019-06-23T09:47:00.090Z</time>
      </trkpt>
      <trkpt lat="42.92458" lon="0.19218">
        <ele>1476</ele>
        <time>2019-06-23T09:47:01.090Z</time>
      </trkpt>
      <trkpt lat="42.92458" lon="0.19218">
        <ele>1475</ele>
        <time>2019-06-23T09:47:02.090Z</time>
      </trkpt>
      <trkpt lat="42.92458" lon="0.19219">
        <ele>1476</ele>
        <time>2019-06-23T09:47:03.090Z</time>
      </trkpt>
      <trkpt lat="42.92458" lon="0.1922">
        <ele>1475</ele>
        <time>2019-06-23T09:47:04.090Z</time>
      </trkpt>
      <trkpt lat="42.92458" lon="0.19221">
        <ele>1475</ele>
        <time>2019-06-23T09:47:05.090Z</time>
      </trkpt>
      <trkpt lat="42.92459" lon="0.19221">
        <ele>1475</ele>
        <time>2019-06-23T09:47:06.090Z</time>
      </trkpt>
      <trkpt lat="42.92459" lon="0.19221">
        <ele>1475</ele>
        <time>2019-06-23T09:47:07.090Z</time>
      </trkpt>
      <trkpt lat="42.92459" lon="0.19222">
        <ele>1475</ele>
        <time>2019-06-23T09:47:08.090Z</time>
      </trkpt>
      <trkpt lat="42.9246" lon="0.19226">
        <ele>1475</ele>
        <time>2019-06-23T09:47:09.102Z</time>
      </trkpt>
      <trkpt lat="42.9246" lon="0.19226">
        <ele>1475</ele>
        <time>2019-06-23T09:47:10.102Z</time>
      </trkpt>
      <trkpt lat="42.9246" lon="0.19227">
        <ele>1475</ele>
        <time>2019-06-23T09:47:11.102Z</time>
      </trkpt>
      <trkpt lat="42.9246" lon="0.19228">
        <ele>1476</ele>
        <time>2019-06-23T09:47:12.102Z</time>
      </trkpt>
      <trkpt lat="42.9246" lon="0.19228">
        <ele>1476</ele>
        <time>2019-06-23T09:47:13.102Z</time>
      </trkpt>
      <trkpt lat="42.92459" lon="0.19228">
        <ele>1476</ele>
        <time>2019-06-23T09:47:14.102Z</time>
      </trkpt>
      <trkpt lat="42.92459" lon="0.19228">
        <ele>1476</ele>
        <time>2019-06-23T09:47:15.102Z</time>
      </trkpt>
      <trkpt lat="42.92458" lon="0.19228">
        <ele>1476</ele>
        <time>2019-06-23T09:47:16.102Z</time>
      </trkpt>
      <trkpt lat="42.92457" lon="0.19232">
        <ele>1476</ele>
        <time>2019-06-23T09:47:17.114Z</time>
      </trkpt>
      <trkpt lat="42.92456" lon="0.19233">
        <ele>1476</ele>
        <time>2019-06-23T09:47:18.114Z</time>
      </trkpt>
      <trkpt lat="42.92456" lon="0.19234">
        <ele>1475</ele>
        <time>2019-06-23T09:47:19.114Z</time>
      </trkpt>
      <trkpt lat="42.92456" lon="0.19235">
        <ele>1476</ele>
        <time>2019-06-23T09:47:20.114Z</time>
      </trkpt>
      <trkpt lat="42.92457" lon="0.19236">
        <ele>1476</ele>
        <time>2019-06-23T09:47:21.114Z</time>
      </trkpt>
      <trkpt lat="42.92457" lon="0.19236">
        <ele>1476</ele>
        <time>2019-06-23T09:47:22.114Z</time>
      </trkpt>
      <trkpt lat="42.92457" lon="0.19237">
        <ele>1476</ele>
        <time>2019-06-23T09:47:23.114Z</time>
      </trkpt>
      <trkpt lat="42.92456" lon="0.19238">
        <ele>1475</ele>
        <time>2019-06-23T09:47:24.114Z</time>
      </trkpt>
      <trkpt lat="42.92456" lon="0.19239">
        <ele>1476</ele>
        <time>2019-06-23T09:47:25.114Z</time>
      </trkpt>
      <trkpt lat="42.92456" lon="0.1924">
        <ele>1475</ele>
        <time>2019-06-23T09:47:26.114Z</time>
      </trkpt>
      <trkpt lat="42.92456" lon="0.1924">
        <ele>1475</ele>
        <time>2019-06-23T09:47:28.114Z</time>
      </trkpt>
      <trkpt lat="42.92456" lon="0.1924">
        <ele>1475</ele>
        <time>2019-06-23T09:47:29.114Z</time>
      </trkpt>
      <trkpt lat="42.92456" lon="0.19241">
        <ele>1475</ele>
        <time>2019-06-23T09:47:30.114Z</time>
      </trkpt>
      <trkpt lat="42.92456" lon="0.19242">
        <ele>1475</ele>
        <time>2019-06-23T09:47:31.114Z</time>
      </trkpt>
      <trkpt lat="42.92456" lon="0.19243">
        <ele>1475</ele>
        <time>2019-06-23T09:47:32.114Z</time>
      </trkpt>
      <trkpt lat="42.92456" lon="0.19244">
        <ele>1475</ele>
        <time>2019-06-23T09:47:33.114Z</time>
      </trkpt>
      <trkpt lat="42.92456" lon="0.19244">
        <ele>1476</ele>
        <time>2019-06-23T09:47:34.114Z</time>
      </trkpt>
      <trkpt lat="42.92455" lon="0.19245">
        <ele>1476</ele>
        <time>2019-06-23T09:47:35.114Z</time>
      </trkpt>
      <trkpt lat="42.92454" lon="0.19245">
        <ele>1475</ele>
        <time>2019-06-23T09:47:36.114Z</time>
      </trkpt>
      <trkpt lat="42.92454" lon="0.19246">
        <ele>1475</ele>
        <time>2019-06-23T09:47:37.114Z</time>
      </trkpt>
      <trkpt lat="42.92453" lon="0.19246">
        <ele>1475</ele>
        <time>2019-06-23T09:47:38.114Z</time>
      </trkpt>
      <trkpt lat="42.92453" lon="0.19247">
        <ele>1475</ele>
        <time>2019-06-23T09:47:39.114Z</time>
      </trkpt>
      <trkpt lat="42.92452" lon="0.19247">
        <ele>1475</ele>
        <time>2019-06-23T09:47:40.114Z</time>
      </trkpt>
      <trkpt lat="42.92452" lon="0.19248">
        <ele>1475</ele>
        <time>2019-06-23T09:47:41.114Z</time>
      </trkpt>
      <trkpt lat="42.92452" lon="0.19248">
        <ele>1475</ele>
        <time>2019-06-23T09:47:42.114Z</time>
      </trkpt>
      <trkpt lat="42.92452" lon="0.19249">
        <ele>1475</ele>
        <time>2019-06-23T09:47:43.114Z</time>
      </trkpt>
      <trkpt lat="42.92453" lon="0.1925">
        <ele>1475</ele>
        <time>2019-06-23T09:47:44.114Z</time>
      </trkpt>
      <trkpt lat="42.92453" lon="0.1925">
        <ele>1475</ele>
        <time>2019-06-23T09:47:45.114Z</time>
      </trkpt>
      <trkpt lat="42.92453" lon="0.19251">
        <ele>1475</ele>
        <time>2019-06-23T09:47:46.114Z</time>
      </trkpt>
      <trkpt lat="42.92454" lon="0.19252">
        <ele>1475</ele>
        <time>2019-06-23T09:47:47.114Z</time>
      </trkpt>
      <trkpt lat="42.92455" lon="0.19253">
        <ele>1475</ele>
        <time>2019-06-23T09:47:48.114Z</time>
      </trkpt>
      <trkpt lat="42.92457" lon="0.19253">
        <ele>1475</ele>
        <time>2019-06-23T09:47:49.114Z</time>
      </trkpt>
      <trkpt lat="42.92458" lon="0.19254">
        <ele>1475</ele>
        <time>2019-06-23T09:47:50.114Z</time>
      </trkpt>
      <trkpt lat="42.92458" lon="0.19255">
        <ele>1475</ele>
        <time>2019-06-23T09:47:51.114Z</time>
      </trkpt>
      <trkpt lat="42.92459" lon="0.19256">
        <ele>1475</ele>
        <time>2019-06-23T09:47:52.114Z</time>
      </trkpt>
      <trkpt lat="42.9246" lon="0.19257">
        <ele>1475</ele>
        <time>2019-06-23T09:47:53.114Z</time>
      </trkpt>
      <trkpt lat="42.92461" lon="0.19257">
        <ele>1476</ele>
        <time>2019-06-23T09:47:54.114Z</time>
      </trkpt>
      <trkpt lat="42.92461" lon="0.19258">
        <ele>1476</ele>
        <time>2019-06-23T09:47:55.114Z</time>
      </trkpt>
      <trkpt lat="42.92461" lon="0.19258">
        <ele>1476</ele>
        <time>2019-06-23T09:47:56.114Z</time>
      </trkpt>
      <trkpt lat="42.92462" lon="0.19259">
        <ele>1476</ele>
        <time>2019-06-23T09:47:57.114Z</time>
      </trkpt>
      <trkpt lat="42.92461" lon="0.19259">
        <ele>1476</ele>
        <time>2019-06-23T09:47:58.114Z</time>
      </trkpt>
      <trkpt lat="42.92461" lon="0.1926">
        <ele>1476</ele>
        <time>2019-06-23T09:47:59.114Z</time>
      </trkpt>
      <trkpt lat="42.92461" lon="0.1926">
        <ele>1476</ele>
        <time>2019-06-23T09:48:00.114Z</time>
      </trkpt>
      <trkpt lat="42.92461" lon="0.19261">
        <ele>1476</ele>
        <time>2019-06-23T09:48:01.114Z</time>
      </trkpt>
      <trkpt lat="42.92461" lon="0.19261">
        <ele>1476</ele>
        <time>2019-06-23T09:48:02.114Z</time>
      </trkpt>
      <trkpt lat="42.92461" lon="0.19262">
        <ele>1476</ele>
        <time>2019-06-23T09:48:03.114Z</time>
      </trkpt>
      <trkpt lat="42.92461" lon="0.19263">
        <ele>1476</ele>
        <time>2019-06-23T09:48:04.114Z</time>
      </trkpt>
      <trkpt lat="42.92461" lon="0.19263">
        <ele>1476</ele>
        <time>2019-06-23T09:48:05.114Z</time>
      </trkpt>
      <trkpt lat="42.92462" lon="0.19268">
        <ele>1476</ele>
        <time>2019-06-23T09:48:06.001Z</time>
      </trkpt>
      <trkpt lat="42.92461" lon="0.19268">
        <ele>1476</ele>
        <time>2019-06-23T09:48:07.001Z</time>
      </trkpt>
      <trkpt lat="42.92461" lon="0.19268">
        <ele>1476</ele>
        <time>2019-06-23T09:48:08.001Z</time>
      </trkpt>
      <trkpt lat="42.92461" lon="0.19268">
        <ele>1476</ele>
        <time>2019-06-23T09:48:09.001Z</time>
      </trkpt>
      <trkpt lat="42.9246" lon="0.19268">
        <ele>1476</ele>
        <time>2019-06-23T09:48:10.001Z</time>
      </trkpt>
      <trkpt lat="42.92456" lon="0.19268">
        <ele>1476</ele>
        <time>2019-06-23T09:48:11.009Z</time>
      </trkpt>
      <trkpt lat="42.92457" lon="0.19269">
        <ele>1476</ele>
        <time>2019-06-23T09:48:12.009Z</time>
      </trkpt>
      <trkpt lat="42.92457" lon="0.1927">
        <ele>1476</ele>
        <time>2019-06-23T09:48:13.009Z</time>
      </trkpt>
      <trkpt lat="42.92457" lon="0.19271">
        <ele>1476</ele>
        <time>2019-06-23T09:48:14.009Z</time>
      </trkpt>
      <trkpt lat="42.92458" lon="0.19272">
        <ele>1476</ele>
        <time>2019-06-23T09:48:15.009Z</time>
      </trkpt>
      <trkpt lat="42.92458" lon="0.19273">
        <ele>1476</ele>
        <time>2019-06-23T09:48:16.009Z</time>
      </trkpt>
      <trkpt lat="42.92459" lon="0.19273">
        <ele>1476</ele>
        <time>2019-06-23T09:48:17.009Z</time>
      </trkpt>
      <trkpt lat="42.92459" lon="0.19274">
        <ele>1476</ele>
        <time>2019-06-23T09:48:18.009Z</time>
      </trkpt>
      <trkpt lat="42.9246" lon="0.19275">
        <ele>1476</ele>
        <time>2019-06-23T09:48:19.009Z</time>
      </trkpt>
      <trkpt lat="42.92461" lon="0.19275">
        <ele>1476</ele>
        <time>2019-06-23T09:48:20.009Z</time>
      </trkpt>
      <trkpt lat="42.92461" lon="0.19276">
        <ele>1476</ele>
        <time>2019-06-23T09:48:21.009Z</time>
      </trkpt>
      <trkpt lat="42.92462" lon="0.19276">
        <ele>1476</ele>
        <time>2019-06-23T09:48:22.009Z</time>
      </trkpt>
      <trkpt lat="42.92462" lon="0.19277">
        <ele>1476</ele>
        <time>2019-06-23T09:48:23.009Z</time>
      </trkpt>
      <trkpt lat="42.92463" lon="0.19277">
        <ele>1476</ele>
        <time>2019-06-23T09:48:24.009Z</time>
      </trkpt>
      <trkpt lat="42.92463" lon="0.19278">
        <ele>1476</ele>
        <time>2019-06-23T09:48:25.009Z</time>
      </trkpt>
      <trkpt lat="42.92464" lon="0.19278">
        <ele>1476</ele>
        <time>2019-06-23T09:48:26.009Z</time>
      </trkpt>
      <trkpt lat="42.92464" lon="0.19279">
        <ele>1476</ele>
        <time>2019-06-23T09:48:27.009Z</time>
      </trkpt>
      <trkpt lat="42.92465" lon="0.19279">
        <ele>1476</ele>
        <time>2019-06-23T09:48:28.009Z</time>
      </trkpt>
      <trkpt lat="42.92465" lon="0.1928">
        <ele>1476</ele>
        <time>2019-06-23T09:48:29.009Z</time>
      </trkpt>
      <trkpt lat="42.92466" lon="0.1928">
        <ele>1476</ele>
        <time>2019-06-23T09:48:30.009Z</time>
      </trkpt>
      <trkpt lat="42.92466" lon="0.19281">
        <ele>1476</ele>
        <time>2019-06-23T09:48:31.009Z</time>
      </trkpt>
      <trkpt lat="42.92467" lon="0.19281">
        <ele>1476</ele>
        <time>2019-06-23T09:48:32.009Z</time>
      </trkpt>
      <trkpt lat="42.92467" lon="0.19282">
        <ele>1476</ele>
        <time>2019-06-23T09:48:33.009Z</time>
      </trkpt>
      <trkpt lat="42.92467" lon="0.19282">
        <ele>1476</ele>
        <time>2019-06-23T09:48:34.009Z</time>
      </trkpt>
      <trkpt lat="42.92467" lon="0.19282">
        <ele>1476</ele>
        <time>2019-06-23T09:48:35.009Z</time>
      </trkpt>
      <trkpt lat="42.92467" lon="0.19282">
        <ele>1476</ele>
        <time>2019-06-23T09:48:36.009Z</time>
      </trkpt>
      <trkpt lat="42.92467" lon="0.19282">
        <ele>1476</ele>
        <time>2019-06-23T09:48:37.009Z</time>
      </trkpt>
      <trkpt lat="42.92467" lon="0.19282">
        <ele>1476</ele>
        <time>2019-06-23T09:48:38.009Z</time>
      </trkpt>
      <trkpt lat="42.92439" lon="0.19267">
        <ele>1449</ele>
        <time>2019-06-23T09:48:39.017Z</time>
      </trkpt>
      <trkpt lat="42.9244" lon="0.19267">
        <ele>1448</ele>
        <time>2019-06-23T09:48:40.017Z</time>
      </trkpt>
      <trkpt lat="42.9244" lon="0.19267">
        <ele>1448</ele>
        <time>2019-06-23T09:48:41.017Z</time>
      </trkpt>
      <trkpt lat="42.92441" lon="0.19267">
        <ele>1448</ele>
        <time>2019-06-23T09:48:42.017Z</time>
      </trkpt>
      <trkpt lat="42.92441" lon="0.19267">
        <ele>1447</ele>
        <time>2019-06-23T09:48:43.017Z</time>
      </trkpt>
      <trkpt lat="42.92441" lon="0.19267">
        <ele>1447</ele>
        <time>2019-06-23T09:48:44.017Z</time>
      </trkpt>
      <trkpt lat="42.92442" lon="0.19267">
        <ele>1447</ele>
        <time>2019-06-23T09:48:45.017Z</time>
      </trkpt>
      <trkpt lat="42.92442" lon="0.19266">
        <ele>1446</ele>
        <time>2019-06-23T09:48:46.017Z</time>
      </trkpt>
      <trkpt lat="42.92443" lon="0.19266">
        <ele>1446</ele>
        <time>2019-06-23T09:48:47.017Z</time>
      </trkpt>
      <trkpt lat="42.92443" lon="0.19266">
        <ele>1445</ele>
        <time>2019-06-23T09:48:48.017Z</time>
      </trkpt>
      <trkpt lat="42.92444" lon="0.19266">
        <ele>1445</ele>
        <time>2019-06-23T09:48:49.017Z</time>
      </trkpt>
      <trkpt lat="42.92444" lon="0.19265">
        <ele>1445</ele>
        <time>2019-06-23T09:48:50.017Z</time>
      </trkpt>
      <trkpt lat="42.92444" lon="0.19265">
        <ele>1445</ele>
        <time>2019-06-23T09:48:51.017Z</time>
      </trkpt>
      <trkpt lat="42.92444" lon="0.19265">
        <ele>1444</ele>
        <time>2019-06-23T09:48:52.017Z</time>
      </trkpt>
      <trkpt lat="42.92445" lon="0.19264">
        <ele>1444</ele>
        <time>2019-06-23T09:48:53.017Z</time>
      </trkpt>
      <trkpt lat="42.92446" lon="0.19264">
        <ele>1444</ele>
        <time>2019-06-23T09:48:54.017Z</time>
      </trkpt>
      <trkpt lat="42.92446" lon="0.19263">
        <ele>1443</ele>
        <time>2019-06-23T09:48:55.017Z</time>
      </trkpt>
      <trkpt lat="42.92447" lon="0.19262">
        <ele>1443</ele>
        <time>2019-06-23T09:48:56.017Z</time>
      </trkpt>
      <trkpt lat="42.92447" lon="0.19262">
        <ele>1442</ele>
        <time>2019-06-23T09:48:57.017Z</time>
      </trkpt>
      <trkpt lat="42.92447" lon="0.19261">
        <ele>1442</ele>
        <time>2019-06-23T09:48:58.017Z</time>
      </trkpt>
      <trkpt lat="42.92447" lon="0.19261">
        <ele>1442</ele>
        <time>2019-06-23T09:48:59.017Z</time>
      </trkpt>
      <trkpt lat="42.92447" lon="0.19261">
        <ele>1442</ele>
        <time>2019-06-23T09:49:00.017Z</time>
      </trkpt>
      <trkpt lat="42.92447" lon="0.19261">
        <ele>1442</ele>
        <time>2019-06-23T09:49:01.017Z</time>
      </trkpt>
      <trkpt lat="42.92447" lon="0.1926">
        <ele>1441</ele>
        <time>2019-06-23T09:49:02.017Z</time>
      </trkpt>
      <trkpt lat="42.92447" lon="0.1926">
        <ele>1441</ele>
        <time>2019-06-23T09:49:03.017Z</time>
      </trkpt>
      <trkpt lat="42.92448" lon="0.19259">
        <ele>1441</ele>
        <time>2019-06-23T09:49:04.017Z</time>
      </trkpt>
      <trkpt lat="42.92448" lon="0.19259">
        <ele>1440</ele>
        <time>2019-06-23T09:49:05.017Z</time>
      </trkpt>
      <trkpt lat="42.92448" lon="0.19258">
        <ele>1440</ele>
        <time>2019-06-23T09:49:06.017Z</time>
      </trkpt>
      <trkpt lat="42.92449" lon="0.19258">
        <ele>1439</ele>
        <time>2019-06-23T09:49:07.017Z</time>
      </trkpt>
      <trkpt lat="42.92449" lon="0.19257">
        <ele>1439</ele>
        <time>2019-06-23T09:49:08.017Z</time>
      </trkpt>
      <trkpt lat="42.9245" lon="0.19257">
        <ele>1439</ele>
        <time>2019-06-23T09:49:09.017Z</time>
      </trkpt>
      <trkpt lat="42.92451" lon="0.19256">
        <ele>1438</ele>
        <time>2019-06-23T09:49:10.017Z</time>
      </trkpt>
      <trkpt lat="42.92451" lon="0.19255">
        <ele>1437</ele>
        <time>2019-06-23T09:49:11.017Z</time>
      </trkpt>
      <trkpt lat="42.92451" lon="0.19255">
        <ele>1436</ele>
        <time>2019-06-23T09:49:12.017Z</time>
      </trkpt>
      <trkpt lat="42.92451" lon="0.19255">
        <ele>1435</ele>
        <time>2019-06-23T09:49:13.017Z</time>
      </trkpt>
      <trkpt lat="42.92451" lon="0.19254">
        <ele>1433</ele>
        <time>2019-06-23T09:49:14.017Z</time>
      </trkpt>
      <trkpt lat="42.92451" lon="0.19254">
        <ele>1432</ele>
        <time>2019-06-23T09:49:15.017Z</time>
      </trkpt>
      <trkpt lat="42.92451" lon="0.19253">
        <ele>1432</ele>
        <time>2019-06-23T09:49:16.017Z</time>
      </trkpt>
      <trkpt lat="42.92451" lon="0.19253">
        <ele>1432</ele>
        <time>2019-06-23T09:49:17.017Z</time>
      </trkpt>
      <trkpt lat="42.92452" lon="0.19253">
        <ele>1431</ele>
        <time>2019-06-23T09:49:18.017Z</time>
      </trkpt>
      <trkpt lat="42.92452" lon="0.19252">
        <ele>1431</ele>
        <time>2019-06-23T09:49:19.017Z</time>
      </trkpt>
      <trkpt lat="42.92452" lon="0.19252">
        <ele>1431</ele>
        <time>2019-06-23T09:49:20.017Z</time>
      </trkpt>
      <trkpt lat="42.92451" lon="0.19252">
        <ele>1430</ele>
        <time>2019-06-23T09:49:21.017Z</time>
      </trkpt>
      <trkpt lat="42.92451" lon="0.19252">
        <ele>1430</ele>
        <time>2019-06-23T09:49:22.017Z</time>
      </trkpt>
      <trkpt lat="42.92451" lon="0.19252">
        <ele>1430</ele>
        <time>2019-06-23T09:49:23.017Z</time>
      </trkpt>
      <trkpt lat="42.92452" lon="0.19252">
        <ele>1429</ele>
        <time>2019-06-23T09:49:24.017Z</time>
      </trkpt>
      <trkpt lat="42.92452" lon="0.19252">
        <ele>1429</ele>
        <time>2019-06-23T09:49:25.017Z</time>
      </trkpt>
      <trkpt lat="42.92452" lon="0.19252">
        <ele>1429</ele>
        <time>2019-06-23T09:49:26.017Z</time>
      </trkpt>
      <trkpt lat="42.92452" lon="0.19252">
        <ele>1428</ele>
        <time>2019-06-23T09:49:27.017Z</time>
      </trkpt>
      <trkpt lat="42.92452" lon="0.19252">
        <ele>1428</ele>
        <time>2019-06-23T09:49:28.017Z</time>
      </trkpt>
      <trkpt lat="42.92452" lon="0.19252">
        <ele>1428</ele>
        <time>2019-06-23T09:49:29.017Z</time>
      </trkpt>
      <trkpt lat="42.92452" lon="0.19252">
        <ele>1428</ele>
        <time>2019-06-23T09:49:30.017Z</time>
      </trkpt>
      <trkpt lat="42.92454" lon="0.19251">
        <ele>1419</ele>
        <time>2019-06-23T09:49:31.021Z</time>
      </trkpt>
      <trkpt lat="42.92455" lon="0.19251">
        <ele>1419</ele>
        <time>2019-06-23T09:49:32.021Z</time>
      </trkpt>
      <trkpt lat="42.92455" lon="0.19251">
        <ele>1420</ele>
        <time>2019-06-23T09:49:33.021Z</time>
      </trkpt>
      <trkpt lat="42.92456" lon="0.19251">
        <ele>1419</ele>
        <time>2019-06-23T09:49:34.021Z</time>
      </trkpt>
      <trkpt lat="42.92456" lon="0.19251">
        <ele>1419</ele>
        <time>2019-06-23T09:49:35.021Z</time>
      </trkpt>
      <trkpt lat="42.92457" lon="0.1925">
        <ele>1419</ele>
        <time>2019-06-23T09:49:36.021Z</time>
      </trkpt>
      <trkpt lat="42.92458" lon="0.1925">
        <ele>1419</ele>
        <time>2019-06-23T09:49:37.021Z</time>
      </trkpt>
      <trkpt lat="42.92458" lon="0.1925">
        <ele>1419</ele>
        <time>2019-06-23T09:49:38.021Z</time>
      </trkpt>
      <trkpt lat="42.92459" lon="0.19249">
        <ele>1419</ele>
        <time>2019-06-23T09:49:39.021Z</time>
      </trkpt>
      <trkpt lat="42.9246" lon="0.19249">
        <ele>1418</ele>
        <time>2019-06-23T09:49:40.021Z</time>
      </trkpt>
      <trkpt lat="42.9246" lon="0.19249">
        <ele>1418</ele>
        <time>2019-06-23T09:49:41.021Z</time>
      </trkpt>
      <trkpt lat="42.9246" lon="0.19249">
        <ele>1418</ele>
        <time>2019-06-23T09:49:42.021Z</time>
      </trkpt>
      <trkpt lat="42.9246" lon="0.19249">
        <ele>1418</ele>
        <time>2019-06-23T09:49:43.021Z</time>
      </trkpt>
      <trkpt lat="42.9246" lon="0.19249">
        <ele>1418</ele>
        <time>2019-06-23T09:49:44.021Z</time>
      </trkpt>
      <trkpt lat="42.92459" lon="0.19249">
        <ele>1419</ele>
        <time>2019-06-23T09:49:45.021Z</time>
      </trkpt>
      <trkpt lat="42.92459" lon="0.19249">
        <ele>1419</ele>
        <time>2019-06-23T09:49:46.021Z</time>
      </trkpt>
      <trkpt lat="42.92458" lon="0.19249">
        <ele>1419</ele>
        <time>2019-06-23T09:49:47.021Z</time>
      </trkpt>
      <trkpt lat="42.92462" lon="0.19254">
        <ele>1418</ele>
        <time>2019-06-23T09:49:48.025Z</time>
      </trkpt>
      <trkpt lat="42.92463" lon="0.19255">
        <ele>1418</ele>
        <time>2019-06-23T09:49:49.025Z</time>
      </trkpt>
      <trkpt lat="42.92464" lon="0.19256">
        <ele>1418</ele>
        <time>2019-06-23T09:49:50.025Z</time>
      </trkpt>
      <trkpt lat="42.92465" lon="0.19256">
        <ele>1418</ele>
        <time>2019-06-23T09:49:51.025Z</time>
      </trkpt>
      <trkpt lat="42.92465" lon="0.19257">
        <ele>1418</ele>
        <time>2019-06-23T09:49:52.025Z</time>
      </trkpt>
      <trkpt lat="42.92466" lon="0.19258">
        <ele>1417</ele>
        <time>2019-06-23T09:49:53.025Z</time>
      </trkpt>
      <trkpt lat="42.92466" lon="0.19259">
        <ele>1418</ele>
        <time>2019-06-23T09:49:54.025Z</time>
      </trkpt>
      <trkpt lat="42.92467" lon="0.19259">
        <ele>1418</ele>
        <time>2019-06-23T09:49:55.025Z</time>
      </trkpt>
      <trkpt lat="42.92467" lon="0.1926">
        <ele>1418</ele>
        <time>2019-06-23T09:49:56.025Z</time>
      </trkpt>
      <trkpt lat="42.92468" lon="0.19261">
        <ele>1418</ele>
        <time>2019-06-23T09:49:57.025Z</time>
      </trkpt>
      <trkpt lat="42.92468" lon="0.19263">
        <ele>1418</ele>
        <time>2019-06-23T09:49:58.025Z</time>
      </trkpt>
      <trkpt lat="42.92469" lon="0.19264">
        <ele>1418</ele>
        <time>2019-06-23T09:49:59.025Z</time>
      </trkpt>
      <trkpt lat="42.9247" lon="0.19265">
        <ele>1419</ele>
        <time>2019-06-23T09:50:00.025Z</time>
      </trkpt>
      <trkpt lat="42.92471" lon="0.19266">
        <ele>1419</ele>
        <time>2019-06-23T09:50:01.025Z</time>
      </trkpt>
      <trkpt lat="42.92471" lon="0.19266">
        <ele>1418</ele>
        <time>2019-06-23T09:50:02.025Z</time>
      </trkpt>
      <trkpt lat="42.92472" lon="0.19267">
        <ele>1418</ele>
        <time>2019-06-23T09:50:03.025Z</time>
      </trkpt>
      <trkpt lat="42.92472" lon="0.19268">
        <ele>1418</ele>
        <time>2019-06-23T09:50:04.025Z</time>
      </trkpt>
      <trkpt lat="42.92471" lon="0.1927">
        <ele>1418</ele>
        <time>2019-06-23T09:50:05.025Z</time>
      </trkpt>
      <trkpt lat="42.92471" lon="0.19271">
        <ele>1418</ele>
        <time>2019-06-23T09:50:06.025Z</time>
      </trkpt>
      <trkpt lat="42.92471" lon="0.19272">
        <ele>1418</ele>
        <time>2019-06-23T09:50:07.025Z</time>
      </trkpt>
      <trkpt lat="42.92472" lon="0.19273">
        <ele>1418</ele>
        <time>2019-06-23T09:50:08.025Z</time>
      </trkpt>
      <trkpt lat="42.92472" lon="0.19274">
        <ele>1418</ele>
        <time>2019-06-23T09:50:09.025Z</time>
      </trkpt>
      <trkpt lat="42.92473" lon="0.19275">
        <ele>1418</ele>
        <time>2019-06-23T09:50:10.025Z</time>
      </trkpt>
      <trkpt lat="42.92473" lon="0.19276">
        <ele>1418</ele>
        <time>2019-06-23T09:50:11.025Z</time>
      </trkpt>
      <trkpt lat="42.92473" lon="0.19277">
        <ele>1418</ele>
        <time>2019-06-23T09:50:12.025Z</time>
      </trkpt>
      <trkpt lat="42.92473" lon="0.19278">
        <ele>1418</ele>
        <time>2019-06-23T09:50:13.025Z</time>
      </trkpt>
      <trkpt lat="42.92473" lon="0.19279">
        <ele>1418</ele>
        <time>2019-06-23T09:50:14.025Z</time>
      </trkpt>
      <trkpt lat="42.92474" lon="0.1928">
        <ele>1418</ele>
        <time>2019-06-23T09:50:15.025Z</time>
      </trkpt>
      <trkpt lat="42.92474" lon="0.19281">
        <ele>1418</ele>
        <time>2019-06-23T09:50:16.025Z</time>
      </trkpt>
      <trkpt lat="42.92475" lon="0.19282">
        <ele>1418</ele>
        <time>2019-06-23T09:50:17.025Z</time>
      </trkpt>
      <trkpt lat="42.92475" lon="0.19283">
        <ele>1418</ele>
        <time>2019-06-23T09:50:18.025Z</time>
      </trkpt>
      <trkpt lat="42.92476" lon="0.19284">
        <ele>1418</ele>
        <time>2019-06-23T09:50:19.025Z</time>
      </trkpt>
      <trkpt lat="42.92476" lon="0.19286">
        <ele>1417</ele>
        <time>2019-06-23T09:50:20.025Z</time>
      </trkpt>
      <trkpt lat="42.92476" lon="0.19287">
        <ele>1418</ele>
        <time>2019-06-23T09:50:21.025Z</time>
      </trkpt>
      <trkpt lat="42.92477" lon="0.19288">
        <ele>1418</ele>
        <time>2019-06-23T09:50:22.025Z</time>
      </trkpt>
      <trkpt lat="42.92477" lon="0.19289">
        <ele>1418</ele>
        <time>2019-06-23T09:50:23.025Z</time>
      </trkpt>
      <trkpt lat="42.92477" lon="0.1929">
        <ele>1417</ele>
        <time>2019-06-23T09:50:24.025Z</time>
      </trkpt>
      <trkpt lat="42.92478" lon="0.19291">
        <ele>1418</ele>
        <time>2019-06-23T09:50:25.025Z</time>
      </trkpt>
      <trkpt lat="42.92478" lon="0.19292">
        <ele>1418</ele>
        <time>2019-06-23T09:50:26.025Z</time>
      </trkpt>
      <trkpt lat="42.92478" lon="0.19293">
        <ele>1418</ele>
        <time>2019-06-23T09:50:27.025Z</time>
      </trkpt>
      <trkpt lat="42.92478" lon="0.19293">
        <ele>1418</ele>
        <time>2019-06-23T09:50:28.025Z</time>
      </trkpt>
      <trkpt lat="42.92479" lon="0.19294">
        <ele>1418</ele>
        <time>2019-06-23T09:50:29.025Z</time>
      </trkpt>
      <trkpt lat="42.9248" lon="0.19295">
        <ele>1418</ele>
        <time>2019-06-23T09:50:30.025Z</time>
      </trkpt>
      <trkpt lat="42.9248" lon="0.19296">
        <ele>1418</ele>
        <time>2019-06-23T09:50:31.025Z</time>
      </trkpt>
      <trkpt lat="42.92481" lon="0.19296">
        <ele>1418</ele>
        <time>2019-06-23T09:50:32.025Z</time>
      </trkpt>
      <trkpt lat="42.92482" lon="0.19297">
        <ele>1418</ele>
        <time>2019-06-23T09:50:33.025Z</time>
      </trkpt>
      <trkpt lat="42.92483" lon="0.19297">
        <ele>1417</ele>
        <time>2019-06-23T09:50:34.025Z</time>
      </trkpt>
      <trkpt lat="42.92484" lon="0.19298">
        <ele>1417</ele>
        <time>2019-06-23T09:50:35.025Z</time>
      </trkpt>
      <trkpt lat="42.92485" lon="0.19298">
        <ele>1417</ele>
        <time>2019-06-23T09:50:36.025Z</time>
      </trkpt>
      <trkpt lat="42.92485" lon="0.19299">
        <ele>1418</ele>
        <time>2019-06-23T09:50:37.025Z</time>
      </trkpt>
      <trkpt lat="42.92486" lon="0.193">
        <ele>1418</ele>
        <time>2019-06-23T09:50:38.025Z</time>
      </trkpt>
      <trkpt lat="42.92487" lon="0.19301">
        <ele>1418</ele>
        <time>2019-06-23T09:50:39.025Z</time>
      </trkpt>
      <trkpt lat="42.92488" lon="0.19302">
        <ele>1418</ele>
        <time>2019-06-23T09:50:40.025Z</time>
      </trkpt>
      <trkpt lat="42.92488" lon="0.19302">
        <ele>1418</ele>
        <time>2019-06-23T09:50:41.025Z</time>
      </trkpt>
      <trkpt lat="42.92489" lon="0.19303">
        <ele>1418</ele>
        <time>2019-06-23T09:50:42.025Z</time>
      </trkpt>
      <trkpt lat="42.9249" lon="0.19304">
        <ele>1418</ele>
        <time>2019-06-23T09:50:43.025Z</time>
      </trkpt>
      <trkpt lat="42.92491" lon="0.19305">
        <ele>1418</ele>
        <time>2019-06-23T09:50:44.025Z</time>
      </trkpt>
      <trkpt lat="42.92492" lon="0.19305">
        <ele>1418</ele>
        <time>2019-06-23T09:50:45.025Z</time>
      </trkpt>
      <trkpt lat="42.92493" lon="0.19306">
        <ele>1418</ele>
        <time>2019-06-23T09:50:46.025Z</time>
      </trkpt>
      <trkpt lat="42.92493" lon="0.19307">
        <ele>1417</ele>
        <time>2019-06-23T09:50:47.025Z</time>
      </trkpt>
      <trkpt lat="42.92494" lon="0.19308">
        <ele>1417</ele>
        <time>2019-06-23T09:50:48.025Z</time>
      </trkpt>
      <trkpt lat="42.92494" lon="0.19309">
        <ele>1417</ele>
        <time>2019-06-23T09:50:49.025Z</time>
      </trkpt>
      <trkpt lat="42.92495" lon="0.19309">
        <ele>1417</ele>
        <time>2019-06-23T09:50:50.025Z</time>
      </trkpt>
      <trkpt lat="42.92495" lon="0.1931">
        <ele>1417</ele>
        <time>2019-06-23T09:50:51.025Z</time>
      </trkpt>
      <trkpt lat="42.92496" lon="0.19311">
        <ele>1417</ele>
        <time>2019-06-23T09:50:52.025Z</time>
      </trkpt>
      <trkpt lat="42.92496" lon="0.19312">
        <ele>1417</ele>
        <time>2019-06-23T09:50:53.025Z</time>
      </trkpt>
      <trkpt lat="42.92496" lon="0.19314">
        <ele>1417</ele>
        <time>2019-06-23T09:50:54.025Z</time>
      </trkpt>
      <trkpt lat="42.92497" lon="0.19315">
        <ele>1417</ele>
        <time>2019-06-23T09:50:55.025Z</time>
      </trkpt>
      <trkpt lat="42.92497" lon="0.19316">
        <ele>1417</ele>
        <time>2019-06-23T09:50:56.025Z</time>
      </trkpt>
      <trkpt lat="42.92498" lon="0.19317">
        <ele>1416</ele>
        <time>2019-06-23T09:50:57.025Z</time>
      </trkpt>
      <trkpt lat="42.92498" lon="0.19318">
        <ele>1416</ele>
        <time>2019-06-23T09:50:58.025Z</time>
      </trkpt>
      <trkpt lat="42.92499" lon="0.19318">
        <ele>1416</ele>
        <time>2019-06-23T09:50:59.025Z</time>
      </trkpt>
      <trkpt lat="42.92499" lon="0.19319">
        <ele>1417</ele>
        <time>2019-06-23T09:51:00.025Z</time>
      </trkpt>
      <trkpt lat="42.925" lon="0.1932">
        <ele>1417</ele>
        <time>2019-06-23T09:51:01.025Z</time>
      </trkpt>
      <trkpt lat="42.925" lon="0.19321">
        <ele>1417</ele>
        <time>2019-06-23T09:51:02.025Z</time>
      </trkpt>
      <trkpt lat="42.925" lon="0.19322">
        <ele>1417</ele>
        <time>2019-06-23T09:51:03.025Z</time>
      </trkpt>
      <trkpt lat="42.925" lon="0.19323">
        <ele>1416</ele>
        <time>2019-06-23T09:51:04.025Z</time>
      </trkpt>
      <trkpt lat="42.92501" lon="0.19324">
        <ele>1416</ele>
        <time>2019-06-23T09:51:05.025Z</time>
      </trkpt>
      <trkpt lat="42.92501" lon="0.19325">
        <ele>1416</ele>
        <time>2019-06-23T09:51:06.025Z</time>
      </trkpt>
      <trkpt lat="42.92501" lon="0.19326">
        <ele>1416</ele>
        <time>2019-06-23T09:51:07.025Z</time>
      </trkpt>
      <trkpt lat="42.92502" lon="0.19327">
        <ele>1416</ele>
        <time>2019-06-23T09:51:08.025Z</time>
      </trkpt>
      <trkpt lat="42.92502" lon="0.19327">
        <ele>1416</ele>
        <time>2019-06-23T09:51:09.025Z</time>
      </trkpt>
      <trkpt lat="42.92503" lon="0.19328">
        <ele>1415</ele>
        <time>2019-06-23T09:51:10.025Z</time>
      </trkpt>
      <trkpt lat="42.92503" lon="0.19329">
        <ele>1415</ele>
        <time>2019-06-23T09:51:11.025Z</time>
      </trkpt>
      <trkpt lat="42.92503" lon="0.1933">
        <ele>1415</ele>
        <time>2019-06-23T09:51:12.025Z</time>
      </trkpt>
      <trkpt lat="42.92503" lon="0.19331">
        <ele>1415</ele>
        <time>2019-06-23T09:51:13.025Z</time>
      </trkpt>
      <trkpt lat="42.92504" lon="0.19332">
        <ele>1415</ele>
        <time>2019-06-23T09:51:14.025Z</time>
      </trkpt>
      <trkpt lat="42.92504" lon="0.19332">
        <ele>1415</ele>
        <time>2019-06-23T09:51:15.025Z</time>
      </trkpt>
      <trkpt lat="42.92505" lon="0.19333">
        <ele>1415</ele>
        <time>2019-06-23T09:51:16.025Z</time>
      </trkpt>
      <trkpt lat="42.92505" lon="0.19334">
        <ele>1416</ele>
        <time>2019-06-23T09:51:17.025Z</time>
      </trkpt>
      <trkpt lat="42.92506" lon="0.19335">
        <ele>1416</ele>
        <time>2019-06-23T09:51:18.025Z</time>
      </trkpt>
      <trkpt lat="42.92506" lon="0.19335">
        <ele>1416</ele>
        <time>2019-06-23T09:51:19.025Z</time>
      </trkpt>
      <trkpt lat="42.92506" lon="0.19336">
        <ele>1416</ele>
        <time>2019-06-23T09:51:20.025Z</time>
      </trkpt>
      <trkpt lat="42.92507" lon="0.19336">
        <ele>1416</ele>
        <time>2019-06-23T09:51:21.025Z</time>
      </trkpt>
      <trkpt lat="42.92507" lon="0.19336">
        <ele>1416</ele>
        <time>2019-06-23T09:51:22.025Z</time>
      </trkpt>
      <trkpt lat="42.92508" lon="0.19336">
        <ele>1416</ele>
        <time>2019-06-23T09:51:23.025Z</time>
      </trkpt>
      <trkpt lat="42.92508" lon="0.19336">
        <ele>1416</ele>
        <time>2019-06-23T09:51:24.025Z</time>
      </trkpt>
      <trkpt lat="42.92508" lon="0.19336">
        <ele>1415</ele>
        <time>2019-06-23T09:51:25.025Z</time>
      </trkpt>
      <trkpt lat="42.92508" lon="0.19336">
        <ele>1415</ele>
        <time>2019-06-23T09:51:26.025Z</time>
      </trkpt>
      <trkpt lat="42.92508" lon="0.19336">
        <ele>1415</ele>
        <time>2019-06-23T09:51:27.025Z</time>
      </trkpt>
      <trkpt lat="42.92509" lon="0.19336">
        <ele>1415</ele>
        <time>2019-06-23T09:51:28.025Z</time>
      </trkpt>
      <trkpt lat="42.92509" lon="0.19337">
        <ele>1415</ele>
        <time>2019-06-23T09:51:29.025Z</time>
      </trkpt>
      <trkpt lat="42.92509" lon="0.19337">
        <ele>1415</ele>
        <time>2019-06-23T09:51:30.025Z</time>
      </trkpt>
      <trkpt lat="42.9251" lon="0.19338">
        <ele>1414</ele>
        <time>2019-06-23T09:51:31.025Z</time>
      </trkpt>
      <trkpt lat="42.9251" lon="0.19339">
        <ele>1414</ele>
        <time>2019-06-23T09:51:32.025Z</time>
      </trkpt>
      <trkpt lat="42.92511" lon="0.1934">
        <ele>1414</ele>
        <time>2019-06-23T09:51:33.025Z</time>
      </trkpt>
      <trkpt lat="42.92511" lon="0.1934">
        <ele>1413</ele>
        <time>2019-06-23T09:51:34.025Z</time>
      </trkpt>
      <trkpt lat="42.92512" lon="0.19341">
        <ele>1413</ele>
        <time>2019-06-23T09:51:35.025Z</time>
      </trkpt>
      <trkpt lat="42.92513" lon="0.19341">
        <ele>1413</ele>
        <time>2019-06-23T09:51:36.025Z</time>
      </trkpt>
      <trkpt lat="42.92513" lon="0.19342">
        <ele>1412</ele>
        <time>2019-06-23T09:51:37.025Z</time>
      </trkpt>
      <trkpt lat="42.92514" lon="0.19342">
        <ele>1412</ele>
        <time>2019-06-23T09:51:38.025Z</time>
      </trkpt>
      <trkpt lat="42.92515" lon="0.19343">
        <ele>1412</ele>
        <time>2019-06-23T09:51:39.025Z</time>
      </trkpt>
      <trkpt lat="42.92515" lon="0.19344">
        <ele>1412</ele>
        <time>2019-06-23T09:51:40.025Z</time>
      </trkpt>
      <trkpt lat="42.92516" lon="0.19344">
        <ele>1412</ele>
        <time>2019-06-23T09:51:41.025Z</time>
      </trkpt>
      <trkpt lat="42.92516" lon="0.19345">
        <ele>1412</ele>
        <time>2019-06-23T09:51:42.025Z</time>
      </trkpt>
      <trkpt lat="42.92516" lon="0.19346">
        <ele>1412</ele>
        <time>2019-06-23T09:51:43.025Z</time>
      </trkpt>
      <trkpt lat="42.92517" lon="0.19347">
        <ele>1411</ele>
        <time>2019-06-23T09:51:44.025Z</time>
      </trkpt>
      <trkpt lat="42.92517" lon="0.19348">
        <ele>1411</ele>
        <time>2019-06-23T09:51:45.025Z</time>
      </trkpt>
      <trkpt lat="42.92517" lon="0.19349">
        <ele>1411</ele>
        <time>2019-06-23T09:51:46.025Z</time>
      </trkpt>
      <trkpt lat="42.92517" lon="0.19349">
        <ele>1411</ele>
        <time>2019-06-23T09:51:47.025Z</time>
      </trkpt>
      <trkpt lat="42.92517" lon="0.1935">
        <ele>1411</ele>
        <time>2019-06-23T09:51:48.025Z</time>
      </trkpt>
      <trkpt lat="42.92517" lon="0.19351">
        <ele>1411</ele>
        <time>2019-06-23T09:51:49.025Z</time>
      </trkpt>
      <trkpt lat="42.92517" lon="0.19352">
        <ele>1411</ele>
        <time>2019-06-23T09:51:50.025Z</time>
      </trkpt>
      <trkpt lat="42.92517" lon="0.19353">
        <ele>1410</ele>
        <time>2019-06-23T09:51:51.025Z</time>
      </trkpt>
      <trkpt lat="42.92516" lon="0.19354">
        <ele>1410</ele>
        <time>2019-06-23T09:51:52.025Z</time>
      </trkpt>
      <trkpt lat="42.92516" lon="0.19355">
        <ele>1411</ele>
        <time>2019-06-23T09:51:53.025Z</time>
      </trkpt>
      <trkpt lat="42.92516" lon="0.19356">
        <ele>1410</ele>
        <time>2019-06-23T09:51:54.025Z</time>
      </trkpt>
      <trkpt lat="42.92516" lon="0.19357">
        <ele>1410</ele>
        <time>2019-06-23T09:51:55.025Z</time>
      </trkpt>
      <trkpt lat="42.92516" lon="0.19358">
        <ele>1410</ele>
        <time>2019-06-23T09:51:56.025Z</time>
      </trkpt>
      <trkpt lat="42.92517" lon="0.19359">
        <ele>1410</ele>
        <time>2019-06-23T09:51:57.025Z</time>
      </trkpt>
      <trkpt lat="42.92517" lon="0.1936">
        <ele>1410</ele>
        <time>2019-06-23T09:51:58.025Z</time>
      </trkpt>
      <trkpt lat="42.92517" lon="0.19361">
        <ele>1409</ele>
        <time>2019-06-23T09:51:59.025Z</time>
      </trkpt>
      <trkpt lat="42.92517" lon="0.19362">
        <ele>1410</ele>
        <time>2019-06-23T09:52:00.025Z</time>
      </trkpt>
      <trkpt lat="42.92516" lon="0.19363">
        <ele>1410</ele>
        <time>2019-06-23T09:52:01.025Z</time>
      </trkpt>
      <trkpt lat="42.92516" lon="0.19364">
        <ele>1409</ele>
        <time>2019-06-23T09:52:02.025Z</time>
      </trkpt>
      <trkpt lat="42.92516" lon="0.19365">
        <ele>1409</ele>
        <time>2019-06-23T09:52:03.025Z</time>
      </trkpt>
      <trkpt lat="42.92517" lon="0.19366">
        <ele>1409</ele>
        <time>2019-06-23T09:52:04.025Z</time>
      </trkpt>
      <trkpt lat="42.92517" lon="0.19367">
        <ele>1410</ele>
        <time>2019-06-23T09:52:05.025Z</time>
      </trkpt>
      <trkpt lat="42.92517" lon="0.19368">
        <ele>1410</ele>
        <time>2019-06-23T09:52:06.025Z</time>
      </trkpt>
      <trkpt lat="42.92517" lon="0.19369">
        <ele>1410</ele>
        <time>2019-06-23T09:52:07.025Z</time>
      </trkpt>
      <trkpt lat="42.92517" lon="0.1937">
        <ele>1410</ele>
        <time>2019-06-23T09:52:08.025Z</time>
      </trkpt>
      <trkpt lat="42.92516" lon="0.19371">
        <ele>1411</ele>
        <time>2019-06-23T09:52:09.025Z</time>
      </trkpt>
      <trkpt lat="42.92516" lon="0.19372">
        <ele>1411</ele>
        <time>2019-06-23T09:52:10.025Z</time>
      </trkpt>
      <trkpt lat="42.92516" lon="0.19374">
        <ele>1410</ele>
        <time>2019-06-23T09:52:11.025Z</time>
      </trkpt>
      <trkpt lat="42.92516" lon="0.19375">
        <ele>1410</ele>
        <time>2019-06-23T09:52:12.025Z</time>
      </trkpt>
      <trkpt lat="42.92516" lon="0.19376">
        <ele>1410</ele>
        <time>2019-06-23T09:52:13.025Z</time>
      </trkpt>
      <trkpt lat="42.92516" lon="0.19376">
        <ele>1410</ele>
        <time>2019-06-23T09:52:14.025Z</time>
      </trkpt>
      <trkpt lat="42.92516" lon="0.19377">
        <ele>1410</ele>
        <time>2019-06-23T09:52:15.025Z</time>
      </trkpt>
      <trkpt lat="42.92516" lon="0.19378">
        <ele>1410</ele>
        <time>2019-06-23T09:52:16.025Z</time>
      </trkpt>
      <trkpt lat="42.92516" lon="0.19379">
        <ele>1410</ele>
        <time>2019-06-23T09:52:17.025Z</time>
      </trkpt>
      <trkpt lat="42.92516" lon="0.1938">
        <ele>1410</ele>
        <time>2019-06-23T09:52:18.025Z</time>
      </trkpt>
      <trkpt lat="42.92516" lon="0.19382">
        <ele>1410</ele>
        <time>2019-06-23T09:52:19.025Z</time>
      </trkpt>
      <trkpt lat="42.92517" lon="0.19383">
        <ele>1410</ele>
        <time>2019-06-23T09:52:20.025Z</time>
      </trkpt>
      <trkpt lat="42.92517" lon="0.19384">
        <ele>1410</ele>
        <time>2019-06-23T09:52:21.025Z</time>
      </trkpt>
      <trkpt lat="42.92517" lon="0.19385">
        <ele>1410</ele>
        <time>2019-06-23T09:52:22.025Z</time>
      </trkpt>
      <trkpt lat="42.92517" lon="0.19386">
        <ele>1409</ele>
        <time>2019-06-23T09:52:23.025Z</time>
      </trkpt>
      <trkpt lat="42.92518" lon="0.19387">
        <ele>1409</ele>
        <time>2019-06-23T09:52:24.025Z</time>
      </trkpt>
      <trkpt lat="42.92518" lon="0.19387">
        <ele>1408</ele>
        <time>2019-06-23T09:52:25.025Z</time>
      </trkpt>
      <trkpt lat="42.92519" lon="0.19388">
        <ele>1408</ele>
        <time>2019-06-23T09:52:26.025Z</time>
      </trkpt>
      <trkpt lat="42.92519" lon="0.19389">
        <ele>1408</ele>
        <time>2019-06-23T09:52:27.025Z</time>
      </trkpt>
      <trkpt lat="42.92519" lon="0.19389">
        <ele>1408</ele>
        <time>2019-06-23T09:52:28.025Z</time>
      </trkpt>
      <trkpt lat="42.9252" lon="0.1939">
        <ele>1408</ele>
        <time>2019-06-23T09:52:29.025Z</time>
      </trkpt>
      <trkpt lat="42.9252" lon="0.1939">
        <ele>1409</ele>
        <time>2019-06-23T09:52:30.025Z</time>
      </trkpt>
      <trkpt lat="42.92524" lon="0.19396">
        <ele>1411</ele>
        <time>2019-06-23T09:52:31.029Z</time>
      </trkpt>
      <trkpt lat="42.92525" lon="0.19396">
        <ele>1411</ele>
        <time>2019-06-23T09:52:32.029Z</time>
      </trkpt>
      <trkpt lat="42.92525" lon="0.19396">
        <ele>1411</ele>
        <time>2019-06-23T09:52:33.029Z</time>
      </trkpt>
      <trkpt lat="42.92525" lon="0.19397">
        <ele>1411</ele>
        <time>2019-06-23T09:52:34.029Z</time>
      </trkpt>
      <trkpt lat="42.92525" lon="0.19397">
        <ele>1411</ele>
        <time>2019-06-23T09:52:35.029Z</time>
      </trkpt>
      <trkpt lat="42.92525" lon="0.19397">
        <ele>1411</ele>
        <time>2019-06-23T09:52:36.029Z</time>
      </trkpt>
      <trkpt lat="42.92526" lon="0.19397">
        <ele>1411</ele>
        <time>2019-06-23T09:52:37.029Z</time>
      </trkpt>
      <trkpt lat="42.92526" lon="0.19397">
        <ele>1411</ele>
        <time>2019-06-23T09:52:38.029Z</time>
      </trkpt>
      <trkpt lat="42.92526" lon="0.19397">
        <ele>1411</ele>
        <time>2019-06-23T09:52:39.029Z</time>
      </trkpt>
      <trkpt lat="42.92526" lon="0.19397">
        <ele>1411</ele>
        <time>2019-06-23T09:52:40.029Z</time>
      </trkpt>
      <trkpt lat="42.92536" lon="0.19406">
        <ele>1406</ele>
        <time>2019-06-23T09:52:41.033Z</time>
      </trkpt>
      <trkpt lat="42.92536" lon="0.19406">
        <ele>1406</ele>
        <time>2019-06-23T09:52:42.033Z</time>
      </trkpt>
      <trkpt lat="42.92536" lon="0.19406">
        <ele>1405</ele>
        <time>2019-06-23T09:52:43.033Z</time>
      </trkpt>
      <trkpt lat="42.92536" lon="0.19406">
        <ele>1405</ele>
        <time>2019-06-23T09:52:44.033Z</time>
      </trkpt>
      <trkpt lat="42.92537" lon="0.19406">
        <ele>1405</ele>
        <time>2019-06-23T09:52:45.033Z</time>
      </trkpt>
      <trkpt lat="42.92548" lon="0.19422">
        <ele>1401</ele>
        <time>2019-06-23T09:52:46.048Z</time>
      </trkpt>
      <trkpt lat="42.92548" lon="0.19423">
        <ele>1401</ele>
        <time>2019-06-23T09:52:47.048Z</time>
      </trkpt>
      <trkpt lat="42.92548" lon="0.19424">
        <ele>1401</ele>
        <time>2019-06-23T09:52:48.048Z</time>
      </trkpt>
      <trkpt lat="42.92548" lon="0.19425">
        <ele>1401</ele>
        <time>2019-06-23T09:52:49.048Z</time>
      </trkpt>
      <trkpt lat="42.92548" lon="0.19426">
        <ele>1400</ele>
        <time>2019-06-23T09:52:50.048Z</time>
      </trkpt>
      <trkpt lat="42.92548" lon="0.19427">
        <ele>1400</ele>
        <time>2019-06-23T09:52:51.048Z</time>
      </trkpt>
      <trkpt lat="42.92548" lon="0.19428">
        <ele>1400</ele>
        <time>2019-06-23T09:52:52.048Z</time>
      </trkpt>
      <trkpt lat="42.92548" lon="0.19429">
        <ele>1400</ele>
        <time>2019-06-23T09:52:53.048Z</time>
      </trkpt>
      <trkpt lat="42.92548" lon="0.1943">
        <ele>1400</ele>
        <time>2019-06-23T09:52:54.048Z</time>
      </trkpt>
      <trkpt lat="42.92548" lon="0.19431">
        <ele>1400</ele>
        <time>2019-06-23T09:52:55.048Z</time>
      </trkpt>
      <trkpt lat="42.92547" lon="0.19431">
        <ele>1400</ele>
        <time>2019-06-23T09:52:56.048Z</time>
      </trkpt>
      <trkpt lat="42.92547" lon="0.19432">
        <ele>1400</ele>
        <time>2019-06-23T09:52:57.048Z</time>
      </trkpt>
      <trkpt lat="42.92547" lon="0.19432">
        <ele>1400</ele>
        <time>2019-06-23T09:52:58.048Z</time>
      </trkpt>
      <trkpt lat="42.92548" lon="0.19433">
        <ele>1400</ele>
        <time>2019-06-23T09:52:59.048Z</time>
      </trkpt>
      <trkpt lat="42.92548" lon="0.19434">
        <ele>1399</ele>
        <time>2019-06-23T09:53:00.048Z</time>
      </trkpt>
      <trkpt lat="42.92548" lon="0.19435">
        <ele>1399</ele>
        <time>2019-06-23T09:53:01.048Z</time>
      </trkpt>
      <trkpt lat="42.92548" lon="0.19435">
        <ele>1399</ele>
        <time>2019-06-23T09:53:02.048Z</time>
      </trkpt>
      <trkpt lat="42.92548" lon="0.19436">
        <ele>1399</ele>
        <time>2019-06-23T09:53:03.048Z</time>
      </trkpt>
      <trkpt lat="42.92548" lon="0.19438">
        <ele>1399</ele>
        <time>2019-06-23T09:53:04.048Z</time>
      </trkpt>
      <trkpt lat="42.92548" lon="0.19439">
        <ele>1398</ele>
        <time>2019-06-23T09:53:05.048Z</time>
      </trkpt>
      <trkpt lat="42.92548" lon="0.1944">
        <ele>1398</ele>
        <time>2019-06-23T09:53:06.048Z</time>
      </trkpt>
      <trkpt lat="42.92549" lon="0.19441">
        <ele>1397</ele>
        <time>2019-06-23T09:53:07.048Z</time>
      </trkpt>
      <trkpt lat="42.92549" lon="0.19442">
        <ele>1397</ele>
        <time>2019-06-23T09:53:08.048Z</time>
      </trkpt>
      <trkpt lat="42.92549" lon="0.19443">
        <ele>1396</ele>
        <time>2019-06-23T09:53:09.048Z</time>
      </trkpt>
      <trkpt lat="42.92549" lon="0.19445">
        <ele>1395</ele>
        <time>2019-06-23T09:53:10.048Z</time>
      </trkpt>
      <trkpt lat="42.92549" lon="0.19446">
        <ele>1394</ele>
        <time>2019-06-23T09:53:11.048Z</time>
      </trkpt>
      <trkpt lat="42.9255" lon="0.19447">
        <ele>1394</ele>
        <time>2019-06-23T09:53:12.048Z</time>
      </trkpt>
      <trkpt lat="42.9255" lon="0.19448">
        <ele>1393</ele>
        <time>2019-06-23T09:53:13.048Z</time>
      </trkpt>
      <trkpt lat="42.9255" lon="0.19448">
        <ele>1393</ele>
        <time>2019-06-23T09:53:14.048Z</time>
      </trkpt>
      <trkpt lat="42.9255" lon="0.19449">
        <ele>1392</ele>
        <time>2019-06-23T09:53:15.048Z</time>
      </trkpt>
      <trkpt lat="42.92551" lon="0.1945">
        <ele>1392</ele>
        <time>2019-06-23T09:53:16.048Z</time>
      </trkpt>
      <trkpt lat="42.92551" lon="0.19451">
        <ele>1392</ele>
        <time>2019-06-23T09:53:17.048Z</time>
      </trkpt>
      <trkpt lat="42.92551" lon="0.19452">
        <ele>1392</ele>
        <time>2019-06-23T09:53:18.048Z</time>
      </trkpt>
      <trkpt lat="42.92551" lon="0.19453">
        <ele>1392</ele>
        <time>2019-06-23T09:53:19.048Z</time>
      </trkpt>
      <trkpt lat="42.92551" lon="0.19454">
        <ele>1392</ele>
        <time>2019-06-23T09:53:20.048Z</time>
      </trkpt>
      <trkpt lat="42.92551" lon="0.19455">
        <ele>1392</ele>
        <time>2019-06-23T09:53:21.048Z</time>
      </trkpt>
      <trkpt lat="42.9255" lon="0.19456">
        <ele>1392</ele>
        <time>2019-06-23T09:53:22.048Z</time>
      </trkpt>
      <trkpt lat="42.9255" lon="0.19457">
        <ele>1391</ele>
        <time>2019-06-23T09:53:23.048Z</time>
      </trkpt>
      <trkpt lat="42.92549" lon="0.19458">
        <ele>1391</ele>
        <time>2019-06-23T09:53:24.048Z</time>
      </trkpt>
      <trkpt lat="42.92548" lon="0.19459">
        <ele>1391</ele>
        <time>2019-06-23T09:53:25.048Z</time>
      </trkpt>
      <trkpt lat="42.92548" lon="0.1946">
        <ele>1390</ele>
        <time>2019-06-23T09:53:26.048Z</time>
      </trkpt>
      <trkpt lat="42.92548" lon="0.19461">
        <ele>1390</ele>
        <time>2019-06-23T09:53:27.048Z</time>
      </trkpt>
      <trkpt lat="42.92547" lon="0.19462">
        <ele>1389</ele>
        <time>2019-06-23T09:53:28.048Z</time>
      </trkpt>
      <trkpt lat="42.92547" lon="0.19463">
        <ele>1389</ele>
        <time>2019-06-23T09:53:29.048Z</time>
      </trkpt>
      <trkpt lat="42.92547" lon="0.19464">
        <ele>1389</ele>
        <time>2019-06-23T09:53:30.048Z</time>
      </trkpt>
      <trkpt lat="42.92546" lon="0.19465">
        <ele>1388</ele>
        <time>2019-06-23T09:53:31.048Z</time>
      </trkpt>
      <trkpt lat="42.92545" lon="0.19466">
        <ele>1387</ele>
        <time>2019-06-23T09:53:32.048Z</time>
      </trkpt>
      <trkpt lat="42.92544" lon="0.19467">
        <ele>1386</ele>
        <time>2019-06-23T09:53:33.048Z</time>
      </trkpt>
      <trkpt lat="42.92544" lon="0.19468">
        <ele>1386</ele>
        <time>2019-06-23T09:53:34.048Z</time>
      </trkpt>
      <trkpt lat="42.92543" lon="0.19469">
        <ele>1386</ele>
        <time>2019-06-23T09:53:35.048Z</time>
      </trkpt>
      <trkpt lat="42.92543" lon="0.1947">
        <ele>1386</ele>
        <time>2019-06-23T09:53:36.048Z</time>
      </trkpt>
      <trkpt lat="42.92543" lon="0.19471">
        <ele>1386</ele>
        <time>2019-06-23T09:53:37.048Z</time>
      </trkpt>
      <trkpt lat="42.92543" lon="0.19472">
        <ele>1385</ele>
        <time>2019-06-23T09:53:38.048Z</time>
      </trkpt>
      <trkpt lat="42.92542" lon="0.19473">
        <ele>1385</ele>
        <time>2019-06-23T09:53:39.048Z</time>
      </trkpt>
      <trkpt lat="42.92542" lon="0.19473">
        <ele>1385</ele>
        <time>2019-06-23T09:53:40.048Z</time>
      </trkpt>
      <trkpt lat="42.92541" lon="0.19474">
        <ele>1384</ele>
        <time>2019-06-23T09:53:41.048Z</time>
      </trkpt>
      <trkpt lat="42.9254" lon="0.19475">
        <ele>1384</ele>
        <time>2019-06-23T09:53:42.048Z</time>
      </trkpt>
      <trkpt lat="42.9254" lon="0.19476">
        <ele>1383</ele>
        <time>2019-06-23T09:53:43.048Z</time>
      </trkpt>
      <trkpt lat="42.92539" lon="0.19477">
        <ele>1383</ele>
        <time>2019-06-23T09:53:44.048Z</time>
      </trkpt>
      <trkpt lat="42.92539" lon="0.19477">
        <ele>1383</ele>
        <time>2019-06-23T09:53:45.048Z</time>
      </trkpt>
      <trkpt lat="42.92539" lon="0.19478">
        <ele>1382</ele>
        <time>2019-06-23T09:53:46.048Z</time>
      </trkpt>
      <trkpt lat="42.92539" lon="0.19479">
        <ele>1382</ele>
        <time>2019-06-23T09:53:47.048Z</time>
      </trkpt>
      <trkpt lat="42.92539" lon="0.1948">
        <ele>1383</ele>
        <time>2019-06-23T09:53:48.048Z</time>
      </trkpt>
      <trkpt lat="42.92539" lon="0.1948">
        <ele>1382</ele>
        <time>2019-06-23T09:53:49.048Z</time>
      </trkpt>
      <trkpt lat="42.92538" lon="0.19481">
        <ele>1382</ele>
        <time>2019-06-23T09:53:50.048Z</time>
      </trkpt>
      <trkpt lat="42.92538" lon="0.19482">
        <ele>1381</ele>
        <time>2019-06-23T09:53:51.048Z</time>
      </trkpt>
      <trkpt lat="42.92539" lon="0.19483">
        <ele>1382</ele>
        <time>2019-06-23T09:53:52.048Z</time>
      </trkpt>
      <trkpt lat="42.92539" lon="0.19484">
        <ele>1382</ele>
        <time>2019-06-23T09:53:53.048Z</time>
      </trkpt>
      <trkpt lat="42.92539" lon="0.19485">
        <ele>1381</ele>
        <time>2019-06-23T09:53:54.048Z</time>
      </trkpt>
      <trkpt lat="42.92538" lon="0.19487">
        <ele>1381</ele>
        <time>2019-06-23T09:53:55.048Z</time>
      </trkpt>
      <trkpt lat="42.92538" lon="0.19488">
        <ele>1381</ele>
        <time>2019-06-23T09:53:56.048Z</time>
      </trkpt>
      <trkpt lat="42.92538" lon="0.19489">
        <ele>1382</ele>
        <time>2019-06-23T09:53:57.048Z</time>
      </trkpt>
      <trkpt lat="42.92539" lon="0.1949">
        <ele>1383</ele>
        <time>2019-06-23T09:53:58.048Z</time>
      </trkpt>
      <trkpt lat="42.92539" lon="0.19492">
        <ele>1382</ele>
        <time>2019-06-23T09:53:59.048Z</time>
      </trkpt>
      <trkpt lat="42.92539" lon="0.19493">
        <ele>1383</ele>
        <time>2019-06-23T09:54:00.048Z</time>
      </trkpt>
      <trkpt lat="42.92539" lon="0.19493">
        <ele>1382</ele>
        <time>2019-06-23T09:54:01.048Z</time>
      </trkpt>
      <trkpt lat="42.92539" lon="0.19495">
        <ele>1382</ele>
        <time>2019-06-23T09:54:02.048Z</time>
      </trkpt>
      <trkpt lat="42.92539" lon="0.19496">
        <ele>1382</ele>
        <time>2019-06-23T09:54:03.048Z</time>
      </trkpt>
      <trkpt lat="42.92539" lon="0.19497">
        <ele>1381</ele>
        <time>2019-06-23T09:54:04.048Z</time>
      </trkpt>
      <trkpt lat="42.92539" lon="0.19498">
        <ele>1381</ele>
        <time>2019-06-23T09:54:05.048Z</time>
      </trkpt>
      <trkpt lat="42.92539" lon="0.19499">
        <ele>1381</ele>
        <time>2019-06-23T09:54:06.048Z</time>
      </trkpt>
      <trkpt lat="42.92538" lon="0.195">
        <ele>1381</ele>
        <time>2019-06-23T09:54:07.048Z</time>
      </trkpt>
      <trkpt lat="42.92538" lon="0.19501">
        <ele>1381</ele>
        <time>2019-06-23T09:54:08.048Z</time>
      </trkpt>
      <trkpt lat="42.92537" lon="0.19501">
        <ele>1381</ele>
        <time>2019-06-23T09:54:09.048Z</time>
      </trkpt>
      <trkpt lat="42.92536" lon="0.19502">
        <ele>1381</ele>
        <time>2019-06-23T09:54:10.048Z</time>
      </trkpt>
      <trkpt lat="42.92536" lon="0.19503">
        <ele>1381</ele>
        <time>2019-06-23T09:54:11.048Z</time>
      </trkpt>
      <trkpt lat="42.92535" lon="0.19503">
        <ele>1380</ele>
        <time>2019-06-23T09:54:12.048Z</time>
      </trkpt>
      <trkpt lat="42.92535" lon="0.19503">
        <ele>1380</ele>
        <time>2019-06-23T09:54:13.048Z</time>
      </trkpt>
      <trkpt lat="42.92534" lon="0.19504">
        <ele>1380</ele>
        <time>2019-06-23T09:54:14.048Z</time>
      </trkpt>
      <trkpt lat="42.92534" lon="0.19505">
        <ele>1380</ele>
        <time>2019-06-23T09:54:15.048Z</time>
      </trkpt>
      <trkpt lat="42.92533" lon="0.19506">
        <ele>1379</ele>
        <time>2019-06-23T09:54:16.048Z</time>
      </trkpt>
      <trkpt lat="42.92533" lon="0.19507">
        <ele>1379</ele>
        <time>2019-06-23T09:54:17.048Z</time>
      </trkpt>
      <trkpt lat="42.92532" lon="0.19507">
        <ele>1379</ele>
        <time>2019-06-23T09:54:18.048Z</time>
      </trkpt>
      <trkpt lat="42.92531" lon="0.19508">
        <ele>1379</ele>
        <time>2019-06-23T09:54:19.048Z</time>
      </trkpt>
      <trkpt lat="42.92531" lon="0.19509">
        <ele>1379</ele>
        <time>2019-06-23T09:54:20.048Z</time>
      </trkpt>
      <trkpt lat="42.9253" lon="0.19509">
        <ele>1379</ele>
        <time>2019-06-23T09:54:21.048Z</time>
      </trkpt>
      <trkpt lat="42.9253" lon="0.1951">
        <ele>1379</ele>
        <time>2019-06-23T09:54:22.048Z</time>
      </trkpt>
      <trkpt lat="42.92529" lon="0.1951">
        <ele>1379</ele>
        <time>2019-06-23T09:54:23.048Z</time>
      </trkpt>
      <trkpt lat="42.92529" lon="0.19511">
        <ele>1379</ele>
        <time>2019-06-23T09:54:24.048Z</time>
      </trkpt>
      <trkpt lat="42.92529" lon="0.19511">
        <ele>1379</ele>
        <time>2019-06-23T09:54:25.048Z</time>
      </trkpt>
      <trkpt lat="42.92529" lon="0.19512">
        <ele>1379</ele>
        <time>2019-06-23T09:54:26.048Z</time>
      </trkpt>
      <trkpt lat="42.92528" lon="0.19512">
        <ele>1379</ele>
        <time>2019-06-23T09:54:27.048Z</time>
      </trkpt>
      <trkpt lat="42.92527" lon="0.19513">
        <ele>1378</ele>
        <time>2019-06-23T09:54:28.048Z</time>
      </trkpt>
      <trkpt lat="42.92527" lon="0.19514">
        <ele>1378</ele>
        <time>2019-06-23T09:54:29.048Z</time>
      </trkpt>
      <trkpt lat="42.92527" lon="0.19515">
        <ele>1378</ele>
        <time>2019-06-23T09:54:30.048Z</time>
      </trkpt>
      <trkpt lat="42.92526" lon="0.19515">
        <ele>1378</ele>
        <time>2019-06-23T09:54:31.048Z</time>
      </trkpt>
      <trkpt lat="42.92526" lon="0.19516">
        <ele>1377</ele>
        <time>2019-06-23T09:54:32.048Z</time>
      </trkpt>
      <trkpt lat="42.92525" lon="0.19517">
        <ele>1377</ele>
        <time>2019-06-23T09:54:33.048Z</time>
      </trkpt>
      <trkpt lat="42.92525" lon="0.19518">
        <ele>1377</ele>
        <time>2019-06-23T09:54:34.048Z</time>
      </trkpt>
      <trkpt lat="42.92524" lon="0.19518">
        <ele>1377</ele>
        <time>2019-06-23T09:54:35.048Z</time>
      </trkpt>
      <trkpt lat="42.92524" lon="0.19519">
        <ele>1377</ele>
        <time>2019-06-23T09:54:36.048Z</time>
      </trkpt>
      <trkpt lat="42.92523" lon="0.19519">
        <ele>1377</ele>
        <time>2019-06-23T09:54:37.048Z</time>
      </trkpt>
      <trkpt lat="42.92523" lon="0.1952">
        <ele>1376</ele>
        <time>2019-06-23T09:54:38.048Z</time>
      </trkpt>
      <trkpt lat="42.92522" lon="0.1952">
        <ele>1376</ele>
        <time>2019-06-23T09:54:39.048Z</time>
      </trkpt>
      <trkpt lat="42.92521" lon="0.19521">
        <ele>1377</ele>
        <time>2019-06-23T09:54:40.048Z</time>
      </trkpt>
      <trkpt lat="42.9252" lon="0.19521">
        <ele>1377</ele>
        <time>2019-06-23T09:54:41.048Z</time>
      </trkpt>
      <trkpt lat="42.9252" lon="0.19521">
        <ele>1377</ele>
        <time>2019-06-23T09:54:42.048Z</time>
      </trkpt>
      <trkpt lat="42.9252" lon="0.19522">
        <ele>1377</ele>
        <time>2019-06-23T09:54:43.048Z</time>
      </trkpt>
      <trkpt lat="42.92519" lon="0.19523">
        <ele>1377</ele>
        <time>2019-06-23T09:54:44.048Z</time>
      </trkpt>
      <trkpt lat="42.92519" lon="0.19524">
        <ele>1377</ele>
        <time>2019-06-23T09:54:45.048Z</time>
      </trkpt>
      <trkpt lat="42.92518" lon="0.19524">
        <ele>1377</ele>
        <time>2019-06-23T09:54:46.048Z</time>
      </trkpt>
      <trkpt lat="42.92518" lon="0.19525">
        <ele>1378</ele>
        <time>2019-06-23T09:54:47.048Z</time>
      </trkpt>
      <trkpt lat="42.92517" lon="0.19526">
        <ele>1378</ele>
        <time>2019-06-23T09:54:48.048Z</time>
      </trkpt>
      <trkpt lat="42.92517" lon="0.19526">
        <ele>1378</ele>
        <time>2019-06-23T09:54:49.048Z</time>
      </trkpt>
      <trkpt lat="42.92517" lon="0.19527">
        <ele>1378</ele>
        <time>2019-06-23T09:54:50.048Z</time>
      </trkpt>
      <trkpt lat="42.92518" lon="0.19528">
        <ele>1378</ele>
        <time>2019-06-23T09:54:51.048Z</time>
      </trkpt>
      <trkpt lat="42.92518" lon="0.19529">
        <ele>1378</ele>
        <time>2019-06-23T09:54:52.048Z</time>
      </trkpt>
      <trkpt lat="42.92519" lon="0.1953">
        <ele>1378</ele>
        <time>2019-06-23T09:54:53.048Z</time>
      </trkpt>
      <trkpt lat="42.92518" lon="0.19531">
        <ele>1378</ele>
        <time>2019-06-23T09:54:54.048Z</time>
      </trkpt>
      <trkpt lat="42.92518" lon="0.19532">
        <ele>1377</ele>
        <time>2019-06-23T09:54:55.048Z</time>
      </trkpt>
      <trkpt lat="42.92517" lon="0.19532">
        <ele>1377</ele>
        <time>2019-06-23T09:54:56.048Z</time>
      </trkpt>
      <trkpt lat="42.92517" lon="0.19533">
        <ele>1377</ele>
        <time>2019-06-23T09:54:57.048Z</time>
      </trkpt>
      <trkpt lat="42.92517" lon="0.19534">
        <ele>1378</ele>
        <time>2019-06-23T09:54:58.048Z</time>
      </trkpt>
      <trkpt lat="42.92517" lon="0.19535">
        <ele>1377</ele>
        <time>2019-06-23T09:54:59.048Z</time>
      </trkpt>
      <trkpt lat="42.92516" lon="0.19536">
        <ele>1376</ele>
        <time>2019-06-23T09:55:00.048Z</time>
      </trkpt>
      <trkpt lat="42.92516" lon="0.19536">
        <ele>1376</ele>
        <time>2019-06-23T09:55:01.048Z</time>
      </trkpt>
      <trkpt lat="42.92516" lon="0.19537">
        <ele>1375</ele>
        <time>2019-06-23T09:55:02.048Z</time>
      </trkpt>
      <trkpt lat="42.92515" lon="0.19538">
        <ele>1375</ele>
        <time>2019-06-23T09:55:03.048Z</time>
      </trkpt>
      <trkpt lat="42.92515" lon="0.19539">
        <ele>1374</ele>
        <time>2019-06-23T09:55:04.048Z</time>
      </trkpt>
      <trkpt lat="42.92515" lon="0.1954">
        <ele>1374</ele>
        <time>2019-06-23T09:55:05.048Z</time>
      </trkpt>
      <trkpt lat="42.92515" lon="0.1954">
        <ele>1375</ele>
        <time>2019-06-23T09:55:06.048Z</time>
      </trkpt>
      <trkpt lat="42.92515" lon="0.19541">
        <ele>1375</ele>
        <time>2019-06-23T09:55:07.048Z</time>
      </trkpt>
      <trkpt lat="42.92515" lon="0.19541">
        <ele>1374</ele>
        <time>2019-06-23T09:55:08.048Z</time>
      </trkpt>
      <trkpt lat="42.92515" lon="0.19541">
        <ele>1373</ele>
        <time>2019-06-23T09:55:09.048Z</time>
      </trkpt>
      <trkpt lat="42.92514" lon="0.19541">
        <ele>1372</ele>
        <time>2019-06-23T09:55:10.048Z</time>
      </trkpt>
      <trkpt lat="42.92513" lon="0.19542">
        <ele>1372</ele>
        <time>2019-06-23T09:55:11.048Z</time>
      </trkpt>
      <trkpt lat="42.92512" lon="0.19543">
        <ele>1372</ele>
        <time>2019-06-23T09:55:12.048Z</time>
      </trkpt>
      <trkpt lat="42.92511" lon="0.19545">
        <ele>1372</ele>
        <time>2019-06-23T09:55:13.048Z</time>
      </trkpt>
      <trkpt lat="42.92511" lon="0.19546">
        <ele>1371</ele>
        <time>2019-06-23T09:55:14.048Z</time>
      </trkpt>
      <trkpt lat="42.9251" lon="0.19547">
        <ele>1370</ele>
        <time>2019-06-23T09:55:15.048Z</time>
      </trkpt>
      <trkpt lat="42.9251" lon="0.19547">
        <ele>1370</ele>
        <time>2019-06-23T09:55:16.048Z</time>
      </trkpt>
      <trkpt lat="42.9251" lon="0.19548">
        <ele>1371</ele>
        <time>2019-06-23T09:55:17.048Z</time>
      </trkpt>
      <trkpt lat="42.9251" lon="0.19549">
        <ele>1371</ele>
        <time>2019-06-23T09:55:18.048Z</time>
      </trkpt>
      <trkpt lat="42.9251" lon="0.1955">
        <ele>1371</ele>
        <time>2019-06-23T09:55:19.048Z</time>
      </trkpt>
      <trkpt lat="42.9251" lon="0.19551">
        <ele>1371</ele>
        <time>2019-06-23T09:55:20.048Z</time>
      </trkpt>
      <trkpt lat="42.92509" lon="0.19551">
        <ele>1371</ele>
        <time>2019-06-23T09:55:21.048Z</time>
      </trkpt>
      <trkpt lat="42.92509" lon="0.19552">
        <ele>1370</ele>
        <time>2019-06-23T09:55:22.048Z</time>
      </trkpt>
      <trkpt lat="42.92509" lon="0.19553">
        <ele>1370</ele>
        <time>2019-06-23T09:55:23.048Z</time>
      </trkpt>
      <trkpt lat="42.92509" lon="0.19553">
        <ele>1369</ele>
        <time>2019-06-23T09:55:24.048Z</time>
      </trkpt>
      <trkpt lat="42.92509" lon="0.19554">
        <ele>1369</ele>
        <time>2019-06-23T09:55:25.048Z</time>
      </trkpt>
      <trkpt lat="42.92509" lon="0.19555">
        <ele>1368</ele>
        <time>2019-06-23T09:55:26.048Z</time>
      </trkpt>
      <trkpt lat="42.9251" lon="0.19556">
        <ele>1368</ele>
        <time>2019-06-23T09:55:27.048Z</time>
      </trkpt>
      <trkpt lat="42.9251" lon="0.19557">
        <ele>1369</ele>
        <time>2019-06-23T09:55:28.048Z</time>
      </trkpt>
      <trkpt lat="42.9251" lon="0.19558">
        <ele>1367</ele>
        <time>2019-06-23T09:55:29.048Z</time>
      </trkpt>
      <trkpt lat="42.9251" lon="0.19559">
        <ele>1367</ele>
        <time>2019-06-23T09:55:30.048Z</time>
      </trkpt>
      <trkpt lat="42.9251" lon="0.19561">
        <ele>1367</ele>
        <time>2019-06-23T09:55:31.048Z</time>
      </trkpt>
      <trkpt lat="42.92508" lon="0.19562">
        <ele>1366</ele>
        <time>2019-06-23T09:55:32.048Z</time>
      </trkpt>
      <trkpt lat="42.92508" lon="0.19563">
        <ele>1366</ele>
        <time>2019-06-23T09:55:33.048Z</time>
      </trkpt>
      <trkpt lat="42.92507" lon="0.19564">
        <ele>1365</ele>
        <time>2019-06-23T09:55:34.048Z</time>
      </trkpt>
      <trkpt lat="42.92507" lon="0.19564">
        <ele>1364</ele>
        <time>2019-06-23T09:55:35.048Z</time>
      </trkpt>
      <trkpt lat="42.92505" lon="0.19565">
        <ele>1363</ele>
        <time>2019-06-23T09:55:36.048Z</time>
      </trkpt>
      <trkpt lat="42.92504" lon="0.19566">
        <ele>1361</ele>
        <time>2019-06-23T09:55:37.048Z</time>
      </trkpt>
      <trkpt lat="42.92502" lon="0.19567">
        <ele>1360</ele>
        <time>2019-06-23T09:55:38.048Z</time>
      </trkpt>
      <trkpt lat="42.925" lon="0.19568">
        <ele>1359</ele>
        <time>2019-06-23T09:55:39.048Z</time>
      </trkpt>
      <trkpt lat="42.92499" lon="0.19569">
        <ele>1359</ele>
        <time>2019-06-23T09:55:40.048Z</time>
      </trkpt>
      <trkpt lat="42.92498" lon="0.1957">
        <ele>1358</ele>
        <time>2019-06-23T09:55:41.048Z</time>
      </trkpt>
      <trkpt lat="42.92497" lon="0.19571">
        <ele>1358</ele>
        <time>2019-06-23T09:55:42.048Z</time>
      </trkpt>
      <trkpt lat="42.92497" lon="0.19572">
        <ele>1358</ele>
        <time>2019-06-23T09:55:43.048Z</time>
      </trkpt>
      <trkpt lat="42.92497" lon="0.19573">
        <ele>1357</ele>
        <time>2019-06-23T09:55:44.048Z</time>
      </trkpt>
      <trkpt lat="42.92497" lon="0.19574">
        <ele>1357</ele>
        <time>2019-06-23T09:55:45.048Z</time>
      </trkpt>
      <trkpt lat="42.92497" lon="0.19575">
        <ele>1358</ele>
        <time>2019-06-23T09:55:46.048Z</time>
      </trkpt>
      <trkpt lat="42.92496" lon="0.19575">
        <ele>1357</ele>
        <time>2019-06-23T09:55:47.048Z</time>
      </trkpt>
      <trkpt lat="42.92496" lon="0.19576">
        <ele>1357</ele>
        <time>2019-06-23T09:55:48.048Z</time>
      </trkpt>
      <trkpt lat="42.92495" lon="0.19576">
        <ele>1356</ele>
        <time>2019-06-23T09:55:49.048Z</time>
      </trkpt>
      <trkpt lat="42.92495" lon="0.19576">
        <ele>1356</ele>
        <time>2019-06-23T09:55:50.048Z</time>
      </trkpt>
      <trkpt lat="42.92495" lon="0.19577">
        <ele>1357</ele>
        <time>2019-06-23T09:55:51.048Z</time>
      </trkpt>
      <trkpt lat="42.92494" lon="0.19578">
        <ele>1356</ele>
        <time>2019-06-23T09:55:52.048Z</time>
      </trkpt>
      <trkpt lat="42.92494" lon="0.19578">
        <ele>1356</ele>
        <time>2019-06-23T09:55:53.048Z</time>
      </trkpt>
      <trkpt lat="42.92493" lon="0.19579">
        <ele>1356</ele>
        <time>2019-06-23T09:55:54.048Z</time>
      </trkpt>
      <trkpt lat="42.92492" lon="0.1958">
        <ele>1355</ele>
        <time>2019-06-23T09:55:55.048Z</time>
      </trkpt>
      <trkpt lat="42.92491" lon="0.19581">
        <ele>1355</ele>
        <time>2019-06-23T09:55:56.048Z</time>
      </trkpt>
      <trkpt lat="42.92491" lon="0.19582">
        <ele>1355</ele>
        <time>2019-06-23T09:55:57.048Z</time>
      </trkpt>
      <trkpt lat="42.92492" lon="0.19582">
        <ele>1356</ele>
        <time>2019-06-23T09:55:58.048Z</time>
      </trkpt>
      <trkpt lat="42.92492" lon="0.19583">
        <ele>1356</ele>
        <time>2019-06-23T09:55:59.048Z</time>
      </trkpt>
      <trkpt lat="42.92492" lon="0.19584">
        <ele>1356</ele>
        <time>2019-06-23T09:56:00.048Z</time>
      </trkpt>
      <trkpt lat="42.92492" lon="0.19585">
        <ele>1356</ele>
        <time>2019-06-23T09:56:01.048Z</time>
      </trkpt>
      <trkpt lat="42.92491" lon="0.19586">
        <ele>1355</ele>
        <time>2019-06-23T09:56:02.048Z</time>
      </trkpt>
      <trkpt lat="42.92491" lon="0.19587">
        <ele>1354</ele>
        <time>2019-06-23T09:56:03.048Z</time>
      </trkpt>
      <trkpt lat="42.9249" lon="0.19588">
        <ele>1353</ele>
        <time>2019-06-23T09:56:04.048Z</time>
      </trkpt>
      <trkpt lat="42.9249" lon="0.19588">
        <ele>1353</ele>
        <time>2019-06-23T09:56:05.048Z</time>
      </trkpt>
      <trkpt lat="42.92489" lon="0.19589">
        <ele>1353</ele>
        <time>2019-06-23T09:56:06.048Z</time>
      </trkpt>
      <trkpt lat="42.92488" lon="0.19589">
        <ele>1352</ele>
        <time>2019-06-23T09:56:07.048Z</time>
      </trkpt>
      <trkpt lat="42.92487" lon="0.1959">
        <ele>1352</ele>
        <time>2019-06-23T09:56:08.048Z</time>
      </trkpt>
      <trkpt lat="42.92486" lon="0.1959">
        <ele>1352</ele>
        <time>2019-06-23T09:56:09.048Z</time>
      </trkpt>
      <trkpt lat="42.92486" lon="0.19591">
        <ele>1353</ele>
        <time>2019-06-23T09:56:10.048Z</time>
      </trkpt>
      <trkpt lat="42.92487" lon="0.19592">
        <ele>1355</ele>
        <time>2019-06-23T09:56:11.048Z</time>
      </trkpt>
      <trkpt lat="42.92488" lon="0.19593">
        <ele>1355</ele>
        <time>2019-06-23T09:56:12.048Z</time>
      </trkpt>
      <trkpt lat="42.92488" lon="0.19594">
        <ele>1355</ele>
        <time>2019-06-23T09:56:13.048Z</time>
      </trkpt>
      <trkpt lat="42.92489" lon="0.19594">
        <ele>1355</ele>
        <time>2019-06-23T09:56:14.048Z</time>
      </trkpt>
      <trkpt lat="42.92489" lon="0.19594">
        <ele>1355</ele>
        <time>2019-06-23T09:56:15.048Z</time>
      </trkpt>
      <trkpt lat="42.92489" lon="0.19594">
        <ele>1356</ele>
        <time>2019-06-23T09:56:16.048Z</time>
      </trkpt>
      <trkpt lat="42.92495" lon="0.19603">
        <ele>1355</ele>
        <time>2019-06-23T09:56:17.041Z</time>
      </trkpt>
      <trkpt lat="42.92496" lon="0.19604">
        <ele>1356</ele>
        <time>2019-06-23T09:56:18.041Z</time>
      </trkpt>
      <trkpt lat="42.92496" lon="0.19605">
        <ele>1355</ele>
        <time>2019-06-23T09:56:19.041Z</time>
      </trkpt>
      <trkpt lat="42.92497" lon="0.19606">
        <ele>1356</ele>
        <time>2019-06-23T09:56:20.041Z</time>
      </trkpt>
      <trkpt lat="42.92497" lon="0.19607">
        <ele>1355</ele>
        <time>2019-06-23T09:56:21.041Z</time>
      </trkpt>
      <trkpt lat="42.92497" lon="0.19607">
        <ele>1355</ele>
        <time>2019-06-23T09:56:22.041Z</time>
      </trkpt>
      <trkpt lat="42.92497" lon="0.19608">
        <ele>1356</ele>
        <time>2019-06-23T09:56:23.041Z</time>
      </trkpt>
      <trkpt lat="42.92497" lon="0.19608">
        <ele>1355</ele>
        <time>2019-06-23T09:56:24.041Z</time>
      </trkpt>
      <trkpt lat="42.92517" lon="0.1963">
        <ele>1357</ele>
        <time>2019-06-23T09:56:25.049Z</time>
      </trkpt>
      <trkpt lat="42.92517" lon="0.1963">
        <ele>1357</ele>
        <time>2019-06-23T09:56:26.049Z</time>
      </trkpt>
      <trkpt lat="42.92517" lon="0.19629">
        <ele>1357</ele>
        <time>2019-06-23T09:56:27.049Z</time>
      </trkpt>
      <trkpt lat="42.92518" lon="0.19629">
        <ele>1358</ele>
        <time>2019-06-23T09:56:28.049Z</time>
      </trkpt>
      <trkpt lat="42.92518" lon="0.19629">
        <ele>1357</ele>
        <time>2019-06-23T09:56:29.049Z</time>
      </trkpt>
      <trkpt lat="42.92519" lon="0.19629">
        <ele>1357</ele>
        <time>2019-06-23T09:56:30.049Z</time>
      </trkpt>
      <trkpt lat="42.9252" lon="0.19629">
        <ele>1358</ele>
        <time>2019-06-23T09:56:31.049Z</time>
      </trkpt>
      <trkpt lat="42.92521" lon="0.19629">
        <ele>1358</ele>
        <time>2019-06-23T09:56:32.049Z</time>
      </trkpt>
      <trkpt lat="42.92521" lon="0.19629">
        <ele>1358</ele>
        <time>2019-06-23T09:56:33.049Z</time>
      </trkpt>
      <trkpt lat="42.92521" lon="0.19628">
        <ele>1359</ele>
        <time>2019-06-23T09:56:34.049Z</time>
      </trkpt>
      <trkpt lat="42.92522" lon="0.19628">
        <ele>1360</ele>
        <time>2019-06-23T09:56:35.049Z</time>
      </trkpt>
      <trkpt lat="42.92522" lon="0.19628">
        <ele>1360</ele>
        <time>2019-06-23T09:56:36.049Z</time>
      </trkpt>
      <trkpt lat="42.92523" lon="0.19628">
        <ele>1360</ele>
        <time>2019-06-23T09:56:37.049Z</time>
      </trkpt>
      <trkpt lat="42.92523" lon="0.19628">
        <ele>1361</ele>
        <time>2019-06-23T09:56:38.049Z</time>
      </trkpt>
      <trkpt lat="42.92524" lon="0.19628">
        <ele>1361</ele>
        <time>2019-06-23T09:56:39.049Z</time>
      </trkpt>
      <trkpt lat="42.92524" lon="0.19628">
        <ele>1361</ele>
        <time>2019-06-23T09:56:40.049Z</time>
      </trkpt>
      <trkpt lat="42.92524" lon="0.19628">
        <ele>1361</ele>
        <time>2019-06-23T09:56:41.049Z</time>
      </trkpt>
      <trkpt lat="42.92525" lon="0.19628">
        <ele>1361</ele>
        <time>2019-06-23T09:56:42.049Z</time>
      </trkpt>
      <trkpt lat="42.92527" lon="0.19628">
        <ele>1362</ele>
        <time>2019-06-23T09:56:43.049Z</time>
      </trkpt>
      <trkpt lat="42.92528" lon="0.19628">
        <ele>1362</ele>
        <time>2019-06-23T09:56:44.049Z</time>
      </trkpt>
      <trkpt lat="42.92529" lon="0.19628">
        <ele>1362</ele>
        <time>2019-06-23T09:56:45.049Z</time>
      </trkpt>
      <trkpt lat="42.92529" lon="0.19628">
        <ele>1362</ele>
        <time>2019-06-23T09:56:46.049Z</time>
      </trkpt>
      <trkpt lat="42.92529" lon="0.19628">
        <ele>1362</ele>
        <time>2019-06-23T09:56:47.049Z</time>
      </trkpt>
      <trkpt lat="42.9253" lon="0.19627">
        <ele>1362</ele>
        <time>2019-06-23T09:56:48.049Z</time>
      </trkpt>
      <trkpt lat="42.9253" lon="0.19627">
        <ele>1361</ele>
        <time>2019-06-23T09:56:49.049Z</time>
      </trkpt>
      <trkpt lat="42.9253" lon="0.19627">
        <ele>1361</ele>
        <time>2019-06-23T09:56:50.049Z</time>
      </trkpt>
      <trkpt lat="42.92531" lon="0.19627">
        <ele>1361</ele>
        <time>2019-06-23T09:56:51.049Z</time>
      </trkpt>
      <trkpt lat="42.92531" lon="0.19627">
        <ele>1361</ele>
        <time>2019-06-23T09:56:52.049Z</time>
      </trkpt>
      <trkpt lat="42.92532" lon="0.19627">
        <ele>1361</ele>
        <time>2019-06-23T09:56:53.049Z</time>
      </trkpt>
      <trkpt lat="42.92533" lon="0.19626">
        <ele>1360</ele>
        <time>2019-06-23T09:56:54.049Z</time>
      </trkpt>
      <trkpt lat="42.92534" lon="0.19626">
        <ele>1361</ele>
        <time>2019-06-23T09:56:55.049Z</time>
      </trkpt>
      <trkpt lat="42.92535" lon="0.19625">
        <ele>1362</ele>
        <time>2019-06-23T09:56:56.049Z</time>
      </trkpt>
      <trkpt lat="42.92537" lon="0.19625">
        <ele>1361</ele>
        <time>2019-06-23T09:56:57.049Z</time>
      </trkpt>
      <trkpt lat="42.92538" lon="0.19624">
        <ele>1362</ele>
        <time>2019-06-23T09:56:58.049Z</time>
      </trkpt>
      <trkpt lat="42.92539" lon="0.19624">
        <ele>1362</ele>
        <time>2019-06-23T09:56:59.049Z</time>
      </trkpt>
      <trkpt lat="42.92539" lon="0.19624">
        <ele>1362</ele>
        <time>2019-06-23T09:57:00.049Z</time>
      </trkpt>
      <trkpt lat="42.92539" lon="0.19624">
        <ele>1361</ele>
        <time>2019-06-23T09:57:01.049Z</time>
      </trkpt>
      <trkpt lat="42.92539" lon="0.19623">
        <ele>1361</ele>
        <time>2019-06-23T09:57:02.049Z</time>
      </trkpt>
      <trkpt lat="42.9254" lon="0.19623">
        <ele>1361</ele>
        <time>2019-06-23T09:57:03.049Z</time>
      </trkpt>
      <trkpt lat="42.92541" lon="0.19623">
        <ele>1361</ele>
        <time>2019-06-23T09:57:04.049Z</time>
      </trkpt>
      <trkpt lat="42.92541" lon="0.19622">
        <ele>1362</ele>
        <time>2019-06-23T09:57:05.049Z</time>
      </trkpt>
      <trkpt lat="42.92542" lon="0.19622">
        <ele>1361</ele>
        <time>2019-06-23T09:57:06.049Z</time>
      </trkpt>
      <trkpt lat="42.92542" lon="0.19621">
        <ele>1361</ele>
        <time>2019-06-23T09:57:07.049Z</time>
      </trkpt>
      <trkpt lat="42.92543" lon="0.19621">
        <ele>1361</ele>
        <time>2019-06-23T09:57:08.049Z</time>
      </trkpt>
      <trkpt lat="42.92543" lon="0.19621">
        <ele>1362</ele>
        <time>2019-06-23T09:57:09.049Z</time>
      </trkpt>
      <trkpt lat="42.92544" lon="0.19621">
        <ele>1363</ele>
        <time>2019-06-23T09:57:10.049Z</time>
      </trkpt>
      <trkpt lat="42.92544" lon="0.19621">
        <ele>1364</ele>
        <time>2019-06-23T09:57:11.049Z</time>
      </trkpt>
      <trkpt lat="42.92545" lon="0.19621">
        <ele>1364</ele>
        <time>2019-06-23T09:57:12.049Z</time>
      </trkpt>
      <trkpt lat="42.92545" lon="0.19621">
        <ele>1364</ele>
        <time>2019-06-23T09:57:13.049Z</time>
      </trkpt>
      <trkpt lat="42.92545" lon="0.1962">
        <ele>1364</ele>
        <time>2019-06-23T09:57:14.049Z</time>
      </trkpt>
      <trkpt lat="42.92545" lon="0.1962">
        <ele>1364</ele>
        <time>2019-06-23T09:57:15.049Z</time>
      </trkpt>
      <trkpt lat="42.92545" lon="0.1962">
        <ele>1364</ele>
        <time>2019-06-23T09:57:16.049Z</time>
      </trkpt>
      <trkpt lat="42.92544" lon="0.19621">
        <ele>1364</ele>
        <time>2019-06-23T09:57:17.049Z</time>
      </trkpt>
      <trkpt lat="42.92544" lon="0.19621">
        <ele>1365</ele>
        <time>2019-06-23T09:57:18.049Z</time>
      </trkpt>
      <trkpt lat="42.92539" lon="0.19607">
        <ele>1352</ele>
        <time>2019-06-23T09:57:19.057Z</time>
      </trkpt>
      <trkpt lat="42.9254" lon="0.19607">
        <ele>1352</ele>
        <time>2019-06-23T09:57:20.057Z</time>
      </trkpt>
      <trkpt lat="42.9254" lon="0.19607">
        <ele>1351</ele>
        <time>2019-06-23T09:57:21.057Z</time>
      </trkpt>
      <trkpt lat="42.9254" lon="0.19606">
        <ele>1349</ele>
        <time>2019-06-23T09:57:22.057Z</time>
      </trkpt>
      <trkpt lat="42.92539" lon="0.19606">
        <ele>1348</ele>
        <time>2019-06-23T09:57:23.057Z</time>
      </trkpt>
      <trkpt lat="42.92539" lon="0.19606">
        <ele>1347</ele>
        <time>2019-06-23T09:57:24.057Z</time>
      </trkpt>
      <trkpt lat="42.92539" lon="0.19606">
        <ele>1347</ele>
        <time>2019-06-23T09:57:25.057Z</time>
      </trkpt>
      <trkpt lat="42.92565" lon="0.19611">
        <ele>1334</ele>
        <time>2019-06-23T09:57:26.065Z</time>
      </trkpt>
      <trkpt lat="42.92565" lon="0.19611">
        <ele>1334</ele>
        <time>2019-06-23T09:57:27.065Z</time>
      </trkpt>
      <trkpt lat="42.92565" lon="0.19611">
        <ele>1334</ele>
        <time>2019-06-23T09:57:28.065Z</time>
      </trkpt>
      <trkpt lat="42.92564" lon="0.19611">
        <ele>1334</ele>
        <time>2019-06-23T09:57:29.065Z</time>
      </trkpt>
      <trkpt lat="42.92564" lon="0.19611">
        <ele>1334</ele>
        <time>2019-06-23T09:57:30.065Z</time>
      </trkpt>
      <trkpt lat="42.92564" lon="0.19611">
        <ele>1334</ele>
        <time>2019-06-23T09:57:31.065Z</time>
      </trkpt>
      <trkpt lat="42.92551" lon="0.19624">
        <ele>1330</ele>
        <time>2019-06-23T09:57:32.073Z</time>
      </trkpt>
      <trkpt lat="42.9255" lon="0.19624">
        <ele>1329</ele>
        <time>2019-06-23T09:57:33.073Z</time>
      </trkpt>
      <trkpt lat="42.9255" lon="0.19624">
        <ele>1329</ele>
        <time>2019-06-23T09:57:34.073Z</time>
      </trkpt>
      <trkpt lat="42.9255" lon="0.19624">
        <ele>1329</ele>
        <time>2019-06-23T09:57:35.073Z</time>
      </trkpt>
      <trkpt lat="42.9255" lon="0.19623">
        <ele>1330</ele>
        <time>2019-06-23T09:57:36.073Z</time>
      </trkpt>
      <trkpt lat="42.9255" lon="0.19623">
        <ele>1330</ele>
        <time>2019-06-23T09:57:37.073Z</time>
      </trkpt>
      <trkpt lat="42.9255" lon="0.19623">
        <ele>1330</ele>
        <time>2019-06-23T09:57:38.073Z</time>
      </trkpt>
      <trkpt lat="42.92547" lon="0.19641">
        <ele>1337</ele>
        <time>2019-06-23T09:57:39.085Z</time>
      </trkpt>
      <trkpt lat="42.92546" lon="0.19642">
        <ele>1337</ele>
        <time>2019-06-23T09:57:40.085Z</time>
      </trkpt>
      <trkpt lat="42.92547" lon="0.19642">
        <ele>1337</ele>
        <time>2019-06-23T09:57:41.085Z</time>
      </trkpt>
      <trkpt lat="42.92547" lon="0.19643">
        <ele>1337</ele>
        <time>2019-06-23T09:57:42.085Z</time>
      </trkpt>
      <trkpt lat="42.92547" lon="0.19644">
        <ele>1336</ele>
        <time>2019-06-23T09:57:43.085Z</time>
      </trkpt>
      <trkpt lat="42.92547" lon="0.19645">
        <ele>1336</ele>
        <time>2019-06-23T09:57:44.085Z</time>
      </trkpt>
      <trkpt lat="42.92547" lon="0.19647">
        <ele>1337</ele>
        <time>2019-06-23T09:57:45.085Z</time>
      </trkpt>
      <trkpt lat="42.92548" lon="0.19648">
        <ele>1336</ele>
        <time>2019-06-23T09:57:46.085Z</time>
      </trkpt>
      <trkpt lat="42.92547" lon="0.1965">
        <ele>1334</ele>
        <time>2019-06-23T09:57:47.085Z</time>
      </trkpt>
      <trkpt lat="42.92545" lon="0.19651">
        <ele>1334</ele>
        <time>2019-06-23T09:57:48.085Z</time>
      </trkpt>
      <trkpt lat="42.92544" lon="0.19651">
        <ele>1333</ele>
        <time>2019-06-23T09:57:49.085Z</time>
      </trkpt>
      <trkpt lat="42.92544" lon="0.19652">
        <ele>1333</ele>
        <time>2019-06-23T09:57:50.085Z</time>
      </trkpt>
      <trkpt lat="42.92544" lon="0.19652">
        <ele>1333</ele>
        <time>2019-06-23T09:57:51.085Z</time>
      </trkpt>
      <trkpt lat="42.92544" lon="0.19653">
        <ele>1333</ele>
        <time>2019-06-23T09:57:52.085Z</time>
      </trkpt>
      <trkpt lat="42.92544" lon="0.19654">
        <ele>1333</ele>
        <time>2019-06-23T09:57:53.085Z</time>
      </trkpt>
      <trkpt lat="42.92559" lon="0.1969">
        <ele>1308</ele>
        <time>2019-06-23T09:57:54.093Z</time>
      </trkpt>
      <trkpt lat="42.92559" lon="0.19691">
        <ele>1309</ele>
        <time>2019-06-23T09:57:55.093Z</time>
      </trkpt>
      <trkpt lat="42.92558" lon="0.19691">
        <ele>1309</ele>
        <time>2019-06-23T09:57:56.093Z</time>
      </trkpt>
      <trkpt lat="42.92558" lon="0.19691">
        <ele>1308</ele>
        <time>2019-06-23T09:57:57.093Z</time>
      </trkpt>
      <trkpt lat="42.92559" lon="0.19692">
        <ele>1307</ele>
        <time>2019-06-23T09:57:58.093Z</time>
      </trkpt>
      <trkpt lat="42.92559" lon="0.19692">
        <ele>1307</ele>
        <time>2019-06-23T09:57:59.093Z</time>
      </trkpt>
      <trkpt lat="42.92559" lon="0.19692">
        <ele>1307</ele>
        <time>2019-06-23T09:58:00.093Z</time>
      </trkpt>
      <trkpt lat="42.92563" lon="0.19696">
        <ele>1305</ele>
        <time>2019-06-23T09:58:01.101Z</time>
      </trkpt>
      <trkpt lat="42.92563" lon="0.19696">
        <ele>1305</ele>
        <time>2019-06-23T09:58:02.101Z</time>
      </trkpt>
      <trkpt lat="42.92563" lon="0.19695">
        <ele>1306</ele>
        <time>2019-06-23T09:58:03.101Z</time>
      </trkpt>
      <trkpt lat="42.92563" lon="0.19694">
        <ele>1306</ele>
        <time>2019-06-23T09:58:04.101Z</time>
      </trkpt>
      <trkpt lat="42.92563" lon="0.19693">
        <ele>1306</ele>
        <time>2019-06-23T09:58:05.101Z</time>
      </trkpt>
      <trkpt lat="42.92563" lon="0.19692">
        <ele>1305</ele>
        <time>2019-06-23T09:58:06.101Z</time>
      </trkpt>
      <trkpt lat="42.92563" lon="0.19692">
        <ele>1305</ele>
        <time>2019-06-23T09:58:07.101Z</time>
      </trkpt>
      <trkpt lat="42.92563" lon="0.19691">
        <ele>1305</ele>
        <time>2019-06-23T09:58:08.101Z</time>
      </trkpt>
      <trkpt lat="42.92563" lon="0.19691">
        <ele>1305</ele>
        <time>2019-06-23T09:58:09.101Z</time>
      </trkpt>
      <trkpt lat="42.92563" lon="0.1969">
        <ele>1306</ele>
        <time>2019-06-23T09:58:10.101Z</time>
      </trkpt>
      <trkpt lat="42.92564" lon="0.1969">
        <ele>1304</ele>
        <time>2019-06-23T09:58:11.101Z</time>
      </trkpt>
      <trkpt lat="42.92564" lon="0.19689">
        <ele>1305</ele>
        <time>2019-06-23T09:58:12.101Z</time>
      </trkpt>
      <trkpt lat="42.92564" lon="0.19689">
        <ele>1306</ele>
        <time>2019-06-23T09:58:13.101Z</time>
      </trkpt>
      <trkpt lat="42.92563" lon="0.19688">
        <ele>1308</ele>
        <time>2019-06-23T09:58:14.101Z</time>
      </trkpt>
      <trkpt lat="42.92563" lon="0.19687">
        <ele>1309</ele>
        <time>2019-06-23T09:58:15.101Z</time>
      </trkpt>
      <trkpt lat="42.92562" lon="0.19686">
        <ele>1310</ele>
        <time>2019-06-23T09:58:16.101Z</time>
      </trkpt>
      <trkpt lat="42.92562" lon="0.19686">
        <ele>1311</ele>
        <time>2019-06-23T09:58:17.101Z</time>
      </trkpt>
      <trkpt lat="42.92562" lon="0.19686">
        <ele>1312</ele>
        <time>2019-06-23T09:58:18.101Z</time>
      </trkpt>
      <trkpt lat="42.9256" lon="0.19685">
        <ele>1330</ele>
        <time>2019-06-23T09:58:19.109Z</time>
      </trkpt>
      <trkpt lat="42.92561" lon="0.19684">
        <ele>1330</ele>
        <time>2019-06-23T09:58:20.109Z</time>
      </trkpt>
      <trkpt lat="42.92561" lon="0.19683">
        <ele>1330</ele>
        <time>2019-06-23T09:58:21.109Z</time>
      </trkpt>
      <trkpt lat="42.92561" lon="0.19683">
        <ele>1329</ele>
        <time>2019-06-23T09:58:22.109Z</time>
      </trkpt>
      <trkpt lat="42.92562" lon="0.19683">
        <ele>1330</ele>
        <time>2019-06-23T09:58:23.109Z</time>
      </trkpt>
      <trkpt lat="42.92563" lon="0.19683">
        <ele>1330</ele>
        <time>2019-06-23T09:58:24.109Z</time>
      </trkpt>
      <trkpt lat="42.92563" lon="0.19683">
        <ele>1331</ele>
        <time>2019-06-23T09:58:25.109Z</time>
      </trkpt>
      <trkpt lat="42.92564" lon="0.19683">
        <ele>1333</ele>
        <time>2019-06-23T09:58:26.109Z</time>
      </trkpt>
      <trkpt lat="42.92564" lon="0.19683">
        <ele>1334</ele>
        <time>2019-06-23T09:58:27.109Z</time>
      </trkpt>
      <trkpt lat="42.92564" lon="0.19682">
        <ele>1334</ele>
        <time>2019-06-23T09:58:28.109Z</time>
      </trkpt>
      <trkpt lat="42.92564" lon="0.19682">
        <ele>1335</ele>
        <time>2019-06-23T09:58:29.109Z</time>
      </trkpt>
      <trkpt lat="42.92564" lon="0.19682">
        <ele>1336</ele>
        <time>2019-06-23T09:58:30.109Z</time>
      </trkpt>
      <trkpt lat="42.92582" lon="0.19702">
        <ele>1322</ele>
        <time>2019-06-23T09:58:31.000Z</time>
      </trkpt>
      <trkpt lat="42.92582" lon="0.19703">
        <ele>1322</ele>
        <time>2019-06-23T09:58:32.000Z</time>
      </trkpt>
      <trkpt lat="42.92582" lon="0.19703">
        <ele>1321</ele>
        <time>2019-06-23T09:58:33.000Z</time>
      </trkpt>
      <trkpt lat="42.92583" lon="0.19704">
        <ele>1321</ele>
        <time>2019-06-23T09:58:34.000Z</time>
      </trkpt>
      <trkpt lat="42.92583" lon="0.19705">
        <ele>1320</ele>
        <time>2019-06-23T09:58:35.000Z</time>
      </trkpt>
      <trkpt lat="42.92583" lon="0.19705">
        <ele>1318</ele>
        <time>2019-06-23T09:58:36.000Z</time>
      </trkpt>
      <trkpt lat="42.92583" lon="0.19706">
        <ele>1317</ele>
        <time>2019-06-23T09:58:37.000Z</time>
      </trkpt>
      <trkpt lat="42.92583" lon="0.19707">
        <ele>1312</ele>
        <time>2019-06-23T09:58:38.000Z</time>
      </trkpt>
      <trkpt lat="42.92583" lon="0.19708">
        <ele>1308</ele>
        <time>2019-06-23T09:58:39.000Z</time>
      </trkpt>
      <trkpt lat="42.92583" lon="0.19708">
        <ele>1305</ele>
        <time>2019-06-23T09:58:40.000Z</time>
      </trkpt>
      <trkpt lat="42.92583" lon="0.19709">
        <ele>1304</ele>
        <time>2019-06-23T09:58:41.000Z</time>
      </trkpt>
      <trkpt lat="42.92583" lon="0.1971">
        <ele>1302</ele>
        <time>2019-06-23T09:58:42.000Z</time>
      </trkpt>
      <trkpt lat="42.92583" lon="0.19711">
        <ele>1301</ele>
        <time>2019-06-23T09:58:43.000Z</time>
      </trkpt>
      <trkpt lat="42.92583" lon="0.19712">
        <ele>1300</ele>
        <time>2019-06-23T09:58:44.000Z</time>
      </trkpt>
      <trkpt lat="42.92582" lon="0.19714">
        <ele>1296</ele>
        <time>2019-06-23T09:58:45.000Z</time>
      </trkpt>
      <trkpt lat="42.92581" lon="0.19715">
        <ele>1293</ele>
        <time>2019-06-23T09:58:46.000Z</time>
      </trkpt>
      <trkpt lat="42.92579" lon="0.19716">
        <ele>1293</ele>
        <time>2019-06-23T09:58:47.000Z</time>
      </trkpt>
      <trkpt lat="42.92577" lon="0.19717">
        <ele>1292</ele>
        <time>2019-06-23T09:58:48.000Z</time>
      </trkpt>
      <trkpt lat="42.92576" lon="0.19718">
        <ele>1292</ele>
        <time>2019-06-23T09:58:49.000Z</time>
      </trkpt>
      <trkpt lat="42.92575" lon="0.19718">
        <ele>1292</ele>
        <time>2019-06-23T09:58:50.000Z</time>
      </trkpt>
      <trkpt lat="42.92575" lon="0.19719">
        <ele>1292</ele>
        <time>2019-06-23T09:58:51.000Z</time>
      </trkpt>
      <trkpt lat="42.92574" lon="0.1972">
        <ele>1293</ele>
        <time>2019-06-23T09:58:52.000Z</time>
      </trkpt>
      <trkpt lat="42.92573" lon="0.19721">
        <ele>1292</ele>
        <time>2019-06-23T09:58:53.000Z</time>
      </trkpt>
      <trkpt lat="42.92572" lon="0.19722">
        <ele>1293</ele>
        <time>2019-06-23T09:58:54.000Z</time>
      </trkpt>
      <trkpt lat="42.92572" lon="0.19723">
        <ele>1293</ele>
        <time>2019-06-23T09:58:55.000Z</time>
      </trkpt>
      <trkpt lat="42.92571" lon="0.19723">
        <ele>1293</ele>
        <time>2019-06-23T09:58:56.000Z</time>
      </trkpt>
      <trkpt lat="42.9257" lon="0.19724">
        <ele>1293</ele>
        <time>2019-06-23T09:58:57.000Z</time>
      </trkpt>
      <trkpt lat="42.92569" lon="0.19725">
        <ele>1293</ele>
        <time>2019-06-23T09:58:58.000Z</time>
      </trkpt>
      <trkpt lat="42.92569" lon="0.19725">
        <ele>1292</ele>
        <time>2019-06-23T09:58:59.000Z</time>
      </trkpt>
      <trkpt lat="42.92568" lon="0.19726">
        <ele>1292</ele>
        <time>2019-06-23T09:59:00.000Z</time>
      </trkpt>
      <trkpt lat="42.92568" lon="0.19727">
        <ele>1292</ele>
        <time>2019-06-23T09:59:01.000Z</time>
      </trkpt>
      <trkpt lat="42.92567" lon="0.19728">
        <ele>1293</ele>
        <time>2019-06-23T09:59:02.000Z</time>
      </trkpt>
      <trkpt lat="42.92566" lon="0.19729">
        <ele>1293</ele>
        <time>2019-06-23T09:59:03.000Z</time>
      </trkpt>
      <trkpt lat="42.92566" lon="0.1973">
        <ele>1292</ele>
        <time>2019-06-23T09:59:04.000Z</time>
      </trkpt>
      <trkpt lat="42.92565" lon="0.19731">
        <ele>1293</ele>
        <time>2019-06-23T09:59:05.000Z</time>
      </trkpt>
      <trkpt lat="42.92564" lon="0.19731">
        <ele>1293</ele>
        <time>2019-06-23T09:59:06.000Z</time>
      </trkpt>
      <trkpt lat="42.92563" lon="0.19732">
        <ele>1293</ele>
        <time>2019-06-23T09:59:07.000Z</time>
      </trkpt>
      <trkpt lat="42.92562" lon="0.19733">
        <ele>1295</ele>
        <time>2019-06-23T09:59:08.000Z</time>
      </trkpt>
      <trkpt lat="42.92562" lon="0.19734">
        <ele>1295</ele>
        <time>2019-06-23T09:59:09.000Z</time>
      </trkpt>
      <trkpt lat="42.92561" lon="0.19735">
        <ele>1296</ele>
        <time>2019-06-23T09:59:10.000Z</time>
      </trkpt>
      <trkpt lat="42.9256" lon="0.19735">
        <ele>1298</ele>
        <time>2019-06-23T09:59:11.000Z</time>
      </trkpt>
      <trkpt lat="42.92559" lon="0.19736">
        <ele>1299</ele>
        <time>2019-06-23T09:59:12.000Z</time>
      </trkpt>
      <trkpt lat="42.92558" lon="0.19737">
        <ele>1300</ele>
        <time>2019-06-23T09:59:13.000Z</time>
      </trkpt>
      <trkpt lat="42.92557" lon="0.19738">
        <ele>1301</ele>
        <time>2019-06-23T09:59:14.000Z</time>
      </trkpt>
      <trkpt lat="42.92556" lon="0.19739">
        <ele>1302</ele>
        <time>2019-06-23T09:59:15.000Z</time>
      </trkpt>
      <trkpt lat="42.92555" lon="0.1974">
        <ele>1304</ele>
        <time>2019-06-23T09:59:16.000Z</time>
      </trkpt>
      <trkpt lat="42.92554" lon="0.19741">
        <ele>1305</ele>
        <time>2019-06-23T09:59:17.000Z</time>
      </trkpt>
      <trkpt lat="42.92553" lon="0.19742">
        <ele>1306</ele>
        <time>2019-06-23T09:59:18.000Z</time>
      </trkpt>
      <trkpt lat="42.92552" lon="0.19743">
        <ele>1307</ele>
        <time>2019-06-23T09:59:19.000Z</time>
      </trkpt>
      <trkpt lat="42.92551" lon="0.19744">
        <ele>1308</ele>
        <time>2019-06-23T09:59:20.000Z</time>
      </trkpt>
      <trkpt lat="42.9255" lon="0.19745">
        <ele>1308</ele>
        <time>2019-06-23T09:59:21.000Z</time>
      </trkpt>
      <trkpt lat="42.92549" lon="0.19746">
        <ele>1309</ele>
        <time>2019-06-23T09:59:22.000Z</time>
      </trkpt>
      <trkpt lat="42.92549" lon="0.19747">
        <ele>1311</ele>
        <time>2019-06-23T09:59:23.000Z</time>
      </trkpt>
      <trkpt lat="42.92548" lon="0.19748">
        <ele>1312</ele>
        <time>2019-06-23T09:59:24.000Z</time>
      </trkpt>
      <trkpt lat="42.92547" lon="0.19749">
        <ele>1313</ele>
        <time>2019-06-23T09:59:25.000Z</time>
      </trkpt>
      <trkpt lat="42.92546" lon="0.19749">
        <ele>1314</ele>
        <time>2019-06-23T09:59:26.000Z</time>
      </trkpt>
      <trkpt lat="42.92545" lon="0.19749">
        <ele>1314</ele>
        <time>2019-06-23T09:59:27.000Z</time>
      </trkpt>
      <trkpt lat="42.92545" lon="0.1975">
        <ele>1316</ele>
        <time>2019-06-23T09:59:28.000Z</time>
      </trkpt>
      <trkpt lat="42.92545" lon="0.1975">
        <ele>1317</ele>
        <time>2019-06-23T09:59:29.000Z</time>
      </trkpt>
      <trkpt lat="42.92544" lon="0.1975">
        <ele>1318</ele>
        <time>2019-06-23T09:59:30.000Z</time>
      </trkpt>
      <trkpt lat="42.92543" lon="0.19751">
        <ele>1318</ele>
        <time>2019-06-23T09:59:31.000Z</time>
      </trkpt>
      <trkpt lat="42.92542" lon="0.19751">
        <ele>1318</ele>
        <time>2019-06-23T09:59:32.000Z</time>
      </trkpt>
      <trkpt lat="42.92542" lon="0.19751">
        <ele>1319</ele>
        <time>2019-06-23T09:59:33.000Z</time>
      </trkpt>
      <trkpt lat="42.92541" lon="0.19751">
        <ele>1318</ele>
        <time>2019-06-23T09:59:34.000Z</time>
      </trkpt>
      <trkpt lat="42.92541" lon="0.19751">
        <ele>1319</ele>
        <time>2019-06-23T09:59:35.000Z</time>
      </trkpt>
      <trkpt lat="42.9254" lon="0.19751">
        <ele>1318</ele>
        <time>2019-06-23T09:59:36.000Z</time>
      </trkpt>
      <trkpt lat="42.92539" lon="0.19752">
        <ele>1318</ele>
        <time>2019-06-23T09:59:37.000Z</time>
      </trkpt>
      <trkpt lat="42.92539" lon="0.19752">
        <ele>1318</ele>
        <time>2019-06-23T09:59:38.000Z</time>
      </trkpt>
      <trkpt lat="42.92539" lon="0.19752">
        <ele>1317</ele>
        <time>2019-06-23T09:59:39.000Z</time>
      </trkpt>
      <trkpt lat="42.92539" lon="0.19752">
        <ele>1316</ele>
        <time>2019-06-23T09:59:40.000Z</time>
      </trkpt>
      <trkpt lat="42.92538" lon="0.19752">
        <ele>1316</ele>
        <time>2019-06-23T09:59:41.000Z</time>
      </trkpt>
      <trkpt lat="42.92538" lon="0.19753">
        <ele>1317</ele>
        <time>2019-06-23T09:59:42.000Z</time>
      </trkpt>
      <trkpt lat="42.92537" lon="0.19753">
        <ele>1316</ele>
        <time>2019-06-23T09:59:43.000Z</time>
      </trkpt>
      <trkpt lat="42.92536" lon="0.19754">
        <ele>1316</ele>
        <time>2019-06-23T09:59:44.000Z</time>
      </trkpt>
      <trkpt lat="42.92536" lon="0.19754">
        <ele>1315</ele>
        <time>2019-06-23T09:59:45.000Z</time>
      </trkpt>
      <trkpt lat="42.92536" lon="0.19753">
        <ele>1314</ele>
        <time>2019-06-23T09:59:46.000Z</time>
      </trkpt>
      <trkpt lat="42.92535" lon="0.19753">
        <ele>1314</ele>
        <time>2019-06-23T09:59:47.000Z</time>
      </trkpt>
      <trkpt lat="42.92535" lon="0.19752">
        <ele>1312</ele>
        <time>2019-06-23T09:59:48.000Z</time>
      </trkpt>
      <trkpt lat="42.92535" lon="0.19752">
        <ele>1311</ele>
        <time>2019-06-23T09:59:49.000Z</time>
      </trkpt>
      <trkpt lat="42.92534" lon="0.19752">
        <ele>1310</ele>
        <time>2019-06-23T09:59:50.000Z</time>
      </trkpt>
      <trkpt lat="42.92534" lon="0.19751">
        <ele>1310</ele>
        <time>2019-06-23T09:59:51.000Z</time>
      </trkpt>
      <trkpt lat="42.92534" lon="0.19752">
        <ele>1310</ele>
        <time>2019-06-23T09:59:52.000Z</time>
      </trkpt>
      <trkpt lat="42.92534" lon="0.19752">
        <ele>1310</ele>
        <time>2019-06-23T09:59:53.000Z</time>
      </trkpt>
      <trkpt lat="42.92534" lon="0.19752">
        <ele>1309</ele>
        <time>2019-06-23T09:59:54.000Z</time>
      </trkpt>
      <trkpt lat="42.92534" lon="0.19751">
        <ele>1307</ele>
        <time>2019-06-23T09:59:55.000Z</time>
      </trkpt>
      <trkpt lat="42.92534" lon="0.19751">
        <ele>1306</ele>
        <time>2019-06-23T09:59:56.000Z</time>
      </trkpt>
      <trkpt lat="42.92534" lon="0.1975">
        <ele>1306</ele>
        <time>2019-06-23T09:59:57.000Z</time>
      </trkpt>
      <trkpt lat="42.92539" lon="0.19743">
        <ele>1300</ele>
        <time>2019-06-23T09:59:58.121Z</time>
      </trkpt>
      <trkpt lat="42.92539" lon="0.19743">
        <ele>1300</ele>
        <time>2019-06-23T09:59:59.121Z</time>
      </trkpt>
      <trkpt lat="42.92539" lon="0.19743">
        <ele>1300</ele>
        <time>2019-06-23T10:00:00.121Z</time>
      </trkpt>
      <trkpt lat="42.92539" lon="0.19743">
        <ele>1300</ele>
        <time>2019-06-23T10:00:01.121Z</time>
      </trkpt>
      <trkpt lat="42.92539" lon="0.19743">
        <ele>1300</ele>
        <time>2019-06-23T10:00:02.121Z</time>
      </trkpt>
    </trkseg>
  </trk>
</gpx>